
Distance (Route):
Temperature : 0°C
Humidity : -1.0%
Pressure : -1.0hPa| Receiver | Frames | First received | Last received |
|---|---|---|---|
| BIOWL1-15 | 848 | 2026-09-03 10:46:15 | 2026-09-03 13:20:22 |
| DM0DOS-11 | 668 | 2026-09-03 10:45:44 | 2026-09-03 13:19:56 |
| HSKMA3-T | 601 | 2026-09-03 11:09:49 | 2026-09-03 13:15:57 |
| DL1XH-west | 577 | 2026-09-03 11:05:34 | 2026-09-03 12:59:39 |
| DL1NUX | 501 | 2026-09-03 11:18:57 | 2026-09-03 13:19:54 |
| DL1XH1-15 | 436 | 2026-09-03 11:06:01 | 2026-09-03 12:58:10 |
| AA1-15 | 359 | 2026-09-03 11:28:13 | 2026-09-03 12:51:29 |
| DD8BA-10 | 197 | 2026-09-03 10:53:40 | 2026-09-03 12:55:27 |
| DL1XH-15 | 157 | 2026-09-03 11:23:32 | 2026-09-03 12:47:46 |
| DL3AQ-11 | 129 | 2026-09-03 10:58:52 | 2026-09-03 13:02:02 |
| DJ2DS-15 | 122 | 2026-09-03 10:54:12 | 2026-09-03 13:02:27 |
| DO3DL | 122 | 2026-09-03 11:01:11 | 2026-09-03 13:05:12 |
| GOEST3-10 | 104 | 2026-09-03 11:21:19 | 2026-09-03 12:50:09 |
| DF8AY | 101 | 2026-09-03 11:39:11 | 2026-09-03 12:57:30 |
| DB0UT-7 | 83 | 2026-09-03 10:50:53 | 2026-09-03 13:21:29 |
| DO3MHA-11 | 75 | 2026-09-03 11:24:41 | 2026-09-03 13:00:22 |
| DB0NH | 74 | 2026-09-03 11:08:19 | 2026-09-03 13:22:21 |
| DJ2KF-10 | 68 | 2026-09-03 10:47:02 | 2026-09-03 13:06:52 |
| DO3MHA-12 | 67 | 2026-09-03 11:26:23 | 2026-09-03 12:58:31 |
| DB0DAN | 62 | 2026-09-03 11:19:10 | 2026-09-03 13:11:55 |
| DD1CC8 | 60 | 2026-09-03 10:51:53 | 2026-09-03 13:16:17 |
| BIOWL9-15 | 57 | 2026-09-03 10:47:32 | 2026-09-03 13:19:41 |
| DL8DAS-14 | 54 | 2026-09-03 10:51:30 | 2026-09-03 13:03:22 |
| DK7TD | 53 | 2026-09-03 12:24:48 | 2026-09-03 12:36:46 |
| DJ8HS-15 | 52 | 2026-09-03 11:19:10 | 2026-09-03 13:14:09 |
| DO9LL-15 | 50 | 2026-09-03 10:47:03 | 2026-09-03 13:12:15 |
| DH3RM | 50 | 2026-09-03 10:47:05 | 2026-09-03 11:08:28 |
| DO1YAY-16 | 50 | 2026-09-03 10:51:13 | 2026-09-03 12:47:42 |
| DL9SK-14 | 50 | 2026-09-03 11:10:38 | 2026-09-03 13:17:54 |
| WPPR-10 | 48 | 2026-09-03 10:47:10 | 2026-09-03 12:48:50 |
| AU51GT2 | 48 | 2026-09-03 10:52:38 | 2026-09-03 13:03:30 |
| DD1CC3-15 | 48 | 2026-09-03 11:14:23 | 2026-09-03 13:16:18 |
| SO1NDE-10 | 46 | 2026-09-03 11:20:25 | 2026-09-03 13:19:00 |
| DL4BBY-15 | 44 | 2026-09-03 10:58:32 | 2026-09-03 13:04:59 |
| DO2KSM | 43 | 2026-09-03 10:51:25 | 2026-09-03 13:01:57 |
| SONCRA | 39 | 2026-09-03 11:18:41 | 2026-09-03 13:01:43 |
| DF7PN | 38 | 2026-09-03 11:22:40 | 2026-09-03 13:21:45 |
| BUE01 | 36 | 2026-09-03 11:05:29 | 2026-09-03 13:00:55 |
| DB0ND-19 | 36 | 2026-09-03 11:09:03 | 2026-09-03 13:25:09 |
| DL8DAS-15 | 32 | 2026-09-03 10:47:09 | 2026-09-03 12:52:21 |
| NBG1-10 | 32 | 2026-09-03 11:15:59 | 2026-09-03 13:21:53 |
| DL3OBA | 26 | 2026-09-03 11:38:24 | 2026-09-03 13:00:32 |
| DD1CC1-15 | 25 | 2026-09-03 10:47:38 | 2026-09-03 11:42:50 |
| DK9SH | 21 | 2026-09-03 11:19:13 | 2026-09-03 12:18:18 |
| DO2JMG | 20 | 2026-09-03 11:05:14 | 2026-09-03 11:43:46 |
| DL8OAI-8 | 20 | 2026-09-03 12:18:20 | 2026-09-03 13:06:19 |
| EDDB2-11 | 19 | 2026-09-03 11:44:40 | 2026-09-03 12:47:48 |
| BIOWL7-15 | 16 | 2026-09-03 10:52:40 | 2026-09-03 13:18:12 |
| HTAHTA | 13 | 2026-09-03 11:03:52 | 2026-09-03 12:36:30 |
| DL1CLM-18 | 12 | 2026-09-03 11:19:38 | 2026-09-03 12:17:16 |
| DJTTGO | 9 | 2026-09-03 11:43:02 | 2026-09-03 12:45:40 |
| HARRO8 | 6 | 2026-09-03 11:27:46 | 2026-09-03 11:56:20 |
| DJ3KS | 5 | 2026-09-03 10:56:20 | 2026-09-03 11:21:48 |
| AM1SDL-15 | 5 | 2026-09-03 11:39:51 | 2026-09-03 11:49:42 |
| DL0LBS | 5 | 2026-09-03 13:13:24 | 2026-09-03 13:17:32 |
| DL1LOL-11 | 4 | 2026-09-03 11:30:18 | 2026-09-03 12:54:49 |
| S3001 | 3 | 2026-09-03 11:48:37 | 2026-09-03 11:52:45 |
| DO2SHX-10 | 3 | 2026-09-03 12:40:06 | 2026-09-03 12:40:36 |
| DL4XJ-10 | 1 | 2026-09-03 12:51:14 | 2026-09-03 12:51:14 |
| Receiver | Date | Latitude | Longitude | Direction | Speed | Altitude | Climb | Temperature | Humidity | Pressure | Voltage | Killtimer | Uptime | BKT | XDATA |
|---|---|---|---|---|---|---|---|---|---|---|---|---|---|---|---|
| DB0ND-19 | 2026-09-03 13:25:09 | 50.58652 | 9.44048 | 71° | 58km/h | 1032m | -3.3m/s | 0°C | -1.0% | -1.0hPa | 2.7V | 00:00:00 | 00:00:00 | 00:00:00 | |
| DB0ND-19 | 2026-09-03 13:22:34 | 50.58127 | 9.40411 | 84° | 60km/h | 1453m | -3.0m/s | 11.4°C | -1.0% | 862.3hPa | 2.7V | 00:00:00 | 00:00:00 | 00:00:00 | |
| DB0NH | 2026-09-03 13:22:21 | 50.58123 | 9.40342 | 86° | 55km/h | 1463m | -3.7m/s | 11.2°C | 89.7% | 861.3hPa | 2.7V | 00:00:00 | 03:04:28 | 00:00:00 | |
| DB0NH | 2026-09-03 13:22:11 | 50.58117 | 9.40124 | 93° | 64km/h | 1494m | -3.0m/s | 11.1°C | 93.8% | 858.0hPa | 2.7V | 07:36:00 | 03:04:18 | 00:00:00 | |
| DB0NH | 2026-09-03 13:22:01 | 50.58118 | 9.39868 | 92° | 62km/h | 1535m | -5.3m/s | 10.6°C | 95.7% | 854.2hPa | 2.7V | 00:00:00 | 03:04:08 | 00:00:00 | |
| NBG1-10 | 2026-09-03 13:21:53 | 50.58124 | 9.39667 | 92° | 64km/h | 1559m | -3.2m/s | 10.3°C | 97.8% | 851.7hPa | 2.7V | 00:00:00 | 03:04:00 | 00:00:00 | |
| DB0NH | 2026-09-03 13:21:51 | 50.58125 | 9.39620 | 94° | 64km/h | 1565m | -3.6m/s | 10.2°C | 98.3% | 851.1hPa | 2.7V | 00:00:00 | 03:03:58 | 00:00:00 | |
| DF7PN | 2026-09-03 13:21:45 | 50.58147 | 9.39365 | 99° | 66km/h | 1604m | -3.9m/s | 10.9°C | 100.0% | 847.1hPa | 2.7V | 00:00:00 | 00:00:00 | 00:00:00 | |
| DB0NH | 2026-09-03 13:21:41 | 50.58147 | 9.39365 | 100° | 66km/h | 1604m | -3.9m/s | 10.9°C | 0% | 847.1hPa | 2.7V | 00:00:00 | 03:03:48 | 00:00:00 | |
| DB0ND-19 | 2026-09-03 13:21:32 | 50.58177 | 9.39134 | 101° | 66km/h | 1640m | -3.9m/s | 11.2°C | -1.0% | -1.0hPa | 2.7V | 00:00:00 | 00:00:00 | 00:00:00 | |
| NBG1-10 | 2026-09-03 13:21:31 | 50.58180 | 9.39108 | 101° | 69km/h | 1644m | -3.9m/s | 11.2°C | 0% | 843.2hPa | 2.7V | 00:00:00 | 03:03:38 | 00:00:00 | |
| DB0NH | 2026-09-03 13:21:31 | 50.58180 | 9.39108 | 101° | 66km/h | 1644m | -3.9m/s | 11.2°C | 0% | 843.2hPa | 2.7V | 00:00:00 | 03:03:38 | 00:00:00 | |
| DB0UT-7 | 2026-09-03 13:21:29 | 50.58186 | 9.39059 | 104° | 66km/h | 1652m | -4.0m/s | 11.2°C | 0% | 842.3hPa | 2.7V | 00:00:00 | 00:00:00 | 00:00:00 | |
| DB0NH | 2026-09-03 13:21:21 | 50.58216 | 9.38851 | 103° | 69km/h | 1683m | -3.8m/s | 11.7°C | 0% | 839.2hPa | 2.7V | 00:00:00 | 03:03:28 | 00:00:00 | |
| DB0UT-7 | 2026-09-03 13:21:18 | 50.58227 | 9.38770 | 104° | 68km/h | 1695m | -3.5m/s | 11.9°C | 97.5% | 838.1hPa | 2.7V | 00:00:00 | 03:03:25 | 00:00:00 | |
| DF7PN | 2026-09-03 13:21:14 | 50.58242 | 9.38659 | 99° | 68km/h | 1710m | -3.9m/s | 11.9°C | 96.5% | 836.6hPa | 2.7V | 00:00:00 | 00:00:00 | 00:00:00 | |
| DB0NH | 2026-09-03 13:21:11 | 50.58251 | 9.38582 | 105° | 69km/h | 1721m | -3.6m/s | 11.7°C | 98.4% | 835.4hPa | 2.7V | 00:00:00 | 03:03:18 | 00:00:00 | |
| DB0UT-7 | 2026-09-03 13:21:08 | 50.58265 | 9.38504 | 105° | 68km/h | 1732m | -3.6m/s | 11.6°C | 98.8% | 834.4hPa | 2.7V | 00:00:00 | 00:00:00 | 00:00:00 | |
| DB0NH | 2026-09-03 13:21:01 | 50.58294 | 9.38310 | 102° | 69km/h | 1757m | -3.6m/s | 11.4°C | 99.7% | 831.9hPa | 2.7V | 00:00:00 | 03:03:08 | 00:00:00 | |
| NBG1-10 | 2026-09-03 13:21:00 | 50.58298 | 9.38280 | 100° | 69km/h | 1761m | -3.6m/s | 11.4°C | 99.7% | 831.4hPa | 2.7V | 00:00:00 | 03:03:07 | 00:00:00 | |
| DB0NH | 2026-09-03 13:20:51 | 50.58326 | 9.38038 | 103° | 69km/h | 1792m | -3.7m/s | 11.3°C | 98.3% | 828.5hPa | 2.7V | 07:38:00 | 03:02:58 | 00:00:00 | |
| DF7PN | 2026-09-03 13:20:43 | 50.58352 | 9.37820 | 99° | 68km/h | 1822m | -4.0m/s | 11.1°C | 98.5% | 825.4hPa | 2.7V | 00:00:00 | 00:00:00 | 00:00:00 | |
| DB0NH | 2026-09-03 13:20:41 | 50.58358 | 9.37766 | 99° | 68km/h | 1830m | -3.9m/s | 11.0°C | 0% | 824.8hPa | 2.7V | 00:00:00 | 03:02:48 | 00:00:00 | |
| NBG1-10 | 2026-09-03 13:20:37 | 50.58370 | 9.37661 | 101° | 69km/h | 1844m | -3.6m/s | 10.8°C | 0% | 823.2hPa | 2.7V | 00:00:00 | 03:02:44 | 00:00:00 | |
| BIOWL1-15 | 2026-09-03 13:20:22 | 50.58446 | 9.37065 | 100° | 62km/h | 1931m | -3.8m/s | 11.7°C | 88.3% | 814.9hPa | 2.7V | 07:39:09 | 03:02:22 | 00:00:00 | |
| BIOWL1-15 | 2026-09-03 13:20:19 | 50.58449 | 9.37040 | 103° | 64km/h | 1935m | -4m/s | 11.6°C | 88.3% | 814.4hPa | 2.7V | 07:39:09 | 03:02:21 | 00:00:00 | |
| BIOWL1-15 | 2026-09-03 13:20:10 | 50.58472 | 9.36910 | 106° | 75km/h | 1954m | -3.7m/s | 11.5°C | 88.6% | 812.6hPa | 2.7V | 07:39:09 | 03:02:16 | 00:00:00 | |
| BIOWL1-15 | 2026-09-03 13:20:08 | 50.58477 | 9.36881 | 103° | 77km/h | 1958m | -3.7m/s | 11.5°C | 88.9% | 812.2hPa | 2.7V | 07:39:09 | 03:02:15 | 00:00:00 | |
| BIOWL1-15 | 2026-09-03 13:20:06 | 50.58485 | 9.36822 | 100° | 77km/h | 1966m | -4m/s | 11.4°C | 89% | 811.5hPa | 2.7V | 07:39:09 | 03:02:13 | 00:00:00 | |
| BIOWL1-15 | 2026-09-03 13:20:04 | 50.58491 | 9.36762 | 98° | 75km/h | 1974m | -4.2m/s | 11.4°C | 88.9% | 810.6hPa | 2.7V | 07:39:09 | 03:02:11 | 00:00:00 | |
| BIOWL1-15 | 2026-09-03 13:20:02 | 50.58496 | 9.36706 | 98° | 69km/h | 1982m | -3.8m/s | 11.3°C | 89% | 809.9hPa | 2.7V | 07:39:09 | 03:02:09 | 00:00:00 | |
| BIOWL1-15 | 2026-09-03 13:20:00 | 50.58501 | 9.36651 | 100° | 68km/h | 1989m | -3.7m/s | 11.3°C | 89.3% | 809.2hPa | 2.7V | 07:39:09 | 03:02:07 | 00:00:00 | |
| BIOWL1-15 | 2026-09-03 13:19:58 | 50.58507 | 9.36598 | 102° | 68km/h | 1997m | -3.8m/s | 11.2°C | 89.7% | 808.6hPa | 2.7V | 07:39:09 | 03:02:05 | 00:00:00 | |
| DM0DOS-11 | 2026-09-03 13:19:56 | 50.58532 | 9.36379 | 101° | 68km/h | 2027m | -3.2m/s | 11°C | 89.4% | 805.6hPa | 2.7V | 07:39:06 | 03:01:57 | 00:00:00 | |
| DL1NUX | 2026-09-03 13:19:54 | 50.58521 | 9.36487 | 98° | 71km/h | 2012m | -4m/s | 11.1°C | 88.6% | 807hPa | 2.7V | 07:39:02 | 03:02:01 | 00:00:00 | |
| DL1NUX | 2026-09-03 13:19:54 | 50.58535 | 9.36352 | 101° | 71km/h | 2031m | -3.5m/s | 10.9°C | 89.7% | 805.2hPa | 2.7V | 07:39:07 | 03:01:56 | 00:00:00 | |
| BIOWL1-15 | 2026-09-03 13:19:54 | 50.58520 | 9.36487 | 98° | 71km/h | 2012m | -4m/s | 11.1°C | 90.8% | 807hPa | 2.7V | 07:39:09 | 03:02:01 | 00:00:00 | |
| NBG1-10 | 2026-09-03 13:19:52 | 50.58525 | 9.36432 | 99° | 69km/h | 2020m | -3.7m/s | 11.0°C | 88.7% | 806.2hPa | 2.7V | 00:00:00 | 03:01:59 | 00:00:00 | |
| DM0DOS-11 | 2026-09-03 13:19:51 | 50.58545 | 9.36269 | 99° | 69km/h | 2041m | -4m/s | 10.8°C | 90.5% | 804.1hPa | 2.7V | 07:39:10 | 03:01:53 | 00:00:00 | |
| DB0UT-7 | 2026-09-03 13:19:50 | 50.58532 | 9.36379 | 102° | 69km/h | 2027m | -3.2m/s | 10.9°C | 89.4% | 805.5hPa | 2.7V | 07:39:00 | 03:01:57 | 00:00:00 | |
| DL1NUX | 2026-09-03 13:19:48 | 50.58553 | 9.36187 | 98° | 69km/h | 2054m | -4.4m/s | 10.7°C | 91% | 803hPa | 2.7V | 07:39:13 | 03:01:50 | 00:00:00 | |
| BIOWL1-15 | 2026-09-03 13:19:44 | 50.58550 | 9.36214 | 99° | 69km/h | 2050m | -4.3m/s | 10.8°C | 92.2% | 803.5hPa | 2.7V | 07:40:00 | 03:01:51 | 00:00:00 | |
| DM0DOS-11 | 2026-09-03 13:19:42 | 50.58572 | 9.36022 | 101° | 73km/h | 2078m | -4.2m/s | 10.6°C | 90.9% | 800.6hPa | 2.7V | 07:39:19 | 03:01:44 | 00:00:00 | |
| DL1NUX | 2026-09-03 13:19:41 | 50.58575 | 9.35993 | 100° | 73km/h | 2083m | -3.8m/s | 10.6°C | 91.2% | 800.1hPa | 2.7V | 07:39:20 | 03:01:43 | 00:00:00 | |
| BIOWL9-15 | 2026-09-03 13:19:41 | 50.58558 | 9.36132 | 98° | 69km/h | 2062m | -4.1m/s | 10.7°C | 89.4% | 802.1hPa | 2.7V | 00:00:00 | 00:00:00 | 00:00:00 | |
| DM0DOS-11 | 2026-09-03 13:19:37 | 50.58587 | 9.35884 | 100° | 68km/h | 2098m | -3.8m/s | 10.4°C | 91.5% | 798.6hPa | 2.7V | 07:39:24 | 03:01:39 | 00:00:00 | |
| BIOWL1-15 | 2026-09-03 13:19:33 | 50.58584 | 9.35910 | 100° | 68km/h | 2094m | -4m/s | 10.5°C | 92.5% | 799.2hPa | 2.7V | 07:40:00 | 03:01:40 | 00:00:00 | |
| DB0NH | 2026-09-03 13:19:31 | 50.58590 | 9.35856 | 101° | 68km/h | 2102m | -4.1m/s | 10.4°C | 91.6% | 798.3hPa | 2.7V | 00:00:00 | 03:01:38 | 00:00:00 | |
| DL1NUX | 2026-09-03 13:19:30 | 50.58606 | 9.35693 | 99° | 68km/h | 2124m | -4m/s | 10.2°C | 92.8% | 796.2hPa | 2.7V | 07:39:31 | 03:01:32 | 00:00:00 | |
| DB0UT-7 | 2026-09-03 13:19:30 | 50.58593 | 9.35829 | 100° | 68km/h | 2106m | -3.9m/s | 10.3°C | 91.6% | 797.9hPa | 2.7V | 00:00:00 | 00:00:00 | 00:00:00 | |
| DB0ND-19 | 2026-09-03 13:19:28 | 50.58599 | 9.35773 | 96° | 69km/h | 2113m | -4.0m/s | 0°C | -1.0% | -1.0hPa | 2.7V | 00:00:00 | 00:00:00 | 00:00:00 | |
| DM0DOS-11 | 2026-09-03 13:19:27 | 50.58615 | 9.35615 | 101° | 64km/h | 2137m | -4.1m/s | 10.2°C | 92.2% | 795hPa | 2.7V | 07:39:34 | 03:01:29 | 00:00:00 | |
| BIOWL1-15 | 2026-09-03 13:19:27 | 50.58612 | 9.35641 | 100° | 66km/h | 2133m | -4.1m/s | 10.2°C | 93.6% | 795.4hPa | 2.7V | 07:40:00 | 03:01:30 | 00:00:00 | |
| BIOWL1-15 | 2026-09-03 13:19:14 | 50.58645 | 9.35350 | 99° | 69km/h | 2175m | -3.8m/s | 10.1°C | 92.3% | 791.5hPa | 2.7V | 07:40:00 | 03:01:19 | 00:00:00 | |
| DM0DOS-11 | 2026-09-03 13:19:13 | 50.58645 | 9.35350 | 98° | 69km/h | 2175m | -3.8m/s | 10.1°C | 90.5% | 791.5hPa | 2.7V | 07:39:44 | 03:01:19 | 00:00:00 | |
| DB0NH | 2026-09-03 13:19:11 | 50.58647 | 9.35323 | 100° | 68km/h | 2179m | -3.7m/s | 10.0°C | 90.6% | 790.8hPa | 2.7V | 07:39:00 | 03:01:18 | 00:00:00 | |
| DL1NUX | 2026-09-03 13:19:10 | 50.58664 | 9.35160 | 99° | 68km/h | 2202m | -4.1m/s | 9.8°C | 91.8% | 788.8hPa | 2.7V | 07:39:51 | 03:01:12 | 00:00:00 | |
| DB0UT-7 | 2026-09-03 13:19:10 | 50.58651 | 9.35296 | 101° | 68km/h | 2183m | -3.9m/s | 10.0°C | 90.8% | 790.6hPa | 2.7V | 00:00:00 | 03:01:17 | 00:00:00 | |
| DM0DOS-11 | 2026-09-03 13:19:07 | 50.58659 | 9.35213 | 97° | 69km/h | 2194m | -3.9m/s | 9.9°C | 91.4% | 789.4hPa | 2.7V | 07:39:49 | 03:01:14 | 00:00:00 | |
| DM0DOS-11 | 2026-09-03 13:19:07 | 50.58675 | 9.35051 | 97° | 68km/h | 2219m | -4.1m/s | 9.7°C | 92.7% | 787.3hPa | 2.7V | 07:39:55 | 03:01:08 | 00:00:00 | |
| DL1NUX | 2026-09-03 13:19:05 | 50.58677 | 9.35025 | 98° | 68km/h | 2223m | -4m/s | 9.6°C | 92.8% | 786.7hPa | 2.7V | 07:39:56 | 03:01:07 | 00:00:00 | |
| BIOWL1-15 | 2026-09-03 13:19:02 | 50.58672 | 9.35078 | 97° | 69km/h | 2215m | -4m/s | 9.7°C | 94.2% | 787.5hPa | 2.7V | 07:40:00 | 03:01:09 | 00:00:00 | |
| DM0DOS-11 | 2026-09-03 13:19:02 | 50.58686 | 9.34918 | 97° | 66km/h | 2239m | -4m/s | 9.5°C | 93.4% | 785.2hPa | 2.7V | 07:40:00 | 03:01:03 | 00:00:00 | |
| SO1NDE-10 | 2026-09-03 13:19:00 | 50.58677 | 9.35025 | 99° | 69km/h | 2223m | -4.0m/s | 9.6°C | 92.8% | 786.7hPa | 2.7V | 00:00:00 | 03:01:07 | 00:00:00 | |
| DM0DOS-11 | 2026-09-03 13:18:56 | 50.58699 | 9.34785 | 96° | 68km/h | 2259m | -4.2m/s | 9.3°C | 94.3% | 783.3hPa | 2.7V | 07:40:05 | 03:00:58 | 00:00:00 | |
| BIOWL1-15 | 2026-09-03 13:18:51 | 50.58699 | 9.34785 | 96° | 68km/h | 2259m | -4.2m/s | 9.3°C | 95.2% | 783.3hPa | 2.7V | 07:40:51 | 03:00:58 | 00:00:00 | |
| DM0DOS-11 | 2026-09-03 13:18:51 | 50.58709 | 9.34652 | 95° | 68km/h | 2278m | -4m/s | 9.1°C | 95.3% | 781.5hPa | 2.7V | 07:40:10 | 03:00:53 | 00:00:00 | |
| DB0UT-7 | 2026-09-03 13:18:50 | 50.58701 | 9.34758 | 97° | 68km/h | 2263m | -3.9m/s | 9.2°C | 94.7% | 782.8hPa | 2.7V | 00:00:00 | 00:00:00 | 00:00:00 | |
| DL1NUX | 2026-09-03 13:18:43 | 50.58713 | 9.34573 | 96° | 64km/h | 2291m | -3.9m/s | 9°C | 96% | 780.4hPa | 2.7V | 07:40:13 | 03:00:50 | 00:00:00 | |
| DL1NUX | 2026-09-03 13:18:43 | 50.58726 | 9.34437 | 96° | 75km/h | 2309m | -3.9m/s | 8.8°C | 96.9% | 778.5hPa | 2.7V | 07:40:18 | 03:00:45 | 00:00:00 | |
| BIOWL1-15 | 2026-09-03 13:18:40 | 50.58728 | 9.34407 | 95° | 75km/h | 2313m | -4.3m/s | 8.8°C | 98.1% | 778.2hPa | 2.7V | 07:40:51 | 03:00:44 | 00:00:00 | |
| DF7PN | 2026-09-03 13:18:39 | 50.58724 | 9.34466 | 98° | 73km/h | 2306m | -3.9m/s | 8.9°C | 94.9% | 778.9hPa | 2.7V | 00:00:00 | 00:00:00 | 00:00:00 | |
| DM0DOS-11 | 2026-09-03 13:18:36 | 50.58729 | 9.34378 | 93° | 71km/h | 2318m | -4.2m/s | 8.8°C | 97.1% | 777.7hPa | 2.7V | 07:40:20 | 03:00:43 | 00:00:00 | |
| DL1NUX | 2026-09-03 13:18:33 | 50.58740 | 9.34165 | 96° | 68km/h | 2350m | -4.5m/s | 8.5°C | 98.4% | 774.6hPa | 2.7V | 07:40:28 | 03:00:35 | 00:00:00 | |
| DB0NH | 2026-09-03 13:18:31 | 50.58734 | 9.34244 | 96° | 68km/h | 2338m | -4.2m/s | 8.5°C | 98.8% | 775.8hPa | 2.7V | 00:00:00 | 03:00:38 | 00:00:00 | |
| DM0DOS-11 | 2026-09-03 13:18:30 | 50.58744 | 9.34111 | 96° | 68km/h | 2359m | -4.5m/s | 8.4°C | 99.2% | 773.8hPa | 2.7V | 07:40:30 | 03:00:33 | 00:00:00 | |
| DB0UT-7 | 2026-09-03 13:18:30 | 50.58736 | 9.34218 | 98° | 68km/h | 2342m | -4.0m/s | 8.5°C | 98.4% | 775.4hPa | 2.7V | 00:00:00 | 03:00:37 | 00:00:00 | |
| DL1NUX | 2026-09-03 13:18:28 | 50.58749 | 9.34031 | 94° | 68km/h | 2373m | -4m/s | 8.4°C | 98.2% | 772.7hPa | 2.7V | 07:40:33 | 03:00:30 | 00:00:00 | |
| BIOWL1-15 | 2026-09-03 13:18:26 | 50.58744 | 9.34111 | 97° | 68km/h | 2359m | -4.5m/s | 8.4°C | 98.9% | 773.8hPa | 2.7V | 07:40:51 | 03:00:33 | 00:00:00 | |
| SO1NDE-10 | 2026-09-03 13:18:25 | 50.58746 | 9.34084 | 97° | 66km/h | 2364m | -4.5m/s | 8.3°C | 99.4% | 773.5hPa | 2.7V | 00:00:00 | 03:00:32 | 00:00:00 | |
| DM0DOS-11 | 2026-09-03 13:18:23 | 50.58753 | 9.33978 | 95° | 66km/h | 2381m | -4.6m/s | 8.3°C | 97.3% | 771.9hPa | 2.7V | 07:40:35 | 03:00:28 | 00:00:00 | |
| NBG1-10 | 2026-09-03 13:18:19 | 50.58756 | 9.33925 | 95° | 68km/h | 2390m | -4.4m/s | 8.2°C | 96.7% | 770.9hPa | 2.7V | 00:00:00 | 03:00:26 | 00:00:00 | |
| DL1NUX | 2026-09-03 13:18:18 | 50.58765 | 9.33768 | 95° | 69km/h | 2416m | -4.4m/s | 8.1°C | 97.1% | 768.5hPa | 2.7V | 07:40:43 | 03:00:20 | 00:00:00 | |
| DM0DOS-11 | 2026-09-03 13:18:17 | 50.58760 | 9.33848 | 95° | 68km/h | 2403m | -4.3m/s | 8.2°C | 97% | 769.8hPa | 2.7V | 07:40:40 | 03:00:23 | 00:00:00 | |
| DM0DOS-11 | 2026-09-03 13:18:17 | 50.58768 | 9.33712 | 95° | 69km/h | 2425m | -5m/s | 8°C | 97.5% | 767.8hPa | 2.7V | 07:40:45 | 03:00:18 | 00:00:00 | |
| BIOWL1-15 | 2026-09-03 13:18:16 | 50.58760 | 9.33848 | 96° | 68km/h | 2403m | -4.3m/s | 8.2°C | 97.7% | 769.8hPa | 2.7V | 07:40:51 | 03:00:23 | 00:00:00 | |
| SO1NDE-10 | 2026-09-03 13:18:15 | 50.58762 | 9.33821 | 96° | 69km/h | 2407m | -4.4m/s | 8.2°C | 97.0% | 769.3hPa | 2.7V | 00:00:00 | 03:00:22 | 00:00:00 | |
| DL1NUX | 2026-09-03 13:18:13 | 50.58773 | 9.33629 | 95° | 68km/h | 2439m | -4.5m/s | 8°C | 97.3% | 766.5hPa | 2.7V | 07:40:48 | 03:00:15 | 00:00:00 | |
| BIOWL7-15 | 2026-09-03 13:18:12 | 50.58765 | 9.33768 | 97° | 69km/h | 2416m | -4.4m/s | 8.1°C | 95.2% | 768.5hPa | 2.7V | 00:00:00 | 00:00:00 | 00:00:00 | |
| DM0DOS-11 | 2026-09-03 13:18:11 | 50.58776 | 9.33576 | 94° | 66km/h | 2448m | -4.6m/s | 7.9°C | 97.4% | 765.6hPa | 2.7V | 07:40:50 | 03:00:13 | 00:00:00 | |
| DB0NH | 2026-09-03 13:18:11 | 50.58768 | 9.33712 | 96° | 68km/h | 2425m | -5.0m/s | 8.0°C | 97.5% | 767.7hPa | 2.7V | 00:00:00 | 03:00:18 | 00:00:00 | |
| DB0UT-7 | 2026-09-03 13:18:10 | 50.58770 | 9.33684 | 96° | 68km/h | 2430m | -4.4m/s | 8.0°C | 97.7% | 767.3hPa | 2.7V | 00:00:00 | 00:00:00 | 00:00:00 | |
| BIOWL9-15 | 2026-09-03 13:18:08 | 50.58775 | 9.33602 | 95° | 66km/h | 2444m | -4.5m/s | 8.0°C | 95.2% | 765.9hPa | 2.7V | 00:00:00 | 00:00:00 | 00:00:00 | |
| DM0DOS-11 | 2026-09-03 13:18:06 | 50.58784 | 9.33449 | 95° | 68km/h | 2469m | -4.1m/s | 7.9°C | 97.2% | 763.6hPa | 2.7V | 07:40:55 | 03:00:08 | 00:00:00 | |
| BIOWL1-15 | 2026-09-03 13:18:06 | 50.58781 | 9.33501 | 96° | 62km/h | 2461m | -4.4m/s | 7.9°C | 96.3% | 764.5hPa | 2.7V | 07:41:42 | 03:00:10 | 00:00:00 | |
| DL1NUX | 2026-09-03 13:18:03 | 50.58781 | 9.33501 | 96° | 62km/h | 2461m | -4.4m/s | 7.9°C | 96.9% | 764.5hPa | 2.7V | 07:40:53 | 03:00:10 | 00:00:00 | |
| DL1NUX | 2026-09-03 13:18:03 | 50.58788 | 9.33367 | 93° | 69km/h | 2483m | -4.9m/s | 7.8°C | 97.5% | 762.5hPa | 2.7V | 07:40:58 | 03:00:05 | 00:00:00 | |
| DM0DOS-11 | 2026-09-03 13:18:01 | 50.58791 | 9.33311 | 94° | 71km/h | 2492m | -5m/s | 7.8°C | 96.2% | 761.5hPa | 2.6V | 07:41:00 | 03:00:03 | 00:00:00 | |
| BIOWL1-15 | 2026-09-03 13:17:55 | 50.58792 | 9.33283 | 94° | 71km/h | 2498m | -5.2m/s | 7.8°C | 97.5% | 761.1hPa | 2.7V | 07:41:42 | 03:00:02 | 00:00:00 | |
| DL9SK-14 | 2026-09-03 13:17:54 | 50.58795 | 9.33228 | 94° | 69km/h | 2508m | -5.2m/s | 7.8°C | 94.3% | 760.1hPa | 2.7V | 00:00:00 | 00:00:00 | 00:00:00 | |
| DL1NUX | 2026-09-03 13:17:51 | 50.58798 | 9.33172 | 94° | 71km/h | 2518m | -5.5m/s | 7.7°C | 95.4% | 759hPa | 2.7V | 07:41:05 | 02:59:58 | 00:00:00 | |
| DB0NH | 2026-09-03 13:17:51 | 50.58798 | 9.33172 | 95° | 71km/h | 2519m | -5.4m/s | 7.7°C | 95.4% | 759.0hPa | 2.7V | 00:00:00 | 02:59:58 | 00:00:00 | |
| DB0UT-7 | 2026-09-03 13:17:50 | 50.58799 | 9.33143 | 94° | 71km/h | 2524m | -5.4m/s | 7.7°C | 95.2% | 758.5hPa | 2.7V | 00:00:00 | 02:59:57 | 00:00:00 | |
| DM0DOS-11 | 2026-09-03 13:17:49 | 50.58804 | 9.33031 | 94° | 71km/h | 2545m | -5.3m/s | 7.6°C | 95.7% | 756.6hPa | 2.7V | 07:41:10 | 02:59:53 | 00:00:00 | |
| BIOWL1-15 | 2026-09-03 13:17:45 | 50.58805 | 9.33003 | 94° | 71km/h | 2550m | -5.5m/s | 7.5°C | 97.1% | 756.4hPa | 2.7V | 07:41:42 | 02:59:52 | 00:00:00 | |
| DM0DOS-11 | 2026-09-03 13:17:43 | 50.58810 | 9.32890 | 94° | 71km/h | 2571m | -5m/s | 7.4°C | 96.3% | 754.3hPa | 2.6V | 07:41:15 | 02:59:48 | 00:00:00 | |
| DL1NUX | 2026-09-03 13:17:36 | 50.58817 | 9.32748 | 94° | 71km/h | 2596m | -5m/s | 7.2°C | 96.7% | 752hPa | 2.7V | 07:41:20 | 02:59:43 | 00:00:00 | |
| DL1NUX | 2026-09-03 13:17:36 | 50.58823 | 9.32606 | 94° | 71km/h | 2620m | -4.7m/s | 7°C | 98% | 749.9hPa | 2.7V | 07:41:25 | 02:59:38 | 00:00:00 | |
| BIOWL1-15 | 2026-09-03 13:17:34 | 50.58819 | 9.32691 | 94° | 71km/h | 2606m | -5m/s | 7.1°C | 98.1% | 751.1hPa | 2.7V | 07:41:42 | 02:59:41 | 00:00:00 | |
| DL0LBS | 2026-09-03 13:17:32 | 50.58820 | 9.32663 | 95° | 71km/h | 2611m | -4.9m/s | 7.0°C | 95.9% | 750.7hPa | 2.6V | 00:00:00 | 00:00:00 | 00:00:00 | |
| DB0NH | 2026-09-03 13:17:31 | 50.58823 | 9.32606 | 95° | 71km/h | 2620m | -4.7m/s | 7.0°C | 98.0% | 749.8hPa | 2.6V | 00:00:00 | 02:59:38 | 00:00:00 | |
| DB0UT-7 | 2026-09-03 13:17:30 | 50.58824 | 9.32578 | 96° | 71km/h | 2625m | -4.7m/s | 6.9°C | 98.3% | 749.3hPa | 2.6V | 00:00:00 | 00:00:00 | 00:00:00 | |
| BIOWL7-15 | 2026-09-03 13:17:29 | 50.58824 | 9.32578 | 96° | 71km/h | 2625m | -4.8m/s | 7.0°C | 96.2% | 749.4hPa | 2.7V | 00:00:00 | 00:00:00 | 00:00:00 | |
| DL1NUX | 2026-09-03 13:17:26 | 50.58830 | 9.32464 | 94° | 71km/h | 2644m | -4.6m/s | 6.8°C | 98.9% | 747.6hPa | 2.7V | 07:41:30 | 02:59:33 | 00:00:00 | |
| BIOWL1-15 | 2026-09-03 13:17:24 | 50.58833 | 9.32407 | 94° | 73km/h | 2653m | -4.8m/s | 6.7°C | 97.9% | 746.8hPa | 2.7V | 07:41:42 | 02:59:31 | 00:00:00 | |
| DM0DOS-11 | 2026-09-03 13:17:23 | 50.58838 | 9.32321 | 94° | 71km/h | 2667m | -4.5m/s | 6.7°C | 97.9% | 745.5hPa | 2.7V | 07:41:35 | 02:59:28 | 00:00:00 | |
| DL9SK-14 | 2026-09-03 13:17:23 | 50.58836 | 9.32350 | 94° | 71km/h | 2662m | -4.6m/s | 6.7°C | 96.1% | 746.0hPa | 2.7V | 00:00:00 | 00:00:00 | 00:00:00 | |
| DM0DOS-11 | 2026-09-03 13:17:16 | 50.58845 | 9.32181 | 94° | 71km/h | 2690m | -4.7m/s | 6.5°C | 98.1% | 743.4hPa | 2.7V | 07:41:40 | 02:59:23 | 00:00:00 | |
| DL1NUX | 2026-09-03 13:17:16 | 50.58852 | 9.32041 | 95° | 71km/h | 2713m | -4.8m/s | 6.3°C | 99% | 741.2hPa | 2.7V | 07:41:45 | 02:59:18 | 00:00:00 | |
| BIOWL1-15 | 2026-09-03 13:17:14 | 50.58848 | 9.32125 | 95° | 69km/h | 2699m | -4.8m/s | 6.4°C | 98.5% | 742.6hPa | 2.6V | 07:41:42 | 02:59:21 | 00:00:00 | |
| NBG1-10 | 2026-09-03 13:17:13 | 50.58849 | 9.32097 | 95° | 69km/h | 2704m | -4.7m/s | 6.3°C | 98.5% | 742.1hPa | 2.7V | 00:00:00 | 02:59:20 | 00:00:00 | |
| DB0NH | 2026-09-03 13:17:11 | 50.58853 | 9.32041 | 96° | 69km/h | 2714m | -4.8m/s | 6.3°C | 99.0% | 741.2hPa | 2.7V | 00:00:00 | 02:59:18 | 00:00:00 | |
| DM0DOS-11 | 2026-09-03 13:17:10 | 50.58861 | 9.31903 | 96° | 69km/h | 2738m | -5m/s | 6.2°C | 99.5% | 739.3hPa | 2.7V | 07:41:50 | 02:59:13 | 00:00:00 | |
| BIOWL1-15 | 2026-09-03 13:17:03 | 50.58867 | 9.31820 | 97° | 69km/h | 2752m | -4.7m/s | 6.1°C | 99.2% | 737.9hPa | 2.7V | 07:42:33 | 02:59:10 | 00:00:00 | |
| DM0DOS-11 | 2026-09-03 13:17:01 | 50.58871 | 9.31765 | 97° | 69km/h | 2762m | -4.9m/s | 6°C | 99.6% | 737hPa | 2.7V | 07:41:55 | 02:59:08 | 00:00:00 | |
| DL1NUX | 2026-09-03 13:17:01 | 50.58884 | 9.31629 | 98° | 69km/h | 2786m | -4.9m/s | 5.9°C | 98.6% | 734.8hPa | 2.7V | 07:42:00 | 02:59:03 | 00:00:00 | |
| DL1NUX | 2026-09-03 13:16:56 | 50.58898 | 9.31493 | 100° | 69km/h | 2811m | -4.8m/s | 5.8°C | 96.3% | 732.6hPa | 2.7V | 07:42:05 | 02:58:58 | 00:00:00 | |
| BIOWL1-15 | 2026-09-03 13:16:53 | 50.58892 | 9.31548 | 100° | 69km/h | 2801m | -5m/s | 5.9°C | 96.2% | 733.5hPa | 2.7V | 07:42:33 | 02:59:00 | 00:00:00 | |
| DL9SK-14 | 2026-09-03 13:16:52 | 50.58898 | 9.31493 | 100° | 68km/h | 2811m | -4.8m/s | 5.8°C | 94.1% | 732.6hPa | 2.7V | 00:00:00 | 00:00:00 | 00:00:00 | |
| DB0NH | 2026-09-03 13:16:51 | 50.58898 | 9.31493 | 101° | 69km/h | 2811m | -4.7m/s | 5.8°C | 96.3% | 732.6hPa | 2.7V | 00:00:00 | 02:58:58 | 00:00:00 | |
| DB0UT-7 | 2026-09-03 13:16:50 | 50.58901 | 9.31466 | 101° | 69km/h | 2816m | -5.1m/s | 5.7°C | 96.4% | 732.2hPa | 2.7V | 00:00:00 | 00:00:00 | 00:00:00 | |
| DL1NUX | 2026-09-03 13:16:46 | 50.58914 | 9.31358 | 101° | 69km/h | 2835m | -5.1m/s | 5.8°C | 92.6% | 730.6hPa | 2.7V | 07:42:10 | 02:58:53 | 00:00:00 | |
| DM0DOS-11 | 2026-09-03 13:16:43 | 50.58931 | 9.31222 | 100° | 69km/h | 2861m | -4.9m/s | 5.7°C | 91.7% | 728.3hPa | 2.7V | 07:42:15 | 02:58:48 | 00:00:00 | |
| BIOWL1-15 | 2026-09-03 13:16:42 | 50.58927 | 9.31249 | 101° | 69km/h | 2856m | -5m/s | 5.8°C | 92.3% | 728.7hPa | 2.7V | 07:42:33 | 02:58:49 | 00:00:00 | |
| DL1NUX | 2026-09-03 13:16:36 | 50.58964 | 9.30946 | 100° | 71km/h | 2910m | -5m/s | 5.5°C | 88.7% | 723.9hPa | 2.7V | 07:42:25 | 02:58:38 | 00:00:00 | |
| BIOWL1-15 | 2026-09-03 13:16:32 | 50.58961 | 9.30974 | 101° | 71km/h | 2905m | -4.9m/s | 5.6°C | 90.6% | 724.4hPa | 2.7V | 07:42:33 | 02:58:39 | 00:00:00 | |
| DB0NH | 2026-09-03 13:16:31 | 50.58964 | 9.30946 | 101° | 71km/h | 2911m | -5.0m/s | 5.5°C | 88.7% | 723.8hPa | 2.6V | 07:42:00 | 02:58:38 | 00:00:00 | |
| NBG1-10 | 2026-09-03 13:16:29 | 50.58971 | 9.30891 | 101° | 71km/h | 2921m | -4.8m/s | 5.5°C | 89.1% | 722.8hPa | 2.6V | 00:00:00 | 02:58:36 | 00:00:00 | |
| DB0UT-7 | 2026-09-03 13:16:28 | 50.58974 | 9.30864 | 102° | 71km/h | 2925m | -5.2m/s | 5.4°C | 89.5% | 722.4hPa | 2.6V | 00:00:00 | 02:58:35 | 00:00:00 | |
| BIOWL7-15 | 2026-09-03 13:16:26 | 50.58978 | 9.30836 | 103° | 71km/h | 2931m | -5.0m/s | 5.4°C | 87.6% | 722.1hPa | 2.6V | 00:00:00 | 00:00:00 | 00:00:00 | |
| DM0DOS-11 | 2026-09-03 13:16:21 | 50.58999 | 9.30671 | 101° | 71km/h | 2961m | -5.1m/s | 5.3°C | 88.2% | 719.5hPa | 2.6V | 07:42:35 | 02:58:28 | 00:00:00 | |
| DL1NUX | 2026-09-03 13:16:21 | 50.59017 | 9.30533 | 101° | 71km/h | 2987m | -5.2m/s | 5.2°C | 87.5% | 717.1hPa | 2.6V | 07:42:40 | 02:58:23 | 00:00:00 | |
| BIOWL1-15 | 2026-09-03 13:16:21 | 50.58999 | 9.30671 | 101° | 71km/h | 2961m | -5.1m/s | 5.3°C | 89.5% | 719.5hPa | 2.6V | 07:44:15 | 02:58:28 | 00:00:00 | |
| DL9SK-14 | 2026-09-03 13:16:21 | 50.59002 | 9.30644 | 102° | 69km/h | 2966m | -5.4m/s | 5.3°C | 86.6% | 718.9hPa | 2.7V | 00:00:00 | 00:00:00 | 00:00:00 | |
| DD1CC3-15 | 2026-09-03 13:16:18 | 50.59006 | 9.30616 | 103° | 71km/h | 2971m | -5.1m/s | 5.2°C | 86.7% | 718.4hPa | 2.7V | 07:43:00 | 00:00:00 | 00:00:00 | |
| DD1CC8 | 2026-09-03 13:16:17 | 50.59017 | 9.30533 | 101° | 71km/h | 2987m | -5.2m/s | 5.2°C | 85.3% | 717.1hPa | 2.7V | 00:00:00 | 00:00:00 | 00:00:00 | |
| SO1NDE-10 | 2026-09-03 13:16:15 | 50.59021 | 9.30505 | 102° | 71km/h | 2992m | -5.0m/s | 5.1°C | 86.5% | 716.5hPa | 2.7V | 00:00:00 | 02:58:22 | 00:00:00 | |
| DL1NUX | 2026-09-03 13:16:11 | 50.59035 | 9.30394 | 100° | 71km/h | 3012m | -5.1m/s | 5.1°C | 85.4% | 714.7hPa | 2.6V | 07:42:45 | 02:58:18 | 00:00:00 | |
| DL1NUX | 2026-09-03 13:16:11 | 50.59052 | 9.30257 | 101° | 71km/h | 3038m | -5.2m/s | 4.9°C | 86% | 712.6hPa | 2.6V | 07:42:50 | 02:58:13 | 00:00:00 | |
| BIOWL1-15 | 2026-09-03 13:16:11 | 50.59035 | 9.30394 | 101° | 71km/h | 3012m | -5.1m/s | 5.1°C | 87% | 714.7hPa | 2.6V | 07:44:15 | 02:58:18 | 00:00:00 | |
| DB0NH | 2026-09-03 13:16:11 | 50.59035 | 9.30394 | 101° | 71km/h | 3012m | -5.1m/s | 5.0°C | 85.4% | 714.7hPa | 2.6V | 00:00:00 | 02:58:18 | 00:00:00 | |
| DB0UT-7 | 2026-09-03 13:16:08 | 50.59045 | 9.30312 | 101° | 71km/h | 3028m | -5.3m/s | 4.9°C | 85.7% | 713.4hPa | 2.6V | 00:00:00 | 00:00:00 | 00:00:00 | |
| NBG1-10 | 2026-09-03 13:16:07 | 50.59049 | 9.30284 | 102° | 71km/h | 3033m | -5.0m/s | 4.8°C | 85.9% | 713.1hPa | 2.6V | 07:42:00 | 02:58:14 | 00:00:00 | |
| DL1NUX | 2026-09-03 13:16:01 | 50.59070 | 9.30118 | 100° | 71km/h | 3063m | -4.7m/s | 4.7°C | 86% | 710.4hPa | 2.6V | 07:42:55 | 02:58:08 | 00:00:00 | |
| DL1NUX | 2026-09-03 13:16:01 | 50.59087 | 9.29978 | 100° | 73km/h | 3087m | -4.7m/s | 4.5°C | 85.7% | 708.4hPa | 2.6V | 07:43:00 | 02:58:03 | 00:00:00 | |
| BIOWL1-15 | 2026-09-03 13:16:00 | 50.59073 | 9.30091 | 101° | 71km/h | 3068m | -4.9m/s | 4.6°C | 87.1% | 710.1hPa | 2.7V | 07:44:15 | 02:58:07 | 00:00:00 | |
| HSKMA3-T | 2026-09-03 13:15:57 | 50.59084 | 9.30006 | 101° | 73km/h | 3082m | -4.9m/s | 4.6°C | 86.9% | 708.8hPa | 2.7V | 07:45:57 | 02:58:04 | 00:00:00 | |
| DL1NUX | 2026-09-03 13:15:56 | 50.59106 | 9.29838 | 103° | 71km/h | 3112m | -4.8m/s | 4.4°C | 84.7% | 706.3hPa | 2.6V | 07:43:05 | 02:57:58 | 00:00:00 | |
| SO1NDE-10 | 2026-09-03 13:15:55 | 50.59091 | 9.29949 | 101° | 71km/h | 3092m | -4.9m/s | 4.5°C | 85.3% | 707.9hPa | 2.7V | 00:00:00 | 02:58:02 | 00:00:00 | |
| DL1NUX | 2026-09-03 13:15:51 | 50.59127 | 9.29700 | 103° | 71km/h | 3137m | -5.2m/s | 4.2°C | 85.3% | 704.1hPa | 2.7V | 07:43:10 | 02:57:53 | 00:00:00 | |
| BIOWL1-15 | 2026-09-03 13:15:49 | 50.59115 | 9.29783 | 104° | 71km/h | 3122m | -4.9m/s | 4.4°C | 85.7% | 705.4hPa | 2.7V | 07:44:15 | 02:57:56 | 00:00:00 | |
| DL0LBS | 2026-09-03 13:15:47 | 50.59119 | 9.29755 | 105° | 71km/h | 3127m | -5.0m/s | 4.3°C | 82.6% | 704.9hPa | 2.7V | 07:43:00 | 00:00:00 | 00:00:00 | |
| DL1NUX | 2026-09-03 13:15:46 | 50.59148 | 9.29562 | 102° | 69km/h | 3162m | -5.1m/s | 4°C | 86.4% | 701.9hPa | 2.7V | 07:43:15 | 02:57:48 | 00:00:00 | |
| DD1CC8 | 2026-09-03 13:15:46 | 50.59132 | 9.29672 | 103° | 71km/h | 3142m | -4.9m/s | 4.2°C | 83.4% | 703.6hPa | 2.6V | 00:00:00 | 00:00:00 | 00:00:00 | |
| DM0DOS-11 | 2026-09-03 13:15:43 | 50.59140 | 9.29617 | 102° | 71km/h | 3152m | -5m/s | 4.1°C | 85.9% | 702.8hPa | 2.6V | 07:43:13 | 02:57:50 | 00:00:00 | |
| BIOWL1-15 | 2026-09-03 13:15:39 | 50.59155 | 9.29508 | 103° | 69km/h | 3172m | -5.2m/s | 3.9°C | 87.7% | 701hPa | 2.7V | 07:44:15 | 02:57:46 | 00:00:00 | |
| DD1CC3-15 | 2026-09-03 13:15:38 | 50.59155 | 9.29508 | 104° | 69km/h | 3172m | -5.2m/s | 3.9°C | 84.5% | 701.0hPa | 2.7V | 07:43:00 | 00:00:00 | 00:00:00 | |
| DL1NUX | 2026-09-03 13:15:36 | 50.59167 | 9.29429 | 104° | 68km/h | 3187m | -5.2m/s | 3.9°C | 86.5% | 699.6hPa | 2.7V | 07:43:20 | 02:57:43 | 00:00:00 | |
| DL1NUX | 2026-09-03 13:15:36 | 50.59192 | 9.29299 | 106° | 68km/h | 3213m | -5.2m/s | 3.8°C | 81.5% | 697.5hPa | 2.7V | 07:43:25 | 02:57:38 | 00:00:00 | |
| SO1NDE-10 | 2026-09-03 13:15:35 | 50.59172 | 9.29403 | 106° | 69km/h | 3192m | -5.0m/s | 3.8°C | 86.3% | 699.2hPa | 2.6V | 00:00:00 | 02:57:42 | 00:00:00 | |
| DF7PN | 2026-09-03 13:15:33 | 50.59187 | 9.29325 | 106° | 68km/h | 3208m | -4.9m/s | 3.8°C | 83.3% | 697.9hPa | 2.6V | 00:00:00 | 00:00:00 | 00:00:00 | |
| DL1NUX | 2026-09-03 13:15:31 | 50.59220 | 9.29136 | 105° | 71km/h | 3242m | -4.3m/s | 3.8°C | 76.1% | 694.9hPa | 2.6V | 07:43:31 | 02:57:32 | 00:00:00 | |
| DL0LBS | 2026-09-03 13:15:27 | 50.59206 | 9.29218 | 106° | 71km/h | 3228m | -5.2m/s | 3.9°C | 76.3% | 696.2hPa | 2.7V | 07:44:00 | 00:00:00 | 00:00:00 | |
| DM0DOS-11 | 2026-09-03 13:15:26 | 50.59241 | 9.29030 | 108° | 68km/h | 3261m | -5.3m/s | 3.7°C | 76.3% | 693.4hPa | 2.7V | 07:43:35 | 02:57:28 | 00:00:00 | |
| BIOWL1-15 | 2026-09-03 13:15:26 | 50.59230 | 9.29082 | 108° | 71km/h | 3251m | -4.4m/s | 3.8°C | 77.5% | 694.1hPa | 2.7V | 07:44:15 | 02:57:30 | 00:00:00 | |
| DL1NUX | 2026-09-03 13:15:25 | 50.59248 | 9.29004 | 109° | 69km/h | 3266m | -5m/s | 3.8°C | 73.1% | 693hPa | 2.7V | 07:43:36 | 02:57:27 | 00:00:00 | |
| DM0DOS-11 | 2026-09-03 13:15:21 | 50.59272 | 9.28902 | 111° | 69km/h | 3287m | -5.2m/s | 3.9°C | 67.7% | 691.2hPa | 2.6V | 07:43:40 | 02:57:23 | 00:00:00 | |
| BIOWL1-15 | 2026-09-03 13:15:17 | 50.59278 | 9.28876 | 111° | 69km/h | 3292m | -4.7m/s | 3.8°C | 70.2% | 690.7hPa | 2.6V | 07:44:15 | 02:57:22 | 00:00:00 | |
| DL1NUX | 2026-09-03 13:15:16 | 50.59278 | 9.28876 | 111° | 69km/h | 3292m | -4.7m/s | 3.9°C | 67% | 690.7hPa | 2.6V | 07:43:41 | 02:57:22 | 00:00:00 | |
| DL1NUX | 2026-09-03 13:15:16 | 50.59311 | 9.28749 | 112° | 69km/h | 3317m | -5.1m/s | 3.8°C | 66.6% | 688.6hPa | 2.6V | 07:43:46 | 02:57:17 | 00:00:00 | |
| DD1CC8 | 2026-09-03 13:15:15 | 50.59285 | 9.28851 | 111° | 68km/h | 3296m | -5.0m/s | 3.8°C | 65.1% | 690.3hPa | 2.7V | 00:00:00 | 00:00:00 | 00:00:00 | |
| DM0DOS-11 | 2026-09-03 13:15:13 | 50.59304 | 9.28774 | 112° | 69km/h | 3312m | -5.1m/s | 3.8°C | 66.2% | 689hPa | 2.7V | 07:43:45 | 02:57:18 | 00:00:00 | |
| DB0NH | 2026-09-03 13:15:11 | 50.59304 | 9.28774 | 113° | 71km/h | 3312m | -5.1m/s | 3.7°C | 66.2% | 688.9hPa | 2.7V | 00:00:00 | 02:57:18 | 00:00:00 | |
| DM0DOS-11 | 2026-09-03 13:15:07 | 50.59338 | 9.28647 | 113° | 69km/h | 3336m | -4.7m/s | 3.6°C | 67.4% | 686.9hPa | 2.7V | 07:43:50 | 02:57:13 | 00:00:00 | |
| DL1NUX | 2026-09-03 13:15:05 | 50.59345 | 9.28621 | 113° | 69km/h | 3341m | -4.8m/s | 3.6°C | 67.8% | 686.6hPa | 2.7V | 07:43:51 | 02:57:12 | 00:00:00 | |
| DL1NUX | 2026-09-03 13:15:05 | 50.59381 | 9.28494 | 114° | 69km/h | 3366m | -4.9m/s | 3.5°C | 67.8% | 684.4hPa | 2.7V | 07:43:56 | 02:57:07 | 00:00:00 | |
| BIOWL1-15 | 2026-09-03 13:15:05 | 50.59360 | 9.28570 | 114° | 69km/h | 3351m | -4.9m/s | 3.6°C | 71% | 685.8hPa | 2.6V | 07:44:15 | 02:57:10 | 00:00:00 | |
| DM0DOS-11 | 2026-09-03 13:15:01 | 50.59374 | 9.28520 | 114° | 69km/h | 3361m | -4.7m/s | 3.5°C | 68.1% | 684.8hPa | 2.7V | 07:43:55 | 02:57:08 | 00:00:00 | |
| DM0DOS-11 | 2026-09-03 13:15:01 | 50.59411 | 9.28393 | 115° | 71km/h | 3385m | -4.8m/s | 3.4°C | 67.8% | 682.9hPa | 2.7V | 07:44:00 | 02:57:03 | 00:00:00 | |
| DL1NUX | 2026-09-03 13:15:00 | 50.59419 | 9.28367 | 115° | 71km/h | 3390m | -4.9m/s | 3.4°C | 67.7% | 682.4hPa | 2.7V | 07:44:01 | 02:57:02 | 00:00:00 | |
| DD1CC3-15 | 2026-09-03 13:14:57 | 50.59396 | 9.28443 | 116° | 69km/h | 3376m | -4.6m/s | 3.4°C | 66.2% | 683.6hPa | 2.7V | 07:44:00 | 00:00:00 | 00:00:00 | |
| DM0DOS-11 | 2026-09-03 13:14:56 | 50.59451 | 9.28266 | 116° | 71km/h | 3409m | -4.2m/s | 3.3°C | 67.7% | 680.8hPa | 2.7V | 07:44:05 | 02:56:58 | 00:00:00 | |
| BIOWL1-15 | 2026-09-03 13:14:54 | 50.59427 | 9.28342 | 116° | 71km/h | 3395m | -5m/s | 3.4°C | 70.6% | 682hPa | 2.6V | 07:44:15 | 02:57:01 | 00:00:00 | |
| DM0DOS-11 | 2026-09-03 13:14:51 | 50.59493 | 9.28140 | 118° | 71km/h | 3432m | -5.1m/s | 3.1°C | 67.8% | 678.9hPa | 2.7V | 07:44:10 | 02:56:53 | 00:00:00 | |
| DL1NUX | 2026-09-03 13:14:50 | 50.59459 | 9.28240 | 117° | 71km/h | 3413m | -4.6m/s | 3.2°C | 68% | 680.4hPa | 2.7V | 07:44:06 | 02:56:57 | 00:00:00 | |
| DL1NUX | 2026-09-03 13:14:50 | 50.59501 | 9.28115 | 117° | 71km/h | 3437m | -4.9m/s | 3°C | 68.1% | 678.3hPa | 2.7V | 07:44:11 | 02:56:52 | 00:00:00 | |
| DL9SK-14 | 2026-09-03 13:14:48 | 50.59484 | 9.28165 | 117° | 71km/h | 3427m | -4.8m/s | 3.1°C | 66.1% | 679.2hPa | 2.6V | 00:00:00 | 00:00:00 | 00:00:00 | |
| DL0LBS | 2026-09-03 13:14:46 | 50.59484 | 9.28164 | 119° | 71km/h | 3427m | -4.8m/s | 3.1°C | 66.1% | 679.2hPa | 2.6V | 07:44:00 | 00:00:00 | 00:00:00 | |
| DL1NUX | 2026-09-03 13:14:45 | 50.59544 | 9.27989 | 117° | 71km/h | 3460m | -4.8m/s | 3°C | 69.6% | 676.5hPa | 2.6V | 07:44:16 | 02:56:47 | 00:00:00 | |
| BIOWL1-15 | 2026-09-03 13:14:44 | 50.59510 | 9.28090 | 118° | 71km/h | 3442m | -4.6m/s | 3°C | 71.3% | 678hPa | 2.7V | 07:44:15 | 02:56:51 | 00:00:00 | |
| DD1CC8 | 2026-09-03 13:14:43 | 50.59518 | 9.28064 | 117° | 69km/h | 3446m | -4.6m/s | 3.0°C | 66.6% | 677.6hPa | 2.6V | 00:00:00 | 00:00:00 | 00:00:00 | |
| DB0NH | 2026-09-03 13:14:41 | 50.59535 | 9.28014 | 118° | 69km/h | 3456m | -4.6m/s | 2.9°C | 69.3% | 676.8hPa | 2.6V | 00:00:00 | 02:56:48 | 00:00:00 | |
| DL1NUX | 2026-09-03 13:14:40 | 50.59585 | 9.27863 | 116° | 71km/h | 3485m | -4.9m/s | 2.8°C | 74.1% | 674.4hPa | 2.6V | 07:44:21 | 02:56:42 | 00:00:00 | |
| BIOWL1-15 | 2026-09-03 13:14:36 | 50.59593 | 9.27838 | 117° | 69km/h | 3490m | -4.7m/s | 2.7°C | 77% | 673.9hPa | 2.7V | 07:45:06 | 02:56:41 | 00:00:00 | |
| DD1CC3-15 | 2026-09-03 13:14:36 | 50.59577 | 9.27888 | 118° | 71km/h | 3480m | -5.0m/s | 2.8°C | 71.1% | 674.8hPa | 2.7V | 07:45:00 | 00:00:00 | 00:00:00 | |
| SO1NDE-10 | 2026-09-03 13:14:35 | 50.59585 | 9.27863 | 117° | 69km/h | 3485m | -4.8m/s | 2.7°C | 74.1% | 674.3hPa | 2.7V | 07:44:00 | 02:56:42 | 00:00:00 | |
| DL1NUX | 2026-09-03 13:14:30 | 50.59626 | 9.27738 | 117° | 69km/h | 3509m | -5.1m/s | 2.5°C | 75.7% | 672.3hPa | 2.7V | 07:44:26 | 02:56:37 | 00:00:00 | |
| DL1NUX | 2026-09-03 13:14:30 | 50.59666 | 9.27615 | 116° | 69km/h | 3534m | -4.6m/s | 2.4°C | 77.7% | 670.3hPa | 2.7V | 07:44:31 | 02:56:32 | 00:00:00 | |
| BIOWL1-15 | 2026-09-03 13:14:23 | 50.59682 | 9.27566 | 116° | 69km/h | 3543m | -5m/s | 2.3°C | 81.2% | 669.5hPa | 2.7V | 07:45:06 | 02:56:30 | 00:00:00 | |
| DL1NUX | 2026-09-03 13:14:20 | 50.59705 | 9.27492 | 116° | 69km/h | 3558m | -5m/s | 2.2°C | 79.3% | 668.2hPa | 2.7V | 07:44:36 | 02:56:27 | 00:00:00 | |
| DL1NUX | 2026-09-03 13:14:20 | 50.59744 | 9.27368 | 116° | 69km/h | 3583m | -4.8m/s | 2.1°C | 79.5% | 666.2hPa | 2.7V | 07:44:41 | 02:56:22 | 00:00:00 | |
| DM0DOS-11 | 2026-09-03 13:14:17 | 50.59752 | 9.27344 | 116° | 69km/h | 3588m | -5.1m/s | 2°C | 79.7% | 665.9hPa | 2.7V | 07:44:42 | 02:56:21 | 00:00:00 | |
| DL9SK-14 | 2026-09-03 13:14:17 | 50.59736 | 9.27393 | 116° | 69km/h | 3578m | -5.0m/s | 2.1°C | 76.9% | 666.5hPa | 2.6V | 00:00:00 | 00:00:00 | 00:00:00 | |
| DL1NUX | 2026-09-03 13:14:15 | 50.59782 | 9.27245 | 115° | 69km/h | 3608m | -4.8m/s | 2°C | 79.4% | 664.1hPa | 2.6V | 07:44:46 | 02:56:17 | 00:00:00 | |
| BIOWL1-15 | 2026-09-03 13:14:14 | 50.59767 | 9.27295 | 116° | 69km/h | 3598m | -4.9m/s | 2°C | 80.7% | 665.1hPa | 2.7V | 07:45:06 | 02:56:19 | 00:00:00 | |
| DD1CC8 | 2026-09-03 13:14:12 | 50.59767 | 9.27295 | 115° | 68km/h | 3598m | -4.9m/s | 2.0°C | 76.2% | 665.1hPa | 2.7V | 00:00:00 | 00:00:00 | 00:00:00 | |
| DM0DOS-11 | 2026-09-03 13:14:11 | 50.59813 | 9.27145 | 115° | 69km/h | 3627m | -4.9m/s | 1.9°C | 74.9% | 662.7hPa | 2.7V | 07:44:50 | 02:56:13 | 00:00:00 | |
| DB0NH | 2026-09-03 13:14:11 | 50.59775 | 9.27270 | 117° | 71km/h | 3603m | -4.8m/s | 1.9°C | 78.5% | 664.5hPa | 2.6V | 00:00:00 | 02:56:18 | 00:00:00 | |
| DL1NUX | 2026-09-03 13:14:10 | 50.59821 | 9.27120 | 115° | 71km/h | 3632m | -4.8m/s | 1.9°C | 73.7% | 662.2hPa | 2.7V | 07:44:51 | 02:56:12 | 00:00:00 | |
| DJ8HS-15 | 2026-09-03 13:14:09 | 50.59790 | 9.27221 | 116° | 71km/h | 3612m | -4.5m/s | 1.9°C | 81.3% | 663.8hPa | 2.7V | 00:00:00 | 02:56:16 | 00:00:00 | |
| DB0UT-7 | 2026-09-03 13:14:08 | 50.59797 | 9.27195 | 116° | 71km/h | 3617m | -4.9m/s | 1.9°C | 79.1% | 663.4hPa | 2.7V | 00:00:00 | 00:00:00 | 00:00:00 | |
| DM0DOS-11 | 2026-09-03 13:14:06 | 50.59851 | 9.27018 | 114° | 71km/h | 3652m | -4.8m/s | 1.7°C | 73.5% | 660.5hPa | 2.7V | 07:44:55 | 02:56:08 | 00:00:00 | |
| DL1NUX | 2026-09-03 13:14:05 | 50.59859 | 9.26992 | 115° | 71km/h | 3656m | -4.8m/s | 1.7°C | 74.3% | 660.2hPa | 2.7V | 07:44:56 | 02:56:07 | 00:00:00 | |
| BIOWL1-15 | 2026-09-03 13:14:03 | 50.59844 | 9.27043 | 115° | 71km/h | 3647m | -5m/s | 1.8°C | 75.6% | 660.9hPa | 2.6V | 07:45:06 | 02:56:09 | 00:00:00 | |
| DF7PN | 2026-09-03 13:14:00 | 50.59866 | 9.26967 | 114° | 69km/h | 3661m | -4.6m/s | 1.7°C | 72.7% | 659.9hPa | 2.6V | 00:00:00 | 00:00:00 | 00:00:00 | |
| BIOWL9-15 | 2026-09-03 13:13:59 | 50.59889 | 9.26891 | 115° | 69km/h | 3675m | -5.0m/s | 1.5°C | 72.9% | 658.6hPa | 2.6V | 00:00:00 | 00:00:00 | 00:00:00 | |
| DL1NUX | 2026-09-03 13:13:55 | 50.59896 | 9.26866 | 115° | 69km/h | 3680m | -4.5m/s | 1.5°C | 76% | 658.2hPa | 2.6V | 07:45:01 | 02:56:02 | 00:00:00 | |
| DL1NUX | 2026-09-03 13:13:55 | 50.59934 | 9.26738 | 114° | 71km/h | 3704m | -5.1m/s | 1.2°C | 82% | 656.2hPa | 2.7V | 07:45:06 | 02:55:57 | 00:00:00 | |
| SO1NDE-10 | 2026-09-03 13:13:55 | 50.59897 | 9.26866 | 116° | 71km/h | 3680m | -4.4m/s | 1.4°C | 76.0% | 658.2hPa | 2.7V | 00:00:00 | 02:56:02 | 00:00:00 | |
| DM0DOS-11 | 2026-09-03 13:13:53 | 50.59927 | 9.26764 | 114° | 71km/h | 3699m | -5.1m/s | 1.3°C | 80.6% | 656.7hPa | 2.7V | 07:45:05 | 02:55:58 | 00:00:00 | |
| HSKMA3-T | 2026-09-03 13:13:52 | 50.59919 | 9.26789 | 115° | 71km/h | 3694m | -5.1m/s | 1.3°C | 82.6% | 657.1hPa | 2.7V | 07:45:57 | 02:55:59 | 00:00:00 | |
| BIOWL1-15 | 2026-09-03 13:13:52 | 50.59949 | 9.26685 | 114° | 73km/h | 3714m | -5m/s | 1.2°C | 85.2% | 655.4hPa | 2.7V | 07:45:57 | 02:55:55 | 00:00:00 | |
| DJ8HS-15 | 2026-09-03 13:13:47 | 50.59956 | 9.26659 | 114° | 73km/h | 3719m | -4.9m/s | 1.1°C | 83.1% | 655.1hPa | 2.6V | 00:00:00 | 02:55:54 | 00:00:00 | |
| DL1NUX | 2026-09-03 13:13:45 | 50.60008 | 9.26479 | 114° | 71km/h | 3753m | -4.8m/s | 1°C | 75.9% | 652.3hPa | 2.7V | 07:45:16 | 02:55:47 | 00:00:00 | |
| DM0DOS-11 | 2026-09-03 13:13:42 | 50.60000 | 9.26505 | 114° | 71km/h | 3748m | -4.8m/s | 1°C | 79.1% | 652.7hPa | 2.7V | 07:45:15 | 02:55:48 | 00:00:00 | |
| DM0DOS-11 | 2026-09-03 13:13:42 | 50.60038 | 9.26376 | 114° | 71km/h | 3772m | -5.1m/s | 0.9°C | 73.1% | 650.7hPa | 2.7V | 07:45:20 | 02:55:43 | 00:00:00 | |
| BIOWL1-15 | 2026-09-03 13:13:41 | 50.60000 | 9.26504 | 115° | 71km/h | 3748m | -4.8m/s | 1°C | 80.7% | 652.7hPa | 2.7V | 07:45:57 | 02:55:48 | 00:00:00 | |
| DB0NH | 2026-09-03 13:13:41 | 50.60000 | 9.26504 | 115° | 71km/h | 3748m | -4.7m/s | 1.0°C | 79.1% | 652.6hPa | 2.6V | 00:00:00 | 02:55:48 | 00:00:00 | |
| DB0UT-7 | 2026-09-03 13:13:38 | 50.60023 | 9.26428 | 115° | 73km/h | 3762m | -4.8m/s | 0.9°C | 72.6% | 651.5hPa | 2.6V | 07:45:00 | 02:55:45 | 00:00:00 | |
| DM0DOS-11 | 2026-09-03 13:13:36 | 50.60075 | 9.26247 | 114° | 71km/h | 3797m | -4.5m/s | 0.7°C | 75.8% | 648.7hPa | 2.6V | 07:45:25 | 02:55:38 | 00:00:00 | |
| DL1NUX | 2026-09-03 13:13:35 | 50.60082 | 9.26221 | 114° | 71km/h | 3801m | -4.9m/s | 0.7°C | 74.7% | 648.5hPa | 2.6V | 07:45:26 | 02:55:37 | 00:00:00 | |
| DD1CC3-15 | 2026-09-03 13:13:32 | 50.60060 | 9.26298 | 115° | 71km/h | 3787m | -5.0m/s | 0.8°C | 73.2% | 649.5hPa | 2.7V | 07:45:00 | 00:00:00 | 00:00:00 | |
| DM0DOS-11 | 2026-09-03 13:13:31 | 50.60114 | 9.26118 | 115° | 73km/h | 3820m | -5m/s | 0.5°C | 74.6% | 646.8hPa | 2.7V | 07:45:30 | 02:55:33 | 00:00:00 | |
| HSKMA3-T | 2026-09-03 13:13:31 | 50.60075 | 9.26247 | 115° | 71km/h | 3797m | -4.6m/s | 0.7°C | 77.5% | 648.7hPa | 2.6V | 07:45:57 | 02:55:38 | 00:00:00 | |
| DL1NUX | 2026-09-03 13:13:30 | 50.60122 | 9.26092 | 115° | 73km/h | 3825m | -5m/s | 0.5°C | 76.1% | 646.4hPa | 2.7V | 07:45:31 | 02:55:32 | 00:00:00 | |
| BIOWL1-15 | 2026-09-03 13:13:30 | 50.60082 | 9.26221 | 115° | 71km/h | 3801m | -4.9m/s | 0.7°C | 76.7% | 648.5hPa | 2.6V | 07:45:57 | 02:55:37 | 00:00:00 | |
| NBG1-10 | 2026-09-03 13:13:29 | 50.60090 | 9.26196 | 116° | 75km/h | 3806m | -4.6m/s | 0.6°C | 74.3% | 647.9hPa | 2.7V | 00:00:00 | 02:55:36 | 00:00:00 | |
| BIOWL9-15 | 2026-09-03 13:13:28 | 50.60098 | 9.26170 | 115° | 71km/h | 3811m | -4.9m/s | 0.6°C | 72.0% | 647.6hPa | 2.7V | 00:00:00 | 00:00:00 | 00:00:00 | |
| DL1NUX | 2026-09-03 13:13:25 | 50.60162 | 9.25956 | 112° | 75km/h | 3850m | -4.9m/s | 0.3°C | 75.7% | 644.4hPa | 2.7V | 07:45:36 | 02:55:27 | 00:00:00 | |
| SO1NDE-10 | 2026-09-03 13:13:25 | 50.60122 | 9.26092 | 116° | 75km/h | 3826m | -5.0m/s | 0.5°C | 76.1% | 646.4hPa | 2.7V | 00:00:00 | 02:55:32 | 00:00:00 | |
| DL0LBS | 2026-09-03 13:13:24 | 50.60122 | 9.26092 | 117° | 75km/h | 3826m | -5.0m/s | 0°C | 0% | 0hPa | 2.7V | 00:00:00 | 00:00:00 | 00:00:00 | |
| DM0DOS-11 | 2026-09-03 13:13:23 | 50.60154 | 9.25983 | 113° | 75km/h | 3845m | -4.7m/s | 0.3°C | 75.7% | 644.9hPa | 2.7V | 07:45:35 | 02:55:28 | 00:00:00 | |
| BIOWL1-15 | 2026-09-03 13:13:20 | 50.60161 | 9.25956 | 113° | 75km/h | 3850m | -4.9m/s | 0.3°C | 77.5% | 644.4hPa | 2.7V | 07:45:57 | 02:55:27 | 00:00:00 | |
| DL1NUX | 2026-09-03 13:13:19 | 50.60194 | 9.25827 | 111° | 66km/h | 3874m | -5.3m/s | 0.1°C | 73.7% | 642.5hPa | 2.6V | 07:45:41 | 02:55:22 | 00:00:00 | |
| DM0DOS-11 | 2026-09-03 13:13:17 | 50.60188 | 9.25851 | 111° | 68km/h | 3869m | -5.1m/s | 0.1°C | 74.1% | 642.9hPa | 2.7V | 07:45:40 | 02:55:23 | 00:00:00 | |
| DL9SK-14 | 2026-09-03 13:13:14 | 50.60201 | 9.25803 | 112° | 64km/h | 3879m | -5.3m/s | 0.1°C | 70.7% | 642.1hPa | 2.7V | 00:00:00 | 00:00:00 | 00:00:00 | |
| DM0DOS-11 | 2026-09-03 13:13:11 | 50.60223 | 9.25732 | 119° | 69km/h | 3894m | -4.2m/s | -0°C | 70.2% | 640.9hPa | 2.7V | 07:45:45 | 02:55:18 | 00:00:00 | |
| DM0DOS-11 | 2026-09-03 13:13:11 | 50.60270 | 9.25597 | 115° | 82km/h | 3917m | -4.7m/s | -0.2°C | 74.4% | 639.1hPa | 2.7V | 07:45:50 | 02:55:13 | 00:00:00 | |
| DL1NUX | 2026-09-03 13:13:10 | 50.60232 | 9.25707 | 120° | 73km/h | 3898m | -4.7m/s | -0°C | 70.6% | 640.5hPa | 2.6V | 07:45:46 | 02:55:17 | 00:00:00 | |
| DL1NUX | 2026-09-03 13:13:10 | 50.60279 | 9.25567 | 113° | 84km/h | 3921m | -4.7m/s | -0.2°C | 76.3% | 638.6hPa | 2.7V | 07:45:51 | 02:55:12 | 00:00:00 | |
| HSKMA3-T | 2026-09-03 13:13:09 | 50.60241 | 9.25682 | 120° | 77km/h | 3903m | -4.6m/s | -0°C | 73.8% | 640.2hPa | 2.7V | 07:45:57 | 02:55:16 | 00:00:00 | |
| BIOWL7-15 | 2026-09-03 13:13:06 | 50.60261 | 9.25626 | 119° | 82km/h | 3912m | -4.4m/s | -0.1°C | 70.7% | 639.4hPa | 2.7V | 00:00:00 | 00:00:00 | 00:00:00 | |
| DB0UT-7 | 2026-09-03 13:13:05 | 50.60279 | 9.25567 | 114° | 78km/h | 3921m | -4.7m/s | -0.2°C | 76.3% | 638.6hPa | 2.7V | 00:00:00 | 00:00:00 | 00:00:00 | |
| DM0DOS-11 | 2026-09-03 13:13:03 | 50.60310 | 9.25445 | 110° | 80km/h | 3940m | -4.5m/s | -0.4°C | 78.9% | 637.2hPa | 2.7V | 07:45:55 | 02:55:08 | 00:00:00 | |
| DL1NUX | 2026-09-03 13:13:00 | 50.60317 | 9.25415 | 109° | 78km/h | 3945m | -4.4m/s | -0.4°C | 79.1% | 636.8hPa | 2.7V | 07:45:56 | 02:55:07 | 00:00:00 | |
| BIOWL1-15 | 2026-09-03 13:12:58 | 50.60331 | 9.25358 | 113° | 75km/h | 3954m | -4.2m/s | -0.5°C | 80.3% | 636.1hPa | 2.7V | 07:46:48 | 02:55:05 | 00:00:00 | |
| HSKMA3-T | 2026-09-03 13:12:57 | 50.60338 | 9.25330 | 115° | 75km/h | 3958m | -4.2m/s | -0.6°C | 81.6% | 635.8hPa | 2.7V | 07:46:48 | 02:55:04 | 00:00:00 | |
| BIOWL9-15 | 2026-09-03 13:12:57 | 50.60347 | 9.25304 | 117° | 75km/h | 3962m | -4.8m/s | -0.6°C | 77.9% | 635.4hPa | 2.6V | 00:00:00 | 00:00:00 | 00:00:00 | |
| DM0DOS-11 | 2026-09-03 13:12:56 | 50.60347 | 9.25304 | 117° | 75km/h | 3962m | -4.8m/s | -0.6°C | 80.6% | 635.4hPa | 2.6V | 07:46:00 | 02:55:03 | 00:00:00 | |
| DM0DOS-11 | 2026-09-03 13:12:56 | 50.60394 | 9.25170 | 119° | 77km/h | 3986m | -4.7m/s | -0.8°C | 86.1% | 633.5hPa | 2.7V | 07:46:05 | 02:54:58 | 00:00:00 | |
| NBG1-10 | 2026-09-03 13:12:56 | 50.60347 | 9.25304 | 118° | 78km/h | 3962m | -4.7m/s | -0.6°C | 80.6% | 635.4hPa | 2.7V | 00:00:00 | 02:55:03 | 00:00:00 | |
| DL1NUX | 2026-09-03 13:12:55 | 50.60404 | 9.25143 | 119° | 77km/h | 3991m | -4.6m/s | -0.9°C | 87.4% | 633.1hPa | 2.7V | 07:46:06 | 02:54:57 | 00:00:00 | |
| SO1NDE-10 | 2026-09-03 13:12:55 | 50.60356 | 9.25277 | 119° | 78km/h | 3967m | -4.9m/s | -0.6°C | 81.0% | 635.0hPa | 2.6V | 00:00:00 | 02:55:02 | 00:00:00 | |
| DM0DOS-11 | 2026-09-03 13:12:51 | 50.60443 | 9.25034 | 118° | 82km/h | 4010m | -4.7m/s | -1°C | 90.9% | 631.5hPa | 2.7V | 07:46:10 | 02:54:53 | 00:00:00 | |
| DL1NUX | 2026-09-03 13:12:50 | 50.60453 | 9.25005 | 118° | 84km/h | 4015m | -4.7m/s | -1°C | 90.1% | 631.2hPa | 2.7V | 07:46:11 | 02:54:52 | 00:00:00 | |
| HSKMA3-T | 2026-09-03 13:12:47 | 50.60433 | 9.25062 | 119° | 80km/h | 4005m | -4.9m/s | -1°C | 90.8% | 632hPa | 2.7V | 07:46:48 | 02:54:54 | 00:00:00 | |
| DM0DOS-11 | 2026-09-03 13:12:46 | 50.60489 | 9.24885 | 111° | 80km/h | 4033m | -4.2m/s | -1.1°C | 86.9% | 629.9hPa | 2.6V | 07:46:15 | 02:54:48 | 00:00:00 | |
| DL1NUX | 2026-09-03 13:12:45 | 50.60497 | 9.24855 | 109° | 78km/h | 4037m | -4.3m/s | -1.1°C | 86.2% | 629.5hPa | 2.6V | 07:46:16 | 02:54:47 | 00:00:00 | |
| BIOWL1-15 | 2026-09-03 13:12:40 | 50.60496 | 9.24855 | 110° | 78km/h | 4037m | -4.4m/s | -1.1°C | 87.1% | 629.5hPa | 2.6V | 07:46:48 | 02:54:47 | 00:00:00 | |
| DL1NUX | 2026-09-03 13:12:40 | 50.60529 | 9.24716 | 112° | 75km/h | 4060m | -4.7m/s | -1.2°C | 82.4% | 627.6hPa | 2.7V | 07:46:21 | 02:54:42 | 00:00:00 | |
| DM0DOS-11 | 2026-09-03 13:12:39 | 50.60522 | 9.24743 | 112° | 73km/h | 4056m | -4.5m/s | -1.2°C | 84.5% | 628hPa | 2.7V | 07:46:20 | 02:54:43 | 00:00:00 | |
| HSKMA3-T | 2026-09-03 13:12:37 | 50.60515 | 9.24770 | 111° | 73km/h | 4051m | -4.6m/s | -1.2°C | 85.6% | 628.4hPa | 2.7V | 07:46:48 | 02:54:44 | 00:00:00 | |
| DB0UT-7 | 2026-09-03 13:12:35 | 50.60529 | 9.24716 | 113° | 80km/h | 4060m | -4.6m/s | -1.2°C | 82.4% | 627.5hPa | 2.7V | 00:00:00 | 02:54:42 | 00:00:00 | |
| DM0DOS-11 | 2026-09-03 13:12:33 | 50.60560 | 9.24603 | 113° | 78km/h | 4078m | -4.5m/s | -1.3°C | 78.8% | 626.1hPa | 2.7V | 07:46:25 | 02:54:38 | 00:00:00 | |
| DL1NUX | 2026-09-03 13:12:30 | 50.60617 | 9.24427 | 116° | 88km/h | 4107m | -4.7m/s | -1.6°C | 76.1% | 623.9hPa | 2.7V | 07:46:31 | 02:54:32 | 00:00:00 | |
| BIOWL1-15 | 2026-09-03 13:12:29 | 50.60578 | 9.24546 | 117° | 80km/h | 4087m | -4.6m/s | -1.4°C | 78.8% | 625.5hPa | 2.7V | 07:46:48 | 02:54:36 | 00:00:00 | |
| HSKMA3-T | 2026-09-03 13:12:27 | 50.60597 | 9.24488 | 118° | 86km/h | 4097m | -5.4m/s | -1.5°C | 78.8% | 624.8hPa | 2.6V | 07:46:48 | 02:54:34 | 00:00:00 | |
| DM0DOS-11 | 2026-09-03 13:12:26 | 50.60607 | 9.24458 | 117° | 86km/h | 4102m | -5.2m/s | -1.5°C | 76.8% | 624.3hPa | 2.6V | 07:46:30 | 02:54:33 | 00:00:00 | |
| BIOWL1-15 | 2026-09-03 13:12:21 | 50.60664 | 9.24238 | 108° | 78km/h | 4134m | -4.4m/s | -1.8°C | 73.9% | 621.9hPa | 2.6V | 07:46:48 | 02:54:26 | 00:00:00 | |
| DM0DOS-11 | 2026-09-03 13:12:20 | 50.60683 | 9.24155 | 112° | 71km/h | 4147m | -4.4m/s | -1.9°C | 72.6% | 620.9hPa | 2.7V | 07:46:40 | 02:54:23 | 00:00:00 | |
| DL1NUX | 2026-09-03 13:12:20 | 50.60690 | 9.24129 | 115° | 71km/h | 4152m | -4.5m/s | -1.9°C | 72.7% | 620.4hPa | 2.7V | 07:46:41 | 02:54:22 | 00:00:00 | |
| HSKMA3-T | 2026-09-03 13:12:15 | 50.60690 | 9.24129 | 115° | 71km/h | 4152m | -4.5m/s | -1.9°C | 74.1% | 620.4hPa | 2.7V | 07:46:48 | 02:54:22 | 00:00:00 | |
| DL1NUX | 2026-09-03 13:12:15 | 50.60734 | 9.23989 | 115° | 86km/h | 4174m | -4.2m/s | -2.1°C | 75.5% | 618.7hPa | 2.7V | 07:46:46 | 02:54:17 | 00:00:00 | |
| DO9LL-15 | 2026-09-03 13:12:15 | 50.60690 | 9.24129 | 116° | 82km/h | 4152m | -4.5m/s | -1.8°C | 72.7% | 620.4hPa | 2.7V | 00:00:00 | 02:54:22 | 00:00:00 | |
| DL9SK-14 | 2026-09-03 13:12:12 | 50.60715 | 9.24049 | 116° | 78km/h | 4166m | -4.1m/s | -2.0°C | 72.8% | 619.3hPa | 2.7V | 00:00:00 | 00:00:00 | 00:00:00 | |
| DB0NH | 2026-09-03 13:12:11 | 50.60724 | 9.24020 | 117° | 80km/h | 4170m | -3.9m/s | -2.0°C | 75.8% | 619.0hPa | 2.7V | 00:00:00 | 02:54:18 | 00:00:00 | |
| DM0DOS-11 | 2026-09-03 13:12:10 | 50.60771 | 9.23862 | 114° | 88km/h | 4193m | -4.8m/s | -2.2°C | 79.9% | 617.2hPa | 2.7V | 07:46:50 | 02:54:13 | 00:00:00 | |
| BIOWL1-15 | 2026-09-03 13:12:06 | 50.60771 | 9.23862 | 115° | 88km/h | 4193m | -4.8m/s | -2.2°C | 80% | 617.2hPa | 2.7V | 07:47:39 | 02:54:13 | 00:00:00 | |
| HSKMA3-T | 2026-09-03 13:12:05 | 50.60780 | 9.23830 | 115° | 88km/h | 4197m | -4.7m/s | -2.3°C | 80.3% | 616.8hPa | 2.6V | 07:47:39 | 02:54:12 | 00:00:00 | |
| DL1NUX | 2026-09-03 13:12:05 | 50.60780 | 9.23830 | 115° | 88km/h | 4197m | -4.7m/s | -2.3°C | 80.8% | 616.8hPa | 2.6V | 07:46:51 | 02:54:12 | 00:00:00 | |
| DL1NUX | 2026-09-03 13:12:05 | 50.60823 | 9.23678 | 110° | 77km/h | 4221m | -4.5m/s | -2.4°C | 82.8% | 615.1hPa | 2.7V | 07:46:56 | 02:54:07 | 00:00:00 | |
| DB0UT-7 | 2026-09-03 13:12:05 | 50.60780 | 9.23830 | 116° | 77km/h | 4198m | -4.7m/s | -2.2°C | 80.8% | 616.8hPa | 2.6V | 00:00:00 | 00:00:00 | 00:00:00 | |
| DL1NUX | 2026-09-03 13:12:00 | 50.60857 | 9.23542 | 114° | 71km/h | 4245m | -4.8m/s | -2.4°C | 85.5% | 613.2hPa | 2.7V | 07:47:01 | 02:54:02 | 00:00:00 | |
| DM0DOS-11 | 2026-09-03 13:11:59 | 50.60849 | 9.23568 | 112° | 71km/h | 4240m | -4.6m/s | -2.4°C | 85.3% | 613.6hPa | 2.7V | 07:47:00 | 02:54:03 | 00:00:00 | |
| BIOWL1-15 | 2026-09-03 13:11:58 | 50.60850 | 9.23568 | 113° | 73km/h | 4240m | -4.6m/s | -2.4°C | 85% | 613.6hPa | 2.7V | 07:47:39 | 02:54:03 | 00:00:00 | |
| SO1NDE-10 | 2026-09-03 13:11:55 | 50.60857 | 9.23542 | 115° | 75km/h | 4245m | -4.7m/s | -2.4°C | 85.5% | 613.2hPa | 2.6V | 00:00:00 | 02:54:02 | 00:00:00 | |
| DB0DAN | 2026-09-03 13:11:55 | 50.60857 | 9.23542 | 115° | 69km/h | 4245m | -4.8m/s | -2.4°C | 82.4% | 613.24hPa | 2.7V | 00:00:00 | 00:00:00 | 00:00:00 | |
| DM0DOS-11 | 2026-09-03 13:11:54 | 50.60892 | 9.23437 | 120° | 78km/h | 4264m | -4.5m/s | -2.6°C | 87.2% | 611.7hPa | 2.6V | 07:47:05 | 02:53:58 | 00:00:00 | |
| HSKMA3-T | 2026-09-03 13:11:54 | 50.60865 | 9.23516 | 117° | 73km/h | 4249m | -4.8m/s | -2.5°C | 85.9% | 612.8hPa | 2.7V | 07:47:39 | 02:54:01 | 00:00:00 | |
| DL1NUX | 2026-09-03 13:11:50 | 50.60957 | 9.23270 | 123° | 78km/h | 4292m | -4.8m/s | -2.5°C | 88% | 609.5hPa | 2.7V | 07:47:11 | 02:53:52 | 00:00:00 | |
| DJ8HS-15 | 2026-09-03 13:11:50 | 50.60903 | 9.23409 | 121° | 77km/h | 4269m | -4.8m/s | -2.5°C | 87.2% | 611.3hPa | 2.6V | 00:00:00 | 02:53:57 | 00:00:00 | |
| DM0DOS-11 | 2026-09-03 13:11:49 | 50.60979 | 9.23219 | 122° | 75km/h | 4302m | -4.9m/s | -2.5°C | 87.6% | 608.8hPa | 2.6V | 07:47:13 | 02:53:50 | 00:00:00 | |
| BIOWL1-15 | 2026-09-03 13:11:46 | 50.60946 | 9.23297 | 123° | 82km/h | 4288m | -4.6m/s | -2.4°C | 88.6% | 609.9hPa | 2.7V | 07:47:39 | 02:53:53 | 00:00:00 | |
| HSKMA3-T | 2026-09-03 13:11:43 | 50.60979 | 9.23219 | 123° | 75km/h | 4302m | -4.9m/s | -2.5°C | 88.1% | 608.8hPa | 2.6V | 07:47:39 | 02:53:50 | 00:00:00 | |
| DB0NH | 2026-09-03 13:11:41 | 50.60998 | 9.23169 | 120° | 77km/h | 4312m | -4.7m/s | -2.5°C | 88.8% | 607.9hPa | 2.7V | 00:00:00 | 02:53:48 | 00:00:00 | |
| DL1NUX | 2026-09-03 13:11:40 | 50.61044 | 9.23010 | 111° | 77km/h | 4340m | -4.7m/s | -2.8°C | 90.3% | 605.9hPa | 2.7V | 07:47:21 | 02:53:42 | 00:00:00 | |
| DB0DAN | 2026-09-03 13:11:40 | 50.61007 | 9.23145 | 118° | 68km/h | 4317m | -4.5m/s | -2.6°C | 85.7% | 607.74hPa | 2.7V | 00:00:00 | 00:00:00 | 00:00:00 | |
| BIOWL7-15 | 2026-09-03 13:11:39 | 50.61007 | 9.23145 | 119° | 71km/h | 4317m | -4.5m/s | -2.6°C | 85.7% | 607.7hPa | 2.6V | 00:00:00 | 00:00:00 | 00:00:00 | |
| DD1CC8 | 2026-09-03 13:11:37 | 50.61030 | 9.23066 | 112° | 73km/h | 4331m | -4.9m/s | -2.7°C | 86.4% | 606.6hPa | 2.6V | 00:00:00 | 00:00:00 | 00:00:00 | |
| DL1NUX | 2026-09-03 13:11:35 | 50.61081 | 9.22875 | 115° | 69km/h | 4364m | -5.1m/s | -3.1°C | 91.4% | 604.1hPa | 2.6V | 07:47:26 | 02:53:37 | 00:00:00 | |
| BIOWL1-15 | 2026-09-03 13:11:35 | 50.61044 | 9.23010 | 112° | 77km/h | 4341m | -4.7m/s | -2.8°C | 90% | 605.9hPa | 2.7V | 07:47:39 | 02:53:42 | 00:00:00 | |
| DM0DOS-11 | 2026-09-03 13:11:33 | 50.61066 | 9.22927 | 113° | 73km/h | 4355m | -4.9m/s | -3°C | 91% | 604.8hPa | 2.7V | 07:47:24 | 02:53:39 | 00:00:00 | |
| HSKMA3-T | 2026-09-03 13:11:32 | 50.61066 | 9.22927 | 113° | 73km/h | 4355m | -4.9m/s | -3°C | 90.4% | 604.8hPa | 2.7V | 07:47:39 | 02:53:39 | 00:00:00 | |
| DL1NUX | 2026-09-03 13:11:30 | 50.61120 | 9.22752 | 117° | 69km/h | 4390m | -5.2m/s | -3.3°C | 92.6% | 602.2hPa | 2.7V | 07:47:31 | 02:53:32 | 00:00:00 | |
| BIOWL1-15 | 2026-09-03 13:11:27 | 50.61120 | 9.22752 | 118° | 69km/h | 4390m | -5.3m/s | -3.3°C | 91.4% | 602.2hPa | 2.7V | 07:47:39 | 02:53:32 | 00:00:00 | |
| DL1NUX | 2026-09-03 13:11:25 | 50.61163 | 9.22620 | 117° | 82km/h | 4414m | -4.6m/s | -3.5°C | 94.2% | 600.4hPa | 2.7V | 07:47:36 | 02:53:27 | 00:00:00 | |
| DB0DAN | 2026-09-03 13:11:25 | 50.61120 | 9.22752 | 118° | 66km/h | 4390m | -5.3m/s | -3.3°C | 89.1% | 602.19hPa | 2.7V | 00:00:00 | 00:00:00 | 00:00:00 | |
| SO1NDE-10 | 2026-09-03 13:11:25 | 50.61120 | 9.22752 | 118° | 80km/h | 4390m | -5.2m/s | -3.3°C | 92.6% | 602.1hPa | 2.7V | 00:00:00 | 02:53:32 | 00:00:00 | |
| DM0DOS-11 | 2026-09-03 13:11:22 | 50.61145 | 9.22676 | 116° | 75km/h | 4405m | -4.8m/s | -3.4°C | 93.4% | 601hPa | 2.6V | 07:47:34 | 02:53:29 | 00:00:00 | |
| HSKMA3-T | 2026-09-03 13:11:22 | 50.61145 | 9.22676 | 116° | 75km/h | 4405m | -4.8m/s | -3.4°C | 91.8% | 601hPa | 2.6V | 07:47:39 | 02:53:29 | 00:00:00 | |
| DM0DOS-11 | 2026-09-03 13:11:17 | 50.61193 | 9.22531 | 117° | 88km/h | 4428m | -5.7m/s | -3.6°C | 94.2% | 599.2hPa | 2.7V | 07:47:39 | 02:53:24 | 00:00:00 | |
| BIOWL1-15 | 2026-09-03 13:11:16 | 50.61224 | 9.22440 | 117° | 84km/h | 4443m | -4.6m/s | -3.7°C | 90.8% | 598.1hPa | 2.7V | 07:48:30 | 02:53:21 | 00:00:00 | |
| DL1NUX | 2026-09-03 13:11:15 | 50.61214 | 9.22470 | 117° | 86km/h | 4438m | -4.4m/s | -3.7°C | 93.6% | 598.5hPa | 2.6V | 07:47:41 | 02:53:22 | 00:00:00 | |
| DL1NUX | 2026-09-03 13:11:15 | 50.61260 | 9.22329 | 118° | 73km/h | 4461m | -5m/s | -3.7°C | 90% | 596.8hPa | 2.7V | 07:47:46 | 02:53:17 | 00:00:00 | |
| DM0DOS-11 | 2026-09-03 13:11:12 | 50.61243 | 9.22382 | 116° | 77km/h | 4452m | -4.3m/s | -3.7°C | 92.4% | 597.5hPa | 2.7V | 07:47:44 | 02:53:19 | 00:00:00 | |
| DM0DOS-11 | 2026-09-03 13:11:12 | 50.61289 | 9.22253 | 121° | 77km/h | 4476m | -4.7m/s | -3.7°C | 88% | 595.5hPa | 2.7V | 07:47:49 | 02:53:14 | 00:00:00 | |
| HSKMA3-T | 2026-09-03 13:11:12 | 50.61243 | 9.22382 | 117° | 77km/h | 4452m | -4.3m/s | -3.7°C | 90% | 597.5hPa | 2.7V | 07:48:30 | 02:53:19 | 00:00:00 | |
| DB0NH | 2026-09-03 13:11:11 | 50.61251 | 9.22355 | 118° | 84km/h | 4456m | -4.4m/s | -3.6°C | 91.2% | 597.0hPa | 2.7V | 00:00:00 | 02:53:18 | 00:00:00 | |
| DJ8HS-15 | 2026-09-03 13:11:10 | 50.61260 | 9.22329 | 119° | 82km/h | 4461m | -5.0m/s | -3.6°C | 90.0% | 596.7hPa | 2.6V | 00:00:00 | 02:53:17 | 00:00:00 | |
| DD1CC3-15 | 2026-09-03 13:11:08 | 50.61269 | 9.22304 | 122° | 73km/h | 4466m | -5.1m/s | -3.7°C | 85.9% | 596.3hPa | 2.6V | 07:48:00 | 00:00:00 | 00:00:00 | |
| DM0DOS-11 | 2026-09-03 13:11:07 | 50.61336 | 9.22110 | 112° | 84km/h | 4499m | -5.2m/s | -3.8°C | 87.6% | 593.9hPa | 2.6V | 07:47:54 | 02:53:09 | 00:00:00 | |
| DL1NUX | 2026-09-03 13:11:05 | 50.61309 | 9.22199 | 118° | 80km/h | 4485m | -4.8m/s | -3.7°C | 87.9% | 594.9hPa | 2.7V | 07:47:51 | 02:53:12 | 00:00:00 | |
| DL1NUX | 2026-09-03 13:11:05 | 50.61351 | 9.22048 | 111° | 82km/h | 4510m | -5.2m/s | -3.8°C | 86.4% | 593hPa | 2.7V | 07:47:56 | 02:53:07 | 00:00:00 | |
| BIOWL1-15 | 2026-09-03 13:11:03 | 50.61327 | 9.22140 | 114° | 84km/h | 4495m | -4.8m/s | -3.8°C | 86.9% | 594.1hPa | 2.7V | 07:48:30 | 02:53:10 | 00:00:00 | |
| HSKMA3-T | 2026-09-03 13:11:01 | 50.61344 | 9.22079 | 111° | 82km/h | 4505m | -5.5m/s | -3.8°C | 85.9% | 593.5hPa | 2.6V | 07:48:30 | 02:53:08 | 00:00:00 | |
| DM0DOS-11 | 2026-09-03 13:10:57 | 50.61427 | 9.21806 | 117° | 89km/h | 4550m | -5.4m/s | -4°C | 84.9% | 590.2hPa | 2.7V | 07:48:04 | 02:52:59 | 00:00:00 | |
| DL1NUX | 2026-09-03 13:10:55 | 50.61447 | 9.21742 | 115° | 91km/h | 4560m | -4.6m/s | -4°C | 84.9% | 589.4hPa | 2.7V | 07:48:06 | 02:52:57 | 00:00:00 | |
| BIOWL1-15 | 2026-09-03 13:10:53 | 50.61416 | 9.21837 | 119° | 89km/h | 4544m | -5.6m/s | -3.9°C | 85.6% | 590.5hPa | 2.7V | 07:48:30 | 02:53:00 | 00:00:00 | |
| HSKMA3-T | 2026-09-03 13:10:51 | 50.61437 | 9.21774 | 117° | 91km/h | 4555m | -4.8m/s | -4°C | 85% | 589.7hPa | 2.7V | 07:48:30 | 02:52:58 | 00:00:00 | |
| DL1NUX | 2026-09-03 13:10:50 | 50.61493 | 9.21577 | 111° | 88km/h | 4584m | -4.8m/s | -4.1°C | 81.6% | 587.6hPa | 2.7V | 07:48:11 | 02:52:52 | 00:00:00 | |
| DJ8HS-15 | 2026-09-03 13:10:50 | 50.61447 | 9.21742 | 116° | 86km/h | 4560m | -4.6m/s | -4.0°C | 84.9% | 589.4hPa | 2.7V | 00:00:00 | 02:52:57 | 00:00:00 | |
| DD1CC3-15 | 2026-09-03 13:10:48 | 50.61457 | 9.21709 | 115° | 91km/h | 4564m | -4.9m/s | -4.1°C | 81.3% | 589.1hPa | 2.6V | 07:48:00 | 00:00:00 | 00:00:00 | |
| DM0DOS-11 | 2026-09-03 13:10:47 | 50.61518 | 9.21483 | 114° | 84km/h | 4598m | -4.8m/s | -4.2°C | 82.9% | 586.5hPa | 2.6V | 07:48:14 | 02:52:49 | 00:00:00 | |
| DL1NUX | 2026-09-03 13:10:45 | 50.61536 | 9.21423 | 115° | 84km/h | 4608m | -5.6m/s | -4.2°C | 82.7% | 585.8hPa | 2.7V | 07:48:16 | 02:52:47 | 00:00:00 | |
| NBG1-10 | 2026-09-03 13:10:44 | 50.61501 | 9.21545 | 113° | 84km/h | 4588m | -4.7m/s | -4.1°C | 81.8% | 587.2hPa | 2.7V | 00:00:00 | 02:52:51 | 00:00:00 | |
| DM0DOS-11 | 2026-09-03 13:10:42 | 50.61572 | 9.21303 | 115° | 84km/h | 4630m | -5.3m/s | -4.3°C | 82.1% | 584.1hPa | 2.6V | 07:48:20 | 02:52:43 | 00:00:00 | |
| BIOWL1-15 | 2026-09-03 13:10:42 | 50.61518 | 9.21483 | 114° | 84km/h | 4598m | -4.8m/s | -4.2°C | 83.2% | 586.5hPa | 2.6V | 07:48:30 | 02:52:49 | 00:00:00 | |
| HSKMA3-T | 2026-09-03 13:10:40 | 50.61536 | 9.21423 | 116° | 84km/h | 4608m | -5.6m/s | -4.3°C | 83.6% | 585.8hPa | 2.7V | 07:48:30 | 02:52:47 | 00:00:00 | |
| DL9SK-14 | 2026-09-03 13:10:39 | 50.61545 | 9.21393 | 115° | 82km/h | 4614m | -5.5m/s | -4.3°C | 79.6% | 585.3hPa | 2.7V | 00:00:00 | 00:00:00 | 00:00:00 | |
| DM0DOS-11 | 2026-09-03 13:10:37 | 50.61617 | 9.21153 | 115° | 84km/h | 4657m | -5.2m/s | -4.4°C | 79.9% | 582.2hPa | 2.7V | 07:48:25 | 02:52:38 | 00:00:00 | |
| BIOWL1-15 | 2026-09-03 13:10:32 | 50.61608 | 9.21183 | 115° | 84km/h | 4652m | -5.2m/s | -4.4°C | 81.2% | 582.6hPa | 2.7V | 07:48:30 | 02:52:39 | 00:00:00 | |
| DM0DOS-11 | 2026-09-03 13:10:31 | 50.61662 | 9.21004 | 115° | 82km/h | 4683m | -4.9m/s | -4.6°C | 79.2% | 580.3hPa | 2.7V | 07:48:30 | 02:52:33 | 00:00:00 | |
| DL1NUX | 2026-09-03 13:10:30 | 50.61626 | 9.21123 | 115° | 84km/h | 4662m | -5.3m/s | -4.5°C | 79.8% | 581.8hPa | 2.7V | 07:48:26 | 02:52:37 | 00:00:00 | |
| DL1NUX | 2026-09-03 13:10:30 | 50.61671 | 9.20975 | 115° | 82km/h | 4688m | -5.2m/s | -4.7°C | 79.6% | 580hPa | 2.7V | 07:48:31 | 02:52:32 | 00:00:00 | |
| HSKMA3-T | 2026-09-03 13:10:29 | 50.61635 | 9.21093 | 115° | 82km/h | 4667m | -5.3m/s | -4.5°C | 80.5% | 581.4hPa | 2.6V | 07:48:30 | 02:52:36 | 00:00:00 | |
| DO9LL-15 | 2026-09-03 13:10:27 | 50.61653 | 9.21034 | 116° | 82km/h | 4678m | -5.0m/s | -4.5°C | 79.5% | 580.7hPa | 2.7V | 00:00:00 | 02:52:34 | 00:00:00 | |
| SO1NDE-10 | 2026-09-03 13:10:25 | 50.61671 | 9.20975 | 116° | 84km/h | 4688m | -5.1m/s | -4.6°C | 79.6% | 579.9hPa | 2.7V | 00:00:00 | 02:52:32 | 00:00:00 | |
| DL1NUX | 2026-09-03 13:10:20 | 50.61716 | 9.20827 | 114° | 82km/h | 4713m | -5.1m/s | -4.8°C | 80% | 578hPa | 2.7V | 07:48:36 | 02:52:27 | 00:00:00 | |
| BIOWL1-15 | 2026-09-03 13:10:20 | 50.61716 | 9.20827 | 115° | 82km/h | 4713m | -5.1m/s | -4.8°C | 80.7% | 578hPa | 2.7V | 07:49:21 | 02:52:27 | 00:00:00 | |
| HSKMA3-T | 2026-09-03 13:10:19 | 50.61725 | 9.20797 | 115° | 82km/h | 4718m | -5.1m/s | -4.9°C | 79.5% | 577.7hPa | 2.7V | 07:49:21 | 02:52:26 | 00:00:00 | |
| DM0DOS-11 | 2026-09-03 13:10:17 | 50.61760 | 9.20675 | 113° | 84km/h | 4739m | -5.5m/s | -5.1°C | 79.2% | 576.2hPa | 2.6V | 07:48:41 | 02:52:22 | 00:00:00 | |
| DM0DOS-11 | 2026-09-03 13:10:11 | 50.61803 | 9.20522 | 113° | 84km/h | 4764m | -4.9m/s | -5.3°C | 79.3% | 574.3hPa | 2.6V | 07:48:46 | 02:52:17 | 00:00:00 | |
| BIOWL1-15 | 2026-09-03 13:10:09 | 50.61837 | 9.20400 | 114° | 84km/h | 4785m | -5.1m/s | -5.5°C | 80.1% | 572.8hPa | 2.7V | 07:49:21 | 02:52:13 | 00:00:00 | |
| HSKMA3-T | 2026-09-03 13:10:09 | 50.61812 | 9.20492 | 114° | 84km/h | 4769m | -5m/s | -5.3°C | 80.4% | 574hPa | 2.6V | 07:49:21 | 02:52:16 | 00:00:00 | |
| DD1CC3-15 | 2026-09-03 13:10:07 | 50.61821 | 9.20461 | 115° | 84km/h | 4774m | -5.1m/s | -5.4°C | 76.1% | 573.4hPa | 2.7V | 07:49:00 | 00:00:00 | 00:00:00 | |
| DM0DOS-11 | 2026-09-03 13:10:05 | 50.61846 | 9.20370 | 113° | 84km/h | 4790m | -5.1m/s | -5.5°C | 79.2% | 572.5hPa | 2.7V | 07:48:51 | 02:52:12 | 00:00:00 | |
| DL1NUX | 2026-09-03 13:10:05 | 50.61888 | 9.20217 | 113° | 84km/h | 4816m | -5.3m/s | -5.6°C | 76.3% | 570.6hPa | 2.7V | 07:48:56 | 02:52:07 | 00:00:00 | |
| HSKMA3-T | 2026-09-03 13:09:58 | 50.61904 | 9.20155 | 113° | 84km/h | 4826m | -5.1m/s | -5.7°C | 77.6% | 569.8hPa | 2.7V | 07:49:21 | 02:52:05 | 00:00:00 | |
| DL1NUX | 2026-09-03 13:09:55 | 50.61930 | 9.20063 | 113° | 84km/h | 4842m | -5.2m/s | -5.8°C | 77.2% | 568.6hPa | 2.7V | 07:49:01 | 02:52:02 | 00:00:00 | |
| SO1NDE-10 | 2026-09-03 13:09:55 | 50.61930 | 9.20062 | 114° | 84km/h | 4842m | -5.1m/s | -5.7°C | 77.2% | 568.6hPa | 2.7V | 00:00:00 | 02:52:02 | 00:00:00 | |
| DM0DOS-11 | 2026-09-03 13:09:54 | 50.61972 | 9.19909 | 113° | 84km/h | 4867m | -5.2m/s | -6°C | 79% | 566.8hPa | 2.6V | 07:49:06 | 02:51:57 | 00:00:00 | |
| HSKMA3-T | 2026-09-03 13:09:48 | 50.61988 | 9.19848 | 113° | 82km/h | 4878m | -5.3m/s | -6.2°C | 80.8% | 566hPa | 2.7V | 07:49:21 | 02:51:55 | 00:00:00 | |
| BIOWL1-15 | 2026-09-03 13:09:47 | 50.61997 | 9.19817 | 113° | 84km/h | 4883m | -5.3m/s | -6.2°C | 80.9% | 565.7hPa | 2.7V | 07:49:21 | 02:51:54 | 00:00:00 | |
| DL1NUX | 2026-09-03 13:09:45 | 50.62013 | 9.19756 | 113° | 84km/h | 4894m | -5.3m/s | -6.3°C | 79.9% | 564.8hPa | 2.6V | 07:49:11 | 02:51:52 | 00:00:00 | |
| DM0DOS-11 | 2026-09-03 13:09:41 | 50.62054 | 9.19604 | 112° | 84km/h | 4920m | -5.1m/s | -6.5°C | 80.7% | 563hPa | 2.7V | 07:49:16 | 02:51:47 | 00:00:00 | |
| DB0DAN | 2026-09-03 13:09:40 | 50.62054 | 9.19604 | 112° | 78km/h | 4920m | -5.1m/s | -6.5°C | 77.1% | 562.96hPa | 2.7V | 00:00:00 | 00:00:00 | 00:00:00 | |
| HSKMA3-T | 2026-09-03 13:09:37 | 50.62078 | 9.19512 | 112° | 84km/h | 4935m | -5m/s | -6.6°C | 81.2% | 561.9hPa | 2.6V | 07:49:21 | 02:51:44 | 00:00:00 | |
| DM0DOS-11 | 2026-09-03 13:09:35 | 50.62093 | 9.19450 | 111° | 82km/h | 4946m | -5.2m/s | -6.7°C | 80.9% | 561.1hPa | 2.7V | 07:49:21 | 02:51:42 | 00:00:00 | |
| DB0UT-7 | 2026-09-03 13:09:34 | 50.62101 | 9.19419 | 112° | 82km/h | 4951m | -5.3m/s | -6.7°C | 80.6% | 560.7hPa | 2.6V | 07:49:00 | 02:51:41 | 00:00:00 | |
| DD1CC8 | 2026-09-03 13:09:33 | 50.62108 | 9.19389 | 111° | 82km/h | 4956m | -5.3m/s | -6.8°C | 77.7% | 560.3hPa | 2.6V | 00:00:00 | 00:00:00 | 00:00:00 | |
| DL1NUX | 2026-09-03 13:09:30 | 50.62170 | 9.19144 | 112° | 82km/h | 4999m | -5.4m/s | -7.2°C | 83.4% | 557.4hPa | 2.6V | 07:49:31 | 02:51:32 | 00:00:00 | |
| BIOWL1-15 | 2026-09-03 13:09:29 | 50.62155 | 9.19206 | 112° | 82km/h | 4988m | -5.3m/s | -7.1°C | 83.3% | 558hPa | 2.7V | 07:50:12 | 02:51:34 | 00:00:00 | |
| HSKMA3-T | 2026-09-03 13:09:26 | 50.62163 | 9.19175 | 112° | 84km/h | 4993m | -5.3m/s | -7.2°C | 83.7% | 557.8hPa | 2.6V | 07:50:12 | 02:51:33 | 00:00:00 | |
| DB0DAN | 2026-09-03 13:09:25 | 50.62170 | 9.19144 | 112° | 78km/h | 4999m | -5.4m/s | -7.2°C | 79.6% | 557.41hPa | 2.6V | 00:00:00 | 00:00:00 | 00:00:00 | |
| DL1NUX | 2026-09-03 13:09:21 | 50.62238 | 9.18866 | 110° | 82km/h | 5047m | -5.2m/s | -7.7°C | 85.8% | 553.9hPa | 2.7V | 07:49:40 | 02:51:23 | 00:00:00 | |
| BIOWL1-15 | 2026-09-03 13:09:19 | 50.62231 | 9.18897 | 110° | 82km/h | 5042m | -5.3m/s | -7.7°C | 86.1% | 554.2hPa | 2.7V | 07:50:12 | 02:51:24 | 00:00:00 | |
| HSKMA3-T | 2026-09-03 13:09:15 | 50.62245 | 9.18835 | 110° | 82km/h | 5052m | -5.3m/s | -7.8°C | 85.9% | 553.4hPa | 2.7V | 07:50:12 | 02:51:22 | 00:00:00 | |
| DM0DOS-11 | 2026-09-03 13:09:11 | 50.62282 | 9.18683 | 111° | 80km/h | 5079m | -5.5m/s | -8°C | 86.9% | 551.6hPa | 2.7V | 07:49:46 | 02:51:17 | 00:00:00 | |
| DL1NUX | 2026-09-03 13:09:11 | 50.62312 | 9.18561 | 111° | 82km/h | 5100m | -5.4m/s | -8.2°C | 87.1% | 550hPa | 2.7V | 07:49:50 | 02:51:13 | 00:00:00 | |
| BIOWL1-15 | 2026-09-03 13:09:08 | 50.62312 | 9.18561 | 112° | 82km/h | 5100m | -5.4m/s | -8.2°C | 85.8% | 550hPa | 2.7V | 07:50:12 | 02:51:13 | 00:00:00 | |
| HSKMA3-T | 2026-09-03 13:09:05 | 50.62319 | 9.18531 | 112° | 82km/h | 5106m | -5.3m/s | -8.2°C | 85.9% | 549.6hPa | 2.7V | 07:50:12 | 02:51:12 | 00:00:00 | |
| DB0UT-7 | 2026-09-03 13:09:04 | 50.62327 | 9.18500 | 112° | 82km/h | 5111m | -5.3m/s | -8.3°C | 87.4% | 549.2hPa | 2.7V | 00:00:00 | 00:00:00 | 00:00:00 | |
| DM0DOS-11 | 2026-09-03 13:09:03 | 50.62357 | 9.18379 | 110° | 80km/h | 5132m | -5.7m/s | -8.5°C | 89.9% | 547.9hPa | 2.7V | 07:49:56 | 02:51:07 | 00:00:00 | |
| DD1CC8 | 2026-09-03 13:09:02 | 50.62342 | 9.18440 | 111° | 80km/h | 5122m | -5.3m/s | -8.4°C | 83.8% | 548.6hPa | 2.6V | 00:00:00 | 00:00:00 | 00:00:00 | |
| DL1NUX | 2026-09-03 13:09:01 | 50.62384 | 9.18257 | 108° | 82km/h | 5154m | -5.5m/s | -8.7°C | 91.7% | 546.3hPa | 2.6V | 07:50:00 | 02:51:03 | 00:00:00 | |
| BIOWL1-15 | 2026-09-03 13:08:56 | 50.62384 | 9.18257 | 109° | 82km/h | 5154m | -5.5m/s | -8.7°C | 88.9% | 546.3hPa | 2.6V | 07:50:12 | 02:51:03 | 00:00:00 | |
| HSKMA3-T | 2026-09-03 13:08:54 | 50.62398 | 9.18195 | 109° | 82km/h | 5165m | -5.5m/s | -8.8°C | 88.2% | 545.5hPa | 2.7V | 07:50:12 | 02:51:01 | 00:00:00 | |
| DM0DOS-11 | 2026-09-03 13:08:53 | 50.62427 | 9.18073 | 112° | 82km/h | 5187m | -5.5m/s | -9°C | 92.1% | 544.1hPa | 2.6V | 07:50:06 | 02:50:57 | 00:00:00 | |
| DL1NUX | 2026-09-03 13:08:51 | 50.62461 | 9.17954 | 114° | 80km/h | 5209m | -5.8m/s | -9.2°C | 92% | 542.5hPa | 2.7V | 07:50:10 | 02:50:53 | 00:00:00 | |
| BIOWL9-15 | 2026-09-03 13:08:49 | 50.62444 | 9.18013 | 114° | 80km/h | 5197m | -5.5m/s | -9.1°C | 86.9% | 543.3hPa | 2.7V | 00:00:00 | 00:00:00 | 00:00:00 | |
| BIOWL1-15 | 2026-09-03 13:08:45 | 50.62496 | 9.17835 | 115° | 82km/h | 5231m | -5.2m/s | -9.4°C | 87.6% | 541hPa | 2.7V | 07:51:03 | 02:50:49 | 00:00:00 | |
| DM0DOS-11 | 2026-09-03 13:08:43 | 50.62513 | 9.17775 | 114° | 82km/h | 5242m | -5.2m/s | -9.5°C | 92.2% | 540.2hPa | 2.7V | 07:50:16 | 02:50:47 | 00:00:00 | |
| HSKMA3-T | 2026-09-03 13:08:43 | 50.62487 | 9.17865 | 115° | 82km/h | 5225m | -5.7m/s | -9.3°C | 87.1% | 541.4hPa | 2.6V | 07:51:03 | 02:50:50 | 00:00:00 | |
| BIOWL1-15 | 2026-09-03 13:08:33 | 50.62585 | 9.17537 | 116° | 82km/h | 5287m | -5.8m/s | -8.9°C | 61.8% | 537.1hPa | 2.6V | 07:51:03 | 02:50:39 | 00:00:00 | |
| DM0DOS-11 | 2026-09-03 13:08:33 | 50.62603 | 9.17477 | 116° | 82km/h | 5298m | -5.7m/s | -8.6°C | 49.2% | 536.3hPa | 2.7V | 07:50:26 | 02:50:37 | 00:00:00 | |
| HSKMA3-T | 2026-09-03 13:08:33 | 50.62575 | 9.17566 | 116° | 82km/h | 5281m | -5.6m/s | -8.9°C | 64.5% | 537.5hPa | 2.6V | 07:51:03 | 02:50:40 | 00:00:00 | |
| DB0UT-7 | 2026-09-03 13:08:33 | 50.62575 | 9.17566 | 116° | 84km/h | 5281m | -5.5m/s | -8.9°C | 64.1% | 537.5hPa | 2.6V | 00:00:00 | 02:50:40 | 00:00:00 | |
| NBG1-10 | 2026-09-03 13:08:32 | 50.62584 | 9.17536 | 116° | 84km/h | 5287m | -5.7m/s | -8.8°C | 61.3% | 537.1hPa | 2.6V | 00:00:00 | 02:50:39 | 00:00:00 | |
| DL1NUX | 2026-09-03 13:08:31 | 50.62641 | 9.17359 | 117° | 82km/h | 5320m | -5.7m/s | -8.6°C | 41.9% | 534.7hPa | 2.6V | 07:50:30 | 02:50:33 | 00:00:00 | |
| BIOWL1-15 | 2026-09-03 13:08:23 | 50.62689 | 9.17210 | 117° | 86km/h | 5349m | -5.6m/s | -8.8°C | 48.7% | 532.7hPa | 2.6V | 07:51:03 | 02:50:28 | 00:00:00 | |
| DM0DOS-11 | 2026-09-03 13:08:23 | 50.62699 | 9.17180 | 116° | 84km/h | 5354m | -5.7m/s | -8.8°C | 46.3% | 532.4hPa | 2.6V | 07:50:36 | 02:50:27 | 00:00:00 | |
| DL1NUX | 2026-09-03 13:08:21 | 50.62738 | 9.17058 | 116° | 86km/h | 5377m | -5.6m/s | -9°C | 50.2% | 530.8hPa | 2.7V | 07:50:40 | 02:50:23 | 00:00:00 | |
| HSKMA3-T | 2026-09-03 13:08:17 | 50.62728 | 9.17088 | 116° | 86km/h | 5371m | -5.7m/s | -9°C | 52.2% | 531.2hPa | 2.7V | 07:51:03 | 02:50:24 | 00:00:00 | |
| DM0DOS-11 | 2026-09-03 13:08:13 | 50.62796 | 9.16877 | 117° | 84km/h | 5411m | -5.7m/s | -9.3°C | 55.3% | 528.6hPa | 2.7V | 07:50:46 | 02:50:17 | 00:00:00 | |
| DL1NUX | 2026-09-03 13:08:11 | 50.62836 | 9.16756 | 117° | 86km/h | 5433m | -5.8m/s | -9.5°C | 56.8% | 527hPa | 2.7V | 07:50:50 | 02:50:13 | 00:00:00 | |
| BIOWL1-15 | 2026-09-03 13:08:10 | 50.62796 | 9.16876 | 117° | 84km/h | 5411m | -5.7m/s | -9.4°C | 57.3% | 528.6hPa | 2.7V | 07:51:03 | 02:50:17 | 00:00:00 | |
| HSKMA3-T | 2026-09-03 13:08:08 | 50.62826 | 9.16786 | 117° | 86km/h | 5428m | -5.7m/s | -9.5°C | 58.9% | 527.4hPa | 2.7V | 07:51:03 | 02:50:14 | 00:00:00 | |
| DL9SK-14 | 2026-09-03 13:08:04 | 50.62866 | 9.16665 | 117° | 86km/h | 5450m | -5.7m/s | -9.6°C | 53.2% | 525.9hPa | 2.7V | 00:00:00 | 00:00:00 | 00:00:00 | |
| DB0UT-7 | 2026-09-03 13:08:03 | 50.62866 | 9.16665 | 118° | 84km/h | 5451m | -5.7m/s | -9.6°C | 56.2% | 525.8hPa | 2.7V | 00:00:00 | 00:00:00 | 00:00:00 | |
| DL1NUX | 2026-09-03 13:08:01 | 50.62936 | 9.16453 | 117° | 84km/h | 5491m | -5.8m/s | -9.9°C | 60.9% | 523.2hPa | 2.7V | 07:51:00 | 02:50:03 | 00:00:00 | |
| BIOWL1-15 | 2026-09-03 13:07:57 | 50.62926 | 9.16483 | 118° | 86km/h | 5485m | -5.8m/s | -9.9°C | 63% | 523.6hPa | 2.6V | 07:51:03 | 02:50:04 | 00:00:00 | |
| HSKMA3-T | 2026-09-03 13:07:56 | 50.62936 | 9.16453 | 118° | 84km/h | 5491m | -5.8m/s | -10°C | 62.9% | 523.2hPa | 2.7V | 07:51:03 | 02:50:03 | 00:00:00 | |
| DM0DOS-11 | 2026-09-03 13:07:55 | 50.62995 | 9.16275 | 117° | 84km/h | 5525m | -5.5m/s | -10.2°C | 60.1% | 520.8hPa | 2.7V | 07:51:06 | 02:49:57 | 00:00:00 | |
| SO1NDE-10 | 2026-09-03 13:07:55 | 50.62946 | 9.16423 | 118° | 86km/h | 5496m | -5.7m/s | -10.0°C | 60.7% | 522.7hPa | 2.6V | 00:00:00 | 02:50:02 | 00:00:00 | |
| DL1NUX | 2026-09-03 13:07:51 | 50.63034 | 9.16156 | 117° | 84km/h | 5547m | -5.6m/s | -10.4°C | 61.5% | 519.4hPa | 2.6V | 07:51:10 | 02:49:53 | 00:00:00 | |
| BIOWL1-15 | 2026-09-03 13:07:47 | 50.63025 | 9.16186 | 118° | 84km/h | 5541m | -5.7m/s | -10.4°C | 62.4% | 519.6hPa | 2.6V | 07:51:54 | 02:49:54 | 00:00:00 | |
| HSKMA3-T | 2026-09-03 13:07:45 | 50.63044 | 9.16126 | 117° | 86km/h | 5553m | -5.7m/s | -10.5°C | 62.9% | 518.8hPa | 2.7V | 07:51:54 | 02:49:52 | 00:00:00 | |
| DD1CC3-15 | 2026-09-03 13:07:44 | 50.63044 | 9.16126 | 118° | 86km/h | 5553m | -5.7m/s | -10.5°C | 58.4% | 518.8hPa | 2.6V | 07:51:00 | 00:00:00 | 00:00:00 | |
| DM0DOS-11 | 2026-09-03 13:07:41 | 50.63093 | 9.15976 | 116° | 84km/h | 5580m | -5.5m/s | -10.7°C | 61.9% | 517hPa | 2.6V | 07:51:16 | 02:49:47 | 00:00:00 | |
| DL1NUX | 2026-09-03 13:07:41 | 50.63131 | 9.15855 | 116° | 84km/h | 5602m | -5.6m/s | -10.8°C | 62% | 515.6hPa | 2.6V | 07:51:20 | 02:49:43 | 00:00:00 | |
| DB0DAN | 2026-09-03 13:07:40 | 50.63093 | 9.15976 | 117° | 80km/h | 5580m | -5.5m/s | -10.7°C | 58.6% | 517.03hPa | 2.6V | 00:00:00 | 00:00:00 | 00:00:00 | |
| BIOWL1-15 | 2026-09-03 13:07:37 | 50.63122 | 9.15885 | 116° | 84km/h | 5597m | -5.6m/s | -10.8°C | 62.4% | 515.8hPa | 2.7V | 07:51:54 | 02:49:44 | 00:00:00 | |
| HSKMA3-T | 2026-09-03 13:07:34 | 50.63150 | 9.15794 | 116° | 86km/h | 5614m | -5.7m/s | -10.9°C | 63.3% | 514.8hPa | 2.7V | 07:51:54 | 02:49:41 | 00:00:00 | |
| DL9SK-14 | 2026-09-03 13:07:33 | 50.63169 | 9.15733 | 116° | 86km/h | 5624m | -5.6m/s | -11.0°C | 59.7% | 513.9hPa | 2.7V | 00:00:00 | 00:00:00 | 00:00:00 | |
| DL1NUX | 2026-09-03 13:07:31 | 50.63227 | 9.15545 | 115° | 89km/h | 5658m | -5.5m/s | -11.2°C | 64.7% | 511.8hPa | 2.7V | 07:51:30 | 02:49:33 | 00:00:00 | |
| BIOWL1-15 | 2026-09-03 13:07:26 | 50.63227 | 9.15545 | 116° | 89km/h | 5658m | -5.5m/s | -11.2°C | 64.3% | 511.8hPa | 2.7V | 07:51:54 | 02:49:33 | 00:00:00 | |
| HSKMA3-T | 2026-09-03 13:07:23 | 50.63257 | 9.15450 | 116° | 89km/h | 5674m | -5.6m/s | -11.3°C | 66.8% | 510.7hPa | 2.7V | 07:51:54 | 02:49:30 | 00:00:00 | |
| DL1NUX | 2026-09-03 13:07:21 | 50.63327 | 9.15227 | 116° | 89km/h | 5714m | -5.8m/s | -11.6°C | 69.1% | 508hPa | 2.7V | 07:51:40 | 02:49:23 | 00:00:00 | |
| BIOWL1-15 | 2026-09-03 13:07:17 | 50.63336 | 9.15195 | 116° | 89km/h | 5720m | -5.8m/s | -11.7°C | 68.6% | 507.7hPa | 2.7V | 07:51:54 | 02:49:22 | 00:00:00 | |
| HSKMA3-T | 2026-09-03 13:07:13 | 50.63356 | 9.15131 | 116° | 91km/h | 5731m | -5.8m/s | -11.6°C | 67.3% | 507hPa | 2.6V | 07:51:54 | 02:49:20 | 00:00:00 | |
| DL1NUX | 2026-09-03 13:07:11 | 50.63427 | 9.14899 | 115° | 93km/h | 5772m | -5.9m/s | -11.7°C | 57% | 504.2hPa | 2.7V | 07:51:50 | 02:49:13 | 00:00:00 | |
| BIOWL1-15 | 2026-09-03 13:07:06 | 50.63446 | 9.14833 | 115° | 91km/h | 5783m | -5.4m/s | -11.7°C | 59.7% | 503.4hPa | 2.7V | 07:51:54 | 02:49:11 | 00:00:00 | |
| HSKMA3-T | 2026-09-03 13:07:03 | 50.63456 | 9.14800 | 115° | 89km/h | 5789m | -5.6m/s | -11.7°C | 59.9% | 503.1hPa | 2.6V | 07:51:54 | 02:49:10 | 00:00:00 | |
| DB0UT-7 | 2026-09-03 13:07:03 | 50.63456 | 9.14800 | 115° | 91km/h | 5789m | -5.5m/s | -11.7°C | 59.7% | 503.0hPa | 2.6V | 00:00:00 | 00:00:00 | 00:00:00 | |
| DL9SK-14 | 2026-09-03 13:07:02 | 50.63475 | 9.14735 | 114° | 88km/h | 5800m | -5.6m/s | -11.8°C | 58.5% | 502.4hPa | 2.6V | 00:00:00 | 00:00:00 | 00:00:00 | |
| DL1NUX | 2026-09-03 13:07:01 | 50.63522 | 9.14575 | 115° | 89km/h | 5828m | -5.6m/s | -11.8°C | 68.3% | 500.5hPa | 2.6V | 07:52:00 | 02:49:03 | 00:00:00 | |
| BIOWL1-15 | 2026-09-03 13:06:53 | 50.63552 | 9.14478 | 116° | 91km/h | 5845m | -5.7m/s | -12°C | 68.7% | 499.5hPa | 2.7V | 07:52:45 | 02:49:00 | 00:00:00 | |
| DJ2KF-10 | 2026-09-03 13:06:52 | 50.63562 | 9.14445 | 116° | 93km/h | 5850m | -6.0m/s | -12.1°C | 69.9% | 499.0hPa | 2.7V | 00:00:00 | 02:48:59 | 00:00:00 | |
| DJ8HS-15 | 2026-09-03 13:06:50 | 50.63582 | 9.14378 | 115° | 91km/h | 5862m | -5.8m/s | -12.2°C | 70.5% | 498.3hPa | 2.7V | 00:00:00 | 02:48:57 | 00:00:00 | |
| DM0DOS-11 | 2026-09-03 13:06:47 | 50.63659 | 9.14115 | 115° | 91km/h | 5910m | -6.5m/s | -12.4°C | 77.1% | 495.1hPa | 2.7V | 07:52:14 | 02:48:49 | 00:00:00 | |
| HSKMA3-T | 2026-09-03 13:06:43 | 50.63649 | 9.14148 | 115° | 91km/h | 5904m | -6.4m/s | -12.3°C | 75.7% | 495.6hPa | 2.7V | 07:52:45 | 02:48:50 | 00:00:00 | |
| BIOWL1-15 | 2026-09-03 13:06:42 | 50.63659 | 9.14115 | 116° | 93km/h | 5910m | -6.5m/s | -12.4°C | 76.3% | 495.2hPa | 2.7V | 07:52:45 | 02:48:49 | 00:00:00 | |
| DL1NUX | 2026-09-03 13:06:41 | 50.63720 | 9.13918 | 115° | 91km/h | 5948m | -6m/s | -12.6°C | 80% | 492.7hPa | 2.6V | 07:52:20 | 02:48:43 | 00:00:00 | |
| DB0NH | 2026-09-03 13:06:41 | 50.63669 | 9.14082 | 116° | 93km/h | 5917m | -6.4m/s | -12.3°C | 77.7% | 494.7hPa | 2.6V | 00:00:00 | 02:48:48 | 00:00:00 | |
| DM0DOS-11 | 2026-09-03 13:06:36 | 50.63760 | 9.13785 | 114° | 93km/h | 5972m | -6.2m/s | -12.8°C | 80.9% | 491.1hPa | 2.7V | 07:52:24 | 02:48:39 | 00:00:00 | |
| BIOWL1-15 | 2026-09-03 13:06:32 | 50.63760 | 9.13785 | 115° | 93km/h | 5972m | -6.2m/s | -12.8°C | 80.4% | 491.1hPa | 2.7V | 07:52:45 | 02:48:39 | 00:00:00 | |
| DL1NUX | 2026-09-03 13:06:31 | 50.63819 | 9.13583 | 114° | 93km/h | 6007m | -5.6m/s | -13.1°C | 82.8% | 488.8hPa | 2.7V | 07:52:30 | 02:48:33 | 00:00:00 | |
| HSKMA3-T | 2026-09-03 13:06:31 | 50.63770 | 9.13751 | 115° | 93km/h | 5978m | -5.8m/s | -12.9°C | 80.6% | 490.8hPa | 2.6V | 07:52:45 | 02:48:38 | 00:00:00 | |
| BIOWL1-15 | 2026-09-03 13:06:24 | 50.63858 | 9.13447 | 115° | 93km/h | 6030m | -5.4m/s | -13.4°C | 81.6% | 487.4hPa | 2.7V | 07:52:45 | 02:48:29 | 00:00:00 | |
| DL1NUX | 2026-09-03 13:06:21 | 50.63919 | 9.13244 | 116° | 95km/h | 6062m | -5.5m/s | -13.7°C | 85.6% | 485.4hPa | 2.7V | 07:52:40 | 02:48:23 | 00:00:00 | |
| HSKMA3-T | 2026-09-03 13:06:20 | 50.63878 | 9.13379 | 115° | 95km/h | 6041m | -5.4m/s | -13.5°C | 82.1% | 486.8hPa | 2.6V | 07:52:45 | 02:48:27 | 00:00:00 | |
| DJ2KF-10 | 2026-09-03 13:06:20 | 50.63878 | 9.13379 | 116° | 93km/h | 6041m | -5.3m/s | -13.4°C | 84.6% | 486.7hPa | 2.6V | 00:00:00 | 02:48:27 | 00:00:00 | |
| DL8OAI-8 | 2026-09-03 13:06:19 | 50.63878 | 9.13379 | 116° | 95km/h | 6041m | -5.4m/s | -13.5°C | 79.8% | 486.8hPa | 2.6V | 00:00:00 | 00:00:00 | 00:00:00 | |
| DM0DOS-11 | 2026-09-03 13:06:15 | 50.63940 | 9.13177 | 116° | 93km/h | 6073m | -5.3m/s | -13.8°C | 86.3% | 484.6hPa | 2.6V | 07:52:42 | 02:48:21 | 00:00:00 | |
| BIOWL1-15 | 2026-09-03 13:06:12 | 50.63961 | 9.13111 | 115° | 93km/h | 6084m | -5.5m/s | -13.9°C | 84.1% | 483.9hPa | 2.6V | 07:52:45 | 02:48:19 | 00:00:00 | |
| DB0DAN | 2026-09-03 13:06:10 | 50.63981 | 9.13043 | 115° | 88km/h | 6095m | -5.6m/s | -14°C | 82.4% | 483.29hPa | 2.7V | 00:00:00 | 00:00:00 | 00:00:00 | |
| HSKMA3-T | 2026-09-03 13:06:09 | 50.63990 | 9.13010 | 115° | 93km/h | 6101m | -5.2m/s | -14°C | 84.9% | 482.9hPa | 2.6V | 07:53:36 | 02:48:16 | 00:00:00 | |
| DM0DOS-11 | 2026-09-03 13:06:08 | 50.64042 | 9.12842 | 116° | 93km/h | 6127m | -5.2m/s | -14.3°C | 89.6% | 481.2hPa | 2.7V | 07:52:52 | 02:48:11 | 00:00:00 | |
| BIOWL1-15 | 2026-09-03 13:06:02 | 50.64062 | 9.12776 | 115° | 93km/h | 6137m | -5.4m/s | -14.5°C | 86.1% | 480.6hPa | 2.6V | 07:53:36 | 02:48:09 | 00:00:00 | |
| HSKMA3-T | 2026-09-03 13:05:57 | 50.64110 | 9.12608 | 114° | 91km/h | 6164m | -5.3m/s | -14.8°C | 86.6% | 478.9hPa | 2.6V | 07:53:36 | 02:48:04 | 00:00:00 | |
| DD1CC8 | 2026-09-03 13:05:56 | 50.64129 | 9.12541 | 115° | 93km/h | 6175m | -5.9m/s | -14.8°C | 87.3% | 478.2hPa | 2.6V | 00:00:00 | 00:00:00 | 00:00:00 | |
| DM0DOS-11 | 2026-09-03 13:05:55 | 50.64140 | 9.12507 | 115° | 95km/h | 6181m | -5.5m/s | -14.8°C | 92.8% | 477.8hPa | 2.6V | 07:53:02 | 02:48:01 | 00:00:00 | |
| DB0DAN | 2026-09-03 13:05:55 | 50.64129 | 9.12541 | 115° | 89km/h | 6175m | -5.9m/s | -14.8°C | 87.3% | 478.16hPa | 2.6V | 00:00:00 | 00:00:00 | 00:00:00 | |
| BIOWL1-15 | 2026-09-03 13:05:51 | 50.64172 | 9.12405 | 117° | 97km/h | 6198m | -6.3m/s | -15.1°C | 88.1% | 476.7hPa | 2.6V | 07:53:36 | 02:47:58 | 00:00:00 | |
| DL1NUX | 2026-09-03 13:05:51 | 50.64227 | 9.12233 | 116° | 97km/h | 6229m | -6.2m/s | -15.3°C | 95.5% | 474.8hPa | 2.6V | 07:53:10 | 02:47:53 | 00:00:00 | |
| DJ8HS-15 | 2026-09-03 13:05:50 | 50.64183 | 9.12371 | 117° | 99km/h | 6205m | -6.1m/s | -15.1°C | 93.9% | 476.3hPa | 2.7V | 00:00:00 | 02:47:57 | 00:00:00 | |
| DM0DOS-11 | 2026-09-03 13:05:48 | 50.64249 | 9.12165 | 117° | 97km/h | 6241m | -6.2m/s | -15.4°C | 95.9% | 474hPa | 2.6V | 07:53:12 | 02:47:51 | 00:00:00 | |
| HSKMA3-T | 2026-09-03 13:05:47 | 50.64216 | 9.12268 | 117° | 97km/h | 6223m | -6m/s | -15.3°C | 89.3% | 475.2hPa | 2.6V | 07:53:36 | 02:47:54 | 00:00:00 | |
| BIOWL1-15 | 2026-09-03 13:05:41 | 50.64284 | 9.12062 | 119° | 99km/h | 6260m | -6.2m/s | -15.3°C | 89.2% | 472.9hPa | 2.6V | 07:53:36 | 02:47:48 | 00:00:00 | |
| DB0DAN | 2026-09-03 13:05:40 | 50.64295 | 9.12028 | 119° | 93km/h | 6266m | -6.1m/s | -15.3°C | 89.2% | 472.42hPa | 2.7V | 00:00:00 | 00:00:00 | 00:00:00 | |
| DL1NUX | 2026-09-03 13:05:39 | 50.64344 | 9.11891 | 118° | 99km/h | 6291m | -6.4m/s | -15.3°C | 92.6% | 470.9hPa | 2.6V | 07:53:20 | 02:47:43 | 00:00:00 | |
| HSKMA3-T | 2026-09-03 13:05:36 | 50.64344 | 9.11891 | 119° | 99km/h | 6291m | -6.4m/s | -15.3°C | 87.4% | 470.9hPa | 2.6V | 07:53:36 | 02:47:43 | 00:00:00 | |
| DM0DOS-11 | 2026-09-03 13:05:35 | 50.64368 | 9.11822 | 118° | 99km/h | 6304m | -6.4m/s | -15.3°C | 81.9% | 470.1hPa | 2.7V | 07:53:22 | 02:47:41 | 00:00:00 | |
| DB0UT-7 | 2026-09-03 13:05:33 | 50.64380 | 9.11788 | 119° | 102km/h | 6310m | -6.0m/s | -15.2°C | 83.8% | 469.6hPa | 2.6V | 07:53:00 | 02:47:40 | 00:00:00 | |
| DJ8HS-15 | 2026-09-03 13:05:30 | 50.64415 | 9.11683 | 118° | 100km/h | 6329m | -6.1m/s | -15.4°C | 87.5% | 468.6hPa | 2.6V | 00:00:00 | 02:47:37 | 00:00:00 | |
| DL1NUX | 2026-09-03 13:05:29 | 50.64463 | 9.11542 | 117° | 100km/h | 6353m | -6.4m/s | -15.7°C | 92.2% | 467hPa | 2.6V | 07:53:30 | 02:47:33 | 00:00:00 | |
| BIOWL1-15 | 2026-09-03 13:05:29 | 50.64451 | 9.11577 | 118° | 100km/h | 6347m | -6.2m/s | -15.6°C | 86.9% | 467.5hPa | 2.6V | 07:53:36 | 02:47:34 | 00:00:00 | |
| DM0DOS-11 | 2026-09-03 13:05:29 | 50.64487 | 9.11471 | 118° | 100km/h | 6366m | -6.2m/s | -15.8°C | 94.4% | 466.3hPa | 2.6V | 07:53:32 | 02:47:31 | 00:00:00 | |
| HSKMA3-T | 2026-09-03 13:05:26 | 50.64463 | 9.11542 | 118° | 100km/h | 6353m | -6.4m/s | -15.7°C | 88.3% | 467hPa | 2.6V | 07:53:36 | 02:47:33 | 00:00:00 | |
| DB0DAN | 2026-09-03 13:05:25 | 50.64475 | 9.11506 | 118° | 97km/h | 6359m | -6.3m/s | -15.7°C | 88.4% | 466.68hPa | 2.7V | 00:00:00 | 00:00:00 | 00:00:00 | |
| BIOWL1-15 | 2026-09-03 13:05:18 | 50.64572 | 9.11224 | 119° | 100km/h | 6409m | -6.1m/s | -16°C | 87.8% | 463.6hPa | 2.6V | 07:54:27 | 02:47:24 | 00:00:00 | |
| DL1NUX | 2026-09-03 13:05:18 | 50.64584 | 9.11189 | 118° | 102km/h | 6415m | -6.2m/s | -16.1°C | 95.9% | 463.2hPa | 2.6V | 07:53:40 | 02:47:23 | 00:00:00 | |
| HSKMA3-T | 2026-09-03 13:05:16 | 50.64584 | 9.11189 | 118° | 102km/h | 6415m | -6.2m/s | -16.1°C | 88.6% | 463.2hPa | 2.6V | 07:54:27 | 02:47:23 | 00:00:00 | |
| DM0DOS-11 | 2026-09-03 13:05:15 | 50.64608 | 9.11117 | 117° | 102km/h | 6427m | -6m/s | -16.1°C | 96.2% | 462.5hPa | 2.6V | 07:53:42 | 02:47:21 | 00:00:00 | |
| NBG1-10 | 2026-09-03 13:05:14 | 50.64608 | 9.11117 | 118° | 106km/h | 6428m | -6.0m/s | -16.1°C | 96.2% | 462.4hPa | 2.6V | 00:00:00 | 02:47:21 | 00:00:00 | |
| DO3DL | 2026-09-03 13:05:12 | 50.64620 | 9.11080 | 119° | 102km/h | 6433m | -5.9m/s | -16.2°C | 90.7% | 462.1hPa | 2.6V | 07:54:00 | 00:00:00 | 00:00:00 | |
| DB0NH | 2026-09-03 13:05:11 | 50.64644 | 9.11008 | 118° | 106km/h | 6446m | -6.2m/s | -16.3°C | 97.5% | 461.3hPa | 2.6V | 00:00:00 | 02:47:18 | 00:00:00 | |
| DM0DOS-11 | 2026-09-03 13:05:09 | 50.64730 | 9.10754 | 119° | 102km/h | 6489m | -6.2m/s | -16.7°C | 98.4% | 458.7hPa | 2.6V | 07:53:52 | 02:47:11 | 00:00:00 | |
| DL1NUX | 2026-09-03 13:05:08 | 50.64705 | 9.10826 | 118° | 104km/h | 6476m | -6.2m/s | -16.6°C | 99.6% | 459.4hPa | 2.6V | 07:53:50 | 02:47:13 | 00:00:00 | |
| BIOWL1-15 | 2026-09-03 13:05:08 | 50.64680 | 9.10899 | 118° | 102km/h | 6464m | -6.1m/s | -16.5°C | 89.9% | 460.2hPa | 2.6V | 07:54:27 | 02:47:15 | 00:00:00 | |
| HSKMA3-T | 2026-09-03 13:05:05 | 50.64718 | 9.10790 | 119° | 104km/h | 6482m | -6m/s | -16.7°C | 90.7% | 459.1hPa | 2.6V | 07:54:27 | 02:47:12 | 00:00:00 | |
| DB0UT-7 | 2026-09-03 13:05:03 | 50.64743 | 9.10718 | 120° | 110km/h | 6495m | -6.1m/s | -16.6°C | 95.5% | 458.3hPa | 2.6V | 00:00:00 | 00:00:00 | 00:00:00 | |
| BIOWL1-15 | 2026-09-03 13:05:03 | 50.64821 | 9.10502 | 120° | 106km/h | 6532m | -6m/s | -16.4°C | 57.1% | 456.1hPa | 2.6V | 07:54:27 | 02:47:04 | 00:00:00 | |
| DL4BBY-15 | 2026-09-03 13:04:59 | 50.64795 | 9.10574 | 120° | 117km/h | 6520m | -6.1m/s | -18.8°C | 0% | 0hPa | 2.6V | 00:00:00 | 00:00:00 | 00:00:00 | |
| DL1NUX | 2026-09-03 13:04:58 | 50.64835 | 9.10465 | 120° | 106km/h | 6538m | -6m/s | -16.4°C | 59.5% | 455.7hPa | 2.6V | 07:54:00 | 02:47:03 | 00:00:00 | |
| DL9SK-14 | 2026-09-03 13:04:58 | 50.64821 | 9.10502 | 120° | 104km/h | 6532m | -6.0m/s | -16.4°C | 54.1% | 456.1hPa | 2.6V | 00:00:00 | 00:00:00 | 00:00:00 | |
| DM0DOS-11 | 2026-09-03 13:04:56 | 50.64862 | 9.10392 | 120° | 108km/h | 6550m | -6.1m/s | -16.5°C | 56.8% | 454.9hPa | 2.6V | 07:54:02 | 02:47:01 | 00:00:00 | |
| DB0DAN | 2026-09-03 13:04:55 | 50.64848 | 9.10429 | 120° | 100km/h | 6544m | -6m/s | -16.5°C | 54.4% | 455.35hPa | 2.6V | 00:00:00 | 00:00:00 | 00:00:00 | |
| HSKMA3-T | 2026-09-03 13:04:54 | 50.64862 | 9.10392 | 121° | 108km/h | 6550m | -6.1m/s | -16.5°C | 55.9% | 455hPa | 2.6V | 07:54:27 | 02:47:01 | 00:00:00 | |
| DD1CC8 | 2026-09-03 13:04:54 | 50.64876 | 9.10355 | 120° | 106km/h | 6556m | -6.0m/s | -16.5°C | 51.3% | 454.6hPa | 2.6V | 00:00:00 | 00:00:00 | 00:00:00 | |
| DM0DOS-11 | 2026-09-03 13:04:50 | 50.65004 | 9.10024 | 122° | 110km/h | 6611m | -6m/s | -16.6°C | 52.5% | 451.4hPa | 2.6V | 07:54:12 | 02:46:51 | 00:00:00 | |
| DJ8HS-15 | 2026-09-03 13:04:50 | 50.64917 | 9.10245 | 122° | 113km/h | 6575m | -6.0m/s | -16.5°C | 52.9% | 453.5hPa | 2.6V | 00:00:00 | 02:46:57 | 00:00:00 | |
| DL1NUX | 2026-09-03 13:04:48 | 50.64975 | 9.10098 | 121° | 110km/h | 6599m | -5.7m/s | -16.6°C | 52.6% | 452hPa | 2.6V | 07:54:10 | 02:46:53 | 00:00:00 | |
| BIOWL1-15 | 2026-09-03 13:04:48 | 50.64975 | 9.10098 | 122° | 110km/h | 6599m | -5.7m/s | -16.6°C | 52.1% | 452hPa | 2.6V | 07:54:27 | 02:46:53 | 00:00:00 | |
| HSKMA3-T | 2026-09-03 13:04:43 | 50.65019 | 9.09987 | 122° | 111km/h | 6617m | -6m/s | -16.7°C | 52.3% | 450.9hPa | 2.6V | 07:54:27 | 02:46:50 | 00:00:00 | |
| DB0NH | 2026-09-03 13:04:41 | 50.65049 | 9.09913 | 124° | 119km/h | 6628m | -5.7m/s | -16.7°C | 52.7% | 450.3hPa | 2.6V | 07:54:00 | 02:46:48 | 00:00:00 | |
| DF7PN | 2026-09-03 13:04:40 | 50.65065 | 9.09876 | 123° | 111km/h | 6634m | -6.0m/s | -16.8°C | 49.3% | 449.9hPa | 2.6V | 00:00:00 | 00:00:00 | 00:00:00 | |
| DD1CC3-15 | 2026-09-03 13:04:37 | 50.65096 | 9.09800 | 124° | 113km/h | 6646m | -5.8m/s | -16.8°C | 49.6% | 449.2hPa | 2.6V | 07:54:00 | 00:00:00 | 00:00:00 | |
| DM0DOS-11 | 2026-09-03 13:04:35 | 50.65160 | 9.09647 | 123° | 117km/h | 6670m | -6m/s | -17°C | 55% | 447.8hPa | 2.6V | 07:54:22 | 02:46:41 | 00:00:00 | |
| BIOWL1-15 | 2026-09-03 13:04:35 | 50.65144 | 9.09686 | 123° | 115km/h | 6664m | -5.9m/s | -16.9°C | 53.9% | 448.1hPa | 2.6V | 07:54:27 | 02:46:42 | 00:00:00 | |
| HSKMA3-T | 2026-09-03 13:04:32 | 50.65193 | 9.09569 | 123° | 117km/h | 6682m | -6m/s | -17°C | 54.6% | 447.1hPa | 2.6V | 07:54:27 | 02:46:39 | 00:00:00 | |
| DJ8HS-15 | 2026-09-03 13:04:30 | 50.65225 | 9.09490 | 123° | 120km/h | 6693m | -5.8m/s | -17.1°C | 55.6% | 446.3hPa | 2.6V | 00:00:00 | 02:46:37 | 00:00:00 | |
| DM0DOS-11 | 2026-09-03 13:04:29 | 50.65324 | 9.09250 | 123° | 120km/h | 6728m | -5.9m/s | -17.2°C | 58.5% | 444.3hPa | 2.6V | 07:54:32 | 02:46:31 | 00:00:00 | |
| BIOWL1-15 | 2026-09-03 13:04:24 | 50.65374 | 9.09130 | 123° | 122km/h | 6746m | -6.1m/s | -17.3°C | 58.1% | 443.2hPa | 2.6V | 07:55:18 | 02:46:28 | 00:00:00 | |
| HSKMA3-T | 2026-09-03 13:04:22 | 50.65357 | 9.09170 | 123° | 120km/h | 6740m | -5.9m/s | -17.3°C | 57.8% | 443.6hPa | 2.6V | 07:55:18 | 02:46:29 | 00:00:00 | |
| DL8OAI-8 | 2026-09-03 13:04:20 | 50.65374 | 9.09130 | 124° | 122km/h | 6746m | -6.1m/s | -17.3°C | 55.3% | 443.2hPa | 2.6V | 07:55:00 | 00:00:00 | 00:00:00 | |
| DO3DL | 2026-09-03 13:04:17 | 50.65424 | 9.09008 | 124° | 122km/h | 6764m | -6.0m/s | -17.3°C | 57.0% | 442.2hPa | 2.6V | 07:55:00 | 00:00:00 | 00:00:00 | |
| DM0DOS-11 | 2026-09-03 13:04:16 | 50.65491 | 9.08843 | 122° | 122km/h | 6787m | -5.7m/s | -17.3°C | 64.9% | 440.8hPa | 2.6V | 07:54:42 | 02:46:21 | 00:00:00 | |
| BIOWL1-15 | 2026-09-03 13:04:12 | 50.65524 | 9.08760 | 122° | 124km/h | 6799m | -5.8m/s | -17.4°C | 64.5% | 440.1hPa | 2.6V | 07:55:18 | 02:46:19 | 00:00:00 | |
| HSKMA3-T | 2026-09-03 13:04:11 | 50.65541 | 9.08719 | 123° | 124km/h | 6805m | -5.7m/s | -17.5°C | 64.7% | 439.8hPa | 2.6V | 07:55:18 | 02:46:18 | 00:00:00 | |
| BIOWL1-15 | 2026-09-03 13:04:01 | 50.65714 | 9.08302 | 123° | 124km/h | 6862m | -5.8m/s | -17.8°C | 66.6% | 436.4hPa | 2.6V | 07:55:18 | 02:46:08 | 00:00:00 | |
| DL8OAI-8 | 2026-09-03 13:03:59 | 50.65731 | 9.08260 | 124° | 124km/h | 6868m | -5.8m/s | -17.8°C | 63.9% | 436.0hPa | 2.6V | 07:55:00 | 00:00:00 | 00:00:00 | |
| DL1NUX | 2026-09-03 13:03:58 | 50.65798 | 9.08093 | 122° | 124km/h | 6891m | -5.8m/s | -18°C | 72.5% | 434.8hPa | 2.6V | 07:55:00 | 02:46:03 | 00:00:00 | |
| DJ2KF-10 | 2026-09-03 13:03:57 | 50.65781 | 9.08135 | 123° | 124km/h | 6885m | -5.7m/s | -17.9°C | 71.7% | 435.1hPa | 2.6V | 00:00:00 | 02:46:04 | 00:00:00 | |
| DD1CC3-15 | 2026-09-03 13:03:56 | 50.65781 | 9.08135 | 123° | 124km/h | 6885m | -5.7m/s | -18.0°C | 66.8% | 435.1hPa | 2.6V | 07:55:00 | 00:00:00 | 00:00:00 | |
| DM0DOS-11 | 2026-09-03 13:03:55 | 50.65832 | 9.08009 | 122° | 126km/h | 6902m | -5.8m/s | -18.1°C | 73.4% | 434hPa | 2.6V | 07:55:02 | 02:46:01 | 00:00:00 | |
| HSKMA3-T | 2026-09-03 13:03:51 | 50.65883 | 9.07883 | 122° | 126km/h | 6919m | -5.7m/s | -18.2°C | 72% | 433.1hPa | 2.6V | 07:55:18 | 02:45:58 | 00:00:00 | |
| BIOWL1-15 | 2026-09-03 13:03:50 | 50.65917 | 9.07799 | 123° | 124km/h | 6931m | -5.7m/s | -18.3°C | 72.1% | 432.4hPa | 2.5V | 07:55:18 | 02:45:56 | 00:00:00 | |
| DJ8HS-15 | 2026-09-03 13:03:50 | 50.65900 | 9.07841 | 123° | 124km/h | 6925m | -5.7m/s | -18.2°C | 75.7% | 432.7hPa | 2.6V | 00:00:00 | 02:45:57 | 00:00:00 | |
| DM0DOS-11 | 2026-09-03 13:03:49 | 50.66002 | 9.07591 | 122° | 124km/h | 6959m | -5.7m/s | -18.4°C | 69.5% | 430.8hPa | 2.5V | 07:55:12 | 02:45:51 | 00:00:00 | |
| DL1NUX | 2026-09-03 13:03:48 | 50.65968 | 9.07674 | 122° | 124km/h | 6948m | -5.8m/s | -18.4°C | 69.9% | 431.4hPa | 2.6V | 07:55:10 | 02:45:53 | 00:00:00 | |
| HSKMA3-T | 2026-09-03 13:03:40 | 50.66071 | 9.07425 | 123° | 124km/h | 6982m | -5.7m/s | -18.6°C | 68.9% | 429.4hPa | 2.6V | 07:55:18 | 02:45:47 | 00:00:00 | |
| BIOWL1-15 | 2026-09-03 13:03:38 | 50.66106 | 9.07342 | 124° | 124km/h | 6994m | -5.6m/s | -18.7°C | 68.2% | 428.8hPa | 2.5V | 07:55:18 | 02:45:45 | 00:00:00 | |
| DL1NUX | 2026-09-03 13:03:37 | 50.66141 | 9.07259 | 123° | 124km/h | 7005m | -5.7m/s | -18.7°C | 71.9% | 428.2hPa | 2.6V | 07:55:20 | 02:45:43 | 00:00:00 | |
| DO3DL | 2026-09-03 13:03:36 | 50.66123 | 9.07301 | 124° | 124km/h | 6999m | -5.6m/s | -18.7°C | 66.6% | 428.4hPa | 2.6V | 07:56:00 | 00:00:00 | 00:00:00 | |
| DM0DOS-11 | 2026-09-03 13:03:35 | 50.66175 | 9.07176 | 123° | 124km/h | 7016m | -5.7m/s | -18.9°C | 73.4% | 427.4hPa | 2.6V | 07:55:22 | 02:45:41 | 00:00:00 | |
| DO9LL-15 | 2026-09-03 13:03:35 | 50.66158 | 9.07218 | 123° | 126km/h | 7010m | -5.7m/s | -18.7°C | 72.8% | 427.7hPa | 2.6V | 00:00:00 | 02:45:42 | 00:00:00 | |
| DB0UT-7 | 2026-09-03 13:03:33 | 50.66192 | 9.07134 | 123° | 126km/h | 7022m | -5.5m/s | -18.8°C | 73.7% | 427.1hPa | 2.5V | 00:00:00 | 02:45:40 | 00:00:00 | |
| DL1NUX | 2026-09-03 13:03:31 | 50.66313 | 9.06843 | 123° | 124km/h | 7061m | -5.7m/s | -19.2°C | 75.9% | 424.9hPa | 2.5V | 07:55:30 | 02:45:33 | 00:00:00 | |
| HSKMA3-T | 2026-09-03 13:03:30 | 50.66244 | 9.07009 | 123° | 126km/h | 7038m | -5.5m/s | -19°C | 70.6% | 426.1hPa | 2.6V | 07:56:09 | 02:45:37 | 00:00:00 | |
| AU51GT2 | 2026-09-03 13:03:30 | 50.66296 | 9.06885 | 123° | 124km/h | 7055m | -5.7m/s | 0°C | -1.0% | -1.0hPa | 2.6V | 00:00:00 | 00:00:00 | 00:00:00 | |
| DM0DOS-11 | 2026-09-03 13:03:29 | 50.66347 | 9.06760 | 122° | 124km/h | 7072m | -5.6m/s | -19.3°C | 78.4% | 424.3hPa | 2.6V | 07:55:32 | 02:45:31 | 00:00:00 | |
| BIOWL1-15 | 2026-09-03 13:03:28 | 50.66278 | 9.06926 | 123° | 126km/h | 7049m | -5.8m/s | -19.1°C | 71.2% | 425.6hPa | 2.6V | 07:56:09 | 02:45:35 | 00:00:00 | |
| DL4BBY-15 | 2026-09-03 13:03:25 | 50.66330 | 9.06802 | 124° | 131km/h | 7066m | -5.5m/s | -21.6°C | 0% | 0hPa | 2.6V | 00:00:00 | 00:00:00 | 00:00:00 | |
| DL9SK-14 | 2026-09-03 13:03:24 | 50.66347 | 9.06760 | 122° | 124km/h | 7072m | -5.6m/s | -19.3°C | 72.8% | 424.3hPa | 2.6V | 00:00:00 | 00:00:00 | 00:00:00 | |
| DO3DL | 2026-09-03 13:03:23 | 50.66347 | 9.06760 | 124° | 124km/h | 7072m | -5.6m/s | -19.3°C | 72.8% | 424.3hPa | 2.6V | 07:56:00 | 00:00:00 | 00:00:00 | |
| DL8DAS-14 | 2026-09-03 13:03:22 | 50.66381 | 9.06677 | 122° | 122km/h | 7083m | -5.6m/s | -19.3°C | 71.3% | 423.6hPa | 2.6V | 00:00:00 | 00:00:00 | 00:00:00 | |
| DL1NUX | 2026-09-03 13:03:21 | 50.66483 | 9.06426 | 122° | 124km/h | 7116m | -5.7m/s | -19.5°C | 71.8% | 421.8hPa | 2.6V | 07:55:40 | 02:45:23 | 00:00:00 | |
| BIOWL1-15 | 2026-09-03 13:03:21 | 50.66450 | 9.06510 | 122° | 124km/h | 7105m | -5.7m/s | -19.4°C | 68.5% | 422.3hPa | 2.6V | 07:56:09 | 02:45:25 | 00:00:00 | |
| HSKMA3-T | 2026-09-03 13:03:21 | 50.66416 | 9.06594 | 122° | 124km/h | 7094m | -5.6m/s | -19.4°C | 68.8% | 422.9hPa | 2.5V | 07:56:09 | 02:45:27 | 00:00:00 | |
| DJ2KF-10 | 2026-09-03 13:03:20 | 50.66416 | 9.06594 | 123° | 128km/h | 7094m | -5.5m/s | -19.3°C | 72.4% | 422.9hPa | 2.6V | 07:55:00 | 02:45:27 | 00:00:00 | |
| DL8OAI-8 | 2026-09-03 13:03:18 | 50.66432 | 9.06552 | 124° | 126km/h | 7100m | -6.0m/s | -19.4°C | 67.0% | 422.7hPa | 2.6V | 07:56:00 | 00:00:00 | 00:00:00 | |
| DO3DL | 2026-09-03 13:03:17 | 50.66449 | 9.06510 | 123° | 124km/h | 7105m | -5.7m/s | -19.4°C | 66.8% | 422.3hPa | 2.6V | 07:56:00 | 00:00:00 | 00:00:00 | |
| DD1CC3-15 | 2026-09-03 13:03:14 | 50.66500 | 9.06384 | 123° | 126km/h | 7122m | -5.6m/s | -19.5°C | 65.9% | 421.5hPa | 2.6V | 07:56:00 | 00:00:00 | 00:00:00 | |
| DL1NUX | 2026-09-03 13:03:11 | 50.66653 | 9.06001 | 121° | 128km/h | 7173m | -5.7m/s | -19.8°C | 67% | 418.5hPa | 2.6V | 07:55:50 | 02:45:13 | 00:00:00 | |
| HSKMA3-T | 2026-09-03 13:03:10 | 50.66585 | 9.06173 | 122° | 126km/h | 7150m | -5.8m/s | -19.7°C | 65.7% | 419.8hPa | 2.6V | 07:56:09 | 02:45:17 | 00:00:00 | |
| BIOWL1-15 | 2026-09-03 13:03:08 | 50.66619 | 9.06087 | 122° | 128km/h | 7162m | -5.8m/s | -19.7°C | 64.7% | 419.1hPa | 2.5V | 07:56:09 | 02:45:15 | 00:00:00 | |
| DF7PN | 2026-09-03 13:03:07 | 50.66636 | 9.06044 | 121° | 126km/h | 7167m | -5.6m/s | -19.8°C | 62.3% | 418.8hPa | 2.5V | 00:00:00 | 00:00:00 | 00:00:00 | |
| DO9LL-15 | 2026-09-03 13:03:05 | 50.66670 | 9.05958 | 122° | 128km/h | 7179m | -5.6m/s | -19.8°C | 66.9% | 418.2hPa | 2.5V | 00:00:00 | 02:45:12 | 00:00:00 | |
| DB0UT-7 | 2026-09-03 13:03:03 | 50.66704 | 9.05872 | 122° | 128km/h | 7190m | -5.6m/s | -19.9°C | 67.1% | 417.6hPa | 2.5V | 00:00:00 | 00:00:00 | 00:00:00 | |
| NBG1-10 | 2026-09-03 13:03:02 | 50.66721 | 9.05829 | 122° | 128km/h | 7196m | -5.6m/s | -19.9°C | 66.9% | 417.3hPa | 2.5V | 07:55:00 | 02:45:09 | 00:00:00 | |
| DL1NUX | 2026-09-03 13:03:01 | 50.66821 | 9.05571 | 121° | 126km/h | 7229m | -5.7m/s | -20.2°C | 67.5% | 415.3hPa | 2.5V | 07:56:00 | 02:45:03 | 00:00:00 | |
| HSKMA3-T | 2026-09-03 13:02:59 | 50.66771 | 9.05700 | 122° | 128km/h | 7212m | -5.7m/s | -20.1°C | 64.8% | 416.4hPa | 2.6V | 07:56:09 | 02:45:06 | 00:00:00 | |
| BIOWL1-15 | 2026-09-03 13:02:57 | 50.66854 | 9.05484 | 121° | 126km/h | 7241m | -5.8m/s | -20.3°C | 64.8% | 414.8hPa | 2.6V | 07:56:09 | 02:45:01 | 00:00:00 | |
| DL9SK-14 | 2026-09-03 13:02:54 | 50.66871 | 9.05441 | 120° | 126km/h | 7246m | -5.5m/s | -20.3°C | 62.6% | 414.4hPa | 2.5V | 00:00:00 | 00:00:00 | 00:00:00 | |
| DL1NUX | 2026-09-03 13:02:51 | 50.66989 | 9.05136 | 121° | 128km/h | 7285m | -5.6m/s | -20.6°C | 68.8% | 412.3hPa | 2.5V | 07:56:10 | 02:44:53 | 00:00:00 | |
| HSKMA3-T | 2026-09-03 13:02:49 | 50.66938 | 9.05267 | 121° | 128km/h | 7268m | -5.6m/s | -20.5°C | 65% | 413.2hPa | 2.6V | 07:56:09 | 02:44:56 | 00:00:00 | |
| DM0DOS-11 | 2026-09-03 13:02:45 | 50.67023 | 9.05049 | 121° | 128km/h | 7296m | -5.5m/s | -20.7°C | 69.2% | 411.6hPa | 2.6V | 07:56:12 | 02:44:51 | 00:00:00 | |
| BIOWL1-15 | 2026-09-03 13:02:45 | 50.67040 | 9.05006 | 122° | 128km/h | 7301m | -5.6m/s | -20.7°C | 66.3% | 411.4hPa | 2.6V | 07:57:00 | 02:44:50 | 00:00:00 | |
| DO3DL | 2026-09-03 13:02:44 | 50.67006 | 9.05093 | 123° | 128km/h | 7291m | -5.5m/s | -20.6°C | 63.8% | 411.9hPa | 2.6V | 07:57:00 | 00:00:00 | 00:00:00 | |
| DL1NUX | 2026-09-03 13:02:41 | 50.67160 | 9.04700 | 122° | 130km/h | 7340m | -5.6m/s | -21°C | 73.6% | 409.1hPa | 2.6V | 07:56:20 | 02:44:43 | 00:00:00 | |
| HSKMA3-T | 2026-09-03 13:02:39 | 50.67108 | 9.04831 | 122° | 130km/h | 7324m | -5.8m/s | -20.8°C | 68% | 410hPa | 2.5V | 07:57:00 | 02:44:46 | 00:00:00 | |
| BIOWL1-15 | 2026-09-03 13:02:32 | 50.67231 | 9.04524 | 123° | 131km/h | 7363m | -5.4m/s | -21.2°C | 72% | 407.9hPa | 2.6V | 07:57:00 | 02:44:39 | 00:00:00 | |
| DL1NUX | 2026-09-03 13:02:31 | 50.67338 | 9.04260 | 122° | 131km/h | 7397m | -5.5m/s | -21.4°C | 78.6% | 406hPa | 2.5V | 07:56:30 | 02:44:33 | 00:00:00 | |
| HSKMA3-T | 2026-09-03 13:02:28 | 50.67302 | 9.04347 | 123° | 131km/h | 7386m | -5.8m/s | -21.4°C | 73.6% | 406.7hPa | 2.6V | 07:57:00 | 02:44:35 | 00:00:00 | |
| DJ2DS-15 | 2026-09-03 13:02:27 | 50.67320 | 9.04303 | 123° | 131km/h | 7391m | -5.6m/s | -21.4°C | 78.3% | 406.3hPa | 2.5V | 07:56:00 | 02:44:34 | 00:00:00 | |
| DM0DOS-11 | 2026-09-03 13:02:25 | 50.67374 | 9.04172 | 122° | 131km/h | 7408m | -5.8m/s | -21.6°C | 79.2% | 405.4hPa | 2.5V | 07:56:32 | 02:44:31 | 00:00:00 | |
| BIOWL1-15 | 2026-09-03 13:02:23 | 50.67464 | 9.03951 | 123° | 131km/h | 7436m | -5.5m/s | -21.7°C | 76.1% | 403.9hPa | 2.5V | 07:57:00 | 02:44:26 | 00:00:00 | |
| HSKMA3-T | 2026-09-03 13:02:17 | 50.67500 | 9.03862 | 123° | 131km/h | 7447m | -5.6m/s | -21.8°C | 75.8% | 403.3hPa | 2.6V | 07:57:00 | 02:44:24 | 00:00:00 | |
| DM0DOS-11 | 2026-09-03 13:02:15 | 50.67554 | 9.03730 | 122° | 131km/h | 7464m | -5.6m/s | -21.9°C | 79.4% | 402.4hPa | 2.6V | 07:56:42 | 02:44:21 | 00:00:00 | |
| BIOWL1-15 | 2026-09-03 13:02:11 | 50.67626 | 9.03553 | 122° | 133km/h | 7486m | -5.6m/s | -22.1°C | 72% | 401.1hPa | 2.5V | 07:57:00 | 02:44:17 | 00:00:00 | |
| DB0NH | 2026-09-03 13:02:11 | 50.67608 | 9.03597 | 123° | 135km/h | 7481m | -5.5m/s | -22.0°C | 76.4% | 401.4hPa | 2.5V | 00:00:00 | 02:44:18 | 00:00:00 | |
| DJ2DS-15 | 2026-09-03 13:02:10 | 50.67644 | 9.03508 | 121° | 131km/h | 7491m | -5.5m/s | -22.2°C | 70.5% | 400.8hPa | 2.5V | 00:00:00 | 00:00:00 | 00:00:00 | |
| DM0DOS-11 | 2026-09-03 13:02:09 | 50.67733 | 9.03283 | 122° | 133km/h | 7519m | -5.6m/s | -22.4°C | 77.1% | 399.2hPa | 2.5V | 07:56:52 | 02:44:11 | 00:00:00 | |
| HSKMA3-T | 2026-09-03 13:02:06 | 50.67697 | 9.03374 | 122° | 133km/h | 7508m | -5.7m/s | -22.3°C | 72.9% | 399.9hPa | 2.6V | 07:57:00 | 02:44:13 | 00:00:00 | |
| BIOWL1-15 | 2026-09-03 13:02:03 | 50.67787 | 9.03148 | 122° | 133km/h | 7536m | -5.7m/s | -22.6°C | 73% | 398.4hPa | 2.5V | 07:57:00 | 02:44:08 | 00:00:00 | |
| DB0UT-7 | 2026-09-03 13:02:03 | 50.67751 | 9.03238 | 123° | 137km/h | 7525m | -5.5m/s | -22.4°C | 76.8% | 399.0hPa | 2.5V | 00:00:00 | 00:00:00 | 00:00:00 | |
| DL3AQ-11 | 2026-09-03 13:02:02 | 50.67787 | 9.03148 | 121° | 133km/h | 7536m | -5.7m/s | -22.6°C | 70.5% | 398.4hPa | 2.5V | 00:00:00 | 00:00:00 | 00:00:00 | |
| DL1NUX | 2026-09-03 13:02:01 | 50.67877 | 9.02919 | 121° | 135km/h | 7564m | -5.5m/s | -22.7°C | 72.1% | 396.9hPa | 2.5V | 07:57:00 | 02:44:03 | 00:00:00 | |
| DO3DL | 2026-09-03 13:01:58 | 50.67823 | 9.03056 | 123° | 135km/h | 7547m | -5.6m/s | -22.7°C | 69.0% | 397.8hPa | 2.5V | 07:57:00 | 00:00:00 | 00:00:00 | |
| DO2KSM | 2026-09-03 13:01:57 | 50.67841 | 9.03011 | 123° | 135km/h | 7553m | -5.6m/s | -22.7°C | 66.7% | 397.5hPa | 2.5V | 07:57:00 | 00:00:00 | 00:00:00 | |
| DL8OAI-8 | 2026-09-03 13:01:56 | 50.67859 | 9.02965 | 123° | 137km/h | 7558m | -5.6m/s | -22.7°C | 66.3% | 397.2hPa | 2.5V | 07:57:00 | 00:00:00 | 00:00:00 | |
| DM0DOS-11 | 2026-09-03 13:01:55 | 50.67913 | 9.02826 | 121° | 135km/h | 7575m | -5.6m/s | -22.8°C | 73.7% | 396.3hPa | 2.5V | 07:57:02 | 02:44:01 | 00:00:00 | |
| HSKMA3-T | 2026-09-03 13:01:55 | 50.67895 | 9.02873 | 122° | 137km/h | 7569m | -5.5m/s | -22.8°C | 69.3% | 396.6hPa | 2.5V | 07:57:51 | 02:44:02 | 00:00:00 | |
| DB0ND-19 | 2026-09-03 13:01:53 | 50.67931 | 9.02780 | 121° | 137km/h | 7581m | -5.7m/s | -22.8°C | 68.6% | 396.1hPa | 2.6V | 00:00:00 | 00:00:00 | 00:00:00 | |
| DL1NUX | 2026-09-03 13:01:51 | 50.68061 | 9.02458 | 122° | 137km/h | 7620m | -5.7m/s | -23.1°C | 76.7% | 393.9hPa | 2.6V | 07:57:10 | 02:43:53 | 00:00:00 | |
| BIOWL1-15 | 2026-09-03 13:01:51 | 50.67968 | 9.02688 | 123° | 137km/h | 7592m | -5.4m/s | -22.9°C | 71.9% | 395.4hPa | 2.6V | 07:57:51 | 02:43:58 | 00:00:00 | |
| HSKMA3-T | 2026-09-03 13:01:45 | 50.68080 | 9.02412 | 122° | 139km/h | 7625m | -5.7m/s | -23.2°C | 73.3% | 393.6hPa | 2.6V | 07:57:51 | 02:43:52 | 00:00:00 | |
| DJ2DS-15 | 2026-09-03 13:01:44 | 50.68099 | 9.02366 | 123° | 139km/h | 7631m | -5.6m/s | -23.2°C | 77.3% | 393.2hPa | 2.5V | 00:00:00 | 02:43:51 | 00:00:00 | |
| SONCRA | 2026-09-03 13:01:43 | 50.68154 | 9.02226 | 121° | 137km/h | 7648m | -5.6m/s | -23.4°C | 71.9% | 392.4hPa | 2.5V | 00:00:00 | 00:00:00 | 00:00:00 | |
| DL1NUX | 2026-09-03 13:01:41 | 50.68246 | 9.01993 | 122° | 137km/h | 7675m | -5.7m/s | -23.6°C | 76.4% | 390.9hPa | 2.5V | 07:57:20 | 02:43:43 | 00:00:00 | |
| BIOWL1-15 | 2026-09-03 13:01:40 | 50.68173 | 9.02179 | 122° | 139km/h | 7654m | -5.7m/s | -23.5°C | 74.5% | 392.1hPa | 2.5V | 07:57:51 | 02:43:47 | 00:00:00 | |
| HSKMA3-T | 2026-09-03 13:01:34 | 50.68283 | 9.01900 | 122° | 137km/h | 7687m | -5.8m/s | -23.7°C | 70.8% | 390.3hPa | 2.6V | 07:57:51 | 02:43:41 | 00:00:00 | |
| BIOWL1-15 | 2026-09-03 13:01:31 | 50.68375 | 9.01670 | 122° | 137km/h | 7715m | -5.8m/s | -23.8°C | 61.2% | 388.7hPa | 2.5V | 07:57:51 | 02:43:36 | 00:00:00 | |
| DJ8HS-15 | 2026-09-03 13:01:30 | 50.68356 | 9.01716 | 122° | 135km/h | 7710m | -5.6m/s | -23.7°C | 64.8% | 389.0hPa | 2.6V | 00:00:00 | 02:43:37 | 00:00:00 | |
| DL1NUX | 2026-09-03 13:01:29 | 50.68430 | 9.01532 | 121° | 135km/h | 7732m | -5.7m/s | -23.9°C | 56.9% | 387.8hPa | 2.6V | 07:57:30 | 02:43:33 | 00:00:00 | |
| DM0DOS-11 | 2026-09-03 13:01:24 | 50.68466 | 9.01441 | 121° | 135km/h | 7744m | -5.8m/s | -23.9°C | 55.1% | 387.2hPa | 2.5V | 07:57:32 | 02:43:31 | 00:00:00 | |
| HSKMA3-T | 2026-09-03 13:01:23 | 50.68484 | 9.01395 | 122° | 135km/h | 7750m | -5.8m/s | -24°C | 54% | 386.9hPa | 2.5V | 07:57:51 | 02:43:30 | 00:00:00 | |
| NBG1-10 | 2026-09-03 13:01:23 | 50.68484 | 9.01395 | 122° | 133km/h | 7750m | -5.7m/s | -23.9°C | 54.5% | 386.9hPa | 2.6V | 00:00:00 | 02:43:30 | 00:00:00 | |
| DB0ND-19 | 2026-09-03 13:01:22 | 50.68521 | 9.01303 | 121° | 135km/h | 7761m | -5.7m/s | -24.1°C | 48.3% | 386.3hPa | 2.6V | 00:00:00 | 00:00:00 | 00:00:00 | |
| DL3AQ-11 | 2026-09-03 13:01:21 | 50.68521 | 9.01303 | 121° | 135km/h | 7761m | -5.7m/s | -24.1°C | 48.3% | 386.3hPa | 2.6V | 00:00:00 | 00:00:00 | 00:00:00 | |
| DL9SK-14 | 2026-09-03 13:01:20 | 50.68539 | 9.01258 | 121° | 133km/h | 7767m | -6.0m/s | -24.2°C | 47.3% | 386.0hPa | 2.6V | 00:00:00 | 00:00:00 | 00:00:00 | |
| DM0DOS-11 | 2026-09-03 13:01:19 | 50.68647 | 9.00984 | 122° | 135km/h | 7802m | -5.8m/s | -24.4°C | 49.2% | 384.1hPa | 2.6V | 07:57:42 | 02:43:21 | 00:00:00 | |
| DL1NUX | 2026-09-03 13:01:19 | 50.68611 | 9.01075 | 122° | 135km/h | 7790m | -5.8m/s | -24.3°C | 49.4% | 384.8hPa | 2.6V | 07:57:40 | 02:43:23 | 00:00:00 | |
| BIOWL1-15 | 2026-09-03 13:01:19 | 50.68557 | 9.01212 | 122° | 135km/h | 7773m | -5.9m/s | -24.2°C | 51.1% | 385.6hPa | 2.5V | 07:57:51 | 02:43:26 | 00:00:00 | |
| BIOWL1-15 | 2026-09-03 13:01:14 | 50.68759 | 9.00714 | 123° | 135km/h | 7836m | -5.9m/s | -24.8°C | 48.8% | 382.3hPa | 2.6V | 07:57:51 | 02:43:15 | 00:00:00 | |
| HSKMA3-T | 2026-09-03 13:01:13 | 50.68665 | 9.00939 | 123° | 135km/h | 7808m | -5.8m/s | -24.4°C | 49.1% | 383.9hPa | 2.5V | 07:57:51 | 02:43:20 | 00:00:00 | |
| DO3DL | 2026-09-03 13:01:12 | 50.68665 | 9.00939 | 124° | 135km/h | 7808m | -5.8m/s | -24.4°C | 44.8% | 383.9hPa | 2.6V | 07:57:00 | 00:00:00 | 00:00:00 | |
| DB0NH | 2026-09-03 13:01:11 | 50.68703 | 9.00849 | 124° | 133km/h | 7819m | -5.8m/s | -24.6°C | 49.4% | 383.2hPa | 2.6V | 00:00:00 | 02:43:18 | 00:00:00 | |
| DJ8HS-15 | 2026-09-03 13:01:10 | 50.68721 | 9.00803 | 124° | 133km/h | 7825m | -5.6m/s | -24.6°C | 48.9% | 382.8hPa | 2.6V | 00:00:00 | 02:43:17 | 00:00:00 | |
| DJ2KF-10 | 2026-09-03 13:01:08 | 50.68758 | 9.00714 | 123° | 133km/h | 7836m | -5.8m/s | -24.7°C | 48.9% | 382.3hPa | 2.6V | 00:00:00 | 02:43:15 | 00:00:00 | |
| DM0DOS-11 | 2026-09-03 13:01:05 | 50.68832 | 9.00535 | 122° | 133km/h | 7859m | -5.8m/s | -24.9°C | 49.1% | 381.1hPa | 2.6V | 07:57:52 | 02:43:11 | 00:00:00 | |
| HSKMA3-T | 2026-09-03 13:01:02 | 50.68868 | 9.00446 | 123° | 133km/h | 7871m | -5.9m/s | -25.1°C | 49.1% | 380.5hPa | 2.5V | 07:58:42 | 02:43:09 | 00:00:00 | |
| BIOWL1-15 | 2026-09-03 13:00:57 | 50.69015 | 9.00091 | 124° | 131km/h | 7918m | -5.9m/s | -25.5°C | 44.2% | 378hPa | 2.5V | 07:58:42 | 02:43:01 | 00:00:00 | |
| DM0DOS-11 | 2026-09-03 13:00:55 | 50.69015 | 9.00091 | 123° | 131km/h | 7918m | -5.9m/s | -25.4°C | 43.5% | 378hPa | 2.5V | 07:58:02 | 02:43:01 | 00:00:00 | |
| BUE01 | 2026-09-03 13:00:55 | 50.69015 | 9.00091 | 123° | 131km/h | 7918m | -5.9m/s | -25.5°C | 39.3% | 378.0hPa | 2.5V | 00:00:00 | 00:00:00 | 00:00:00 | |
| DL3AQ-11 | 2026-09-03 13:00:53 | 50.69052 | 9.00004 | 124° | 131km/h | 7931m | -6.1m/s | -25.5°C | 37.1% | 377.4hPa | 2.5V | 00:00:00 | 00:00:00 | 00:00:00 | |
| DL1NUX | 2026-09-03 13:00:51 | 50.69165 | 8.99743 | 124° | 133km/h | 7966m | -5.9m/s | -25.7°C | 35.3% | 375.5hPa | 2.5V | 07:58:10 | 02:42:53 | 00:00:00 | |
| HSKMA3-T | 2026-09-03 13:00:51 | 50.69071 | 8.99961 | 124° | 131km/h | 7937m | -6.1m/s | -25.6°C | 41.4% | 377.1hPa | 2.5V | 07:58:42 | 02:42:58 | 00:00:00 | |
| DL9SK-14 | 2026-09-03 13:00:49 | 50.69127 | 8.99830 | 124° | 131km/h | 7954m | -6.2m/s | -25.6°C | 33.5% | 376.2hPa | 2.6V | 00:00:00 | 00:00:00 | 00:00:00 | |
| BIOWL1-15 | 2026-09-03 13:00:47 | 50.69203 | 8.99655 | 124° | 133km/h | 7978m | -6m/s | -25.8°C | 37% | 374.9hPa | 2.6V | 07:58:42 | 02:42:51 | 00:00:00 | |
| DM0DOS-11 | 2026-09-03 13:00:45 | 50.69203 | 8.99655 | 124° | 133km/h | 7978m | -6m/s | -25.8°C | 35.7% | 374.9hPa | 2.6V | 07:58:12 | 02:42:51 | 00:00:00 | |
| DD1CC8 | 2026-09-03 13:00:45 | 50.69184 | 8.99699 | 124° | 131km/h | 7972m | -6.0m/s | -25.7°C | 31.6% | 375.2hPa | 2.6V | 00:00:00 | 00:00:00 | 00:00:00 | |
| HSKMA3-T | 2026-09-03 13:00:41 | 50.69260 | 8.99525 | 125° | 133km/h | 7996m | -6.1m/s | -25.9°C | 39% | 373.9hPa | 2.6V | 07:58:42 | 02:42:48 | 00:00:00 | |
| DL1NUX | 2026-09-03 13:00:41 | 50.69355 | 8.99309 | 125° | 131km/h | 8026m | -6.1m/s | -26.1°C | 39.7% | 372.5hPa | 2.6V | 07:58:20 | 02:42:43 | 00:00:00 | |
| DB0DAN | 2026-09-03 13:00:40 | 50.69279 | 8.99481 | 125° | 126km/h | 8002m | -6.2m/s | -25.9°C | 34.4% | 373.7hPa | 2.6V | 00:00:00 | 00:00:00 | 00:00:00 | |
| BIOWL1-15 | 2026-09-03 13:00:36 | 50.69413 | 8.99181 | 126° | 131km/h | 8044m | -5.8m/s | -26.3°C | 41.8% | 371.5hPa | 2.6V | 07:58:42 | 02:42:40 | 00:00:00 | |
| DM0DOS-11 | 2026-09-03 13:00:35 | 50.69394 | 8.99224 | 125° | 131km/h | 8038m | -6m/s | -26.2°C | 40.5% | 371.9hPa | 2.5V | 07:58:22 | 02:42:41 | 00:00:00 | |
| DO9LL-15 | 2026-09-03 13:00:35 | 50.69375 | 8.99266 | 126° | 131km/h | 8033m | -6.1m/s | -26.2°C | 40.1% | 372.1hPa | 2.5V | 00:00:00 | 02:42:42 | 00:00:00 | |
| DO2KSM | 2026-09-03 13:00:34 | 50.69374 | 8.99266 | 126° | 131km/h | 8033m | -6.1m/s | -26.2°C | 36.1% | 372.2hPa | 2.5V | 07:58:00 | 00:00:00 | 00:00:00 | |
| DB0UT-7 | 2026-09-03 13:00:33 | 50.69413 | 8.99181 | 126° | 131km/h | 8045m | -5.8m/s | -26.2°C | 40.9% | 371.4hPa | 2.5V | 00:00:00 | 02:42:40 | 00:00:00 | |
| DL3OBA | 2026-09-03 13:00:32 | 50.69433 | 8.99138 | 127° | 131km/h | 8050m | -5.9m/s | -26.3°C | 36.9% | 371.2hPa | 2.5V | 07:58:00 | 00:00:00 | 00:00:00 | |
| DL1NUX | 2026-09-03 13:00:31 | 50.69550 | 8.98882 | 125° | 131km/h | 8086m | -6m/s | -26.7°C | 42.1% | 369.3hPa | 2.5V | 07:58:30 | 02:42:33 | 00:00:00 | |
| HSKMA3-T | 2026-09-03 13:00:30 | 50.69472 | 8.99053 | 126° | 131km/h | 8062m | -6m/s | -26.5°C | 42.5% | 370.7hPa | 2.5V | 07:58:42 | 02:42:37 | 00:00:00 | |
| DJ8HS-15 | 2026-09-03 13:00:30 | 50.69471 | 8.99053 | 126° | 131km/h | 8062m | -5.9m/s | -26.4°C | 41.4% | 370.6hPa | 2.6V | 00:00:00 | 02:42:37 | 00:00:00 | |
| DD1CC3-15 | 2026-09-03 13:00:29 | 50.69472 | 8.99053 | 127° | 131km/h | 8062m | -6.0m/s | -26.5°C | 37.3% | 370.7hPa | 2.6V | 07:58:00 | 00:00:00 | 00:00:00 | |
| DO3DL | 2026-09-03 13:00:26 | 50.69530 | 8.98925 | 127° | 131km/h | 8080m | -5.9m/s | -26.6°C | 37.8% | 369.7hPa | 2.6V | 07:58:00 | 00:00:00 | 00:00:00 | |
| DM0DOS-11 | 2026-09-03 13:00:25 | 50.69588 | 8.98797 | 125° | 131km/h | 8098m | -6m/s | -26.8°C | 42.3% | 368.7hPa | 2.6V | 07:58:32 | 02:42:31 | 00:00:00 | |
| DB0DAN | 2026-09-03 13:00:25 | 50.69569 | 8.98840 | 125° | 126km/h | 8092m | -6.2m/s | -26.8°C | 37.9% | 368.99hPa | 2.6V | 00:00:00 | 00:00:00 | 00:00:00 | |
| BIOWL1-15 | 2026-09-03 13:00:24 | 50.69608 | 8.98754 | 126° | 131km/h | 8104m | -6m/s | -26.9°C | 42.7% | 368.4hPa | 2.5V | 07:58:42 | 02:42:30 | 00:00:00 | |
| DJ2DS-15 | 2026-09-03 13:00:24 | 50.69588 | 8.98797 | 126° | 131km/h | 8099m | -5.9m/s | -26.8°C | 42.3% | 368.7hPa | 2.6V | 00:00:00 | 02:42:31 | 00:00:00 | |
| DO3MHA-11 | 2026-09-03 13:00:22 | 50.69627 | 8.98711 | 126° | 131km/h | 8110m | -6.1m/s | -26.8°C | 42.4% | 368.0hPa | 2.6V | 07:58:00 | 02:42:29 | 00:00:00 | |
| DL1NUX | 2026-09-03 13:00:21 | 50.69748 | 8.98459 | 128° | 131km/h | 8146m | -6m/s | -27.2°C | 43% | 366.3hPa | 2.6V | 07:58:40 | 02:42:23 | 00:00:00 | |
| HSKMA3-T | 2026-09-03 13:00:20 | 50.69667 | 8.98626 | 126° | 133km/h | 8122m | -5.7m/s | -27°C | 43.1% | 367.5hPa | 2.6V | 07:58:42 | 02:42:27 | 00:00:00 | |
| BIOWL1-15 | 2026-09-03 13:00:14 | 50.69789 | 8.98377 | 129° | 130km/h | 8159m | -6.3m/s | -27.4°C | 43.7% | 365.7hPa | 2.5V | 07:58:42 | 02:42:21 | 00:00:00 | |
| DO2KSM | 2026-09-03 13:00:13 | 50.69789 | 8.98377 | 130° | 130km/h | 8159m | -6.3m/s | -27.4°C | 38.8% | 365.7hPa | 2.6V | 07:58:00 | 00:00:00 | 00:00:00 | |
| DO3MHA-11 | 2026-09-03 13:00:12 | 50.69830 | 8.98296 | 130° | 131km/h | 8171m | -6.0m/s | -27.4°C | 43.0% | 365.0hPa | 2.6V | 00:00:00 | 02:42:19 | 00:00:00 | |
| DL1NUX | 2026-09-03 13:00:11 | 50.69958 | 8.98055 | 130° | 131km/h | 8208m | -6.5m/s | -27.8°C | 41.3% | 363.1hPa | 2.6V | 07:58:50 | 02:42:13 | 00:00:00 | |
| HSKMA3-T | 2026-09-03 13:00:10 | 50.69872 | 8.98216 | 130° | 131km/h | 8183m | -6.5m/s | -27.6°C | 43.4% | 364.4hPa | 2.6V | 07:59:33 | 02:42:17 | 00:00:00 | |
| BIOWL1-15 | 2026-09-03 13:00:03 | 50.70023 | 8.97937 | 131° | 130km/h | 8227m | -6.5m/s | -27.9°C | 42% | 362.1hPa | 2.5V | 07:59:33 | 02:42:10 | 00:00:00 | |
| DO3MHA-11 | 2026-09-03 13:00:02 | 50.70044 | 8.97898 | 132° | 131km/h | 8234m | -6.2m/s | -27.8°C | 40.5% | 361.7hPa | 2.5V | 00:00:00 | 02:42:09 | 00:00:00 | |
| DL1NUX | 2026-09-03 13:00:01 | 50.70177 | 8.97665 | 131° | 133km/h | 8273m | -6.5m/s | -28.1°C | 42% | 359.8hPa | 2.5V | 07:59:00 | 02:42:03 | 00:00:00 | |
| HSKMA3-T | 2026-09-03 12:59:59 | 50.70110 | 8.97783 | 132° | 130km/h | 8253m | -6.7m/s | -28°C | 42.1% | 360.8hPa | 2.6V | 07:59:33 | 02:42:06 | 00:00:00 | |
| BIOWL1-15 | 2026-09-03 12:59:53 | 50.70244 | 8.97546 | 132° | 133km/h | 8293m | -6.3m/s | -28.2°C | 44.4% | 358.9hPa | 2.6V | 07:59:33 | 02:42:00 | 00:00:00 | |
| HSKMA3-T | 2026-09-03 12:59:49 | 50.70335 | 8.97390 | 133° | 133km/h | 8319m | -6.4m/s | -28.5°C | 44.8% | 357.6hPa | 2.5V | 07:59:33 | 02:41:56 | 00:00:00 | |
| DL9SK-14 | 2026-09-03 12:59:47 | 50.70381 | 8.97313 | 133° | 133km/h | 8331m | -6.5m/s | -28.6°C | 39.5% | 356.9hPa | 2.5V | 00:00:00 | 00:00:00 | 00:00:00 | |
| DL3AQ-11 | 2026-09-03 12:59:45 | 50.70428 | 8.97236 | 133° | 133km/h | 8345m | -6.6m/s | -28.8°C | 40.2% | 356.2hPa | 2.5V | 00:00:00 | 00:00:00 | 00:00:00 | |
| BIOWL1-15 | 2026-09-03 12:59:44 | 50.70498 | 8.97120 | 133° | 133km/h | 8364m | -6.3m/s | -28.9°C | 46.9% | 355.3hPa | 2.5V | 07:59:33 | 02:41:49 | 00:00:00 | |
| NBG1-10 | 2026-09-03 12:59:44 | 50.70451 | 8.97197 | 134° | 133km/h | 8351m | -6.6m/s | -28.7°C | 45.2% | 355.9hPa | 2.5V | 00:00:00 | 02:41:51 | 00:00:00 | |
| DD1CC8 | 2026-09-03 12:59:43 | 50.70475 | 8.97159 | 133° | 133km/h | 8357m | -6.4m/s | -28.9°C | 40.8% | 355.6hPa | 2.5V | 00:00:00 | 00:00:00 | 00:00:00 | |
| DL1NUX | 2026-09-03 12:59:41 | 50.70636 | 8.96886 | 132° | 133km/h | 8403m | -6.7m/s | -29.3°C | 47.6% | 353.2hPa | 2.5V | 07:59:20 | 02:41:43 | 00:00:00 | |
| DB0NH | 2026-09-03 12:59:41 | 50.70521 | 8.97082 | 134° | 133km/h | 8370m | -6.4m/s | -29.0°C | 46.4% | 354.9hPa | 2.5V | 00:00:00 | 02:41:48 | 00:00:00 | |
| DJ2DS-15 | 2026-09-03 12:59:40 | 50.70544 | 8.97043 | 133° | 133km/h | 8377m | -6.5m/s | -29.0°C | 47.0% | 354.7hPa | 2.5V | 00:00:00 | 02:41:47 | 00:00:00 | |
| DM0DOS-11 | 2026-09-03 12:59:39 | 50.70681 | 8.96808 | 133° | 133km/h | 8417m | -6.5m/s | -29.4°C | 48.7% | 352.6hPa | 2.5V | 07:59:22 | 02:41:41 | 00:00:00 | |
| DL1XH-west | 2026-09-03 12:59:39 | 50.70567 | 8.97004 | 133° | 133km/h | 8383m | -6.8m/s | -29.2°C | 48.2% | 354.3hPa | 2.6V | 07:59:33 | 02:41:46 | 00:00:00 | |
| HSKMA3-T | 2026-09-03 12:59:38 | 50.70590 | 8.96965 | 133° | 133km/h | 8390m | -6.7m/s | -29.2°C | 48.4% | 354hPa | 2.6V | 07:59:33 | 02:41:45 | 00:00:00 | |
| DJ2KF-10 | 2026-09-03 12:59:38 | 50.70590 | 8.96965 | 133° | 135km/h | 8390m | -6.6m/s | -29.1°C | 47.6% | 353.9hPa | 2.6V | 00:00:00 | 02:41:45 | 00:00:00 | |
| DO9LL-15 | 2026-09-03 12:59:35 | 50.70658 | 8.96847 | 133° | 135km/h | 8410m | -6.8m/s | -29.4°C | 47.9% | 352.9hPa | 2.6V | 00:00:00 | 02:41:42 | 00:00:00 | |
| DO3DL | 2026-09-03 12:59:34 | 50.70658 | 8.96847 | 133° | 133km/h | 8410m | -6.9m/s | -29.4°C | 42.8% | 353.0hPa | 2.6V | 07:59:00 | 00:00:00 | 00:00:00 | |
| DB0UT-7 | 2026-09-03 12:59:33 | 50.70705 | 8.96769 | 134° | 135km/h | 8423m | -6.2m/s | -29.4°C | 49.0% | 352.2hPa | 2.6V | 00:00:00 | 02:41:40 | 00:00:00 | |
| DO2KSM | 2026-09-03 12:59:32 | 50.70705 | 8.96769 | 134° | 133km/h | 8423m | -6.2m/s | -29.5°C | 43.7% | 352.3hPa | 2.6V | 07:59:00 | 00:00:00 | 00:00:00 | |
| DL1NUX | 2026-09-03 12:59:31 | 50.70868 | 8.96504 | 133° | 133km/h | 8468m | -6.4m/s | -29.9°C | 51.5% | 350.1hPa | 2.6V | 07:59:30 | 02:41:33 | 00:00:00 | |
| BIOWL1-15 | 2026-09-03 12:59:31 | 50.70751 | 8.96693 | 134° | 131km/h | 8436m | -6.5m/s | -29.6°C | 49% | 351.7hPa | 2.6V | 07:59:33 | 02:41:38 | 00:00:00 | |
| DL1XH-west | 2026-09-03 12:59:29 | 50.70797 | 8.96617 | 134° | 131km/h | 8448m | -6.6m/s | -29.7°C | 50.2% | 351hPa | 2.5V | 07:59:33 | 02:41:36 | 00:00:00 | |
| HSKMA3-T | 2026-09-03 12:59:27 | 50.70844 | 8.96542 | 134° | 133km/h | 8461m | -6.7m/s | -29.9°C | 51.4% | 350.4hPa | 2.6V | 07:59:33 | 02:41:34 | 00:00:00 | |
| DM0DOS-11 | 2026-09-03 12:59:26 | 50.70914 | 8.96426 | 133° | 135km/h | 8481m | -6.9m/s | -30.1°C | 52.1% | 349.5hPa | 2.5V | 07:59:32 | 02:41:31 | 00:00:00 | |
| SO1NDE-10 | 2026-09-03 12:59:25 | 50.70891 | 8.96465 | 134° | 135km/h | 8474m | -6.6m/s | -30.0°C | 51.3% | 349.7hPa | 2.5V | 00:00:00 | 02:41:32 | 00:00:00 | |
| DL3AQ-11 | 2026-09-03 12:59:22 | 50.70985 | 8.96310 | 134° | 135km/h | 8501m | -6.8m/s | -30.3°C | 48.3% | 348.5hPa | 2.6V | 00:00:00 | 00:00:00 | 00:00:00 | |
| DL1NUX | 2026-09-03 12:59:21 | 50.71106 | 8.96119 | 135° | 135km/h | 8535m | -6.5m/s | -30.6°C | 60.9% | 346.9hPa | 2.6V | 07:59:40 | 02:41:23 | 00:00:00 | |
| BIOWL1-15 | 2026-09-03 12:59:20 | 50.71058 | 8.96195 | 135° | 135km/h | 8522m | -6.7m/s | -30.5°C | 57.1% | 347.5hPa | 2.6V | 08:00:24 | 02:41:25 | 00:00:00 | |
| DM0DOS-11 | 2026-09-03 12:59:19 | 50.71155 | 8.96043 | 134° | 135km/h | 8548m | -6.2m/s | -30.7°C | 63.6% | 346.2hPa | 2.5V | 07:59:42 | 02:41:21 | 00:00:00 | |
| DL1XH-west | 2026-09-03 12:59:18 | 50.71082 | 8.96157 | 135° | 135km/h | 8528m | -6.5m/s | -30.5°C | 57.6% | 347.1hPa | 2.6V | 08:00:24 | 02:41:24 | 00:00:00 | |
| HSKMA3-T | 2026-09-03 12:59:17 | 50.71106 | 8.96119 | 135° | 135km/h | 8535m | -6.5m/s | -30.6°C | 59.5% | 346.9hPa | 2.6V | 08:00:24 | 02:41:23 | 00:00:00 | |
| DO3DL | 2026-09-03 12:59:16 | 50.71106 | 8.96119 | 136° | 135km/h | 8535m | -6.5m/s | -30.6°C | 54.5% | 346.9hPa | 2.6V | 08:00:00 | 00:00:00 | 00:00:00 | |
| DL8DAS-14 | 2026-09-03 12:59:14 | 50.71155 | 8.96043 | 134° | 135km/h | 8548m | -6.2m/s | -30.7°C | 56.9% | 346.2hPa | 2.6V | 00:00:00 | 00:00:00 | 00:00:00 | |
| DL8OAI-8 | 2026-09-03 12:59:13 | 50.71155 | 8.96042 | 136° | 135km/h | 8548m | -6.2m/s | -30.7°C | 57.0% | 346.2hPa | 2.6V | 08:00:00 | 00:00:00 | 00:00:00 | |
| DD1CC8 | 2026-09-03 12:59:12 | 50.71203 | 8.95966 | 134° | 133km/h | 8561m | -6.5m/s | -30.9°C | 57.6% | 345.6hPa | 2.6V | 00:00:00 | 00:00:00 | 00:00:00 | |
| DL1NUX | 2026-09-03 12:59:11 | 50.71348 | 8.95737 | 135° | 135km/h | 8599m | -6.6m/s | -31.2°C | 67.6% | 343.7hPa | 2.6V | 07:59:50 | 02:41:13 | 00:00:00 | |
| DB0DAN | 2026-09-03 12:59:10 | 50.71252 | 8.95889 | 134° | 128km/h | 8573m | -6.4m/s | -31°C | 58.7% | 344.98hPa | 2.6V | 00:00:00 | 00:00:00 | 00:00:00 | |
| BIOWL1-15 | 2026-09-03 12:59:08 | 50.71299 | 8.95813 | 135° | 135km/h | 8586m | -6.4m/s | -31.1°C | 65.1% | 344.4hPa | 2.5V | 08:00:24 | 02:41:15 | 00:00:00 | |
| DJ2KF-10 | 2026-09-03 12:59:08 | 50.71299 | 8.95812 | 135° | 139km/h | 8586m | -6.3m/s | -31.0°C | 66.9% | 344.3hPa | 2.5V | 07:59:00 | 02:41:15 | 00:00:00 | |
| DM0DOS-11 | 2026-09-03 12:59:06 | 50.71396 | 8.95661 | 135° | 135km/h | 8612m | -6.7m/s | -31.3°C | 68.8% | 343.1hPa | 2.5V | 07:59:52 | 02:41:11 | 00:00:00 | |
| DL1XH-west | 2026-09-03 12:59:06 | 50.71348 | 8.95737 | 135° | 135km/h | 8599m | -6.6m/s | -31.2°C | 65.7% | 343.7hPa | 2.6V | 08:00:24 | 02:41:13 | 00:00:00 | |
| DL4BBY-15 | 2026-09-03 12:59:06 | 50.71348 | 8.95736 | 136° | 141km/h | 8599m | -6.6m/s | -33.5°C | 0% | 0hPa | 2.6V | 00:00:00 | 00:00:00 | 00:00:00 | |
| DO9LL-15 | 2026-09-03 12:59:05 | 50.71372 | 8.95699 | 136° | 137km/h | 8606m | -6.4m/s | -31.2°C | 68.3% | 343.3hPa | 2.6V | 00:00:00 | 02:41:12 | 00:00:00 | |
| DB0UT-7 | 2026-09-03 12:59:03 | 50.71420 | 8.95623 | 136° | 141km/h | 8619m | -6.3m/s | -31.3°C | 69.2% | 342.7hPa | 2.6V | 00:00:00 | 00:00:00 | 00:00:00 | |
| DO3DL | 2026-09-03 12:59:02 | 50.71420 | 8.95623 | 136° | 135km/h | 8619m | -6.3m/s | -31.4°C | 61.9% | 342.8hPa | 2.6V | 08:00:00 | 00:00:00 | 00:00:00 | |
| DL1NUX | 2026-09-03 12:59:01 | 50.71595 | 8.95353 | 135° | 141km/h | 8664m | -6.4m/s | -31.8°C | 71.2% | 340.6hPa | 2.6V | 08:00:00 | 02:41:03 | 00:00:00 | |
| BIOWL1-15 | 2026-09-03 12:58:57 | 50.71570 | 8.95392 | 136° | 139km/h | 8657m | -6.5m/s | -31.8°C | 68.6% | 340.9hPa | 2.6V | 08:00:24 | 02:41:04 | 00:00:00 | |
| DM0DOS-11 | 2026-09-03 12:58:56 | 50.71645 | 8.95275 | 135° | 139km/h | 8677m | -6.7m/s | -31.9°C | 72.5% | 339.9hPa | 2.5V | 08:00:02 | 02:41:01 | 00:00:00 | |
| DL1XH-west | 2026-09-03 12:58:55 | 50.71620 | 8.95314 | 136° | 139km/h | 8670m | -6.5m/s | -31.9°C | 68.7% | 340.2hPa | 2.6V | 08:00:24 | 02:41:02 | 00:00:00 | |
| DL3AQ-11 | 2026-09-03 12:58:53 | 50.71696 | 8.95198 | 135° | 139km/h | 8690m | -6.4m/s | -32.0°C | 66.0% | 339.3hPa | 2.6V | 00:00:00 | 00:00:00 | 00:00:00 | |
| DL1NUX | 2026-09-03 12:58:51 | 50.71851 | 8.94964 | 135° | 142km/h | 8727m | -6.1m/s | -32.2°C | 77.6% | 337.5hPa | 2.6V | 08:00:10 | 02:40:53 | 00:00:00 | |
| BIOWL1-15 | 2026-09-03 12:58:47 | 50.71825 | 8.95003 | 136° | 142km/h | 8721m | -6.2m/s | -32.2°C | 73.4% | 337.8hPa | 2.5V | 08:00:24 | 02:40:54 | 00:00:00 | |
| DB0ND-19 | 2026-09-03 12:58:47 | 50.71877 | 8.94924 | 135° | 141km/h | 8733m | -6.4m/s | -32.3°C | 69.7% | 337.2hPa | 2.6V | 00:00:00 | 00:00:00 | 00:00:00 | |
| DM0DOS-11 | 2026-09-03 12:58:46 | 50.71902 | 8.94885 | 135° | 142km/h | 8740m | -6.5m/s | -32.3°C | 78.1% | 336.9hPa | 2.6V | 08:00:12 | 02:40:51 | 00:00:00 | |
| DL1XH-west | 2026-09-03 12:58:44 | 50.71902 | 8.94885 | 136° | 142km/h | 8740m | -6.5m/s | -32.3°C | 74.6% | 336.9hPa | 2.6V | 08:00:24 | 02:40:51 | 00:00:00 | |
| DL8DAS-14 | 2026-09-03 12:58:43 | 50.71928 | 8.94845 | 135° | 141km/h | 8747m | -6.8m/s | -32.4°C | 70.3% | 336.6hPa | 2.6V | 00:00:00 | 00:00:00 | 00:00:00 | |
| DL3AQ-11 | 2026-09-03 12:58:42 | 50.71979 | 8.94766 | 135° | 141km/h | 8759m | -6.4m/s | -32.5°C | 70.6% | 335.9hPa | 2.6V | 00:00:00 | 00:00:00 | 00:00:00 | |
| DL1NUX | 2026-09-03 12:58:41 | 50.72107 | 8.94568 | 135° | 142km/h | 8791m | -6.2m/s | -32.8°C | 80% | 334.5hPa | 2.6V | 08:00:20 | 02:40:43 | 00:00:00 | |
| BIOWL1-15 | 2026-09-03 12:58:40 | 50.72107 | 8.94568 | 135° | 142km/h | 8791m | -6.2m/s | -32.8°C | 75.9% | 334.5hPa | 2.6V | 08:00:24 | 02:40:43 | 00:00:00 | |
| DJ2DS-15 | 2026-09-03 12:58:40 | 50.72004 | 8.94727 | 136° | 142km/h | 8766m | -6.2m/s | -32.5°C | 78.9% | 335.6hPa | 2.5V | 00:00:00 | 02:40:47 | 00:00:00 | |
| DO3MHA-11 | 2026-09-03 12:58:38 | 50.72055 | 8.94647 | 136° | 142km/h | 8779m | -6.4m/s | -32.6°C | 79.5% | 335.0hPa | 2.5V | 00:00:00 | 02:40:45 | 00:00:00 | |
| DM0DOS-11 | 2026-09-03 12:58:36 | 50.72158 | 8.94488 | 135° | 142km/h | 8803m | -6.2m/s | -32.8°C | 80.4% | 333.9hPa | 2.5V | 08:00:22 | 02:40:41 | 00:00:00 | |
| HSKMA3-T | 2026-09-03 12:58:34 | 50.72158 | 8.94488 | 135° | 142km/h | 8803m | -6.2m/s | -32.8°C | 76.3% | 333.9hPa | 2.5V | 08:00:24 | 02:40:41 | 00:00:00 | |
| DL1XH-west | 2026-09-03 12:58:33 | 50.72183 | 8.94447 | 135° | 142km/h | 8810m | -6.6m/s | -32.9°C | 76.7% | 333.6hPa | 2.5V | 08:00:24 | 02:40:40 | 00:00:00 | |
| DB0UT-7 | 2026-09-03 12:58:33 | 50.72183 | 8.94447 | 135° | 142km/h | 8810m | -6.5m/s | -32.8°C | 80.5% | 333.5hPa | 2.5V | 00:00:00 | 02:40:40 | 00:00:00 | |
| DO3MHA-12 | 2026-09-03 12:58:31 | 50.72234 | 8.94367 | 135° | 142km/h | 8823m | -6.4m/s | -32.9°C | 81.0% | 332.9hPa | 2.6V | 00:00:00 | 02:40:38 | 00:00:00 | |
| DJ8HS-15 | 2026-09-03 12:58:30 | 50.72259 | 8.94326 | 135° | 142km/h | 8829m | -6.5m/s | -32.9°C | 81.0% | 332.6hPa | 2.6V | 00:00:00 | 02:40:37 | 00:00:00 | |
| DO2KSM | 2026-09-03 12:58:29 | 50.72260 | 8.94326 | 136° | 142km/h | 8829m | -6.6m/s | -33.0°C | 72.4% | 332.7hPa | 2.6V | 08:01:00 | 00:00:00 | 00:00:00 | |
| DF7PN | 2026-09-03 12:58:28 | 50.72335 | 8.94205 | 134° | 142km/h | 8849m | -6.3m/s | -33.1°C | 72.3% | 331.8hPa | 2.6V | 00:00:00 | 00:00:00 | 00:00:00 | |
| DM0DOS-11 | 2026-09-03 12:58:26 | 50.72412 | 8.94083 | 134° | 144km/h | 8868m | -6.3m/s | -33.3°C | 81% | 330.8hPa | 2.6V | 08:00:32 | 02:40:31 | 00:00:00 | |
| BIOWL1-15 | 2026-09-03 12:58:26 | 50.72361 | 8.94164 | 135° | 144km/h | 8855m | -6.4m/s | -33.2°C | 76.8% | 331.5hPa | 2.5V | 08:01:15 | 02:40:33 | 00:00:00 | |
| DB0DAN | 2026-09-03 12:58:25 | 50.72386 | 8.94124 | 135° | 137km/h | 8861m | -6.4m/s | -33.2°C | 72.3% | 331.15hPa | 2.6V | 00:00:00 | 00:00:00 | 00:00:00 | |
| HSKMA3-T | 2026-09-03 12:58:23 | 50.72437 | 8.94042 | 135° | 142km/h | 8874m | -6.2m/s | -33.3°C | 77.1% | 330.6hPa | 2.5V | 08:01:15 | 02:40:30 | 00:00:00 | |
| DL1XH-west | 2026-09-03 12:58:22 | 50.72463 | 8.94002 | 135° | 144km/h | 8880m | -6.5m/s | -33.4°C | 77.4% | 330.3hPa | 2.5V | 08:01:15 | 02:40:29 | 00:00:00 | |
| DJ2DS-15 | 2026-09-03 12:58:20 | 50.72513 | 8.93920 | 135° | 151km/h | 8893m | -6.4m/s | -33.4°C | 81.9% | 329.6hPa | 2.6V | 00:00:00 | 02:40:27 | 00:00:00 | |
| DM0DOS-11 | 2026-09-03 12:58:19 | 50.72666 | 8.93677 | 134° | 142km/h | 8931m | -6.3m/s | -33.8°C | 82.9% | 327.9hPa | 2.6V | 08:00:42 | 02:40:21 | 00:00:00 | |
| BIOWL1-15 | 2026-09-03 12:58:15 | 50.72640 | 8.93717 | 135° | 142km/h | 8925m | -6.2m/s | -33.8°C | 78.3% | 328.1hPa | 2.5V | 08:01:15 | 02:40:22 | 00:00:00 | |
| HSKMA3-T | 2026-09-03 12:58:13 | 50.72691 | 8.93637 | 135° | 142km/h | 8937m | -6.1m/s | -33.9°C | 78.4% | 327.5hPa | 2.6V | 08:01:15 | 02:40:20 | 00:00:00 | |
| DL1XH-west | 2026-09-03 12:58:12 | 50.72742 | 8.93555 | 135° | 142km/h | 8950m | -6.5m/s | -34°C | 78.6% | 327hPa | 2.5V | 08:01:15 | 02:40:18 | 00:00:00 | |
| DL1NUX | 2026-09-03 12:58:11 | 50.72868 | 8.93350 | 134° | 144km/h | 8982m | -6.2m/s | -34.2°C | 84.3% | 325.4hPa | 2.5V | 08:00:50 | 02:40:13 | 00:00:00 | |
| DL1XH1-15 | 2026-09-03 12:58:10 | 50.72793 | 8.93474 | 134° | 144km/h | 8963m | -6.5m/s | -34.1°C | 83.5% | 326.4hPa | 2.6V | 08:00:47 | 02:40:16 | 00:00:00 | |
| DJ8HS-15 | 2026-09-03 12:58:10 | 50.72768 | 8.93515 | 135° | 146km/h | 8957m | -6.6m/s | -34.0°C | 83.2% | 326.7hPa | 2.5V | 00:00:00 | 02:40:17 | 00:00:00 | |
| DO3DL | 2026-09-03 12:58:09 | 50.72768 | 8.93515 | 135° | 142km/h | 8957m | -6.6m/s | -34.0°C | 74.1% | 326.7hPa | 2.5V | 08:01:00 | 00:00:00 | 00:00:00 | |
| DJ2KF-10 | 2026-09-03 12:58:08 | 50.72818 | 8.93433 | 135° | 146km/h | 8970m | -6.3m/s | -34.1°C | 84.0% | 326.0hPa | 2.5V | 00:00:00 | 02:40:15 | 00:00:00 | |
| DO3MHA-12 | 2026-09-03 12:58:07 | 50.72843 | 8.93392 | 134° | 144km/h | 8976m | -6.4m/s | -34.1°C | 84.1% | 325.7hPa | 2.5V | 00:00:00 | 02:40:14 | 00:00:00 | |
| DM0DOS-11 | 2026-09-03 12:58:06 | 50.72919 | 8.93268 | 134° | 144km/h | 8995m | -6.7m/s | -34.3°C | 84.5% | 324.8hPa | 2.5V | 08:00:52 | 02:40:11 | 00:00:00 | |
| BIOWL1-15 | 2026-09-03 12:58:04 | 50.72919 | 8.93268 | 134° | 144km/h | 8995m | -6.7m/s | -34.3°C | 79.8% | 324.8hPa | 2.5V | 08:01:15 | 02:40:11 | 00:00:00 | |
| HSKMA3-T | 2026-09-03 12:58:03 | 50.72945 | 8.93226 | 134° | 146km/h | 9001m | -6.3m/s | -34.4°C | 79.7% | 324.6hPa | 2.6V | 08:01:15 | 02:40:10 | 00:00:00 | |
| DL1XH-west | 2026-09-03 12:58:01 | 50.72996 | 8.93143 | 135° | 146km/h | 9014m | -6.5m/s | -34.5°C | 79.8% | 324hPa | 2.5V | 08:01:15 | 02:40:08 | 00:00:00 | |
| DL1XH1-15 | 2026-09-03 12:57:58 | 50.73203 | 8.92810 | 133° | 146km/h | 9065m | -6.2m/s | -34.9°C | 83.5% | 321.6hPa | 2.5V | 08:01:03 | 02:40:00 | 00:00:00 | |
| BIOWL1-15 | 2026-09-03 12:57:53 | 50.73203 | 8.92810 | 133° | 146km/h | 9065m | -6.2m/s | -34.9°C | 78.5% | 321.6hPa | 2.5V | 08:01:15 | 02:40:00 | 00:00:00 | |
| HSKMA3-T | 2026-09-03 12:57:52 | 50.73228 | 8.92768 | 134° | 148km/h | 9071m | -6.4m/s | -34.9°C | 78.3% | 321.3hPa | 2.5V | 08:01:15 | 02:39:59 | 00:00:00 | |
| DL1XH-west | 2026-09-03 12:57:50 | 50.73279 | 8.92683 | 133° | 148km/h | 9085m | -6.7m/s | -35°C | 78% | 320.7hPa | 2.6V | 08:01:15 | 02:39:57 | 00:00:00 | |
| DJ8HS-15 | 2026-09-03 12:57:50 | 50.73279 | 8.92682 | 134° | 148km/h | 9085m | -6.7m/s | -35.0°C | 82.7% | 320.7hPa | 2.6V | 00:00:00 | 02:39:57 | 00:00:00 | |
| DO3DL | 2026-09-03 12:57:49 | 50.73279 | 8.92682 | 134° | 148km/h | 9085m | -6.7m/s | -35.0°C | 73.4% | 320.7hPa | 2.5V | 08:01:00 | 00:00:00 | 00:00:00 | |
| DL1XH1-15 | 2026-09-03 12:57:48 | 50.73459 | 8.92382 | 133° | 150km/h | 9130m | -6.5m/s | -35.4°C | 82.3% | 318.6hPa | 2.5V | 08:01:13 | 02:39:50 | 00:00:00 | |
| DL3AQ-11 | 2026-09-03 12:57:45 | 50.73408 | 8.92468 | 133° | 148km/h | 9117m | -6.5m/s | -35.3°C | 72.9% | 319.2hPa | 2.5V | 00:00:00 | 00:00:00 | 00:00:00 | |
| BIOWL1-15 | 2026-09-03 12:57:42 | 50.73485 | 8.92338 | 133° | 148km/h | 9136m | -6.6m/s | -35.4°C | 77.6% | 318.3hPa | 2.5V | 08:01:15 | 02:39:49 | 00:00:00 | |
| DL1NUX | 2026-09-03 12:57:41 | 50.73635 | 8.92076 | 132° | 148km/h | 9175m | -6.6m/s | -35.7°C | 83.1% | 316.6hPa | 2.5V | 08:01:20 | 02:39:43 | 00:00:00 | |
| HSKMA3-T | 2026-09-03 12:57:41 | 50.73510 | 8.92295 | 133° | 148km/h | 9143m | -6.5m/s | -35.5°C | 77.8% | 318hPa | 2.5V | 08:01:15 | 02:39:48 | 00:00:00 | |
| DL1XH-west | 2026-09-03 12:57:39 | 50.73560 | 8.92207 | 132° | 148km/h | 9156m | -6.6m/s | -35.6°C | 78.3% | 317.5hPa | 2.6V | 08:02:06 | 02:39:46 | 00:00:00 | |
| DJ2KF-10 | 2026-09-03 12:57:38 | 50.73586 | 8.92163 | 132° | 151km/h | 9162m | -6.5m/s | -35.6°C | 83.3% | 317.1hPa | 2.6V | 08:01:00 | 02:39:45 | 00:00:00 | |
| DM0DOS-11 | 2026-09-03 12:57:36 | 50.73686 | 8.91987 | 132° | 150km/h | 9189m | -6.6m/s | -35.8°C | 83.1% | 316hPa | 2.5V | 08:01:22 | 02:39:41 | 00:00:00 | |
| BIOWL1-15 | 2026-09-03 12:57:32 | 50.73890 | 8.91632 | 132° | 151km/h | 9240m | -6.5m/s | -36.2°C | 77.9% | 313.6hPa | 2.6V | 08:02:06 | 02:39:33 | 00:00:00 | |
| DL1NUX | 2026-09-03 12:57:31 | 50.73890 | 8.91632 | 132° | 151km/h | 9240m | -6.5m/s | -36.2°C | 82.6% | 313.6hPa | 2.6V | 08:01:30 | 02:39:33 | 00:00:00 | |
| HSKMA3-T | 2026-09-03 12:57:31 | 50.73762 | 8.91855 | 132° | 151km/h | 9208m | -6.6m/s | -36°C | 78.5% | 315.1hPa | 2.6V | 08:02:06 | 02:39:38 | 00:00:00 | |
| DF8AY | 2026-09-03 12:57:30 | 50.73788 | 8.91810 | 132° | 151km/h | 9214m | -6.6m/s | 0°C | 0% | 314.8hPa | 2.5V | 18:12:15 | 02:39:37 | 00:00:00 | |
| DL1XH1-15 | 2026-09-03 12:57:30 | 50.73839 | 8.91722 | 132° | 150km/h | 9227m | -6.5m/s | -36.1°C | 82.9% | 314.2hPa | 2.5V | 08:01:28 | 02:39:35 | 00:00:00 | |
| DL1XH-west | 2026-09-03 12:57:29 | 50.73813 | 8.91766 | 132° | 150km/h | 9221m | -6.5m/s | -36°C | 78.3% | 314.5hPa | 2.5V | 08:02:06 | 02:39:36 | 00:00:00 | |
| DO3MHA-11 | 2026-09-03 12:57:27 | 50.73864 | 8.91677 | 133° | 151km/h | 9234m | -6.5m/s | -36.1°C | 82.6% | 313.8hPa | 2.6V | 00:00:00 | 02:39:34 | 00:00:00 | |
| DM0DOS-11 | 2026-09-03 12:57:26 | 50.73941 | 8.91543 | 131° | 151km/h | 9253m | -6.5m/s | -36.3°C | 82% | 313hPa | 2.5V | 08:01:32 | 02:39:31 | 00:00:00 | |
| SO1NDE-10 | 2026-09-03 12:57:25 | 50.73916 | 8.91588 | 132° | 153km/h | 9247m | -6.6m/s | -36.2°C | 82.6% | 313.2hPa | 2.5V | 00:00:00 | 02:39:32 | 00:00:00 | |
| DD1CC3-15 | 2026-09-03 12:57:24 | 50.73915 | 8.91588 | 133° | 151km/h | 9247m | -6.6m/s | -36.3°C | 73.0% | 313.3hPa | 2.5V | 08:02:00 | 00:00:00 | 00:00:00 | |
| DO9LL-15 | 2026-09-03 12:57:22 | 50.73992 | 8.91452 | 132° | 153km/h | 9267m | -6.5m/s | -36.3°C | 81.7% | 312.3hPa | 2.5V | 00:00:00 | 02:39:29 | 00:00:00 | |
| DL1NUX | 2026-09-03 12:57:21 | 50.74147 | 8.91178 | 131° | 153km/h | 9306m | -6.5m/s | -36.7°C | 79.5% | 310.6hPa | 2.5V | 08:01:40 | 02:39:23 | 00:00:00 | |
| DF8AY | 2026-09-03 12:57:20 | 50.74043 | 8.91361 | 132° | 153km/h | 9280m | -6.6m/s | 0°C | 0% | 311.8hPa | 2.6V | 18:12:15 | 02:39:27 | 00:00:00 | |
| DL1XH1-15 | 2026-09-03 12:57:20 | 50.74095 | 8.91270 | 131° | 153km/h | 9293m | -6.7m/s | -36.6°C | 80.8% | 311.2hPa | 2.5V | 08:01:38 | 02:39:25 | 00:00:00 | |
| DL1XH-west | 2026-09-03 12:57:18 | 50.74095 | 8.91270 | 132° | 153km/h | 9293m | -6.7m/s | -36.6°C | 76% | 311.2hPa | 2.5V | 08:02:06 | 02:39:25 | 00:00:00 | |
| BIOWL1-15 | 2026-09-03 12:57:16 | 50.74173 | 8.91132 | 132° | 155km/h | 9312m | -6.6m/s | -36.7°C | 74.8% | 310.4hPa | 2.6V | 08:02:06 | 02:39:22 | 00:00:00 | |
| DO3DL | 2026-09-03 12:57:15 | 50.74147 | 8.91178 | 133° | 153km/h | 9306m | -6.6m/s | -36.7°C | 70.1% | 310.7hPa | 2.5V | 08:02:00 | 00:00:00 | 00:00:00 | |
| DB0ND-19 | 2026-09-03 12:57:14 | 50.74251 | 8.90994 | 131° | 153km/h | 9332m | -6.5m/s | -36.8°C | 68.9% | 309.5hPa | 2.5V | 00:00:00 | 00:00:00 | 00:00:00 | |
| DL9SK-14 | 2026-09-03 12:57:12 | 50.74277 | 8.90948 | 131° | 153km/h | 9338m | -6.6m/s | -36.9°C | 69.0% | 309.2hPa | 2.5V | 00:00:00 | 00:00:00 | 00:00:00 | |
| DL1NUX | 2026-09-03 12:57:11 | 50.74407 | 8.90719 | 131° | 155km/h | 9371m | -6.7m/s | -37.1°C | 77.3% | 307.7hPa | 2.5V | 08:01:50 | 02:39:13 | 00:00:00 | |
| DJ2DS-15 | 2026-09-03 12:57:11 | 50.74277 | 8.90948 | 132° | 155km/h | 9339m | -6.6m/s | -36.8°C | 78.3% | 309.1hPa | 2.6V | 00:00:00 | 02:39:18 | 00:00:00 | |
| DL1XH1-15 | 2026-09-03 12:57:10 | 50.74355 | 8.90811 | 131° | 153km/h | 9358m | -6.6m/s | -37°C | 77.5% | 308.3hPa | 2.6V | 08:01:48 | 02:39:15 | 00:00:00 | |
| HSKMA3-T | 2026-09-03 12:57:10 | 50.74303 | 8.90902 | 132° | 153km/h | 9345m | -6.6m/s | -37°C | 73.6% | 308.9hPa | 2.5V | 08:02:06 | 02:39:17 | 00:00:00 | |
| DF8AY | 2026-09-03 12:57:09 | 50.74355 | 8.90811 | 132° | 153km/h | 9358m | -6.6m/s | 0°C | 0% | 308.3hPa | 2.6V | 18:12:15 | 02:39:15 | 00:00:00 | |
| DL1XH-west | 2026-09-03 12:57:07 | 50.74381 | 8.90765 | 132° | 155km/h | 9365m | -6.5m/s | -37.1°C | 73% | 308hPa | 2.5V | 08:02:06 | 02:39:14 | 00:00:00 | |
| DM0DOS-11 | 2026-09-03 12:57:06 | 50.74459 | 8.90627 | 131° | 155km/h | 9385m | -6.9m/s | -37.3°C | 77.3% | 307.1hPa | 2.6V | 08:01:52 | 02:39:11 | 00:00:00 | |
| BIOWL1-15 | 2026-09-03 12:57:05 | 50.74433 | 8.90673 | 132° | 155km/h | 9378m | -6.9m/s | -37.2°C | 72.9% | 307.4hPa | 2.5V | 08:02:06 | 02:39:12 | 00:00:00 | |
| DB0UT-7 | 2026-09-03 12:57:03 | 50.74486 | 8.90581 | 132° | 155km/h | 9392m | -6.4m/s | -37.3°C | 77.1% | 306.8hPa | 2.6V | 00:00:00 | 00:00:00 | 00:00:00 | |
| SONCRA | 2026-09-03 12:57:02 | 50.74512 | 8.90535 | 131° | 153km/h | 9398m | -6.7m/s | -37.4°C | 67.5% | 306.6hPa | 2.5V | 00:00:00 | 00:00:00 | 00:00:00 | |
| DL1NUX | 2026-09-03 12:57:01 | 50.74667 | 8.90257 | 131° | 153km/h | 9438m | -6.3m/s | -37.7°C | 76.4% | 304.7hPa | 2.5V | 08:02:00 | 02:39:03 | 00:00:00 | |
| HSKMA3-T | 2026-09-03 12:56:59 | 50.74590 | 8.90396 | 131° | 155km/h | 9418m | -6.6m/s | -37.5°C | 72.2% | 305.6hPa | 2.6V | 08:02:06 | 02:39:06 | 00:00:00 | |
| DL1XH-west | 2026-09-03 12:56:57 | 50.74641 | 8.90303 | 131° | 155km/h | 9432m | -6.7m/s | -37.6°C | 72.1% | 305hPa | 2.6V | 08:02:06 | 02:39:04 | 00:00:00 | |
| DO3MHA-11 | 2026-09-03 12:56:57 | 50.74641 | 8.90303 | 132° | 155km/h | 9432m | -6.7m/s | -37.6°C | 76.3% | 305.0hPa | 2.6V | 08:01:00 | 02:39:04 | 00:00:00 | |
| DM0DOS-11 | 2026-09-03 12:56:56 | 50.74719 | 8.90165 | 131° | 155km/h | 9452m | -6.7m/s | -37.8°C | 76.7% | 304.2hPa | 2.5V | 08:02:02 | 02:39:01 | 00:00:00 | |
| BIOWL1-15 | 2026-09-03 12:56:54 | 50.74719 | 8.90165 | 131° | 155km/h | 9452m | -6.7m/s | -37.8°C | 72.3% | 304.2hPa | 2.5V | 08:02:06 | 02:39:01 | 00:00:00 | |
| DO9LL-15 | 2026-09-03 12:56:52 | 50.74770 | 8.90071 | 132° | 170km/h | 9465m | -6.7m/s | -37.9°C | 77.2% | 303.5hPa | 2.6V | 08:02:00 | 02:38:59 | 00:00:00 | |
| DJ2DS-15 | 2026-09-03 12:56:51 | 50.74796 | 8.90025 | 131° | 155km/h | 9472m | -6.5m/s | -38.0°C | 77.6% | 303.2hPa | 2.6V | 00:00:00 | 02:38:58 | 00:00:00 | |
| DJ8HS-15 | 2026-09-03 12:56:50 | 50.74821 | 8.89978 | 132° | 155km/h | 9478m | -6.8m/s | -38.0°C | 78.0% | 302.9hPa | 2.6V | 00:00:00 | 02:38:57 | 00:00:00 | |
| DL1NUX | 2026-09-03 12:56:49 | 50.74924 | 8.89791 | 130° | 155km/h | 9505m | -6.9m/s | -38.3°C | 78.1% | 301.8hPa | 2.5V | 08:02:10 | 02:38:53 | 00:00:00 | |
| HSKMA3-T | 2026-09-03 12:56:48 | 50.74873 | 8.89885 | 131° | 155km/h | 9492m | -7m/s | -38.2°C | 73.5% | 302.4hPa | 2.5V | 08:02:57 | 02:38:55 | 00:00:00 | |
| DL1XH-west | 2026-09-03 12:56:47 | 50.74899 | 8.89838 | 131° | 155km/h | 9499m | -6.7m/s | -38.3°C | 73.5% | 302.1hPa | 2.5V | 08:02:57 | 02:38:54 | 00:00:00 | |
| DO3MHA-11 | 2026-09-03 12:56:47 | 50.74899 | 8.89838 | 131° | 155km/h | 9499m | -6.7m/s | -38.2°C | 78.3% | 302.0hPa | 2.6V | 00:00:00 | 02:38:54 | 00:00:00 | |
| DM0DOS-11 | 2026-09-03 12:56:46 | 50.74976 | 8.89698 | 130° | 155km/h | 9520m | -6.9m/s | -38.5°C | 78.7% | 301.1hPa | 2.6V | 08:02:12 | 02:38:51 | 00:00:00 | |
| BUE01 | 2026-09-03 12:56:46 | 50.74924 | 8.89791 | 130° | 155km/h | 9505m | -6.9m/s | -38.3°C | 68.4% | 301.8hPa | 2.6V | 00:00:00 | 00:00:00 | 00:00:00 | |
| DJ2DS-15 | 2026-09-03 12:56:45 | 50.74950 | 8.89745 | 130° | 153km/h | 9513m | -7.1m/s | -38.4°C | 68.6% | 301.5hPa | 2.6V | 00:00:00 | 00:00:00 | 00:00:00 | |
| DF8AY | 2026-09-03 12:56:43 | 50.75001 | 8.89651 | 131° | 155km/h | 9527m | -7m/s | 0°C | 0% | 300.9hPa | 2.6V | 18:12:15 | 02:38:50 | 00:00:00 | |
| DD1CC3-15 | 2026-09-03 12:56:42 | 50.75001 | 8.89651 | 132° | 155km/h | 9527m | -7.0m/s | -38.5°C | 69.0% | 300.9hPa | 2.6V | 08:02:00 | 00:00:00 | 00:00:00 | |
| DB0NH | 2026-09-03 12:56:41 | 50.75052 | 8.89557 | 131° | 155km/h | 9540m | -6.6m/s | -38.6°C | 79.3% | 300.2hPa | 2.6V | 00:00:00 | 02:38:48 | 00:00:00 | |
| DL1XH1-15 | 2026-09-03 12:56:40 | 50.75127 | 8.89416 | 129° | 153km/h | 9560m | -6.6m/s | -38.8°C | 79.4% | 299.4hPa | 2.6V | 08:02:18 | 02:38:45 | 00:00:00 | |
| DL1NUX | 2026-09-03 12:56:39 | 50.75177 | 8.89322 | 130° | 153km/h | 9574m | -6.7m/s | -38.9°C | 79.6% | 298.8hPa | 2.6V | 08:02:20 | 02:38:43 | 00:00:00 | |
| HSKMA3-T | 2026-09-03 12:56:38 | 50.75127 | 8.89416 | 130° | 153km/h | 9560m | -6.6m/s | -38.8°C | 74.1% | 299.4hPa | 2.6V | 08:02:57 | 02:38:45 | 00:00:00 | |
| DL1XH-west | 2026-09-03 12:56:37 | 50.75152 | 8.89369 | 130° | 153km/h | 9567m | -6.8m/s | -38.9°C | 74.2% | 299.1hPa | 2.6V | 08:02:57 | 02:38:44 | 00:00:00 | |
| BIOWL1-15 | 2026-09-03 12:56:33 | 50.75252 | 8.89181 | 130° | 155km/h | 9594m | -6.9m/s | -39.1°C | 74.5% | 297.9hPa | 2.5V | 08:02:57 | 02:38:40 | 00:00:00 | |
| DF8AY | 2026-09-03 12:56:32 | 50.75277 | 8.89134 | 130° | 153km/h | 9601m | -6.5m/s | 0°C | 0% | 0hPa | 2.5V | 18:12:15 | 02:38:39 | 00:00:00 | |
| DL1NUX | 2026-09-03 12:56:31 | 50.75428 | 8.88851 | 130° | 155km/h | 9641m | -6.7m/s | -39.5°C | 80.4% | 295.9hPa | 2.5V | 08:02:30 | 02:38:33 | 00:00:00 | |
| DJ2DS-15 | 2026-09-03 12:56:31 | 50.75303 | 8.89086 | 130° | 155km/h | 9608m | -6.6m/s | -39.2°C | 80.2% | 297.3hPa | 2.6V | 00:00:00 | 02:38:38 | 00:00:00 | |
| DL1XH1-15 | 2026-09-03 12:56:30 | 50.75378 | 8.88945 | 129° | 155km/h | 9628m | -6.7m/s | -39.4°C | 80.6% | 296.5hPa | 2.5V | 08:02:28 | 02:38:35 | 00:00:00 | |
| HSKMA3-T | 2026-09-03 12:56:28 | 50.75378 | 8.88945 | 130° | 155km/h | 9628m | -6.7m/s | -39.4°C | 74.7% | 296.5hPa | 2.5V | 08:02:57 | 02:38:35 | 00:00:00 | |
| DL1XH-west | 2026-09-03 12:56:27 | 50.75403 | 8.88898 | 130° | 153km/h | 9634m | -6.6m/s | -39.4°C | 74.7% | 296.2hPa | 2.5V | 08:02:57 | 02:38:34 | 00:00:00 | |
| BIOWL1-15 | 2026-09-03 12:56:22 | 50.75605 | 8.88519 | 130° | 155km/h | 9688m | -7.2m/s | -39.9°C | 74.1% | 293.9hPa | 2.5V | 08:02:57 | 02:38:26 | 00:00:00 | |
| DL1NUX | 2026-09-03 12:56:21 | 50.75681 | 8.88376 | 129° | 155km/h | 9709m | -7m/s | -40°C | 80.4% | 292.9hPa | 2.6V | 08:02:40 | 02:38:23 | 00:00:00 | |
| DF8AY | 2026-09-03 12:56:20 | 50.75580 | 8.88566 | 130° | 157km/h | 9681m | -6.8m/s | 0°C | 0% | 0hPa | 2.5V | 18:12:15 | 02:38:27 | 00:00:00 | |
| DL1XH1-15 | 2026-09-03 12:56:20 | 50.75631 | 8.88471 | 130° | 155km/h | 9695m | -7.1m/s | -40°C | 80.2% | 293.6hPa | 2.5V | 08:02:38 | 02:38:25 | 00:00:00 | |
| DM0DOS-11 | 2026-09-03 12:56:19 | 50.75732 | 8.88281 | 130° | 155km/h | 9723m | -6.6m/s | -40.2°C | 81% | 292.3hPa | 2.5V | 08:02:42 | 02:38:21 | 00:00:00 | |
| HSKMA3-T | 2026-09-03 12:56:17 | 50.75656 | 8.88424 | 130° | 155km/h | 9702m | -6.6m/s | -40°C | 74.3% | 293.2hPa | 2.6V | 08:02:57 | 02:38:24 | 00:00:00 | |
| DL1XH-west | 2026-09-03 12:56:16 | 50.75681 | 8.88376 | 130° | 155km/h | 9709m | -7m/s | -40.1°C | 74.4% | 292.9hPa | 2.6V | 08:02:57 | 02:38:23 | 00:00:00 | |
| BIOWL1-15 | 2026-09-03 12:56:12 | 50.75783 | 8.88186 | 130° | 157km/h | 9736m | -6.8m/s | -40.3°C | 75.2% | 291.8hPa | 2.5V | 08:02:57 | 02:38:19 | 00:00:00 | |
| DF8AY | 2026-09-03 12:56:10 | 50.75859 | 8.88041 | 130° | 157km/h | 9756m | -6.7m/s | 0°C | 0% | 0hPa | 2.6V | 18:12:15 | 02:38:16 | 00:00:00 | |
| DL1XH1-15 | 2026-09-03 12:56:10 | 50.75885 | 8.87993 | 129° | 157km/h | 9763m | -6.9m/s | -40.5°C | 81.6% | 290.6hPa | 2.6V | 08:02:48 | 02:38:15 | 00:00:00 | |
| HSKMA3-T | 2026-09-03 12:56:07 | 50.75910 | 8.87945 | 129° | 157km/h | 9770m | -6.7m/s | -40.5°C | 75.5% | 290.4hPa | 2.5V | 08:02:57 | 02:38:14 | 00:00:00 | |
| DM0DOS-11 | 2026-09-03 12:56:07 | 50.75985 | 8.87799 | 129° | 157km/h | 9790m | -6.7m/s | -40.7°C | 81.9% | 289.5hPa | 2.6V | 08:02:52 | 02:38:11 | 00:00:00 | |
| DL1XH-west | 2026-09-03 12:56:07 | 50.75935 | 8.87896 | 129° | 157km/h | 9777m | -6.7m/s | -40.6°C | 75.5% | 290.1hPa | 2.5V | 08:02:57 | 02:38:13 | 00:00:00 | |
| BIOWL1-15 | 2026-09-03 12:56:02 | 50.76035 | 8.87703 | 129° | 157km/h | 9804m | -6.9m/s | -40.8°C | 75.8% | 288.9hPa | 2.5V | 08:02:57 | 02:38:09 | 00:00:00 | |
| DL3AQ-11 | 2026-09-03 12:56:02 | 50.76060 | 8.87654 | 129° | 157km/h | 9810m | -6.6m/s | -40.9°C | 71.4% | 288.6hPa | 2.6V | 00:00:00 | 00:00:00 | 00:00:00 | |
| DD1CC3-15 | 2026-09-03 12:56:01 | 50.76035 | 8.87703 | 130° | 157km/h | 9804m | -6.9m/s | -40.8°C | 71.2% | 288.9hPa | 2.6V | 08:02:00 | 00:00:00 | 00:00:00 | |
| DL1XH1-15 | 2026-09-03 12:56:00 | 50.76137 | 8.87509 | 129° | 159km/h | 9831m | -6.7m/s | -41°C | 82.5% | 287.7hPa | 2.6V | 08:02:58 | 02:38:05 | 00:00:00 | |
| DL1NUX | 2026-09-03 12:56:00 | 50.76188 | 8.87411 | 129° | 159km/h | 9844m | -6.7m/s | -41.2°C | 82.9% | 287.2hPa | 2.6V | 08:03:00 | 02:38:03 | 00:00:00 | |
| DM0DOS-11 | 2026-09-03 12:55:59 | 50.76239 | 8.87313 | 129° | 161km/h | 9858m | -6.7m/s | -41.3°C | 83.2% | 286.6hPa | 2.5V | 08:03:02 | 02:38:01 | 00:00:00 | |
| HSKMA3-T | 2026-09-03 12:55:56 | 50.76188 | 8.87411 | 130° | 159km/h | 9844m | -6.7m/s | -41.2°C | 76.5% | 287.2hPa | 2.6V | 08:03:48 | 02:38:03 | 00:00:00 | |
| DL1XH-west | 2026-09-03 12:55:55 | 50.76214 | 8.87362 | 129° | 159km/h | 9851m | -6.8m/s | -41.2°C | 76.7% | 286.9hPa | 2.5V | 08:03:48 | 02:38:02 | 00:00:00 | |
| BIOWL1-15 | 2026-09-03 12:55:51 | 50.76316 | 8.87164 | 129° | 159km/h | 9879m | -6.6m/s | -41.4°C | 77.2% | 285.7hPa | 2.6V | 08:03:48 | 02:37:58 | 00:00:00 | |
| DJ2DS-15 | 2026-09-03 12:55:51 | 50.76316 | 8.87164 | 130° | 164km/h | 9879m | -6.6m/s | -41.4°C | 83.7% | 285.7hPa | 2.5V | 00:00:00 | 02:37:58 | 00:00:00 | |
| DL1XH1-15 | 2026-09-03 12:55:50 | 50.76392 | 8.87015 | 128° | 161km/h | 9899m | -7m/s | -41.6°C | 83.7% | 284.9hPa | 2.5V | 08:03:08 | 02:37:55 | 00:00:00 | |
| DJ8HS-15 | 2026-09-03 12:55:50 | 50.76341 | 8.87115 | 129° | 164km/h | 9885m | -6.6m/s | -41.5°C | 83.9% | 285.4hPa | 2.5V | 08:03:00 | 02:37:57 | 00:00:00 | |
| DO3DL | 2026-09-03 12:55:47 | 50.76392 | 8.87015 | 130° | 161km/h | 9899m | -7.0m/s | -41.6°C | 72.6% | 284.9hPa | 2.6V | 08:03:00 | 00:00:00 | 00:00:00 | |
| DM0DOS-11 | 2026-09-03 12:55:46 | 50.76495 | 8.86812 | 128° | 164km/h | 9926m | -7m/s | -41.8°C | 84.3% | 283.7hPa | 2.6V | 08:03:12 | 02:37:51 | 00:00:00 | |
| HSKMA3-T | 2026-09-03 12:55:46 | 50.76443 | 8.86914 | 129° | 162km/h | 9912m | -6.7m/s | -41.7°C | 77.6% | 284.3hPa | 2.6V | 08:03:48 | 02:37:53 | 00:00:00 | |
| DL1XH-west | 2026-09-03 12:55:45 | 50.76469 | 8.86863 | 129° | 162km/h | 9919m | -6.7m/s | -41.8°C | 77.6% | 284hPa | 2.6V | 08:03:48 | 02:37:52 | 00:00:00 | |
| DF8AY | 2026-09-03 12:55:43 | 50.76546 | 8.86710 | 129° | 164km/h | 9940m | -6.9m/s | 0°C | 0% | 0hPa | 2.5V | 18:12:15 | 02:37:49 | 00:00:00 | |
| BIOWL1-15 | 2026-09-03 12:55:40 | 50.76598 | 8.86608 | 129° | 164km/h | 9953m | -6.7m/s | -42°C | 78.1% | 282.6hPa | 2.6V | 08:03:48 | 02:37:47 | 00:00:00 | |
| HSKMA3-T | 2026-09-03 12:55:35 | 50.76728 | 8.86351 | 128° | 166km/h | 9988m | -7m/s | -42.3°C | 79.1% | 281.2hPa | 2.5V | 08:03:48 | 02:37:42 | 00:00:00 | |
| DL1XH-west | 2026-09-03 12:55:34 | 50.76755 | 8.86299 | 128° | 166km/h | 9994m | -6.8m/s | -42.3°C | 79.3% | 280.9hPa | 2.6V | 08:03:48 | 02:37:41 | 00:00:00 | |
| DF8AY | 2026-09-03 12:55:31 | 50.76834 | 8.86141 | 128° | 170km/h | 10015m | -6.5m/s | 0°C | 0% | 0hPa | 2.5V | 18:12:15 | 02:37:38 | 00:00:00 | |
| BIOWL1-15 | 2026-09-03 12:55:29 | 50.76915 | 8.85981 | 128° | 172km/h | 10035m | -7.1m/s | -42.6°C | 80.4% | 279.1hPa | 2.6V | 08:03:48 | 02:37:35 | 00:00:00 | |
| SONCRA | 2026-09-03 12:55:29 | 50.76888 | 8.86034 | 128° | 172km/h | 10028m | -6.8m/s | -42.5°C | 74.7% | 279.4hPa | 2.6V | 00:00:00 | 00:00:00 | 00:00:00 | |
| DD8BA-10 | 2026-09-03 12:55:27 | 50.76942 | 8.85927 | 129° | 172km/h | 10042m | -6.8m/s | -42.6°C | 86.8% | 278.9hPa | 2.6V | 08:03:00 | 00:00:00 | 00:00:00 | |
| DM0DOS-11 | 2026-09-03 12:55:26 | 50.77022 | 8.85766 | 128° | 172km/h | 10063m | -7.2m/s | -42.8°C | 87.4% | 278hPa | 2.5V | 08:03:32 | 02:37:31 | 00:00:00 | |
| HSKMA3-T | 2026-09-03 12:55:25 | 50.76995 | 8.85819 | 128° | 172km/h | 10056m | -7m/s | -42.7°C | 80.9% | 278.3hPa | 2.5V | 08:03:48 | 02:37:32 | 00:00:00 | |
| DL1XH-west | 2026-09-03 12:55:23 | 50.77049 | 8.85712 | 128° | 170km/h | 10070m | -7.2m/s | -42.8°C | 81.2% | 277.7hPa | 2.6V | 08:03:48 | 02:37:30 | 00:00:00 | |
| DF8AY | 2026-09-03 12:55:21 | 50.77101 | 8.85605 | 128° | 170km/h | 10084m | -6.8m/s | 0°C | 0% | 0hPa | 2.5V | 18:12:15 | 02:37:28 | 00:00:00 | |
| DL1XH1-15 | 2026-09-03 12:55:21 | 50.77180 | 8.85443 | 127° | 172km/h | 10105m | -7m/s | -42.9°C | 86% | 276.2hPa | 2.5V | 08:03:38 | 02:37:25 | 00:00:00 | |
| DF7PN | 2026-09-03 12:55:21 | 50.77101 | 8.85605 | 127° | 170km/h | 10084m | -6.8m/s | -42.9°C | 75.0% | 277.2hPa | 2.5V | 00:00:00 | 00:00:00 | 00:00:00 | |
| DO3MHA-11 | 2026-09-03 12:55:20 | 50.77127 | 8.85551 | 128° | 173km/h | 10091m | -6.9m/s | -42.9°C | 86.9% | 276.9hPa | 2.5V | 00:00:00 | 02:37:27 | 00:00:00 | |
| DM0DOS-11 | 2026-09-03 12:55:19 | 50.77287 | 8.85224 | 127° | 175km/h | 10133m | -6.9m/s | -43.2°C | 85.6% | 275.1hPa | 2.5V | 08:03:42 | 02:37:21 | 00:00:00 | |
| BIOWL1-15 | 2026-09-03 12:55:19 | 50.77154 | 8.85497 | 128° | 172km/h | 10098m | -7m/s | -42.9°C | 81% | 276.6hPa | 2.5V | 08:03:48 | 02:37:26 | 00:00:00 | |
| DL1NUX | 2026-09-03 12:55:18 | 50.77234 | 8.85334 | 127° | 173km/h | 10119m | -7.1m/s | -43°C | 85.9% | 275.7hPa | 2.6V | 08:03:40 | 02:37:23 | 00:00:00 | |
| HSKMA3-T | 2026-09-03 12:55:14 | 50.77287 | 8.85224 | 127° | 175km/h | 10133m | -6.9m/s | -43.2°C | 80.4% | 275.1hPa | 2.5V | 08:03:48 | 02:37:21 | 00:00:00 | |
| BIOWL1-15 | 2026-09-03 12:55:14 | 50.77449 | 8.84890 | 127° | 175km/h | 10175m | -7.3m/s | -43.5°C | 80% | 273.4hPa | 2.5V | 08:03:48 | 02:37:15 | 00:00:00 | |
| DL1XH-west | 2026-09-03 12:55:13 | 50.77314 | 8.85168 | 128° | 175km/h | 10140m | -6.9m/s | -43.2°C | 80.3% | 274.8hPa | 2.5V | 08:03:48 | 02:37:20 | 00:00:00 | |
| DF8AY | 2026-09-03 12:55:12 | 50.77368 | 8.85057 | 128° | 175km/h | 10154m | -7.1m/s | 0°C | 0% | 0hPa | 2.6V | 18:12:15 | 02:37:18 | 00:00:00 | |
| DB0DAN | 2026-09-03 12:55:10 | 50.77395 | 8.85001 | 127° | 168km/h | 10161m | -7m/s | -43.4°C | 73.2% | 274.03hPa | 2.6V | 00:00:00 | 00:00:00 | 00:00:00 | |
| DJ8HS-15 | 2026-09-03 12:55:10 | 50.77395 | 8.85001 | 128° | 173km/h | 10161m | -7.0m/s | -43.4°C | 85.1% | 274.0hPa | 2.5V | 00:00:00 | 02:37:17 | 00:00:00 | |
| DB0ND-19 | 2026-09-03 12:55:09 | 50.77422 | 8.84946 | 127° | 175km/h | 10168m | -7.2m/s | -43.5°C | 73.4% | 273.7hPa | 2.5V | 00:00:00 | 00:00:00 | 00:00:00 | |
| DL9SK-14 | 2026-09-03 12:55:08 | 50.77476 | 8.84835 | 127° | 173km/h | 10183m | -7.2m/s | -43.6°C | 73.4% | 273.1hPa | 2.5V | 00:00:00 | 00:00:00 | 00:00:00 | |
| DO3MHA-11 | 2026-09-03 12:55:07 | 50.77475 | 8.84835 | 128° | 173km/h | 10183m | -7.2m/s | -43.5°C | 85.4% | 273.1hPa | 2.5V | 08:03:00 | 02:37:14 | 00:00:00 | |
| DM0DOS-11 | 2026-09-03 12:55:06 | 50.77555 | 8.84669 | 127° | 173km/h | 10204m | -7.4m/s | -43.7°C | 85.2% | 272.3hPa | 2.5V | 08:03:52 | 02:37:11 | 00:00:00 | |
| HSKMA3-T | 2026-09-03 12:55:04 | 50.77555 | 8.84669 | 127° | 173km/h | 10204m | -7.4m/s | -43.7°C | 80% | 272.3hPa | 2.5V | 08:04:39 | 02:37:11 | 00:00:00 | |
| DL1XH-west | 2026-09-03 12:55:02 | 50.77608 | 8.84559 | 127° | 173km/h | 10218m | -6.9m/s | -43.9°C | 80.3% | 271.7hPa | 2.5V | 08:04:39 | 02:37:09 | 00:00:00 | |
| DF8AY | 2026-09-03 12:55:01 | 50.77661 | 8.84448 | 127° | 173km/h | 10232m | -7.2m/s | 0°C | 0% | 0hPa | 2.6V | 18:12:15 | 02:37:07 | 00:00:00 | |
| DD1CC3-15 | 2026-09-03 12:55:00 | 50.77634 | 8.84503 | 128° | 173km/h | 10225m | -6.9m/s | -43.9°C | 73.4% | 271.3hPa | 2.6V | 08:04:00 | 00:00:00 | 00:00:00 | |
| NBG1-10 | 2026-09-03 12:54:59 | 50.77687 | 8.84392 | 127° | 173km/h | 10240m | -6.9m/s | -44.0°C | 85.5% | 270.8hPa | 2.6V | 00:00:00 | 02:37:06 | 00:00:00 | |
| DL1NUX | 2026-09-03 12:54:58 | 50.77765 | 8.84224 | 126° | 173km/h | 10260m | -7m/s | -44.2°C | 85.9% | 270hPa | 2.6V | 08:04:00 | 02:37:03 | 00:00:00 | |
| SONCRA | 2026-09-03 12:54:58 | 50.77713 | 8.84336 | 126° | 173km/h | 10246m | -7.1m/s | -44.1°C | 73.5% | 270.5hPa | 2.5V | 00:00:00 | 00:00:00 | 00:00:00 | |
| DJ2DS-15 | 2026-09-03 12:54:57 | 50.77739 | 8.84280 | 126° | 173km/h | 10254m | -7.0m/s | -44.1°C | 73.6% | 270.2hPa | 2.5V | 00:00:00 | 00:00:00 | 00:00:00 | |
| DM0DOS-11 | 2026-09-03 12:54:56 | 50.77817 | 8.84112 | 125° | 173km/h | 10275m | -7.1m/s | -44.3°C | 85.9% | 269.5hPa | 2.5V | 08:04:02 | 02:37:01 | 00:00:00 | |
| DB0DAN | 2026-09-03 12:54:55 | 50.77791 | 8.84168 | 126° | 166km/h | 10268m | -7.1m/s | -44.2°C | 73.6% | 269.75hPa | 2.6V | 00:00:00 | 00:00:00 | 00:00:00 | |
| HSKMA3-T | 2026-09-03 12:54:53 | 50.77843 | 8.84056 | 126° | 173km/h | 10282m | -7.2m/s | -44.4°C | 80.9% | 269.1hPa | 2.5V | 08:04:39 | 02:37:00 | 00:00:00 | |
| DL1XH-west | 2026-09-03 12:54:51 | 50.77894 | 8.83944 | 126° | 173km/h | 10296m | -7.2m/s | -44.5°C | 81.1% | 268.5hPa | 2.6V | 08:04:39 | 02:36:58 | 00:00:00 | |
| DF8AY | 2026-09-03 12:54:50 | 50.77920 | 8.83888 | 126° | 173km/h | 10303m | -6.9m/s | 0°C | 0% | 0hPa | 2.6V | 18:12:15 | 02:36:57 | 00:00:00 | |
| DJ8HS-15 | 2026-09-03 12:54:50 | 50.77919 | 8.83888 | 126° | 173km/h | 10303m | -6.8m/s | -44.5°C | 86.3% | 268.2hPa | 2.6V | 00:00:00 | 02:36:57 | 00:00:00 | |
| DL1LOL-11 | 2026-09-03 12:54:49 | 50.77920 | 8.83888 | 127° | 173km/h | 10303m | -6.9m/s | -44.6°C | 74.0% | 268.2hPa | 2.6V | 00:00:00 | 00:00:00 | 00:00:00 | |
| DL1NUX | 2026-09-03 12:54:48 | 50.78022 | 8.83663 | 125° | 173km/h | 10332m | -7m/s | -44.9°C | 86.3% | 267.1hPa | 2.6V | 08:04:10 | 02:36:53 | 00:00:00 | |
| DM0DOS-11 | 2026-09-03 12:54:46 | 50.78074 | 8.83550 | 125° | 175km/h | 10346m | -6.9m/s | -45°C | 86% | 266.5hPa | 2.5V | 08:04:12 | 02:36:51 | 00:00:00 | |
| BIOWL1-15 | 2026-09-03 12:54:46 | 50.78073 | 8.83550 | 126° | 175km/h | 10346m | -6.9m/s | -45°C | 80.7% | 266.5hPa | 2.5V | 08:04:39 | 02:36:51 | 00:00:00 | |
| HSKMA3-T | 2026-09-03 12:54:43 | 50.78099 | 8.83494 | 126° | 173km/h | 10353m | -7.1m/s | -45.1°C | 80.8% | 266.2hPa | 2.5V | 08:04:39 | 02:36:50 | 00:00:00 | |
| DF8AY | 2026-09-03 12:54:37 | 50.78279 | 8.83100 | 126° | 173km/h | 10403m | -7.2m/s | 0°C | 0% | 0hPa | 2.6V | 18:12:15 | 02:36:43 | 00:00:00 | |
| DM0DOS-11 | 2026-09-03 12:54:36 | 50.78330 | 8.82987 | 125° | 173km/h | 10417m | -7.1m/s | -45.7°C | 86.7% | 263.7hPa | 2.5V | 08:04:22 | 02:36:41 | 00:00:00 | |
| DL4BBY-15 | 2026-09-03 12:54:36 | 50.78279 | 8.83100 | 126° | 175km/h | 10403m | -7.1m/s | -47.7°C | 0% | 0hPa | 2.6V | 00:00:00 | 00:00:00 | 00:00:00 | |
| DO3MHA-12 | 2026-09-03 12:54:35 | 50.78305 | 8.83043 | 126° | 173km/h | 10410m | -7.0m/s | -45.5°C | 86.2% | 264.0hPa | 2.6V | 00:00:00 | 02:36:42 | 00:00:00 | |
| DD8BA-10 | 2026-09-03 12:54:34 | 50.78356 | 8.82931 | 126° | 175km/h | 10424m | -7.1m/s | -45.6°C | 86.5% | 263.4hPa | 2.5V | 00:00:00 | 00:00:00 | 00:00:00 | |
| BIOWL1-15 | 2026-09-03 12:54:34 | 50.78356 | 8.82931 | 126° | 173km/h | 10424m | -7.1m/s | -45.7°C | 81% | 263.5hPa | 2.5V | 08:04:39 | 02:36:40 | 00:00:00 | |
| DL8OAI-8 | 2026-09-03 12:54:33 | 50.78356 | 8.82931 | 127° | 173km/h | 10424m | -7.1m/s | -45.7°C | 73.8% | 263.5hPa | 2.6V | 08:04:00 | 00:00:00 | 00:00:00 | |
| HSKMA3-T | 2026-09-03 12:54:33 | 50.78381 | 8.82875 | 126° | 173km/h | 10431m | -6.9m/s | -45.7°C | 80.9% | 263.2hPa | 2.5V | 08:04:39 | 02:36:39 | 00:00:00 | |
| DJ2DS-15 | 2026-09-03 12:54:31 | 50.78407 | 8.82818 | 126° | 175km/h | 10438m | -7.0m/s | -45.8°C | 85.7% | 262.9hPa | 2.6V | 00:00:00 | 02:36:38 | 00:00:00 | |
| DJ8HS-15 | 2026-09-03 12:54:30 | 50.78432 | 8.82762 | 126° | 175km/h | 10445m | -7.0m/s | -45.9°C | 86.0% | 262.6hPa | 2.5V | 00:00:00 | 02:36:37 | 00:00:00 | |
| DO3DL | 2026-09-03 12:54:28 | 50.78458 | 8.82705 | 126° | 173km/h | 10452m | -7.2m/s | -46.0°C | 73.1% | 262.4hPa | 2.5V | 08:04:00 | 00:00:00 | 00:00:00 | |
| SONCRA | 2026-09-03 12:54:27 | 50.78509 | 8.82592 | 125° | 173km/h | 10466m | -7.0m/s | -46.0°C | 72.7% | 261.8hPa | 2.5V | 00:00:00 | 00:00:00 | 00:00:00 | |
| DM0DOS-11 | 2026-09-03 12:54:26 | 50.78585 | 8.82422 | 125° | 173km/h | 10487m | -7.3m/s | -46.3°C | 85.1% | 261hPa | 2.5V | 08:04:32 | 02:36:31 | 00:00:00 | |
| DL1XH-west | 2026-09-03 12:54:26 | 50.78534 | 8.82535 | 125° | 175km/h | 10473m | -7.2m/s | -46.1°C | 80.2% | 261.5hPa | 2.6V | 08:04:39 | 02:36:33 | 00:00:00 | |
| BIOWL1-15 | 2026-09-03 12:54:25 | 50.78611 | 8.82365 | 126° | 175km/h | 10495m | -7.3m/s | -46.4°C | 79.5% | 260.6hPa | 2.5V | 08:04:39 | 02:36:30 | 00:00:00 | |
| HSKMA3-T | 2026-09-03 12:54:21 | 50.78662 | 8.82252 | 126° | 175km/h | 10509m | -7m/s | -46.4°C | 79.4% | 260.1hPa | 2.6V | 08:04:39 | 02:36:28 | 00:00:00 | |
| DL1XH1-15 | 2026-09-03 12:54:19 | 50.78740 | 8.82082 | 125° | 175km/h | 10530m | -7.1m/s | -46.6°C | 84% | 259.3hPa | 2.5V | 08:04:38 | 02:36:25 | 00:00:00 | |
| DF7PN | 2026-09-03 12:54:19 | 50.78714 | 8.82139 | 125° | 175km/h | 10523m | -7.2m/s | -46.6°C | 71.6% | 259.6hPa | 2.6V | 00:00:00 | 00:00:00 | 00:00:00 | |
| DD1CC3-15 | 2026-09-03 12:54:18 | 50.78714 | 8.82139 | 127° | 175km/h | 10523m | -7.2m/s | -46.6°C | 71.7% | 259.6hPa | 2.6V | 08:04:00 | 00:00:00 | 00:00:00 | |
| DL1NUX | 2026-09-03 12:54:17 | 50.78792 | 8.81968 | 125° | 175km/h | 10544m | -6.9m/s | -46.8°C | 84.4% | 258.8hPa | 2.6V | 08:04:40 | 02:36:23 | 00:00:00 | |
| DF8AY | 2026-09-03 12:54:16 | 50.78871 | 8.81798 | 126° | 177km/h | 10564m | -7m/s | 0°C | 0% | 0hPa | 2.5V | 18:12:15 | 02:36:20 | 00:00:00 | |
| DL1XH-west | 2026-09-03 12:54:15 | 50.78818 | 8.81912 | 126° | 177km/h | 10551m | -7m/s | -46.8°C | 78.5% | 258.4hPa | 2.6V | 08:05:30 | 02:36:22 | 00:00:00 | |
| BIOWL1-15 | 2026-09-03 12:54:14 | 50.78897 | 8.81741 | 126° | 177km/h | 10571m | -7m/s | -47°C | 78.3% | 257.7hPa | 2.5V | 08:05:30 | 02:36:19 | 00:00:00 | |
| DL1XH1-15 | 2026-09-03 12:54:13 | 50.79003 | 8.81511 | 125° | 179km/h | 10600m | -7m/s | -47.3°C | 83.2% | 256.6hPa | 2.5V | 08:04:48 | 02:36:15 | 00:00:00 | |
| DL8OAI-8 | 2026-09-03 12:54:12 | 50.78871 | 8.81798 | 127° | 177km/h | 10565m | -7.0m/s | -47.0°C | 71.0% | 258.0hPa | 2.6V | 08:05:00 | 00:00:00 | 00:00:00 | |
| DL1NUX | 2026-09-03 12:54:11 | 50.79056 | 8.81396 | 126° | 179km/h | 10614m | -6.9m/s | -47.4°C | 83.9% | 256hPa | 2.6V | 08:04:50 | 02:36:13 | 00:00:00 | |
| HSKMA3-T | 2026-09-03 12:54:11 | 50.78924 | 8.81684 | 126° | 177km/h | 10579m | -7.1m/s | -47°C | 78.4% | 257.4hPa | 2.6V | 08:05:30 | 02:36:18 | 00:00:00 | |
| DL1XH-west | 2026-09-03 12:54:05 | 50.79083 | 8.81338 | 126° | 179km/h | 10621m | -7.1m/s | -47.4°C | 77.7% | 255.8hPa | 2.6V | 08:05:30 | 02:36:12 | 00:00:00 | |
| BIOWL1-15 | 2026-09-03 12:54:02 | 50.79245 | 8.80988 | 126° | 181km/h | 10664m | -7.2m/s | -47.7°C | 77.5% | 254.1hPa | 2.5V | 08:05:30 | 02:36:06 | 00:00:00 | |
| HSKMA3-T | 2026-09-03 12:54:00 | 50.79217 | 8.81047 | 126° | 183km/h | 10657m | -7.3m/s | -47.6°C | 77.5% | 254.4hPa | 2.6V | 08:05:30 | 02:36:07 | 00:00:00 | |
| DL1XH1-15 | 2026-09-03 12:53:59 | 50.79272 | 8.80930 | 126° | 183km/h | 10671m | -7.1m/s | -47.8°C | 81.7% | 253.8hPa | 2.5V | 08:04:58 | 02:36:05 | 00:00:00 | |
| DD1CC3-15 | 2026-09-03 12:53:58 | 50.79245 | 8.80988 | 127° | 181km/h | 10664m | -7.2m/s | -47.7°C | 69.4% | 254.1hPa | 2.6V | 08:05:00 | 00:00:00 | 00:00:00 | |
| DL1NUX | 2026-09-03 12:53:57 | 50.79326 | 8.80813 | 126° | 183km/h | 10685m | -7.3m/s | -47.9°C | 81.4% | 253.2hPa | 2.6V | 08:05:00 | 02:36:03 | 00:00:00 | |
| DM0DOS-11 | 2026-09-03 12:53:56 | 50.79380 | 8.80696 | 125° | 183km/h | 10700m | -7.2m/s | -48°C | 80.1% | 252.7hPa | 2.5V | 08:05:02 | 02:36:01 | 00:00:00 | |
| DL1XH-west | 2026-09-03 12:53:55 | 50.79353 | 8.80754 | 126° | 181km/h | 10693m | -7m/s | -48°C | 76.8% | 253hPa | 2.6V | 08:05:30 | 02:36:02 | 00:00:00 | |
| BIOWL1-15 | 2026-09-03 12:53:54 | 50.79488 | 8.80460 | 126° | 183km/h | 10729m | -7.4m/s | -48.3°C | 75.2% | 251.6hPa | 2.6V | 08:05:30 | 02:35:57 | 00:00:00 | |
| DL1XH1-15 | 2026-09-03 12:53:53 | 50.79543 | 8.80343 | 126° | 183km/h | 10743m | -6.9m/s | -48.4°C | 78.9% | 251.1hPa | 2.5V | 08:05:08 | 02:35:55 | 00:00:00 | |
| NBG1-10 | 2026-09-03 12:53:53 | 50.79407 | 8.80637 | 127° | 181km/h | 10707m | -7.1m/s | -48.1°C | 80.0% | 252.4hPa | 2.5V | 08:05:00 | 02:36:00 | 00:00:00 | |
| DL8OAI-8 | 2026-09-03 12:53:52 | 50.79407 | 8.80637 | 127° | 183km/h | 10707m | -7.1m/s | -48.2°C | 67.2% | 252.4hPa | 2.6V | 08:05:00 | 00:00:00 | 00:00:00 | |
| DL1NUX | 2026-09-03 12:53:51 | 50.79597 | 8.80226 | 126° | 181km/h | 10757m | -7.2m/s | -48.5°C | 80% | 250.5hPa | 2.6V | 08:05:10 | 02:35:53 | 00:00:00 | |
| HSKMA3-T | 2026-09-03 12:53:49 | 50.79516 | 8.80401 | 126° | 183km/h | 10736m | -7m/s | -48.3°C | 75% | 251.3hPa | 2.5V | 08:05:30 | 02:35:56 | 00:00:00 | |
| DF7PN | 2026-09-03 12:53:48 | 50.79543 | 8.80343 | 126° | 181km/h | 10743m | -6.9m/s | -48.4°C | 66.2% | 251.1hPa | 2.5V | 00:00:00 | 00:00:00 | 00:00:00 | |
| DM0DOS-11 | 2026-09-03 12:53:46 | 50.79651 | 8.80109 | 125° | 183km/h | 10771m | -7.1m/s | -48.6°C | 80.6% | 249.9hPa | 2.5V | 08:05:12 | 02:35:51 | 00:00:00 | |
| DL1XH-west | 2026-09-03 12:53:45 | 50.79624 | 8.80167 | 126° | 181km/h | 10764m | -7m/s | -48.6°C | 75.2% | 250.2hPa | 2.6V | 08:05:30 | 02:35:52 | 00:00:00 | |
| BIOWL1-15 | 2026-09-03 12:53:39 | 50.79839 | 8.79696 | 126° | 183km/h | 10821m | -7.1m/s | -49.2°C | 75.7% | 248.2hPa | 2.5V | 08:05:30 | 02:35:44 | 00:00:00 | |
| DL1XH1-15 | 2026-09-03 12:53:39 | 50.79812 | 8.79755 | 125° | 183km/h | 10814m | -6.8m/s | -49°C | 80.4% | 248.4hPa | 2.5V | 08:05:18 | 02:35:45 | 00:00:00 | |
| HSKMA3-T | 2026-09-03 12:53:38 | 50.79812 | 8.79755 | 126° | 183km/h | 10814m | -6.8m/s | -49.1°C | 76% | 248.4hPa | 2.5V | 08:05:30 | 02:35:45 | 00:00:00 | |
| DL1NUX | 2026-09-03 12:53:38 | 50.79866 | 8.79637 | 125° | 181km/h | 10828m | -7.2m/s | -49.2°C | 80.4% | 247.8hPa | 2.6V | 08:05:20 | 02:35:43 | 00:00:00 | |
| DM0DOS-11 | 2026-09-03 12:53:36 | 50.79919 | 8.79520 | 125° | 181km/h | 10842m | -7.1m/s | -49.3°C | 79.4% | 247.3hPa | 2.5V | 08:05:22 | 02:35:41 | 00:00:00 | |
| DL1XH-west | 2026-09-03 12:53:35 | 50.79893 | 8.79579 | 126° | 181km/h | 10835m | -6.9m/s | -49.2°C | 75% | 247.6hPa | 2.6V | 08:05:30 | 02:35:42 | 00:00:00 | |
| DJ2KF-10 | 2026-09-03 12:53:35 | 50.79892 | 8.79579 | 126° | 179km/h | 10835m | -6.9m/s | -49.2°C | 79.9% | 247.5hPa | 2.5V | 00:00:00 | 02:35:42 | 00:00:00 | |
| DD8BA-10 | 2026-09-03 12:53:34 | 50.79919 | 8.79520 | 126° | 181km/h | 10842m | -7.1m/s | -49.3°C | 79.4% | 247.2hPa | 2.5V | 00:00:00 | 00:00:00 | 00:00:00 | |
| DL1XH1-15 | 2026-09-03 12:53:33 | 50.80081 | 8.79172 | 126° | 181km/h | 10884m | -7.1m/s | -49.7°C | 77.5% | 245.7hPa | 2.5V | 08:05:28 | 02:35:35 | 00:00:00 | |
| BIOWL1-15 | 2026-09-03 12:53:28 | 50.80108 | 8.79114 | 126° | 181km/h | 10891m | -6.8m/s | -49.7°C | 72.6% | 245.5hPa | 2.5V | 08:05:30 | 02:35:34 | 00:00:00 | |
| HSKMA3-T | 2026-09-03 12:53:28 | 50.80081 | 8.79172 | 126° | 181km/h | 10884m | -7.1m/s | -49.7°C | 72.9% | 245.7hPa | 2.5V | 08:05:30 | 02:35:35 | 00:00:00 | |
| DL1NUX | 2026-09-03 12:53:27 | 50.80135 | 8.79056 | 126° | 181km/h | 10898m | -6.9m/s | -49.8°C | 77.2% | 245.2hPa | 2.6V | 08:05:30 | 02:35:33 | 00:00:00 | |
| DM0DOS-11 | 2026-09-03 12:53:26 | 50.80188 | 8.78940 | 126° | 179km/h | 10912m | -7m/s | -50°C | 76.6% | 244.7hPa | 2.5V | 08:05:32 | 02:35:31 | 00:00:00 | |
| DL1XH-west | 2026-09-03 12:53:25 | 50.80161 | 8.78998 | 126° | 179km/h | 10905m | -7.1m/s | -49.9°C | 72.1% | 244.9hPa | 2.6V | 08:06:21 | 02:35:32 | 00:00:00 | |
| DO3MHA-12 | 2026-09-03 12:53:25 | 50.80161 | 8.78998 | 126° | 179km/h | 10905m | -7.0m/s | -49.8°C | 76.7% | 244.8hPa | 2.5V | 00:00:00 | 02:35:32 | 00:00:00 | |
| DD8BA-10 | 2026-09-03 12:53:24 | 50.80188 | 8.78940 | 127° | 179km/h | 10912m | -6.9m/s | -49.9°C | 76.6% | 244.6hPa | 2.5V | 08:05:00 | 00:00:00 | 00:00:00 | |
| DO3DL | 2026-09-03 12:53:22 | 50.80215 | 8.78882 | 127° | 179km/h | 10919m | -7.2m/s | -50.0°C | 63.2% | 244.4hPa | 2.6V | 08:06:00 | 00:00:00 | 00:00:00 | |
| DL1NUX | 2026-09-03 12:53:21 | 50.80399 | 8.78478 | 125° | 179km/h | 10968m | -7.1m/s | -50.5°C | 76.1% | 242.5hPa | 2.6V | 08:05:40 | 02:35:23 | 00:00:00 | |
| DF8AY | 2026-09-03 12:53:20 | 50.80293 | 8.78709 | 126° | 179km/h | 10940m | -6.7m/s | 0°C | 0% | 0hPa | 2.6V | 18:12:15 | 02:35:27 | 00:00:00 | |
| DL1XH1-15 | 2026-09-03 12:53:19 | 50.80346 | 8.78594 | 125° | 179km/h | 10954m | -7.5m/s | -50.3°C | 75.7% | 243.1hPa | 2.5V | 08:05:38 | 02:35:25 | 00:00:00 | |
| BIOWL1-15 | 2026-09-03 12:53:18 | 50.80399 | 8.78478 | 126° | 179km/h | 10969m | -7.1m/s | -50.5°C | 71.4% | 242.6hPa | 2.6V | 08:06:21 | 02:35:23 | 00:00:00 | |
| HSKMA3-T | 2026-09-03 12:53:17 | 50.80372 | 8.78536 | 126° | 179km/h | 10961m | -7.4m/s | -50.4°C | 71.4% | 242.8hPa | 2.5V | 08:06:21 | 02:35:24 | 00:00:00 | |
| DL1XH-west | 2026-09-03 12:53:15 | 50.80425 | 8.78420 | 126° | 179km/h | 10976m | -7m/s | -50.5°C | 71.4% | 242.3hPa | 2.6V | 08:06:21 | 02:35:22 | 00:00:00 | |
| DM0DOS-11 | 2026-09-03 12:53:14 | 50.80452 | 8.78362 | 125° | 179km/h | 10983m | -6.9m/s | -50.6°C | 76.1% | 242hPa | 2.5V | 08:05:42 | 02:35:21 | 00:00:00 | |
| DD8BA-10 | 2026-09-03 12:53:14 | 50.80452 | 8.78362 | 126° | 179km/h | 10983m | -6.9m/s | -50.5°C | 76.1% | 242.0hPa | 2.5V | 00:00:00 | 00:00:00 | 00:00:00 | |
| DL1XH1-15 | 2026-09-03 12:53:13 | 50.80611 | 8.78015 | 125° | 179km/h | 11025m | -7m/s | -51°C | 75.6% | 240.4hPa | 2.5V | 08:05:48 | 02:35:15 | 00:00:00 | |
| BIOWL1-15 | 2026-09-03 12:53:08 | 50.80611 | 8.78015 | 126° | 179km/h | 11025m | -7m/s | -51°C | 71% | 240.4hPa | 2.5V | 08:06:21 | 02:35:15 | 00:00:00 | |
| DM0DOS-11 | 2026-09-03 12:53:07 | 50.80717 | 8.77783 | 126° | 179km/h | 11053m | -7m/s | -51.2°C | 75.1% | 239.5hPa | 2.5V | 08:05:52 | 02:35:11 | 00:00:00 | |
| DL1NUX | 2026-09-03 12:53:07 | 50.80664 | 8.77899 | 125° | 179km/h | 11039m | -7.1m/s | -51.1°C | 75.1% | 240hPa | 2.6V | 08:05:50 | 02:35:13 | 00:00:00 | |
| HSKMA3-T | 2026-09-03 12:53:07 | 50.80637 | 8.77957 | 126° | 179km/h | 11032m | -7m/s | -51.1°C | 70.8% | 240.2hPa | 2.5V | 08:06:21 | 02:35:14 | 00:00:00 | |
| DL1XH-west | 2026-09-03 12:53:05 | 50.80690 | 8.77841 | 126° | 179km/h | 11046m | -7.2m/s | -51.2°C | 70.6% | 239.7hPa | 2.6V | 08:06:21 | 02:35:12 | 00:00:00 | |
| DO3MHA-12 | 2026-09-03 12:53:05 | 50.80690 | 8.77841 | 127° | 179km/h | 11046m | -7.1m/s | -51.2°C | 75.4% | 239.6hPa | 2.6V | 00:00:00 | 02:35:12 | 00:00:00 | |
| DB0UT-7 | 2026-09-03 12:53:03 | 50.80743 | 8.77725 | 127° | 183km/h | 11060m | -7.2m/s | -51.3°C | 75.0% | 239.1hPa | 2.6V | 00:00:00 | 00:00:00 | 00:00:00 | |
| DL8DAS-14 | 2026-09-03 12:53:02 | 50.80797 | 8.77610 | 126° | 179km/h | 11074m | -7.0m/s | -51.5°C | 61.5% | 238.7hPa | 2.6V | 00:00:00 | 00:00:00 | 00:00:00 | |
| DL1NUX | 2026-09-03 12:53:01 | 50.80932 | 8.77321 | 126° | 179km/h | 11110m | -7.1m/s | -51.8°C | 74% | 237.3hPa | 2.6V | 08:06:00 | 02:35:03 | 00:00:00 | |
| DL1XH1-15 | 2026-09-03 12:52:59 | 50.80878 | 8.77436 | 126° | 179km/h | 11096m | -7.2m/s | -51.6°C | 74.2% | 237.8hPa | 2.5V | 08:05:58 | 02:35:05 | 00:00:00 | |
| BIOWL1-15 | 2026-09-03 12:52:58 | 50.80878 | 8.77436 | 127° | 179km/h | 11096m | -7.2m/s | -51.6°C | 69.5% | 237.8hPa | 2.5V | 08:06:21 | 02:35:05 | 00:00:00 | |
| HSKMA3-T | 2026-09-03 12:52:57 | 50.80905 | 8.77379 | 127° | 179km/h | 11103m | -7m/s | -51.7°C | 69.2% | 237.6hPa | 2.5V | 08:06:21 | 02:35:04 | 00:00:00 | |
| DM0DOS-11 | 2026-09-03 12:52:55 | 50.80987 | 8.77207 | 126° | 179km/h | 11124m | -6.9m/s | -51.9°C | 73.7% | 236.8hPa | 2.5V | 08:06:02 | 02:35:01 | 00:00:00 | |
| DB0DAN | 2026-09-03 12:52:55 | 50.80959 | 8.77264 | 127° | 172km/h | 11117m | -7.1m/s | -51.8°C | 60.3% | 237.04hPa | 2.6V | 00:00:00 | 00:00:00 | 00:00:00 | |
| DL1XH-west | 2026-09-03 12:52:54 | 50.80987 | 8.77207 | 127° | 179km/h | 11124m | -6.9m/s | -51.9°C | 68.9% | 236.8hPa | 2.5V | 08:06:21 | 02:35:01 | 00:00:00 | |
| SONCRA | 2026-09-03 12:52:54 | 50.80987 | 8.77207 | 126° | 179km/h | 11124m | -6.9m/s | -51.9°C | 60.4% | 236.8hPa | 2.5V | 00:00:00 | 00:00:00 | 00:00:00 | |
| DL1XH1-15 | 2026-09-03 12:52:53 | 50.81153 | 8.76860 | 127° | 183km/h | 11167m | -7.3m/s | -52.3°C | 74.1% | 235.3hPa | 2.5V | 08:06:08 | 02:34:55 | 00:00:00 | |
| BIOWL1-15 | 2026-09-03 12:52:48 | 50.81153 | 8.76860 | 128° | 183km/h | 11167m | -7.3m/s | -52.3°C | 69% | 235.3hPa | 2.5V | 08:06:21 | 02:34:55 | 00:00:00 | |
| DL1NUX | 2026-09-03 12:52:47 | 50.81210 | 8.76744 | 127° | 183km/h | 11181m | -6.8m/s | -52.4°C | 73.5% | 234.7hPa | 2.6V | 08:06:10 | 02:34:53 | 00:00:00 | |
| DM0DOS-11 | 2026-09-03 12:52:47 | 50.81266 | 8.76627 | 127° | 183km/h | 11195m | -7m/s | -52.6°C | 74.1% | 234.2hPa | 2.5V | 08:06:12 | 02:34:51 | 00:00:00 | |
| HSKMA3-T | 2026-09-03 12:52:47 | 50.81181 | 8.76802 | 127° | 184km/h | 11175m | -7m/s | -52.3°C | 69% | 235hPa | 2.5V | 08:06:21 | 02:34:54 | 00:00:00 | |
| DF7PN | 2026-09-03 12:52:46 | 50.81238 | 8.76685 | 127° | 183km/h | 11188m | -7.1m/s | -52.5°C | 60.2% | 234.5hPa | 2.5V | 00:00:00 | 00:00:00 | 00:00:00 | |
| DL1XH-west | 2026-09-03 12:52:44 | 50.81266 | 8.76627 | 127° | 183km/h | 11195m | -7m/s | -52.6°C | 69.1% | 234.2hPa | 2.5V | 08:06:21 | 02:34:51 | 00:00:00 | |
| DD8BA-10 | 2026-09-03 12:52:43 | 50.81293 | 8.76569 | 128° | 188km/h | 11203m | -7.1m/s | -52.5°C | 73.7% | 233.9hPa | 2.6V | 00:00:00 | 00:00:00 | 00:00:00 | |
| DL1NUX | 2026-09-03 12:52:41 | 50.81490 | 8.76158 | 127° | 184km/h | 11253m | -7m/s | -53.1°C | 71.8% | 232.2hPa | 2.6V | 08:06:20 | 02:34:43 | 00:00:00 | |
| DB0DAN | 2026-09-03 12:52:40 | 50.81377 | 8.76394 | 127° | 175km/h | 11224m | -7.3m/s | -52.8°C | 58.4% | 233.21hPa | 2.6V | 00:00:00 | 00:00:00 | 00:00:00 | |
| BIOWL1-15 | 2026-09-03 12:52:38 | 50.81433 | 8.76276 | 127° | 184km/h | 11239m | -7.3m/s | -52.9°C | 67.8% | 232.7hPa | 2.5V | 08:06:21 | 02:34:45 | 00:00:00 | |
| HSKMA3-T | 2026-09-03 12:52:37 | 50.81462 | 8.76217 | 127° | 184km/h | 11246m | -7.1m/s | -53°C | 67.7% | 232.4hPa | 2.5V | 08:06:21 | 02:34:44 | 00:00:00 | |
| DM0DOS-11 | 2026-09-03 12:52:35 | 50.81547 | 8.76041 | 127° | 186km/h | 11267m | -7.1m/s | -53.1°C | 72.8% | 231.7hPa | 2.5V | 08:06:22 | 02:34:41 | 00:00:00 | |
| DL1XH-west | 2026-09-03 12:52:34 | 50.81547 | 8.76041 | 128° | 186km/h | 11267m | -7.1m/s | -53.1°C | 67.6% | 231.7hPa | 2.5V | 08:07:12 | 02:34:41 | 00:00:00 | |
| DL1XH1-15 | 2026-09-03 12:52:33 | 50.81721 | 8.75685 | 127° | 190km/h | 11309m | -7m/s | -53.5°C | 73.8% | 230.2hPa | 2.5V | 08:06:28 | 02:34:35 | 00:00:00 | |
| BIOWL1-15 | 2026-09-03 12:52:31 | 50.81750 | 8.75625 | 127° | 190km/h | 11316m | -6.9m/s | -53.6°C | 67.8% | 229.9hPa | 2.5V | 08:07:12 | 02:34:34 | 00:00:00 | |
| DL8DAS-14 | 2026-09-03 12:52:31 | 50.81662 | 8.75804 | 127° | 188km/h | 11295m | -7.0m/s | -53.3°C | 59.9% | 230.7hPa | 2.5V | 00:00:00 | 00:00:00 | 00:00:00 | |
| DJ8HS-15 | 2026-09-03 12:52:30 | 50.81662 | 8.75804 | 128° | 192km/h | 11296m | -7.0m/s | -53.3°C | 73.6% | 230.6hPa | 2.5V | 00:00:00 | 02:34:37 | 00:00:00 | |
| DM0DOS-11 | 2026-09-03 12:52:28 | 50.81837 | 8.75444 | 127° | 192km/h | 11337m | -7.3m/s | -53.8°C | 72.2% | 229.2hPa | 2.5V | 08:06:32 | 02:34:31 | 00:00:00 | |
| DL1NUX | 2026-09-03 12:52:28 | 50.81779 | 8.75565 | 127° | 190km/h | 11323m | -7.1m/s | -53.6°C | 72.8% | 229.6hPa | 2.6V | 08:06:30 | 02:34:33 | 00:00:00 | |
| HSKMA3-T | 2026-09-03 12:52:26 | 50.81779 | 8.75565 | 127° | 190km/h | 11323m | -7.1m/s | -53.6°C | 67.7% | 229.6hPa | 2.6V | 08:07:12 | 02:34:33 | 00:00:00 | |
| DO9LL-15 | 2026-09-03 12:52:25 | 50.81808 | 8.75504 | 128° | 193km/h | 11330m | -6.9m/s | -53.6°C | 72.2% | 229.4hPa | 2.6V | 00:00:00 | 02:34:32 | 00:00:00 | |
| SONCRA | 2026-09-03 12:52:23 | 50.81866 | 8.75383 | 127° | 190km/h | 11344m | -7.2m/s | -53.8°C | 58.7% | 228.9hPa | 2.5V | 00:00:00 | 00:00:00 | 00:00:00 | |
| DL1XH-west | 2026-09-03 12:52:23 | 50.81866 | 8.75383 | 128° | 190km/h | 11344m | -7.2m/s | -53.8°C | 67.4% | 228.9hPa | 2.5V | 08:07:12 | 02:34:30 | 00:00:00 | |
| DL8DAS-15 | 2026-09-03 12:52:21 | 50.81896 | 8.75323 | 129° | 192km/h | 11352m | -7.1m/s | -53.8°C | 58.7% | 228.6hPa | 2.5V | 00:00:00 | 00:00:00 | 00:00:00 | |
| DL1XH1-15 | 2026-09-03 12:52:19 | 50.82015 | 8.75081 | 127° | 192km/h | 11380m | -7.4m/s | -54°C | 71.7% | 227.6hPa | 2.5V | 08:06:38 | 02:34:25 | 00:00:00 | |
| DM0DOS-11 | 2026-09-03 12:52:17 | 50.82134 | 8.74838 | 127° | 193km/h | 11408m | -7m/s | -54.2°C | 70.8% | 226.6hPa | 2.5V | 08:06:42 | 02:34:21 | 00:00:00 | |
| DL1NUX | 2026-09-03 12:52:17 | 50.82074 | 8.74960 | 127° | 192km/h | 11394m | -7.1m/s | -54.2°C | 71.3% | 227.1hPa | 2.6V | 08:06:40 | 02:34:23 | 00:00:00 | |
| HSKMA3-T | 2026-09-03 12:52:16 | 50.82074 | 8.74960 | 128° | 192km/h | 11394m | -7.1m/s | -54.2°C | 66.8% | 227.1hPa | 2.6V | 08:07:12 | 02:34:23 | 00:00:00 | |
| DO3MHA-12 | 2026-09-03 12:52:15 | 50.82104 | 8.74899 | 128° | 193km/h | 11401m | -7.1m/s | -54.2°C | 71.4% | 226.8hPa | 2.5V | 00:00:00 | 02:34:22 | 00:00:00 | |
| DL1XH1-15 | 2026-09-03 12:52:13 | 50.82312 | 8.74470 | 127° | 193km/h | 11452m | -7.2m/s | -54.7°C | 69.8% | 225.1hPa | 2.5V | 08:06:48 | 02:34:15 | 00:00:00 | |
| DL1XH-west | 2026-09-03 12:52:12 | 50.82193 | 8.74716 | 127° | 193km/h | 11423m | -7.5m/s | -54.5°C | 66.3% | 226.1hPa | 2.5V | 08:07:12 | 02:34:19 | 00:00:00 | |
| DJ2DS-15 | 2026-09-03 12:52:11 | 50.82222 | 8.74654 | 128° | 193km/h | 11430m | -7.2m/s | -54.4°C | 70.2% | 225.8hPa | 2.5V | 00:00:00 | 02:34:18 | 00:00:00 | |
| DJ8HS-15 | 2026-09-03 12:52:10 | 50.82252 | 8.74592 | 128° | 193km/h | 11438m | -7.3m/s | -54.5°C | 70.2% | 225.6hPa | 2.5V | 00:00:00 | 02:34:17 | 00:00:00 | |
| DM0DOS-11 | 2026-09-03 12:52:09 | 50.82434 | 8.74225 | 128° | 195km/h | 11481m | -7m/s | -54.9°C | 69.3% | 224.1hPa | 2.5V | 08:06:52 | 02:34:11 | 00:00:00 | |
| BIOWL1-15 | 2026-09-03 12:52:05 | 50.82434 | 8.74225 | 129° | 195km/h | 11481m | -7m/s | -54.9°C | 64.6% | 224.1hPa | 2.5V | 08:07:12 | 02:34:11 | 00:00:00 | |
| HSKMA3-T | 2026-09-03 12:52:05 | 50.82403 | 8.74286 | 128° | 195km/h | 11474m | -7.3m/s | -54.9°C | 64.8% | 224.3hPa | 2.6V | 08:07:12 | 02:34:12 | 00:00:00 | |
| DL1XH-west | 2026-09-03 12:52:02 | 50.82495 | 8.74103 | 128° | 193km/h | 11496m | -7.1m/s | -55°C | 64.3% | 223.6hPa | 2.5V | 08:07:12 | 02:34:09 | 00:00:00 | |
| DL3AQ-11 | 2026-09-03 12:52:02 | 50.82525 | 8.74042 | 128° | 193km/h | 11503m | -7.0m/s | -55.1°C | 54.5% | 223.3hPa | 2.5V | 00:00:00 | 00:00:00 | 00:00:00 | |
| DL9SK-14 | 2026-09-03 12:52:01 | 50.82556 | 8.73982 | 128° | 192km/h | 11510m | -7.0m/s | -55.2°C | 54.8% | 223.1hPa | 2.5V | 00:00:00 | 00:00:00 | 00:00:00 | |
| DL8DAS-14 | 2026-09-03 12:52:00 | 50.82586 | 8.73921 | 128° | 192km/h | 11517m | -7.3m/s | -55.2°C | 54.3% | 222.8hPa | 2.5V | 00:00:00 | 00:00:00 | 00:00:00 | |
| DM0DOS-11 | 2026-09-03 12:51:59 | 50.82735 | 8.73619 | 128° | 192km/h | 11553m | -7.3m/s | -55.6°C | 67.3% | 221.6hPa | 2.5V | 08:07:02 | 02:34:01 | 00:00:00 | |
| HSKMA3-T | 2026-09-03 12:51:55 | 50.82706 | 8.73680 | 128° | 192km/h | 11546m | -7.1m/s | -55.5°C | 62.9% | 221.8hPa | 2.6V | 08:07:12 | 02:34:02 | 00:00:00 | |
| BIOWL1-15 | 2026-09-03 12:51:54 | 50.82736 | 8.73619 | 128° | 192km/h | 11554m | -7.3m/s | -55.6°C | 63% | 221.6hPa | 2.5V | 08:07:12 | 02:34:01 | 00:00:00 | |
| DL1XH1-15 | 2026-09-03 12:51:53 | 50.82919 | 8.73258 | 129° | 193km/h | 11598m | -7.4m/s | -56°C | 67.8% | 220hPa | 2.5V | 08:07:08 | 02:33:55 | 00:00:00 | |
| DL1XH-west | 2026-09-03 12:51:51 | 50.82826 | 8.73438 | 129° | 193km/h | 11576m | -7.4m/s | -55.7°C | 63% | 220.8hPa | 2.6V | 08:07:12 | 02:33:58 | 00:00:00 | |
| DL3AQ-11 | 2026-09-03 12:51:46 | 50.83011 | 8.73078 | 129° | 192km/h | 11620m | -7.6m/s | -56.1°C | 54.0% | 219.3hPa | 2.5V | 00:00:00 | 00:00:00 | 00:00:00 | |
| BIOWL1-15 | 2026-09-03 12:51:45 | 50.83073 | 8.72959 | 129° | 192km/h | 11635m | -7.5m/s | -56.3°C | 63.1% | 218.7hPa | 2.5V | 08:08:03 | 02:33:50 | 00:00:00 | |
| HSKMA3-T | 2026-09-03 12:51:44 | 50.83042 | 8.73018 | 129° | 192km/h | 11628m | -7.3m/s | -56.2°C | 63% | 219hPa | 2.5V | 08:07:12 | 02:33:51 | 00:00:00 | |
| DF7PN | 2026-09-03 12:51:44 | 50.83073 | 8.72959 | 129° | 192km/h | 11635m | -7.5m/s | -56.3°C | 54.0% | 218.7hPa | 2.6V | 00:00:00 | 00:00:00 | 00:00:00 | |
| DO3DL | 2026-09-03 12:51:42 | 50.83073 | 8.72959 | 130° | 192km/h | 11635m | -7.5m/s | -56.3°C | 54.0% | 218.7hPa | 2.6V | 00:00:00 | 00:00:00 | 00:00:00 | |
| DL1NUX | 2026-09-03 12:51:41 | 50.83289 | 8.72548 | 129° | 192km/h | 11688m | -7.6m/s | -56.7°C | 69.8% | 216.9hPa | 2.6V | 08:07:20 | 02:33:43 | 00:00:00 | |
| DL1XH-west | 2026-09-03 12:51:41 | 50.83135 | 8.72841 | 130° | 192km/h | 11650m | -7.3m/s | -56.4°C | 63.2% | 218.2hPa | 2.6V | 08:08:03 | 02:33:48 | 00:00:00 | |
| HSKMA3-T | 2026-09-03 12:51:34 | 50.83350 | 8.72430 | 129° | 192km/h | 11703m | -7.5m/s | -56.9°C | 63.7% | 216.4hPa | 2.5V | 08:08:03 | 02:33:41 | 00:00:00 | |
| DO3MHA-11 | 2026-09-03 12:51:34 | 50.83350 | 8.72430 | 130° | 193km/h | 11703m | -7.5m/s | -56.9°C | 69.4% | 216.3hPa | 2.5V | 00:00:00 | 02:33:41 | 00:00:00 | |
| DL1XH1-15 | 2026-09-03 12:51:33 | 50.83538 | 8.72075 | 130° | 195km/h | 11749m | -7.5m/s | -57.4°C | 69.2% | 214.8hPa | 2.5V | 08:07:28 | 02:33:35 | 00:00:00 | |
| BIOWL1-15 | 2026-09-03 12:51:33 | 50.83475 | 8.72193 | 130° | 193km/h | 11734m | -7.3m/s | -57.2°C | 63.3% | 215.4hPa | 2.6V | 08:08:03 | 02:33:37 | 00:00:00 | |
| DL1XH-west | 2026-09-03 12:51:31 | 50.83443 | 8.72252 | 130° | 193km/h | 11726m | -7.6m/s | -57.1°C | 63.5% | 215.6hPa | 2.6V | 08:08:03 | 02:33:38 | 00:00:00 | |
| DJ2DS-15 | 2026-09-03 12:51:31 | 50.83443 | 8.72252 | 130° | 192km/h | 11726m | -7.6m/s | -57.1°C | 69.4% | 215.6hPa | 2.6V | 00:00:00 | 02:33:38 | 00:00:00 | |
| DJ8HS-15 | 2026-09-03 12:51:30 | 50.83475 | 8.72193 | 131° | 192km/h | 11734m | -7.3m/s | -57.2°C | 69.3% | 215.3hPa | 2.5V | 00:00:00 | 02:33:37 | 00:00:00 | |
| DM0DOS-11 | 2026-09-03 12:51:29 | 50.83667 | 8.71841 | 130° | 193km/h | 11779m | -7.8m/s | -57.6°C | 68.9% | 213.8hPa | 2.5V | 08:07:32 | 02:33:31 | 00:00:00 | |
| AA1-15 | 2026-09-03 12:51:29 | 50.83506 | 8.72134 | 130° | 193km/h | 11741m | -7.5m/s | -57.3°C | 63.3% | 215.1hPa | 2.5V | 08:10:36 | 02:33:36 | 00:00:00 | |
| HSKMA3-T | 2026-09-03 12:51:23 | 50.83698 | 8.71783 | 131° | 192km/h | 11787m | -7.9m/s | -57.7°C | 62.1% | 213.5hPa | 2.5V | 08:08:03 | 02:33:30 | 00:00:00 | |
| BIOWL1-15 | 2026-09-03 12:51:22 | 50.83823 | 8.71552 | 130° | 188km/h | 11818m | -8m/s | -57.9°C | 61% | 212.5hPa | 2.5V | 08:08:03 | 02:33:26 | 00:00:00 | |
| DL1XH-west | 2026-09-03 12:51:20 | 50.83792 | 8.71609 | 130° | 190km/h | 11810m | -7.8m/s | -57.9°C | 61.3% | 212.8hPa | 2.6V | 08:08:03 | 02:33:27 | 00:00:00 | |
| DL1XH1-15 | 2026-09-03 12:51:19 | 50.83854 | 8.71494 | 129° | 188km/h | 11826m | -7.8m/s | -58°C | 68.1% | 212.2hPa | 2.5V | 08:07:38 | 02:33:25 | 00:00:00 | |
| DD8BA-10 | 2026-09-03 12:51:18 | 50.83853 | 8.71494 | 130° | 190km/h | 11826m | -7.7m/s | -58.0°C | 68.1% | 212.2hPa | 2.5V | 00:00:00 | 00:00:00 | 00:00:00 | |
| DO3DL | 2026-09-03 12:51:17 | 50.83853 | 8.71494 | 131° | 188km/h | 11826m | -7.8m/s | -58.0°C | 53.5% | 212.2hPa | 2.5V | 00:00:00 | 00:00:00 | 00:00:00 | |
| DO3MHA-11 | 2026-09-03 12:51:15 | 50.83975 | 8.71262 | 130° | 190km/h | 11857m | -7.7m/s | -58.1°C | 67.6% | 211.2hPa | 2.5V | 00:00:00 | 02:33:21 | 00:00:00 | |
| DL4XJ-10 | 2026-09-03 12:51:14 | 50.83975 | 8.71262 | 130° | 186km/h | 11857m | -7.7m/s | -60.4°C | 0% | 0hPa | 2.5V | 00:00:00 | 00:00:00 | 00:00:00 | |
| BIOWL9-15 | 2026-09-03 12:51:13 | 50.84006 | 8.71203 | 129° | 190km/h | 11865m | -7.6m/s | -58.3°C | 52.3% | 210.9hPa | 2.5V | 00:00:00 | 00:00:00 | 00:00:00 | |
| DL1XH1-15 | 2026-09-03 12:51:12 | 50.84156 | 8.70906 | 128° | 190km/h | 11905m | -7.9m/s | -58.4°C | 66% | 209.6hPa | 2.5V | 08:07:48 | 02:33:15 | 00:00:00 | |
| HSKMA3-T | 2026-09-03 12:51:12 | 50.84036 | 8.71144 | 129° | 190km/h | 11873m | -8m/s | -58.3°C | 60.2% | 210.7hPa | 2.5V | 08:08:03 | 02:33:19 | 00:00:00 | |
| BIOWL1-15 | 2026-09-03 12:51:11 | 50.84066 | 8.71085 | 129° | 192km/h | 11881m | -8m/s | -58.4°C | 60% | 210.4hPa | 2.6V | 08:08:03 | 02:33:18 | 00:00:00 | |
| DL1XH-west | 2026-09-03 12:51:10 | 50.84096 | 8.71025 | 129° | 192km/h | 11889m | -8m/s | -58.4°C | 59.8% | 210.2hPa | 2.6V | 08:08:03 | 02:33:17 | 00:00:00 | |
| BIOWL1-15 | 2026-09-03 12:51:03 | 50.84357 | 8.70492 | 127° | 183km/h | 11960m | -7.4m/s | -58.7°C | 58.8% | 207.8hPa | 2.6V | 08:08:03 | 02:33:08 | 00:00:00 | |
| HSKMA3-T | 2026-09-03 12:51:02 | 50.84328 | 8.70551 | 127° | 183km/h | 11952m | -7.9m/s | -58.6°C | 59% | 208.1hPa | 2.5V | 08:08:03 | 02:33:09 | 00:00:00 | |
| DB0ND-19 | 2026-09-03 12:51:01 | 50.84357 | 8.70492 | 127° | 183km/h | 11960m | -7.4m/s | -58.7°C | 50.7% | 207.8hPa | 2.5V | 00:00:00 | 00:00:00 | 00:00:00 | |
| DL1XH1-15 | 2026-09-03 12:50:59 | 50.84441 | 8.70318 | 127° | 183km/h | 11983m | -8.2m/s | -58.8°C | 65.6% | 207hPa | 2.5V | 08:07:58 | 02:33:05 | 00:00:00 | |
| DL1XH-west | 2026-09-03 12:50:59 | 50.84413 | 8.70376 | 127° | 183km/h | 11975m | -7.9m/s | -58.8°C | 58.7% | 207.3hPa | 2.5V | 08:08:03 | 02:33:06 | 00:00:00 | |
| DL9SK-14 | 2026-09-03 12:50:59 | 50.84441 | 8.70318 | 127° | 181km/h | 11983m | -8.2m/s | -58.8°C | 51.0% | 207.0hPa | 2.6V | 00:00:00 | 00:00:00 | 00:00:00 | |
| DO3DL | 2026-09-03 12:50:58 | 50.84413 | 8.70376 | 128° | 183km/h | 11975m | -7.9m/s | -58.8°C | 50.8% | 207.3hPa | 2.6V | 00:00:00 | 00:00:00 | 00:00:00 | |
| DL1NUX | 2026-09-03 12:50:57 | 50.84497 | 8.70203 | 127° | 183km/h | 11999m | -7.9m/s | -58.9°C | 65.6% | 206.5hPa | 2.6V | 08:08:00 | 02:33:03 | 00:00:00 | |
| DD1CC8 | 2026-09-03 12:50:55 | 50.84525 | 8.70145 | 127° | 181km/h | 12007m | -8.1m/s | -58.9°C | 51.1% | 206.3hPa | 2.5V | 00:00:00 | 00:00:00 | 00:00:00 | |
| DL3AQ-11 | 2026-09-03 12:50:53 | 50.84608 | 8.69972 | 127° | 181km/h | 12031m | -8.1m/s | -59.0°C | 51.0% | 205.5hPa | 2.5V | 00:00:00 | 00:00:00 | 00:00:00 | |
| DL1XH1-15 | 2026-09-03 12:50:52 | 50.84718 | 8.69741 | 127° | 183km/h | 12063m | -8.4m/s | -59°C | 64.1% | 204.4hPa | 2.5V | 08:08:08 | 02:32:55 | 00:00:00 | |
| HSKMA3-T | 2026-09-03 12:50:51 | 50.84636 | 8.69914 | 127° | 181km/h | 12040m | -7.9m/s | -58.9°C | 57.7% | 205.2hPa | 2.6V | 08:08:54 | 02:32:58 | 00:00:00 | |
| BIOWL1-15 | 2026-09-03 12:50:50 | 50.84663 | 8.69856 | 127° | 181km/h | 12047m | -8m/s | -59°C | 57.6% | 204.9hPa | 2.6V | 08:08:54 | 02:32:57 | 00:00:00 | |
| DL1XH-west | 2026-09-03 12:50:49 | 50.84691 | 8.69798 | 127° | 181km/h | 12055m | -7.9m/s | -59°C | 57.4% | 204.7hPa | 2.5V | 08:08:54 | 02:32:56 | 00:00:00 | |
| DL1NUX | 2026-09-03 12:50:47 | 50.84774 | 8.69625 | 127° | 181km/h | 12080m | -7.9m/s | -59°C | 64% | 203.9hPa | 2.6V | 08:08:10 | 02:32:53 | 00:00:00 | |
| BIOWL1-15 | 2026-09-03 12:50:40 | 50.84941 | 8.69283 | 128° | 179km/h | 12128m | -8.1m/s | -59.3°C | 55.9% | 202.3hPa | 2.6V | 08:08:54 | 02:32:47 | 00:00:00 | |
| DB0DAN | 2026-09-03 12:50:40 | 50.84941 | 8.69283 | 128° | 172km/h | 12128m | -8.1m/s | -59.3°C | 48.6% | 202.33hPa | 2.6V | 00:00:00 | 00:00:00 | 00:00:00 | |
| DL1XH1-15 | 2026-09-03 12:50:39 | 50.84997 | 8.69170 | 128° | 179km/h | 12144m | -7.9m/s | -59.4°C | 62.7% | 201.8hPa | 2.5V | 08:08:18 | 02:32:45 | 00:00:00 | |
| DL1XH-west | 2026-09-03 12:50:39 | 50.84969 | 8.69227 | 128° | 179km/h | 12136m | -7.8m/s | -59.3°C | 55.7% | 202.1hPa | 2.5V | 08:08:54 | 02:32:46 | 00:00:00 | |
| DO3DL | 2026-09-03 12:50:38 | 50.84969 | 8.69227 | 129° | 179km/h | 12136m | -7.8m/s | -59.3°C | 48.4% | 202.1hPa | 2.6V | 08:08:00 | 00:00:00 | 00:00:00 | |
| DL1NUX | 2026-09-03 12:50:37 | 50.85053 | 8.69058 | 127° | 179km/h | 12160m | -8m/s | -59.5°C | 62% | 201.3hPa | 2.6V | 08:08:20 | 02:32:43 | 00:00:00 | |
| HSKMA3-T | 2026-09-03 12:50:30 | 50.85220 | 8.68715 | 127° | 181km/h | 12209m | -8.2m/s | -59.7°C | 53.7% | 199.7hPa | 2.6V | 08:08:54 | 02:32:37 | 00:00:00 | |
| DF8AY | 2026-09-03 12:50:29 | 50.85359 | 8.68430 | 128° | 179km/h | 12250m | -8.5m/s | 0°C | 0% | 0hPa | 2.6V | 18:12:15 | 02:32:32 | 00:00:00 | |
| DM0DOS-11 | 2026-09-03 12:50:28 | 50.85276 | 8.68600 | 127° | 181km/h | 12225m | -8.1m/s | -59.9°C | 60.9% | 199.2hPa | 2.5V | 08:08:28 | 02:32:35 | 00:00:00 | |
| DL1XH-west | 2026-09-03 12:50:28 | 50.85276 | 8.68600 | 128° | 181km/h | 12225m | -8.1m/s | -59.9°C | 53.4% | 199.2hPa | 2.5V | 08:08:54 | 02:32:35 | 00:00:00 | |
| DL1NUX | 2026-09-03 12:50:27 | 50.85332 | 8.68487 | 127° | 179km/h | 12241m | -8.4m/s | -59.9°C | 60.1% | 198.7hPa | 2.6V | 08:08:30 | 02:32:33 | 00:00:00 | |
| DB0DAN | 2026-09-03 12:50:25 | 50.85359 | 8.68430 | 128° | 170km/h | 12250m | -8.5m/s | -59.9°C | 45.7% | 198.42hPa | 2.6V | 00:00:00 | 00:00:00 | 00:00:00 | |
| HSKMA3-T | 2026-09-03 12:50:20 | 50.85496 | 8.68151 | 128° | 175km/h | 12291m | -8.5m/s | -59.8°C | 51.9% | 197.1hPa | 2.6V | 08:08:54 | 02:32:27 | 00:00:00 | |
| BIOWL1-15 | 2026-09-03 12:50:19 | 50.85523 | 8.68096 | 128° | 173km/h | 12299m | -8m/s | -59.8°C | 51.8% | 196.9hPa | 2.5V | 08:08:54 | 02:32:26 | 00:00:00 | |
| DM0DOS-11 | 2026-09-03 12:50:18 | 50.85550 | 8.68042 | 128° | 173km/h | 12308m | -8.3m/s | -59.8°C | 56.9% | 196.6hPa | 2.5V | 08:08:38 | 02:32:25 | 00:00:00 | |
| DL1NUX | 2026-09-03 12:50:17 | 50.85604 | 8.67934 | 128° | 170km/h | 12324m | -8.4m/s | -59.8°C | 56.1% | 196.1hPa | 2.6V | 08:08:40 | 02:32:23 | 00:00:00 | |
| DL1XH-west | 2026-09-03 12:50:17 | 50.85577 | 8.67988 | 128° | 172km/h | 12316m | -8.3m/s | -59.8°C | 51.6% | 196.3hPa | 2.5V | 08:08:54 | 02:32:24 | 00:00:00 | |
| DD8BA-10 | 2026-09-03 12:50:15 | 50.85630 | 8.67880 | 128° | 172km/h | 12333m | -8.3m/s | -59.8°C | 55.7% | 195.8hPa | 2.6V | 00:00:00 | 00:00:00 | 00:00:00 | |
| DO3MHA-11 | 2026-09-03 12:50:14 | 50.85657 | 8.67826 | 128° | 173km/h | 12341m | -8.1m/s | -60.0°C | 56.5% | 195.5hPa | 2.5V | 00:00:00 | 02:32:21 | 00:00:00 | |
| DL1XH1-15 | 2026-09-03 12:50:13 | 50.85815 | 8.67498 | 127° | 175km/h | 12390m | -8.1m/s | -60.3°C | 55.8% | 194.1hPa | 2.5V | 08:08:48 | 02:32:15 | 00:00:00 | |
| HSKMA3-T | 2026-09-03 12:50:09 | 50.85789 | 8.67554 | 127° | 173km/h | 12382m | -8.2m/s | -60.2°C | 51.2% | 194.3hPa | 2.5V | 08:08:54 | 02:32:16 | 00:00:00 | |
| GOEST3-10 | 2026-09-03 12:50:09 | 50.85789 | 8.67554 | 128° | 175km/h | 12382m | -8.2m/s | -60.1°C | 55.6% | 194.2hPa | 2.5V | 00:00:00 | 02:32:16 | 00:00:00 | |
| BIOWL1-15 | 2026-09-03 12:50:09 | 50.85842 | 8.67443 | 127° | 173km/h | 12398m | -8.3m/s | -60.3°C | 51% | 193.8hPa | 2.5V | 08:08:54 | 02:32:14 | 00:00:00 | |
| DL1NUX | 2026-09-03 12:50:07 | 50.85868 | 8.67387 | 126° | 175km/h | 12407m | -8.4m/s | -60.4°C | 55.4% | 193.5hPa | 2.5V | 08:08:50 | 02:32:13 | 00:00:00 | |
| DL1XH-west | 2026-09-03 12:50:06 | 50.85868 | 8.67387 | 127° | 175km/h | 12407m | -8.4m/s | -60.4°C | 50.9% | 193.5hPa | 2.5V | 08:08:54 | 02:32:13 | 00:00:00 | |
| BIOWL1-15 | 2026-09-03 12:49:58 | 50.86076 | 8.66934 | 126° | 175km/h | 12473m | -7.9m/s | -60.7°C | 50.1% | 191.5hPa | 2.6V | 08:09:45 | 02:32:05 | 00:00:00 | |
| DL1NUX | 2026-09-03 12:49:57 | 50.86128 | 8.66821 | 125° | 175km/h | 12489m | -8.3m/s | -60.8°C | 54.8% | 191hPa | 2.5V | 08:09:00 | 02:32:03 | 00:00:00 | |
| DL1XH-west | 2026-09-03 12:49:56 | 50.86128 | 8.66821 | 126° | 175km/h | 12489m | -8.3m/s | -60.8°C | 50% | 191hPa | 2.5V | 08:09:45 | 02:32:03 | 00:00:00 | |
| DL8DAS-14 | 2026-09-03 12:49:55 | 50.86154 | 8.66765 | 125° | 173km/h | 12498m | -8.5m/s | -60.9°C | 41.2% | 190.7hPa | 2.6V | 00:00:00 | 00:00:00 | 00:00:00 | |
| DB0ND-19 | 2026-09-03 12:49:54 | 50.86180 | 8.66709 | 125° | 173km/h | 12506m | -8.2m/s | -61.0°C | 41.4% | 190.5hPa | 2.6V | 00:00:00 | 00:00:00 | 00:00:00 | |
| DD1CC8 | 2026-09-03 12:49:53 | 50.86206 | 8.66652 | 125° | 175km/h | 12514m | -8.1m/s | -61.1°C | 41.3% | 190.3hPa | 2.6V | 00:00:00 | 00:00:00 | 00:00:00 | |
| DM0DOS-11 | 2026-09-03 12:49:52 | 50.86334 | 8.66362 | 124° | 177km/h | 12555m | -8.4m/s | -61.5°C | 55.9% | 189hPa | 2.6V | 08:09:08 | 02:31:55 | 00:00:00 | |
| HSKMA3-T | 2026-09-03 12:49:48 | 50.86334 | 8.66362 | 125° | 177km/h | 12555m | -8.4m/s | -61.5°C | 49.3% | 189hPa | 2.6V | 08:09:45 | 02:31:55 | 00:00:00 | |
| SONCRA | 2026-09-03 12:49:48 | 50.86359 | 8.66304 | 124° | 177km/h | 12564m | -8.1m/s | -61.5°C | 41.8% | 188.7hPa | 2.5V | 00:00:00 | 00:00:00 | 00:00:00 | |
| BIOWL1-15 | 2026-09-03 12:49:47 | 50.86461 | 8.66072 | 125° | 175km/h | 12596m | -8.1m/s | -61.9°C | 48.2% | 187.8hPa | 2.5V | 08:09:45 | 02:31:50 | 00:00:00 | |
| DL1NUX | 2026-09-03 12:49:47 | 50.86385 | 8.66245 | 124° | 177km/h | 12571m | -8m/s | -61.6°C | 55.7% | 188.5hPa | 2.6V | 08:09:10 | 02:31:53 | 00:00:00 | |
| DL1XH-west | 2026-09-03 12:49:46 | 50.86538 | 8.65902 | 126° | 173km/h | 12621m | -8.1m/s | -62.1°C | 47.3% | 187hPa | 2.5V | 08:09:45 | 02:31:47 | 00:00:00 | |
| DL3AQ-11 | 2026-09-03 12:49:45 | 50.86410 | 8.66187 | 124° | 175km/h | 12580m | -8.1m/s | -61.7°C | 41.1% | 188.3hPa | 2.5V | 00:00:00 | 00:00:00 | 00:00:00 | |
| HSKMA3-T | 2026-09-03 12:49:38 | 50.86588 | 8.65790 | 126° | 172km/h | 12637m | -8.3m/s | -62.3°C | 46.4% | 186.5hPa | 2.5V | 08:09:45 | 02:31:45 | 00:00:00 | |
| DL1NUX | 2026-09-03 12:49:37 | 50.86639 | 8.65678 | 126° | 172km/h | 12654m | -8.5m/s | -62.4°C | 52% | 186hPa | 2.6V | 08:09:20 | 02:31:43 | 00:00:00 | |
| DL1XH-west | 2026-09-03 12:49:34 | 50.86691 | 8.65568 | 127° | 172km/h | 12671m | -8.1m/s | -62.3°C | 44.4% | 185.4hPa | 2.5V | 08:09:45 | 02:31:41 | 00:00:00 | |
| DO3MHA-12 | 2026-09-03 12:49:34 | 50.86691 | 8.65568 | 127° | 166km/h | 12671m | -8.0m/s | -62.2°C | 50.3% | 185.4hPa | 2.5V | 00:00:00 | 02:31:41 | 00:00:00 | |
| DL3AQ-11 | 2026-09-03 12:49:33 | 50.86743 | 8.65459 | 127° | 170km/h | 12686m | -8.0m/s | -62.2°C | 36.1% | 185.0hPa | 2.6V | 00:00:00 | 00:00:00 | 00:00:00 | |
| AU51GT2 | 2026-09-03 12:49:32 | 50.86769 | 8.65405 | 127° | 168km/h | 12694m | -7.9m/s | -62.2°C | 35.7% | 184.8hPa | 2.6V | 00:00:00 | 00:00:00 | 00:00:00 | |
| DJ2DS-15 | 2026-09-03 12:49:31 | 50.86769 | 8.65405 | 128° | 161km/h | 12695m | -7.9m/s | -62.2°C | 48.8% | 184.7hPa | 2.6V | 08:09:00 | 02:31:38 | 00:00:00 | |
| DO3DL | 2026-09-03 12:49:30 | 50.86769 | 8.65405 | 128° | 168km/h | 12695m | -7.9m/s | -62.2°C | 35.7% | 184.8hPa | 2.5V | 08:09:00 | 00:00:00 | 00:00:00 | |
| DM0DOS-11 | 2026-09-03 12:49:29 | 50.86845 | 8.65246 | 126° | 164km/h | 12719m | -8.4m/s | -62.3°C | 48% | 184.1hPa | 2.5V | 08:09:28 | 02:31:35 | 00:00:00 | |
| HSKMA3-T | 2026-09-03 12:49:27 | 50.86870 | 8.65194 | 126° | 164km/h | 12728m | -8.4m/s | -62.3°C | 41.4% | 183.8hPa | 2.5V | 08:09:45 | 02:31:34 | 00:00:00 | |
| DL1NUX | 2026-09-03 12:49:27 | 50.86894 | 8.65141 | 126° | 164km/h | 12736m | -8m/s | -62.4°C | 47.4% | 183.5hPa | 2.5V | 08:09:30 | 02:31:33 | 00:00:00 | |
| DL1XH-west | 2026-09-03 12:49:24 | 50.86942 | 8.65034 | 125° | 164km/h | 12752m | -8.1m/s | -62.6°C | 40.2% | 183.1hPa | 2.6V | 08:09:45 | 02:31:31 | 00:00:00 | |
| BIOWL1-15 | 2026-09-03 12:49:23 | 50.86966 | 8.64980 | 125° | 164km/h | 12760m | -8.2m/s | -62.6°C | 39.8% | 182.8hPa | 2.5V | 08:09:45 | 02:31:30 | 00:00:00 | |
| DF8AY | 2026-09-03 12:49:22 | 50.86991 | 8.64927 | 125° | 164km/h | 12768m | -8.1m/s | 0°C | 0% | 0hPa | 2.5V | 18:12:15 | 02:31:29 | 00:00:00 | |
| DO3MHA-11 | 2026-09-03 12:49:22 | 50.86990 | 8.64927 | 126° | 159km/h | 12768m | -8.0m/s | -62.7°C | 47.8% | 182.6hPa | 2.6V | 00:00:00 | 02:31:29 | 00:00:00 | |
| DL3AQ-11 | 2026-09-03 12:49:21 | 50.87014 | 8.64873 | 125° | 162km/h | 12776m | -8.1m/s | -62.8°C | 34.7% | 182.3hPa | 2.6V | 00:00:00 | 00:00:00 | 00:00:00 | |
| DL1XH1-15 | 2026-09-03 12:49:19 | 50.87086 | 8.64716 | 126° | 159km/h | 12801m | -8m/s | -63°C | 46.7% | 181.6hPa | 2.6V | 08:09:38 | 02:31:25 | 00:00:00 | |
| DL1NUX | 2026-09-03 12:49:18 | 50.87134 | 8.64616 | 127° | 155km/h | 12817m | -8.2m/s | -62.9°C | 44.6% | 181.1hPa | 2.5V | 08:09:40 | 02:31:23 | 00:00:00 | |
| HSKMA3-T | 2026-09-03 12:49:16 | 50.87134 | 8.64616 | 127° | 155km/h | 12817m | -8.3m/s | -62.9°C | 36.3% | 181.1hPa | 2.5V | 08:09:45 | 02:31:23 | 00:00:00 | |
| DL1XH-west | 2026-09-03 12:49:14 | 50.87181 | 8.64518 | 127° | 153km/h | 12833m | -8m/s | -62.9°C | 35% | 180.7hPa | 2.5V | 08:09:45 | 02:31:21 | 00:00:00 | |
| BIOWL1-15 | 2026-09-03 12:49:12 | 50.87273 | 8.64324 | 127° | 150km/h | 12866m | -8.2m/s | -62.6°C | 32.5% | 179.7hPa | 2.6V | 08:10:36 | 02:31:17 | 00:00:00 | |
| DF8AY | 2026-09-03 12:49:12 | 50.87227 | 8.64421 | 127° | 151km/h | 12849m | -8m/s | 0°C | 0% | 0hPa | 2.6V | 18:12:15 | 02:31:19 | 00:00:00 | |
| DO3MHA-11 | 2026-09-03 12:49:12 | 50.87227 | 8.64421 | 128° | 150km/h | 12849m | -7.9m/s | -62.8°C | 40.6% | 180.2hPa | 2.6V | 00:00:00 | 02:31:19 | 00:00:00 | |
| DJ2DS-15 | 2026-09-03 12:49:11 | 50.87250 | 8.64373 | 128° | 151km/h | 12857m | -8.3m/s | -62.7°C | 39.8% | 179.9hPa | 2.6V | 00:00:00 | 02:31:18 | 00:00:00 | |
| DJ8HS-15 | 2026-09-03 12:49:10 | 50.87273 | 8.64324 | 127° | 151km/h | 12866m | -8.2m/s | -62.6°C | 38.8% | 179.7hPa | 2.6V | 00:00:00 | 02:31:17 | 00:00:00 | |
| BIOWL9-15 | 2026-09-03 12:49:09 | 50.87296 | 8.64277 | 127° | 148km/h | 12874m | -8.1m/s | -62.4°C | 26.4% | 179.5hPa | 2.6V | 00:00:00 | 00:00:00 | 00:00:00 | |
| DL1NUX | 2026-09-03 12:49:07 | 50.87365 | 8.64134 | 127° | 150km/h | 12898m | -8.2m/s | -62.2°C | 35.8% | 178.8hPa | 2.6V | 08:09:50 | 02:31:13 | 00:00:00 | |
| HSKMA3-T | 2026-09-03 12:49:06 | 50.87365 | 8.64134 | 127° | 150km/h | 12898m | -8.2m/s | -62.2°C | 30.5% | 178.8hPa | 2.6V | 08:10:36 | 02:31:13 | 00:00:00 | |
| DL1XH-west | 2026-09-03 12:49:04 | 50.87411 | 8.64038 | 127° | 150km/h | 12914m | -8.1m/s | -62.1°C | 29.7% | 178.3hPa | 2.5V | 08:10:36 | 02:31:11 | 00:00:00 | |
| BIOWL1-15 | 2026-09-03 12:49:01 | 50.87502 | 8.63845 | 127° | 151km/h | 12947m | -8.1m/s | -61.7°C | 28.1% | 177.4hPa | 2.6V | 08:10:36 | 02:31:07 | 00:00:00 | |
| AU51GT2 | 2026-09-03 12:49:01 | 50.87502 | 8.63845 | 126° | 151km/h | 12947m | -8.1m/s | -61.7°C | 22.2% | 177.4hPa | 2.6V | 00:00:00 | 00:00:00 | 00:00:00 | |
| BUE01 | 2026-09-03 12:49:00 | 50.87502 | 8.63845 | 126° | 151km/h | 12947m | -8.1m/s | -61.7°C | 22.2% | 177.4hPa | 2.6V | 00:00:00 | 00:00:00 | 00:00:00 | |
| DL1XH1-15 | 2026-09-03 12:48:59 | 50.87548 | 8.63748 | 126° | 153km/h | 12963m | -8.1m/s | -61.8°C | 31.3% | 176.9hPa | 2.6V | 08:09:58 | 02:31:05 | 00:00:00 | |
| DL1NUX | 2026-09-03 12:48:57 | 50.87595 | 8.63649 | 127° | 155km/h | 12979m | -8.1m/s | -61.8°C | 30.7% | 176.4hPa | 2.5V | 08:10:00 | 02:31:03 | 00:00:00 | |
| HSKMA3-T | 2026-09-03 12:48:55 | 50.87619 | 8.63600 | 127° | 155km/h | 12987m | -8.4m/s | -61.8°C | 26.4% | 176.2hPa | 2.5V | 08:10:36 | 02:31:02 | 00:00:00 | |
| DB0DAN | 2026-09-03 12:48:55 | 50.87619 | 8.63600 | 127° | 148km/h | 12988m | -8.4m/s | -61.8°C | 20.6% | 176.21hPa | 2.5V | 00:00:00 | 00:00:00 | 00:00:00 | |
| DL1XH-west | 2026-09-03 12:48:53 | 50.87666 | 8.63502 | 128° | 155km/h | 13004m | -8.2m/s | -61.9°C | 25.7% | 175.7hPa | 2.6V | 08:10:36 | 02:31:00 | 00:00:00 | |
| BIOWL1-15 | 2026-09-03 12:48:50 | 50.87762 | 8.63308 | 129° | 153km/h | 13036m | -8m/s | -62.1°C | 24.2% | 174.8hPa | 2.5V | 08:10:36 | 02:30:56 | 00:00:00 | |
| WPPR-10 | 2026-09-03 12:48:50 | 50.87762 | 8.63308 | 128° | 153km/h | 13036m | -8.0m/s | -62.1°C | 19.3% | 174.8hPa | 2.6V | 00:00:00 | 00:00:00 | 00:00:00 | |
| SONCRA | 2026-09-03 12:48:46 | 50.87858 | 8.63121 | 129° | 148km/h | 13069m | -8.2m/s | -61.8°C | 17.2% | 173.9hPa | 2.6V | 00:00:00 | 00:00:00 | 00:00:00 | |
| HSKMA3-T | 2026-09-03 12:48:44 | 50.87881 | 8.63075 | 129° | 146km/h | 13077m | -7.9m/s | -61.8°C | 21.9% | 173.7hPa | 2.6V | 08:10:36 | 02:30:51 | 00:00:00 | |
| DL1XH-west | 2026-09-03 12:48:42 | 50.87928 | 8.62984 | 130° | 146km/h | 13093m | -7.9m/s | -61.9°C | 20.9% | 173.2hPa | 2.5V | 08:10:36 | 02:30:49 | 00:00:00 | |
| AA1-15 | 2026-09-03 12:48:38 | 50.88045 | 8.62758 | 129° | 148km/h | 13133m | -8.3m/s | -62.1°C | 18.3% | 172.1hPa | 2.6V | 08:10:36 | 02:30:44 | 00:00:00 | |
| HSKMA3-T | 2026-09-03 12:48:33 | 50.88140 | 8.62574 | 129° | 148km/h | 13165m | -8.1m/s | -62.2°C | 16.2% | 171.2hPa | 2.5V | 08:10:36 | 02:30:40 | 00:00:00 | |
| DL1XH-west | 2026-09-03 12:48:31 | 50.88187 | 8.62483 | 129° | 146km/h | 13181m | -7.9m/s | -62.1°C | 15.1% | 170.8hPa | 2.6V | 08:10:36 | 02:30:38 | 00:00:00 | |
| BIOWL1-15 | 2026-09-03 12:48:31 | 50.88233 | 8.62391 | 128° | 146km/h | 13197m | -8.1m/s | -62.1°C | 14.2% | 170.3hPa | 2.5V | 08:10:36 | 02:30:36 | 00:00:00 | |
| DJ2DS-15 | 2026-09-03 12:48:31 | 50.88187 | 8.62482 | 129° | 142km/h | 13181m | -7.9m/s | -62.0°C | 19.1% | 170.7hPa | 2.6V | 00:00:00 | 02:30:38 | 00:00:00 | |
| AU51GT2 | 2026-09-03 12:48:30 | 50.88233 | 8.62391 | 128° | 144km/h | 13197m | -8.1m/s | -62.1°C | 11.1% | 170.3hPa | 2.5V | 00:00:00 | 00:00:00 | 00:00:00 | |
| BUE01 | 2026-09-03 12:48:29 | 50.88233 | 8.62391 | 128° | 144km/h | 13197m | -8.1m/s | -62.1°C | 11.1% | 170.3hPa | 2.5V | 00:00:00 | 00:00:00 | 00:00:00 | |
| DD1CC3-15 | 2026-09-03 12:48:28 | 50.88233 | 8.62391 | 129° | 146km/h | 13197m | -8.1m/s | -62.1°C | 11.2% | 170.3hPa | 2.5V | 08:10:00 | 00:00:00 | 00:00:00 | |
| DL1NUX | 2026-09-03 12:48:27 | 50.88302 | 8.62255 | 129° | 144km/h | 13221m | -8.3m/s | -61.8°C | 16.6% | 169.6hPa | 2.5V | 08:10:30 | 02:30:33 | 00:00:00 | |
| HSKMA3-T | 2026-09-03 12:48:23 | 50.88371 | 8.62122 | 129° | 142km/h | 13245m | -7.9m/s | -61.7°C | 11.4% | 169hPa | 2.6V | 08:10:36 | 02:30:30 | 00:00:00 | |
| DL1XH-west | 2026-09-03 12:48:21 | 50.88416 | 8.62035 | 129° | 139km/h | 13261m | -7.9m/s | -61.8°C | 10.6% | 168.5hPa | 2.5V | 08:10:36 | 02:30:28 | 00:00:00 | |
| BIOWL1-15 | 2026-09-03 12:48:19 | 50.88461 | 8.61949 | 129° | 139km/h | 13277m | -8.2m/s | -61.7°C | 9.8% | 168.1hPa | 2.6V | 08:11:27 | 02:30:26 | 00:00:00 | |
| DL1NUX | 2026-09-03 12:48:17 | 50.88526 | 8.61820 | 128° | 139km/h | 13302m | -8.2m/s | -61.6°C | 12.5% | 167.4hPa | 2.6V | 08:10:40 | 02:30:23 | 00:00:00 | |
| AA1-15 | 2026-09-03 12:48:17 | 50.88504 | 8.61863 | 129° | 137km/h | 13293m | -8.4m/s | -61.7°C | 9.1% | 167.7hPa | 2.6V | 08:12:18 | 02:30:24 | 00:00:00 | |
| HSKMA3-T | 2026-09-03 12:48:13 | 50.88592 | 8.61689 | 129° | 141km/h | 13326m | -8.3m/s | -61.6°C | 7.8% | 166.7hPa | 2.5V | 08:11:27 | 02:30:20 | 00:00:00 | |
| DL1XH-west | 2026-09-03 12:48:10 | 50.88661 | 8.61555 | 130° | 146km/h | 13351m | -8.4m/s | -61.1°C | 7.1% | 166.1hPa | 2.6V | 08:11:27 | 02:30:17 | 00:00:00 | |
| BIOWL1-15 | 2026-09-03 12:48:08 | 50.88782 | 8.61331 | 131° | 148km/h | 13393m | -8.4m/s | -61.4°C | 6.5% | 164.9hPa | 2.6V | 08:11:27 | 02:30:12 | 00:00:00 | |
| DL1NUX | 2026-09-03 12:48:07 | 50.88757 | 8.61375 | 130° | 148km/h | 13385m | -8.2m/s | -61.4°C | 10.8% | 165.2hPa | 2.5V | 08:10:50 | 02:30:13 | 00:00:00 | |
| AA1-15 | 2026-09-03 12:48:07 | 50.88757 | 8.61375 | 131° | 148km/h | 13385m | -8.2m/s | -61.4°C | 6.7% | 165.2hPa | 2.5V | 08:12:18 | 02:30:13 | 00:00:00 | |
| HSKMA3-T | 2026-09-03 12:48:03 | 50.88831 | 8.61243 | 132° | 146km/h | 13410m | -8.5m/s | -61.5°C | 6.2% | 164.5hPa | 2.6V | 08:11:27 | 02:30:10 | 00:00:00 | |
| DL1XH-west | 2026-09-03 12:48:00 | 50.88903 | 8.61114 | 131° | 142km/h | 13435m | -8.4m/s | -61.6°C | 5.7% | 163.9hPa | 2.5V | 08:11:27 | 02:30:07 | 00:00:00 | |
| DL1XH1-15 | 2026-09-03 12:47:59 | 50.88950 | 8.61028 | 130° | 141km/h | 13452m | -8.3m/s | -61.4°C | 9.5% | 163.4hPa | 2.6V | 08:10:58 | 02:30:05 | 00:00:00 | |
| AU51GT2 | 2026-09-03 12:47:59 | 50.88950 | 8.61028 | 130° | 141km/h | 13452m | -8.3m/s | -61.4°C | 4.5% | 163.4hPa | 2.6V | 00:00:00 | 00:00:00 | 00:00:00 | |
| BUE01 | 2026-09-03 12:47:58 | 50.88950 | 8.61028 | 130° | 141km/h | 13452m | -8.3m/s | -61.4°C | 4.5% | 163.4hPa | 2.6V | 00:00:00 | 00:00:00 | 00:00:00 | |
| DL1NUX | 2026-09-03 12:47:57 | 50.88996 | 8.60943 | 130° | 141km/h | 13469m | -8.4m/s | -61.4°C | 9.4% | 162.9hPa | 2.6V | 08:11:00 | 02:30:03 | 00:00:00 | |
| BIOWL1-15 | 2026-09-03 12:47:57 | 50.88973 | 8.60985 | 131° | 141km/h | 13460m | -8.5m/s | -61.3°C | 5.1% | 163.2hPa | 2.6V | 08:11:27 | 02:30:04 | 00:00:00 | |
| AA1-15 | 2026-09-03 12:47:55 | 50.89019 | 8.60900 | 131° | 141km/h | 13477m | -8.6m/s | -61.4°C | 4.9% | 162.7hPa | 2.6V | 08:12:18 | 02:30:02 | 00:00:00 | |
| HSKMA3-T | 2026-09-03 12:47:53 | 50.89065 | 8.60814 | 130° | 141km/h | 13494m | -8.3m/s | -61°C | 4.6% | 162.3hPa | 2.5V | 08:11:27 | 02:30:00 | 00:00:00 | |
| DL1XH1-15 | 2026-09-03 12:47:53 | 50.89180 | 8.60595 | 128° | 141km/h | 13537m | -8.8m/s | -61.1°C | 9.1% | 161.2hPa | 2.6V | 08:11:08 | 02:29:55 | 00:00:00 | |
| BIOWL1-15 | 2026-09-03 12:47:49 | 50.89201 | 8.60551 | 128° | 141km/h | 13546m | -8.6m/s | -61.1°C | 4.4% | 160.9hPa | 2.5V | 08:11:27 | 02:29:54 | 00:00:00 | |
| DL1XH-west | 2026-09-03 12:47:49 | 50.89157 | 8.60639 | 129° | 142km/h | 13528m | -8.6m/s | -61°C | 4.5% | 161.4hPa | 2.6V | 08:11:27 | 02:29:56 | 00:00:00 | |
| EDDB2-11 | 2026-09-03 12:47:48 | 50.89179 | 8.60595 | 128° | 141km/h | 13537m | -8.8m/s | -61.1°C | 4.1% | 161.2hPa | 2.6V | 00:00:00 | 00:00:00 | 00:00:00 | |
| DD1CC3-15 | 2026-09-03 12:47:47 | 50.89180 | 8.60595 | 129° | 141km/h | 13537m | -8.8m/s | -61.1°C | 4.1% | 161.2hPa | 2.6V | 08:11:00 | 00:00:00 | 00:00:00 | |
| DL1XH-15 | 2026-09-03 12:47:46 | 50.89303 | 8.60337 | 125° | 128km/h | 13588m | -8.4m/s | -61.3°C | 8.7% | 159.9hPa | 2.6V | 08:11:14 | 02:29:49 | 00:00:00 | |
| DL3AQ-11 | 2026-09-03 12:47:45 | 50.89244 | 8.60464 | 127° | 135km/h | 13563m | -8.5m/s | -61.2°C | 4.0% | 160.5hPa | 2.6V | 00:00:00 | 00:00:00 | 00:00:00 | |
| HSKMA3-T | 2026-09-03 12:47:42 | 50.89303 | 8.60337 | 125° | 128km/h | 13588m | -8.5m/s | -61.3°C | 3.8% | 159.9hPa | 2.6V | 08:11:27 | 02:29:49 | 00:00:00 | |
| DO1YAY-16 | 2026-09-03 12:47:42 | 50.89322 | 8.60295 | 124° | 126km/h | 13597m | -8.7m/s | -61.4°C | 3.7% | 159.6hPa | 2.5V | 00:00:00 | 00:00:00 | 00:00:00 | |
| DB0NH | 2026-09-03 12:47:41 | 50.89321 | 8.60295 | 125° | 126km/h | 13597m | -8.7m/s | -61.3°C | 8.6% | 159.6hPa | 2.5V | 00:00:00 | 02:29:48 | 00:00:00 | |
| DL1XH1-15 | 2026-09-03 12:47:39 | 50.89376 | 8.60170 | 124° | 126km/h | 13622m | -8.7m/s | -61.4°C | 8.6% | 158.9hPa | 2.5V | 08:11:18 | 02:29:45 | 00:00:00 | |
| DL1XH-west | 2026-09-03 12:47:38 | 50.89376 | 8.60170 | 124° | 126km/h | 13623m | -8.7m/s | -61.4°C | 3.6% | 158.9hPa | 2.5V | 08:11:27 | 02:29:45 | 00:00:00 | |
| BIOWL1-15 | 2026-09-03 12:47:36 | 50.89429 | 8.60045 | 123° | 126km/h | 13648m | -8.3m/s | -61.2°C | 3.3% | 158.3hPa | 2.6V | 08:11:27 | 02:29:42 | 00:00:00 | |
| DF8AY | 2026-09-03 12:47:32 | 50.89479 | 8.59917 | 121° | 124km/h | 13673m | -8.4m/s | 0°C | 0% | 0hPa | 2.5V | 18:12:15 | 02:29:39 | 00:00:00 | |
| HSKMA3-T | 2026-09-03 12:47:31 | 50.89496 | 8.59875 | 121° | 126km/h | 13682m | -8.9m/s | -58.7°C | 2.6% | 157.4hPa | 2.5V | 08:11:27 | 02:29:38 | 00:00:00 | |
| DL1XH-west | 2026-09-03 12:47:28 | 50.89544 | 8.59745 | 120° | 126km/h | 13708m | -8.7m/s | -58.3°C | 2.4% | 156.8hPa | 2.6V | 08:12:18 | 02:29:35 | 00:00:00 | |
| DL3OBA | 2026-09-03 12:47:27 | 50.89544 | 8.59745 | 121° | 126km/h | 13708m | -8.7m/s | -58.3°C | 2.5% | 156.8hPa | 2.5V | 08:12:00 | 00:00:00 | 00:00:00 | |
| DB0DAN | 2026-09-03 12:47:25 | 50.89594 | 8.59614 | 121° | 122km/h | 13735m | -9.1m/s | -58.2°C | 2.6% | 156.13hPa | 2.5V | 00:00:00 | 00:00:00 | 00:00:00 | |
| BIOWL1-15 | 2026-09-03 12:47:24 | 50.89611 | 8.59571 | 122° | 130km/h | 13744m | -8.9m/s | -58.1°C | 2.3% | 155.9hPa | 2.6V | 08:12:18 | 02:29:31 | 00:00:00 | |
| HSKMA3-T | 2026-09-03 12:47:21 | 50.89665 | 8.59441 | 124° | 130km/h | 13771m | -8.7m/s | -58.1°C | 2.3% | 155.2hPa | 2.6V | 08:12:18 | 02:29:28 | 00:00:00 | |
| DD8BA-10 | 2026-09-03 12:47:21 | 50.89665 | 8.59441 | 125° | 126km/h | 13771m | -8.6m/s | -58.1°C | 6.5% | 155.2hPa | 2.5V | 00:00:00 | 00:00:00 | 00:00:00 | |
| DL1XH1-15 | 2026-09-03 12:47:19 | 50.89721 | 8.59314 | 125° | 128km/h | 13797m | -9.3m/s | -58.2°C | 6.4% | 154.6hPa | 2.5V | 08:11:38 | 02:29:25 | 00:00:00 | |
| DF8AY | 2026-09-03 12:47:18 | 50.89721 | 8.59314 | 126° | 128km/h | 13797m | -9.3m/s | 0°C | 0% | 0hPa | 2.5V | 18:12:15 | 02:29:25 | 00:00:00 | |
| DL1XH-west | 2026-09-03 12:47:17 | 50.89740 | 8.59272 | 126° | 128km/h | 13807m | -9.2m/s | -58.2°C | 2.2% | 154.4hPa | 2.5V | 08:12:18 | 02:29:24 | 00:00:00 | |
| BIOWL1-15 | 2026-09-03 12:47:13 | 50.89817 | 8.59113 | 128° | 122km/h | 13843m | -9m/s | -57.8°C | 2% | 153.5hPa | 2.6V | 08:12:18 | 02:29:20 | 00:00:00 | |
| SONCRA | 2026-09-03 12:47:12 | 50.89836 | 8.59075 | 128° | 120km/h | 13852m | -8.8m/s | -57.7°C | 2.3% | 153.3hPa | 2.6V | 00:00:00 | 00:00:00 | 00:00:00 | |
| DM0DOS-11 | 2026-09-03 12:47:11 | 50.89911 | 8.58928 | 129° | 115km/h | 13888m | -9.1m/s | -57.3°C | 5.8% | 152.4hPa | 2.6V | 08:11:48 | 02:29:15 | 00:00:00 | |
| AA1-15 | 2026-09-03 12:47:11 | 50.89855 | 8.59037 | 129° | 119km/h | 13861m | -9m/s | -57.6°C | 1.9% | 153hPa | 2.5V | 08:12:18 | 02:29:18 | 00:00:00 | |
| DB0NH | 2026-09-03 12:47:11 | 50.89855 | 8.59037 | 129° | 110km/h | 13861m | -9.0m/s | -57.6°C | 6.0% | 153.0hPa | 2.5V | 00:00:00 | 02:29:18 | 00:00:00 | |
| DJ8HS-15 | 2026-09-03 12:47:10 | 50.89874 | 8.59000 | 130° | 111km/h | 13870m | -8.8m/s | -57.4°C | 5.9% | 152.8hPa | 2.5V | 00:00:00 | 02:29:17 | 00:00:00 | |
| DL1NUX | 2026-09-03 12:47:07 | 50.89949 | 8.58857 | 129° | 115km/h | 13906m | -9.1m/s | -57.2°C | 5.8% | 151.9hPa | 2.5V | 08:11:50 | 02:29:13 | 00:00:00 | |
| DL1XH-west | 2026-09-03 12:47:07 | 50.89930 | 8.58893 | 130° | 115km/h | 13897m | -9.3m/s | -57.2°C | 1.7% | 152.1hPa | 2.5V | 08:12:18 | 02:29:14 | 00:00:00 | |
| HSKMA3-T | 2026-09-03 12:47:01 | 50.90043 | 8.58687 | 132° | 111km/h | 13952m | -9.5m/s | -56.7°C | 1.8% | 150.8hPa | 2.5V | 08:12:18 | 02:29:08 | 00:00:00 | |
| DD8BA-10 | 2026-09-03 12:47:01 | 50.90042 | 8.58687 | 133° | 108km/h | 13953m | -9.4m/s | -56.7°C | 5.8% | 150.8hPa | 2.6V | 00:00:00 | 00:00:00 | 00:00:00 | |
| DL1XH1-15 | 2026-09-03 12:46:59 | 50.90098 | 8.58588 | 130° | 108km/h | 13980m | -9m/s | -56.6°C | 5.7% | 150.2hPa | 2.6V | 08:11:58 | 02:29:05 | 00:00:00 | |
| AA1-15 | 2026-09-03 12:46:59 | 50.90080 | 8.58621 | 132° | 110km/h | 13971m | -9.5m/s | -56.6°C | 1.8% | 150.4hPa | 2.6V | 08:12:18 | 02:29:06 | 00:00:00 | |
| DL1XH-west | 2026-09-03 12:46:56 | 50.90133 | 8.58522 | 129° | 106km/h | 13999m | -9.1m/s | -56.8°C | 1.7% | 149.8hPa | 2.5V | 08:12:18 | 02:29:03 | 00:00:00 | |
| DL3AQ-11 | 2026-09-03 12:46:52 | 50.90197 | 8.58386 | 124° | 106km/h | 14036m | -9.4m/s | -56.7°C | 2.0% | 148.8hPa | 2.5V | 00:00:00 | 00:00:00 | 00:00:00 | |
| DM0DOS-11 | 2026-09-03 12:46:51 | 50.90258 | 8.58245 | 124° | 108km/h | 14073m | -9.4m/s | -56.5°C | 5.6% | 148hPa | 2.5V | 08:12:08 | 02:28:55 | 00:00:00 | |
| HSKMA3-T | 2026-09-03 12:46:50 | 50.90228 | 8.58316 | 124° | 106km/h | 14055m | -9.5m/s | -56.6°C | 1.6% | 148.4hPa | 2.6V | 08:12:18 | 02:28:57 | 00:00:00 | |
| AA1-15 | 2026-09-03 12:46:49 | 50.90243 | 8.58281 | 124° | 108km/h | 14064m | -9.1m/s | -56.5°C | 1.6% | 148.2hPa | 2.5V | 08:12:18 | 02:28:56 | 00:00:00 | |
| DL1XH-west | 2026-09-03 12:46:45 | 50.90305 | 8.58139 | 126° | 110km/h | 14101m | -9.2m/s | -56.4°C | 1.7% | 147.3hPa | 2.6V | 08:12:18 | 02:28:52 | 00:00:00 | |
| BIOWL1-15 | 2026-09-03 12:46:41 | 50.90371 | 8.58000 | 128° | 108km/h | 14140m | -9.7m/s | -55.7°C | 1.5% | 146.4hPa | 2.5V | 08:12:18 | 02:28:48 | 00:00:00 | |
| HSKMA3-T | 2026-09-03 12:46:40 | 50.90388 | 8.57966 | 127° | 106km/h | 14149m | -9.2m/s | -55.7°C | 1.5% | 146.2hPa | 2.6V | 08:12:18 | 02:28:47 | 00:00:00 | |
| AA1-15 | 2026-09-03 12:46:38 | 50.90420 | 8.57898 | 126° | 104km/h | 14168m | -9.3m/s | -55.6°C | 1.5% | 145.8hPa | 2.6V | 08:12:18 | 02:28:45 | 00:00:00 | |
| DL1NUX | 2026-09-03 12:46:37 | 50.90451 | 8.57831 | 126° | 102km/h | 14187m | -9.4m/s | -55.6°C | 5.3% | 145.4hPa | 2.6V | 08:12:20 | 02:28:43 | 00:00:00 | |
| DL1XH-west | 2026-09-03 12:46:34 | 50.90481 | 8.57767 | 126° | 99km/h | 14206m | -9.7m/s | -55.5°C | 1.4% | 144.9hPa | 2.5V | 08:13:09 | 02:28:41 | 00:00:00 | |
| DL1XH1-15 | 2026-09-03 12:46:33 | 50.90563 | 8.57580 | 121° | 93km/h | 14264m | -9.4m/s | -54.9°C | 5% | 143.6hPa | 2.6V | 08:12:28 | 02:28:35 | 00:00:00 | |
| BIOWL1-15 | 2026-09-03 12:46:31 | 50.90524 | 8.57673 | 125° | 95km/h | 14235m | -9.5m/s | -55.1°C | 1.4% | 144.3hPa | 2.6V | 08:13:09 | 02:28:38 | 00:00:00 | |
| HSKMA3-T | 2026-09-03 12:46:30 | 50.90537 | 8.57642 | 124° | 93km/h | 14245m | -9.4m/s | -55°C | 1.4% | 144.1hPa | 2.5V | 08:13:09 | 02:28:37 | 00:00:00 | |
| DJ2DS-15 | 2026-09-03 12:46:30 | 50.90537 | 8.57642 | 124° | 97km/h | 14245m | -9.4m/s | -55.0°C | 5.1% | 144.0hPa | 2.5V | 08:12:00 | 02:28:37 | 00:00:00 | |
| DL1NUX | 2026-09-03 12:46:27 | 50.90587 | 8.57516 | 119° | 93km/h | 14282m | -9.3m/s | -54.8°C | 5% | 143.2hPa | 2.6V | 08:12:30 | 02:28:33 | 00:00:00 | |
| AA1-15 | 2026-09-03 12:46:27 | 50.90575 | 8.57548 | 121° | 93km/h | 14273m | -9.2m/s | -54.9°C | 1.3% | 143.4hPa | 2.6V | 08:13:09 | 02:28:34 | 00:00:00 | |
| DL1XH-west | 2026-09-03 12:46:23 | 50.90623 | 8.57416 | 120° | 99km/h | 14311m | -9.9m/s | -54.7°C | 1.3% | 142.6hPa | 2.6V | 08:13:09 | 02:28:30 | 00:00:00 | |
| DD8BA-10 | 2026-09-03 12:46:21 | 50.90648 | 8.57347 | 121° | 99km/h | 14331m | -9.9m/s | -54.6°C | 5.0% | 142.1hPa | 2.6V | 00:00:00 | 00:00:00 | 00:00:00 | |
| DL8OAI-8 | 2026-09-03 12:46:20 | 50.90648 | 8.57347 | 121° | 100km/h | 14331m | -9.9m/s | -54.7°C | 1.8% | 142.1hPa | 2.6V | 08:13:00 | 00:00:00 | 00:00:00 | |
| DL1XH1-15 | 2026-09-03 12:46:19 | 50.90687 | 8.57243 | 121° | 102km/h | 14360m | -9.4m/s | -54.8°C | 5% | 141.5hPa | 2.6V | 08:12:38 | 02:28:25 | 00:00:00 | |
| HSKMA3-T | 2026-09-03 12:46:19 | 50.90674 | 8.57277 | 121° | 102km/h | 14351m | -9.9m/s | -54.7°C | 1.3% | 141.7hPa | 2.6V | 08:13:09 | 02:28:26 | 00:00:00 | |
| DL8DAS-14 | 2026-09-03 12:46:18 | 50.90687 | 8.57243 | 121° | 100km/h | 14360m | -9.4m/s | -54.8°C | 1.8% | 141.5hPa | 2.6V | 00:00:00 | 00:00:00 | 00:00:00 | |
| DB0ND-19 | 2026-09-03 12:46:17 | 50.90701 | 8.57208 | 122° | 100km/h | 14370m | -10.0m/s | -54.8°C | 1.8% | 141.3hPa | 2.6V | 00:00:00 | 00:00:00 | 00:00:00 | |
| DD1CC8 | 2026-09-03 12:46:16 | 50.90728 | 8.57141 | 122° | 97km/h | 14390m | -9.7m/s | -54.9°C | 1.8% | 140.8hPa | 2.6V | 00:00:00 | 00:00:00 | 00:00:00 | |
| EDDB2-11 | 2026-09-03 12:46:15 | 50.90741 | 8.57109 | 122° | 95km/h | 14400m | -10.0m/s | -54.9°C | 1.8% | 140.6hPa | 2.6V | 00:00:00 | 00:00:00 | 00:00:00 | |
| WPPR-10 | 2026-09-03 12:46:14 | 50.90741 | 8.57109 | 122° | 95km/h | 14400m | -10.0m/s | -54.9°C | 1.8% | 140.6hPa | 2.6V | 00:00:00 | 00:00:00 | 00:00:00 | |
| DL3AQ-11 | 2026-09-03 12:46:13 | 50.90766 | 8.57044 | 121° | 93km/h | 14419m | -9.7m/s | -54.9°C | 1.8% | 140.2hPa | 2.6V | 00:00:00 | 00:00:00 | 00:00:00 | |
| DL1XH1-15 | 2026-09-03 12:46:12 | 50.90813 | 8.56916 | 120° | 91km/h | 14458m | -9.9m/s | -54.7°C | 5% | 139.3hPa | 2.6V | 08:12:48 | 02:28:15 | 00:00:00 | |
| DL1XH-west | 2026-09-03 12:46:12 | 50.90766 | 8.57044 | 121° | 93km/h | 14419m | -9.7m/s | -54.9°C | 1.3% | 140.2hPa | 2.6V | 08:13:09 | 02:28:19 | 00:00:00 | |
| BIOWL1-15 | 2026-09-03 12:46:09 | 50.90802 | 8.56948 | 120° | 93km/h | 14448m | -10m/s | -54.8°C | 1.3% | 139.5hPa | 2.6V | 08:13:09 | 02:28:16 | 00:00:00 | |
| HSKMA3-T | 2026-09-03 12:46:08 | 50.90813 | 8.56916 | 120° | 91km/h | 14458m | -9.9m/s | -54.7°C | 1.3% | 139.3hPa | 2.6V | 08:13:09 | 02:28:15 | 00:00:00 | |
| DL1XH-west | 2026-09-03 12:46:01 | 50.90893 | 8.56694 | 119° | 91km/h | 14527m | -9.7m/s | -54.2°C | 1.2% | 137.8hPa | 2.6V | 08:13:09 | 02:28:08 | 00:00:00 | |
| DD8BA-10 | 2026-09-03 12:46:01 | 50.90893 | 8.56693 | 119° | 91km/h | 14528m | -9.7m/s | -54.1°C | 4.8% | 137.8hPa | 2.6V | 00:00:00 | 00:00:00 | 00:00:00 | |
| DL1XH1-15 | 2026-09-03 12:45:59 | 50.90926 | 8.56596 | 117° | 91km/h | 14558m | -10m/s | -54.1°C | 4.7% | 137.2hPa | 2.6V | 08:12:58 | 02:28:05 | 00:00:00 | |
| BIOWL1-15 | 2026-09-03 12:45:58 | 50.90926 | 8.56596 | 117° | 91km/h | 14558m | -10m/s | -54.1°C | 1.2% | 137.2hPa | 2.6V | 08:13:09 | 02:28:05 | 00:00:00 | |
| HSKMA3-T | 2026-09-03 12:45:57 | 50.90936 | 8.56564 | 116° | 91km/h | 14568m | -10.1m/s | -54.1°C | 1.1% | 136.9hPa | 2.6V | 08:13:09 | 02:28:04 | 00:00:00 | |
| DJ2DS-15 | 2026-09-03 12:45:56 | 50.90956 | 8.56499 | 115° | 89km/h | 14588m | -10.0m/s | -54.0°C | 1.7% | 136.5hPa | 2.6V | 00:00:00 | 00:00:00 | 00:00:00 | |
| BUE01 | 2026-09-03 12:45:54 | 50.90966 | 8.56466 | 116° | 89km/h | 14598m | -9.9m/s | -54.1°C | 1.7% | 136.3hPa | 2.6V | 00:00:00 | 00:00:00 | 00:00:00 | |
| DL1XH1-15 | 2026-09-03 12:45:52 | 50.91024 | 8.56275 | 114° | 88km/h | 14658m | -10.3m/s | -53.8°C | 4.6% | 135hPa | 2.6V | 08:13:08 | 02:27:55 | 00:00:00 | |
| DL1XH-west | 2026-09-03 12:45:51 | 50.90996 | 8.56370 | 116° | 88km/h | 14628m | -10.1m/s | -54.2°C | 1.2% | 135.7hPa | 2.6V | 08:13:09 | 02:27:58 | 00:00:00 | |
| AA1-15 | 2026-09-03 12:45:50 | 50.91005 | 8.56338 | 116° | 88km/h | 14638m | -9.7m/s | -54°C | 1.2% | 135.5hPa | 2.6V | 08:13:09 | 02:27:57 | 00:00:00 | |
| BIOWL1-15 | 2026-09-03 12:45:47 | 50.91049 | 8.56178 | 111° | 88km/h | 14689m | -10.3m/s | -54°C | 1.2% | 134.4hPa | 2.6V | 08:14:00 | 02:27:52 | 00:00:00 | |
| DL1NUX | 2026-09-03 12:45:47 | 50.91041 | 8.56211 | 112° | 88km/h | 14679m | -10.3m/s | -53.9°C | 4.6% | 134.6hPa | 2.6V | 08:13:10 | 02:27:53 | 00:00:00 | |
| HSKMA3-T | 2026-09-03 12:45:46 | 50.91041 | 8.56211 | 112° | 88km/h | 14679m | -10.3m/s | -53.9°C | 1.1% | 134.6hPa | 2.6V | 08:14:00 | 02:27:53 | 00:00:00 | |
| DB0ND-19 | 2026-09-03 12:45:46 | 50.91041 | 8.56211 | 112° | 88km/h | 14679m | -10.3m/s | -53.9°C | 1.6% | 134.6hPa | 2.6V | 00:00:00 | 00:00:00 | 00:00:00 | |
| DL3AQ-11 | 2026-09-03 12:45:45 | 50.91049 | 8.56178 | 111° | 86km/h | 14689m | -10.3m/s | -54.0°C | 1.7% | 134.4hPa | 2.6V | 00:00:00 | 00:00:00 | 00:00:00 | |
| DL1XH-west | 2026-09-03 12:45:41 | 50.91080 | 8.56045 | 110° | 89km/h | 14729m | -10m/s | -54.3°C | 1.3% | 133.5hPa | 2.6V | 08:14:00 | 02:27:48 | 00:00:00 | |
| DB0NH | 2026-09-03 12:45:41 | 50.91080 | 8.56045 | 110° | 89km/h | 14729m | -9.9m/s | -54.2°C | 4.9% | 133.5hPa | 2.6V | 08:13:00 | 02:27:48 | 00:00:00 | |
| DJTTGO | 2026-09-03 12:45:40 | 50.91080 | 8.56045 | 110° | 89km/h | 14729m | -10.0m/s | -54.3°C | 1.7% | 133.5hPa | 2.6V | 00:00:00 | 00:00:00 | 00:00:00 | |
| DL1NUX | 2026-09-03 12:45:39 | 50.91117 | 8.55876 | 109° | 91km/h | 14780m | -10.2m/s | -54.6°C | 5% | 132.5hPa | 2.6V | 08:13:20 | 02:27:43 | 00:00:00 | |
| DL1XH1-15 | 2026-09-03 12:45:39 | 50.91102 | 8.55944 | 109° | 89km/h | 14759m | -10m/s | -54.5°C | 5% | 132.9hPa | 2.6V | 08:13:18 | 02:27:45 | 00:00:00 | |
| AA1-15 | 2026-09-03 12:45:39 | 50.91095 | 8.55978 | 109° | 89km/h | 14749m | -10m/s | -54.4°C | 1.3% | 133.1hPa | 2.6V | 08:14:00 | 02:27:46 | 00:00:00 | |
| HSKMA3-T | 2026-09-03 12:45:36 | 50.91118 | 8.55876 | 110° | 91km/h | 14780m | -10.2m/s | -54.6°C | 1.4% | 132.5hPa | 2.6V | 08:14:00 | 02:27:43 | 00:00:00 | |
| BIOWL1-15 | 2026-09-03 12:45:35 | 50.91150 | 8.55734 | 111° | 97km/h | 14821m | -10.5m/s | -54.6°C | 1.4% | 131.6hPa | 2.6V | 08:14:00 | 02:27:39 | 00:00:00 | |
| DJ2KF-10 | 2026-09-03 12:45:35 | 50.91125 | 8.55841 | 110° | 89km/h | 14790m | -10.3m/s | -54.7°C | 5.0% | 132.2hPa | 2.6V | 00:00:00 | 02:27:42 | 00:00:00 | |
| DL3AQ-11 | 2026-09-03 12:45:33 | 50.91150 | 8.55734 | 111° | 97km/h | 14821m | -10.5m/s | -54.6°C | 1.8% | 131.6hPa | 2.6V | 00:00:00 | 00:00:00 | 00:00:00 | |
| BIOWL9-15 | 2026-09-03 12:45:32 | 50.91159 | 8.55698 | 111° | 95km/h | 14832m | -10.4m/s | -54.3°C | 1.7% | 131.4hPa | 2.6V | 00:00:00 | 00:00:00 | 00:00:00 | |
| DL1XH1-15 | 2026-09-03 12:45:31 | 50.91188 | 8.55593 | 115° | 95km/h | 14863m | -10.3m/s | -54.5°C | 5% | 130.8hPa | 2.6V | 08:13:28 | 02:27:35 | 00:00:00 | |
| DL1XH-west | 2026-09-03 12:45:30 | 50.91168 | 8.55662 | 113° | 97km/h | 14842m | -10.5m/s | -54.3°C | 1.3% | 131.2hPa | 2.5V | 08:14:00 | 02:27:37 | 00:00:00 | |
| AA1-15 | 2026-09-03 12:45:29 | 50.91178 | 8.55627 | 114° | 95km/h | 14853m | -10.6m/s | -54.4°C | 1.3% | 131hPa | 2.6V | 08:14:00 | 02:27:36 | 00:00:00 | |
| DL1NUX | 2026-09-03 12:45:27 | 50.91209 | 8.55525 | 116° | 93km/h | 14884m | -10.4m/s | -54.5°C | 5% | 130.4hPa | 2.6V | 08:13:30 | 02:27:33 | 00:00:00 | |
| BIOWL1-15 | 2026-09-03 12:45:26 | 50.91229 | 8.55461 | 117° | 89km/h | 14904m | -10.4m/s | -54.6°C | 1.4% | 129.9hPa | 2.6V | 08:14:00 | 02:27:31 | 00:00:00 | |
| HSKMA3-T | 2026-09-03 12:45:25 | 50.91219 | 8.55493 | 117° | 89km/h | 14894m | -10.2m/s | -54.6°C | 1.4% | 130.2hPa | 2.6V | 08:14:00 | 02:27:32 | 00:00:00 | |
| DL1XH-west | 2026-09-03 12:45:19 | 50.91307 | 8.55213 | 116° | 86km/h | 14987m | -10.1m/s | -54.3°C | 1.3% | 128.3hPa | 2.7V | 08:14:00 | 02:27:23 | 00:00:00 | |
| DL1NUX | 2026-09-03 12:45:19 | 50.91307 | 8.55213 | 116° | 86km/h | 14987m | -10.1m/s | -54.3°C | 4.8% | 128.3hPa | 2.7V | 08:13:40 | 02:27:23 | 00:00:00 | |
| AA1-15 | 2026-09-03 12:45:19 | 50.91288 | 8.55275 | 116° | 86km/h | 14967m | -10.2m/s | -54.4°C | 1.3% | 128.7hPa | 2.6V | 08:14:00 | 02:27:25 | 00:00:00 | |
| HSKMA3-T | 2026-09-03 12:45:14 | 50.91326 | 8.55151 | 116° | 86km/h | 15008m | -10.4m/s | -54°C | 1.2% | 127.9hPa | 2.6V | 08:14:00 | 02:27:21 | 00:00:00 | |
| DD1CC8 | 2026-09-03 12:45:14 | 50.91336 | 8.55120 | 114° | 84km/h | 15018m | -10.4m/s | -53.8°C | 1.6% | 127.7hPa | 2.6V | 00:00:00 | 00:00:00 | 00:00:00 | |
| DO3MHA-12 | 2026-09-03 12:45:13 | 50.91336 | 8.55120 | 115° | 84km/h | 15018m | -10.4m/s | -53.8°C | 4.6% | 127.6hPa | 2.6V | 00:00:00 | 02:27:20 | 00:00:00 | |
| DB0DAN | 2026-09-03 12:45:10 | 50.91361 | 8.55026 | 112° | 80km/h | 15050m | -10.4m/s | -53.9°C | 1.6% | 127.01hPa | 2.6V | 00:00:00 | 00:00:00 | 00:00:00 | |
| AA1-15 | 2026-09-03 12:45:08 | 50.91376 | 8.54963 | 110° | 84km/h | 15071m | -10.6m/s | -54.1°C | 1.2% | 126.6hPa | 2.6V | 08:14:00 | 02:27:15 | 00:00:00 | |
| DL1NUX | 2026-09-03 12:45:07 | 50.91391 | 8.54901 | 108° | 84km/h | 15092m | -10.3m/s | -54.2°C | 4.8% | 126.2hPa | 2.6V | 08:13:50 | 02:27:13 | 00:00:00 | |
| DL1XH-west | 2026-09-03 12:45:07 | 50.91384 | 8.54932 | 110° | 82km/h | 15081m | -10.4m/s | -54.1°C | 1.2% | 126.4hPa | 2.7V | 08:14:00 | 02:27:14 | 00:00:00 | |
| BIOWL1-15 | 2026-09-03 12:45:04 | 50.91429 | 8.54714 | 108° | 80km/h | 15153m | -9.8m/s | -54.5°C | 1.4% | 125hPa | 2.6V | 08:14:00 | 02:27:07 | 00:00:00 | |
| HSKMA3-T | 2026-09-03 12:45:03 | 50.91410 | 8.54807 | 107° | 80km/h | 15123m | -10.3m/s | -54.3°C | 1.4% | 125.6hPa | 2.6V | 08:14:00 | 02:27:10 | 00:00:00 | |
| AA1-15 | 2026-09-03 12:44:58 | 50.91441 | 8.54653 | 108° | 80km/h | 15174m | -10.4m/s | -54.6°C | 1.3% | 124.6hPa | 2.6V | 08:14:00 | 02:27:05 | 00:00:00 | |
| DL1NUX | 2026-09-03 12:44:57 | 50.91454 | 8.54593 | 108° | 78km/h | 15195m | -10.3m/s | -54.8°C | 4.8% | 124.2hPa | 2.6V | 08:14:00 | 02:27:03 | 00:00:00 | |
| DL1XH-west | 2026-09-03 12:44:57 | 50.91447 | 8.54623 | 108° | 80km/h | 15184m | -10.5m/s | -54.7°C | 1.2% | 124.4hPa | 2.6V | 08:14:00 | 02:27:04 | 00:00:00 | |
| BIOWL1-15 | 2026-09-03 12:44:53 | 50.91473 | 8.54503 | 110° | 77km/h | 15226m | -10.4m/s | -54.8°C | 1.3% | 123.6hPa | 2.6V | 08:14:51 | 02:27:00 | 00:00:00 | |
| HSKMA3-T | 2026-09-03 12:44:52 | 50.91479 | 8.54474 | 111° | 77km/h | 15237m | -10.5m/s | -54.8°C | 1.3% | 123.4hPa | 2.6V | 08:14:51 | 02:26:59 | 00:00:00 | |
| DO9LL-15 | 2026-09-03 12:44:52 | 50.91479 | 8.54474 | 111° | 78km/h | 15237m | -10.4m/s | -54.8°C | 4.9% | 123.3hPa | 2.6V | 00:00:00 | 02:26:59 | 00:00:00 | |
| DD8BA-10 | 2026-09-03 12:44:51 | 50.91486 | 8.54446 | 111° | 75km/h | 15248m | -10.6m/s | -54.7°C | 4.9% | 123.1hPa | 2.6V | 00:00:00 | 00:00:00 | 00:00:00 | |
| DL1XH1-15 | 2026-09-03 12:44:50 | 50.91508 | 8.54363 | 112° | 73km/h | 15279m | -10.8m/s | -54.7°C | 4.8% | 122.6hPa | 2.6V | 08:14:08 | 02:26:55 | 00:00:00 | |
| AA1-15 | 2026-09-03 12:44:47 | 50.91515 | 8.54336 | 112° | 73km/h | 15290m | -10.6m/s | -54.8°C | 1.2% | 122.4hPa | 2.6V | 08:14:51 | 02:26:54 | 00:00:00 | |
| DL1XH-west | 2026-09-03 12:44:46 | 50.91522 | 8.54308 | 112° | 75km/h | 15300m | -10.4m/s | -54.9°C | 1.2% | 122.2hPa | 2.6V | 08:14:51 | 02:26:53 | 00:00:00 | |
| DL8DAS-14 | 2026-09-03 12:44:45 | 50.91529 | 8.54281 | 110° | 73km/h | 15311m | -10.6m/s | -54.8°C | 1.7% | 121.9hPa | 2.6V | 00:00:00 | 00:00:00 | 00:00:00 | |
| BIOWL1-15 | 2026-09-03 12:44:43 | 50.91541 | 8.54224 | 109° | 77km/h | 15332m | -10.5m/s | -54.9°C | 1.2% | 121.6hPa | 2.6V | 08:14:51 | 02:26:50 | 00:00:00 | |
| HSKMA3-T | 2026-09-03 12:44:42 | 50.91548 | 8.54195 | 109° | 77km/h | 15343m | -10.6m/s | -54.9°C | 1.3% | 121.3hPa | 2.6V | 08:14:51 | 02:26:49 | 00:00:00 | |
| DB0NH | 2026-09-03 12:44:41 | 50.91554 | 8.54166 | 110° | 77km/h | 15353m | -10.7m/s | -54.9°C | 5.0% | 121.1hPa | 2.6V | 00:00:00 | 02:26:48 | 00:00:00 | |
| DL1XH1-15 | 2026-09-03 12:44:39 | 50.91576 | 8.54077 | 113° | 80km/h | 15385m | -10.8m/s | -55°C | 4.9% | 120.5hPa | 2.6V | 08:14:18 | 02:26:45 | 00:00:00 | |
| AA1-15 | 2026-09-03 12:44:36 | 50.91593 | 8.54018 | 117° | 80km/h | 15407m | -10.8m/s | -55°C | 1.1% | 120.2hPa | 2.7V | 08:14:51 | 02:26:43 | 00:00:00 | |
| DL1XH-west | 2026-09-03 12:44:35 | 50.91602 | 8.53990 | 118° | 78km/h | 15417m | -10.4m/s | -54.9°C | 1.1% | 119.9hPa | 2.6V | 08:14:51 | 02:26:42 | 00:00:00 | |
| BIOWL1-15 | 2026-09-03 12:44:32 | 50.91630 | 8.53907 | 118° | 77km/h | 15449m | -10.5m/s | -55°C | 1.1% | 119.3hPa | 2.6V | 08:14:51 | 02:26:39 | 00:00:00 | |
| DM0DOS-11 | 2026-09-03 12:44:32 | 50.91664 | 8.53800 | 115° | 73km/h | 15491m | -10.4m/s | -54.9°C | 4.7% | 118.6hPa | 2.6V | 08:14:28 | 02:26:35 | 00:00:00 | |
| HSKMA3-T | 2026-09-03 12:44:32 | 50.91639 | 8.53880 | 117° | 75km/h | 15460m | -10.5m/s | -55°C | 1.1% | 119.1hPa | 2.7V | 08:14:51 | 02:26:38 | 00:00:00 | |
| DD8BA-10 | 2026-09-03 12:44:32 | 50.91639 | 8.53880 | 118° | 73km/h | 15460m | -10.5m/s | -54.9°C | 4.8% | 119.1hPa | 2.7V | 00:00:00 | 00:00:00 | 00:00:00 | |
| BIOWL9-15 | 2026-09-03 12:44:30 | 50.91656 | 8.53827 | 116° | 73km/h | 15480m | -10.5m/s | -54.9°C | 1.6% | 118.8hPa | 2.7V | 00:00:00 | 00:00:00 | 00:00:00 | |
| DL1NUX | 2026-09-03 12:44:29 | 50.91680 | 8.53748 | 114° | 73km/h | 15512m | -10.6m/s | -54.7°C | 4.7% | 118.2hPa | 2.7V | 08:14:30 | 02:26:33 | 00:00:00 | |
| AA1-15 | 2026-09-03 12:44:25 | 50.91687 | 8.53721 | 114° | 71km/h | 15523m | -10.5m/s | -54.7°C | 1.1% | 118hPa | 2.7V | 08:14:51 | 02:26:32 | 00:00:00 | |
| DL1XH-west | 2026-09-03 12:44:24 | 50.91694 | 8.53695 | 113° | 73km/h | 15534m | -10.5m/s | -54.7°C | 1% | 117.8hPa | 2.6V | 08:14:51 | 02:26:31 | 00:00:00 | |
| BIOWL1-15 | 2026-09-03 12:44:22 | 50.91708 | 8.53641 | 112° | 73km/h | 15555m | -10.3m/s | -54.8°C | 1% | 117.4hPa | 2.6V | 08:14:51 | 02:26:29 | 00:00:00 | |
| DL1XH-15 | 2026-09-03 12:44:22 | 50.91744 | 8.53501 | 111° | 77km/h | 15607m | -10.6m/s | -54.9°C | 4.9% | 116.4hPa | 2.6V | 08:14:39 | 02:26:24 | 00:00:00 | |
| HSKMA3-T | 2026-09-03 12:44:21 | 50.91715 | 8.53614 | 112° | 73km/h | 15565m | -10.6m/s | -54.9°C | 1.1% | 117.2hPa | 2.6V | 08:14:51 | 02:26:28 | 00:00:00 | |
| DD8BA-10 | 2026-09-03 12:44:21 | 50.91715 | 8.53614 | 112° | 77km/h | 15565m | -10.6m/s | -54.8°C | 4.8% | 117.1hPa | 2.7V | 00:00:00 | 00:00:00 | 00:00:00 | |
| DL1XH1-15 | 2026-09-03 12:44:19 | 50.91737 | 8.53530 | 112° | 77km/h | 15597m | -10.3m/s | -54.9°C | 4.9% | 116.6hPa | 2.7V | 08:14:38 | 02:26:25 | 00:00:00 | |
| GOEST3-10 | 2026-09-03 12:44:19 | 50.91729 | 8.53558 | 112° | 77km/h | 15586m | -10.5m/s | -54.8°C | 4.8% | 116.7hPa | 2.7V | 00:00:00 | 00:00:00 | 00:00:00 | |
| DL1NUX | 2026-09-03 12:44:17 | 50.91751 | 8.53472 | 111° | 78km/h | 15618m | -10.4m/s | -54.9°C | 4.9% | 116.2hPa | 2.6V | 08:14:40 | 02:26:23 | 00:00:00 | |
| AA1-15 | 2026-09-03 12:44:15 | 50.91759 | 8.53443 | 111° | 78km/h | 15628m | -10.3m/s | -55°C | 1.1% | 116hPa | 2.6V | 08:14:51 | 02:26:22 | 00:00:00 | |
| DL1XH-west | 2026-09-03 12:44:14 | 50.91766 | 8.53414 | 111° | 78km/h | 15638m | -10.4m/s | -55°C | 1.1% | 115.8hPa | 2.6V | 08:14:51 | 02:26:21 | 00:00:00 | |
| BIOWL1-15 | 2026-09-03 12:44:11 | 50.91837 | 8.53154 | 117° | 80km/h | 15733m | -10.5m/s | -55.1°C | 1.1% | 114.1hPa | 2.6V | 08:14:51 | 02:26:12 | 00:00:00 | |
| EDDB2-11 | 2026-09-03 12:44:11 | 50.91795 | 8.53297 | 112° | 77km/h | 15681m | -10.4m/s | -55.0°C | 1.5% | 115.1hPa | 2.7V | 00:00:00 | 00:00:00 | 00:00:00 | |
| DL1XH-15 | 2026-09-03 12:44:10 | 50.91819 | 8.53211 | 114° | 80km/h | 15712m | -10.3m/s | -55.1°C | 4.8% | 114.5hPa | 2.7V | 08:14:49 | 02:26:14 | 00:00:00 | |
| HSKMA3-T | 2026-09-03 12:44:10 | 50.91795 | 8.53297 | 113° | 78km/h | 15681m | -10.4m/s | -55°C | 1% | 115.1hPa | 2.6V | 08:14:51 | 02:26:17 | 00:00:00 | |
| DB0DAN | 2026-09-03 12:44:10 | 50.91795 | 8.53297 | 113° | 75km/h | 15681m | -10.4m/s | -55°C | 1.5% | 115.09hPa | 2.6V | 00:00:00 | 00:00:00 | 00:00:00 | |
| DJ2DS-15 | 2026-09-03 12:44:10 | 50.91795 | 8.53297 | 113° | 84km/h | 15681m | -10.4m/s | -55.0°C | 4.8% | 115.0hPa | 2.6V | 00:00:00 | 02:26:17 | 00:00:00 | |
| DL1NUX | 2026-09-03 12:44:09 | 50.91828 | 8.53182 | 116° | 78km/h | 15723m | -10.4m/s | -55.1°C | 4.9% | 114.3hPa | 2.6V | 08:14:50 | 02:26:13 | 00:00:00 | |
| AA1-15 | 2026-09-03 12:44:05 | 50.91846 | 8.53125 | 117° | 80km/h | 15744m | -10.3m/s | -55.1°C | 1.1% | 113.9hPa | 2.6V | 08:15:42 | 02:26:11 | 00:00:00 | |
| DL1XH-west | 2026-09-03 12:44:03 | 50.91884 | 8.53007 | 117° | 86km/h | 15786m | -10.5m/s | -55.4°C | 1.1% | 113.2hPa | 2.7V | 08:15:42 | 02:26:07 | 00:00:00 | |
| DO3MHA-12 | 2026-09-03 12:44:03 | 50.91855 | 8.53096 | 118° | 86km/h | 15755m | -10.6m/s | -55.1°C | 4.9% | 113.7hPa | 2.6V | 08:14:00 | 02:26:10 | 00:00:00 | |
| DL1XH-15 | 2026-09-03 12:44:02 | 50.91914 | 8.52914 | 116° | 89km/h | 15818m | -10.6m/s | -55.3°C | 5% | 112.6hPa | 2.6V | 08:14:59 | 02:26:04 | 00:00:00 | |
| BIOWL1-15 | 2026-09-03 12:44:00 | 50.91894 | 8.52977 | 117° | 88km/h | 15797m | -10.5m/s | -55.4°C | 1.1% | 113hPa | 2.6V | 08:15:42 | 02:26:06 | 00:00:00 | |
| BIOWL9-15 | 2026-09-03 12:43:59 | 50.91904 | 8.52946 | 116° | 86km/h | 15807m | -10.6m/s | -55.3°C | 1.6% | 112.8hPa | 2.6V | 00:00:00 | 00:00:00 | 00:00:00 | |
| DL1NUX | 2026-09-03 12:43:57 | 50.91924 | 8.52882 | 116° | 89km/h | 15829m | -10.6m/s | -55°C | 4.9% | 112.4hPa | 2.6V | 08:15:00 | 02:26:03 | 00:00:00 | |
| AA1-15 | 2026-09-03 12:43:54 | 50.91954 | 8.52785 | 116° | 91km/h | 15860m | -10.7m/s | -54.6°C | 1% | 111.8hPa | 2.6V | 08:15:42 | 02:26:00 | 00:00:00 | |
| DO3MHA-12 | 2026-09-03 12:43:53 | 50.91954 | 8.52785 | 117° | 89km/h | 15861m | -10.7m/s | -54.6°C | 4.7% | 111.8hPa | 2.6V | 00:00:00 | 02:26:00 | 00:00:00 | |
| DM0DOS-11 | 2026-09-03 12:43:51 | 50.92007 | 8.52626 | 119° | 88km/h | 15913m | -10.7m/s | -54.5°C | 4.6% | 110.9hPa | 2.6V | 08:15:08 | 02:25:55 | 00:00:00 | |
| BIOWL1-15 | 2026-09-03 12:43:51 | 50.91996 | 8.52657 | 119° | 89km/h | 15903m | -10.8m/s | -54.5°C | 0.9% | 111.1hPa | 2.7V | 08:15:42 | 02:25:56 | 00:00:00 | |
| DL1XH-west | 2026-09-03 12:43:50 | 50.91985 | 8.52689 | 118° | 89km/h | 15892m | -10.7m/s | -54.6°C | 0.9% | 111.3hPa | 2.7V | 08:15:42 | 02:25:57 | 00:00:00 | |
| HSKMA3-T | 2026-09-03 12:43:48 | 50.92007 | 8.52626 | 120° | 88km/h | 15914m | -10.7m/s | -54.5°C | 1% | 110.9hPa | 2.6V | 08:15:42 | 02:25:55 | 00:00:00 | |
| DL1NUX | 2026-09-03 12:43:47 | 50.92029 | 8.52566 | 120° | 88km/h | 15935m | -10.8m/s | -54.7°C | 4.6% | 110.6hPa | 2.6V | 08:15:10 | 02:25:53 | 00:00:00 | |
| DL3AQ-11 | 2026-09-03 12:43:45 | 50.92041 | 8.52536 | 121° | 86km/h | 15946m | -10.8m/s | -54.7°C | 1.5% | 110.4hPa | 2.7V | 00:00:00 | 00:00:00 | 00:00:00 | |
| AA1-15 | 2026-09-03 12:43:43 | 50.92064 | 8.52477 | 122° | 86km/h | 15967m | -10.6m/s | -54.7°C | 1% | 110hPa | 2.7V | 08:15:42 | 02:25:50 | 00:00:00 | |
| DL1XH-west | 2026-09-03 12:43:39 | 50.92106 | 8.52362 | 119° | 82km/h | 16010m | -10.7m/s | -54.7°C | 1% | 109.2hPa | 2.6V | 08:15:42 | 02:25:46 | 00:00:00 | |
| BIOWL1-15 | 2026-09-03 12:43:38 | 50.92116 | 8.52334 | 119° | 82km/h | 16020m | -10.5m/s | -54.5°C | 0.9% | 109.1hPa | 2.6V | 08:15:42 | 02:25:45 | 00:00:00 | |
| AA1-15 | 2026-09-03 12:43:32 | 50.92178 | 8.52164 | 122° | 82km/h | 16085m | -10.8m/s | -54.9°C | 1% | 108hPa | 2.7V | 08:15:42 | 02:25:39 | 00:00:00 | |
| DM0DOS-11 | 2026-09-03 12:43:31 | 50.92220 | 8.52058 | 122° | 75km/h | 16129m | -10.9m/s | -55.2°C | 4.9% | 107.3hPa | 2.6V | 08:15:28 | 02:25:35 | 00:00:00 | |
| DL1XH-west | 2026-09-03 12:43:29 | 50.92209 | 8.52084 | 122° | 77km/h | 16118m | -11m/s | -55.2°C | 1.1% | 107.5hPa | 2.6V | 08:15:42 | 02:25:36 | 00:00:00 | |
| BIOWL1-15 | 2026-09-03 12:43:27 | 50.92266 | 8.51939 | 121° | 66km/h | 16183m | -11m/s | -55.1°C | 1% | 106.3hPa | 2.6V | 08:15:42 | 02:25:30 | 00:00:00 | |
| DL1NUX | 2026-09-03 12:43:27 | 50.92239 | 8.52009 | 122° | 71km/h | 16150m | -10.9m/s | -55°C | 4.9% | 106.9hPa | 2.7V | 08:15:30 | 02:25:33 | 00:00:00 | |
| HSKMA3-T | 2026-09-03 12:43:27 | 50.92230 | 8.52033 | 122° | 73km/h | 16139m | -11m/s | -55.1°C | 1% | 107.1hPa | 2.6V | 08:15:42 | 02:25:34 | 00:00:00 | |
| AA1-15 | 2026-09-03 12:43:21 | 50.92283 | 8.51895 | 121° | 64km/h | 16205m | -11m/s | -54.7°C | 0.9% | 106hPa | 2.7V | 08:15:42 | 02:25:28 | 00:00:00 | |
| DD8BA-10 | 2026-09-03 12:43:21 | 50.92283 | 8.51895 | 121° | 66km/h | 16205m | -10.9m/s | -54.6°C | 4.6% | 106.0hPa | 2.6V | 00:00:00 | 00:00:00 | 00:00:00 | |
| DL3OBA | 2026-09-03 12:43:20 | 50.92283 | 8.51895 | 122° | 64km/h | 16205m | -11.0m/s | -54.7°C | 1.4% | 106.0hPa | 2.6V | 08:15:00 | 00:00:00 | 00:00:00 | |
| DL1XH1-15 | 2026-09-03 12:43:19 | 50.92308 | 8.51828 | 120° | 66km/h | 16238m | -10.5m/s | -54.6°C | 4.5% | 105.5hPa | 2.6V | 08:15:38 | 02:25:25 | 00:00:00 | |
| DL1XH-west | 2026-09-03 12:43:18 | 50.92308 | 8.51828 | 121° | 66km/h | 16238m | -10.5m/s | -54.6°C | 0.9% | 105.5hPa | 2.6V | 08:15:42 | 02:25:25 | 00:00:00 | |
| DL1NUX | 2026-09-03 12:43:17 | 50.92325 | 8.51782 | 118° | 68km/h | 16260m | -11.1m/s | -54.6°C | 4.5% | 105.1hPa | 2.6V | 08:15:40 | 02:25:23 | 00:00:00 | |
| HSKMA3-T | 2026-09-03 12:43:16 | 50.92325 | 8.51782 | 118° | 68km/h | 16260m | -11.1m/s | -54.6°C | 0.9% | 105.1hPa | 2.6V | 08:15:42 | 02:25:23 | 00:00:00 | |
| BIOWL1-15 | 2026-09-03 12:43:12 | 50.92355 | 8.51686 | 115° | 68km/h | 16304m | -10.9m/s | -54.5°C | 0.9% | 104.4hPa | 2.7V | 08:16:33 | 02:25:19 | 00:00:00 | |
| DL8DAS-14 | 2026-09-03 12:43:12 | 50.92355 | 8.51686 | 115° | 66km/h | 16304m | -10.9m/s | -54.5°C | 1.4% | 104.4hPa | 2.7V | 00:00:00 | 00:00:00 | 00:00:00 | |
| DM0DOS-11 | 2026-09-03 12:43:11 | 50.92383 | 8.51587 | 114° | 68km/h | 16347m | -10.7m/s | -54.8°C | 4.6% | 103.7hPa | 2.7V | 08:15:48 | 02:25:15 | 00:00:00 | |
| AA1-15 | 2026-09-03 12:43:10 | 50.92369 | 8.51637 | 114° | 68km/h | 16325m | -10.9m/s | -54.7°C | 0.9% | 104hPa | 2.6V | 08:16:33 | 02:25:17 | 00:00:00 | |
| DL1XH-west | 2026-09-03 12:43:07 | 50.92390 | 8.51563 | 115° | 68km/h | 16358m | -11.1m/s | -54.8°C | 0.9% | 103.5hPa | 2.7V | 08:16:33 | 02:25:14 | 00:00:00 | |
| DL1NUX | 2026-09-03 12:43:07 | 50.92397 | 8.51539 | 115° | 68km/h | 16369m | -11.1m/s | -54.9°C | 4.7% | 103.3hPa | 2.6V | 08:15:50 | 02:25:13 | 00:00:00 | |
| HSKMA3-T | 2026-09-03 12:43:06 | 50.92397 | 8.51539 | 116° | 68km/h | 16369m | -11.1m/s | -54.9°C | 0.9% | 103.3hPa | 2.6V | 08:16:33 | 02:25:13 | 00:00:00 | |
| AA1-15 | 2026-09-03 12:43:00 | 50.92450 | 8.51385 | 120° | 77km/h | 16434m | -10.8m/s | -55°C | 1% | 102.3hPa | 2.6V | 08:16:33 | 02:25:07 | 00:00:00 | |
| DL1XH1-15 | 2026-09-03 12:42:59 | 50.92470 | 8.51333 | 121° | 75km/h | 16456m | -11.2m/s | -54.7°C | 4.6% | 101.9hPa | 2.6V | 08:15:58 | 02:25:05 | 00:00:00 | |
| DL1NUX | 2026-09-03 12:42:58 | 50.92490 | 8.51283 | 123° | 71km/h | 16478m | -11.1m/s | -54.7°C | 4.5% | 101.5hPa | 2.7V | 08:16:00 | 02:25:03 | 00:00:00 | |
| DL1XH-west | 2026-09-03 12:42:56 | 50.92490 | 8.51283 | 123° | 71km/h | 16478m | -11.1m/s | -54.7°C | 0.8% | 101.6hPa | 2.7V | 08:16:33 | 02:25:03 | 00:00:00 | |
| HSKMA3-T | 2026-09-03 12:42:55 | 50.92499 | 8.51260 | 123° | 69km/h | 16489m | -11.1m/s | -54.7°C | 0.8% | 101.4hPa | 2.6V | 08:16:33 | 02:25:02 | 00:00:00 | |
| SO1NDE-10 | 2026-09-03 12:42:55 | 50.92499 | 8.51260 | 124° | 66km/h | 16489m | -11.0m/s | -54.7°C | 4.5% | 101.3hPa | 2.6V | 00:00:00 | 02:25:02 | 00:00:00 | |
| DM0DOS-11 | 2026-09-03 12:42:52 | 50.92567 | 8.51101 | 124° | 68km/h | 16568m | -11.3m/s | -54.8°C | 4.5% | 100.2hPa | 2.6V | 08:16:08 | 02:24:55 | 00:00:00 | |
| AA1-15 | 2026-09-03 12:42:49 | 50.92558 | 8.51123 | 124° | 68km/h | 16557m | -11m/s | -54.8°C | 0.8% | 100.3hPa | 2.6V | 08:16:33 | 02:24:56 | 00:00:00 | |
| BUE01 | 2026-09-03 12:42:48 | 50.92577 | 8.51079 | 123° | 64km/h | 16579m | -10.9m/s | -54.8°C | 1.4% | 100.0hPa | 2.6V | 00:00:00 | 00:00:00 | 00:00:00 | |
| DL1NUX | 2026-09-03 12:42:47 | 50.92586 | 8.51057 | 123° | 66km/h | 16590m | -11m/s | -54.7°C | 4.6% | 99.8hPa | 2.6V | 08:16:10 | 02:24:53 | 00:00:00 | |
| DL1XH-west | 2026-09-03 12:42:45 | 50.92595 | 8.51035 | 121° | 66km/h | 16601m | -11.1m/s | -54.7°C | 0.8% | 99.6hPa | 2.7V | 08:16:33 | 02:24:52 | 00:00:00 | |
| DL9SK-14 | 2026-09-03 12:42:42 | 50.92618 | 8.50966 | 115° | 64km/h | 16634m | -10.8m/s | -55.0°C | 1.4% | 99.1hPa | 2.6V | 00:00:00 | 00:00:00 | 00:00:00 | |
| DD8BA-10 | 2026-09-03 12:42:41 | 50.92625 | 8.50942 | 114° | 66km/h | 16645m | -11.0m/s | -55.0°C | 4.7% | 98.9hPa | 2.6V | 00:00:00 | 00:00:00 | 00:00:00 | |
| DL1XH1-15 | 2026-09-03 12:42:39 | 50.92644 | 8.50868 | 111° | 66km/h | 16678m | -10.9m/s | -55.3°C | 4.7% | 98.4hPa | 2.7V | 08:16:18 | 02:24:45 | 00:00:00 | |
| AA1-15 | 2026-09-03 12:42:38 | 50.92644 | 8.50868 | 111° | 66km/h | 16678m | -10.9m/s | -55.3°C | 0.9% | 98.4hPa | 2.7V | 08:16:33 | 02:24:45 | 00:00:00 | |
| DL1NUX | 2026-09-03 12:42:37 | 50.92656 | 8.50820 | 112° | 66km/h | 16700m | -11.3m/s | -55.4°C | 4.8% | 98.1hPa | 2.6V | 08:16:20 | 02:24:43 | 00:00:00 | |
| DL1XH-west | 2026-09-03 12:42:35 | 50.92663 | 8.50796 | 114° | 64km/h | 16711m | -11.2m/s | -55.6°C | 0.9% | 97.9hPa | 2.7V | 08:16:33 | 02:24:42 | 00:00:00 | |
| AA1-15 | 2026-09-03 12:42:27 | 50.92724 | 8.50622 | 125° | 58km/h | 16801m | -11.4m/s | -55.4°C | 0.9% | 96.6hPa | 2.6V | 08:16:33 | 02:24:34 | 00:00:00 | |
| DL1NUX | 2026-09-03 12:42:27 | 50.92733 | 8.50604 | 126° | 57km/h | 16812m | -11.2m/s | -55.4°C | 4.8% | 96.4hPa | 2.6V | 08:16:30 | 02:24:33 | 00:00:00 | |
| DL1XH-west | 2026-09-03 12:42:25 | 50.92741 | 8.50586 | 127° | 53km/h | 16823m | -11.1m/s | -55.3°C | 0.9% | 96.2hPa | 2.6V | 08:16:33 | 02:24:32 | 00:00:00 | |
| BIOWL1-15 | 2026-09-03 12:42:24 | 50.92749 | 8.50570 | 129° | 51km/h | 16834m | -11.2m/s | -55.1°C | 0.8% | 96hPa | 2.6V | 08:16:33 | 02:24:31 | 00:00:00 | |
| DL8DAS-15 | 2026-09-03 12:42:22 | 50.92757 | 8.50554 | 130° | 49km/h | 16846m | -11.4m/s | -55.0°C | 1.4% | 95.9hPa | 2.7V | 08:16:00 | 00:00:00 | 00:00:00 | |
| DD8BA-10 | 2026-09-03 12:42:21 | 50.92772 | 8.50524 | 129° | 42km/h | 16868m | -11.3m/s | -54.9°C | 4.7% | 95.5hPa | 2.7V | 00:00:00 | 00:00:00 | 00:00:00 | |
| GOEST3-10 | 2026-09-03 12:42:20 | 50.92779 | 8.50510 | 130° | 42km/h | 16879m | -10.5m/s | -54.8°C | 4.7% | 95.3hPa | 2.7V | 00:00:00 | 02:24:27 | 00:00:00 | |
| DD1CC3-15 | 2026-09-03 12:42:19 | 50.92779 | 8.50510 | 130° | 44km/h | 16879m | -10.5m/s | -54.9°C | 1.4% | 95.4hPa | 2.7V | 08:17:00 | 00:00:00 | 00:00:00 | |
| DL1NUX | 2026-09-03 12:42:17 | 50.92804 | 8.50457 | 123° | 40km/h | 16923m | -11.5m/s | -54.6°C | 4.4% | 94.7hPa | 2.7V | 08:16:40 | 02:24:23 | 00:00:00 | |
| AA1-15 | 2026-09-03 12:42:17 | 50.92798 | 8.50471 | 126° | 40km/h | 16912m | -10.9m/s | -54.8°C | 0.8% | 94.9hPa | 2.7V | 08:17:24 | 02:24:24 | 00:00:00 | |
| BIOWL1-15 | 2026-09-03 12:42:14 | 50.92815 | 8.50429 | 121° | 42km/h | 16946m | -11.3m/s | -54.7°C | 0.7% | 94.4hPa | 2.6V | 08:17:24 | 02:24:21 | 00:00:00 | |
| HSKMA3-T | 2026-09-03 12:42:13 | 50.92820 | 8.50415 | 121° | 42km/h | 16957m | -11.1m/s | -54.8°C | 0.8% | 94.2hPa | 2.7V | 08:17:24 | 02:24:20 | 00:00:00 | |
| DL8DAS-15 | 2026-09-03 12:42:12 | 50.92820 | 8.50415 | 122° | 42km/h | 16958m | -11.1m/s | -54.8°C | 1.4% | 94.2hPa | 2.6V | 00:00:00 | 00:00:00 | 00:00:00 | |
| DB0DAN | 2026-09-03 12:42:10 | 50.92836 | 8.50372 | 119° | 40km/h | 16991m | -11.5m/s | -55°C | 1.3% | 93.71hPa | 2.6V | 00:00:00 | 00:00:00 | 00:00:00 | |
| AA1-15 | 2026-09-03 12:42:06 | 50.92854 | 8.50316 | 113° | 37km/h | 17036m | -11.2m/s | -55°C | 0.8% | 93hPa | 2.7V | 08:17:24 | 02:24:13 | 00:00:00 | |
| DL1XH-west | 2026-09-03 12:42:04 | 50.92864 | 8.50277 | 112° | 35km/h | 17071m | -11.6m/s | -54.7°C | 0.8% | 92.6hPa | 2.6V | 08:17:24 | 02:24:10 | 00:00:00 | |
| HSKMA3-T | 2026-09-03 12:42:02 | 50.92868 | 8.50264 | 112° | 35km/h | 17082m | -11.4m/s | -54.7°C | 0.8% | 92.4hPa | 2.6V | 08:17:24 | 02:24:09 | 00:00:00 | |
| DL3AQ-11 | 2026-09-03 12:42:02 | 50.92871 | 8.50251 | 110° | 35km/h | 17093m | -11.2m/s | -54.6°C | 1.3% | 92.2hPa | 2.6V | 00:00:00 | 00:00:00 | 00:00:00 | |
| DD8BA-10 | 2026-09-03 12:42:01 | 50.92871 | 8.50251 | 111° | 35km/h | 17093m | -11.2m/s | -54.6°C | 4.5% | 92.2hPa | 2.6V | 00:00:00 | 00:00:00 | 00:00:00 | |
| DL1XH1-15 | 2026-09-03 12:41:59 | 50.92879 | 8.50212 | 105° | 35km/h | 17128m | -11.7m/s | -54.4°C | 4.4% | 91.7hPa | 2.6V | 08:16:58 | 02:24:05 | 00:00:00 | |
| AA1-15 | 2026-09-03 12:41:56 | 50.92883 | 8.50185 | 103° | 35km/h | 17151m | -11.8m/s | -54.5°C | 0.7% | 91.4hPa | 2.6V | 08:17:24 | 02:24:03 | 00:00:00 | |
| DL1XH-west | 2026-09-03 12:41:53 | 50.92889 | 8.50144 | 103° | 35km/h | 17186m | -11.6m/s | -54.7°C | 0.7% | 90.9hPa | 2.6V | 08:17:24 | 02:24:00 | 00:00:00 | |
| HSKMA3-T | 2026-09-03 12:41:51 | 50.92893 | 8.50116 | 103° | 37km/h | 17210m | -11.2m/s | -54.5°C | 0.7% | 90.5hPa | 2.7V | 08:17:24 | 02:23:58 | 00:00:00 | |
| DD8BA-10 | 2026-09-03 12:41:51 | 50.92893 | 8.50116 | 103° | 31km/h | 17210m | -11.2m/s | -54.5°C | 4.5% | 90.5hPa | 2.6V | 00:00:00 | 00:00:00 | 00:00:00 | |
| DL1XH1-15 | 2026-09-03 12:41:49 | 50.92899 | 8.50075 | 103° | 33km/h | 17244m | -11.6m/s | -54.5°C | 4.4% | 90.1hPa | 2.6V | 08:17:08 | 02:23:55 | 00:00:00 | |
| AA1-15 | 2026-09-03 12:41:45 | 50.92904 | 8.50040 | 102° | 27km/h | 17279m | -11.6m/s | -54.6°C | 0.7% | 89.6hPa | 2.7V | 08:17:24 | 02:23:52 | 00:00:00 | |
| DL1XH-15 | 2026-09-03 12:41:45 | 50.92911 | 8.49990 | 103° | 26km/h | 17338m | -11.6m/s | -54.6°C | 4.4% | 88.8hPa | 2.7V | 08:17:16 | 02:23:47 | 00:00:00 | |
| BIOWL1-15 | 2026-09-03 12:41:45 | 50.92909 | 8.50000 | 102° | 26km/h | 17326m | -11.9m/s | -54.6°C | 0.7% | 88.9hPa | 2.6V | 08:17:24 | 02:23:48 | 00:00:00 | |
| DL1XH1-15 | 2026-09-03 12:41:43 | 50.92914 | 8.49970 | 108° | 27km/h | 17361m | -11.7m/s | -54.6°C | 4.4% | 88.4hPa | 2.6V | 08:17:18 | 02:23:45 | 00:00:00 | |
| DL1XH-west | 2026-09-03 12:41:42 | 50.92908 | 8.50010 | 102° | 24km/h | 17314m | -12m/s | -54.5°C | 0.7% | 89.1hPa | 2.6V | 08:17:24 | 02:23:49 | 00:00:00 | |
| HSKMA3-T | 2026-09-03 12:41:40 | 50.92911 | 8.49990 | 104° | 26km/h | 17338m | -11.6m/s | -54.7°C | 0.7% | 88.8hPa | 2.7V | 08:17:24 | 02:23:47 | 00:00:00 | |
| DB0DAN | 2026-09-03 12:41:40 | 50.92911 | 8.49990 | 103° | 24km/h | 17338m | -11.6m/s | -54.7°C | 1.2% | 88.8hPa | 2.7V | 00:00:00 | 00:00:00 | 00:00:00 | |
| AA1-15 | 2026-09-03 12:41:35 | 50.92922 | 8.49936 | 112° | 33km/h | 17396m | -11.6m/s | -54.7°C | 0.7% | 88hPa | 2.7V | 08:17:24 | 02:23:42 | 00:00:00 | |
| DL1XH-west | 2026-09-03 12:41:31 | 50.92935 | 8.49886 | 112° | 35km/h | 17443m | -11.8m/s | -55°C | 0.7% | 87.3hPa | 2.6V | 08:18:15 | 02:23:38 | 00:00:00 | |
| HSKMA3-T | 2026-09-03 12:41:30 | 50.92938 | 8.49874 | 112° | 35km/h | 17455m | -11.6m/s | -55°C | 0.7% | 87.2hPa | 2.6V | 08:18:15 | 02:23:37 | 00:00:00 | |
| AA1-15 | 2026-09-03 12:41:24 | 50.92958 | 8.49799 | 112° | 35km/h | 17524m | -11.7m/s | -55.1°C | 0.7% | 86.2hPa | 2.7V | 08:18:15 | 02:23:31 | 00:00:00 | |
| DL1XH-west | 2026-09-03 12:41:21 | 50.92967 | 8.49762 | 108° | 33km/h | 17559m | -11.9m/s | -55.1°C | 0.7% | 85.7hPa | 2.6V | 08:18:15 | 02:23:28 | 00:00:00 | |
| BIOWL1-15 | 2026-09-03 12:41:21 | 50.92974 | 8.49724 | 103° | 33km/h | 17594m | -11.4m/s | -55.4°C | 0.8% | 85.3hPa | 2.7V | 08:18:15 | 02:23:25 | 00:00:00 | |
| HSKMA3-T | 2026-09-03 12:41:20 | 50.92969 | 8.49749 | 107° | 33km/h | 17571m | -11.8m/s | -55.2°C | 0.7% | 85.6hPa | 2.6V | 08:18:15 | 02:23:27 | 00:00:00 | |
| AA1-15 | 2026-09-03 12:41:13 | 50.92980 | 8.49654 | 96° | 37km/h | 17653m | -12.1m/s | -55.9°C | 0.8% | 84.5hPa | 2.7V | 08:18:15 | 02:23:20 | 00:00:00 | |
| DL1XH-west | 2026-09-03 12:41:11 | 50.92982 | 8.49624 | 95° | 38km/h | 17677m | -11.9m/s | -56°C | 0.9% | 84.2hPa | 2.6V | 08:18:15 | 02:23:18 | 00:00:00 | |
| BIOWL1-15 | 2026-09-03 12:41:10 | 50.92989 | 8.49455 | 96° | 47km/h | 17797m | -12m/s | -55.1°C | 0.7% | 82.6hPa | 2.6V | 08:18:15 | 02:23:08 | 00:00:00 | |
| HSKMA3-T | 2026-09-03 12:41:10 | 50.92982 | 8.49609 | 93° | 38km/h | 17689m | -11.9m/s | -56°C | 0.9% | 84hPa | 2.6V | 08:18:15 | 02:23:17 | 00:00:00 | |
| DL1XH1-15 | 2026-09-03 12:41:09 | 50.92984 | 8.49578 | 93° | 40km/h | 17713m | -12.1m/s | -55.8°C | 4.8% | 83.7hPa | 2.7V | 08:17:48 | 02:23:15 | 00:00:00 | |
| AA1-15 | 2026-09-03 12:41:03 | 50.92987 | 8.49492 | 93° | 46km/h | 17773m | -12.2m/s | -55.1°C | 0.6% | 82.9hPa | 2.7V | 08:18:15 | 02:23:10 | 00:00:00 | |
| DL1XH-west | 2026-09-03 12:41:00 | 50.92990 | 8.49437 | 98° | 47km/h | 17809m | -12.2m/s | -55.1°C | 0.7% | 82.4hPa | 2.6V | 08:18:15 | 02:23:07 | 00:00:00 | |
| DM0DOS-11 | 2026-09-03 12:41:00 | 50.92993 | 8.49398 | 99° | 49km/h | 17833m | -12m/s | -55.2°C | 4.6% | 82.1hPa | 2.7V | 08:17:58 | 02:23:05 | 00:00:00 | |
| HSKMA3-T | 2026-09-03 12:40:59 | 50.92992 | 8.49418 | 98° | 47km/h | 17821m | -12.2m/s | -55.1°C | 0.7% | 82.3hPa | 2.6V | 08:18:15 | 02:23:06 | 00:00:00 | |
| BIOWL1-15 | 2026-09-03 12:40:58 | 50.92998 | 8.49359 | 101° | 51km/h | 17858m | -12.2m/s | -55.4°C | 0.8% | 81.8hPa | 2.7V | 08:18:15 | 02:23:03 | 00:00:00 | |
| DL1NUX | 2026-09-03 12:40:57 | 50.92998 | 8.49359 | 100° | 51km/h | 17858m | -12.2m/s | -55.4°C | 4.7% | 81.8hPa | 2.7V | 08:18:00 | 02:23:03 | 00:00:00 | |
| DB0DAN | 2026-09-03 12:40:55 | 50.93000 | 8.49339 | 103° | 49km/h | 17870m | -12m/s | -55.3°C | 1.3% | 81.65hPa | 2.6V | 00:00:00 | 00:00:00 | 00:00:00 | |
| AA1-15 | 2026-09-03 12:40:51 | 50.93015 | 8.49257 | 109° | 53km/h | 17918m | -12.1m/s | -55.1°C | 0.7% | 81hPa | 2.7V | 08:18:15 | 02:22:58 | 00:00:00 | |
| DD8BA-10 | 2026-09-03 12:40:51 | 50.93015 | 8.49257 | 109° | 51km/h | 17918m | -12.0m/s | -55.0°C | 4.5% | 81.0hPa | 2.7V | 00:00:00 | 00:00:00 | 00:00:00 | |
| DL8OAI-8 | 2026-09-03 12:40:50 | 50.93015 | 8.49257 | 110° | 53km/h | 17918m | -12.1m/s | -55.1°C | 1.3% | 81.0hPa | 2.7V | 08:18:00 | 00:00:00 | 00:00:00 | |
| DL1XH1-15 | 2026-09-03 12:40:49 | 50.93029 | 8.49198 | 112° | 53km/h | 17954m | -12.4m/s | -55.4°C | 4.6% | 80.6hPa | 2.7V | 08:18:08 | 02:22:55 | 00:00:00 | |
| DL1XH-west | 2026-09-03 12:40:49 | 50.93024 | 8.49217 | 111° | 53km/h | 17942m | -12.1m/s | -55.4°C | 0.7% | 80.7hPa | 2.6V | 08:18:15 | 02:22:56 | 00:00:00 | |
| HSKMA3-T | 2026-09-03 12:40:48 | 50.93029 | 8.49198 | 112° | 53km/h | 17954m | -12.4m/s | -55.4°C | 0.7% | 80.6hPa | 2.7V | 08:18:15 | 02:22:55 | 00:00:00 | |
| DL1NUX | 2026-09-03 12:40:47 | 50.93039 | 8.49160 | 116° | 51km/h | 17979m | -12.4m/s | -55.4°C | 4.6% | 80.3hPa | 2.6V | 08:18:10 | 02:22:53 | 00:00:00 | |
| BIOWL1-15 | 2026-09-03 12:40:45 | 50.93045 | 8.49142 | 117° | 49km/h | 17991m | -12.3m/s | -55.2°C | 0.7% | 80.1hPa | 2.6V | 08:18:15 | 02:22:52 | 00:00:00 | |
| AU51GT2 | 2026-09-03 12:40:44 | 50.93051 | 8.49125 | 119° | 47km/h | 18004m | -12.4m/s | -55.2°C | 1.2% | 80.0hPa | 2.6V | 00:00:00 | 00:00:00 | 00:00:00 | |
| BUE01 | 2026-09-03 12:40:43 | 50.93057 | 8.49109 | 120° | 46km/h | 18016m | -12.1m/s | -55.1°C | 1.2% | 79.8hPa | 2.6V | 00:00:00 | 00:00:00 | 00:00:00 | |
| DL3AQ-11 | 2026-09-03 12:40:42 | 50.93069 | 8.49077 | 121° | 46km/h | 18041m | -12.3m/s | -55.0°C | 1.2% | 79.5hPa | 2.6V | 00:00:00 | 00:00:00 | 00:00:00 | |
| DM0DOS-11 | 2026-09-03 12:40:41 | 50.93086 | 8.49032 | 120° | 42km/h | 18077m | -12.2m/s | -54.9°C | 4.5% | 79hPa | 2.6V | 08:18:18 | 02:22:45 | 00:00:00 | |
| AA1-15 | 2026-09-03 12:40:40 | 50.93075 | 8.49062 | 122° | 44km/h | 18052m | -12.3m/s | -54.9°C | 0.6% | 79.3hPa | 2.6V | 08:19:06 | 02:22:47 | 00:00:00 | |
| DL1XH-west | 2026-09-03 12:40:38 | 50.93086 | 8.49032 | 120° | 42km/h | 18077m | -12.2m/s | -54.9°C | 0.6% | 79.1hPa | 2.6V | 08:19:06 | 02:22:45 | 00:00:00 | |
| BIOWL1-15 | 2026-09-03 12:40:37 | 50.93100 | 8.48990 | 117° | 38km/h | 18115m | -12.7m/s | -54.9°C | 0.6% | 78.6hPa | 2.6V | 08:19:06 | 02:22:42 | 00:00:00 | |
| DO2SHX-10 | 2026-09-03 12:40:36 | 50.93096 | 8.49004 | 118° | 37km/h | 18103m | -12.5m/s | 0°C | 0% | 0hPa | 2.7V | 00:00:00 | 02:22:43 | 00:00:00 | |
| DJ2KF-10 | 2026-09-03 12:40:35 | 50.93100 | 8.48990 | 118° | 33km/h | 18115m | -12.7m/s | -54.9°C | 4.5% | 78.5hPa | 2.7V | 00:00:00 | 02:22:42 | 00:00:00 | |
| DD1CC8 | 2026-09-03 12:40:34 | 50.93105 | 8.48976 | 115° | 37km/h | 18128m | -12.6m/s | -55.0°C | 1.2% | 78.4hPa | 2.7V | 00:00:00 | 00:00:00 | 00:00:00 | |
| DB0UT-7 | 2026-09-03 12:40:33 | 50.93108 | 8.48963 | 116° | 33km/h | 18140m | -12.7m/s | -55.0°C | 4.5% | 78.2hPa | 2.7V | 00:00:00 | 02:22:40 | 00:00:00 | |
| DL3OBA | 2026-09-03 12:40:32 | 50.93109 | 8.48963 | 116° | 37km/h | 18140m | -12.8m/s | -55.1°C | 1.2% | 78.3hPa | 2.7V | 08:19:00 | 00:00:00 | 00:00:00 | |
| DL1XH1-15 | 2026-09-03 12:40:29 | 50.93125 | 8.48902 | 111° | 31km/h | 18204m | -12.6m/s | -55.4°C | 4.5% | 77.5hPa | 2.7V | 08:18:28 | 02:22:35 | 00:00:00 | |
| AA1-15 | 2026-09-03 12:40:29 | 50.93122 | 8.48913 | 111° | 31km/h | 18191m | -12.5m/s | -55.4°C | 0.7% | 77.6hPa | 2.6V | 08:19:06 | 02:22:36 | 00:00:00 | |
| HSKMA3-T | 2026-09-03 12:40:28 | 50.93125 | 8.48902 | 111° | 31km/h | 18204m | -12.6m/s | -55.4°C | 0.6% | 77.5hPa | 2.7V | 08:19:06 | 02:22:35 | 00:00:00 | |
| DL1XH-west | 2026-09-03 12:40:28 | 50.93128 | 8.48890 | 110° | 31km/h | 18216m | -12.3m/s | -55.5°C | 0.6% | 77.4hPa | 2.7V | 08:19:06 | 02:22:34 | 00:00:00 | |
| BIOWL1-15 | 2026-09-03 12:40:24 | 50.93148 | 8.48824 | 124° | 35km/h | 18292m | -12.5m/s | -55.1°C | 0.7% | 76.4hPa | 2.7V | 08:19:06 | 02:22:28 | 00:00:00 | |
| DO2SHX-10 | 2026-09-03 12:40:23 | 50.93140 | 8.48845 | 118° | 33km/h | 18267m | -12.8m/s | 0°C | 0% | 0hPa | 2.7V | 00:00:00 | 02:22:30 | 00:00:00 | |
| DD8BA-10 | 2026-09-03 12:40:21 | 50.93148 | 8.48823 | 124° | 37km/h | 18292m | -12.5m/s | -55.1°C | 4.6% | 76.4hPa | 2.7V | 00:00:00 | 00:00:00 | 00:00:00 | |
| DM0DOS-11 | 2026-09-03 12:40:20 | 50.93165 | 8.48789 | 130° | 38km/h | 18330m | -12.9m/s | -55.1°C | 4.6% | 75.9hPa | 2.7V | 08:18:38 | 02:22:25 | 00:00:00 | |
| AA1-15 | 2026-09-03 12:40:19 | 50.93159 | 8.48801 | 129° | 38km/h | 18317m | -12.6m/s | -55.1°C | 0.6% | 76.1hPa | 2.6V | 08:19:06 | 02:22:26 | 00:00:00 | |
| HSKMA3-T | 2026-09-03 12:40:17 | 50.93171 | 8.48777 | 133° | 40km/h | 18343m | -12.6m/s | -55.2°C | 0.7% | 75.8hPa | 2.7V | 08:19:06 | 02:22:24 | 00:00:00 | |
| DL1NUX | 2026-09-03 12:40:16 | 50.93178 | 8.48766 | 133° | 40km/h | 18356m | -13m/s | -55.2°C | 4.6% | 75.6hPa | 2.6V | 08:18:40 | 02:22:23 | 00:00:00 | |
| BIOWL1-15 | 2026-09-03 12:40:11 | 50.93212 | 8.48716 | 140° | 31km/h | 18419m | -12.5m/s | -55.3°C | 0.8% | 74.9hPa | 2.7V | 08:19:06 | 02:22:18 | 00:00:00 | |
| DD8BA-10 | 2026-09-03 12:40:11 | 50.93212 | 8.48716 | 140° | 27km/h | 18420m | -12.4m/s | -55.2°C | 4.7% | 74.9hPa | 2.7V | 00:00:00 | 00:00:00 | 00:00:00 | |
| DL1XH1-15 | 2026-09-03 12:40:10 | 50.93228 | 8.48694 | 138° | 26km/h | 18458m | -13m/s | -55.3°C | 4.7% | 74.5hPa | 2.6V | 08:18:48 | 02:22:15 | 00:00:00 | |
| AA1-15 | 2026-09-03 12:40:08 | 50.93228 | 8.48694 | 138° | 26km/h | 18458m | -13m/s | -55.3°C | 0.7% | 74.5hPa | 2.6V | 08:19:06 | 02:22:15 | 00:00:00 | |
| DL1NUX | 2026-09-03 12:40:07 | 50.93238 | 8.48680 | 133° | 26km/h | 18484m | -13.2m/s | -55.2°C | 4.7% | 74.1hPa | 2.7V | 08:18:50 | 02:22:13 | 00:00:00 | |
| HSKMA3-T | 2026-09-03 12:40:07 | 50.93233 | 8.48687 | 136° | 26km/h | 18471m | -13.3m/s | -55.2°C | 0.8% | 74.3hPa | 2.7V | 08:19:06 | 02:22:14 | 00:00:00 | |
| DO2SHX-10 | 2026-09-03 12:40:06 | 50.93238 | 8.48680 | 134° | 26km/h | 18485m | -13.2m/s | 0°C | 0% | 0hPa | 2.6V | 00:00:00 | 02:22:13 | 00:00:00 | |
| DB0ND-19 | 2026-09-03 12:40:05 | 50.93246 | 8.48664 | 128° | 26km/h | 18511m | -13.2m/s | -54.6°C | 1.2% | 73.8hPa | 2.6V | 00:00:00 | 00:00:00 | 00:00:00 | |
| DO3MHA-12 | 2026-09-03 12:40:04 | 50.93246 | 8.48664 | 129° | 31km/h | 18511m | -13.1m/s | -54.5°C | 4.5% | 73.8hPa | 2.6V | 00:00:00 | 02:22:11 | 00:00:00 | |
| DB0UT-7 | 2026-09-03 12:40:03 | 50.93250 | 8.48655 | 127° | 24km/h | 18524m | -12.9m/s | -54.5°C | 4.4% | 73.6hPa | 2.7V | 00:00:00 | 00:00:00 | 00:00:00 | |
| WPPR-10 | 2026-09-03 12:40:02 | 50.93263 | 8.48625 | 121° | 31km/h | 18564m | -13.4m/s | -54.6°C | 1.2% | 73.2hPa | 2.7V | 00:00:00 | 00:00:00 | 00:00:00 | |
| DM0DOS-11 | 2026-09-03 12:40:01 | 50.93271 | 8.48603 | 121° | 33km/h | 18591m | -13.6m/s | -54.7°C | 4.5% | 72.9hPa | 2.7V | 08:18:58 | 02:22:05 | 00:00:00 | |
| BIOWL1-15 | 2026-09-03 12:40:00 | 50.93263 | 8.48625 | 121° | 31km/h | 18564m | -13.4m/s | -54.6°C | 0.6% | 73.2hPa | 2.6V | 08:19:06 | 02:22:07 | 00:00:00 | |
| DL1NUX | 2026-09-03 12:39:57 | 50.93280 | 8.48581 | 124° | 31km/h | 18618m | -13m/s | -54.8°C | 4.6% | 72.6hPa | 2.7V | 08:19:00 | 02:22:03 | 00:00:00 | |
| AA1-15 | 2026-09-03 12:39:57 | 50.93276 | 8.48592 | 124° | 31km/h | 18604m | -13.5m/s | -54.7°C | 0.6% | 72.8hPa | 2.7V | 08:19:06 | 02:22:04 | 00:00:00 | |
| DL1XH-15 | 2026-09-03 12:39:56 | 50.93285 | 8.48571 | 126° | 29km/h | 18631m | -13.1m/s | -54.8°C | 4.6% | 72.5hPa | 2.6V | 08:19:01 | 02:22:02 | 00:00:00 | |
| HSKMA3-T | 2026-09-03 12:39:56 | 50.93280 | 8.48581 | 124° | 31km/h | 18618m | -13m/s | -54.8°C | 0.7% | 72.6hPa | 2.7V | 08:19:06 | 02:22:03 | 00:00:00 | |
| DO1YAY-16 | 2026-09-03 12:39:56 | 50.93280 | 8.48581 | 124° | 31km/h | 18618m | -13.0m/s | -54.8°C | 1.2% | 72.6hPa | 2.6V | 00:00:00 | 00:00:00 | 00:00:00 | |
| DB0DAN | 2026-09-03 12:39:55 | 50.93285 | 8.48571 | 126° | 29km/h | 18631m | -13.1m/s | -54.9°C | 1.2% | 72.48hPa | 2.6V | 00:00:00 | 00:00:00 | 00:00:00 | |
| DL1XH-west | 2026-09-03 12:39:52 | 50.93298 | 8.48545 | 135° | 26km/h | 18671m | -13.3m/s | -54.5°C | 0.6% | 72hPa | 2.7V | 08:19:06 | 02:21:59 | 00:00:00 | |
| BIOWL1-15 | 2026-09-03 12:39:50 | 50.93308 | 8.48532 | 143° | 24km/h | 18697m | -13.4m/s | -54.3°C | 0.6% | 71.7hPa | 2.6V | 08:19:06 | 02:21:57 | 00:00:00 | |
| BIOWL9-15 | 2026-09-03 12:39:50 | 50.93308 | 8.48532 | 142° | 22km/h | 18697m | -13.4m/s | -54.3°C | 1.1% | 71.7hPa | 2.7V | 00:00:00 | 00:00:00 | 00:00:00 | |
| DL1XH1-15 | 2026-09-03 12:39:49 | 50.93317 | 8.48521 | 144° | 22km/h | 18724m | -13.4m/s | -54.5°C | 4.5% | 71.4hPa | 2.7V | 08:19:08 | 02:21:55 | 00:00:00 | |
| DF7PN | 2026-09-03 12:39:49 | 50.93312 | 8.48527 | 142° | 22km/h | 18711m | -13.5m/s | -54.4°C | 1.1% | 71.6hPa | 2.6V | 00:00:00 | 00:00:00 | 00:00:00 | |
| DO3DL | 2026-09-03 12:39:47 | 50.93317 | 8.48521 | 145° | 22km/h | 18724m | -13.4m/s | -54.5°C | 1.2% | 71.4hPa | 2.6V | 08:19:00 | 00:00:00 | 00:00:00 | |
| DL1XH-15 | 2026-09-03 12:39:46 | 50.93329 | 8.48506 | 141° | 22km/h | 18763m | -13.2m/s | -54.4°C | 4.5% | 71hPa | 2.6V | 08:19:11 | 02:21:52 | 00:00:00 | |
| AA1-15 | 2026-09-03 12:39:46 | 50.93325 | 8.48511 | 141° | 20km/h | 18750m | -13.3m/s | -54.5°C | 0.6% | 71.1hPa | 2.6V | 08:19:57 | 02:21:53 | 00:00:00 | |
| HSKMA3-T | 2026-09-03 12:39:45 | 50.93329 | 8.48506 | 141° | 22km/h | 18764m | -13.2m/s | -54.4°C | 0.6% | 71hPa | 2.6V | 08:19:57 | 02:21:52 | 00:00:00 | |
| DL1XH-west | 2026-09-03 12:39:42 | 50.93340 | 8.48488 | 128° | 20km/h | 18804m | -13.5m/s | -53.8°C | 0.5% | 70.6hPa | 2.7V | 08:19:57 | 02:21:49 | 00:00:00 | |
| DM0DOS-11 | 2026-09-03 12:39:41 | 50.93351 | 8.48464 | 123° | 18km/h | 18858m | -13.7m/s | -53.7°C | 4.2% | 70hPa | 2.6V | 08:19:18 | 02:21:45 | 00:00:00 | |
| BIOWL1-15 | 2026-09-03 12:39:39 | 50.93348 | 8.48470 | 121° | 18km/h | 18845m | -13.6m/s | -53.8°C | 0.5% | 70.1hPa | 2.6V | 08:19:57 | 02:21:46 | 00:00:00 | |
| DL1NUX | 2026-09-03 12:39:37 | 50.93356 | 8.48452 | 122° | 15km/h | 18886m | -13.7m/s | -53.8°C | 4.2% | 69.6hPa | 2.7V | 08:19:20 | 02:21:43 | 00:00:00 | |
| AA1-15 | 2026-09-03 12:39:36 | 50.93355 | 8.48452 | 123° | 15km/h | 18886m | -13.7m/s | -53.8°C | 0.5% | 69.7hPa | 2.7V | 08:19:57 | 02:21:43 | 00:00:00 | |
| HSKMA3-T | 2026-09-03 12:39:34 | 50.93359 | 8.48443 | 122° | 13km/h | 18913m | -13.7m/s | -53.9°C | 0.5% | 69.4hPa | 2.6V | 08:19:57 | 02:21:41 | 00:00:00 | |
| DL1XH-west | 2026-09-03 12:39:31 | 50.93363 | 8.48430 | 115° | 11km/h | 18954m | -13.6m/s | -54°C | 0.5% | 68.9hPa | 2.6V | 08:19:57 | 02:21:38 | 00:00:00 | |
| BIOWL1-15 | 2026-09-03 12:39:29 | 50.93367 | 8.48410 | 100° | 15km/h | 19008m | -13.5m/s | -54.3°C | 0.6% | 68.3hPa | 2.7V | 08:19:57 | 02:21:34 | 00:00:00 | |
| DL8OAI-8 | 2026-09-03 12:39:28 | 50.93365 | 8.48421 | 108° | 13km/h | 18981m | -13.5m/s | -54.3°C | 1.1% | 68.6hPa | 2.7V | 08:19:00 | 00:00:00 | 00:00:00 | |
| DL1NUX | 2026-09-03 12:39:27 | 50.93368 | 8.48404 | 98° | 16km/h | 19022m | -13.6m/s | -54.4°C | 4.3% | 68.2hPa | 2.7V | 08:19:30 | 02:21:33 | 00:00:00 | |
| AA1-15 | 2026-09-03 12:39:25 | 50.93368 | 8.48397 | 92° | 16km/h | 19035m | -13.6m/s | -54.4°C | 0.7% | 68hPa | 2.6V | 08:19:57 | 02:21:32 | 00:00:00 | |
| DB0DAN | 2026-09-03 12:39:25 | 50.93368 | 8.48397 | 92° | 16km/h | 19035m | -13.6m/s | -54.4°C | 1.2% | 68.04hPa | 2.6V | 00:00:00 | 00:00:00 | 00:00:00 | |
| HSKMA3-T | 2026-09-03 12:39:24 | 50.93368 | 8.48390 | 93° | 18km/h | 19049m | -13.6m/s | -54.3°C | 0.6% | 67.9hPa | 2.6V | 08:19:57 | 02:21:31 | 00:00:00 | |
| DO3MHA-11 | 2026-09-03 12:39:24 | 50.93368 | 8.48390 | 93° | 20km/h | 19049m | -13.6m/s | -54.2°C | 4.3% | 67.8hPa | 2.6V | 00:00:00 | 02:21:31 | 00:00:00 | |
| DO3MHA-12 | 2026-09-03 12:39:23 | 50.93368 | 8.48383 | 90° | 22km/h | 19063m | -13.8m/s | -54.1°C | 4.2% | 67.7hPa | 2.6V | 00:00:00 | 02:21:30 | 00:00:00 | |
| DL3AQ-11 | 2026-09-03 12:39:22 | 50.93368 | 8.48367 | 90° | 18km/h | 19090m | -13.6m/s | -54.1°C | 1.1% | 67.5hPa | 2.6V | 00:00:00 | 00:00:00 | 00:00:00 | |
| DM0DOS-11 | 2026-09-03 12:39:21 | 50.93368 | 8.48344 | 92° | 20km/h | 19130m | -14m/s | -54.2°C | 4.3% | 67hPa | 2.6V | 08:19:38 | 02:21:25 | 00:00:00 | |
| DL1XH-west | 2026-09-03 12:39:20 | 50.93368 | 8.48360 | 89° | 20km/h | 19103m | -13.6m/s | -54.2°C | 0.5% | 67.3hPa | 2.7V | 08:19:57 | 02:21:27 | 00:00:00 | |
| BIOWL1-15 | 2026-09-03 12:39:18 | 50.93368 | 8.48344 | 92° | 20km/h | 19130m | -14m/s | -54.3°C | 0.5% | 67hPa | 2.6V | 08:19:57 | 02:21:25 | 00:00:00 | |
| DL1NUX | 2026-09-03 12:39:17 | 50.93369 | 8.48328 | 97° | 22km/h | 19159m | -13.9m/s | -54.4°C | 4.4% | 66.7hPa | 2.7V | 08:19:40 | 02:21:23 | 00:00:00 | |
| AA1-15 | 2026-09-03 12:39:14 | 50.93371 | 8.48310 | 99° | 24km/h | 19187m | -13.9m/s | -54.7°C | 0.7% | 66.5hPa | 2.6V | 08:19:57 | 02:21:21 | 00:00:00 | |
| HSKMA3-T | 2026-09-03 12:39:13 | 50.93372 | 8.48300 | 97° | 26km/h | 19201m | -14.3m/s | -54.7°C | 0.7% | 66.3hPa | 2.6V | 08:19:57 | 02:21:20 | 00:00:00 | |
| DL1XH-west | 2026-09-03 12:39:10 | 50.93374 | 8.48265 | 95° | 33km/h | 19242m | -14.1m/s | -55°C | 0.8% | 65.9hPa | 2.6V | 08:19:57 | 02:21:17 | 00:00:00 | |
| DB0DAN | 2026-09-03 12:39:10 | 50.93374 | 8.48265 | 95° | 31km/h | 19242m | -14.1m/s | -55°C | 1.2% | 65.87hPa | 2.6V | 00:00:00 | 00:00:00 | 00:00:00 | |
| BIOWL1-15 | 2026-09-03 12:39:08 | 50.93376 | 8.48238 | 96° | 37km/h | 19271m | -14.3m/s | -55.1°C | 0.8% | 65.6hPa | 2.6V | 08:19:57 | 02:21:15 | 00:00:00 | |
| AA1-15 | 2026-09-03 12:39:04 | 50.93380 | 8.48181 | 100° | 35km/h | 19327m | -13.8m/s | -54.6°C | 0.7% | 65hPa | 2.6V | 08:19:57 | 02:21:11 | 00:00:00 | |
| DL8DAS-14 | 2026-09-03 12:39:04 | 50.93382 | 8.48167 | 102° | 33km/h | 19341m | -13.9m/s | -54.5°C | 1.2% | 64.9hPa | 2.6V | 00:00:00 | 00:00:00 | 00:00:00 | |
| DL1XH1-15 | 2026-09-03 12:39:03 | 50.93395 | 8.48099 | 111° | 38km/h | 19411m | -14m/s | -54.1°C | 4.4% | 64.1hPa | 2.6V | 08:19:58 | 02:21:05 | 00:00:00 | |
| HSKMA3-T | 2026-09-03 12:39:02 | 50.93384 | 8.48154 | 104° | 35km/h | 19355m | -14.2m/s | -54.4°C | 0.7% | 64.7hPa | 2.6V | 08:19:57 | 02:21:09 | 00:00:00 | |
| DL1XH-west | 2026-09-03 12:39:00 | 50.93389 | 8.48127 | 109° | 37km/h | 19383m | -13.9m/s | -54°C | 0.6% | 64.4hPa | 2.7V | 08:19:57 | 02:21:07 | 00:00:00 | |
| GOEST3-10 | 2026-09-03 12:39:00 | 50.93389 | 8.48127 | 109° | 37km/h | 19383m | -13.9m/s | -54.0°C | 4.3% | 64.4hPa | 2.6V | 00:00:00 | 00:00:00 | 00:00:00 | |
| DO3DL | 2026-09-03 12:38:59 | 50.93389 | 8.48127 | 110° | 37km/h | 19383m | -13.9m/s | -54.0°C | 1.1% | 64.4hPa | 2.6V | 08:19:00 | 00:00:00 | 00:00:00 | |
| DL1NUX | 2026-09-03 12:38:57 | 50.93403 | 8.48069 | 114° | 42km/h | 19439m | -14.5m/s | -54.1°C | 4.4% | 63.9hPa | 2.6V | 08:20:00 | 02:21:03 | 00:00:00 | |
| BIOWL1-15 | 2026-09-03 12:38:57 | 50.93399 | 8.48084 | 112° | 40km/h | 19425m | -14.1m/s | -54.1°C | 0.7% | 64hPa | 2.6V | 08:20:48 | 02:21:04 | 00:00:00 | |
| AA1-15 | 2026-09-03 12:38:53 | 50.93418 | 8.48024 | 123° | 44km/h | 19483m | -14.5m/s | -54.1°C | 0.6% | 63.5hPa | 2.6V | 08:20:48 | 02:21:00 | 00:00:00 | |
| HSKMA3-T | 2026-09-03 12:38:51 | 50.93430 | 8.47996 | 129° | 42km/h | 19511m | -14.4m/s | -53.9°C | 0.6% | 63.1hPa | 2.7V | 08:20:48 | 02:20:58 | 00:00:00 | |
| DD8BA-10 | 2026-09-03 12:38:51 | 50.93430 | 8.47996 | 129° | 35km/h | 19511m | -14.3m/s | -53.9°C | 4.3% | 63.1hPa | 2.6V | 00:00:00 | 00:00:00 | 00:00:00 | |
| DL1XH1-15 | 2026-09-03 12:38:49 | 50.93451 | 8.47961 | 135° | 37km/h | 19554m | -14.6m/s | -54°C | 4.4% | 62.7hPa | 2.6V | 08:20:08 | 02:20:55 | 00:00:00 | |
| DL1XH-west | 2026-09-03 12:38:49 | 50.93444 | 8.47972 | 134° | 38km/h | 19540m | -14.2m/s | -54°C | 0.6% | 62.9hPa | 2.6V | 08:20:48 | 02:20:56 | 00:00:00 | |
| BIOWL9-15 | 2026-09-03 12:38:48 | 50.93451 | 8.47961 | 135° | 37km/h | 19554m | -14.6m/s | -54.0°C | 1.1% | 62.7hPa | 2.7V | 00:00:00 | 00:00:00 | 00:00:00 | |
| DL1NUX | 2026-09-03 12:38:47 | 50.93464 | 8.47942 | 138° | 35km/h | 19583m | -14.2m/s | -54.1°C | 4.4% | 62.5hPa | 2.7V | 08:20:10 | 02:20:53 | 00:00:00 | |
| BIOWL1-15 | 2026-09-03 12:38:47 | 50.93457 | 8.47951 | 138° | 35km/h | 19568m | -14.1m/s | -54.1°C | 0.6% | 62.6hPa | 2.6V | 08:20:48 | 02:20:54 | 00:00:00 | |
| DF7PN | 2026-09-03 12:38:47 | 50.93464 | 8.47942 | 138° | 33km/h | 19583m | -14.3m/s | -54.1°C | 1.1% | 62.5hPa | 2.6V | 00:00:00 | 00:00:00 | 00:00:00 | |
| AA1-15 | 2026-09-03 12:38:42 | 50.93487 | 8.47906 | 133° | 31km/h | 19639m | -14.1m/s | -54.1°C | 0.6% | 61.9hPa | 2.6V | 08:20:48 | 02:20:49 | 00:00:00 | |
| DL3AQ-11 | 2026-09-03 12:38:42 | 50.93493 | 8.47897 | 131° | 31km/h | 19653m | -14.5m/s | -53.9°C | 1.1% | 61.8hPa | 2.7V | 00:00:00 | 00:00:00 | 00:00:00 | |
| DL1XH1-15 | 2026-09-03 12:38:41 | 50.93507 | 8.47869 | 127° | 29km/h | 19697m | -14.3m/s | -53.7°C | 4.2% | 61.4hPa | 2.7V | 08:20:18 | 02:20:45 | 00:00:00 | |
| HSKMA3-T | 2026-09-03 12:38:40 | 50.93498 | 8.47888 | 130° | 31km/h | 19668m | -14.6m/s | -53.8°C | 0.6% | 61.7hPa | 2.7V | 08:20:48 | 02:20:47 | 00:00:00 | |
| DL1XH-west | 2026-09-03 12:38:38 | 50.93507 | 8.47869 | 127° | 29km/h | 19697m | -14.4m/s | -53.7°C | 0.6% | 61.4hPa | 2.7V | 08:20:48 | 02:20:45 | 00:00:00 | |
| DL1NUX | 2026-09-03 12:38:38 | 50.93516 | 8.47851 | 127° | 26km/h | 19726m | -15.1m/s | -53.6°C | 4.1% | 61.1hPa | 2.6V | 08:20:20 | 02:20:43 | 00:00:00 | |
| BIOWL1-15 | 2026-09-03 12:38:36 | 50.93516 | 8.47851 | 128° | 26km/h | 19726m | -15.1m/s | -53.6°C | 0.5% | 61.1hPa | 2.6V | 08:20:48 | 02:20:43 | 00:00:00 | |
| AA1-15 | 2026-09-03 12:38:32 | 50.93531 | 8.47824 | 134° | 20km/h | 19784m | -14.5m/s | -53.8°C | 0.5% | 60.5hPa | 2.6V | 08:20:48 | 02:20:39 | 00:00:00 | |
| DL1NUX | 2026-09-03 12:38:31 | 50.93545 | 8.47786 | 108° | 20km/h | 19872m | -14.7m/s | -54.3°C | 4.4% | 59.7hPa | 2.7V | 08:20:30 | 02:20:33 | 00:00:00 | |
| DD8BA-10 | 2026-09-03 12:38:31 | 50.93534 | 8.47819 | 130° | 18km/h | 19799m | -14.8m/s | -53.8°C | 4.3% | 60.3hPa | 2.6V | 00:00:00 | 00:00:00 | 00:00:00 | |
| DL8DAS-15 | 2026-09-03 12:38:30 | 50.93534 | 8.47818 | 130° | 18km/h | 19799m | -14.9m/s | -53.9°C | 1.1% | 60.4hPa | 2.6V | 00:00:00 | 00:00:00 | 00:00:00 | |
| DL1XH1-15 | 2026-09-03 12:38:29 | 50.93542 | 8.47800 | 115° | 18km/h | 19843m | -14.7m/s | -54.1°C | 4.4% | 60hPa | 2.6V | 08:20:28 | 02:20:35 | 00:00:00 | |
| HSKMA3-T | 2026-09-03 12:38:29 | 50.93539 | 8.47807 | 120° | 18km/h | 19828m | -14.5m/s | -54°C | 0.6% | 60.1hPa | 2.7V | 08:20:48 | 02:20:36 | 00:00:00 | |
| BIOWL1-15 | 2026-09-03 12:38:28 | 50.93545 | 8.47786 | 109° | 20km/h | 19872m | -14.7m/s | -54.4°C | 0.6% | 59.7hPa | 2.7V | 08:20:48 | 02:20:33 | 00:00:00 | |
| DL1XH-west | 2026-09-03 12:38:27 | 50.93543 | 8.47794 | 112° | 20km/h | 19857m | -14.5m/s | -54.2°C | 0.6% | 59.9hPa | 2.6V | 08:20:48 | 02:20:34 | 00:00:00 | |
| AA1-15 | 2026-09-03 12:38:22 | 50.93554 | 8.47759 | 123° | 18km/h | 19931m | -14.6m/s | -54.6°C | 0.8% | 59.2hPa | 2.6V | 08:20:48 | 02:20:29 | 00:00:00 | |
| DL1XH1-15 | 2026-09-03 12:38:21 | 50.93563 | 8.47736 | 120° | 16km/h | 19990m | -14.9m/s | -54.2°C | 4.5% | 58.6hPa | 2.6V | 08:20:38 | 02:20:25 | 00:00:00 | |
| HSKMA3-T | 2026-09-03 12:38:18 | 50.93563 | 8.47736 | 120° | 16km/h | 19990m | -14.9m/s | -54.2°C | 0.7% | 58.6hPa | 2.6V | 08:20:48 | 02:20:25 | 00:00:00 | |
| DL1NUX | 2026-09-03 12:38:18 | 50.93567 | 8.47724 | 114° | 16km/h | 20020m | -15m/s | -54°C | 4.4% | 58.4hPa | 2.6V | 08:20:40 | 02:20:23 | 00:00:00 | |
| DL1XH-west | 2026-09-03 12:38:17 | 50.93565 | 8.47730 | 117° | 18km/h | 20005m | -14.6m/s | -54°C | 0.6% | 58.5hPa | 2.6V | 08:20:48 | 02:20:24 | 00:00:00 | |
| BIOWL1-15 | 2026-09-03 12:38:15 | 50.93569 | 8.47717 | 114° | 20km/h | 20035m | -14.9m/s | -53.9°C | 0.5% | 58.2hPa | 2.7V | 08:20:48 | 02:20:22 | 00:00:00 | |
| AA1-15 | 2026-09-03 12:38:12 | 50.93575 | 8.47695 | 115° | 22km/h | 20079m | -14.9m/s | -53.8°C | 0.6% | 57.8hPa | 2.6V | 08:20:48 | 02:20:19 | 00:00:00 | |
| HSKMA3-T | 2026-09-03 12:38:08 | 50.93584 | 8.47666 | 113° | 18km/h | 20139m | -15m/s | -53.5°C | 0.5% | 57.3hPa | 2.7V | 08:20:48 | 02:20:15 | 00:00:00 | |
| DL1XH-west | 2026-09-03 12:38:07 | 50.93586 | 8.47659 | 108° | 18km/h | 20154m | -15m/s | -53.5°C | 0.5% | 57.1hPa | 2.6V | 08:21:39 | 02:20:14 | 00:00:00 | |
| BIOWL1-15 | 2026-09-03 12:38:06 | 50.93593 | 8.47586 | 100° | 31km/h | 20273m | -15.4m/s | -53.8°C | 0.6% | 56.1hPa | 2.6V | 08:21:39 | 02:20:06 | 00:00:00 | |
| AA1-15 | 2026-09-03 12:38:02 | 50.93590 | 8.47619 | 95° | 26km/h | 20228m | -15m/s | -53.8°C | 0.6% | 56.5hPa | 2.6V | 08:21:39 | 02:20:09 | 00:00:00 | |
| DL8DAS-14 | 2026-09-03 12:38:02 | 50.93591 | 8.47609 | 96° | 26km/h | 20243m | -15.0m/s | -53.8°C | 1.1% | 56.4hPa | 2.7V | 00:00:00 | 00:00:00 | 00:00:00 | |
| DL3AQ-11 | 2026-09-03 12:38:01 | 50.93591 | 8.47609 | 96° | 26km/h | 20243m | -15.0m/s | -53.8°C | 1.1% | 56.4hPa | 2.7V | 00:00:00 | 00:00:00 | 00:00:00 | |
| DB0ND-19 | 2026-09-03 12:38:00 | 50.93592 | 8.47598 | 98° | 29km/h | 20258m | -15.0m/s | -53.8°C | 1.1% | 56.2hPa | 2.7V | 00:00:00 | 00:00:00 | 00:00:00 | |
| DD1CC8 | 2026-09-03 12:37:59 | 50.93593 | 8.47586 | 100° | 31km/h | 20273m | -15.4m/s | -53.8°C | 1.1% | 56.1hPa | 2.7V | 00:00:00 | 00:00:00 | 00:00:00 | |
| DL1NUX | 2026-09-03 12:37:58 | 50.93599 | 8.47549 | 110° | 31km/h | 20319m | -14.9m/s | -54°C | 4.5% | 55.7hPa | 2.7V | 08:21:00 | 02:20:03 | 00:00:00 | |
| HSKMA3-T | 2026-09-03 12:37:58 | 50.93595 | 8.47573 | 104° | 33km/h | 20288m | -15.2m/s | -53.8°C | 0.6% | 56hPa | 2.6V | 08:21:39 | 02:20:05 | 00:00:00 | |
| DL1XH-west | 2026-09-03 12:37:56 | 50.93599 | 8.47549 | 110° | 31km/h | 20319m | -14.9m/s | -54°C | 0.7% | 55.7hPa | 2.7V | 08:21:39 | 02:20:03 | 00:00:00 | |
| BIOWL1-15 | 2026-09-03 12:37:54 | 50.93607 | 8.47517 | 109° | 27km/h | 20365m | -15.6m/s | -54.2°C | 0.7% | 55.3hPa | 2.6V | 08:21:39 | 02:20:00 | 00:00:00 | |
| AA1-15 | 2026-09-03 12:37:51 | 50.93610 | 8.47498 | 105° | 26km/h | 20395m | -14.9m/s | -54.1°C | 0.7% | 55hPa | 2.6V | 08:21:39 | 02:19:58 | 00:00:00 | |
| DD8BA-10 | 2026-09-03 12:37:51 | 50.93610 | 8.47498 | 105° | 26km/h | 20395m | -14.8m/s | -54.1°C | 4.6% | 55.0hPa | 2.7V | 00:00:00 | 00:00:00 | 00:00:00 | |
| DL1XH1-15 | 2026-09-03 12:37:49 | 50.93613 | 8.47468 | 98° | 26km/h | 20441m | -15.1m/s | -53.3°C | 4.3% | 54.6hPa | 2.7V | 08:21:08 | 02:19:55 | 00:00:00 | |
| HSKMA3-T | 2026-09-03 12:37:47 | 50.93615 | 8.47458 | 100° | 26km/h | 20456m | -15.4m/s | -53.1°C | 0.5% | 54.5hPa | 2.6V | 08:21:39 | 02:19:54 | 00:00:00 | |
| DL1XH-west | 2026-09-03 12:37:46 | 50.93616 | 8.47448 | 101° | 26km/h | 20471m | -15.4m/s | -52.9°C | 0.5% | 54.4hPa | 2.6V | 08:21:39 | 02:19:53 | 00:00:00 | |
| BIOWL1-15 | 2026-09-03 12:37:45 | 50.93622 | 8.47420 | 117° | 26km/h | 20518m | -15.7m/s | -52.8°C | 0.4% | 54hPa | 2.7V | 08:21:39 | 02:19:50 | 00:00:00 | |
| DF7PN | 2026-09-03 12:37:45 | 50.93619 | 8.47429 | 110° | 24km/h | 20502m | -15.3m/s | -52.8°C | 1.0% | 54.1hPa | 2.7V | 00:00:00 | 00:00:00 | 00:00:00 | |
| GOEST3-10 | 2026-09-03 12:37:42 | 50.93625 | 8.47411 | 121° | 27km/h | 20533m | -15.3m/s | -52.8°C | 4.1% | 53.8hPa | 2.7V | 00:00:00 | 02:19:49 | 00:00:00 | |
| DM0DOS-11 | 2026-09-03 12:37:41 | 50.93641 | 8.47378 | 132° | 27km/h | 20594m | -15.7m/s | -52.6°C | 4% | 53.4hPa | 2.7V | 08:21:18 | 02:19:45 | 00:00:00 | |
| AA1-15 | 2026-09-03 12:37:41 | 50.93632 | 8.47394 | 127° | 26km/h | 20564m | -15.3m/s | -52.9°C | 0.5% | 53.6hPa | 2.6V | 08:21:39 | 02:19:47 | 00:00:00 | |
| DB0NH | 2026-09-03 12:37:41 | 50.93628 | 8.47402 | 126° | 24km/h | 20549m | -15.5m/s | -52.8°C | 4.1% | 53.7hPa | 2.6V | 00:00:00 | 02:19:48 | 00:00:00 | |
| DO3DL | 2026-09-03 12:37:40 | 50.93628 | 8.47402 | 126° | 27km/h | 20549m | -15.5m/s | -52.9°C | 1.0% | 53.7hPa | 2.6V | 08:21:00 | 00:00:00 | 00:00:00 | |
| DO3MHA-11 | 2026-09-03 12:37:39 | 50.93636 | 8.47386 | 134° | 22km/h | 20579m | -14.5m/s | -52.7°C | 4.1% | 53.4hPa | 2.6V | 08:21:00 | 02:19:46 | 00:00:00 | |
| DL1NUX | 2026-09-03 12:37:38 | 50.93650 | 8.47363 | 133° | 26km/h | 20626m | -15.3m/s | -52.5°C | 4% | 53.1hPa | 2.6V | 08:21:20 | 02:19:43 | 00:00:00 | |
| HSKMA3-T | 2026-09-03 12:37:36 | 50.93650 | 8.47362 | 133° | 26km/h | 20626m | -15.3m/s | -52.5°C | 0.4% | 53.1hPa | 2.6V | 08:21:39 | 02:19:43 | 00:00:00 | |
| DF8AY | 2026-09-03 12:37:32 | 50.93666 | 8.47331 | 113° | 13km/h | 20703m | -15.3m/s | -52.2°C | 0.4% | 52.5hPa | 2.6V | 08:24:12 | 02:19:38 | 00:00:00 | |
| DL8DAS-14 | 2026-09-03 12:37:31 | 50.93667 | 8.47326 | 106° | 9km/h | 20719m | -15.6m/s | -52.2°C | 1.0% | 52.4hPa | 2.6V | 00:00:00 | 00:00:00 | 00:00:00 | |
| DL1NUX | 2026-09-03 12:37:30 | 50.93668 | 8.47307 | 89° | 15km/h | 20782m | -16m/s | -52.6°C | 4.1% | 51.8hPa | 2.6V | 08:21:30 | 02:19:33 | 00:00:00 | |
| DL1XH1-15 | 2026-09-03 12:37:30 | 50.93668 | 8.47317 | 90° | 11km/h | 20750m | -16.1m/s | -52.4°C | 4.1% | 52hPa | 2.6V | 08:21:28 | 02:19:35 | 00:00:00 | |
| AA1-15 | 2026-09-03 12:37:30 | 50.93668 | 8.47322 | 98° | 11km/h | 20734m | -16.2m/s | -52.3°C | 0.4% | 52.2hPa | 2.7V | 08:21:39 | 02:19:36 | 00:00:00 | |
| DL1XH-west | 2026-09-03 12:37:25 | 50.93668 | 8.47300 | 93° | 18km/h | 20798m | -15.4m/s | -52.7°C | 0.5% | 51.7hPa | 2.7V | 08:21:39 | 02:19:32 | 00:00:00 | |
| DF8AY | 2026-09-03 12:37:20 | 50.93677 | 8.47253 | 113° | 29km/h | 20878m | -15.6m/s | -52.7°C | 0.5% | 51.1hPa | 2.6V | 08:24:12 | 02:19:27 | 00:00:00 | |
| DL1XH1-15 | 2026-09-03 12:37:19 | 50.93683 | 8.47231 | 119° | 29km/h | 20910m | -16.9m/s | -52.3°C | 4% | 50.8hPa | 2.7V | 08:21:38 | 02:19:25 | 00:00:00 | |
| DO3MHA-11 | 2026-09-03 12:37:19 | 50.93680 | 8.47242 | 116° | 29km/h | 20895m | -15.7m/s | -52.4°C | 4.1% | 50.9hPa | 2.6V | 00:00:00 | 02:19:26 | 00:00:00 | |
| DL1NUX | 2026-09-03 12:37:18 | 50.93691 | 8.47215 | 131° | 24km/h | 20942m | -15.6m/s | -52.2°C | 4% | 50.5hPa | 2.6V | 08:21:40 | 02:19:23 | 00:00:00 | |
| AA1-15 | 2026-09-03 12:37:18 | 50.93683 | 8.47231 | 120° | 29km/h | 20911m | -16.9m/s | -52.3°C | 0.4% | 50.8hPa | 2.7V | 08:21:39 | 02:19:25 | 00:00:00 | |
| GOEST3-10 | 2026-09-03 12:37:17 | 50.93687 | 8.47222 | 126° | 27km/h | 20927m | -14.5m/s | -52.2°C | 4.0% | 50.6hPa | 2.7V | 00:00:00 | 00:00:00 | 00:00:00 | |
| DO3MHA-12 | 2026-09-03 12:37:15 | 50.93695 | 8.47207 | 137° | 26km/h | 20957m | -15.7m/s | -52.3°C | 4.0% | 50.4hPa | 2.7V | 00:00:00 | 02:19:22 | 00:00:00 | |
| DL1XH-west | 2026-09-03 12:37:15 | 50.93695 | 8.47207 | 137° | 26km/h | 20957m | -15.8m/s | -52.3°C | 0.4% | 50.5hPa | 2.6V | 08:22:30 | 02:19:22 | 00:00:00 | |
| DD1CC3-15 | 2026-09-03 12:37:14 | 50.93695 | 8.47207 | 138° | 26km/h | 20957m | -15.8m/s | -52.3°C | 1.0% | 50.4hPa | 2.7V | 08:22:00 | 00:00:00 | 00:00:00 | |
| DO2KSM | 2026-09-03 12:37:13 | 50.93700 | 8.47200 | 139° | 29km/h | 20973m | -15.8m/s | -52.3°C | 1.0% | 50.3hPa | 2.7V | 08:22:00 | 00:00:00 | 00:00:00 | |
| GOEST3-10 | 2026-09-03 12:37:12 | 50.93712 | 8.47184 | 142° | 27km/h | 21004m | -16.6m/s | -52.4°C | 4.0% | 50.0hPa | 2.7V | 00:00:00 | 02:19:19 | 00:00:00 | |
| DD8BA-10 | 2026-09-03 12:37:11 | 50.93718 | 8.47177 | 145° | 22km/h | 21021m | -16.3m/s | -52.2°C | 4.0% | 49.9hPa | 2.7V | 00:00:00 | 00:00:00 | 00:00:00 | |
| DL1NUX | 2026-09-03 12:37:10 | 50.93743 | 8.47148 | 128° | 20km/h | 21104m | -16.6m/s | -51.9°C | 3.9% | 49.3hPa | 2.7V | 08:21:50 | 02:19:13 | 00:00:00 | |
| DL1XH1-15 | 2026-09-03 12:37:09 | 50.93735 | 8.47159 | 145° | 22km/h | 21071m | -16.6m/s | -51.9°C | 3.9% | 49.6hPa | 2.6V | 08:21:48 | 02:19:15 | 00:00:00 | |
| BIOWL1-15 | 2026-09-03 12:37:08 | 50.93748 | 8.47136 | 120° | 18km/h | 21137m | -16.1m/s | -51.8°C | 0.3% | 49hPa | 2.6V | 08:22:30 | 02:19:11 | 00:00:00 | |
| AA1-15 | 2026-09-03 12:37:08 | 50.93739 | 8.47154 | 138° | 20km/h | 21088m | -16.5m/s | -51.9°C | 0.3% | 49.4hPa | 2.7V | 08:22:30 | 02:19:14 | 00:00:00 | |
| DL1XH-west | 2026-09-03 12:37:05 | 50.93745 | 8.47142 | 122° | 18km/h | 21121m | -16.1m/s | -51.8°C | 0.3% | 49.1hPa | 2.7V | 08:22:30 | 02:19:12 | 00:00:00 | |
| DO3MHA-12 | 2026-09-03 12:37:05 | 50.93745 | 8.47142 | 123° | 22km/h | 21121m | -16.1m/s | -51.8°C | 3.8% | 49.1hPa | 2.7V | 00:00:00 | 02:19:12 | 00:00:00 | |
| DB0UT-7 | 2026-09-03 12:37:03 | 50.93749 | 8.47129 | 112° | 15km/h | 21153m | -15.6m/s | -51.8°C | 3.9% | 48.9hPa | 2.7V | 00:00:00 | 00:00:00 | 00:00:00 | |
| DL9SK-14 | 2026-09-03 12:37:01 | 50.93753 | 8.47114 | 101° | 20km/h | 21185m | -16.7m/s | -51.9°C | 0.9% | 48.7hPa | 2.7V | 00:00:00 | 00:00:00 | 00:00:00 | |
| DL8DAS-14 | 2026-09-03 12:37:00 | 50.93754 | 8.47097 | 92° | 22km/h | 21218m | -16.0m/s | -52.1°C | 1.0% | 48.4hPa | 2.7V | 00:00:00 | 00:00:00 | 00:00:00 | |
| DO3MHA-11 | 2026-09-03 12:36:59 | 50.93754 | 8.47097 | 93° | 18km/h | 21218m | -16.0m/s | -52.0°C | 4.0% | 48.4hPa | 2.7V | 00:00:00 | 02:19:06 | 00:00:00 | |
| DL1NUX | 2026-09-03 12:36:58 | 50.93757 | 8.47069 | 103° | 26km/h | 21267m | -16.8m/s | -52.4°C | 4.1% | 48.1hPa | 2.7V | 08:22:00 | 02:19:03 | 00:00:00 | |
| AA1-15 | 2026-09-03 12:36:57 | 50.93756 | 8.47078 | 102° | 26km/h | 21251m | -16.3m/s | -52.3°C | 0.4% | 48.2hPa | 2.7V | 08:22:30 | 02:19:04 | 00:00:00 | |
| DL1XH-15 | 2026-09-03 12:36:57 | 50.93760 | 8.47050 | 105° | 22km/h | 21301m | -16.6m/s | -52.5°C | 4.1% | 47.8hPa | 2.6V | 08:22:02 | 02:19:01 | 00:00:00 | |
| DL1XH-west | 2026-09-03 12:36:55 | 50.93759 | 8.47059 | 105° | 24km/h | 21284m | -16.7m/s | -52.5°C | 0.5% | 47.9hPa | 2.6V | 08:22:30 | 02:19:02 | 00:00:00 | |
| BIOWL1-15 | 2026-09-03 12:36:54 | 50.93760 | 8.47050 | 105° | 22km/h | 21301m | -16.6m/s | -52.5°C | 0.5% | 47.8hPa | 2.6V | 08:22:30 | 02:19:01 | 00:00:00 | |
| DD1CC3-15 | 2026-09-03 12:36:53 | 50.93760 | 8.47050 | 106° | 22km/h | 21301m | -16.6m/s | -52.5°C | 1.0% | 47.8hPa | 2.6V | 08:22:00 | 00:00:00 | 00:00:00 | |
| DO2KSM | 2026-09-03 12:36:52 | 50.93761 | 8.47043 | 107° | 16km/h | 21318m | -16.7m/s | -52.6°C | 1.0% | 47.7hPa | 2.6V | 08:22:00 | 00:00:00 | 00:00:00 | |
| DD8BA-10 | 2026-09-03 12:36:51 | 50.93763 | 8.47032 | 117° | 9km/h | 21350m | -15.3m/s | -52.4°C | 4.1% | 47.4hPa | 2.6V | 00:00:00 | 00:00:00 | 00:00:00 | |
| DL1NUX | 2026-09-03 12:36:50 | 50.93768 | 8.47019 | 118° | 9km/h | 21433m | -16.3m/s | -51.5°C | 3.8% | 46.9hPa | 2.6V | 08:22:10 | 02:18:53 | 00:00:00 | |
| AA1-15 | 2026-09-03 12:36:46 | 50.93768 | 8.47019 | 119° | 9km/h | 21433m | -16.3m/s | -51.5°C | 0.3% | 46.9hPa | 2.6V | 08:22:30 | 02:18:53 | 00:00:00 | |
| DK7TD | 2026-09-03 12:36:46 | 50.93769 | 8.47016 | 96° | 9km/h | 21450m | -16.8m/s | -51.4°C | 0.2% | 46.8hPa | 2.7V | 08:25:03 | 02:18:52 | 00:00:00 | |
| DL1XH-west | 2026-09-03 12:36:44 | 50.93769 | 8.47012 | 81° | 11km/h | 21466m | -16.9m/s | -51.3°C | 0.2% | 46.6hPa | 2.7V | 08:22:30 | 02:18:51 | 00:00:00 | |
| HSKMA3-T | 2026-09-03 12:36:43 | 50.93768 | 8.47008 | 70° | 9km/h | 21483m | -16.6m/s | -51.3°C | 0.2% | 46.5hPa | 2.6V | 08:22:30 | 02:18:50 | 00:00:00 | |
| AA1-15 | 2026-09-03 12:36:35 | 50.93747 | 8.46989 | 27° | 15km/h | 21616m | -16.9m/s | -51.8°C | 0.3% | 45.6hPa | 2.6V | 08:22:30 | 02:18:42 | 00:00:00 | |
| DL1XH-west | 2026-09-03 12:36:34 | 50.93744 | 8.46986 | 32° | 16km/h | 21633m | -17.6m/s | -51.9°C | 0.3% | 45.4hPa | 2.7V | 08:22:30 | 02:18:41 | 00:00:00 | |
| BIOWL1-15 | 2026-09-03 12:36:33 | 50.93741 | 8.46982 | 50° | 16km/h | 21650m | -17.5m/s | -52°C | 0.4% | 45.3hPa | 2.7V | 08:22:30 | 02:18:40 | 00:00:00 | |
| HSKMA3-T | 2026-09-03 12:36:32 | 50.93738 | 8.46976 | 69° | 20km/h | 21667m | -16.9m/s | -52.1°C | 0.4% | 45.2hPa | 2.7V | 08:22:30 | 02:18:39 | 00:00:00 | |
| DD8BA-10 | 2026-09-03 12:36:31 | 50.93736 | 8.46967 | 73° | 31km/h | 21684m | -16.2m/s | -52.1°C | 3.9% | 45.1hPa | 2.6V | 00:00:00 | 00:00:00 | 00:00:00 | |
| HTAHTA | 2026-09-03 12:36:30 | 50.93732 | 8.46932 | 79° | 33km/h | 21734m | -17.6m/s | -52.3°C | 0.9% | 44.8hPa | 2.6V | 00:00:00 | 00:00:00 | 00:00:00 | |
| DL8DAS-14 | 2026-09-03 12:36:29 | 50.93732 | 8.46932 | 79° | 33km/h | 21734m | -17.6m/s | -52.3°C | 0.9% | 44.8hPa | 2.6V | 00:00:00 | 00:00:00 | 00:00:00 | |
| DB0DAN | 2026-09-03 12:36:25 | 50.93728 | 8.46890 | 81° | 33km/h | 21785m | -17.1m/s | -52.4°C | 1% | 44.4hPa | 2.6V | 00:00:00 | 00:00:00 | 00:00:00 | |
| BIOWL1-15 | 2026-09-03 12:36:24 | 50.93725 | 8.46852 | 89° | 29km/h | 21836m | -16.7m/s | -52.1°C | 0.4% | 44.1hPa | 2.7V | 08:23:21 | 02:18:29 | 00:00:00 | |
| AA1-15 | 2026-09-03 12:36:24 | 50.93727 | 8.46876 | 84° | 33km/h | 21802m | -16.6m/s | -52.3°C | 0.4% | 44.3hPa | 2.6V | 08:23:21 | 02:18:31 | 00:00:00 | |
| DL1XH-west | 2026-09-03 12:36:24 | 50.93726 | 8.46864 | 83° | 31km/h | 21819m | -17.4m/s | -52.1°C | 0.4% | 44.2hPa | 2.6V | 08:23:21 | 02:18:30 | 00:00:00 | |
| HSKMA3-T | 2026-09-03 12:36:21 | 50.93725 | 8.46841 | 89° | 27km/h | 21853m | -16.5m/s | -52.2°C | 0.4% | 43.9hPa | 2.7V | 08:23:21 | 02:18:28 | 00:00:00 | |
| DK7TD | 2026-09-03 12:36:19 | 50.93727 | 8.46812 | 104° | 22km/h | 21902m | -16.3m/s | -52.5°C | 0.4% | 43.6hPa | 2.6V | 08:25:03 | 02:18:25 | 00:00:00 | |
| DL1NUX | 2026-09-03 12:36:17 | 50.93731 | 8.46796 | 114° | 20km/h | 21934m | -16.5m/s | -52.4°C | 4.1% | 43.4hPa | 2.7V | 08:22:40 | 02:18:23 | 00:00:00 | |
| DF8AY | 2026-09-03 12:36:16 | 50.93731 | 8.46796 | 115° | 20km/h | 21934m | -16.5m/s | -52.4°C | 0.5% | 43.4hPa | 2.7V | 08:24:12 | 02:18:23 | 00:00:00 | |
| DO3MHA-12 | 2026-09-03 12:36:15 | 50.93733 | 8.46789 | 123° | 16km/h | 21951m | -16.6m/s | -52.2°C | 4.1% | 43.2hPa | 2.7V | 00:00:00 | 02:18:22 | 00:00:00 | |
| DL1XH1-15 | 2026-09-03 12:36:13 | 50.93753 | 8.46764 | 177° | 7km/h | 22068m | -16.9m/s | -52°C | 3.9% | 42.5hPa | 2.7V | 08:22:48 | 02:18:15 | 00:00:00 | |
| AA1-15 | 2026-09-03 12:36:13 | 50.93739 | 8.46777 | 139° | 18km/h | 21984m | -16.4m/s | -52°C | 0.4% | 43.1hPa | 2.6V | 08:23:21 | 02:18:20 | 00:00:00 | |
| BIOWL1-15 | 2026-09-03 12:36:12 | 50.93757 | 8.46764 | 211° | 7km/h | 22101m | -16.2m/s | -51.9°C | 0.4% | 42.3hPa | 2.6V | 08:23:21 | 02:18:13 | 00:00:00 | |
| HSKMA3-T | 2026-09-03 12:36:11 | 50.93746 | 8.46769 | 148° | 15km/h | 22018m | -16.5m/s | -52°C | 0.4% | 42.8hPa | 2.6V | 08:23:21 | 02:18:18 | 00:00:00 | |
| DK7TD | 2026-09-03 12:36:08 | 50.93753 | 8.46764 | 178° | 7km/h | 22068m | -16.9m/s | -52°C | 0.4% | 42.5hPa | 2.7V | 08:25:03 | 02:18:15 | 00:00:00 | |
| DF8AY | 2026-09-03 12:36:05 | 50.93758 | 8.46766 | 233° | 5km/h | 22118m | -16.4m/s | -51.8°C | 0.3% | 42.1hPa | 2.6V | 08:24:12 | 02:18:12 | 00:00:00 | |
| AA1-15 | 2026-09-03 12:36:03 | 50.93760 | 8.46768 | 204° | 4km/h | 22151m | -16.8m/s | -51.8°C | 0.4% | 41.9hPa | 2.7V | 08:23:21 | 02:18:10 | 00:00:00 | |
| DL1XH-west | 2026-09-03 12:36:02 | 50.93760 | 8.46768 | 106° | 2km/h | 22168m | -16.5m/s | -51.7°C | 0.3% | 41.8hPa | 2.7V | 08:23:21 | 02:18:09 | 00:00:00 | |
| HSKMA3-T | 2026-09-03 12:36:00 | 50.93760 | 8.46765 | 87° | 5km/h | 22200m | -16.2m/s | -51.6°C | 0.3% | 41.6hPa | 2.6V | 08:23:21 | 02:18:07 | 00:00:00 | |
| BIOWL1-15 | 2026-09-03 12:35:59 | 50.93760 | 8.46763 | 98° | 7km/h | 22217m | -16.5m/s | -51.4°C | 0.3% | 41.5hPa | 2.6V | 08:23:21 | 02:18:06 | 00:00:00 | |
| DM0DOS-11 | 2026-09-03 12:35:59 | 50.93760 | 8.46760 | 91° | 7km/h | 22233m | -16.6m/s | -51.4°C | 3.7% | 41.4hPa | 2.7V | 08:22:58 | 02:18:05 | 00:00:00 | |
| DK7TD | 2026-09-03 12:35:57 | 50.93760 | 8.46757 | 95° | 7km/h | 22250m | -16.4m/s | -51.4°C | 0.3% | 41.3hPa | 2.7V | 08:25:03 | 02:18:04 | 00:00:00 | |
| AA1-15 | 2026-09-03 12:35:53 | 50.93760 | 8.46747 | 355° | 2km/h | 22334m | -17.4m/s | -51.8°C | 0.3% | 40.8hPa | 2.7V | 08:23:21 | 02:17:59 | 00:00:00 | |
| DL1XH1-15 | 2026-09-03 12:35:53 | 50.93757 | 8.46750 | 312° | 4km/h | 22404m | -17.1m/s | -51.9°C | 3.9% | 40.4hPa | 2.6V | 08:23:08 | 02:17:55 | 00:00:00 | |
| DL1XH-west | 2026-09-03 12:35:52 | 50.93759 | 8.46748 | 340° | 4km/h | 22351m | -17.2m/s | -51.8°C | 0.4% | 40.7hPa | 2.7V | 08:23:21 | 02:17:58 | 00:00:00 | |
| BIOWL1-15 | 2026-09-03 12:35:51 | 50.93758 | 8.46749 | 325° | 4km/h | 22386m | -17.5m/s | -51.9°C | 0.4% | 40.5hPa | 2.6V | 08:23:21 | 02:17:56 | 00:00:00 | |
| HSKMA3-T | 2026-09-03 12:35:50 | 50.93759 | 8.46748 | 309° | 2km/h | 22369m | -17.7m/s | -51.8°C | 0.4% | 40.5hPa | 2.7V | 08:23:21 | 02:17:57 | 00:00:00 | |
| DK7TD | 2026-09-03 12:35:46 | 50.93757 | 8.46752 | 284° | 2km/h | 22437m | -17.1m/s | -51.9°C | 0.4% | 40.1hPa | 2.7V | 08:25:03 | 02:17:53 | 00:00:00 | |
| DO3MHA-11 | 2026-09-03 12:35:46 | 50.93756 | 8.46751 | 284° | 5km/h | 22438m | -17.0m/s | -51.8°C | 3.9% | 40.1hPa | 2.7V | 00:00:00 | 02:17:53 | 00:00:00 | |
| DO3MHA-12 | 2026-09-03 12:35:45 | 50.93756 | 8.46752 | 178° | 7km/h | 22455m | -16.5m/s | -51.8°C | 3.9% | 40.0hPa | 2.7V | 00:00:00 | 02:17:52 | 00:00:00 | |
| DJ2DS-15 | 2026-09-03 12:35:43 | 50.93756 | 8.46749 | 66° | 5km/h | 22506m | -17.3m/s | -51.9°C | 0.9% | 39.7hPa | 2.7V | 00:00:00 | 00:00:00 | 00:00:00 | |
| DM0DOS-11 | 2026-09-03 12:35:42 | 50.93751 | 8.46738 | 47° | 9km/h | 22575m | -17.9m/s | -51.9°C | 3.8% | 39.3hPa | 2.7V | 08:23:18 | 02:17:45 | 00:00:00 | |
| AA1-15 | 2026-09-03 12:35:42 | 50.93755 | 8.46746 | 60° | 7km/h | 22523m | -17.4m/s | -51.9°C | 0.3% | 39.6hPa | 2.6V | 08:23:21 | 02:17:48 | 00:00:00 | |
| DL1NUX | 2026-09-03 12:35:41 | 50.93747 | 8.46733 | 45° | 7km/h | 22611m | -18.2m/s | -51.9°C | 3.8% | 39.1hPa | 2.6V | 08:23:20 | 02:17:43 | 00:00:00 | |
| BIOWL1-15 | 2026-09-03 12:35:40 | 50.93751 | 8.46738 | 48° | 9km/h | 22575m | -17.9m/s | -51.9°C | 0.3% | 39.3hPa | 2.7V | 08:23:21 | 02:17:45 | 00:00:00 | |
| DL1XH-15 | 2026-09-03 12:35:40 | 50.93752 | 8.46741 | 49° | 9km/h | 22558m | -17.3m/s | -51.9°C | 3.9% | 39.4hPa | 2.7V | 08:23:17 | 02:17:46 | 00:00:00 | |
| HSKMA3-T | 2026-09-03 12:35:40 | 50.93754 | 8.46744 | 51° | 9km/h | 22540m | -17.5m/s | -51.9°C | 0.3% | 39.5hPa | 2.7V | 08:23:21 | 02:17:47 | 00:00:00 | |
| DF8AY | 2026-09-03 12:35:39 | 50.93752 | 8.46741 | 49° | 9km/h | 22558m | -17.3m/s | -52°C | 0.3% | 39.4hPa | 2.7V | 08:24:12 | 02:17:46 | 00:00:00 | |
| DK7TD | 2026-09-03 12:35:36 | 50.93747 | 8.46733 | 46° | 9km/h | 22611m | -18.2m/s | -51.9°C | 0.3% | 39.1hPa | 2.6V | 08:25:03 | 02:17:43 | 00:00:00 | |
| AA1-15 | 2026-09-03 12:35:31 | 50.93746 | 8.46712 | 105° | 18km/h | 22703m | -17.9m/s | -51.9°C | 0.4% | 38.5hPa | 2.6V | 08:24:12 | 02:17:38 | 00:00:00 | |
| HSKMA3-T | 2026-09-03 12:35:29 | 50.93748 | 8.46695 | 94° | 24km/h | 22739m | -18.3m/s | -52.1°C | 0.4% | 38.3hPa | 2.6V | 08:24:12 | 02:17:36 | 00:00:00 | |
| DL1XH-west | 2026-09-03 12:35:29 | 50.93749 | 8.46686 | 99° | 24km/h | 22757m | -18m/s | -52.2°C | 0.4% | 38.2hPa | 2.7V | 08:24:12 | 02:17:35 | 00:00:00 | |
| DL1XH1-15 | 2026-09-03 12:35:29 | 50.93749 | 8.46686 | 98° | 24km/h | 22757m | -18m/s | -52.2°C | 4% | 38.2hPa | 2.7V | 08:23:28 | 02:17:35 | 00:00:00 | |
| BIOWL1-15 | 2026-09-03 12:35:28 | 50.93749 | 8.46667 | 80° | 24km/h | 22793m | -17.6m/s | -52.3°C | 0.4% | 38hPa | 2.7V | 08:24:12 | 02:17:33 | 00:00:00 | |
| DK7TD | 2026-09-03 12:35:25 | 50.93748 | 8.46658 | 79° | 22km/h | 22811m | -17.8m/s | -52.4°C | 0.5% | 37.9hPa | 2.6V | 08:25:03 | 02:17:32 | 00:00:00 | |
| DD1CC8 | 2026-09-03 12:35:24 | 50.93746 | 8.46650 | 74° | 20km/h | 22829m | -18.3m/s | -52.5°C | 1.0% | 37.8hPa | 2.6V | 00:00:00 | 00:00:00 | 00:00:00 | |
| EDDB2-11 | 2026-09-03 12:35:23 | 50.93743 | 8.46634 | 72° | 18km/h | 22865m | -18.0m/s | -52.5°C | 1.0% | 37.5hPa | 2.6V | 00:00:00 | 00:00:00 | 00:00:00 | |
| DM0DOS-11 | 2026-09-03 12:35:22 | 50.93741 | 8.46605 | 94° | 20km/h | 22937m | -18.1m/s | -52.1°C | 4% | 37.1hPa | 2.6V | 08:23:38 | 02:17:25 | 00:00:00 | |
| DF8AY | 2026-09-03 12:35:22 | 50.93743 | 8.46634 | 72° | 18km/h | 22865m | -18m/s | -52.5°C | 0.5% | 37.5hPa | 2.7V | 08:24:12 | 02:17:29 | 00:00:00 | |
| AA1-15 | 2026-09-03 12:35:21 | 50.93741 | 8.46620 | 85° | 16km/h | 22901m | -17.8m/s | -52.2°C | 0.5% | 37.3hPa | 2.7V | 08:24:12 | 02:17:27 | 00:00:00 | |
| DL1XH-west | 2026-09-03 12:35:19 | 50.93743 | 8.46586 | 102° | 24km/h | 22973m | -18.2m/s | -52.1°C | 0.4% | 36.9hPa | 2.7V | 08:24:12 | 02:17:23 | 00:00:00 | |
| HSKMA3-T | 2026-09-03 12:35:18 | 50.93741 | 8.46604 | 94° | 20km/h | 22937m | -18.1m/s | -52.2°C | 0.4% | 37.1hPa | 2.6V | 08:24:12 | 02:17:25 | 00:00:00 | |
| DL1NUX | 2026-09-03 12:35:18 | 50.93744 | 8.46586 | 102° | 24km/h | 22973m | -18.2m/s | -52.1°C | 3.9% | 36.9hPa | 2.7V | 08:23:40 | 02:17:23 | 00:00:00 | |
| BIOWL1-15 | 2026-09-03 12:35:17 | 50.93754 | 8.46543 | 119° | 18km/h | 23062m | -17.9m/s | -52°C | 0.3% | 36.4hPa | 2.6V | 08:24:12 | 02:17:18 | 00:00:00 | |
| DO1YAY-16 | 2026-09-03 12:35:16 | 50.93743 | 8.46586 | 102° | 24km/h | 22974m | -18.2m/s | -52.1°C | 0.9% | 36.9hPa | 2.7V | 00:00:00 | 00:00:00 | 00:00:00 | |
| GOEST3-10 | 2026-09-03 12:35:15 | 50.93745 | 8.46577 | 110° | 22km/h | 22992m | -17.5m/s | -52.0°C | 3.9% | 36.8hPa | 2.7V | 08:23:00 | 00:00:00 | 00:00:00 | |
| DL1XH-15 | 2026-09-03 12:35:14 | 50.93757 | 8.46532 | 127° | 11km/h | 23099m | -18.6m/s | -52.2°C | 4% | 36.2hPa | 2.7V | 08:23:47 | 02:17:16 | 00:00:00 | |
| DK7TD | 2026-09-03 12:35:14 | 50.93747 | 8.46567 | 106° | 24km/h | 23009m | -17.8m/s | -52°C | 0.4% | 36.7hPa | 2.7V | 08:25:03 | 02:17:21 | 00:00:00 | |
| AA1-15 | 2026-09-03 12:35:10 | 50.93755 | 8.46537 | 117° | 16km/h | 23080m | -18.6m/s | -52.1°C | 0.4% | 36.3hPa | 2.7V | 08:24:12 | 02:17:17 | 00:00:00 | |
| DL1XH1-15 | 2026-09-03 12:35:10 | 50.93759 | 8.46529 | 129° | 11km/h | 23117m | -18.3m/s | -52.2°C | 4% | 36.1hPa | 2.7V | 08:23:48 | 02:17:15 | 00:00:00 | |
| DJ2DS-15 | 2026-09-03 12:35:10 | 50.93755 | 8.46537 | 117° | 13km/h | 23081m | -18.6m/s | -52.0°C | 4.0% | 36.3hPa | 2.6V | 00:00:00 | 02:17:17 | 00:00:00 | |
| DD1CC3-15 | 2026-09-03 12:35:09 | 50.93757 | 8.46532 | 128° | 11km/h | 23099m | -18.6m/s | -52.2°C | 1.0% | 36.2hPa | 2.6V | 08:24:00 | 00:00:00 | 00:00:00 | |
| BIOWL1-15 | 2026-09-03 12:35:09 | 50.93761 | 8.46526 | 145° | 9km/h | 23136m | -18.4m/s | -52.2°C | 0.4% | 36hPa | 2.6V | 08:24:12 | 02:17:14 | 00:00:00 | |
| DL1NUX | 2026-09-03 12:35:08 | 50.93763 | 8.46524 | 147° | 11km/h | 23154m | -18.6m/s | -52.2°C | 4% | 35.9hPa | 2.6V | 08:23:50 | 02:17:13 | 00:00:00 | |
| HSKMA3-T | 2026-09-03 12:35:08 | 50.93759 | 8.46529 | 130° | 11km/h | 23117m | -18.3m/s | -52.2°C | 0.4% | 36.1hPa | 2.7V | 08:24:12 | 02:17:15 | 00:00:00 | |
| DK7TD | 2026-09-03 12:35:04 | 50.93768 | 8.46519 | 154° | 15km/h | 23191m | -18.1m/s | -52.3°C | 0.4% | 35.7hPa | 2.7V | 08:25:03 | 02:17:11 | 00:00:00 | |
| AA1-15 | 2026-09-03 12:35:00 | 50.93779 | 8.46502 | 116° | 15km/h | 23265m | -18.7m/s | -52.3°C | 0.5% | 35.3hPa | 2.6V | 08:24:12 | 02:17:07 | 00:00:00 | |
| BIOWL1-15 | 2026-09-03 12:34:59 | 50.93781 | 8.46486 | 83° | 13km/h | 23321m | -18.7m/s | -52.1°C | 0.4% | 35hPa | 2.7V | 08:24:12 | 02:17:04 | 00:00:00 | |
| HSKMA3-T | 2026-09-03 12:34:58 | 50.93781 | 8.46491 | 92° | 13km/h | 23303m | -18.7m/s | -52.2°C | 0.5% | 35.1hPa | 2.7V | 08:24:12 | 02:17:05 | 00:00:00 | |
| DF8AY | 2026-09-03 12:34:56 | 50.93780 | 8.46481 | 70° | 13km/h | 23340m | -19m/s | -51.8°C | 0.4% | 34.9hPa | 2.7V | 08:24:12 | 02:17:03 | 00:00:00 | |
| AA1-15 | 2026-09-03 12:34:50 | 50.93779 | 8.46451 | 110° | 20km/h | 23456m | -19.5m/s | -52°C | 0.5% | 34.2hPa | 2.7V | 08:24:12 | 02:16:57 | 00:00:00 | |
| DJ2DS-15 | 2026-09-03 12:34:50 | 50.93779 | 8.46451 | 111° | 29km/h | 23456m | -19.5m/s | -52.0°C | 4.1% | 34.2hPa | 2.7V | 00:00:00 | 02:16:57 | 00:00:00 | |
| DO9LL-15 | 2026-09-03 12:34:49 | 50.93781 | 8.46442 | 118° | 26km/h | 23476m | -18.6m/s | -52.0°C | 4.1% | 34.1hPa | 2.7V | 00:00:00 | 02:16:56 | 00:00:00 | |
| DL1NUX | 2026-09-03 12:34:48 | 50.93791 | 8.46409 | 112° | 35km/h | 23533m | -19.1m/s | -52°C | 4.2% | 33.8hPa | 2.7V | 08:24:10 | 02:16:53 | 00:00:00 | |
| DL1XH-west | 2026-09-03 12:34:48 | 50.93784 | 8.46433 | 115° | 29km/h | 23495m | -19.6m/s | -52°C | 0.5% | 34.1hPa | 2.6V | 08:24:12 | 02:16:55 | 00:00:00 | |
| DL1XH1-15 | 2026-09-03 12:34:47 | 50.93787 | 8.46421 | 116° | 33km/h | 23514m | -19.1m/s | -52°C | 4.1% | 33.9hPa | 2.6V | 08:24:09 | 02:16:54 | 00:00:00 | |
| DF8AY | 2026-09-03 12:34:46 | 50.93791 | 8.46409 | 112° | 35km/h | 23533m | -19.1m/s | -52°C | 0.5% | 33.8hPa | 2.7V | 08:24:12 | 02:16:53 | 00:00:00 | |
| BIOWL1-15 | 2026-09-03 12:34:46 | 50.93806 | 8.46356 | 131° | 15km/h | 23628m | -19.1m/s | -51.5°C | 0.3% | 33.4hPa | 2.6V | 08:25:03 | 02:16:48 | 00:00:00 | |
| DO1YAY-16 | 2026-09-03 12:34:45 | 50.93794 | 8.46396 | 113° | 35km/h | 23552m | -19.0m/s | -51.9°C | 0.9% | 33.7hPa | 2.6V | 00:00:00 | 00:00:00 | 00:00:00 | |
| DK7TD | 2026-09-03 12:34:43 | 50.93801 | 8.46372 | 113° | 27km/h | 23590m | -18.9m/s | -51.7°C | 0.4% | 33.5hPa | 2.6V | 08:25:03 | 02:16:50 | 00:00:00 | |
| DM0DOS-11 | 2026-09-03 12:34:42 | 50.93820 | 8.46353 | 190° | 27km/h | 23684m | -18.6m/s | -51.5°C | 3.9% | 33.1hPa | 2.7V | 08:24:18 | 02:16:45 | 00:00:00 | |
| DL1NUX | 2026-09-03 12:34:41 | 50.93837 | 8.46357 | 189° | 35km/h | 23722m | -19.1m/s | -51.2°C | 3.8% | 32.9hPa | 2.6V | 08:24:20 | 02:16:43 | 00:00:00 | |
| AA1-15 | 2026-09-03 12:34:39 | 50.93814 | 8.46352 | 179° | 20km/h | 23666m | -17.8m/s | -51.6°C | 0.3% | 33.1hPa | 2.7V | 08:25:03 | 02:16:46 | 00:00:00 | |
| DL1XH-west | 2026-09-03 12:34:37 | 50.93837 | 8.46357 | 190° | 35km/h | 23722m | -19.1m/s | -51.2°C | 0.3% | 32.9hPa | 2.6V | 08:25:03 | 02:16:43 | 00:00:00 | |
| HSKMA3-T | 2026-09-03 12:34:37 | 50.93828 | 8.46355 | 188° | 35km/h | 23702m | -19.3m/s | -51.4°C | 0.4% | 33hPa | 2.6V | 08:25:03 | 02:16:44 | 00:00:00 | |
| DF8AY | 2026-09-03 12:34:35 | 50.93846 | 8.46359 | 187° | 40km/h | 23741m | -19.5m/s | -51.1°C | 0.3% | 32.8hPa | 2.6V | 08:25:03 | 02:16:42 | 00:00:00 | |
| DK7TD | 2026-09-03 12:34:33 | 50.93864 | 8.46360 | 174° | 33km/h | 23781m | -20.9m/s | -51°C | 0.3% | 32.6hPa | 2.7V | 08:25:03 | 02:16:40 | 00:00:00 | |
| DB0UT-7 | 2026-09-03 12:34:33 | 50.93864 | 8.46360 | 175° | 18km/h | 23781m | -20.9m/s | -50.9°C | 3.8% | 32.5hPa | 2.7V | 00:00:00 | 02:16:40 | 00:00:00 | |
| DL1XH1-15 | 2026-09-03 12:34:32 | 50.93879 | 8.46337 | 13° | 18km/h | 23896m | -20.1m/s | -51.2°C | 3.8% | 32hPa | 2.7V | 08:24:29 | 02:16:34 | 00:00:00 | |
| AU51GT2 | 2026-09-03 12:34:32 | 50.93879 | 8.46354 | 146° | 22km/h | 23821m | -19.4m/s | -51.0°C | 0.9% | 32.4hPa | 2.7V | 00:00:00 | 00:00:00 | 00:00:00 | |
| DM0DOS-11 | 2026-09-03 12:34:31 | 50.93882 | 8.46340 | 48° | 15km/h | 23877m | -19m/s | -51.2°C | 3.9% | 32.1hPa | 2.7V | 08:24:28 | 02:16:35 | 00:00:00 | |
| AA1-15 | 2026-09-03 12:34:29 | 50.93883 | 8.46344 | 88° | 11km/h | 23858m | -18.4m/s | -51.2°C | 0.3% | 32.2hPa | 2.6V | 08:25:03 | 02:16:36 | 00:00:00 | |
| DL1NUX | 2026-09-03 12:34:28 | 50.93874 | 8.46336 | 358° | 20km/h | 23916m | -19.5m/s | -51.3°C | 3.9% | 31.9hPa | 2.7V | 08:24:30 | 02:16:33 | 00:00:00 | |
| DL1XH-west | 2026-09-03 12:34:27 | 50.93879 | 8.46337 | 14° | 18km/h | 23896m | -20.1m/s | -51.3°C | 0.3% | 32hPa | 2.7V | 08:25:03 | 02:16:34 | 00:00:00 | |
| BIOWL1-15 | 2026-09-03 12:34:25 | 50.93869 | 8.46337 | 343° | 16km/h | 23936m | -20.1m/s | -51.3°C | 0.4% | 31.8hPa | 2.6V | 08:25:03 | 02:16:32 | 00:00:00 | |
| DK7TD | 2026-09-03 12:34:22 | 50.93863 | 8.46346 | 249° | 11km/h | 23994m | -19.3m/s | -51.3°C | 0.3% | 31.5hPa | 2.7V | 08:25:03 | 02:16:29 | 00:00:00 | |
| DD1CC8 | 2026-09-03 12:34:22 | 50.93865 | 8.46350 | 216° | 15km/h | 24013m | -19.2m/s | -51.3°C | 0.9% | 31.4hPa | 2.6V | 00:00:00 | 00:00:00 | 00:00:00 | |
| DM0DOS-11 | 2026-09-03 12:34:21 | 50.93884 | 8.46353 | 167° | 29km/h | 24071m | -19.7m/s | -51.2°C | 4% | 31.1hPa | 2.6V | 08:24:38 | 02:16:25 | 00:00:00 | |
| DL1NUX | 2026-09-03 12:34:21 | 50.93896 | 8.46344 | 146° | 27km/h | 24110m | -19.8m/s | -51°C | 4% | 31hPa | 2.7V | 08:24:40 | 02:16:23 | 00:00:00 | |
| DF8AY | 2026-09-03 12:34:20 | 50.93870 | 8.46353 | 196° | 24km/h | 24032m | -18.8m/s | -51.3°C | 0.4% | 31.3hPa | 2.7V | 08:25:03 | 02:16:27 | 00:00:00 | |
| AA1-15 | 2026-09-03 12:34:18 | 50.93883 | 8.46353 | 168° | 29km/h | 24071m | -19.7m/s | -51.2°C | 0.4% | 31.1hPa | 2.6V | 08:25:03 | 02:16:25 | 00:00:00 | |
| DL1XH-west | 2026-09-03 12:34:17 | 50.93890 | 8.46350 | 155° | 29km/h | 24090m | -19.7m/s | -51.2°C | 0.5% | 31.1hPa | 2.6V | 08:25:03 | 02:16:24 | 00:00:00 | |
| HSKMA3-T | 2026-09-03 12:34:16 | 50.93896 | 8.46344 | 147° | 27km/h | 24110m | -19.8m/s | -51.1°C | 0.4% | 31hPa | 2.7V | 08:25:03 | 02:16:23 | 00:00:00 | |
| BIOWL1-15 | 2026-09-03 12:34:14 | 50.93904 | 8.46330 | 115° | 22km/h | 24148m | -18.3m/s | -50.8°C | 0.3% | 30.8hPa | 2.7V | 08:25:03 | 02:16:21 | 00:00:00 | |
| GOEST3-10 | 2026-09-03 12:34:14 | 50.93904 | 8.46330 | 116° | 15km/h | 24149m | -18.2m/s | -50.7°C | 3.9% | 30.7hPa | 2.7V | 00:00:00 | 00:00:00 | 00:00:00 | |
| DL3AQ-11 | 2026-09-03 12:34:13 | 50.93905 | 8.46316 | 72° | 11km/h | 24186m | -18.6m/s | -50.7°C | 0.8% | 30.6hPa | 2.6V | 00:00:00 | 00:00:00 | 00:00:00 | |
| NBG1-10 | 2026-09-03 12:34:12 | 50.93905 | 8.46316 | 73° | 16km/h | 24186m | -18.5m/s | -50.6°C | 3.8% | 30.5hPa | 2.6V | 00:00:00 | 02:16:19 | 00:00:00 | |
| DM0DOS-11 | 2026-09-03 12:34:11 | 50.93896 | 8.46314 | 316° | 15km/h | 24261m | -19.4m/s | -50.3°C | 3.7% | 30.2hPa | 2.7V | 08:24:48 | 02:16:15 | 00:00:00 | |
| DK7TD | 2026-09-03 12:34:10 | 50.93902 | 8.46310 | 8° | 11km/h | 24222m | -18.8m/s | -50.5°C | 0.3% | 30.4hPa | 2.7V | 08:25:03 | 02:16:17 | 00:00:00 | |
| DF8AY | 2026-09-03 12:34:09 | 50.93899 | 8.46311 | 341° | 13km/h | 24241m | -19.1m/s | -50.4°C | 0.3% | 30.3hPa | 2.7V | 08:25:03 | 02:16:16 | 00:00:00 | |
| GOEST3-10 | 2026-09-03 12:34:09 | 50.93899 | 8.46311 | 341° | 15km/h | 24242m | -19.1m/s | -50.3°C | 3.7% | 30.3hPa | 2.6V | 00:00:00 | 02:16:16 | 00:00:00 | |
| DL1NUX | 2026-09-03 12:34:08 | 50.93892 | 8.46324 | 283° | 16km/h | 24298m | -19m/s | -50.1°C | 3.6% | 30.1hPa | 2.6V | 08:24:50 | 02:16:13 | 00:00:00 | |
| AA1-15 | 2026-09-03 12:34:07 | 50.93894 | 8.46318 | 301° | 16km/h | 24279m | -18.2m/s | -50.3°C | 0.2% | 30.1hPa | 2.6V | 08:25:03 | 02:16:14 | 00:00:00 | |
| DL1XH-west | 2026-09-03 12:34:06 | 50.93892 | 8.46324 | 283° | 16km/h | 24298m | -19m/s | -50.2°C | 0.2% | 30.1hPa | 2.6V | 08:25:03 | 02:16:13 | 00:00:00 | |
| HSKMA3-T | 2026-09-03 12:34:05 | 50.93892 | 8.46330 | 266° | 15km/h | 24317m | -18.6m/s | -50°C | 0.2% | 30hPa | 2.6V | 08:25:03 | 02:16:12 | 00:00:00 | |
| BIOWL1-15 | 2026-09-03 12:34:03 | 50.93898 | 8.46341 | 187° | 15km/h | 24372m | -19.1m/s | -49.8°C | 0.2% | 29.7hPa | 2.7V | 08:25:03 | 02:16:09 | 00:00:00 | |
| DB0UT-7 | 2026-09-03 12:34:03 | 50.93895 | 8.46339 | 212° | 18km/h | 24354m | -18.1m/s | -49.8°C | 3.5% | 29.8hPa | 2.7V | 00:00:00 | 00:00:00 | 00:00:00 | |
| DL3AQ-11 | 2026-09-03 12:34:02 | 50.93902 | 8.46340 | 165° | 15km/h | 24391m | -19.2m/s | -49.8°C | 0.8% | 29.7hPa | 2.7V | 00:00:00 | 00:00:00 | 00:00:00 | |
| DM0DOS-11 | 2026-09-03 12:34:01 | 50.93909 | 8.46331 | 117° | 11km/h | 24446m | -19m/s | -49.8°C | 3.5% | 29.4hPa | 2.7V | 08:24:58 | 02:16:05 | 00:00:00 | |
| DL1NUX | 2026-09-03 12:34:01 | 50.93911 | 8.46324 | 87° | 7km/h | 24485m | -19.1m/s | -49.9°C | 3.6% | 29.2hPa | 2.7V | 08:25:00 | 02:16:03 | 00:00:00 | |
| DK7TD | 2026-09-03 12:34:00 | 50.93905 | 8.46338 | 147° | 13km/h | 24410m | -17.9m/s | -49.8°C | 0.1% | 29.6hPa | 2.6V | 08:25:03 | 02:16:07 | 00:00:00 | |
| AA1-15 | 2026-09-03 12:33:57 | 50.93910 | 8.46327 | 110° | 9km/h | 24465m | -19.6m/s | -49.9°C | 0.2% | 29.3hPa | 2.7V | 08:25:03 | 02:16:04 | 00:00:00 | |
| HSKMA3-T | 2026-09-03 12:33:56 | 50.93910 | 8.46322 | 35° | 5km/h | 24503m | -18.6m/s | -49.9°C | 0.2% | 29.1hPa | 2.6V | 08:25:03 | 02:16:02 | 00:00:00 | |
| DL1XH-west | 2026-09-03 12:33:56 | 50.93910 | 8.46324 | 87° | 7km/h | 24485m | -19.1m/s | -49.9°C | 0.2% | 29.2hPa | 2.7V | 08:25:03 | 02:16:03 | 00:00:00 | |
| BIOWL1-15 | 2026-09-03 12:33:53 | 50.93902 | 8.46322 | 1° | 16km/h | 24559m | -18.9m/s | -49.7°C | 0.2% | 28.9hPa | 2.7V | 08:25:54 | 02:15:59 | 00:00:00 | |
| DK7TD | 2026-09-03 12:33:49 | 50.93887 | 8.46321 | 6° | 20km/h | 24617m | -19m/s | -50°C | 0.2% | 28.6hPa | 2.7V | 08:25:54 | 02:15:56 | 00:00:00 | |
| DF8AY | 2026-09-03 12:33:47 | 50.93878 | 8.46323 | 264° | 5km/h | 24674m | -17.7m/s | -50°C | 0.2% | 28.4hPa | 2.6V | 08:29:18 | 02:15:53 | 00:00:00 | |
| AA1-15 | 2026-09-03 12:33:47 | 50.93879 | 8.46321 | 341° | 9km/h | 24656m | -19.5m/s | -50°C | 0.2% | 28.4hPa | 2.6V | 08:25:54 | 02:15:54 | 00:00:00 | |
| DL1XH-15 | 2026-09-03 12:33:46 | 50.93894 | 8.46320 | 150° | 26km/h | 24750m | -19.8m/s | -49.7°C | 3.6% | 28hPa | 2.6V | 08:25:14 | 02:15:49 | 00:00:00 | |
| DL1XH-west | 2026-09-03 12:33:45 | 50.93880 | 8.46325 | 206° | 11km/h | 24692m | -17.6m/s | -49.9°C | 0.2% | 28.3hPa | 2.7V | 08:25:54 | 02:15:52 | 00:00:00 | |
| HSKMA3-T | 2026-09-03 12:33:44 | 50.93883 | 8.46326 | 180° | 18km/h | 24710m | -19.4m/s | -49.8°C | 0.1% | 28.2hPa | 2.7V | 08:25:54 | 02:15:51 | 00:00:00 | |
| BIOWL1-15 | 2026-09-03 12:33:42 | 50.93894 | 8.46320 | 151° | 26km/h | 24750m | -19.8m/s | -49.7°C | 0.2% | 28hPa | 2.6V | 08:25:54 | 02:15:49 | 00:00:00 | |
| DL1NUX | 2026-09-03 12:33:41 | 50.93900 | 8.46262 | 49° | 26km/h | 24867m | -20.2m/s | -49.4°C | 3.6% | 27.6hPa | 2.7V | 08:25:20 | 02:15:43 | 00:00:00 | |
| DK7TD | 2026-09-03 12:33:37 | 50.93903 | 8.46271 | 67° | 27km/h | 24847m | -20.1m/s | -49.4°C | 0.2% | 27.6hPa | 2.7V | 08:25:54 | 02:15:44 | 00:00:00 | |
| AA1-15 | 2026-09-03 12:33:36 | 50.93900 | 8.46262 | 50° | 26km/h | 24867m | -20.2m/s | -49.4°C | 0.2% | 27.6hPa | 2.7V | 08:25:54 | 02:15:43 | 00:00:00 | |
| DL1XH-west | 2026-09-03 12:33:34 | 50.93891 | 8.46253 | 6° | 16km/h | 24906m | -18.9m/s | -49.4°C | 0.2% | 27.4hPa | 2.6V | 08:25:54 | 02:15:41 | 00:00:00 | |
| HSKMA3-T | 2026-09-03 12:33:33 | 50.93888 | 8.46254 | 330° | 13km/h | 24925m | -19.1m/s | -49.3°C | 0.1% | 27.3hPa | 2.6V | 08:25:54 | 02:15:40 | 00:00:00 | |
| BIOWL1-15 | 2026-09-03 12:33:33 | 50.93886 | 8.46264 | 252° | 18km/h | 24962m | -18.2m/s | -49.3°C | 0.1% | 27.1hPa | 2.7V | 08:25:54 | 02:15:38 | 00:00:00 | |
| DF8AY | 2026-09-03 12:33:32 | 50.93886 | 8.46258 | 289° | 13km/h | 24944m | -18.4m/s | -49.3°C | 0.1% | 27.2hPa | 2.6V | 08:29:18 | 02:15:39 | 00:00:00 | |
| AA1-15 | 2026-09-03 12:33:25 | 50.93927 | 8.46290 | 168° | 31km/h | 25072m | -18.8m/s | -48.9°C | 0.1% | 26.7hPa | 2.7V | 08:25:54 | 02:15:32 | 00:00:00 | |
| DK7TD | 2026-09-03 12:33:24 | 50.93934 | 8.46286 | 153° | 27km/h | 25091m | -20m/s | -48.9°C | 0.1% | 26.6hPa | 2.7V | 08:25:54 | 02:15:31 | 00:00:00 | |
| BIOWL1-15 | 2026-09-03 12:33:24 | 50.93941 | 8.46273 | 100° | 18km/h | 25131m | -19.4m/s | -49°C | 0.1% | 26.4hPa | 2.6V | 08:25:54 | 02:15:29 | 00:00:00 | |
| DL1XH-west | 2026-09-03 12:33:23 | 50.93939 | 8.46280 | 129° | 22km/h | 25111m | -20.2m/s | -48.9°C | 0.1% | 26.5hPa | 2.7V | 08:25:54 | 02:15:30 | 00:00:00 | |
| DF8AY | 2026-09-03 12:33:16 | 50.93909 | 8.46266 | 330° | 40km/h | 25245m | -19.6m/s | -49°C | 0.2% | 26hPa | 2.6V | 08:29:18 | 02:15:23 | 00:00:00 | |
| DL1XH1-15 | 2026-09-03 12:33:16 | 50.93909 | 8.46266 | 329° | 40km/h | 25245m | -19.6m/s | -49°C | 3.6% | 25.9hPa | 2.6V | 08:25:40 | 02:15:23 | 00:00:00 | |
| AA1-15 | 2026-09-03 12:33:14 | 50.93893 | 8.46289 | 307° | 46km/h | 25283m | -18.5m/s | -48.8°C | 0.1% | 25.8hPa | 2.6V | 08:25:54 | 02:15:21 | 00:00:00 | |
| DL1XH-west | 2026-09-03 12:33:13 | 50.93887 | 8.46304 | 295° | 47km/h | 25302m | -18.5m/s | -48.8°C | 0.1% | 25.7hPa | 2.7V | 08:25:54 | 02:15:20 | 00:00:00 | |
| DO1YAY-16 | 2026-09-03 12:33:12 | 50.93883 | 8.46322 | 282° | 44km/h | 25321m | -18.6m/s | -48.8°C | 0.8% | 25.6hPa | 2.6V | 00:00:00 | 00:00:00 | 00:00:00 | |
| DM0DOS-11 | 2026-09-03 12:33:11 | 50.93890 | 8.46381 | 227° | 33km/h | 25394m | -18.5m/s | -48.8°C | 3.3% | 25.4hPa | 2.6V | 08:25:48 | 02:15:15 | 00:00:00 | |
| BIOWL1-15 | 2026-09-03 12:33:11 | 50.93882 | 8.46339 | 271° | 44km/h | 25339m | -18.5m/s | -48.8°C | 0% | 25.6hPa | 2.7V | 08:25:54 | 02:15:18 | 00:00:00 | |
| DD8BA-10 | 2026-09-03 12:33:10 | 50.93883 | 8.46355 | 258° | 29km/h | 25358m | -18.6m/s | -48.7°C | 3.3% | 25.5hPa | 2.6V | 08:25:00 | 00:00:00 | 00:00:00 | |
| DO3DL | 2026-09-03 12:33:08 | 50.93886 | 8.46370 | 246° | 37km/h | 25376m | -18.3m/s | -48.9°C | 0.7% | 25.5hPa | 2.7V | 08:25:00 | 00:00:00 | 00:00:00 | |
| DL1XH1-15 | 2026-09-03 12:33:06 | 50.93903 | 8.46392 | 188° | 27km/h | 25431m | -18.9m/s | -48.8°C | 3.4% | 25.2hPa | 2.7V | 08:25:50 | 02:15:13 | 00:00:00 | |
| AA1-15 | 2026-09-03 12:33:03 | 50.93918 | 8.46381 | 114° | 22km/h | 25488m | -19.1m/s | -48.5°C | 0.1% | 25hPa | 2.6V | 08:25:54 | 02:15:10 | 00:00:00 | |
| DL1XH-west | 2026-09-03 12:33:02 | 50.93919 | 8.46373 | 84° | 26km/h | 25507m | -18.4m/s | -48.5°C | 0% | 24.9hPa | 2.7V | 08:25:54 | 02:15:09 | 00:00:00 | |
| DM0DOS-11 | 2026-09-03 12:33:01 | 50.93892 | 8.46339 | 11° | 46km/h | 25579m | -17.8m/s | -48.5°C | 3.4% | 24.6hPa | 2.7V | 08:25:58 | 02:15:05 | 00:00:00 | |
| BIOWL1-15 | 2026-09-03 12:33:00 | 50.93911 | 8.46352 | 41° | 37km/h | 25543m | -17.9m/s | -48.7°C | 0.1% | 24.8hPa | 2.6V | 08:26:45 | 02:15:07 | 00:00:00 | |
| DL1XH-west | 2026-09-03 12:32:52 | 50.93831 | 8.46389 | 298° | 47km/h | 25688m | -19m/s | -48.6°C | 0% | 24.2hPa | 2.7V | 08:26:45 | 02:14:59 | 00:00:00 | |
| DM0DOS-11 | 2026-09-03 12:32:51 | 50.93829 | 8.46447 | 237° | 31km/h | 25764m | -18.7m/s | -48.7°C | 3.4% | 24hPa | 2.7V | 08:26:08 | 02:14:55 | 00:00:00 | |
| BIOWL1-15 | 2026-09-03 12:32:50 | 50.93825 | 8.46422 | 272° | 38km/h | 25726m | -19.4m/s | -48.7°C | 0% | 24.1hPa | 2.6V | 08:26:45 | 02:14:57 | 00:00:00 | |
| DD1CC8 | 2026-09-03 12:32:49 | 50.93829 | 8.46447 | 237° | 29km/h | 25764m | -18.7m/s | -48.7°C | 0.7% | 24.0hPa | 2.7V | 00:00:00 | 00:00:00 | 00:00:00 | |
| WPPR-10 | 2026-09-03 12:32:47 | 50.93840 | 8.46460 | 193° | 24km/h | 25801m | -18.6m/s | -48.6°C | 0.8% | 23.8hPa | 2.7V | 00:00:00 | 00:00:00 | 00:00:00 | |
| DL1XH-west | 2026-09-03 12:32:42 | 50.93861 | 8.46432 | 112° | 38km/h | 25873m | -18.8m/s | -48.5°C | 0.1% | 23.6hPa | 2.7V | 08:26:45 | 02:14:49 | 00:00:00 | |
| BIOWL1-15 | 2026-09-03 12:32:42 | 50.93865 | 8.46400 | 90° | 44km/h | 25910m | -18.3m/s | -48.4°C | 0.1% | 23.4hPa | 2.7V | 08:26:45 | 02:14:47 | 00:00:00 | |
| DM0DOS-11 | 2026-09-03 12:32:41 | 50.93861 | 8.46367 | 64° | 44km/h | 25946m | -18.4m/s | -48.2°C | 3.4% | 23.3hPa | 2.6V | 08:26:18 | 02:14:45 | 00:00:00 | |
| HSKMA3-T | 2026-09-03 12:32:41 | 50.93864 | 8.46417 | 102° | 42km/h | 25892m | -18.3m/s | -48.4°C | 0.1% | 23.5hPa | 2.7V | 08:26:45 | 02:14:48 | 00:00:00 | |
| DD8BA-10 | 2026-09-03 12:32:40 | 50.93865 | 8.46400 | 90° | 38km/h | 25910m | -18.2m/s | -48.4°C | 3.4% | 23.4hPa | 2.7V | 00:00:00 | 00:00:00 | 00:00:00 | |
| GOEST3-10 | 2026-09-03 12:32:38 | 50.93860 | 8.46367 | 65° | 38km/h | 25946m | -18.3m/s | -48.2°C | 3.4% | 23.3hPa | 2.6V | 00:00:00 | 02:14:45 | 00:00:00 | |
| DL1XH-15 | 2026-09-03 12:32:36 | 50.93811 | 8.46339 | 306° | 29km/h | 26075m | -18.7m/s | -48.3°C | 3.3% | 22.9hPa | 2.6V | 08:26:25 | 02:14:38 | 00:00:00 | |
| DL1XH1-15 | 2026-09-03 12:32:36 | 50.93848 | 8.46340 | 38° | 40km/h | 25983m | -18.7m/s | -48.2°C | 3.3% | 23.1hPa | 2.7V | 08:26:20 | 02:14:43 | 00:00:00 | |
| DK7TD | 2026-09-03 12:32:34 | 50.93831 | 8.46328 | 9° | 33km/h | 26020m | -19m/s | -48.3°C | 0% | 23hPa | 2.7V | 08:28:27 | 02:14:41 | 00:00:00 | |
| DL1XH-west | 2026-09-03 12:32:31 | 50.93811 | 8.46339 | 306° | 29km/h | 26075m | -18.7m/s | -48.3°C | 0% | 22.9hPa | 2.6V | 08:26:45 | 02:14:38 | 00:00:00 | |
| HSKMA3-T | 2026-09-03 12:32:30 | 50.93807 | 8.46350 | 291° | 31km/h | 26093m | -18.1m/s | -48.3°C | 0% | 22.8hPa | 2.7V | 08:26:45 | 02:14:37 | 00:00:00 | |
| BIOWL1-15 | 2026-09-03 12:32:29 | 50.93806 | 8.46362 | 267° | 35km/h | 26111m | -18.1m/s | -48.3°C | 0% | 22.7hPa | 2.7V | 08:26:45 | 02:14:36 | 00:00:00 | |
| DO3DL | 2026-09-03 12:32:28 | 50.93806 | 8.46362 | 268° | 35km/h | 26112m | -18.1m/s | -48.3°C | 0.7% | 22.7hPa | 2.6V | 08:26:00 | 00:00:00 | 00:00:00 | |
| DL1XH1-15 | 2026-09-03 12:32:26 | 50.93817 | 8.46405 | 230° | 44km/h | 26167m | -19m/s | -48.3°C | 3.3% | 22.5hPa | 2.6V | 08:26:30 | 02:14:33 | 00:00:00 | |
| BIOWL1-15 | 2026-09-03 12:32:23 | 50.93863 | 8.46356 | 22° | 42km/h | 26410m | -18.4m/s | -48.3°C | 0.1% | 21.7hPa | 2.6V | 08:26:45 | 02:14:20 | 00:00:00 | |
| DL9SK-14 | 2026-09-03 12:32:22 | 50.93865 | 8.46433 | 167° | 37km/h | 26263m | -19.1m/s | -48.3°C | 0.7% | 22.2hPa | 2.6V | 00:00:00 | 00:00:00 | 00:00:00 | |
| DM0DOS-11 | 2026-09-03 12:32:21 | 50.93884 | 8.46411 | 113° | 29km/h | 26319m | -18.6m/s | -48.5°C | 3.5% | 22hPa | 2.6V | 08:26:38 | 02:14:25 | 00:00:00 | |
| HSKMA3-T | 2026-09-03 12:32:20 | 50.93873 | 8.46428 | 151° | 33km/h | 26282m | -19.2m/s | -48.4°C | 0.1% | 22.1hPa | 2.7V | 08:26:45 | 02:14:27 | 00:00:00 | |
| DD8BA-10 | 2026-09-03 12:32:20 | 50.93873 | 8.46428 | 152° | 37km/h | 26282m | -19.2m/s | -48.3°C | 3.4% | 22.1hPa | 2.7V | 00:00:00 | 00:00:00 | 00:00:00 | |
| DL1XH1-15 | 2026-09-03 12:32:19 | 50.93884 | 8.46387 | 67° | 33km/h | 26356m | -18.3m/s | -48.5°C | 3.6% | 21.9hPa | 2.7V | 08:26:40 | 02:14:23 | 00:00:00 | |
| DK7TD | 2026-09-03 12:32:14 | 50.93872 | 8.46364 | 38° | 40km/h | 26391m | -18.4m/s | -48.3°C | 0.1% | 21.8hPa | 2.6V | 08:28:27 | 02:14:21 | 00:00:00 | |
| DL3AQ-11 | 2026-09-03 12:32:13 | 50.93853 | 8.46352 | 8° | 44km/h | 26428m | -19.1m/s | -48.3°C | 0.7% | 21.6hPa | 2.6V | 00:00:00 | 00:00:00 | 00:00:00 | |
| SONCRA | 2026-09-03 12:32:12 | 50.93841 | 8.46351 | 356° | 47km/h | 26447m | -19.0m/s | -48.4°C | 0.7% | 21.6hPa | 2.6V | 00:00:00 | 00:00:00 | 00:00:00 | |
| DL1XH-15 | 2026-09-03 12:32:10 | 50.93807 | 8.46371 | 323° | 49km/h | 26504m | -19.7m/s | -48.3°C | 3.4% | 21.4hPa | 2.6V | 08:26:48 | 02:14:15 | 00:00:00 | |
| AA1-15 | 2026-09-03 12:32:10 | 50.93829 | 8.46353 | 347° | 49km/h | 26466m | -19.2m/s | -48.4°C | 0.1% | 21.5hPa | 2.7V | 08:27:36 | 02:14:17 | 00:00:00 | |
| HSKMA3-T | 2026-09-03 12:32:09 | 50.93817 | 8.46360 | 332° | 49km/h | 26485m | -19m/s | -48.4°C | 0.2% | 21.5hPa | 2.7V | 08:27:36 | 02:14:16 | 00:00:00 | |
| DL8OAI-8 | 2026-09-03 12:32:08 | 50.93818 | 8.46360 | 333° | 49km/h | 26486m | -19.0m/s | -48.4°C | 0.8% | 21.5hPa | 2.6V | 08:27:00 | 00:00:00 | 00:00:00 | |
| DL1XH1-15 | 2026-09-03 12:32:07 | 50.93792 | 8.46397 | 296° | 40km/h | 26543m | -18.9m/s | -48.1°C | 3.4% | 21.2hPa | 2.6V | 08:26:50 | 02:14:13 | 00:00:00 | |
| BIOWL1-15 | 2026-09-03 12:32:07 | 50.93798 | 8.46383 | 312° | 44km/h | 26524m | -19.8m/s | -48.2°C | 0.1% | 21.3hPa | 2.6V | 08:27:36 | 02:14:14 | 00:00:00 | |
| DL4BBY-15 | 2026-09-03 12:32:06 | 50.93792 | 8.46397 | 297° | 40km/h | 26543m | -18.8m/s | -50.3°C | 0% | 0hPa | 2.7V | 00:00:00 | 00:00:00 | 00:00:00 | |
| BIOWL9-15 | 2026-09-03 12:32:05 | 50.93787 | 8.46425 | 269° | 33km/h | 26581m | -19.2m/s | -47.9°C | 0.7% | 21.1hPa | 2.7V | 00:00:00 | 00:00:00 | 00:00:00 | |
| DB0NH | 2026-09-03 12:32:04 | 50.93787 | 8.46425 | 270° | 42km/h | 26582m | -19.1m/s | -47.8°C | 3.3% | 21.1hPa | 2.7V | 08:26:00 | 02:14:11 | 00:00:00 | |
| DF7PN | 2026-09-03 12:32:03 | 50.93792 | 8.46445 | 222° | 24km/h | 26620m | -19.6m/s | -47.7°C | 0.7% | 21.0hPa | 2.7V | 00:00:00 | 00:00:00 | 00:00:00 | |
| DL3AQ-11 | 2026-09-03 12:32:02 | 50.93797 | 8.46450 | 192° | 24km/h | 26640m | -19.9m/s | -47.7°C | 0.7% | 21.0hPa | 2.7V | 00:00:00 | 00:00:00 | 00:00:00 | |
| DM0DOS-11 | 2026-09-03 12:32:01 | 50.93818 | 8.46436 | 133° | 40km/h | 26696m | -18.6m/s | -47.4°C | 3.3% | 20.8hPa | 2.7V | 08:26:58 | 02:14:05 | 00:00:00 | |
| DD8BA-10 | 2026-09-03 12:32:00 | 50.93804 | 8.46449 | 170° | 47km/h | 26659m | -19.1m/s | -47.6°C | 3.3% | 20.9hPa | 2.6V | 00:00:00 | 00:00:00 | 00:00:00 | |
| DL1XH1-15 | 2026-09-03 12:31:59 | 50.93829 | 8.46404 | 105° | 53km/h | 26732m | -18.7m/s | -47.3°C | 3.3% | 20.7hPa | 2.6V | 08:27:00 | 02:14:03 | 00:00:00 | |
| AA1-15 | 2026-09-03 12:31:59 | 50.93811 | 8.46445 | 151° | 35km/h | 26678m | -18.7m/s | -47.6°C | 0% | 20.9hPa | 2.7V | 08:27:36 | 02:14:06 | 00:00:00 | |
| HSKMA3-T | 2026-09-03 12:31:58 | 50.93818 | 8.46436 | 134° | 40km/h | 26696m | -18.6m/s | -47.4°C | 0% | 20.8hPa | 2.7V | 08:27:36 | 02:14:05 | 00:00:00 | |
| BIOWL1-15 | 2026-09-03 12:31:57 | 50.93829 | 8.46404 | 106° | 53km/h | 26732m | -18.7m/s | -47.3°C | 0% | 20.7hPa | 2.6V | 08:27:36 | 02:14:03 | 00:00:00 | |
| AU51GT2 | 2026-09-03 12:31:56 | 50.93829 | 8.46404 | 105° | 51km/h | 26733m | -18.7m/s | -47.3°C | 0.7% | 20.7hPa | 2.6V | 00:00:00 | 00:00:00 | 00:00:00 | |
| SO1NDE-10 | 2026-09-03 12:31:55 | 50.93831 | 8.46383 | 94° | 47km/h | 26751m | -19.0m/s | -47.2°C | 3.2% | 20.5hPa | 2.6V | 00:00:00 | 02:14:02 | 00:00:00 | |
| GOEST3-10 | 2026-09-03 12:31:53 | 50.93828 | 8.46337 | 76° | 57km/h | 26789m | -18.4m/s | -47.1°C | 3.3% | 20.4hPa | 2.6V | 00:00:00 | 00:00:00 | 00:00:00 | |
| DL3OBA | 2026-09-03 12:31:52 | 50.93828 | 8.46337 | 76° | 60km/h | 26789m | -18.5m/s | -47.2°C | 0.7% | 20.5hPa | 2.6V | 08:27:00 | 00:00:00 | 00:00:00 | |
| DM0DOS-11 | 2026-09-03 12:31:51 | 50.93784 | 8.46254 | 20° | 46km/h | 26881m | -19.4m/s | -47.2°C | 3.3% | 20.2hPa | 2.6V | 08:27:08 | 02:13:55 | 00:00:00 | |
| AA1-15 | 2026-09-03 12:31:49 | 50.93795 | 8.46263 | 33° | 53km/h | 26862m | -19.2m/s | -47.2°C | 0% | 20.2hPa | 2.7V | 08:27:36 | 02:13:56 | 00:00:00 | |
| HSKMA3-T | 2026-09-03 12:31:48 | 50.93784 | 8.46254 | 21° | 46km/h | 26881m | -19.4m/s | -47.2°C | 0% | 20.2hPa | 2.6V | 08:27:36 | 02:13:55 | 00:00:00 | |
| DF8AY | 2026-09-03 12:31:48 | 50.93774 | 8.46250 | 6° | 42km/h | 26900m | -18.8m/s | -47.1°C | 0% | 20.1hPa | 2.6V | 08:29:18 | 02:13:54 | 00:00:00 | |
| DL1XH1-15 | 2026-09-03 12:31:48 | 50.93764 | 8.46250 | 351° | 37km/h | 26918m | -19.3m/s | -47°C | 3.2% | 20.1hPa | 2.7V | 08:27:10 | 02:13:53 | 00:00:00 | |
| DL1NUX | 2026-09-03 12:31:48 | 50.93750 | 8.46260 | 315° | 26km/h | 26958m | -20.6m/s | -46.9°C | 3.2% | 19.9hPa | 2.7V | 08:27:12 | 02:13:51 | 00:00:00 | |
| DK7TD | 2026-09-03 12:31:45 | 50.93755 | 8.46254 | 336° | 31km/h | 26938m | -20.6m/s | -47°C | 0% | 20hPa | 2.7V | 08:28:27 | 02:13:52 | 00:00:00 | |
| DD1CC3-15 | 2026-09-03 12:31:44 | 50.93755 | 8.46254 | 337° | 31km/h | 26938m | -20.6m/s | -47.0°C | 0.7% | 20.0hPa | 2.7V | 08:27:00 | 00:00:00 | 00:00:00 | |
| DL8OAI-8 | 2026-09-03 12:31:43 | 50.93746 | 8.46268 | 296° | 24km/h | 26978m | -20.0m/s | -46.9°C | 0.7% | 19.9hPa | 2.7V | 08:27:00 | 00:00:00 | 00:00:00 | |
| DM0DOS-11 | 2026-09-03 12:31:41 | 50.93773 | 8.46289 | 166° | 49km/h | 27074m | -18.7m/s | -46.7°C | 3.1% | 19.6hPa | 2.7V | 08:27:18 | 02:13:45 | 00:00:00 | |
| DL1XH1-15 | 2026-09-03 12:31:41 | 50.93797 | 8.46271 | 145° | 60km/h | 27112m | -19.6m/s | -46.6°C | 3.1% | 19.5hPa | 2.6V | 08:27:20 | 02:13:43 | 00:00:00 | |
| AA1-15 | 2026-09-03 12:31:40 | 50.93762 | 8.46291 | 183° | 37km/h | 27055m | -19.3m/s | -46.8°C | 0% | 19.7hPa | 2.7V | 08:27:36 | 02:13:46 | 00:00:00 | |
| DL1XH-west | 2026-09-03 12:31:38 | 50.93773 | 8.46289 | 167° | 49km/h | 27074m | -18.7m/s | -46.7°C | 0% | 19.6hPa | 2.7V | 08:27:36 | 02:13:45 | 00:00:00 | |
| DL4BBY-15 | 2026-09-03 12:31:36 | 50.93797 | 8.46271 | 146° | 47km/h | 27112m | -19.5m/s | -48.8°C | 0% | 0hPa | 2.7V | 00:00:00 | 00:00:00 | 00:00:00 | |
| DJ2KF-10 | 2026-09-03 12:31:35 | 50.93809 | 8.46254 | 135° | 47km/h | 27131m | -19.3m/s | -46.5°C | 3.1% | 19.4hPa | 2.7V | 00:00:00 | 02:13:42 | 00:00:00 | |
| DB0NH | 2026-09-03 12:31:34 | 50.93819 | 8.46234 | 125° | 47km/h | 27150m | -19.5m/s | -46.5°C | 3.1% | 19.3hPa | 2.7V | 00:00:00 | 02:13:41 | 00:00:00 | |
| DM0DOS-11 | 2026-09-03 12:31:33 | 50.93827 | 8.46103 | 51° | 42km/h | 27272m | -20.6m/s | -46.7°C | 3.3% | 19hPa | 2.7V | 08:27:28 | 02:13:35 | 00:00:00 | |
| DK7TD | 2026-09-03 12:31:30 | 50.93835 | 8.46138 | 83° | 53km/h | 27232m | -20.2m/s | -46.6°C | 0% | 19.1hPa | 2.6V | 08:28:27 | 02:13:37 | 00:00:00 | |
| BIOWL1-15 | 2026-09-03 12:31:28 | 50.93808 | 8.46191 | 227° | 47km/h | 27469m | -21.3m/s | -45.8°C | 0% | 18.5hPa | 2.7V | 08:28:27 | 02:13:25 | 00:00:00 | |
| DL1XH-west | 2026-09-03 12:31:28 | 50.93828 | 8.46103 | 52° | 42km/h | 27272m | -20.6m/s | -46.7°C | 0.1% | 19hPa | 2.7V | 08:27:36 | 02:13:35 | 00:00:00 | |
| DL1XH1-15 | 2026-09-03 12:31:27 | 50.93813 | 8.46090 | 3° | 27km/h | 27311m | -19.1m/s | -46.7°C | 3.2% | 18.9hPa | 2.7V | 08:27:30 | 02:13:33 | 00:00:00 | |
| HSKMA3-T | 2026-09-03 12:31:27 | 50.93820 | 8.46094 | 30° | 35km/h | 27292m | -19.3m/s | -46.8°C | 0% | 19hPa | 2.7V | 08:27:36 | 02:13:34 | 00:00:00 | |
| DD1CC3-15 | 2026-09-03 12:31:25 | 50.93800 | 8.46098 | 312° | 33km/h | 27350m | -19.1m/s | -46.7°C | 0.7% | 18.8hPa | 2.7V | 08:27:00 | 00:00:00 | 00:00:00 | |
| DL1XH-15 | 2026-09-03 12:31:24 | 50.93801 | 8.46176 | 235° | 49km/h | 27448m | -20.4m/s | -46.1°C | 3% | 18.5hPa | 2.7V | 08:27:37 | 02:13:26 | 00:00:00 | |
| BUE01 | 2026-09-03 12:31:24 | 50.93800 | 8.46098 | 310° | 31km/h | 27349m | -19.1m/s | -46.7°C | 0.7% | 18.8hPa | 2.7V | 00:00:00 | 00:00:00 | 00:00:00 | |
| DJTTGO | 2026-09-03 12:31:23 | 50.93795 | 8.46110 | 297° | 37km/h | 27369m | -20.4m/s | -46.7°C | 0.7% | 18.8hPa | 2.7V | 00:00:00 | 00:00:00 | 00:00:00 | |
| DM0DOS-11 | 2026-09-03 12:31:22 | 50.93808 | 8.46191 | 226° | 47km/h | 27469m | -21.3m/s | -45.8°C | 3% | 18.5hPa | 2.7V | 08:27:38 | 02:13:25 | 00:00:00 | |
| DK7TD | 2026-09-03 12:31:19 | 50.93801 | 8.46176 | 236° | 49km/h | 27448m | -20.4m/s | -46.1°C | 0% | 18.5hPa | 2.7V | 08:28:27 | 02:13:26 | 00:00:00 | |
| DL1XH1-15 | 2026-09-03 12:31:19 | 50.93828 | 8.46209 | 191° | 44km/h | 27510m | -20.4m/s | -45.4°C | 2.8% | 18.4hPa | 2.6V | 08:27:40 | 02:13:23 | 00:00:00 | |
| DL1XH-west | 2026-09-03 12:31:17 | 50.93817 | 8.46202 | 210° | 49km/h | 27490m | -21.1m/s | -45.6°C | 0% | 18.4hPa | 2.6V | 08:28:27 | 02:13:24 | 00:00:00 | |
| HSKMA3-T | 2026-09-03 12:31:16 | 50.93828 | 8.46209 | 192° | 44km/h | 27510m | -20.4m/s | -45.4°C | 0% | 18.4hPa | 2.6V | 08:28:27 | 02:13:23 | 00:00:00 | |
| DO3DL | 2026-09-03 12:31:16 | 50.93828 | 8.46209 | 193° | 44km/h | 27511m | -20.4m/s | -45.4°C | 0.6% | 18.4hPa | 2.6V | 08:28:00 | 00:00:00 | 00:00:00 | |
| EDDB2-11 | 2026-09-03 12:31:15 | 50.93847 | 8.46206 | 155° | 37km/h | 27551m | -20.0m/s | -45.4°C | 0.6% | 18.2hPa | 2.6V | 00:00:00 | 00:00:00 | 00:00:00 | |
| WPPR-10 | 2026-09-03 12:31:13 | 50.93855 | 8.46197 | 128° | 37km/h | 27571m | -19.4m/s | -45.4°C | 0.6% | 18.2hPa | 2.6V | 00:00:00 | 00:00:00 | 00:00:00 | |
| GOEST3-10 | 2026-09-03 12:31:12 | 50.93858 | 8.46184 | 103° | 47km/h | 27590m | -19.3m/s | -45.5°C | 2.9% | 18.1hPa | 2.6V | 00:00:00 | 00:00:00 | 00:00:00 | |
| DM0DOS-11 | 2026-09-03 12:31:11 | 50.93840 | 8.46119 | 39° | 57km/h | 27668m | -20.6m/s | -45.8°C | 3% | 17.9hPa | 2.7V | 08:27:48 | 02:13:15 | 00:00:00 | |
| SONCRA | 2026-09-03 12:31:10 | 50.93850 | 8.46134 | 51° | 49km/h | 27649m | -19.8m/s | -45.7°C | 0.6% | 17.9hPa | 2.6V | 00:00:00 | 00:00:00 | 00:00:00 | |
| DK7TD | 2026-09-03 12:31:10 | 50.93850 | 8.46134 | 51° | 49km/h | 27649m | -19.8m/s | -45.7°C | 0% | 17.9hPa | 2.7V | 08:28:27 | 02:13:16 | 00:00:00 | |
| DO3DL | 2026-09-03 12:31:08 | 50.93850 | 8.46134 | 52° | 49km/h | 27649m | -19.8m/s | -45.7°C | 0.6% | 18.0hPa | 2.6V | 08:28:00 | 00:00:00 | 00:00:00 | |
| DL1XH1-15 | 2026-09-03 12:31:07 | 50.93815 | 8.46100 | 12° | 58km/h | 27708m | -21.3m/s | -45.9°C | 3% | 17.8hPa | 2.6V | 08:27:50 | 02:13:13 | 00:00:00 | |
| DL1NUX | 2026-09-03 12:31:07 | 50.93773 | 8.46107 | 332° | 55km/h | 27771m | -20.6m/s | -46°C | 3% | 17.6hPa | 2.7V | 08:27:53 | 02:13:10 | 00:00:00 | |
| DL1XH-west | 2026-09-03 12:31:07 | 50.93829 | 8.46107 | 25° | 57km/h | 27689m | -20m/s | -45.8°C | 0% | 17.9hPa | 2.7V | 08:28:27 | 02:13:14 | 00:00:00 | |
| HSKMA3-T | 2026-09-03 12:31:06 | 50.93815 | 8.46100 | 12° | 58km/h | 27708m | -21.3m/s | -45.9°C | 0% | 17.8hPa | 2.6V | 08:28:27 | 02:13:13 | 00:00:00 | |
| DL3AQ-11 | 2026-09-03 12:31:06 | 50.93800 | 8.46097 | 0° | 58km/h | 27730m | -21.1m/s | -45.9°C | 0.6% | 17.7hPa | 2.6V | 00:00:00 | 00:00:00 | 00:00:00 | |
| DJ2KF-10 | 2026-09-03 12:31:05 | 50.93800 | 8.46097 | 1° | 47km/h | 27730m | -21.0m/s | -45.8°C | 3.0% | 17.7hPa | 2.6V | 00:00:00 | 02:13:12 | 00:00:00 | |
| DB0NH | 2026-09-03 12:31:04 | 50.93786 | 8.46099 | 346° | 46km/h | 27751m | -20.5m/s | -45.9°C | 3.0% | 17.6hPa | 2.6V | 00:00:00 | 02:13:11 | 00:00:00 | |
| DB0UT-7 | 2026-09-03 12:31:03 | 50.93773 | 8.46107 | 333° | 46km/h | 27771m | -20.6m/s | -46.0°C | 3.0% | 17.6hPa | 2.6V | 00:00:00 | 00:00:00 | 00:00:00 | |
| GOEST3-10 | 2026-09-03 12:31:02 | 50.93761 | 8.46119 | 319° | 51km/h | 27792m | -21.2m/s | -46.1°C | 3.1% | 17.5hPa | 2.6V | 00:00:00 | 00:00:00 | 00:00:00 | |
| DM0DOS-11 | 2026-09-03 12:31:01 | 50.93743 | 8.46193 | 256° | 46km/h | 27874m | -20.8m/s | -46.2°C | 3% | 17.4hPa | 2.6V | 08:27:58 | 02:13:05 | 00:00:00 | |
| DK7TD | 2026-09-03 12:30:59 | 50.93743 | 8.46193 | 257° | 46km/h | 27874m | -20.8m/s | -46.3°C | 0% | 17.4hPa | 2.6V | 08:28:27 | 02:13:05 | 00:00:00 | |
| DL1XH-west | 2026-09-03 12:30:56 | 50.93753 | 8.46223 | 220° | 42km/h | 27915m | -20.1m/s | -46.3°C | 0% | 17.2hPa | 2.7V | 08:28:27 | 02:13:03 | 00:00:00 | |
| BIOWL1-15 | 2026-09-03 12:30:55 | 50.93762 | 8.46232 | 205° | 38km/h | 27935m | -20.3m/s | -46.2°C | 0% | 17.2hPa | 2.7V | 08:28:27 | 02:13:02 | 00:00:00 | |
| BUE01 | 2026-09-03 12:30:54 | 50.93781 | 8.46234 | 160° | 40km/h | 27975m | -19.2m/s | -46.1°C | 0.6% | 17.1hPa | 2.6V | 00:00:00 | 00:00:00 | 00:00:00 | |
| DL1NUX | 2026-09-03 12:30:53 | 50.93781 | 8.46234 | 160° | 42km/h | 27974m | -19.2m/s | -46.1°C | 3% | 17.1hPa | 2.6V | 08:28:03 | 02:13:00 | 00:00:00 | |
| DL3AQ-11 | 2026-09-03 12:30:53 | 50.93790 | 8.46226 | 142° | 38km/h | 27994m | -19.7m/s | -46.0°C | 0.6% | 17.1hPa | 2.7V | 00:00:00 | 00:00:00 | 00:00:00 | |
| GOEST3-10 | 2026-09-03 12:30:52 | 50.93790 | 8.46226 | 143° | 44km/h | 27994m | -19.6m/s | -46.0°C | 3.1% | 17.0hPa | 2.7V | 00:00:00 | 00:00:00 | 00:00:00 | |
| DM0DOS-11 | 2026-09-03 12:30:50 | 50.93805 | 8.46164 | 79° | 46km/h | 28075m | -20.5m/s | -45.7°C | 3% | 16.9hPa | 2.7V | 08:28:08 | 02:12:55 | 00:00:00 | |
| DJ2DS-15 | 2026-09-03 12:30:50 | 50.93803 | 8.46199 | 110° | 44km/h | 28034m | -20.2m/s | -45.8°C | 3.1% | 16.9hPa | 2.6V | 00:00:00 | 02:12:57 | 00:00:00 | |
| DL1XH1-15 | 2026-09-03 12:30:48 | 50.93795 | 8.46133 | 47° | 46km/h | 28117m | -20.7m/s | -45.7°C | 3% | 16.7hPa | 2.6V | 08:28:10 | 02:12:53 | 00:00:00 | |
| DL1XH-west | 2026-09-03 12:30:46 | 50.93795 | 8.46133 | 48° | 46km/h | 28117m | -20.7m/s | -45.7°C | 0% | 16.7hPa | 2.6V | 08:28:27 | 02:12:53 | 00:00:00 | |
| HSKMA3-T | 2026-09-03 12:30:45 | 50.93786 | 8.46123 | 27° | 40km/h | 28138m | -20.1m/s | -45.7°C | 0% | 16.7hPa | 2.6V | 08:28:27 | 02:12:52 | 00:00:00 | |
| BIOWL1-15 | 2026-09-03 12:30:44 | 50.93776 | 8.46117 | 11° | 42km/h | 28158m | -20.9m/s | -45.7°C | 0% | 16.6hPa | 2.7V | 08:28:27 | 02:12:51 | 00:00:00 | |
| DM0DOS-11 | 2026-09-03 12:30:43 | 50.93736 | 8.46185 | 268° | 51km/h | 28278m | -20.4m/s | -45.6°C | 2.8% | 16.3hPa | 2.7V | 08:28:18 | 02:12:45 | 00:00:00 | |
| DK7TD | 2026-09-03 12:30:41 | 50.93748 | 8.46132 | 313° | 44km/h | 28218m | -20.3m/s | -45.6°C | 0% | 16.5hPa | 2.6V | 08:28:27 | 02:12:48 | 00:00:00 | |
| DF8AY | 2026-09-03 12:30:40 | 50.93741 | 8.46147 | 297° | 49km/h | 28239m | -19m/s | -45.6°C | 0% | 16.4hPa | 2.6V | 08:29:18 | 02:12:47 | 00:00:00 | |
| DD8BA-10 | 2026-09-03 12:30:40 | 50.93741 | 8.46147 | 297° | 44km/h | 28239m | -18.9m/s | -45.5°C | 2.9% | 16.4hPa | 2.6V | 00:00:00 | 00:00:00 | 00:00:00 | |
| DL1XH1-15 | 2026-09-03 12:30:39 | 50.93742 | 8.46222 | 243° | 49km/h | 28320m | -21.4m/s | -45.7°C | 2.9% | 16.2hPa | 2.7V | 08:28:20 | 02:12:43 | 00:00:00 | |
| HSKMA3-T | 2026-09-03 12:30:35 | 50.93749 | 8.46238 | 226° | 47km/h | 28342m | -20.7m/s | -45.7°C | 0% | 16.2hPa | 2.6V | 08:28:27 | 02:12:42 | 00:00:00 | |
| DL1NUX | 2026-09-03 12:30:34 | 50.93767 | 8.46254 | 189° | 35km/h | 28382m | -20.5m/s | -45.6°C | 2.9% | 16.1hPa | 2.6V | 08:28:23 | 02:12:40 | 00:00:00 | |
| BIOWL1-15 | 2026-09-03 12:30:33 | 50.93793 | 8.46223 | 99° | 38km/h | 28462m | -19.2m/s | -45.9°C | 0% | 15.9hPa | 2.6V | 08:28:27 | 02:12:36 | 00:00:00 | |
| DK7TD | 2026-09-03 12:30:28 | 50.93793 | 8.46207 | 85° | 42km/h | 28482m | -19.7m/s | -45.9°C | 0% | 15.9hPa | 2.6V | 18:12:15 | 02:12:35 | 00:00:00 | |
| DL1XH1-15 | 2026-09-03 12:30:27 | 50.93785 | 8.46171 | 57° | 53km/h | 28522m | -19.2m/s | -46°C | 3% | 15.8hPa | 2.7V | 08:28:30 | 02:12:33 | 00:00:00 | |
| AA1-15 | 2026-09-03 12:30:25 | 50.93776 | 8.46155 | 44° | 53km/h | 28542m | -19.5m/s | -46.1°C | 0% | 15.7hPa | 2.7V | 08:29:18 | 02:12:32 | 00:00:00 | |
| DL1XH-west | 2026-09-03 12:30:24 | 50.93766 | 8.46142 | 33° | 55km/h | 28561m | -20.2m/s | -46.2°C | 0% | 15.7hPa | 2.7V | 08:29:18 | 02:12:31 | 00:00:00 | |
| DL1NUX | 2026-09-03 12:30:23 | 50.93753 | 8.46131 | 25° | 60km/h | 28581m | -19.8m/s | -46.3°C | 3% | 15.6hPa | 2.6V | 08:28:33 | 02:12:30 | 00:00:00 | |
| GOEST3-10 | 2026-09-03 12:30:22 | 50.93740 | 8.46122 | 16° | 53km/h | 28601m | -20.6m/s | -46.3°C | 3.1% | 15.5hPa | 2.6V | 00:00:00 | 00:00:00 | 00:00:00 | |
| DL1XH-15 | 2026-09-03 12:30:21 | 50.93698 | 8.46120 | 350° | 49km/h | 28664m | -21m/s | -46.4°C | 3.1% | 15.4hPa | 2.6V | 08:28:37 | 02:12:26 | 00:00:00 | |
| DL1XH1-15 | 2026-09-03 12:30:20 | 50.93666 | 8.46136 | 326° | 38km/h | 28727m | -19.6m/s | -46.4°C | 3.1% | 15.3hPa | 2.7V | 08:28:40 | 02:12:23 | 00:00:00 | |
| DK7TD | 2026-09-03 12:30:18 | 50.93667 | 8.46136 | 327° | 38km/h | 28727m | -19.6m/s | -46.4°C | 0% | 15.3hPa | 2.7V | 18:12:15 | 02:12:23 | 00:00:00 | |
| BIOWL1-15 | 2026-09-03 12:30:15 | 50.93667 | 8.46199 | 185° | 20km/h | 28924m | -20.3m/s | -46.5°C | 0% | 14.9hPa | 2.6V | 08:29:18 | 02:12:13 | 00:00:00 | |
| DL1XH-15 | 2026-09-03 12:30:15 | 50.93653 | 8.46191 | 223° | 18km/h | 28865m | -19.3m/s | -46.6°C | 3.2% | 15hPa | 2.7V | 08:28:47 | 02:12:16 | 00:00:00 | |
| AA1-15 | 2026-09-03 12:30:15 | 50.93655 | 8.46154 | 299° | 26km/h | 28766m | -19.8m/s | -46.5°C | 0% | 15.2hPa | 2.6V | 08:29:18 | 02:12:21 | 00:00:00 | |
| DL1XH-west | 2026-09-03 12:30:13 | 50.93652 | 8.46163 | 288° | 22km/h | 28785m | -20m/s | -46.5°C | 0% | 15.2hPa | 2.6V | 08:29:18 | 02:12:20 | 00:00:00 | |
| GOEST3-10 | 2026-09-03 12:30:12 | 50.93651 | 8.46171 | 280° | 18km/h | 28806m | -20.4m/s | -46.5°C | 3.2% | 15.1hPa | 2.6V | 00:00:00 | 00:00:00 | 00:00:00 | |
| DO3MHA-11 | 2026-09-03 12:30:11 | 50.93650 | 8.46178 | 271° | 24km/h | 28826m | -20.4m/s | -46.5°C | 3.2% | 15.0hPa | 2.7V | 00:00:00 | 02:12:18 | 00:00:00 | |
| DD8BA-10 | 2026-09-03 12:30:10 | 50.93651 | 8.46185 | 253° | 26km/h | 28847m | -19.5m/s | -46.6°C | 3.2% | 15.0hPa | 2.7V | 08:28:00 | 00:00:00 | 00:00:00 | |
| DL3OBA | 2026-09-03 12:30:09 | 50.93651 | 8.46185 | 253° | 16km/h | 28847m | -19.5m/s | -46.6°C | 0.7% | 15.0hPa | 2.6V | 08:29:00 | 00:00:00 | 00:00:00 | |
| DL1XH1-15 | 2026-09-03 12:30:07 | 50.93667 | 8.46199 | 184° | 20km/h | 28924m | -20.3m/s | -46.5°C | 3.2% | 14.8hPa | 2.6V | 08:28:50 | 02:12:13 | 00:00:00 | |
| DK7TD | 2026-09-03 12:30:07 | 50.93662 | 8.46198 | 191° | 20km/h | 28904m | -20.1m/s | -46.5°C | 0% | 14.9hPa | 2.6V | 18:12:15 | 02:12:14 | 00:00:00 | |
| GOEST3-10 | 2026-09-03 12:30:07 | 50.93662 | 8.46197 | 191° | 26km/h | 28904m | -20.1m/s | -46.5°C | 3.2% | 14.9hPa | 2.7V | 00:00:00 | 02:12:14 | 00:00:00 | |
| DL4BBY-15 | 2026-09-03 12:30:06 | 50.93667 | 8.46199 | 185° | 38km/h | 28924m | -20.3m/s | -48.7°C | 0% | 0hPa | 2.7V | 00:00:00 | 00:00:00 | 00:00:00 | |
| DL8DAS-15 | 2026-09-03 12:30:05 | 50.93667 | 8.46199 | 186° | 20km/h | 28924m | -20.3m/s | -46.5°C | 0.7% | 14.9hPa | 2.7V | 00:00:00 | 00:00:00 | 00:00:00 | |
| DL1NUX | 2026-09-03 12:30:04 | 50.93687 | 8.46195 | 162° | 29km/h | 28983m | -20m/s | -46.3°C | 3.2% | 14.7hPa | 2.7V | 08:28:53 | 02:12:10 | 00:00:00 | |
| HSKMA3-T | 2026-09-03 12:30:03 | 50.93687 | 8.46195 | 163° | 29km/h | 28983m | -20m/s | -46.3°C | 0% | 14.7hPa | 2.7V | 08:29:18 | 02:12:10 | 00:00:00 | |
| DL1XH-west | 2026-09-03 12:30:02 | 50.93694 | 8.46191 | 153° | 31km/h | 29003m | -19.3m/s | -46.3°C | 0% | 14.7hPa | 2.6V | 08:29:18 | 02:12:09 | 00:00:00 | |
| BIOWL1-15 | 2026-09-03 12:30:00 | 50.93718 | 8.46158 | 126° | 35km/h | 29079m | -19.3m/s | -46.1°C | 0% | 14.5hPa | 2.7V | 08:29:18 | 02:12:05 | 00:00:00 | |
| DK7TD | 2026-09-03 12:29:56 | 50.93727 | 8.46133 | 112° | 37km/h | 29117m | -18.8m/s | -45.8°C | 0% | 14.4hPa | 2.6V | 18:12:15 | 02:12:03 | 00:00:00 | |
| AA1-15 | 2026-09-03 12:29:53 | 50.93737 | 8.46090 | 109° | 42km/h | 29175m | -19.7m/s | -45.6°C | 0% | 14.3hPa | 2.7V | 08:29:18 | 02:12:00 | 00:00:00 | |
| DL1XH-west | 2026-09-03 12:29:52 | 50.93740 | 8.46074 | 106° | 44km/h | 29194m | -19.1m/s | -45.6°C | 0% | 14.2hPa | 2.6V | 08:29:18 | 02:11:59 | 00:00:00 | |
| GOEST3-10 | 2026-09-03 12:29:52 | 50.93740 | 8.46074 | 106° | 44km/h | 29194m | -19.0m/s | -45.5°C | 3.1% | 14.2hPa | 2.6V | 00:00:00 | 00:00:00 | 00:00:00 | |
| DO3MHA-11 | 2026-09-03 12:29:51 | 50.93743 | 8.46057 | 106° | 22km/h | 29213m | -19.4m/s | -45.6°C | 3.1% | 14.1hPa | 2.6V | 00:00:00 | 02:11:58 | 08:30:00 | |
| DD8BA-10 | 2026-09-03 12:29:50 | 50.93745 | 8.46041 | 104° | 46km/h | 29233m | -20.0m/s | -45.6°C | 3.1% | 14.1hPa | 2.7V | 00:00:00 | 00:00:00 | 00:00:00 | |
| DO9LL-15 | 2026-09-03 12:29:49 | 50.93748 | 8.46025 | 107° | 35km/h | 29253m | -19.2m/s | -45.5°C | 3.1% | 14.1hPa | 2.7V | 00:00:00 | 02:11:56 | 00:00:00 | |
| DO3DL | 2026-09-03 12:29:48 | 50.93748 | 8.46025 | 107° | 42km/h | 29253m | -19.2m/s | -45.6°C | 0.7% | 14.1hPa | 2.6V | 08:29:00 | 00:00:00 | 00:00:00 | |
| DL1NUX | 2026-09-03 12:29:47 | 50.93777 | 8.45930 | 131° | 46km/h | 29371m | -19.5m/s | -45°C | 3% | 13.9hPa | 2.6V | 08:29:13 | 02:11:50 | 00:00:00 | |
| BIOWL1-15 | 2026-09-03 12:29:47 | 50.93755 | 8.45992 | 112° | 46km/h | 29290m | -19.7m/s | -45.4°C | 0% | 14hPa | 2.6V | 08:29:18 | 02:11:54 | 00:00:00 | |
| DK7TD | 2026-09-03 12:29:46 | 50.93760 | 8.45975 | 114° | 46km/h | 29310m | -20.5m/s | -45.3°C | 0% | 14hPa | 2.7V | 18:12:15 | 02:11:53 | 00:00:00 | |
| HTAHTA | 2026-09-03 12:29:46 | 50.93765 | 8.45959 | 117° | 44km/h | 29331m | -20.8m/s | -45.2°C | 0.6% | 14.0hPa | 2.6V | 00:00:00 | 00:00:00 | 00:00:00 | |
| DL8DAS-14 | 2026-09-03 12:29:45 | 50.93765 | 8.45959 | 117° | 44km/h | 29331m | -20.8m/s | -45.2°C | 0.6% | 14.0hPa | 2.6V | 00:00:00 | 00:00:00 | 00:00:00 | |
| AA1-15 | 2026-09-03 12:29:43 | 50.93777 | 8.45930 | 131° | 46km/h | 29371m | -19.5m/s | -45°C | 0% | 13.9hPa | 2.6V | 08:29:18 | 02:11:50 | 00:00:00 | |
| HSKMA3-T | 2026-09-03 12:29:42 | 50.93785 | 8.45916 | 134° | 49km/h | 29391m | -20.8m/s | -44.9°C | 0% | 13.8hPa | 2.6V | 08:29:18 | 02:11:49 | 00:00:00 | |
| DL1XH-west | 2026-09-03 12:29:41 | 50.93794 | 8.45903 | 137° | 46km/h | 29411m | -20.1m/s | -45°C | 0% | 13.8hPa | 2.6V | 08:29:18 | 02:11:48 | 00:00:00 | |
| DL1XH-15 | 2026-09-03 12:29:40 | 50.93829 | 8.45866 | 154° | 38km/h | 29492m | -20.6m/s | -45°C | 3.1% | 13.6hPa | 2.6V | 08:30:00 | 02:11:44 | 00:00:00 | |
| DF8AY | 2026-09-03 12:29:38 | 50.93820 | 8.45874 | 152° | 42km/h | 29471m | -20.6m/s | -45°C | 0% | 13.6hPa | 2.7V | 08:29:18 | 02:11:45 | 00:00:00 | |
| DL1NUX | 2026-09-03 12:29:37 | 50.93861 | 8.45851 | 169° | 27km/h | 29570m | -20.2m/s | -44.6°C | 3% | 13.4hPa | 2.7V | 08:30:00 | 02:11:40 | 00:00:00 | |
| BIOWL1-15 | 2026-09-03 12:29:36 | 50.93861 | 8.45851 | 170° | 27km/h | 29570m | -20.2m/s | -44.6°C | 0% | 13.4hPa | 2.7V | 18:12:15 | 02:11:40 | 00:00:00 | |
| DK7TD | 2026-09-03 12:29:34 | 50.93854 | 8.45853 | 168° | 31km/h | 29551m | -19m/s | -44.7°C | 0% | 13.5hPa | 2.7V | 18:12:15 | 02:11:41 | 00:00:00 | |
| AA1-15 | 2026-09-03 12:29:33 | 50.93868 | 8.45850 | 182° | 26km/h | 29590m | -20.2m/s | -44.6°C | 0% | 13.4hPa | 2.7V | 18:12:15 | 02:11:39 | 00:00:00 | |
| BIOWL1-15 | 2026-09-03 12:29:33 | 50.93901 | 8.45933 | 351° | 33km/h | 29897m | -18.5m/s | -42.3°C | 0% | 12.8hPa | 2.6V | 18:12:15 | 02:11:24 | 00:00:00 | |
| DL1XH-west | 2026-09-03 12:29:31 | 50.93875 | 8.45851 | 195° | 27km/h | 29610m | -19.9m/s | -44.5°C | 0% | 13.4hPa | 2.6V | 18:12:15 | 02:11:38 | 00:00:00 | |
| BIOWL9-15 | 2026-09-03 12:29:29 | 50.93888 | 8.45859 | 207° | 29km/h | 29649m | -20.0m/s | -44.3°C | 0.6% | 13.3hPa | 2.7V | 00:00:00 | 00:00:00 | 00:00:00 | |
| DB0NH | 2026-09-03 12:29:28 | 50.93895 | 8.45866 | 218° | 26km/h | 29670m | -20.1m/s | -44.1°C | 2.9% | 13.2hPa | 2.7V | 00:00:00 | 02:11:35 | 00:00:00 | |
| DL1NUX | 2026-09-03 12:29:27 | 50.93920 | 8.45911 | 248° | 22km/h | 29775m | -21m/s | -43.4°C | 2.9% | 13hPa | 2.7V | 08:30:00 | 02:11:30 | 00:00:00 | |
| DK7TD | 2026-09-03 12:29:24 | 50.93917 | 8.45902 | 241° | 26km/h | 29754m | -21.3m/s | -43.6°C | 0% | 13.1hPa | 2.6V | 18:12:15 | 02:11:31 | 00:00:00 | |
| DL1XH-west | 2026-09-03 12:29:21 | 50.93921 | 8.45924 | 297° | 13km/h | 29816m | -20.2m/s | -43.1°C | 0% | 12.9hPa | 2.6V | 18:12:15 | 02:11:28 | 00:00:00 | |
| DD8BA-10 | 2026-09-03 12:29:20 | 50.93919 | 8.45928 | 334° | 31km/h | 29836m | -20.1m/s | -42.8°C | 2.7% | 12.9hPa | 2.6V | 00:00:00 | 00:00:00 | 00:00:00 | |
| DL1XH1-15 | 2026-09-03 12:29:19 | 50.93893 | 8.45936 | 349° | 35km/h | 29915m | -18.6m/s | -42.1°C | 2.6% | 12.8hPa | 2.6V | 08:30:00 | 02:11:23 | 00:00:00 | |
| BIOWL1-15 | 2026-09-03 12:29:18 | 50.93884 | 8.45938 | 350° | 35km/h | 29934m | -19.1m/s | -42.1°C | 0% | 12.7hPa | 2.7V | 18:12:15 | 02:11:22 | 00:00:00 | |
| GOEST3-10 | 2026-09-03 12:29:18 | 50.93901 | 8.45933 | 351° | 35km/h | 29897m | -18.5m/s | -42.2°C | 2.6% | 12.8hPa | 2.7V | 00:00:00 | 02:11:24 | 00:00:00 | |
| DO3DL | 2026-09-03 12:29:17 | 50.93901 | 8.45934 | 351° | 33km/h | 29897m | -18.5m/s | -42.3°C | 0.5% | 12.8hPa | 2.7V | 00:00:00 | 00:00:00 | 00:00:00 | |
| DL1NUX | 2026-09-03 12:29:15 | 50.93866 | 8.45945 | 340° | 37km/h | 29974m | -19.5m/s | -41.9°C | 2.6% | 12.6hPa | 2.7V | 08:30:00 | 02:11:20 | 00:00:00 | |
| DK7TD | 2026-09-03 12:29:12 | 50.93859 | 8.45950 | 331° | 31km/h | 29993m | -19.6m/s | -41.8°C | 0% | 12.6hPa | 2.6V | 18:12:15 | 02:11:19 | 00:00:00 | |
| AA1-15 | 2026-09-03 12:29:11 | 50.93852 | 8.45957 | 326° | 27km/h | 30013m | -20.8m/s | -41.8°C | 0% | 12.6hPa | 2.6V | 18:12:15 | 02:11:18 | 00:00:00 | |
| HSKMA3-T | 2026-09-03 12:29:10 | 50.93847 | 8.45964 | 318° | 29km/h | 30034m | -20.6m/s | -41.7°C | 0% | 12.5hPa | 2.6V | 18:12:15 | 02:11:17 | 00:00:00 | |
| DJ2DS-15 | 2026-09-03 12:29:10 | 50.93847 | 8.45964 | 318° | 20km/h | 30034m | -20.5m/s | -41.7°C | 2.5% | 12.5hPa | 2.6V | 00:00:00 | 02:11:17 | 00:00:00 | |
| WPPR-10 | 2026-09-03 12:29:09 | 50.93842 | 8.45972 | 304° | 27km/h | 30054m | -20.5m/s | -41.7°C | 0.5% | 12.5hPa | 2.6V | 00:00:00 | 00:00:00 | 00:00:00 | |
| DL8OAI-8 | 2026-09-03 12:29:08 | 50.93842 | 8.45972 | 306° | 27km/h | 30054m | -20.5m/s | -41.7°C | 0.5% | 12.5hPa | 2.6V | 00:00:00 | 00:00:00 | 00:00:00 | |
| DL1XH1-15 | 2026-09-03 12:29:07 | 50.93836 | 8.46000 | 279° | 26km/h | 30119m | -22.8m/s | -41.8°C | 2.4% | 12.4hPa | 2.6V | 08:30:00 | 02:11:13 | 00:00:00 | |
| DF8AY | 2026-09-03 12:29:02 | 50.93839 | 8.46041 | 249° | 24km/h | 30211m | -22.4m/s | -41.7°C | 0% | 12.2hPa | 2.7V | 18:12:15 | 02:11:09 | 00:00:00 | |
| DK7TD | 2026-09-03 12:29:00 | 50.93842 | 8.46054 | 259° | 11km/h | 30255m | -21.7m/s | -41.7°C | 0% | 12.1hPa | 2.6V | 18:12:15 | 02:11:07 | 00:00:00 | |
| DD8BA-10 | 2026-09-03 12:29:00 | 50.93842 | 8.46054 | 260° | 15km/h | 30255m | -21.6m/s | -41.7°C | 2.5% | 12.1hPa | 2.7V | 00:00:00 | 00:00:00 | 00:00:00 | |
| DL1XH1-15 | 2026-09-03 12:28:59 | 50.93832 | 8.46057 | 4° | 18km/h | 30352m | -27.8m/s | -41.8°C | 2.5% | 12hPa | 2.7V | 08:30:00 | 02:11:03 | 00:00:00 | |
| DL1XH-west | 2026-09-03 12:28:59 | 50.93842 | 8.46057 | 324° | 7km/h | 30277m | -23.1m/s | -41.7°C | 0% | 12.1hPa | 2.6V | 18:12:15 | 02:11:06 | 00:00:00 | |
| BIOWL1-15 | 2026-09-03 12:28:53 | 50.93817 | 8.46054 | 10° | 18km/h | 30439m | -29.3m/s | -42°C | 0% | 11.8hPa | 2.6V | 18:12:15 | 02:11:00 | 00:00:00 | |
| DK7TD | 2026-09-03 12:28:50 | 50.93807 | 8.46046 | 58° | 13km/h | 30529m | -30.5m/s | -42°C | 0% | 11.7hPa | 2.7V | 18:12:15 | 02:10:57 | 00:00:00 | |
| HSKMA3-T | 2026-09-03 12:28:49 | 50.93806 | 8.46041 | 71° | 13km/h | 30559m | -29.1m/s | -41.9°C | 0% | 11.6hPa | 2.7V | 18:12:15 | 02:10:56 | 00:00:00 | |
| DL1XH-west | 2026-09-03 12:28:48 | 50.93804 | 8.46036 | 68° | 13km/h | 30588m | -28.3m/s | -41.9°C | 0% | 11.6hPa | 2.6V | 18:12:15 | 02:10:55 | 00:00:00 | |
| DL1XH1-15 | 2026-09-03 12:28:47 | 50.93798 | 8.46025 | 39° | 22km/h | 30655m | -35.9m/s | -41.9°C | 2.4% | 11.4hPa | 2.7V | 08:30:00 | 02:10:53 | 00:00:00 | |
| GOEST3-10 | 2026-09-03 12:28:47 | 50.93802 | 8.46030 | 47° | 26km/h | 30620m | -35.0m/s | -41.8°C | 2.4% | 11.5hPa | 2.7V | 00:00:00 | 02:10:54 | 00:00:00 | |
| DL1XH-15 | 2026-09-03 12:28:46 | 50.93771 | 8.46007 | 15° | 37km/h | 30776m | -23.3m/s | -42.3°C | 2.6% | 11.2hPa | 2.7V | 08:30:00 | 02:10:49 | 00:00:00 | |
| BIOWL1-15 | 2026-09-03 12:28:42 | 50.93771 | 8.46007 | 16° | 37km/h | 30776m | -23.3m/s | -42.3°C | 0% | 11.2hPa | 2.7V | 18:12:15 | 02:10:49 | 00:00:00 | |
| AA1-15 | 2026-09-03 12:28:40 | 50.93752 | 8.45999 | 15° | 42km/h | 30818m | -19.2m/s | -42.2°C | 0% | 11.1hPa | 2.6V | 18:12:15 | 02:10:47 | 00:00:00 | |
| DK7TD | 2026-09-03 12:28:39 | 50.93743 | 8.45994 | 21° | 37km/h | 30837m | -18.7m/s | -42.2°C | 0% | 11.1hPa | 2.6V | 18:12:15 | 02:10:46 | 00:00:00 | |
| HSKMA3-T | 2026-09-03 12:28:38 | 50.93735 | 8.45988 | 29° | 33km/h | 30854m | -16.2m/s | -42.1°C | 0% | 11.1hPa | 2.7V | 18:12:15 | 02:10:45 | 00:00:00 | |
| DL1XH-west | 2026-09-03 12:28:37 | 50.93729 | 8.45981 | 43° | 24km/h | 30868m | -13.3m/s | -42.1°C | 0% | 11hPa | 2.7V | 18:12:15 | 02:10:44 | 00:00:00 | |
| DL1NUX | 2026-09-03 12:28:37 | 50.93746 | 8.45953 | 163° | 40km/h | 30936m | -26.4m/s | -41.7°C | 2.7% | 10.9hPa | 2.6V | 08:30:00 | 02:10:40 | 00:00:00 | |
| BIOWL1-15 | 2026-09-03 12:28:36 | 50.93757 | 8.45951 | 178° | 44km/h | 30963m | -29.3m/s | -41.6°C | 0% | 10.9hPa | 2.7V | 18:12:15 | 02:10:39 | 00:00:00 | |
| AA1-15 | 2026-09-03 12:28:30 | 50.93761 | 8.45950 | 351° | 5km/h | 31041m | -38.5m/s | -41.5°C | 0% | 10.8hPa | 2.7V | 18:12:15 | 02:10:37 | 00:00:00 | |
| HSKMA3-T | 2026-09-03 12:28:28 | 50.93758 | 8.45952 | 341° | 7km/h | 31103m | -22.7m/s | -41.4°C | 0% | 10.7hPa | 2.6V | 18:12:15 | 02:10:35 | 00:00:00 | |
| DL1XH1-15 | 2026-09-03 12:28:27 | 50.93755 | 8.45953 | 341° | 7km/h | 31130m | -4.2m/s | -41.2°C | 2.7% | 10.6hPa | 2.7V | 08:30:00 | 02:10:33 | 00:00:00 | |
| DL1XH-west | 2026-09-03 12:28:26 | 50.93755 | 8.45953 | 342° | 7km/h | 31130m | -4.2m/s | -41.2°C | 0% | 10.6hPa | 2.7V | 18:12:15 | 02:10:33 | 00:00:00 | |
| DL3OBA | 2026-09-03 12:28:25 | 50.93755 | 8.45953 | 343° | 7km/h | 31130m | -4.2m/s | -41.2°C | 0.5% | 10.6hPa | 2.6V | 00:00:00 | 00:00:00 | 00:00:00 | |
| DL1NUX | 2026-09-03 12:28:24 | 50.93748 | 8.45954 | 21° | 13km/h | 31117m | 5.4m/s | -41.3°C | 2.7% | 10.6hPa | 2.6V | 08:30:00 | 02:10:30 | 00:00:00 | |
| BIOWL1-15 | 2026-09-03 12:28:21 | 50.93743 | 8.45948 | 50° | 11km/h | 31106m | 6.5m/s | -41.4°C | 0% | 10.7hPa | 2.6V | 18:12:15 | 02:10:28 | 00:00:00 | |
| AA1-15 | 2026-09-03 12:28:20 | 50.93742 | 8.45945 | 78° | 7km/h | 31099m | 6.8m/s | -41.4°C | 0% | 10.7hPa | 2.7V | 18:12:15 | 02:10:27 | 00:00:00 | |
| DD8BA-10 | 2026-09-03 12:28:20 | 50.93742 | 8.45945 | 78° | 5km/h | 31100m | 6.7m/s | -41.4°C | 2.8% | 10.6hPa | 2.6V | 00:00:00 | 00:00:00 | 00:00:00 | |
| DL1XH1-15 | 2026-09-03 12:28:19 | 50.93744 | 8.45938 | 73° | 2km/h | 31074m | 7.1m/s | -41.6°C | 2.8% | 10.7hPa | 2.6V | 08:30:00 | 02:10:23 | 00:00:00 | |
| HSKMA3-T | 2026-09-03 12:28:17 | 50.93744 | 8.45939 | 131° | 4km/h | 31080m | 5.8m/s | -41.5°C | 0% | 10.7hPa | 2.6V | 18:12:15 | 02:10:24 | 00:00:00 | |
| DL1XH-15 | 2026-09-03 12:28:16 | 50.93740 | 8.45936 | 34° | 2km/h | 31050m | 6.5m/s | -41.5°C | 2.8% | 10.7hPa | 2.7V | 08:30:00 | 02:10:19 | 00:00:00 | |
| DL1XH-west | 2026-09-03 12:28:16 | 50.93744 | 8.45938 | 73° | 2km/h | 31074m | 7.1m/s | -41.6°C | 0% | 10.7hPa | 2.6V | 18:12:15 | 02:10:23 | 00:00:00 | |
| DF8AY | 2026-09-03 12:28:14 | 50.93742 | 8.45937 | 10° | 5km/h | 31062m | 5.1m/s | -41.7°C | 0% | 10.7hPa | 2.7V | 18:12:15 | 02:10:21 | 00:00:00 | |
| BIOWL1-15 | 2026-09-03 12:28:10 | 50.93744 | 8.45925 | 87° | 11km/h | 31019m | 7.1m/s | -41.4°C | 0% | 10.8hPa | 2.7V | 18:12:15 | 02:10:14 | 00:00:00 | |
| AA1-15 | 2026-09-03 12:28:09 | 50.93742 | 8.45932 | 130° | 7km/h | 31032m | 5.8m/s | -41.4°C | 0% | 10.8hPa | 2.6V | 18:12:15 | 02:10:16 | 00:00:00 | |
| DL1XH1-15 | 2026-09-03 12:28:07 | 50.93743 | 8.45920 | 74° | 15km/h | 31012m | 6.1m/s | -41.5°C | 2.7% | 10.8hPa | 2.7V | 08:30:00 | 02:10:13 | 00:00:00 | |
| DL1XH-west | 2026-09-03 12:28:06 | 50.93743 | 8.45920 | 75° | 15km/h | 31012m | 6.1m/s | -41.5°C | 0% | 10.8hPa | 2.7V | 18:12:15 | 02:10:13 | 00:00:00 | |
| DL1NUX | 2026-09-03 12:28:04 | 50.93741 | 8.45901 | 92° | 15km/h | 30994m | 7.2m/s | -41.4°C | 2.8% | 10.8hPa | 2.7V | 08:30:00 | 02:10:10 | 00:00:00 | |
| DF8AY | 2026-09-03 12:28:04 | 50.93741 | 8.45901 | 92° | 15km/h | 30994m | 7.2m/s | -41.4°C | 0% | 10.8hPa | 2.7V | 18:12:15 | 02:10:10 | 00:00:00 | |
| DB0UT-7 | 2026-09-03 12:28:03 | 50.93741 | 8.45901 | 93° | 18km/h | 30994m | 7.1m/s | -41.3°C | 2.8% | 10.8hPa | 2.6V | 00:00:00 | 00:00:00 | 00:00:00 | |
| DL3AQ-11 | 2026-09-03 12:28:02 | 50.93742 | 8.45891 | 105° | 11km/h | 30982m | 5.7m/s | -41.5°C | 0.6% | 10.9hPa | 2.6V | 00:00:00 | 00:00:00 | 00:00:00 | |
| DD8BA-10 | 2026-09-03 12:28:00 | 50.93742 | 8.45887 | 94° | 11km/h | 30976m | 6.2m/s | -41.4°C | 2.8% | 10.8hPa | 2.6V | 00:00:00 | 00:00:00 | 00:00:00 | |
| DL1XH1-15 | 2026-09-03 12:27:59 | 50.93737 | 8.45876 | 37° | 9km/h | 30951m | 5.2m/s | -41.4°C | 2.7% | 10.9hPa | 2.6V | 08:30:00 | 02:10:03 | 00:00:00 | |
| AA1-15 | 2026-09-03 12:27:58 | 50.93741 | 8.45881 | 41° | 9km/h | 30962m | 6.4m/s | -41.4°C | 0% | 10.9hPa | 2.7V | 18:12:15 | 02:10:05 | 00:00:00 | |
| DL1NUX | 2026-09-03 12:27:58 | 50.93735 | 8.45866 | 106° | 13km/h | 30932m | 5.7m/s | -41.4°C | 2.8% | 10.9hPa | 2.6V | 08:30:00 | 02:10:00 | 00:00:00 | |
| DK7TD | 2026-09-03 12:27:56 | 50.93737 | 8.45876 | 38° | 11km/h | 30951m | 5.2m/s | -41.4°C | 0% | 10.9hPa | 2.6V | 18:12:15 | 02:10:03 | 00:00:00 | |
| DL1XH-west | 2026-09-03 12:27:55 | 50.93735 | 8.45874 | 57° | 7km/h | 30945m | 6.6m/s | -41.5°C | 0% | 10.9hPa | 2.7V | 18:12:15 | 02:10:02 | 00:00:00 | |
| DF8AY | 2026-09-03 12:27:53 | 50.93735 | 8.45866 | 106° | 13km/h | 30932m | 5.7m/s | -41.4°C | 0% | 10.9hPa | 2.6V | 18:12:15 | 02:10:00 | 00:00:00 | |
| BIOWL1-15 | 2026-09-03 12:27:50 | 50.93736 | 8.45846 | 82° | 22km/h | 30913m | 6.7m/s | -41.5°C | 0% | 10.9hPa | 2.7V | 18:12:15 | 02:09:57 | 00:00:00 | |
| AA1-15 | 2026-09-03 12:27:47 | 50.93730 | 8.45821 | 61° | 20km/h | 30896m | 6.2m/s | -41.5°C | 0% | 11hPa | 2.6V | 18:12:15 | 02:09:54 | 00:00:00 | |
| DK7TD | 2026-09-03 12:27:45 | 50.93726 | 8.45810 | 49° | 13km/h | 30883m | 6.3m/s | -41.6°C | 0% | 11hPa | 2.7V | 18:12:15 | 02:09:52 | 00:00:00 | |
| DL1XH-15 | 2026-09-03 12:27:45 | 50.93713 | 8.45798 | 30° | 24km/h | 30859m | 5.6m/s | -41.7°C | 2.8% | 11.1hPa | 2.6V | 08:30:00 | 02:09:48 | 00:00:00 | |
| DL1NUX | 2026-09-03 12:27:44 | 50.93721 | 8.45805 | 24° | 13km/h | 30871m | 5.8m/s | -41.5°C | 2.7% | 11hPa | 2.7V | 08:30:00 | 02:09:50 | 00:00:00 | |
| DL1XH-west | 2026-09-03 12:27:44 | 50.93723 | 8.45807 | 31° | 11km/h | 30877m | 5.7m/s | -41.6°C | 0% | 11hPa | 2.7V | 18:12:15 | 02:09:51 | 00:00:00 | |
| DF8AY | 2026-09-03 12:27:43 | 50.93717 | 8.45802 | 25° | 18km/h | 30865m | 6.6m/s | -41.6°C | 0% | 11hPa | 2.6V | 18:12:15 | 02:09:49 | 00:00:00 | |
| BIOWL1-15 | 2026-09-03 12:27:42 | 50.93708 | 8.45793 | 41° | 26km/h | 30853m | 4.9m/s | -41.6°C | 0% | 11.1hPa | 2.6V | 18:12:15 | 02:09:47 | 00:00:00 | |
| DL8DAS-14 | 2026-09-03 12:27:41 | 50.93713 | 8.45798 | 30° | 22km/h | 30859m | 5.6m/s | -41.7°C | 0.6% | 11.1hPa | 2.6V | 00:00:00 | 00:00:00 | 00:00:00 | |
| DB0ND-19 | 2026-09-03 12:27:40 | 50.93703 | 8.45785 | 52° | 27km/h | 30849m | 5.2m/s | -41.7°C | 0.6% | 11.1hPa | 2.6V | 00:00:00 | 00:00:00 | 00:00:00 | |
| DL1XH1-15 | 2026-09-03 12:27:39 | 50.93695 | 8.45753 | 84° | 27km/h | 30829m | 5.7m/s | -41.6°C | 2.7% | 11.1hPa | 2.6V | 08:30:00 | 02:09:43 | 00:00:00 | |
| DL1NUX | 2026-09-03 12:27:38 | 50.93686 | 8.45721 | 23° | 22km/h | 30807m | 7m/s | -41.8°C | 2.8% | 11.1hPa | 2.7V | 08:30:00 | 02:09:39 | 00:00:00 | |
| AA1-15 | 2026-09-03 12:27:36 | 50.93695 | 8.45753 | 84° | 27km/h | 30829m | 5.7m/s | -41.6°C | 0% | 11.1hPa | 2.6V | 18:12:15 | 02:09:43 | 00:00:00 | |
| DL1XH-west | 2026-09-03 12:27:34 | 50.93693 | 8.45733 | 70° | 22km/h | 30819m | 4.5m/s | -41.7°C | 0% | 11.1hPa | 2.6V | 18:12:15 | 02:09:41 | 00:00:00 | |
| HSKMA3-T | 2026-09-03 12:27:33 | 50.93691 | 8.45726 | 51° | 20km/h | 30814m | 6.7m/s | -41.7°C | 0% | 11.1hPa | 2.7V | 18:12:15 | 02:09:40 | 00:00:00 | |
| DK7TD | 2026-09-03 12:27:31 | 50.93680 | 8.45719 | 5° | 27km/h | 30800m | 6.2m/s | -41.7°C | 0% | 11.2hPa | 2.7V | 18:12:15 | 02:09:38 | 00:00:00 | |
| BIOWL1-15 | 2026-09-03 12:27:30 | 50.93654 | 8.45718 | 24° | 20km/h | 30778m | 5.7m/s | -41.8°C | 0% | 11.2hPa | 2.7V | 18:12:15 | 02:09:34 | 00:00:00 | |
| DL1XH1-15 | 2026-09-03 12:27:27 | 50.93649 | 8.45712 | 49° | 22km/h | 30772m | 5.6m/s | -41.6°C | 2.7% | 11.2hPa | 2.7V | 08:30:00 | 02:09:33 | 00:00:00 | |
| DL1XH-15 | 2026-09-03 12:27:25 | 50.93631 | 8.45660 | 48° | 29km/h | 30744m | 5.3m/s | -41.6°C | 2.7% | 11.2hPa | 2.7V | 08:30:00 | 02:09:28 | 00:00:00 | |
| AA1-15 | 2026-09-03 12:27:25 | 50.93646 | 8.45704 | 64° | 27km/h | 30767m | 5.7m/s | -41.7°C | 0% | 11.2hPa | 2.7V | 18:12:15 | 02:09:32 | 00:00:00 | |
| DL1XH-west | 2026-09-03 12:27:24 | 50.93643 | 8.45693 | 67° | 33km/h | 30761m | 6.2m/s | -41.8°C | 0% | 11.2hPa | 2.6V | 18:12:15 | 02:09:31 | 00:00:00 | |
| HSKMA3-T | 2026-09-03 12:27:23 | 50.93639 | 8.45681 | 64° | 35km/h | 30755m | 6.1m/s | -41.7°C | 0% | 11.2hPa | 2.6V | 18:12:15 | 02:09:30 | 00:00:00 | |
| DK7TD | 2026-09-03 12:27:20 | 50.93626 | 8.45652 | 38° | 24km/h | 30738m | 5.9m/s | -41.6°C | 0% | 11.3hPa | 2.7V | 18:12:15 | 02:09:27 | 00:00:00 | |
| DD8BA-10 | 2026-09-03 12:27:20 | 50.93626 | 8.45652 | 39° | 24km/h | 30738m | 5.8m/s | -41.6°C | 2.7% | 11.2hPa | 2.6V | 00:00:00 | 00:00:00 | 00:00:00 | |
| DJ2DS-15 | 2026-09-03 12:27:18 | 50.93613 | 8.45645 | 356° | 13km/h | 30720m | 5.2m/s | -41.5°C | 0.6% | 11.3hPa | 2.6V | 00:00:00 | 00:00:00 | 00:00:00 | |
| DL1NUX | 2026-09-03 12:27:17 | 50.93585 | 8.45635 | 26° | 35km/h | 30690m | 5.3m/s | -41.4°C | 2.7% | 11.3hPa | 2.6V | 08:30:00 | 02:09:19 | 00:00:00 | |
| BIOWL1-15 | 2026-09-03 12:27:17 | 50.93613 | 8.45645 | 356° | 15km/h | 30720m | 5.2m/s | -41.5°C | 0% | 11.3hPa | 2.6V | 18:12:15 | 02:09:24 | 00:00:00 | |
| DF8AY | 2026-09-03 12:27:17 | 50.93610 | 8.45645 | 358° | 16km/h | 30715m | 4.8m/s | -41.5°C | 0% | 11.3hPa | 2.6V | 18:12:15 | 02:09:23 | 00:00:00 | |
| DM0DOS-11 | 2026-09-03 12:27:16 | 50.93610 | 8.45645 | 357° | 16km/h | 30715m | 4.8m/s | -41.5°C | 2.7% | 11.3hPa | 2.6V | 08:30:00 | 02:09:23 | 00:00:00 | |
| BUE01 | 2026-09-03 12:27:16 | 50.93605 | 8.45645 | 5° | 18km/h | 30710m | 6.0m/s | -41.5°C | 0.6% | 11.3hPa | 2.6V | 00:00:00 | 00:00:00 | 00:00:00 | |
| DL1XH-15 | 2026-09-03 12:27:15 | 50.93577 | 8.45628 | 33° | 35km/h | 30685m | 4.5m/s | -41.4°C | 2.6% | 11.3hPa | 2.6V | 08:30:00 | 02:09:18 | 00:00:00 | |
| AA1-15 | 2026-09-03 12:27:14 | 50.93599 | 8.45644 | 14° | 26km/h | 30703m | 6.9m/s | -41.6°C | 0% | 11.3hPa | 2.7V | 18:12:15 | 02:09:21 | 00:00:00 | |
| HSKMA3-T | 2026-09-03 12:27:13 | 50.93593 | 8.45640 | 20° | 31km/h | 30696m | 6.5m/s | -41.5°C | 0% | 11.3hPa | 2.7V | 18:12:15 | 02:09:20 | 00:00:00 | |
| DK7TD | 2026-09-03 12:27:10 | 50.93571 | 8.45620 | 41° | 31km/h | 30681m | 5.5m/s | -41.6°C | 0% | 11.3hPa | 2.7V | 18:12:15 | 02:09:17 | 00:00:00 | |
| DJ2DS-15 | 2026-09-03 12:27:10 | 50.93571 | 8.45620 | 42° | 26km/h | 30681m | 5.5m/s | -41.5°C | 2.7% | 11.3hPa | 2.7V | 00:00:00 | 02:09:17 | 00:00:00 | |
| DL1XH1-15 | 2026-09-03 12:27:08 | 50.93560 | 8.45589 | 76° | 15km/h | 30656m | 4.7m/s | -41.5°C | 2.7% | 11.4hPa | 2.7V | 08:30:00 | 02:09:13 | 00:00:00 | |
| BIOWL1-15 | 2026-09-03 12:27:07 | 50.93561 | 8.45596 | 79° | 18km/h | 30662m | 5.6m/s | -41.6°C | 0% | 11.4hPa | 2.6V | 18:12:15 | 02:09:14 | 00:00:00 | |
| AA1-15 | 2026-09-03 12:27:04 | 50.93556 | 8.45580 | 29° | 16km/h | 30645m | 6.3m/s | -41.3°C | 0% | 11.4hPa | 2.6V | 18:12:15 | 02:09:11 | 00:00:00 | |
| DL1NUX | 2026-09-03 12:27:03 | 50.93544 | 8.45577 | 358° | 29km/h | 30634m | 5.4m/s | -41.4°C | 2.7% | 11.4hPa | 2.7V | 08:30:00 | 02:09:09 | 00:00:00 | |
| DL1XH-west | 2026-09-03 12:27:03 | 50.93551 | 8.45577 | 9° | 24km/h | 30639m | 5.6m/s | -41.3°C | 0% | 11.4hPa | 2.6V | 18:12:15 | 02:09:10 | 00:00:00 | |
| HSKMA3-T | 2026-09-03 12:27:02 | 50.93545 | 8.45577 | 359° | 29km/h | 30634m | 5.4m/s | -41.4°C | 0% | 11.4hPa | 2.7V | 18:12:15 | 02:09:09 | 00:00:00 | |
| DK7TD | 2026-09-03 12:27:00 | 50.93529 | 8.45579 | 352° | 31km/h | 30621m | 6.4m/s | -41.5°C | 0% | 11.4hPa | 2.6V | 18:12:15 | 02:09:07 | 00:00:00 | |
| DD8BA-10 | 2026-09-03 12:27:00 | 50.93529 | 8.45579 | 353° | 26km/h | 30622m | 6.3m/s | -41.4°C | 2.7% | 11.4hPa | 2.6V | 00:00:00 | 00:00:00 | 00:00:00 | |
| DD1CC3-15 | 2026-09-03 12:26:59 | 50.93522 | 8.45580 | 355° | 29km/h | 30616m | 5.4m/s | -41.5°C | 0.6% | 11.5hPa | 2.6V | 00:00:00 | 00:00:00 | 00:00:00 | |
| DM0DOS-11 | 2026-09-03 12:26:58 | 50.93503 | 8.45575 | 28° | 27km/h | 30599m | 6.7m/s | -41.3°C | 2.6% | 11.5hPa | 2.6V | 08:30:00 | 02:09:03 | 00:00:00 | |
| DL1NUX | 2026-09-03 12:26:57 | 50.93485 | 8.45542 | 66° | 24km/h | 30575m | 6.5m/s | -41.5°C | 2.7% | 11.5hPa | 2.7V | 08:30:00 | 02:08:59 | 00:00:00 | |
| DB0NH | 2026-09-03 12:26:57 | 50.93509 | 8.45579 | 16° | 15km/h | 30605m | 5.3m/s | -41.3°C | 2.6% | 11.4hPa | 2.6V | 00:00:00 | 02:09:04 | 00:00:00 | |
| DL1XH-15 | 2026-09-03 12:26:55 | 50.93483 | 8.45534 | 72° | 16km/h | 30569m | 5.9m/s | -41.5°C | 2.7% | 11.5hPa | 2.6V | 08:30:00 | 02:08:58 | 00:00:00 | |
| BIOWL9-15 | 2026-09-03 12:26:54 | 50.93488 | 8.45551 | 59° | 27km/h | 30581m | 5.1m/s | -41.5°C | 0.5% | 11.5hPa | 2.6V | 00:00:00 | 00:00:00 | 00:00:00 | |
| AA1-15 | 2026-09-03 12:26:54 | 50.93492 | 8.45561 | 51° | 31km/h | 30586m | 5.3m/s | -41.4°C | 0% | 11.5hPa | 2.7V | 18:12:15 | 02:09:01 | 00:00:00 | |
| DF8AY | 2026-09-03 12:26:53 | 50.93454 | 8.45529 | 360° | 27km/h | 30531m | 4.8m/s | -41.8°C | 0% | 0hPa | 2.6V | 18:12:15 | 02:08:51 | 00:00:00 | |
| DL1XH-west | 2026-09-03 12:26:53 | 50.93488 | 8.45551 | 59° | 27km/h | 30581m | 5.1m/s | -41.5°C | 0% | 11.5hPa | 2.7V | 18:12:15 | 02:09:00 | 00:00:00 | |
| HSKMA3-T | 2026-09-03 12:26:52 | 50.93485 | 8.45542 | 66° | 24km/h | 30575m | 6.5m/s | -41.6°C | 0% | 11.5hPa | 2.7V | 18:12:15 | 02:08:59 | 00:00:00 | |
| DK7TD | 2026-09-03 12:26:50 | 50.93482 | 8.45529 | 67° | 11km/h | 30564m | 4.8m/s | -41.5°C | 0% | 11.6hPa | 2.6V | 18:12:15 | 02:08:57 | 00:00:00 | |
| BIOWL1-15 | 2026-09-03 12:26:46 | 50.93468 | 8.45528 | 354° | 26km/h | 30541m | 5.6m/s | -41.7°C | 0% | 11.6hPa | 2.7V | 18:12:15 | 02:08:53 | 00:00:00 | |
| DL1XH-15 | 2026-09-03 12:26:45 | 50.93438 | 8.45527 | 21° | 11km/h | 30514m | 5.7m/s | -41.4°C | 2.7% | 11.6hPa | 2.7V | 08:30:00 | 02:08:48 | 00:00:00 | |
| DL1NUX | 2026-09-03 12:26:44 | 50.93442 | 8.45528 | 8° | 18km/h | 30520m | 6m/s | -41.5°C | 2.7% | 11.6hPa | 2.7V | 08:30:00 | 02:08:49 | 00:00:00 | |
| AA1-15 | 2026-09-03 12:26:43 | 50.93447 | 8.45529 | 3° | 24km/h | 30526m | 5.6m/s | -41.7°C | 0% | 11.6hPa | 2.6V | 18:12:15 | 02:08:50 | 00:00:00 | |
| DL1XH-west | 2026-09-03 12:26:42 | 50.93442 | 8.45528 | 8° | 18km/h | 30520m | 6m/s | -41.5°C | 0% | 11.6hPa | 2.7V | 18:12:15 | 02:08:49 | 00:00:00 | |
| DK7TD | 2026-09-03 12:26:39 | 50.93435 | 8.45521 | 72° | 9km/h | 30503m | 5.5m/s | -41.6°C | 0% | 11.6hPa | 2.6V | 18:12:15 | 02:08:46 | 00:00:00 | |
| DL8DAS-14 | 2026-09-03 12:26:39 | 50.93434 | 8.45517 | 74° | 11km/h | 30497m | 6.6m/s | -41.7°C | 0.6% | 11.7hPa | 2.6V | 00:00:00 | 00:00:00 | 00:00:00 | |
| DL8OAI-8 | 2026-09-03 12:26:37 | 50.93434 | 8.45517 | 75° | 13km/h | 30497m | 6.6m/s | -41.6°C | 0.6% | 11.7hPa | 2.6V | 00:00:00 | 00:00:00 | 00:00:00 | |
| DL4BBY-15 | 2026-09-03 12:26:36 | 50.93432 | 8.45507 | 71° | 13km/h | 30486m | 4.8m/s | -44.0°C | 0% | 0hPa | 2.6V | 00:00:00 | 00:00:00 | 00:00:00 | |
| DL1XH-15 | 2026-09-03 12:26:35 | 50.93426 | 8.45498 | 356° | 11km/h | 30457m | 5.9m/s | -41.4°C | 2.8% | 11.8hPa | 2.6V | 08:30:00 | 02:08:38 | 00:00:00 | |
| DJ2KF-10 | 2026-09-03 12:26:35 | 50.93431 | 8.45502 | 69° | 13km/h | 30481m | 5.6m/s | -41.6°C | 2.8% | 11.6hPa | 2.6V | 00:00:00 | 02:08:42 | 00:00:00 | |
| DL1NUX | 2026-09-03 12:26:34 | 50.93428 | 8.45498 | 355° | 7km/h | 30463m | 5m/s | -41.4°C | 2.7% | 11.7hPa | 2.6V | 08:30:00 | 02:08:39 | 00:00:00 | |
| AA1-15 | 2026-09-03 12:26:34 | 50.93430 | 8.45498 | 26° | 4km/h | 30468m | 5.6m/s | -41.4°C | 0% | 11.7hPa | 2.6V | 18:12:15 | 02:08:40 | 00:00:00 | |
| DL1XH-west | 2026-09-03 12:26:32 | 50.93428 | 8.45498 | 356° | 7km/h | 30463m | 5m/s | -41.4°C | 0% | 11.7hPa | 2.6V | 18:12:15 | 02:08:39 | 00:00:00 | |
| HSKMA3-T | 2026-09-03 12:26:31 | 50.93426 | 8.45498 | 356° | 11km/h | 30457m | 5.9m/s | -41.4°C | 0% | 11.8hPa | 2.6V | 18:12:15 | 02:08:38 | 00:00:00 | |
| DK7TD | 2026-09-03 12:26:29 | 50.93419 | 8.45497 | 13° | 18km/h | 30446m | 5.3m/s | -41.5°C | 0% | 11.8hPa | 2.7V | 18:12:15 | 02:08:36 | 00:00:00 | |
| AA1-15 | 2026-09-03 12:26:23 | 50.93403 | 8.45480 | 46° | 7km/h | 30414m | 5.1m/s | -41.3°C | 0% | 11.8hPa | 2.7V | 18:12:15 | 02:08:30 | 00:00:00 | |
| BIOWL1-15 | 2026-09-03 12:26:22 | 50.93401 | 8.45478 | 31° | 11km/h | 30409m | 6.3m/s | -41.3°C | 0% | 11.8hPa | 2.7V | 18:12:15 | 02:08:29 | 00:00:00 | |
| DL1XH-west | 2026-09-03 12:26:21 | 50.93398 | 8.45476 | 22° | 15km/h | 30403m | 5.9m/s | -41.2°C | 0% | 11.8hPa | 2.6V | 18:12:15 | 02:08:28 | 00:00:00 | |
| DF8AY | 2026-09-03 12:26:20 | 50.93353 | 8.45458 | 345° | 5km/h | 30326m | 4.7m/s | -41.4°C | 0% | 0hPa | 2.6V | 18:12:15 | 02:08:14 | 00:00:00 | |
| DD8BA-10 | 2026-09-03 12:26:20 | 50.93394 | 8.45473 | 19° | 16km/h | 30397m | 5.4m/s | -41.2°C | 2.7% | 11.8hPa | 2.7V | 00:00:00 | 00:00:00 | 00:00:00 | |
| DO3DL | 2026-09-03 12:26:19 | 50.93394 | 8.45473 | 20° | 20km/h | 30397m | 5.4m/s | -41.2°C | 0.6% | 11.8hPa | 2.7V | 00:00:00 | 00:00:00 | 00:00:00 | |
| DL1XH1-15 | 2026-09-03 12:26:18 | 50.93377 | 8.45465 | 19° | 13km/h | 30375m | 5.8m/s | -41.5°C | 2.8% | 11.9hPa | 2.7V | 08:30:00 | 02:08:23 | 00:00:00 | |
| DK7TD | 2026-09-03 12:26:14 | 50.93370 | 8.45462 | 17° | 15km/h | 30363m | 6.2m/s | -41.4°C | 0% | 11.9hPa | 2.6V | 18:12:15 | 02:08:21 | 00:00:00 | |
| DL1NUX | 2026-09-03 12:26:13 | 50.93363 | 8.45459 | 13° | 15km/h | 30352m | 4.4m/s | -41.2°C | 2.7% | 11.9hPa | 2.7V | 08:30:00 | 02:08:19 | 00:00:00 | |
| AA1-15 | 2026-09-03 12:26:12 | 50.93363 | 8.45459 | 13° | 15km/h | 30352m | 4.4m/s | -41.3°C | 0% | 11.9hPa | 2.7V | 18:12:15 | 02:08:19 | 00:00:00 | |
| BIOWL1-15 | 2026-09-03 12:26:11 | 50.93360 | 8.45457 | 11° | 13km/h | 30348m | 4.7m/s | -41.3°C | 0% | 11.9hPa | 2.7V | 18:12:15 | 02:08:18 | 00:00:00 | |
| DF8AY | 2026-09-03 12:26:11 | 50.93351 | 8.45459 | 359° | 9km/h | 30321m | 6.3m/s | -41.5°C | 0% | 0hPa | 2.7V | 18:12:15 | 02:08:13 | 00:00:00 | |
| DL1XH-west | 2026-09-03 12:26:10 | 50.93357 | 8.45457 | 4° | 9km/h | 30342m | 6.1m/s | -41.3°C | 0% | 11.9hPa | 2.7V | 18:12:15 | 02:08:17 | 00:00:00 | |
| DJ8HS-15 | 2026-09-03 12:26:10 | 50.93357 | 8.45457 | 5° | 9km/h | 30343m | 6.1m/s | -41.3°C | 2.7% | 11.9hPa | 2.6V | 00:00:00 | 02:08:17 | 00:00:00 | |
| HTAHTA | 2026-09-03 12:26:09 | 50.93353 | 8.45458 | 345° | 5km/h | 30326m | 4.7m/s | -41.4°C | 0.5% | -1.0hPa | 2.6V | 00:00:00 | 00:00:00 | 00:00:00 | |
| DL8DAS-14 | 2026-09-03 12:26:08 | 50.93353 | 8.45458 | 345° | 5km/h | 30326m | 4.7m/s | -41.4°C | 0.5% | 11.9hPa | 2.6V | 00:00:00 | 00:00:00 | 00:00:00 | |
| DL1NUX | 2026-09-03 12:26:07 | 50.93335 | 8.45451 | 31° | 16km/h | 30299m | 5.3m/s | -41.3°C | 2.8% | 12hPa | 2.6V | 08:30:00 | 02:08:09 | 00:00:00 | |
| DL1XH1-15 | 2026-09-03 12:26:07 | 50.93351 | 8.45459 | 359° | 9km/h | 30321m | 6.3m/s | -41.5°C | 2.7% | 12hPa | 2.7V | 08:30:00 | 02:08:13 | 00:00:00 | |
| DB0ND-19 | 2026-09-03 12:26:07 | 50.93351 | 8.45459 | 359° | 9km/h | 30321m | 6.3m/s | -41.5°C | 0.6% | 12.0hPa | 2.6V | 00:00:00 | 00:00:00 | 00:00:00 | |
| DL4BBY-15 | 2026-09-03 12:26:06 | 50.93351 | 8.45458 | 360° | 7km/h | 30320m | 6.3m/s | -43.7°C | 0% | 0hPa | 2.6V | 00:00:00 | 00:00:00 | 00:00:00 | |
| DL1XH-15 | 2026-09-03 12:26:05 | 50.93332 | 8.45447 | 46° | 13km/h | 30294m | 5.7m/s | -41.3°C | 2.8% | 12hPa | 2.6V | 08:30:00 | 02:08:08 | 00:00:00 | |
| DK7TD | 2026-09-03 12:26:03 | 50.93340 | 8.45454 | 23° | 20km/h | 30304m | 4.4m/s | -41.4°C | 0% | 12hPa | 2.6V | 18:12:15 | 02:08:10 | 00:00:00 | |
| DL3AQ-11 | 2026-09-03 12:26:02 | 50.93332 | 8.45447 | 46° | 11km/h | 30294m | 5.7m/s | -41.4°C | 0.6% | 12.0hPa | 2.6V | 00:00:00 | 00:00:00 | 00:00:00 | |
| DL1XH1-15 | 2026-09-03 12:26:01 | 50.93330 | 8.45435 | 52° | 5km/h | 30268m | 5.2m/s | -41.3°C | 2.7% | 12.1hPa | 2.6V | 08:30:00 | 02:08:03 | 00:00:00 | |
| BIOWL1-15 | 2026-09-03 12:26:00 | 50.93331 | 8.45444 | 72° | 9km/h | 30289m | 4.9m/s | -41.4°C | 0% | 12hPa | 2.7V | 18:12:15 | 02:08:07 | 00:00:00 | |
| HSKMA3-T | 2026-09-03 12:25:59 | 50.93331 | 8.45441 | 94° | 7km/h | 30284m | 4.5m/s | -41.4°C | 0% | 12hPa | 2.7V | 18:12:15 | 02:08:06 | 00:00:00 | |
| DO1YAY-16 | 2026-09-03 12:25:57 | 50.93331 | 8.45437 | 77° | 4km/h | 30273m | 6.2m/s | -41.4°C | 0.6% | 12.1hPa | 2.6V | 00:00:00 | 00:00:00 | 00:00:00 | |
| DB0NH | 2026-09-03 12:25:56 | 50.93330 | 8.45435 | 53° | 5km/h | 30268m | 5.1m/s | -41.2°C | 2.7% | 12.0hPa | 2.6V | 00:00:00 | 02:08:03 | 00:00:00 | |
| DF8AY | 2026-09-03 12:25:56 | 50.93330 | 8.45435 | 52° | 5km/h | 30268m | 5.2m/s | -41.3°C | 0% | 0hPa | 2.6V | 18:12:15 | 02:08:03 | 00:00:00 | |
| DL1XH-15 | 2026-09-03 12:25:55 | 50.93328 | 8.45422 | 115° | 9km/h | 30241m | 5m/s | -41.5°C | 2.8% | 12.1hPa | 2.6V | 08:30:00 | 02:07:58 | 00:00:00 | |
| BIOWL1-15 | 2026-09-03 12:25:51 | 50.93329 | 8.45413 | 56° | 7km/h | 30225m | 5.7m/s | -41.5°C | 0% | 12.2hPa | 2.7V | 18:12:15 | 02:07:55 | 00:00:00 | |
| DL1XH-west | 2026-09-03 12:25:49 | 50.93330 | 8.45416 | 87° | 7km/h | 30231m | 6.1m/s | -41.6°C | 0% | 12.1hPa | 2.6V | 18:12:15 | 02:07:56 | 00:00:00 | |
| DL1XH1-15 | 2026-09-03 12:25:48 | 50.93327 | 8.45410 | 24° | 4km/h | 30215m | 4.8m/s | -41.4°C | 2.7% | 12.2hPa | 2.7V | 08:30:00 | 02:07:53 | 00:00:00 | |
| DL1NUX | 2026-09-03 12:25:47 | 50.93331 | 8.45410 | 185° | 9km/h | 30194m | 4.5m/s | -41.5°C | 2.8% | 12.2hPa | 2.7V | 08:30:00 | 02:07:49 | 00:00:00 | |
| DK7TD | 2026-09-03 12:25:45 | 50.93326 | 8.45409 | 59° | 0km/h | 30210m | 6.2m/s | -41.4°C | 0% | 12.2hPa | 2.6V | 18:12:15 | 02:07:52 | 00:00:00 | |
| DL1XH-15 | 2026-09-03 12:25:45 | 50.93333 | 8.45410 | 183° | 5km/h | 30189m | 5.5m/s | -41.5°C | 2.8% | 12.2hPa | 2.7V | 08:30:00 | 02:07:48 | 00:00:00 | |
| GOEST3-10 | 2026-09-03 12:25:44 | 50.93327 | 8.45409 | 183° | 5km/h | 30204m | 5.6m/s | -41.4°C | 2.8% | 12.1hPa | 2.7V | 00:00:00 | 00:00:00 | 00:00:00 | |
| DL3OBA | 2026-09-03 12:25:43 | 50.93327 | 8.45409 | 184° | 5km/h | 30204m | 5.7m/s | -41.4°C | 0.6% | 12.2hPa | 2.7V | 00:00:00 | 00:00:00 | 00:00:00 | |
| BUE01 | 2026-09-03 12:25:42 | 50.93331 | 8.45410 | 185° | 7km/h | 30194m | 4.5m/s | -41.5°C | 0.6% | 12.2hPa | 2.7V | 00:00:00 | 00:00:00 | 00:00:00 | |
| DO3DL | 2026-09-03 12:25:40 | 50.93334 | 8.45410 | 164° | 4km/h | 30183m | 6.1m/s | -41.5°C | 0.6% | 12.2hPa | 2.7V | 00:00:00 | 00:00:00 | 00:00:00 | |
| GOEST3-10 | 2026-09-03 12:25:39 | 50.93334 | 8.45409 | 87° | 7km/h | 30178m | 5.2m/s | -41.5°C | 2.8% | 12.2hPa | 2.7V | 00:00:00 | 02:07:46 | 00:00:00 | |
| DL1XH1-15 | 2026-09-03 12:25:38 | 50.93335 | 8.45402 | 111° | 9km/h | 30161m | 5.4m/s | -41.4°C | 2.8% | 12.3hPa | 2.7V | 08:30:00 | 02:07:43 | 00:00:00 | |
| DL1XH-west | 2026-09-03 12:25:38 | 50.93334 | 8.45408 | 86° | 5km/h | 30172m | 5.3m/s | -41.5°C | 0% | 12.3hPa | 2.6V | 18:12:15 | 02:07:45 | 00:00:00 | |
| BIOWL1-15 | 2026-09-03 12:25:37 | 50.93334 | 8.45405 | 101° | 7km/h | 30166m | 6.2m/s | -41.4°C | 0% | 12.2hPa | 2.6V | 18:12:15 | 02:07:44 | 00:00:00 | |
| DF8AY | 2026-09-03 12:25:35 | 50.93336 | 8.45399 | 111° | 11km/h | 30155m | 4.3m/s | -41.4°C | 0% | 0hPa | 2.7V | 18:12:15 | 02:07:42 | 00:00:00 | |
| DL1XH-15 | 2026-09-03 12:25:35 | 50.93334 | 8.45387 | 33° | 7km/h | 30134m | 4.8m/s | -41.5°C | 2.8% | 12.3hPa | 2.6V | 08:30:00 | 02:07:38 | 00:00:00 | |
| DK7TD | 2026-09-03 12:25:33 | 50.93336 | 8.45391 | 79° | 7km/h | 30146m | 6.3m/s | -41.5°C | 0% | 12.3hPa | 2.6V | 18:12:15 | 02:07:40 | 00:00:00 | |
| DL1XH-west | 2026-09-03 12:25:28 | 50.93333 | 8.45385 | 212° | 4km/h | 30119m | 5.1m/s | -41.5°C | 0% | 12.3hPa | 2.7V | 18:12:15 | 02:07:35 | 00:00:00 | |
| DL1XH1-15 | 2026-09-03 12:25:27 | 50.93335 | 8.45388 | 221° | 4km/h | 30110m | 4.3m/s | -41.5°C | 2.7% | 12.4hPa | 2.6V | 08:30:00 | 02:07:33 | 00:00:00 | |
| DF8AY | 2026-09-03 12:25:25 | 50.93334 | 8.45388 | 26° | 5km/h | 30099m | 5.6m/s | 0°C | 0% | 0hPa | 2.7V | 18:12:15 | 02:07:31 | 00:00:00 | |
| DL1XH-15 | 2026-09-03 12:25:25 | 50.93329 | 8.45366 | 98° | 16km/h | 30072m | 4.3m/s | -41.6°C | 2.7% | 12.4hPa | 2.6V | 08:30:00 | 02:07:26 | 00:00:00 | |
| DK7TD | 2026-09-03 12:25:22 | 50.93331 | 8.45383 | 56° | 13km/h | 30089m | 4.9m/s | 0°C | 0% | 12.4hPa | 2.7V | 18:12:15 | 02:07:29 | 00:00:00 | |
| HSKMA3-T | 2026-09-03 12:25:18 | 50.93329 | 8.45360 | 101° | 15km/h | 30069m | 3.5m/s | -41.7°C | 0% | 12.4hPa | 2.7V | 18:12:15 | 02:07:25 | 00:00:00 | |
| DL1XH-west | 2026-09-03 12:25:17 | 50.93330 | 8.45355 | 95° | 11km/h | 30065m | 5m/s | -41.8°C | 0% | 12.5hPa | 2.7V | 18:12:15 | 02:07:24 | 00:00:00 | |
| BIOWL1-15 | 2026-09-03 12:25:14 | 50.93326 | 8.45349 | 357° | 9km/h | 30048m | 5.1m/s | -41.6°C | 0% | 12.5hPa | 2.6V | 18:12:15 | 02:07:21 | 00:00:00 | |
| DF8AY | 2026-09-03 12:25:14 | 50.93325 | 8.45350 | 341° | 7km/h | 30043m | 4.6m/s | 0°C | 0% | 0hPa | 2.6V | 18:12:15 | 02:07:20 | 00:00:00 | |
| DK7TD | 2026-09-03 12:25:09 | 50.93323 | 8.45347 | 96° | 9km/h | 30024m | 4.6m/s | 0°C | 0% | 12.5hPa | 2.6V | 18:12:15 | 02:07:16 | 00:00:00 | |
| DL1XH-15 | 2026-09-03 12:25:09 | 50.93324 | 8.45347 | 96° | 9km/h | 30024m | 4.6m/s | -41.5°C | 2.7% | 12.5hPa | 2.6V | 08:30:00 | 02:07:16 | 00:00:00 | |
| GOEST3-10 | 2026-09-03 12:25:09 | 50.93323 | 8.45347 | 97° | 15km/h | 30024m | 4.6m/s | -41.5°C | 2.7% | 12.5hPa | 2.7V | 00:00:00 | 02:07:16 | 00:00:00 | |
| DL1XH1-15 | 2026-09-03 12:25:08 | 50.93320 | 8.45332 | 61° | 16km/h | 30008m | 4.8m/s | -41.7°C | 2.7% | 12.5hPa | 2.7V | 08:30:00 | 02:07:13 | 00:00:00 | |
| HSKMA3-T | 2026-09-03 12:25:08 | 50.93323 | 8.45343 | 78° | 13km/h | 30019m | 5.8m/s | -41.6°C | 0% | 12.5hPa | 2.6V | 18:12:15 | 02:07:15 | 00:00:00 | |
| AA1-15 | 2026-09-03 12:25:07 | 50.93322 | 8.45338 | 66° | 16km/h | 30013m | 5.5m/s | -41.6°C | 0% | 12.5hPa | 2.6V | 18:12:15 | 02:07:14 | 00:00:00 | |
| HTAHTA | 2026-09-03 12:25:07 | 50.93320 | 8.45332 | 61° | 16km/h | 30008m | 4.8m/s | -41.7°C | 0.6% | -1.0hPa | 2.7V | 00:00:00 | 00:00:00 | 00:00:00 | |
| DL3AQ-11 | 2026-09-03 12:25:06 | 50.93318 | 8.45327 | 59° | 15km/h | 30004m | 4.5m/s | -41.8°C | 0.6% | 12.6hPa | 2.7V | 00:00:00 | 00:00:00 | 00:00:00 | |
| DJ2KF-10 | 2026-09-03 12:25:05 | 50.93318 | 8.45327 | 60° | 11km/h | 30004m | 4.4m/s | -41.7°C | 2.7% | 12.5hPa | 2.7V | 00:00:00 | 02:07:12 | 00:00:00 | |
| DL1XH-15 | 2026-09-03 12:25:04 | 50.93315 | 8.45311 | 70° | 7km/h | 29972m | 4.7m/s | -41.9°C | 2.8% | 12.6hPa | 2.7V | 08:30:00 | 02:07:06 | 00:00:00 | |
| BIOWL1-15 | 2026-09-03 12:25:03 | 50.93316 | 8.45318 | 79° | 7km/h | 29993m | 5.1m/s | -41.9°C | 0% | 12.6hPa | 2.6V | 18:12:15 | 02:07:10 | 00:00:00 | |
| DF8AY | 2026-09-03 12:25:02 | 50.93316 | 8.45315 | 88° | 4km/h | 29983m | 5.3m/s | 0°C | 0% | 0hPa | 2.6V | 18:12:15 | 02:07:08 | 00:00:00 | |
| DK7TD | 2026-09-03 12:24:59 | 50.93315 | 8.45308 | 80° | 9km/h | 29968m | 4.3m/s | 0°C | 0% | 12.6hPa | 2.7V | 18:12:15 | 02:07:05 | 00:00:00 | |
| HSKMA3-T | 2026-09-03 12:24:58 | 50.93315 | 8.45305 | 97° | 9km/h | 29963m | 5.1m/s | -42°C | 0% | 12.6hPa | 2.6V | 18:12:15 | 02:07:04 | 00:00:00 | |
| DL1XH1-15 | 2026-09-03 12:24:57 | 50.93315 | 8.45301 | 115° | 11km/h | 29958m | 5.7m/s | -42°C | 2.8% | 12.6hPa | 2.6V | 08:30:00 | 02:07:03 | 00:00:00 | |
| DL1XH-west | 2026-09-03 12:24:56 | 50.93315 | 8.45301 | 115° | 11km/h | 29958m | 5.7m/s | -42°C | 0% | 12.7hPa | 2.6V | 18:12:15 | 02:07:03 | 00:00:00 | |
| DB0NH | 2026-09-03 12:24:56 | 50.93315 | 8.45301 | 116° | 13km/h | 29958m | 5.6m/s | -42.0°C | 2.8% | 12.6hPa | 2.6V | 00:00:00 | 02:07:03 | 00:00:00 | |
| SO1NDE-10 | 2026-09-03 12:24:55 | 50.93317 | 8.45297 | 129° | 13km/h | 29952m | 5.2m/s | -42.0°C | 2.8% | 12.6hPa | 2.6V | 00:00:00 | 02:07:02 | 00:00:00 | |
| DL1XH-15 | 2026-09-03 12:24:54 | 50.93315 | 8.45272 | 44° | 16km/h | 29921m | 4.9m/s | -42.6°C | 2.8% | 12.7hPa | 2.6V | 08:30:00 | 02:06:56 | 00:00:00 | |
| BIOWL1-15 | 2026-09-03 12:24:52 | 50.93318 | 8.45277 | 48° | 16km/h | 29926m | 5m/s | -42.4°C | 0% | 12.7hPa | 2.6V | 18:12:15 | 02:06:57 | 00:00:00 | |
| DF8AY | 2026-09-03 12:24:49 | 50.93315 | 8.45272 | 44° | 16km/h | 29921m | 4.9m/s | 0°C | 0% | 0hPa | 2.6V | 18:12:15 | 02:06:56 | 00:00:00 | |
| GOEST3-10 | 2026-09-03 12:24:49 | 50.93315 | 8.45272 | 45° | 15km/h | 29922m | 4.9m/s | -42.5°C | 2.8% | 12.7hPa | 2.6V | 00:00:00 | 02:06:56 | 00:00:00 | |
| DM0DOS-11 | 2026-09-03 12:24:48 | 50.93307 | 8.45260 | 46° | 11km/h | 29906m | 4.6m/s | -42.7°C | 2.9% | 12.7hPa | 2.7V | 08:30:00 | 02:06:53 | 00:00:00 | |
| DK7TD | 2026-09-03 12:24:48 | 50.93312 | 8.45267 | 46° | 15km/h | 29916m | 5.8m/s | 0°C | 0% | 12.7hPa | 2.7V | 18:12:15 | 02:06:55 | 00:00:00 | |
| DL1NUX | 2026-09-03 12:24:47 | 50.93298 | 8.45248 | 36° | 11km/h | 29885m | 4.2m/s | -42.8°C | 2.9% | 12.8hPa | 2.7V | 08:30:00 | 02:06:49 | 00:00:00 | |
| HSKMA3-T | 2026-09-03 12:24:47 | 50.93309 | 8.45263 | 47° | 13km/h | 29911m | 5m/s | -42.7°C | 0% | 12.7hPa | 2.7V | 18:12:15 | 02:06:54 | 00:00:00 | |
| AA1-15 | 2026-09-03 12:24:46 | 50.93307 | 8.45260 | 46° | 13km/h | 29906m | 4.6m/s | -42.7°C | 0% | 12.7hPa | 2.7V | 18:12:15 | 02:06:53 | 00:00:00 | |
| DL1XH-west | 2026-09-03 12:24:45 | 50.93305 | 8.45256 | 41° | 11km/h | 29901m | 5.4m/s | -42.7°C | 0% | 12.8hPa | 2.6V | 18:12:15 | 02:06:52 | 00:00:00 | |
| BIOWL1-15 | 2026-09-03 12:24:42 | 50.93298 | 8.45248 | 37° | 11km/h | 29885m | 4.2m/s | -42.8°C | 0% | 12.8hPa | 2.7V | 18:12:15 | 02:06:49 | 00:00:00 | |
| DF8AY | 2026-09-03 12:24:38 | 50.93294 | 8.45236 | 72° | 9km/h | 29864m | 4.2m/s | 0°C | 0% | 0hPa | 2.6V | 18:12:15 | 02:06:45 | 00:00:00 | |
| BIOWL1-15 | 2026-09-03 12:24:38 | 50.93275 | 8.45216 | 33° | 13km/h | 29833m | 5.3m/s | -43.3°C | 0% | 12.9hPa | 2.6V | 18:12:15 | 02:06:39 | 00:00:00 | |
| HSKMA3-T | 2026-09-03 12:24:37 | 50.93293 | 8.45233 | 51° | 11km/h | 29859m | 5.9m/s | -43°C | 0% | 12.8hPa | 2.6V | 18:12:15 | 02:06:44 | 00:00:00 | |
| AA1-15 | 2026-09-03 12:24:36 | 50.93291 | 8.45229 | 36° | 16km/h | 29853m | 5.9m/s | -43°C | 0% | 12.8hPa | 2.7V | 18:12:15 | 02:06:43 | 00:00:00 | |
| DL1NUX | 2026-09-03 12:24:36 | 50.93275 | 8.45216 | 33° | 13km/h | 29833m | 5.3m/s | -43.3°C | 2.9% | 12.9hPa | 2.6V | 08:30:00 | 02:06:39 | 00:00:00 | |
| DL1XH-west | 2026-09-03 12:24:35 | 50.93287 | 8.45226 | 29° | 20km/h | 29848m | 4.7m/s | -43.1°C | 0% | 12.8hPa | 2.7V | 18:12:15 | 02:06:42 | 00:00:00 | |
| DL1XH-15 | 2026-09-03 12:24:34 | 50.93282 | 8.45222 | 26° | 20km/h | 29843m | 4.5m/s | -43.2°C | 2.9% | 12.9hPa | 2.7V | 08:30:00 | 02:06:41 | 00:00:00 | |
| HSKMA3-T | 2026-09-03 12:24:26 | 50.93268 | 8.45199 | 68° | 11km/h | 29802m | 4.5m/s | -43.7°C | 0% | 12.9hPa | 2.6V | 18:12:15 | 02:06:33 | 00:00:00 | |
| SONCRA | 2026-09-03 12:24:26 | 50.93267 | 8.45194 | 82° | 13km/h | 29797m | 5.6m/s | -43.7°C | 0.6% | 13.0hPa | 2.7V | 00:00:00 | 00:00:00 | 00:00:00 | |
| DL1NUX | 2026-09-03 12:24:25 | 50.93268 | 8.45177 | 96° | 16km/h | 29781m | 4.4m/s | -43.8°C | 3% | 13hPa | 2.7V | 08:30:00 | 02:06:29 | 00:00:00 | |
| AA1-15 | 2026-09-03 12:24:25 | 50.93267 | 8.45194 | 82° | 13km/h | 29797m | 5.6m/s | -43.7°C | 0% | 13hPa | 2.6V | 18:12:15 | 02:06:32 | 00:00:00 | |
| DL1XH-15 | 2026-09-03 12:24:24 | 50.93267 | 8.45189 | 98° | 15km/h | 29791m | 6m/s | -43.7°C | 3% | 13hPa | 2.7V | 08:30:00 | 02:06:31 | 00:00:00 | |
| DL1XH-west | 2026-09-03 12:24:24 | 50.93267 | 8.45189 | 98° | 15km/h | 29791m | 6m/s | -43.7°C | 0% | 13hPa | 2.7V | 18:12:15 | 02:06:31 | 00:00:00 | |
| BIOWL1-15 | 2026-09-03 12:24:23 | 50.93268 | 8.45170 | 85° | 16km/h | 29776m | 6.1m/s | -43.9°C | 0% | 13hPa | 2.6V | 18:12:15 | 02:06:28 | 00:00:00 | |
| DO3DL | 2026-09-03 12:24:23 | 50.93268 | 8.45183 | 104° | 16km/h | 29786m | 4.6m/s | -43.7°C | 0.6% | 13.0hPa | 2.6V | 00:00:00 | 00:00:00 | 00:00:00 | |
| DD8BA-10 | 2026-09-03 12:24:20 | 50.93267 | 8.45164 | 69° | 16km/h | 29770m | 5.8m/s | -43.9°C | 3.0% | 13.0hPa | 2.6V | 00:00:00 | 00:00:00 | 00:00:00 | |
| GOEST3-10 | 2026-09-03 12:24:19 | 50.93265 | 8.45158 | 58° | 16km/h | 29765m | 5.1m/s | -43.9°C | 3.0% | 13.0hPa | 2.6V | 00:00:00 | 02:06:26 | 00:00:00 | |
| DM0DOS-11 | 2026-09-03 12:24:17 | 50.93259 | 8.45141 | 73° | 16km/h | 29748m | 5.2m/s | -43.7°C | 3% | 13.1hPa | 2.7V | 08:30:00 | 02:06:23 | 00:00:00 | |
| HSKMA3-T | 2026-09-03 12:24:16 | 50.93260 | 8.45141 | 73° | 16km/h | 29748m | 5.2m/s | -43.7°C | 0% | 13.1hPa | 2.7V | 18:12:15 | 02:06:23 | 00:00:00 | |
| AA1-15 | 2026-09-03 12:24:15 | 50.93258 | 8.45128 | 74° | 16km/h | 29738m | 5.1m/s | -43.8°C | 0% | 13.1hPa | 2.6V | 18:12:15 | 02:06:21 | 00:00:00 | |
| DL1NUX | 2026-09-03 12:24:14 | 50.93254 | 8.45117 | 56° | 15km/h | 29727m | 5.3m/s | -44°C | 3% | 13.1hPa | 2.7V | 08:30:00 | 02:06:19 | 00:00:00 | |
| DL1XH-15 | 2026-09-03 12:24:14 | 50.93258 | 8.45129 | 74° | 16km/h | 29738m | 5m/s | -43.8°C | 3% | 13.1hPa | 2.6V | 08:30:00 | 02:06:21 | 00:00:00 | |
| DL1XH-west | 2026-09-03 12:24:14 | 50.93256 | 8.45123 | 65° | 16km/h | 29733m | 6.1m/s | -43.9°C | 0% | 13.1hPa | 2.6V | 18:12:15 | 02:06:20 | 00:00:00 | |
| DL3AQ-11 | 2026-09-03 12:24:13 | 50.93254 | 8.45117 | 56° | 15km/h | 29727m | 5.4m/s | -44.0°C | 0.6% | 13.1hPa | 2.7V | 00:00:00 | 00:00:00 | 00:00:00 | |
| DL1XH1-15 | 2026-09-03 12:24:11 | 50.93251 | 8.45101 | 89° | 4km/h | 29695m | 6.1m/s | -44.4°C | 3.1% | 13.2hPa | 2.7V | 08:30:00 | 02:06:13 | 00:00:00 | |
| BIOWL1-15 | 2026-09-03 12:24:11 | 50.93252 | 8.45113 | 53° | 13km/h | 29722m | 4.7m/s | -44°C | 0% | 13.1hPa | 2.7V | 18:12:15 | 02:06:18 | 00:00:00 | |
| DB0DAN | 2026-09-03 12:24:10 | 50.93251 | 8.45109 | 58° | 9km/h | 29717m | 5.1m/s | -44.1°C | 0.6% | 13.12hPa | 2.7V | 00:00:00 | 00:00:00 | 00:00:00 | |
| DJ8HS-15 | 2026-09-03 12:24:10 | 50.93251 | 8.45109 | 59° | 9km/h | 29718m | 5.0m/s | -44.1°C | 3.0% | 13.1hPa | 2.6V | 00:00:00 | 02:06:17 | 00:00:00 | |
| DO3MHA-12 | 2026-09-03 12:24:09 | 50.93250 | 8.45106 | 80° | 7km/h | 29712m | 6.2m/s | -44.2°C | 3.1% | 13.1hPa | 2.6V | 00:00:00 | 02:06:16 | 00:00:00 | |
| GOEST3-10 | 2026-09-03 12:24:08 | 50.93250 | 8.45104 | 117° | 5km/h | 29706m | 5.3m/s | -44.2°C | 3.1% | 13.1hPa | 2.6V | 00:00:00 | 02:06:15 | 00:00:00 | |
| DL1NUX | 2026-09-03 12:24:07 | 50.93246 | 8.45092 | 69° | 9km/h | 29674m | 6.2m/s | -44.4°C | 3.1% | 13.2hPa | 2.6V | 08:30:00 | 02:06:09 | 00:00:00 | |
| HSKMA3-T | 2026-09-03 12:24:06 | 50.93251 | 8.45101 | 90° | 4km/h | 29695m | 6.1m/s | -44.4°C | 0% | 13.2hPa | 2.7V | 18:12:15 | 02:06:13 | 00:00:00 | |
| DL1XH-west | 2026-09-03 12:24:04 | 50.93248 | 8.45095 | 54° | 9km/h | 29680m | 4.7m/s | -44.4°C | 0% | 13.2hPa | 2.6V | 18:12:15 | 02:06:10 | 00:00:00 | |
| BIOWL1-15 | 2026-09-03 12:24:02 | 50.93246 | 8.45083 | 89° | 13km/h | 29663m | 4.8m/s | -44.5°C | 0% | 13.2hPa | 2.7V | 18:12:15 | 02:06:07 | 00:00:00 | |
| DD1CC8 | 2026-09-03 12:24:01 | 50.93246 | 8.45083 | 88° | 13km/h | 29663m | 4.8m/s | -44.5°C | 0.7% | 13.2hPa | 2.6V | 00:00:00 | 00:00:00 | 00:00:00 | |
| EDDB2-11 | 2026-09-03 12:24:00 | 50.93246 | 8.45078 | 83° | 13km/h | 29658m | 5.1m/s | -44.6°C | 0.7% | 13.2hPa | 2.6V | 00:00:00 | 00:00:00 | 00:00:00 | |
| DO3MHA-12 | 2026-09-03 12:23:59 | 50.93246 | 8.45077 | 84° | 11km/h | 29659m | 5.1m/s | -44.6°C | 3.1% | 13.2hPa | 2.6V | 00:00:00 | 02:06:06 | 00:00:00 | |
| DL1XH1-15 | 2026-09-03 12:23:58 | 50.93242 | 8.45061 | 63° | 15km/h | 29641m | 4.8m/s | -44.5°C | 3.1% | 13.3hPa | 2.6V | 08:30:00 | 02:06:03 | 00:00:00 | |
| GOEST3-10 | 2026-09-03 12:23:57 | 50.93243 | 8.45066 | 66° | 11km/h | 29647m | 5.3m/s | -44.5°C | 3.1% | 13.2hPa | 2.7V | 00:00:00 | 02:06:04 | 00:00:00 | |
| DB0NH | 2026-09-03 12:23:56 | 50.93242 | 8.45060 | 64° | 9km/h | 29642m | 4.8m/s | -44.5°C | 3.1% | 13.2hPa | 2.7V | 00:00:00 | 02:06:03 | 00:00:00 | |
| DL1XH-15 | 2026-09-03 12:23:55 | 50.93242 | 8.45049 | 133° | 9km/h | 29625m | 4.5m/s | -44.7°C | 3.1% | 13.3hPa | 2.7V | 08:30:00 | 02:06:00 | 00:00:00 | |
| HSKMA3-T | 2026-09-03 12:23:55 | 50.93241 | 8.45056 | 77° | 11km/h | 29636m | 5.6m/s | -44.6°C | 0% | 13.3hPa | 2.6V | 18:12:15 | 02:06:02 | 00:00:00 | |
| SONCRA | 2026-09-03 12:23:55 | 50.93241 | 8.45052 | 106° | 7km/h | 29631m | 5.9m/s | -44.6°C | 0.7% | 13.3hPa | 2.7V | 00:00:00 | 00:00:00 | 00:00:00 | |
| DL1NUX | 2026-09-03 12:23:54 | 50.93244 | 8.45047 | 138° | 9km/h | 29621m | 4.3m/s | -44.7°C | 3.1% | 13.3hPa | 2.7V | 08:30:00 | 02:05:59 | 00:00:00 | |
| AA1-15 | 2026-09-03 12:23:53 | 50.93242 | 8.45049 | 133° | 9km/h | 29625m | 4.5m/s | -44.7°C | 0% | 13.3hPa | 2.7V | 18:12:15 | 02:06:00 | 00:00:00 | |
| DL1XH-west | 2026-09-03 12:23:52 | 50.93244 | 8.45047 | 139° | 9km/h | 29621m | 4.3m/s | -44.7°C | 0% | 13.3hPa | 2.7V | 18:12:15 | 02:05:59 | 00:00:00 | |
| BIOWL1-15 | 2026-09-03 12:23:49 | 50.93247 | 8.45037 | 94° | 9km/h | 29604m | 5.1m/s | -44.6°C | 0% | 13.3hPa | 2.6V | 18:12:15 | 02:05:56 | 00:00:00 | |
| DL8OAI-8 | 2026-09-03 12:23:49 | 50.93247 | 8.45037 | 95° | 9km/h | 29605m | 5.1m/s | -44.6°C | 0.7% | 13.3hPa | 2.7V | 00:00:00 | 00:00:00 | 00:00:00 | |
| DL8DAS-15 | 2026-09-03 12:23:48 | 50.93247 | 8.45037 | 95° | 9km/h | 29605m | 5.1m/s | -44.6°C | 0.7% | 13.3hPa | 2.7V | 00:00:00 | 00:00:00 | 00:00:00 | |
| DL1NUX | 2026-09-03 12:23:47 | 50.93248 | 8.45013 | 24° | 7km/h | 29567m | 5.4m/s | -44.8°C | 3.2% | 13.4hPa | 2.7V | 08:30:00 | 02:05:49 | 00:00:00 | |
| DF7PN | 2026-09-03 12:23:46 | 50.93249 | 8.45021 | 112° | 9km/h | 29583m | 4.6m/s | -44.9°C | 0.7% | 13.4hPa | 2.6V | 00:00:00 | 00:00:00 | 00:00:00 | |
| DL1XH-15 | 2026-09-03 12:23:45 | 50.93250 | 8.45015 | 63° | 7km/h | 29572m | 6.4m/s | -44.7°C | 3.2% | 13.4hPa | 2.6V | 08:30:00 | 02:05:50 | 00:00:00 | |
| HSKMA3-T | 2026-09-03 12:23:45 | 50.93249 | 8.45021 | 113° | 9km/h | 29583m | 4.6m/s | -44.9°C | 0.1% | 13.4hPa | 2.6V | 18:12:15 | 02:05:52 | 00:00:00 | |
| DL1XH-west | 2026-09-03 12:23:42 | 50.93248 | 8.45013 | 25° | 7km/h | 29567m | 5.4m/s | -44.8°C | 0% | 13.4hPa | 2.7V | 18:12:15 | 02:05:49 | 00:00:00 | |
| GOEST3-10 | 2026-09-03 12:23:41 | 50.93247 | 8.45012 | 358° | 7km/h | 29562m | 4.2m/s | -44.9°C | 3.2% | 13.4hPa | 2.7V | 00:00:00 | 00:00:00 | 00:00:00 | |
| AU51GT2 | 2026-09-03 12:23:40 | 50.93244 | 8.45015 | 289° | 4km/h | 29552m | 6.3m/s | -45.1°C | 0.7% | 13.5hPa | 2.7V | 00:00:00 | 00:00:00 | 00:00:00 | |
| DL3OBA | 2026-09-03 12:23:39 | 50.93244 | 8.45015 | 290° | 5km/h | 29552m | 6.3m/s | -45.1°C | 0.7% | 13.5hPa | 2.7V | 00:00:00 | 00:00:00 | 00:00:00 | |
| DO3DL | 2026-09-03 12:23:38 | 50.93244 | 8.45015 | 290° | 5km/h | 29552m | 6.3m/s | -45.1°C | 0.7% | 13.5hPa | 2.7V | 00:00:00 | 00:00:00 | 00:00:00 | |
| DL1XH1-15 | 2026-09-03 12:23:37 | 50.93246 | 8.45021 | 204° | 5km/h | 29536m | 4.4m/s | -44.9°C | 3.2% | 13.5hPa | 2.7V | 08:30:00 | 02:05:43 | 00:00:00 | |
| DL1XH-15 | 2026-09-03 12:23:36 | 50.93246 | 8.45017 | 60° | 9km/h | 29520m | 5.6m/s | -44.8°C | 3.2% | 13.5hPa | 2.6V | 08:30:00 | 02:05:40 | 00:00:00 | |
| HSKMA3-T | 2026-09-03 12:23:35 | 50.93247 | 8.45021 | 154° | 4km/h | 29531m | 5.6m/s | -44.9°C | 0% | 13.5hPa | 2.7V | 18:12:15 | 02:05:42 | 00:00:00 | |
| DJ2KF-10 | 2026-09-03 12:23:35 | 50.93247 | 8.45021 | 155° | 9km/h | 29532m | 5.5m/s | -44.8°C | 3.2% | 13.5hPa | 2.6V | 00:00:00 | 02:05:42 | 00:00:00 | |
| DL1NUX | 2026-09-03 12:23:34 | 50.93245 | 8.45013 | 62° | 11km/h | 29515m | 5m/s | -44.8°C | 3.1% | 13.5hPa | 2.6V | 08:30:00 | 02:05:39 | 00:00:00 | |
| DL9SK-14 | 2026-09-03 12:23:34 | 50.93247 | 8.45017 | 60° | 9km/h | 29520m | 5.6m/s | -44.8°C | 0.7% | 13.5hPa | 2.6V | 00:00:00 | 00:00:00 | 00:00:00 | |
| DL3AQ-11 | 2026-09-03 12:23:33 | 50.93245 | 8.45013 | 62° | 11km/h | 29515m | 5.0m/s | -44.8°C | 0.7% | 13.5hPa | 2.6V | 00:00:00 | 00:00:00 | 00:00:00 | |
| DO9LL-15 | 2026-09-03 12:23:32 | 50.93245 | 8.45013 | 63° | 9km/h | 29515m | 5.0m/s | -44.8°C | 3.1% | 13.5hPa | 2.6V | 00:00:00 | 02:05:39 | 08:30:00 | |
| DL1XH1-15 | 2026-09-03 12:23:31 | 50.93248 | 8.44992 | 109° | 7km/h | 29482m | 6m/s | -45.1°C | 3.2% | 13.6hPa | 2.6V | 08:30:00 | 02:05:33 | 00:00:00 | |
| AA1-15 | 2026-09-03 12:23:31 | 50.93244 | 8.45009 | 75° | 11km/h | 29510m | 5.1m/s | -44.9°C | 0% | 13.5hPa | 2.6V | 18:12:15 | 02:05:38 | 00:00:00 | |
| GOEST3-10 | 2026-09-03 12:23:31 | 50.93244 | 8.45009 | 76° | 9km/h | 29510m | 5.1m/s | -44.8°C | 3.1% | 13.5hPa | 2.6V | 00:00:00 | 00:00:00 | 00:00:00 | |
| DJ8HS-15 | 2026-09-03 12:23:30 | 50.93244 | 8.45005 | 96° | 9km/h | 29504m | 5.9m/s | -44.9°C | 3.1% | 13.5hPa | 2.7V | 00:00:00 | 02:05:37 | 00:00:00 | |
| EDDB2-11 | 2026-09-03 12:23:29 | 50.93246 | 8.44998 | 128° | 9km/h | 29494m | 4.5m/s | -45.0°C | 0.7% | 13.6hPa | 2.7V | 00:00:00 | 00:00:00 | 00:00:00 | |
| NBG1-10 | 2026-09-03 12:23:28 | 50.93246 | 8.44998 | 129° | 11km/h | 29494m | 4.4m/s | -45.0°C | 3.2% | 13.5hPa | 2.7V | 00:00:00 | 02:05:35 | 00:00:00 | |
| DB0NH | 2026-09-03 12:23:26 | 50.93248 | 8.44992 | 110° | 11km/h | 29483m | 6.0m/s | -45.1°C | 3.2% | 13.5hPa | 2.7V | 00:00:00 | 02:05:33 | 00:00:00 | |
| DL1XH-15 | 2026-09-03 12:23:25 | 50.93249 | 8.44985 | 107° | 5km/h | 29467m | 5.2m/s | -45°C | 3.2% | 13.6hPa | 2.7V | 08:30:00 | 02:05:30 | 00:00:00 | |
| BIOWL1-15 | 2026-09-03 12:23:25 | 50.93249 | 8.44990 | 90° | 7km/h | 29477m | 5.2m/s | -45.1°C | 0% | 13.6hPa | 2.6V | 18:12:15 | 02:05:32 | 00:00:00 | |
| SO1NDE-10 | 2026-09-03 12:23:25 | 50.93249 | 8.44990 | 90° | 11km/h | 29477m | 5.1m/s | -45.0°C | 3.2% | 13.6hPa | 2.6V | 00:00:00 | 02:05:32 | 00:00:00 | |
| DL1NUX | 2026-09-03 12:23:24 | 50.93250 | 8.44983 | 137° | 5km/h | 29461m | 6.3m/s | -44.9°C | 3.1% | 13.6hPa | 2.7V | 08:30:00 | 02:05:29 | 00:00:00 | |
| AA1-15 | 2026-09-03 12:23:20 | 50.93253 | 8.44980 | 150° | 7km/h | 29450m | 4.4m/s | -44.9°C | 0% | 13.7hPa | 2.6V | 18:12:15 | 02:05:27 | 00:00:00 | |
| GOEST3-10 | 2026-09-03 12:23:20 | 50.93253 | 8.44980 | 151° | 7km/h | 29450m | 4.3m/s | -44.8°C | 3.2% | 13.6hPa | 2.7V | 00:00:00 | 00:00:00 | 00:00:00 | |
| DO3MHA-12 | 2026-09-03 12:23:19 | 50.93254 | 8.44979 | 128° | 11km/h | 29446m | 5.3m/s | -44.8°C | 3.1% | 13.6hPa | 2.7V | 00:00:00 | 02:05:26 | 00:00:00 | |
| DL3OBA | 2026-09-03 12:23:18 | 50.93254 | 8.44979 | 128° | 5km/h | 29446m | 5.4m/s | -44.9°C | 0.7% | 13.7hPa | 2.7V | 00:00:00 | 00:00:00 | 00:00:00 | |
| DL1XH1-15 | 2026-09-03 12:23:17 | 50.93253 | 8.44971 | 59° | 11km/h | 29429m | 4.6m/s | -45°C | 3.2% | 13.7hPa | 2.7V | 08:30:00 | 02:05:23 | 00:00:00 | |
| DM0DOS-11 | 2026-09-03 12:23:17 | 50.93251 | 8.44967 | 72° | 11km/h | 29423m | 6.2m/s | -44.9°C | 3.2% | 13.7hPa | 2.6V | 08:30:00 | 02:05:22 | 00:00:00 | |
| BIOWL9-15 | 2026-09-03 12:23:16 | 50.93253 | 8.44971 | 59° | 9km/h | 29429m | 4.6m/s | -45.0°C | 0.7% | 13.7hPa | 2.6V | 00:00:00 | 00:00:00 | 00:00:00 | |
| DL1XH-15 | 2026-09-03 12:23:15 | 50.93251 | 8.44957 | 103° | 15km/h | 29412m | 5m/s | -44.9°C | 3.2% | 13.7hPa | 2.6V | 08:30:00 | 02:05:20 | 00:00:00 | |
| DL1NUX | 2026-09-03 12:23:14 | 50.93253 | 8.44951 | 103° | 16km/h | 29407m | 4.6m/s | -45°C | 3.2% | 13.7hPa | 2.7V | 08:30:00 | 02:05:19 | 00:00:00 | |
| HSKMA3-T | 2026-09-03 12:23:14 | 50.93251 | 8.44963 | 91° | 13km/h | 29417m | 6m/s | -44.9°C | 0% | 13.7hPa | 2.6V | 18:12:15 | 02:05:21 | 00:00:00 | |
| DO3MHA-11 | 2026-09-03 12:23:13 | 50.93251 | 8.44957 | 104° | 11km/h | 29412m | 5.0m/s | -44.9°C | 3.2% | 13.7hPa | 2.7V | 00:00:00 | 02:05:20 | 00:00:00 | |
| DB0DAN | 2026-09-03 12:23:10 | 50.93253 | 8.44938 | 86° | 15km/h | 29396m | 6.3m/s | -45°C | 0.7% | 13.76hPa | 2.7V | 00:00:00 | 00:00:00 | 00:00:00 | |
| DL1XH-west | 2026-09-03 12:23:10 | 50.93253 | 8.44938 | 86° | 15km/h | 29396m | 6.3m/s | -45°C | 0% | 13.8hPa | 2.7V | 18:12:15 | 02:05:17 | 00:00:00 | |
| AA1-15 | 2026-09-03 12:23:09 | 50.93253 | 8.44933 | 75° | 13km/h | 29390m | 5.5m/s | -44.9°C | 0% | 13.8hPa | 2.6V | 18:12:15 | 02:05:16 | 00:00:00 | |
| DO3MHA-12 | 2026-09-03 12:23:09 | 50.93253 | 8.44933 | 76° | 9km/h | 29390m | 5.4m/s | -44.9°C | 3.2% | 13.7hPa | 2.6V | 00:00:00 | 02:05:16 | 08:30:00 | |
| DL1XH1-15 | 2026-09-03 12:23:07 | 50.93251 | 8.44923 | 112° | 5km/h | 29374m | 6m/s | -45.1°C | 3.2% | 13.8hPa | 2.7V | 08:30:00 | 02:05:13 | 00:00:00 | |
| DL1NUX | 2026-09-03 12:23:07 | 50.93252 | 8.44916 | 54° | 11km/h | 29354m | 6.2m/s | -45.3°C | 3.2% | 13.8hPa | 2.6V | 08:30:00 | 02:05:09 | 00:00:00 | |
| DM0DOS-11 | 2026-09-03 12:23:05 | 50.93252 | 8.44922 | 144° | 4km/h | 29368m | 4.8m/s | -45.1°C | 3.2% | 13.8hPa | 2.7V | 08:30:00 | 02:05:12 | 00:00:00 | |
| BIOWL1-15 | 2026-09-03 12:23:04 | 50.93252 | 8.44916 | 54° | 11km/h | 29354m | 6.2m/s | -45.3°C | 0% | 13.8hPa | 2.6V | 18:12:15 | 02:05:09 | 00:00:00 | |
| HSKMA3-T | 2026-09-03 12:23:03 | 50.93253 | 8.44919 | 75° | 5km/h | 29360m | 5m/s | -45.3°C | 0% | 13.8hPa | 2.6V | 18:12:15 | 02:05:10 | 00:00:00 | |
| DO3MHA-11 | 2026-09-03 12:23:03 | 50.93253 | 8.44919 | 75° | 18km/h | 29360m | 5.0m/s | -45.2°C | 3.2% | 13.8hPa | 2.6V | 00:00:00 | 02:05:10 | 08:30:00 | |
| DL8DAS-14 | 2026-09-03 12:23:02 | 50.93250 | 8.44912 | 52° | 16km/h | 29348m | 5.6m/s | -45.4°C | 0.7% | 13.9hPa | 2.7V | 00:00:00 | 00:00:00 | 00:00:00 | |
| DM0DOS-11 | 2026-09-03 12:23:00 | 50.93240 | 8.44852 | 79° | 15km/h | 29309m | 6.4m/s | -45.7°C | 3.3% | 13.9hPa | 2.7V | 08:30:00 | 02:05:01 | 00:00:00 | |
| AA1-15 | 2026-09-03 12:22:59 | 50.93244 | 8.44897 | 66° | 26km/h | 29337m | 5.7m/s | -45.3°C | 0.1% | 13.9hPa | 2.7V | 18:12:15 | 02:05:06 | 00:00:00 | |
| EDDB2-11 | 2026-09-03 12:22:58 | 50.93241 | 8.44876 | 86° | 26km/h | 29325m | 5.0m/s | -45.4°C | 0.7% | 13.9hPa | 2.6V | 00:00:00 | 00:00:00 | 00:00:00 | |
| WPPR-10 | 2026-09-03 12:22:57 | 50.93237 | 8.44843 | 76° | 4km/h | 29286m | 5.6m/s | -45.5°C | 0.7% | 14.0hPa | 2.6V | 00:00:00 | 00:00:00 | 00:00:00 | |
| DB0DAN | 2026-09-03 12:22:55 | 50.93241 | 8.44858 | 88° | 18km/h | 29315m | 6.1m/s | -45.7°C | 0.7% | 13.91hPa | 2.6V | 00:00:00 | 00:00:00 | 00:00:00 | |
| BIOWL1-15 | 2026-09-03 12:22:52 | 50.93238 | 8.44845 | 47° | 5km/h | 29298m | 5.6m/s | -45.5°C | 0.1% | 14hPa | 2.7V | 18:12:15 | 02:04:59 | 00:00:00 | |
| AA1-15 | 2026-09-03 12:22:49 | 50.93237 | 8.44840 | 84° | 7km/h | 29281m | 4.4m/s | -45.5°C | 0.1% | 14hPa | 2.6V | 18:12:15 | 02:04:56 | 00:00:00 | |
| DM0DOS-11 | 2026-09-03 12:22:49 | 50.93225 | 8.44814 | 45° | 22km/h | 29254m | 4.8m/s | -45.5°C | 3.3% | 14.1hPa | 2.6V | 08:30:00 | 02:04:51 | 00:00:00 | |
| DD8BA-10 | 2026-09-03 12:22:49 | 50.93237 | 8.44840 | 84° | 15km/h | 29281m | 4.4m/s | -45.5°C | 3.3% | 14.0hPa | 2.7V | 00:00:00 | 00:00:00 | 00:00:00 | |
| GOEST3-10 | 2026-09-03 12:22:48 | 50.93236 | 8.44837 | 72° | 18km/h | 29277m | 4.2m/s | -45.6°C | 3.3% | 14.0hPa | 2.7V | 00:00:00 | 00:00:00 | 00:00:00 | |
| DL8DAS-15 | 2026-09-03 12:22:47 | 50.93235 | 8.44832 | 60° | 15km/h | 29271m | 6.0m/s | -45.7°C | 0.8% | 14.0hPa | 2.7V | 00:00:00 | 00:00:00 | 00:00:00 | |
| DL1XH-15 | 2026-09-03 12:22:45 | 50.93219 | 8.44803 | 57° | 15km/h | 29243m | 5.7m/s | -45.5°C | 3.3% | 14.1hPa | 2.7V | 08:30:00 | 02:04:49 | 00:00:00 | |
| BIOWL1-15 | 2026-09-03 12:22:41 | 50.93216 | 8.44795 | 40° | 2km/h | 29228m | 6.1m/s | -45.5°C | 0.1% | 14.1hPa | 2.6V | 18:12:15 | 02:04:46 | 00:00:00 | |
| DL1XH1-15 | 2026-09-03 12:22:41 | 50.93212 | 8.44796 | 354° | 9km/h | 29211m | 5m/s | -45.4°C | 3.2% | 14.2hPa | 2.7V | 08:30:00 | 02:04:43 | 00:00:00 | |
| HSKMA3-T | 2026-09-03 12:22:41 | 50.93217 | 8.44799 | 69° | 9km/h | 29237m | 4.7m/s | -45.5°C | 0% | 14.1hPa | 2.7V | 18:12:15 | 02:04:48 | 00:00:00 | |
| DB0DAN | 2026-09-03 12:22:40 | 50.93217 | 8.44797 | 78° | 4km/h | 29233m | 4.7m/s | -45.5°C | 0.7% | 14.11hPa | 2.7V | 00:00:00 | 00:00:00 | 00:00:00 | |
| AA1-15 | 2026-09-03 12:22:39 | 50.93214 | 8.44796 | 347° | 7km/h | 29216m | 5.2m/s | -45.5°C | 0% | 14.2hPa | 2.6V | 18:12:15 | 02:04:44 | 00:00:00 | |
| DL1XH-west | 2026-09-03 12:22:39 | 50.93216 | 8.44795 | 349° | 4km/h | 29221m | 5.9m/s | -45.5°C | 0% | 14.1hPa | 2.6V | 18:12:15 | 02:04:45 | 00:00:00 | |
| DL8OAI-8 | 2026-09-03 12:22:39 | 50.93216 | 8.44795 | 41° | 2km/h | 29228m | 6.1m/s | -45.5°C | 0.8% | 14.1hPa | 2.7V | 00:00:00 | 00:00:00 | 00:00:00 | |
| DM0DOS-11 | 2026-09-03 12:22:38 | 50.93209 | 8.44795 | 47° | 7km/h | 29200m | 6.2m/s | -45.4°C | 3.2% | 14.2hPa | 2.7V | 08:30:00 | 02:04:41 | 00:00:00 | |
| HSKMA3-T | 2026-09-03 12:22:31 | 50.93205 | 8.44781 | 66° | 16km/h | 29184m | 6.1m/s | -45.7°C | 0% | 14.2hPa | 2.6V | 18:12:15 | 02:04:38 | 00:00:00 | |
| BIOWL1-15 | 2026-09-03 12:22:30 | 50.93203 | 8.44775 | 58° | 20km/h | 29178m | 6.3m/s | -45.8°C | 0% | 14.2hPa | 2.7V | 18:12:15 | 02:04:37 | 00:00:00 | |
| DL1XH-west | 2026-09-03 12:22:28 | 50.93197 | 8.44762 | 54° | 20km/h | 29167m | 5.1m/s | -45.9°C | 0.1% | 14.2hPa | 2.7V | 18:12:15 | 02:04:35 | 00:00:00 | |
| DL1XH1-15 | 2026-09-03 12:22:28 | 50.93193 | 8.44750 | 69° | 13km/h | 29155m | 5.5m/s | -45.8°C | 3.2% | 14.3hPa | 2.6V | 08:30:00 | 02:04:33 | 00:00:00 | |
| DM0DOS-11 | 2026-09-03 12:22:27 | 50.93192 | 8.44743 | 57° | 7km/h | 29144m | 5.5m/s | -45.9°C | 3.2% | 14.3hPa | 2.7V | 08:30:00 | 02:04:31 | 00:00:00 | |
| HSKMA3-T | 2026-09-03 12:22:20 | 50.93185 | 8.44740 | 25° | 5km/h | 29123m | 5.8m/s | -46.1°C | 0.1% | 14.3hPa | 2.7V | 18:12:15 | 02:04:27 | 00:00:00 | |
| BIOWL1-15 | 2026-09-03 12:22:20 | 50.93170 | 8.44696 | 62° | 20km/h | 29078m | 5.9m/s | -46.4°C | 0.1% | 14.5hPa | 2.7V | 18:12:15 | 02:04:19 | 00:00:00 | |
| AA1-15 | 2026-09-03 12:22:18 | 50.93184 | 8.44735 | 78° | 9km/h | 29111m | 5m/s | -46.3°C | 0.1% | 14.4hPa | 2.6V | 18:12:15 | 02:04:25 | 00:00:00 | |
| DL1XH-west | 2026-09-03 12:22:17 | 50.93183 | 8.44731 | 73° | 13km/h | 29106m | 4.8m/s | -46.3°C | 0.1% | 14.4hPa | 2.6V | 18:12:15 | 02:04:24 | 00:00:00 | |
| DL1NUX | 2026-09-03 12:22:13 | 50.93170 | 8.44696 | 61° | 20km/h | 29077m | 5.9m/s | -46.3°C | 3.4% | 14.5hPa | 2.7V | 08:30:00 | 02:04:19 | 00:00:00 | |
| HSKMA3-T | 2026-09-03 12:22:10 | 50.93167 | 8.44684 | 77° | 11km/h | 29067m | 4.3m/s | -46.2°C | 0.1% | 14.5hPa | 2.6V | 18:12:15 | 02:04:17 | 00:00:00 | |
| DJ8HS-15 | 2026-09-03 12:22:10 | 50.93167 | 8.44684 | 77° | 11km/h | 29068m | 4.2m/s | -46.2°C | 3.4% | 14.4hPa | 2.6V | 00:00:00 | 02:04:17 | 00:00:00 | |
| DO3MHA-12 | 2026-09-03 12:22:09 | 50.93166 | 8.44680 | 71° | 9km/h | 29062m | 5.6m/s | -46.2°C | 3.4% | 14.4hPa | 2.6V | 00:00:00 | 02:04:16 | 00:00:00 | |
| DL1XH1-15 | 2026-09-03 12:22:07 | 50.93161 | 8.44677 | 348° | 9km/h | 29045m | 5.4m/s | -46.2°C | 3.4% | 14.5hPa | 2.6V | 08:30:00 | 02:04:13 | 00:00:00 | |
| AA1-15 | 2026-09-03 12:22:07 | 50.93163 | 8.44677 | 1° | 7km/h | 29050m | 5.6m/s | -46.2°C | 0.1% | 14.5hPa | 2.7V | 18:12:15 | 02:04:14 | 00:00:00 | |
| DL1NUX | 2026-09-03 12:22:07 | 50.93155 | 8.44676 | 35° | 9km/h | 29023m | 4.2m/s | -46.3°C | 3.3% | 14.6hPa | 2.6V | 08:30:00 | 02:04:09 | 00:00:00 | |
| DL1XH-west | 2026-09-03 12:22:07 | 50.93161 | 8.44677 | 349° | 9km/h | 29045m | 5.4m/s | -46.3°C | 0.2% | 14.5hPa | 2.6V | 18:12:15 | 02:04:13 | 00:00:00 | |
| DL4BBY-15 | 2026-09-03 12:22:06 | 50.93161 | 8.44677 | 349° | 13km/h | 29045m | 5.3m/s | -48.5°C | 0% | 0hPa | 2.6V | 00:00:00 | 00:00:00 | 00:00:00 | |
| DJ2KF-10 | 2026-09-03 12:22:05 | 50.93159 | 8.44678 | 351° | 13km/h | 29039m | 5.9m/s | -46.2°C | 3.3% | 14.5hPa | 2.6V | 00:00:00 | 02:04:12 | 00:00:00 | |
| DL1XH-15 | 2026-09-03 12:22:02 | 50.93152 | 8.44673 | 33° | 13km/h | 29018m | 6m/s | -46.4°C | 3.4% | 14.6hPa | 2.6V | 08:30:00 | 02:04:08 | 00:00:00 | |
| DL1XH1-15 | 2026-09-03 12:22:02 | 50.93135 | 8.44654 | 52° | 15km/h | 28990m | 5m/s | -46.4°C | 3.3% | 14.7hPa | 2.7V | 08:30:00 | 02:04:03 | 00:00:00 | |
| BIOWL1-15 | 2026-09-03 12:22:02 | 50.93152 | 8.44673 | 33° | 13km/h | 29018m | 6m/s | -46.4°C | 0.1% | 14.6hPa | 2.6V | 18:12:15 | 02:04:08 | 00:00:00 | |
| HSKMA3-T | 2026-09-03 12:21:59 | 50.93145 | 8.44667 | 29° | 20km/h | 29006m | 5.2m/s | -46.3°C | 0.1% | 14.6hPa | 2.7V | 18:12:15 | 02:04:06 | 00:00:00 | |
| AA1-15 | 2026-09-03 12:21:56 | 50.93133 | 8.44650 | 55° | 11km/h | 28985m | 4.3m/s | -46.4°C | 0.1% | 14.7hPa | 2.7V | 18:12:15 | 02:04:02 | 00:00:00 | |
| DL1XH-west | 2026-09-03 12:21:56 | 50.93134 | 8.44654 | 53° | 15km/h | 28990m | 5m/s | -46.4°C | 0.1% | 14.7hPa | 2.7V | 18:12:15 | 02:04:03 | 00:00:00 | |
| EDDB2-11 | 2026-09-03 12:21:56 | 50.93133 | 8.44650 | 54° | 11km/h | 28985m | 4.3m/s | -46.4°C | 0.7% | 14.7hPa | 2.7V | 00:00:00 | 00:00:00 | 00:00:00 | |
| DL1XH-15 | 2026-09-03 12:21:55 | 50.93123 | 8.44641 | 13° | 11km/h | 28963m | 5.2m/s | -46.5°C | 3.4% | 14.7hPa | 2.7V | 08:30:00 | 02:03:58 | 00:00:00 | |
| WPPR-10 | 2026-09-03 12:21:55 | 50.93117 | 8.44636 | 60° | 7km/h | 28946m | 5.0m/s | -46.5°C | 0.8% | 14.7hPa | 2.6V | 00:00:00 | 00:00:00 | 00:00:00 | |
| DL1NUX | 2026-09-03 12:21:54 | 50.93126 | 8.44642 | 15° | 13km/h | 28968m | 5.5m/s | -46.5°C | 3.4% | 14.7hPa | 2.6V | 08:30:00 | 02:03:59 | 00:00:00 | |
| HSKMA3-T | 2026-09-03 12:21:49 | 50.93119 | 8.44638 | 39° | 7km/h | 28951m | 6m/s | -46.6°C | 0.2% | 14.7hPa | 2.7V | 18:12:15 | 02:03:56 | 00:00:00 | |
| DL1XH1-15 | 2026-09-03 12:21:47 | 50.93114 | 8.44628 | 49° | 13km/h | 28936m | 6m/s | -46.6°C | 3.4% | 14.8hPa | 2.6V | 08:30:00 | 02:03:53 | 00:00:00 | |
| DL1XH-west | 2026-09-03 12:21:46 | 50.93112 | 8.44624 | 40° | 16km/h | 28930m | 6.3m/s | -46.6°C | 0.2% | 14.8hPa | 2.7V | 18:12:15 | 02:03:52 | 00:00:00 | |
| DL1XH-15 | 2026-09-03 12:21:46 | 50.93097 | 8.44604 | 50° | 18km/h | 28908m | 5.4m/s | -46.6°C | 3.4% | 14.8hPa | 2.6V | 08:30:00 | 02:03:48 | 00:00:00 | |
| DL3AQ-11 | 2026-09-03 12:21:46 | 50.93112 | 8.44624 | 39° | 16km/h | 28930m | 6.3m/s | -46.6°C | 0.8% | 14.8hPa | 2.7V | 00:00:00 | 00:00:00 | 00:00:00 | |
| AA1-15 | 2026-09-03 12:21:44 | 50.93108 | 8.44620 | 37° | 20km/h | 28924m | 5.4m/s | -46.6°C | 0.2% | 14.8hPa | 2.7V | 18:12:15 | 02:03:51 | 00:00:00 | |
| DL1NUX | 2026-09-03 12:21:43 | 50.93100 | 8.44609 | 42° | 20km/h | 28913m | 6.2m/s | -46.7°C | 3.4% | 14.8hPa | 2.6V | 08:30:00 | 02:03:49 | 00:00:00 | |
| GOEST3-10 | 2026-09-03 12:21:43 | 50.93104 | 8.44614 | 38° | 18km/h | 28919m | 4.9m/s | -46.6°C | 3.4% | 14.8hPa | 2.7V | 00:00:00 | 02:03:50 | 00:00:00 | |
| DO3MHA-11 | 2026-09-03 12:21:42 | 50.93100 | 8.44609 | 43° | 16km/h | 28914m | 6.2m/s | -46.6°C | 3.4% | 14.8hPa | 2.6V | 00:00:00 | 02:03:49 | 00:00:00 | |
| DL1XH1-15 | 2026-09-03 12:21:41 | 50.93081 | 8.44583 | 27° | 15km/h | 28880m | 4.5m/s | -46.7°C | 3.4% | 14.9hPa | 2.6V | 08:30:00 | 02:03:43 | 00:00:00 | |
| DB0DAN | 2026-09-03 12:21:40 | 50.93094 | 8.44599 | 51° | 16km/h | 28902m | 4.9m/s | -46.7°C | 0.8% | 14.83hPa | 2.6V | 00:00:00 | 00:00:00 | 00:00:00 | |
| BIOWL1-15 | 2026-09-03 12:21:40 | 50.93094 | 8.44599 | 51° | 16km/h | 28902m | 4.9m/s | -46.7°C | 0.2% | 14.8hPa | 2.6V | 18:12:15 | 02:03:47 | 00:00:00 | |
| DM0DOS-11 | 2026-09-03 12:21:39 | 50.93076 | 8.44577 | 50° | 13km/h | 28869m | 6m/s | -46.7°C | 3.5% | 14.9hPa | 2.6V | 08:30:00 | 02:03:41 | 00:00:00 | |
| HSKMA3-T | 2026-09-03 12:21:39 | 50.93091 | 8.44594 | 45° | 16km/h | 28897m | 5.5m/s | -46.7°C | 0.2% | 14.9hPa | 2.7V | 18:12:15 | 02:03:46 | 00:00:00 | |
| DO3MHA-12 | 2026-09-03 12:21:39 | 50.93091 | 8.44593 | 45° | 16km/h | 28897m | 5.5m/s | -46.7°C | 3.4% | 14.8hPa | 2.7V | 00:00:00 | 02:03:46 | 08:30:00 | |
| DD8BA-10 | 2026-09-03 12:21:38 | 50.93088 | 8.44589 | 36° | 18km/h | 28892m | 6.3m/s | -46.6°C | 3.5% | 14.8hPa | 2.7V | 00:00:00 | 00:00:00 | 00:00:00 | |
| AU51GT2 | 2026-09-03 12:21:36 | 50.93078 | 8.44580 | 34° | 13km/h | 28876m | 5.7m/s | -46.7°C | 0.8% | 14.9hPa | 2.7V | 00:00:00 | 00:00:00 | 00:00:00 | |
| DL1XH-15 | 2026-09-03 12:21:35 | 50.93069 | 8.44560 | 51° | 20km/h | 28854m | 6.2m/s | -46.7°C | 3.5% | 14.9hPa | 2.7V | 08:30:00 | 02:03:38 | 00:00:00 | |
| DL1XH-west | 2026-09-03 12:21:35 | 50.93078 | 8.44580 | 35° | 13km/h | 28876m | 5.7m/s | -46.7°C | 0.2% | 14.9hPa | 2.6V | 18:12:15 | 02:03:42 | 00:00:00 | |
| AA1-15 | 2026-09-03 12:21:33 | 50.93074 | 8.44572 | 62° | 15km/h | 28864m | 4.9m/s | -46.7°C | 0.2% | 14.9hPa | 2.7V | 18:12:15 | 02:03:40 | 00:00:00 | |
| BIOWL1-15 | 2026-09-03 12:21:29 | 50.93059 | 8.44546 | 38° | 31km/h | 28842m | 5.7m/s | -46.7°C | 0.2% | 15hPa | 2.6V | 18:12:15 | 02:03:36 | 00:00:00 | |
| HSKMA3-T | 2026-09-03 12:21:28 | 50.93053 | 8.44539 | 38° | 33km/h | 28837m | 5.2m/s | -46.7°C | 0.2% | 15hPa | 2.6V | 18:12:15 | 02:03:35 | 00:00:00 | |
| DL1XH1-15 | 2026-09-03 12:21:27 | 50.93041 | 8.44522 | 44° | 29km/h | 28825m | 5.5m/s | -46.5°C | 3.4% | 15hPa | 2.7V | 08:30:00 | 02:03:33 | 00:00:00 | |
| DM0DOS-11 | 2026-09-03 12:21:27 | 50.93031 | 8.44507 | 43° | 24km/h | 28815m | 5.7m/s | -46.5°C | 3.4% | 15hPa | 2.6V | 08:30:00 | 02:03:31 | 00:00:00 | |
| DB0NH | 2026-09-03 12:21:26 | 50.93041 | 8.44522 | 45° | 22km/h | 28826m | 5.5m/s | -46.5°C | 3.4% | 15.0hPa | 2.7V | 00:00:00 | 02:03:33 | 00:00:00 | |
| DL1XH-15 | 2026-09-03 12:21:25 | 50.93019 | 8.44493 | 31° | 18km/h | 28797m | 5.3m/s | -46.5°C | 3.4% | 15.1hPa | 2.7V | 08:30:00 | 02:03:28 | 00:00:00 | |
| DL1XH-west | 2026-09-03 12:21:25 | 50.93031 | 8.44507 | 43° | 24km/h | 28815m | 5.7m/s | -46.5°C | 0.2% | 15.1hPa | 2.6V | 18:12:15 | 02:03:31 | 00:00:00 | |
| AA1-15 | 2026-09-03 12:21:23 | 50.93027 | 8.44501 | 38° | 22km/h | 28809m | 6.3m/s | -46.5°C | 0.2% | 15.1hPa | 2.6V | 18:12:15 | 02:03:30 | 00:00:00 | |
| DO3MHA-11 | 2026-09-03 12:21:22 | 50.93023 | 8.44497 | 31° | 22km/h | 28803m | 5.6m/s | -46.4°C | 3.4% | 15.0hPa | 2.6V | 00:00:00 | 02:03:29 | 00:00:00 | |
| DL1XH1-15 | 2026-09-03 12:21:21 | 50.93001 | 8.44467 | 36° | 24km/h | 28769m | 6.5m/s | -46.4°C | 3.4% | 15.2hPa | 2.6V | 08:30:00 | 02:03:23 | 00:00:00 | |
| BIOWL1-15 | 2026-09-03 12:21:21 | 50.92990 | 8.44455 | 33° | 29km/h | 28758m | 5.1m/s | -46.5°C | 0.2% | 15.2hPa | 2.7V | 18:12:15 | 02:03:21 | 00:00:00 | |
| HSKMA3-T | 2026-09-03 12:21:17 | 50.93006 | 8.44473 | 43° | 22km/h | 28776m | 5.7m/s | -46.5°C | 0.2% | 15.1hPa | 2.6V | 18:12:15 | 02:03:24 | 00:00:00 | |
| DL1XH-15 | 2026-09-03 12:21:15 | 50.92969 | 8.44432 | 29° | 20km/h | 28738m | 4.7m/s | -46.4°C | 3.3% | 15.2hPa | 2.6V | 08:30:00 | 02:03:17 | 00:00:00 | |
| DM0DOS-11 | 2026-09-03 12:21:15 | 50.92990 | 8.44455 | 32° | 29km/h | 28758m | 5.1m/s | -46.5°C | 3.4% | 15.2hPa | 2.7V | 08:30:00 | 02:03:21 | 00:00:00 | |
| DL1NUX | 2026-09-03 12:21:14 | 50.92978 | 8.44443 | 38° | 26km/h | 28747m | 5.1m/s | -46.3°C | 3.3% | 15.2hPa | 2.6V | 08:30:00 | 02:03:19 | 00:00:00 | |
| AA1-15 | 2026-09-03 12:21:13 | 50.92984 | 8.44449 | 36° | 27km/h | 28753m | 6.1m/s | -46.5°C | 0.2% | 15.2hPa | 2.7V | 18:12:15 | 02:03:20 | 00:00:00 | |
| DO3DL | 2026-09-03 12:21:12 | 50.92978 | 8.44442 | 40° | 26km/h | 28748m | 5.1m/s | -46.3°C | 0.7% | 15.2hPa | 2.6V | 00:00:00 | 00:00:00 | 00:00:00 | |
| DJ2DS-15 | 2026-09-03 12:21:10 | 50.92969 | 8.44432 | 30° | 20km/h | 28738m | 4.7m/s | -46.4°C | 3.3% | 15.1hPa | 2.6V | 00:00:00 | 02:03:17 | 00:00:00 | |
| DM0DOS-11 | 2026-09-03 12:21:09 | 50.92939 | 8.44420 | 35° | 20km/h | 28704m | 5.7m/s | -46.5°C | 3.4% | 15.3hPa | 2.6V | 08:30:00 | 02:03:11 | 00:00:00 | |
| HSKMA3-T | 2026-09-03 12:21:07 | 50.92954 | 8.44426 | 4° | 22km/h | 28721m | 5.1m/s | -46.4°C | 0.1% | 15.2hPa | 2.7V | 18:12:15 | 02:03:14 | 00:00:00 | |
| DL4BBY-15 | 2026-09-03 12:21:06 | 50.92949 | 8.44425 | 10° | 18km/h | 28716m | 4.6m/s | -48.6°C | 0% | 0hPa | 2.6V | 00:00:00 | 00:00:00 | 00:00:00 | |
| DL1XH-15 | 2026-09-03 12:21:05 | 50.92923 | 8.44400 | 29° | 20km/h | 28681m | 5.5m/s | -46.2°C | 3.3% | 15.4hPa | 2.6V | 08:30:00 | 02:03:07 | 00:00:00 | |
| DJ2KF-10 | 2026-09-03 12:21:05 | 50.92944 | 8.44423 | 20° | 18km/h | 28711m | 6.4m/s | -46.4°C | 3.4% | 15.2hPa | 2.7V | 00:00:00 | 02:03:12 | 00:00:00 | |
| DL1NUX | 2026-09-03 12:21:04 | 50.92932 | 8.44409 | 41° | 20km/h | 28693m | 5.9m/s | -46.4°C | 3.4% | 15.3hPa | 2.7V | 08:30:00 | 02:03:09 | 00:00:00 | |
| DL1XH-west | 2026-09-03 12:21:03 | 50.92936 | 8.44415 | 42° | 20km/h | 28699m | 5m/s | -46.5°C | 0.2% | 15.3hPa | 2.7V | 18:12:15 | 02:03:10 | 00:00:00 | |
| AA1-15 | 2026-09-03 12:21:02 | 50.92932 | 8.44409 | 41° | 20km/h | 28693m | 5.9m/s | -46.4°C | 0.1% | 15.3hPa | 2.7V | 18:12:15 | 02:03:09 | 00:00:00 | |
| HSKMA3-T | 2026-09-03 12:20:56 | 50.92908 | 8.44388 | 15° | 16km/h | 28659m | 4.7m/s | -46.4°C | 0.1% | 15.4hPa | 2.7V | 18:12:15 | 02:03:03 | 00:00:00 | |
| DD1CC8 | 2026-09-03 12:20:54 | 50.92899 | 8.44387 | 351° | 20km/h | 28648m | 6.4m/s | -46.4°C | 0.8% | 15.5hPa | 2.6V | 00:00:00 | 00:00:00 | 00:00:00 | |
| DL1NUX | 2026-09-03 12:20:53 | 50.92887 | 8.44390 | 355° | 22km/h | 28637m | 5.2m/s | -46.6°C | 3.4% | 15.4hPa | 2.6V | 08:30:00 | 02:02:59 | 00:00:00 | |
| DL1XH-west | 2026-09-03 12:20:53 | 50.92893 | 8.44388 | 350° | 24km/h | 28642m | 5m/s | -46.5°C | 0.2% | 15.5hPa | 2.6V | 18:12:15 | 02:03:00 | 00:00:00 | |
| BIOWL1-15 | 2026-09-03 12:20:52 | 50.92888 | 8.44390 | 355° | 22km/h | 28637m | 5.2m/s | -46.6°C | 0.2% | 15.4hPa | 2.6V | 18:12:15 | 02:02:59 | 00:00:00 | |
| AA1-15 | 2026-09-03 12:20:51 | 50.92882 | 8.44390 | 6° | 22km/h | 28631m | 6.1m/s | -46.7°C | 0.2% | 15.5hPa | 2.7V | 18:12:15 | 02:02:58 | 00:00:00 | |
| DJ8HS-15 | 2026-09-03 12:20:50 | 50.92877 | 8.44388 | 20° | 16km/h | 28626m | 5.2m/s | -46.6°C | 3.5% | 15.4hPa | 2.7V | 00:00:00 | 02:02:57 | 00:00:00 | |
| DM0DOS-11 | 2026-09-03 12:20:49 | 50.92848 | 8.44366 | 30° | 16km/h | 28592m | 6.5m/s | -46.6°C | 3.5% | 15.6hPa | 2.6V | 08:30:00 | 02:02:51 | 00:00:00 | |
| HSKMA3-T | 2026-09-03 12:20:46 | 50.92857 | 8.44373 | 25° | 22km/h | 28603m | 5.3m/s | -46.5°C | 0.2% | 15.5hPa | 2.7V | 18:12:15 | 02:02:53 | 00:00:00 | |
| DO3DL | 2026-09-03 12:20:45 | 50.92856 | 8.44373 | 26° | 22km/h | 28603m | 5.3m/s | -46.5°C | 0.8% | 15.5hPa | 2.7V | 00:00:00 | 00:00:00 | 00:00:00 | |
| DL1NUX | 2026-09-03 12:20:44 | 50.92842 | 8.44361 | 8° | 11km/h | 28581m | 4.2m/s | -46.3°C | 3.5% | 15.6hPa | 2.7V | 08:30:00 | 02:02:49 | 00:00:00 | |
| DL1XH-15 | 2026-09-03 12:20:44 | 50.92833 | 8.44368 | 321° | 20km/h | 28564m | 5.5m/s | -46°C | 3.4% | 15.6hPa | 2.7V | 08:30:00 | 02:02:46 | 00:00:00 | |
| DL1XH-west | 2026-09-03 12:20:43 | 50.92845 | 8.44363 | 29° | 13km/h | 28586m | 5.2m/s | -46.5°C | 0.3% | 15.6hPa | 2.7V | 18:12:15 | 02:02:50 | 00:00:00 | |
| BIOWL1-15 | 2026-09-03 12:20:42 | 50.92832 | 8.44368 | 321° | 20km/h | 28564m | 5.5m/s | -46°C | 0.2% | 15.6hPa | 2.7V | 18:12:15 | 02:02:46 | 00:00:00 | |
| AA1-15 | 2026-09-03 12:20:41 | 50.92839 | 8.44361 | 344° | 11km/h | 28576m | 5.9m/s | -46.2°C | 0.2% | 15.6hPa | 2.6V | 18:12:15 | 02:02:48 | 00:00:00 | |
| HSKMA3-T | 2026-09-03 12:20:36 | 50.92818 | 8.44379 | 15° | 13km/h | 28542m | 5.6m/s | -46°C | 0.1% | 15.7hPa | 2.6V | 18:12:15 | 02:02:42 | 00:00:00 | |
| DM0DOS-11 | 2026-09-03 12:20:35 | 50.92815 | 8.44377 | 27° | 15km/h | 28537m | 6m/s | -46°C | 3.3% | 15.7hPa | 2.7V | 08:30:00 | 02:02:41 | 00:00:00 | |
| DJ2KF-10 | 2026-09-03 12:20:35 | 50.92818 | 8.44379 | 15° | 11km/h | 28543m | 5.5m/s | -46.0°C | 3.3% | 15.6hPa | 2.7V | 00:00:00 | 02:02:42 | 00:00:00 | |
| DL1NUX | 2026-09-03 12:20:34 | 50.92808 | 8.44371 | 25° | 15km/h | 28524m | 5.5m/s | -46.1°C | 3.3% | 15.7hPa | 2.7V | 08:30:00 | 02:02:39 | 00:00:00 | |
| AU51GT2 | 2026-09-03 12:20:34 | 50.92811 | 8.44374 | 28° | 15km/h | 28530m | 6.5m/s | -46.1°C | 0.7% | 15.7hPa | 2.7V | 00:00:00 | 00:00:00 | 00:00:00 | |
| DL1XH-15 | 2026-09-03 12:20:33 | 50.92802 | 8.44365 | 205° | 2km/h | 28501m | 4.9m/s | -46°C | 3.4% | 15.8hPa | 2.7V | 08:30:00 | 02:02:35 | 00:00:00 | |
| DL1XH-west | 2026-09-03 12:20:32 | 50.92808 | 8.44371 | 26° | 15km/h | 28524m | 5.5m/s | -46.1°C | 0.1% | 15.7hPa | 2.7V | 18:12:15 | 02:02:39 | 00:00:00 | |
| AA1-15 | 2026-09-03 12:20:31 | 50.92805 | 8.44368 | 25° | 11km/h | 28519m | 5.3m/s | -46.1°C | 0.1% | 15.7hPa | 2.6V | 18:12:15 | 02:02:38 | 00:00:00 | |
| DJ8HS-15 | 2026-09-03 12:20:30 | 50.92803 | 8.44367 | 29° | 11km/h | 28513m | 6.2m/s | -46.1°C | 3.4% | 15.7hPa | 2.7V | 00:00:00 | 02:02:37 | 00:00:00 | |
| DL8OAI-8 | 2026-09-03 12:20:29 | 50.92802 | 8.44367 | 29° | 7km/h | 28513m | 6.2m/s | -46.2°C | 0.8% | 15.8hPa | 2.7V | 00:00:00 | 00:00:00 | 00:00:00 | |
| DL1XH1-15 | 2026-09-03 12:20:27 | 50.92802 | 8.44370 | 272° | 9km/h | 28491m | 6.3m/s | -45.8°C | 3.3% | 15.8hPa | 2.7V | 08:30:00 | 02:02:33 | 00:00:00 | |
| DB0DAN | 2026-09-03 12:20:25 | 50.92802 | 8.44374 | 291° | 13km/h | 28485m | 6.4m/s | -45.7°C | 0.7% | 15.81hPa | 2.6V | 00:00:00 | 00:00:00 | 00:00:00 | |
| HSKMA3-T | 2026-09-03 12:20:25 | 50.92802 | 8.44374 | 291° | 15km/h | 28485m | 6.4m/s | -45.7°C | 0.1% | 15.8hPa | 2.6V | 18:12:15 | 02:02:32 | 00:00:00 | |
| DL1NUX | 2026-09-03 12:20:24 | 50.92794 | 8.44387 | 341° | 15km/h | 28468m | 6.5m/s | -45.6°C | 3.2% | 15.8hPa | 2.7V | 08:30:00 | 02:02:29 | 00:00:00 | |
| DL1XH-west | 2026-09-03 12:20:21 | 50.92790 | 8.44387 | 10° | 13km/h | 28462m | 5.8m/s | -45.6°C | 0.1% | 15.9hPa | 2.7V | 18:12:15 | 02:02:28 | 00:00:00 | |
| AA1-15 | 2026-09-03 12:20:20 | 50.92787 | 8.44385 | 32° | 15km/h | 28456m | 4.9m/s | -45.6°C | 0% | 15.9hPa | 2.7V | 18:12:15 | 02:02:27 | 00:00:00 | |
| NBG1-10 | 2026-09-03 12:20:20 | 50.92787 | 8.44385 | 32° | 11km/h | 28457m | 4.8m/s | -45.5°C | 3.2% | 15.8hPa | 2.6V | 00:00:00 | 02:02:27 | 00:00:00 | |
| DO3DL | 2026-09-03 12:20:19 | 50.92787 | 8.44385 | 33° | 15km/h | 28457m | 4.9m/s | -45.6°C | 0.7% | 15.9hPa | 2.6V | 00:00:00 | 00:00:00 | 00:00:00 | |
| DD8BA-10 | 2026-09-03 12:20:18 | 50.92780 | 8.44377 | 37° | 9km/h | 28447m | 5.2m/s | -45.7°C | 3.2% | 15.8hPa | 2.6V | 00:00:00 | 00:00:00 | 00:00:00 | |
| GOEST3-10 | 2026-09-03 12:20:17 | 50.92777 | 8.44374 | 28° | 13km/h | 28441m | 5.8m/s | -45.8°C | 3.2% | 15.9hPa | 2.6V | 00:00:00 | 00:00:00 | 00:00:00 | |
| DL1NUX | 2026-09-03 12:20:16 | 50.92763 | 8.44373 | 353° | 4km/h | 28415m | 6.7m/s | -45.8°C | 3.3% | 16hPa | 2.6V | 08:30:00 | 02:02:19 | 00:00:00 | |
| DM0DOS-11 | 2026-09-03 12:20:15 | 50.92767 | 8.44372 | 349° | 11km/h | 28425m | 4.5m/s | -45.9°C | 3.3% | 15.9hPa | 2.7V | 08:30:00 | 02:02:21 | 00:00:00 | |
| HSKMA3-T | 2026-09-03 12:20:15 | 50.92767 | 8.44372 | 350° | 11km/h | 28426m | 4.5m/s | -45.9°C | 0.1% | 15.9hPa | 2.7V | 18:12:15 | 02:02:21 | 00:00:00 | |
| BIOWL1-15 | 2026-09-03 12:20:14 | 50.92763 | 8.44378 | 290° | 11km/h | 28382m | 5m/s | -45.9°C | 0.1% | 16.1hPa | 2.6V | 18:12:15 | 02:02:13 | 00:00:00 | |
| DL1XH-west | 2026-09-03 12:20:10 | 50.92764 | 8.44372 | 266° | 4km/h | 28393m | 6m/s | -46.1°C | 0.2% | 16.1hPa | 2.7V | 18:12:15 | 02:02:15 | 00:00:00 | |
| AA1-15 | 2026-09-03 12:20:09 | 50.92764 | 8.44372 | 180° | 2km/h | 28399m | 5m/s | -46°C | 0.1% | 16hPa | 2.7V | 18:12:15 | 02:02:16 | 00:00:00 | |
| DL1XH1-15 | 2026-09-03 12:20:08 | 50.92763 | 8.44378 | 289° | 11km/h | 28382m | 5m/s | -45.9°C | 3.3% | 16.1hPa | 2.6V | 08:30:00 | 02:02:13 | 00:00:00 | |
| GOEST3-10 | 2026-09-03 12:20:08 | 50.92764 | 8.44375 | 286° | 7km/h | 28388m | 5.7m/s | -46.0°C | 3.4% | 16.0hPa | 2.6V | 00:00:00 | 00:00:00 | 00:00:00 | |
| DJTTGO | 2026-09-03 12:20:07 | 50.92764 | 8.44375 | 287° | 7km/h | 28388m | 5.7m/s | -46.0°C | 0.8% | 16.0hPa | 2.6V | 00:00:00 | 00:00:00 | 00:00:00 | |
| DO3MHA-11 | 2026-09-03 12:20:06 | 50.92763 | 8.44378 | 290° | 7km/h | 28382m | 5.0m/s | -45.9°C | 3.3% | 16.0hPa | 2.6V | 00:00:00 | 02:02:13 | 00:00:00 | |
| DJ2KF-10 | 2026-09-03 12:20:05 | 50.92762 | 8.44382 | 292° | 7km/h | 28377m | 5.1m/s | -45.8°C | 3.3% | 16.0hPa | 2.6V | 00:00:00 | 02:02:12 | 00:00:00 | |
| DL1NUX | 2026-09-03 12:20:04 | 50.92760 | 8.44388 | 345° | 4km/h | 28360m | 5.2m/s | -45.6°C | 3.3% | 16.1hPa | 2.7V | 08:30:00 | 02:02:09 | 00:00:00 | |
| HSKMA3-T | 2026-09-03 12:20:03 | 50.92761 | 8.44387 | 309° | 5km/h | 28366m | 5.5m/s | -45.7°C | 0.1% | 16.1hPa | 2.7V | 18:12:15 | 02:02:10 | 00:00:00 | |
| BIOWL1-15 | 2026-09-03 12:20:01 | 50.92758 | 8.44388 | 358° | 7km/h | 28354m | 6.5m/s | -45.6°C | 0.1% | 16.1hPa | 2.6V | 18:12:15 | 02:02:08 | 00:00:00 | |
| DL1XH-west | 2026-09-03 12:20:00 | 50.92756 | 8.44388 | 360° | 9km/h | 28348m | 5.7m/s | -45.6°C | 0.1% | 16.2hPa | 2.6V | 18:12:15 | 02:02:07 | 00:00:00 | |
| DL1XH-15 | 2026-09-03 12:19:59 | 50.92753 | 8.44388 | 5° | 2km/h | 28338m | 5.6m/s | -45.7°C | 3.2% | 16.2hPa | 2.7V | 08:30:00 | 02:02:05 | 00:00:00 | |
| AA1-15 | 2026-09-03 12:19:58 | 50.92753 | 8.44388 | 6° | 2km/h | 28338m | 5.6m/s | -45.7°C | 0.1% | 16.2hPa | 2.7V | 18:12:15 | 02:02:05 | 00:00:00 | |
| DD8BA-10 | 2026-09-03 12:19:58 | 50.92753 | 8.44388 | 6° | 5km/h | 28338m | 5.5m/s | -45.7°C | 3.2% | 16.1hPa | 2.7V | 00:00:00 | 00:00:00 | 00:00:00 | |
| DM0DOS-11 | 2026-09-03 12:19:55 | 50.92759 | 8.44389 | 202° | 9km/h | 28316m | 6m/s | -45.9°C | 3.3% | 16.2hPa | 2.7V | 08:30:00 | 02:02:01 | 00:00:00 | |
| DF8AY | 2026-09-03 12:19:54 | 50.92759 | 8.44389 | 203° | 9km/h | 28316m | 6.1m/s | -45.9°C | 0.1% | 16.2hPa | 2.7V | 18:12:15 | 02:02:01 | 00:00:00 | |
| HSKMA3-T | 2026-09-03 12:19:53 | 50.92761 | 8.44391 | 229° | 7km/h | 28310m | 6.3m/s | -45.9°C | 0.1% | 16.3hPa | 2.7V | 18:12:15 | 02:02:00 | 00:00:00 | |
| DD1CC8 | 2026-09-03 12:19:52 | 50.92762 | 8.44394 | 263° | 5km/h | 28304m | 5.4m/s | -46.0°C | 0.7% | 16.2hPa | 2.7V | 00:00:00 | 00:00:00 | 00:00:00 | |
| EDDB2-11 | 2026-09-03 12:19:51 | 50.92762 | 8.44396 | 288° | 4km/h | 28299m | 4.9m/s | -46.1°C | 0.7% | 16.3hPa | 2.7V | 00:00:00 | 00:00:00 | 00:00:00 | |
| BIOWL1-15 | 2026-09-03 12:19:50 | 50.92771 | 8.44387 | 184° | 7km/h | 28242m | 6.5m/s | -45.9°C | 0.1% | 16.4hPa | 2.7V | 18:12:15 | 02:01:48 | 00:00:00 | |
| DL1XH-west | 2026-09-03 12:19:50 | 50.92761 | 8.44397 | 72° | 4km/h | 28287m | 6.4m/s | -46°C | 0.1% | 16.3hPa | 2.7V | 18:12:15 | 02:01:56 | 00:00:00 | |
| DL1XH-15 | 2026-09-03 12:19:49 | 50.92761 | 8.44395 | 101° | 7km/h | 28281m | 5.6m/s | -45.9°C | 3.3% | 16.3hPa | 2.6V | 08:30:00 | 02:01:55 | 00:00:00 | |
| DM0DOS-11 | 2026-09-03 12:19:49 | 50.92766 | 8.44385 | 173° | 5km/h | 28258m | 6.2m/s | -45.9°C | 3.3% | 16.4hPa | 2.6V | 08:30:00 | 02:01:51 | 00:00:00 | |
| AA1-15 | 2026-09-03 12:19:48 | 50.92761 | 8.44395 | 102° | 7km/h | 28281m | 5.6m/s | -45.9°C | 0.1% | 16.3hPa | 2.6V | 18:12:15 | 02:01:55 | 00:00:00 | |
| DL1XH1-15 | 2026-09-03 12:19:48 | 50.92763 | 8.44389 | 124° | 9km/h | 28271m | 5.4m/s | -45.8°C | 3.3% | 16.3hPa | 2.7V | 08:30:00 | 02:01:53 | 00:00:00 | |
| SONCRA | 2026-09-03 12:19:46 | 50.92763 | 8.44389 | 124° | 9km/h | 28271m | 5.4m/s | -45.8°C | 0.7% | 16.3hPa | 2.6V | 00:00:00 | 00:00:00 | 00:00:00 | |
| DL3AQ-11 | 2026-09-03 12:19:45 | 50.92764 | 8.44386 | 142° | 7km/h | 28265m | 6.6m/s | -45.9°C | 0.7% | 16.4hPa | 2.6V | 00:00:00 | 00:00:00 | 00:00:00 | |
| HSKMA3-T | 2026-09-03 12:19:42 | 50.92769 | 8.44386 | 198° | 7km/h | 28248m | 4.7m/s | -45.9°C | 0.1% | 16.4hPa | 2.6V | 18:12:15 | 02:01:49 | 00:00:00 | |
| BIOWL1-15 | 2026-09-03 12:19:42 | 50.92773 | 8.44386 | 159° | 11km/h | 28236m | 6.3m/s | -45.9°C | 0.1% | 16.4hPa | 2.7V | 18:12:15 | 02:01:47 | 00:00:00 | |
| GOEST3-10 | 2026-09-03 12:19:41 | 50.92771 | 8.44387 | 184° | 11km/h | 28242m | 6.5m/s | -45.8°C | 3.3% | 16.4hPa | 2.7V | 00:00:00 | 02:01:48 | 00:00:00 | |
| DL1XH-15 | 2026-09-03 12:19:39 | 50.92778 | 8.44381 | 127° | 13km/h | 28224m | 4.9m/s | -45.9°C | 3.3% | 16.5hPa | 2.6V | 08:30:00 | 02:01:45 | 00:00:00 | |
| BIOWL9-15 | 2026-09-03 12:19:39 | 50.92776 | 8.44384 | 141° | 11km/h | 28230m | 5.5m/s | -45.9°C | 0.7% | 16.4hPa | 2.6V | 00:00:00 | 00:00:00 | 00:00:00 | |
| DL1XH1-15 | 2026-09-03 12:19:38 | 50.92780 | 8.44373 | 88° | 7km/h | 28213m | 6.8m/s | -46°C | 3.3% | 16.5hPa | 2.6V | 08:30:00 | 02:01:43 | 00:00:00 | |
| AA1-15 | 2026-09-03 12:19:38 | 50.92779 | 8.44377 | 115° | 11km/h | 28219m | 6.1m/s | -46.1°C | 0.1% | 16.5hPa | 2.6V | 18:12:15 | 02:01:44 | 00:00:00 | |
| DM0DOS-11 | 2026-09-03 12:19:35 | 50.92778 | 8.44368 | 64° | 7km/h | 28201m | 5.8m/s | -45.8°C | 3.2% | 16.5hPa | 2.7V | 08:30:00 | 02:01:41 | 00:00:00 | |
| HSKMA3-T | 2026-09-03 12:19:32 | 50.92778 | 8.44362 | 92° | 7km/h | 28189m | 5.2m/s | -45.9°C | 0% | 16.5hPa | 2.6V | 18:12:15 | 02:01:39 | 00:00:00 | |
| BIOWL1-15 | 2026-09-03 12:19:30 | 50.92778 | 8.44358 | 143° | 2km/h | 28177m | 6.9m/s | -46.1°C | 0.1% | 16.6hPa | 2.6V | 18:12:15 | 02:01:37 | 00:00:00 | |
| DM0DOS-11 | 2026-09-03 12:19:29 | 50.92789 | 8.44354 | 159° | 7km/h | 28142m | 6.2m/s | -46°C | 3.3% | 16.6hPa | 2.6V | 08:30:00 | 02:01:31 | 00:00:00 | |
| DD8BA-10 | 2026-09-03 12:19:28 | 50.92780 | 8.44358 | 181° | 5km/h | 28166m | 5.3m/s | -45.9°C | 3.3% | 16.6hPa | 2.7V | 00:00:00 | 00:00:00 | 00:00:00 | |
| DL1NUX | 2026-09-03 12:19:27 | 50.92791 | 8.44354 | 270° | 2km/h | 28130m | 5.8m/s | -46°C | 3.3% | 16.7hPa | 2.7V | 08:30:00 | 02:01:29 | 00:00:00 | |
| AA1-15 | 2026-09-03 12:19:27 | 50.92782 | 8.44358 | 168° | 9km/h | 28159m | 6.8m/s | -46°C | 0.1% | 16.6hPa | 2.7V | 18:12:15 | 02:01:34 | 00:00:00 | |
| DL1XH-west | 2026-09-03 12:19:26 | 50.92785 | 8.44357 | 158° | 11km/h | 28153m | 5.7m/s | -46°C | 0.1% | 16.6hPa | 2.6V | 18:12:15 | 02:01:33 | 00:00:00 | |
| DO3MHA-11 | 2026-09-03 12:19:26 | 50.92784 | 8.44357 | 159° | 4km/h | 28153m | 5.6m/s | -45.9°C | 3.3% | 16.6hPa | 2.6V | 00:00:00 | 02:01:33 | 00:00:00 | |
| DL1XH-15 | 2026-09-03 12:19:24 | 50.92791 | 8.44353 | 182° | 4km/h | 28136m | 6.4m/s | -46.1°C | 3.3% | 16.7hPa | 2.7V | 08:30:00 | 02:01:30 | 00:00:00 | |
| HSKMA3-T | 2026-09-03 12:19:22 | 50.92791 | 8.44354 | 270° | 2km/h | 28130m | 5.8m/s | -46°C | 0.1% | 16.7hPa | 2.7V | 18:12:15 | 02:01:29 | 00:00:00 | |
| BIOWL1-15 | 2026-09-03 12:19:20 | 50.92790 | 8.44355 | 336° | 4km/h | 28118m | 6.6m/s | -45.8°C | 0.1% | 16.7hPa | 2.6V | 18:12:15 | 02:01:27 | 00:00:00 | |
| WPPR-10 | 2026-09-03 12:19:19 | 50.92790 | 8.44356 | 11° | 2km/h | 28112m | 5.6m/s | -45.9°C | 0.7% | 16.7hPa | 2.6V | 00:00:00 | 00:00:00 | 00:00:00 | |
| DM0DOS-11 | 2026-09-03 12:19:18 | 50.92789 | 8.44360 | 211° | 5km/h | 28083m | 5.8m/s | -46.2°C | 3.3% | 16.8hPa | 2.6V | 08:30:00 | 02:01:21 | 00:00:00 | |
| DL1XH1-15 | 2026-09-03 12:19:17 | 50.92788 | 8.44357 | 272° | 4km/h | 28095m | 6.5m/s | -46.1°C | 3.2% | 16.8hPa | 2.7V | 08:30:00 | 02:01:23 | 00:00:00 | |
| AA1-15 | 2026-09-03 12:19:17 | 50.92789 | 8.44356 | 317° | 2km/h | 28101m | 6.2m/s | -46°C | 0.1% | 16.8hPa | 2.7V | 18:12:15 | 02:01:24 | 00:00:00 | |
| DL1XH-west | 2026-09-03 12:19:15 | 50.92789 | 8.44359 | 246° | 5km/h | 28089m | 5.5m/s | -46.2°C | 0.1% | 16.8hPa | 2.7V | 18:12:15 | 02:01:22 | 00:00:00 | |
| DL1XH-15 | 2026-09-03 12:19:14 | 50.92791 | 8.44361 | 178° | 7km/h | 28077m | 6.5m/s | -46.1°C | 3.3% | 16.8hPa | 2.6V | 08:30:00 | 02:01:20 | 00:00:00 | |
| DL1NUX | 2026-09-03 12:19:14 | 50.92794 | 8.44360 | 166° | 9km/h | 28071m | 5m/s | -46.1°C | 3.2% | 16.9hPa | 2.6V | 08:30:00 | 02:01:19 | 00:00:00 | |
| HSKMA3-T | 2026-09-03 12:19:11 | 50.92796 | 8.44359 | 166° | 11km/h | 28066m | 4.4m/s | -46.1°C | 0.1% | 16.9hPa | 2.7V | 18:12:15 | 02:01:18 | 00:00:00 | |
| GOEST3-10 | 2026-09-03 12:19:11 | 50.92796 | 8.44359 | 166° | 7km/h | 28067m | 4.3m/s | -46.0°C | 3.2% | 16.8hPa | 2.7V | 00:00:00 | 02:01:18 | 08:30:00 | |
| DL1XH1-15 | 2026-09-03 12:19:10 | 50.92799 | 8.44363 | 340° | 5km/h | 28037m | 6.7m/s | -46.2°C | 3.3% | 16.9hPa | 2.7V | 08:30:00 | 02:01:13 | 00:00:00 | |
| BIOWL1-15 | 2026-09-03 12:19:09 | 50.92797 | 8.44364 | 12° | 7km/h | 28031m | 6.1m/s | -46.2°C | 0.1% | 16.9hPa | 2.6V | 18:12:15 | 02:01:12 | 00:00:00 | |
| AA1-15 | 2026-09-03 12:19:06 | 50.92799 | 8.44363 | 341° | 5km/h | 28037m | 6.7m/s | -46.2°C | 0.1% | 16.9hPa | 2.7V | 18:12:15 | 02:01:13 | 00:00:00 | |
| DM0DOS-11 | 2026-09-03 12:19:05 | 50.92796 | 8.44363 | 15° | 9km/h | 28025m | 5.3m/s | -46.3°C | 3.3% | 17hPa | 2.6V | 08:30:00 | 02:01:11 | 00:00:00 | |
| DL1XH-west | 2026-09-03 12:19:04 | 50.92796 | 8.44363 | 16° | 9km/h | 28025m | 5.3m/s | -46.3°C | 0.1% | 17hPa | 2.6V | 18:12:15 | 02:01:11 | 00:00:00 | |
| DL1XH-15 | 2026-09-03 12:19:04 | 50.92793 | 8.44362 | 6° | 9km/h | 28020m | 5.6m/s | -46.4°C | 3.3% | 17hPa | 2.7V | 08:30:00 | 02:01:10 | 00:00:00 | |
| DL1NUX | 2026-09-03 12:19:04 | 50.92791 | 8.44362 | 352° | 9km/h | 28014m | 6.5m/s | -46.3°C | 3.3% | 17hPa | 2.7V | 08:30:00 | 02:01:09 | 00:00:00 | |
| HSKMA3-T | 2026-09-03 12:19:00 | 50.92787 | 8.44364 | 319° | 5km/h | 28003m | 5.1m/s | -46.2°C | 0.1% | 17hPa | 2.6V | 18:12:15 | 02:01:07 | 00:00:00 | |
| DM0DOS-11 | 2026-09-03 12:18:59 | 50.92799 | 8.44361 | 185° | 9km/h | 27967m | 5.7m/s | -46.5°C | 3.4% | 17.1hPa | 2.6V | 08:30:00 | 02:01:01 | 00:00:00 | |
| BUE01 | 2026-09-03 12:18:59 | 50.92788 | 8.44365 | 156° | 5km/h | 27990m | 6.4m/s | -46.3°C | 0.7% | 17.1hPa | 2.7V | 00:00:00 | 00:00:00 | 00:00:00 | |
| DL1XH1-15 | 2026-09-03 12:18:57 | 50.92793 | 8.44362 | 162° | 13km/h | 27979m | 5.2m/s | -46.5°C | 3.3% | 17.1hPa | 2.7V | 08:30:00 | 02:01:03 | 00:00:00 | |
| AA1-15 | 2026-09-03 12:18:56 | 50.92793 | 8.44362 | 163° | 13km/h | 27979m | 5.2m/s | -46.6°C | 0.1% | 17.1hPa | 2.7V | 18:12:15 | 02:01:03 | 00:00:00 | |
| DL9SK-14 | 2026-09-03 12:18:55 | 50.92799 | 8.44360 | 185° | 7km/h | 27967m | 5.7m/s | -46.5°C | 0.8% | 17.1hPa | 2.6V | 00:00:00 | 00:00:00 | 00:00:00 | |
| DL1XH-15 | 2026-09-03 12:18:54 | 50.92800 | 8.44361 | 196° | 5km/h | 27961m | 5m/s | -46.5°C | 3.4% | 17.1hPa | 2.6V | 08:30:00 | 02:01:00 | 00:00:00 | |
| DL1NUX | 2026-09-03 12:18:54 | 50.92801 | 8.44361 | 188° | 2km/h | 27956m | 5.7m/s | -46.5°C | 3.4% | 17.2hPa | 2.7V | 08:30:00 | 02:00:59 | 00:00:00 | |
| DL1XH-west | 2026-09-03 12:18:54 | 50.92800 | 8.44361 | 197° | 5km/h | 27961m | 5m/s | -46.5°C | 0.2% | 17.1hPa | 2.6V | 18:12:15 | 02:01:00 | 00:00:00 | |
| DL3AQ-11 | 2026-09-03 12:18:53 | 50.92801 | 8.44361 | 188° | 0km/h | 27956m | 5.7m/s | -46.5°C | 0.8% | 17.2hPa | 2.7V | 00:00:00 | 00:00:00 | 00:00:00 | |
| DB0ND-19 | 2026-09-03 12:18:52 | 50.92801 | 8.44361 | 188° | 0km/h | 27956m | 5.7m/s | -46.5°C | 0.8% | 17.2hPa | 2.7V | 00:00:00 | 00:00:00 | 00:00:00 | |
| DL1XH1-15 | 2026-09-03 12:18:51 | 50.92790 | 8.44352 | 353° | 13km/h | 27921m | 6.1m/s | -46.2°C | 3.3% | 17.2hPa | 2.7V | 08:30:00 | 02:00:53 | 00:00:00 | |
| HSKMA3-T | 2026-09-03 12:18:50 | 50.92800 | 8.44359 | 50° | 7km/h | 27944m | 5.8m/s | -46.4°C | 0.2% | 17.1hPa | 2.7V | 18:12:15 | 02:00:57 | 00:00:00 | |
| BIOWL1-15 | 2026-09-03 12:18:50 | 50.92784 | 8.44355 | 333° | 2km/h | 27904m | 6.7m/s | -46.3°C | 0.1% | 17.3hPa | 2.6V | 18:12:15 | 02:00:50 | 00:00:00 | |
| DM0DOS-11 | 2026-09-03 12:18:49 | 50.92785 | 8.44355 | 336° | 7km/h | 27910m | 5.5m/s | -46.3°C | 3.3% | 17.3hPa | 2.7V | 08:30:00 | 02:00:51 | 00:00:00 | |
| AA1-15 | 2026-09-03 12:18:46 | 50.92790 | 8.44352 | 353° | 13km/h | 27921m | 6.1m/s | -46.2°C | 0.1% | 17.2hPa | 2.7V | 18:12:15 | 02:00:53 | 00:00:00 | |
| DL3OBA | 2026-09-03 12:18:45 | 50.92787 | 8.44353 | 344° | 11km/h | 27916m | 5.0m/s | -46.2°C | 0.8% | 17.2hPa | 2.6V | 00:00:00 | 00:00:00 | 00:00:00 | |
| DL1NUX | 2026-09-03 12:18:44 | 50.92784 | 8.44355 | 153° | 4km/h | 27898m | 6m/s | -46.2°C | 3.3% | 17.3hPa | 2.6V | 08:30:00 | 02:00:49 | 00:00:00 | |
| DL1XH-west | 2026-09-03 12:18:42 | 50.92784 | 8.44355 | 154° | 4km/h | 27898m | 6m/s | -46.3°C | 0.1% | 17.3hPa | 2.6V | 18:12:15 | 02:00:49 | 00:00:00 | |
| HSKMA3-T | 2026-09-03 12:18:40 | 50.92787 | 8.44354 | 169° | 5km/h | 27887m | 5.7m/s | -46.3°C | 0.1% | 17.3hPa | 2.7V | 18:12:15 | 02:00:47 | 00:00:00 | |
| DL1XH-15 | 2026-09-03 12:18:39 | 50.92788 | 8.44354 | 301° | 4km/h | 27875m | 5.3m/s | -46.2°C | 3.3% | 17.4hPa | 2.7V | 08:30:00 | 02:00:45 | 00:00:00 | |
| DM0DOS-11 | 2026-09-03 12:18:39 | 50.92776 | 8.44353 | 11° | 24km/h | 27852m | 5m/s | -46.4°C | 3.3% | 17.4hPa | 2.7V | 08:30:00 | 02:00:41 | 00:00:00 | |
| AA1-15 | 2026-09-03 12:18:35 | 50.92781 | 8.44354 | 13° | 18km/h | 27858m | 6m/s | -46.4°C | 0.1% | 17.4hPa | 2.6V | 18:12:15 | 02:00:42 | 00:00:00 | |
| DJ2KF-10 | 2026-09-03 12:18:35 | 50.92781 | 8.44354 | 13° | 15km/h | 27858m | 5.9m/s | -46.3°C | 3.2% | 17.4hPa | 2.6V | 00:00:00 | 02:00:42 | 00:00:00 | |
| DL1NUX | 2026-09-03 12:18:34 | 50.92762 | 8.44350 | 0° | 31km/h | 27840m | 7.2m/s | -46.4°C | 3.3% | 17.4hPa | 2.6V | 08:30:00 | 02:00:39 | 00:00:00 | |
| DL1XH-west | 2026-09-03 12:18:32 | 50.92762 | 8.44350 | 0° | 31km/h | 27840m | 7.2m/s | -46.4°C | 0.1% | 17.4hPa | 2.6V | 18:12:15 | 02:00:39 | 00:00:00 | |
| HSKMA3-T | 2026-09-03 12:18:30 | 50.92748 | 8.44353 | 350° | 26km/h | 27828m | 5.2m/s | -46.3°C | 0.1% | 17.5hPa | 2.7V | 18:12:15 | 02:00:37 | 00:00:00 | |
| DJ2DS-15 | 2026-09-03 12:18:30 | 50.92747 | 8.44353 | 350° | 15km/h | 27828m | 5.2m/s | -46.3°C | 3.3% | 17.4hPa | 2.7V | 00:00:00 | 02:00:37 | 00:00:00 | |
| DM0DOS-11 | 2026-09-03 12:18:29 | 50.92733 | 8.44358 | 315° | 7km/h | 27793m | 6.1m/s | -45.7°C | 3.2% | 17.6hPa | 2.6V | 08:30:00 | 02:00:31 | 00:00:00 | |
| DF8AY | 2026-09-03 12:18:27 | 50.92728 | 8.44363 | 344° | 15km/h | 27782m | 5.1m/s | -45.7°C | 0% | 17.6hPa | 2.7V | 18:12:15 | 02:00:29 | 00:00:00 | |
| BIOWL1-15 | 2026-09-03 12:18:25 | 50.92696 | 8.44352 | 4° | 22km/h | 27746m | 6.5m/s | -45.8°C | 0% | 17.7hPa | 2.7V | 18:12:15 | 02:00:23 | 00:00:00 | |
| DL1NUX | 2026-09-03 12:18:24 | 50.92728 | 8.44363 | 344° | 15km/h | 27782m | 5.1m/s | -45.7°C | 3.1% | 17.6hPa | 2.7V | 08:30:00 | 02:00:29 | 00:00:00 | |
| AA1-15 | 2026-09-03 12:18:24 | 50.92733 | 8.44358 | 316° | 7km/h | 27793m | 6.1m/s | -45.7°C | 0% | 17.6hPa | 2.6V | 18:12:15 | 02:00:31 | 00:00:00 | |
| DL9SK-14 | 2026-09-03 12:18:24 | 50.92731 | 8.44361 | 329° | 11km/h | 27787m | 5.3m/s | -45.7°C | 0.7% | 17.6hPa | 2.6V | 00:00:00 | 00:00:00 | 00:00:00 | |
| DL1XH-15 | 2026-09-03 12:18:23 | 50.92708 | 8.44357 | 21° | 26km/h | 27758m | 5.1m/s | -45.9°C | 3.1% | 17.7hPa | 2.6V | 08:30:00 | 02:00:25 | 00:00:00 | |
| DL1XH-west | 2026-09-03 12:18:21 | 50.92724 | 8.44364 | 359° | 18km/h | 27776m | 6.4m/s | -45.8°C | 0% | 17.6hPa | 2.7V | 18:12:15 | 02:00:28 | 00:00:00 | |
| HSKMA3-T | 2026-09-03 12:18:20 | 50.92719 | 8.44363 | 12° | 20km/h | 27769m | 6.9m/s | -45.8°C | 0% | 17.6hPa | 2.6V | 18:12:15 | 02:00:27 | 00:00:00 | |
| DL8OAI-8 | 2026-09-03 12:18:20 | 50.92719 | 8.44363 | 13° | 20km/h | 27770m | 6.9m/s | -45.8°C | 0.7% | 17.7hPa | 2.6V | 00:00:00 | 00:00:00 | 00:00:00 | |
| DD1CC8 | 2026-09-03 12:18:19 | 50.92708 | 8.44357 | 21° | 24km/h | 27758m | 5.1m/s | -45.9°C | 0.7% | 17.7hPa | 2.6V | 00:00:00 | 00:00:00 | 00:00:00 | |
| DK9SH | 2026-09-03 12:18:18 | 50.92708 | 8.44357 | 22° | 26km/h | 27758m | 5.1m/s | -45.9°C | 0.7% | 17.7hPa | 2.6V | 00:00:00 | 00:00:00 | 00:00:00 | |
| DL1NUX | 2026-09-03 12:18:17 | 50.92684 | 8.44359 | 299° | 5km/h | 27722m | 6.4m/s | -45.9°C | 3.2% | 17.8hPa | 2.6V | 08:30:00 | 02:00:19 | 00:00:00 | |
| WPPR-10 | 2026-09-03 12:18:17 | 50.92702 | 8.44354 | 15° | 24km/h | 27753m | 5.7m/s | -45.8°C | 0.7% | 17.7hPa | 2.6V | 00:00:00 | 00:00:00 | 00:00:00 | |
| DM0DOS-11 | 2026-09-03 12:18:15 | 50.92688 | 8.44354 | 332° | 15km/h | 27735m | 5.4m/s | -45.9°C | 3.1% | 17.7hPa | 2.6V | 08:30:00 | 02:00:21 | 00:00:00 | |
| AA1-15 | 2026-09-03 12:18:14 | 50.92688 | 8.44354 | 333° | 15km/h | 27735m | 5.4m/s | -45.9°C | 0% | 17.7hPa | 2.6V | 18:12:15 | 02:00:21 | 00:00:00 | |
| DF8AY | 2026-09-03 12:18:13 | 50.92685 | 8.44357 | 321° | 9km/h | 27729m | 6.9m/s | -45.9°C | 0% | 17.8hPa | 2.6V | 18:12:15 | 02:00:20 | 00:00:00 | |
| DO3MHA-12 | 2026-09-03 12:18:13 | 50.92685 | 8.44357 | 321° | 9km/h | 27729m | 6.9m/s | -45.9°C | 3.1% | 17.7hPa | 2.6V | 00:00:00 | 02:00:20 | 00:00:00 | |
| DO1YAY-16 | 2026-09-03 12:18:12 | 50.92684 | 8.44361 | 269° | 2km/h | 27716m | 5.3m/s | -45.9°C | 0.7% | 17.8hPa | 2.6V | 00:00:00 | 00:00:00 | 00:00:00 | |
| DL1XH1-15 | 2026-09-03 12:18:11 | 50.92677 | 8.44365 | 20° | 15km/h | 27688m | 7m/s | -45.9°C | 3.1% | 17.9hPa | 2.6V | 08:30:00 | 02:00:13 | 00:00:00 | |
| DL1XH-west | 2026-09-03 12:18:11 | 50.92684 | 8.44361 | 269° | 4km/h | 27716m | 5.3m/s | -45.9°C | 0% | 17.8hPa | 2.7V | 18:12:15 | 02:00:18 | 00:00:00 | |
| HSKMA3-T | 2026-09-03 12:18:10 | 50.92684 | 8.44362 | 271° | 4km/h | 27711m | 5.9m/s | -45.9°C | 0% | 17.8hPa | 2.7V | 18:12:15 | 02:00:17 | 00:00:00 | |
| DL1XH-15 | 2026-09-03 12:18:09 | 50.92682 | 8.44365 | 336° | 7km/h | 27699m | 5.2m/s | -45.9°C | 3.2% | 17.8hPa | 2.6V | 08:30:00 | 02:00:15 | 00:00:00 | |
| BIOWL1-15 | 2026-09-03 12:18:07 | 50.92673 | 8.44362 | 32° | 18km/h | 27681m | 6.6m/s | -45.8°C | 0% | 17.9hPa | 2.7V | 18:12:15 | 02:00:12 | 00:00:00 | |
| DL1NUX | 2026-09-03 12:18:07 | 50.92660 | 8.44351 | 14° | 18km/h | 27664m | 6.5m/s | -45.8°C | 3.2% | 17.9hPa | 2.6V | 08:30:00 | 02:00:09 | 00:00:00 | |
| AA1-15 | 2026-09-03 12:18:04 | 50.92669 | 8.44357 | 34° | 20km/h | 27675m | 5.2m/s | -45.9°C | 0% | 17.9hPa | 2.7V | 18:12:15 | 02:00:11 | 00:00:00 | |
| DL1XH-west | 2026-09-03 12:18:01 | 50.92656 | 8.44350 | 349° | 15km/h | 27658m | 5.9m/s | -45.6°C | 0% | 18hPa | 2.6V | 18:12:15 | 02:00:08 | 00:00:00 | |
| HSKMA3-T | 2026-09-03 12:18:00 | 50.92653 | 8.44352 | 321° | 13km/h | 27653m | 5.1m/s | -45.5°C | 0% | 17.9hPa | 2.6V | 18:12:15 | 02:00:07 | 00:00:00 | |
| AU51GT2 | 2026-09-03 12:17:58 | 50.92650 | 8.44359 | 279° | 7km/h | 27642m | 6.5m/s | -45.5°C | 0.7% | 18.0hPa | 2.6V | 00:00:00 | 00:00:00 | 00:00:00 | |
| DL1XH1-15 | 2026-09-03 12:17:57 | 50.92651 | 8.44364 | 230° | 4km/h | 27629m | 5.5m/s | -45.4°C | 3% | 18hPa | 2.6V | 08:30:00 | 02:00:03 | 00:00:00 | |
| DF8AY | 2026-09-03 12:17:55 | 50.92651 | 8.44364 | 274° | 2km/h | 27624m | 5.8m/s | -45.5°C | 0% | 18hPa | 2.7V | 18:12:15 | 02:00:02 | 00:00:00 | |
| GOEST3-10 | 2026-09-03 12:17:55 | 50.92651 | 8.44364 | 275° | 7km/h | 27624m | 5.8m/s | -45.4°C | 3.1% | 18.0hPa | 2.7V | 00:00:00 | 00:00:00 | 00:00:00 | |
| DL1NUX | 2026-09-03 12:17:54 | 50.92648 | 8.44364 | 19° | 9km/h | 27605m | 5.8m/s | -45.6°C | 3% | 18.1hPa | 2.6V | 08:30:00 | 01:59:59 | 00:00:00 | |
| AA1-15 | 2026-09-03 12:17:54 | 50.92651 | 8.44365 | 344° | 4km/h | 27617m | 6.9m/s | -45.5°C | 0% | 18.1hPa | 2.7V | 18:12:15 | 02:00:01 | 00:00:00 | |
| DL1XH-west | 2026-09-03 12:17:51 | 50.92643 | 8.44359 | 47° | 15km/h | 27592m | 6m/s | -45.7°C | 0% | 18.1hPa | 2.7V | 18:12:15 | 01:59:57 | 00:00:00 | |
| HSKMA3-T | 2026-09-03 12:17:50 | 50.92640 | 8.44355 | 49° | 15km/h | 27587m | 4.7m/s | -45.7°C | 0% | 18.1hPa | 2.6V | 18:12:15 | 01:59:56 | 00:00:00 | |
| DM0DOS-11 | 2026-09-03 12:17:50 | 50.92633 | 8.44348 | 186° | 5km/h | 27551m | 5.7m/s | -45.5°C | 3.1% | 18.2hPa | 2.6V | 08:30:00 | 01:59:50 | 00:00:00 | |
| DJ2DS-15 | 2026-09-03 12:17:50 | 50.92643 | 8.44359 | 48° | 7km/h | 27593m | 5.9m/s | -45.6°C | 3.1% | 18.1hPa | 2.7V | 00:00:00 | 01:59:57 | 00:00:00 | |
| DL1XH1-15 | 2026-09-03 12:17:49 | 50.92634 | 8.44347 | 3° | 7km/h | 27569m | 5.8m/s | -45.8°C | 3.2% | 18.2hPa | 2.7V | 08:30:00 | 01:59:53 | 00:00:00 | |
| DD1CC8 | 2026-09-03 12:17:48 | 50.92636 | 8.44348 | 24° | 9km/h | 27576m | 6.6m/s | -45.8°C | 0.7% | 18.1hPa | 2.6V | 00:00:00 | 00:00:00 | 00:00:00 | |
| EDDB2-11 | 2026-09-03 12:17:47 | 50.92636 | 8.44348 | 24° | 9km/h | 27576m | 6.6m/s | -45.8°C | 0.7% | 18.1hPa | 2.6V | 00:00:00 | 00:00:00 | 00:00:00 | |
| WPPR-10 | 2026-09-03 12:17:46 | 50.92634 | 8.44347 | 3° | 5km/h | 27569m | 5.8m/s | -45.8°C | 0.7% | 18.2hPa | 2.6V | 00:00:00 | 00:00:00 | 00:00:00 | |
| DL3AQ-11 | 2026-09-03 12:17:45 | 50.92633 | 8.44348 | 335° | 2km/h | 27563m | 5.8m/s | -45.8°C | 0.7% | 18.2hPa | 2.6V | 00:00:00 | 00:00:00 | 00:00:00 | |
| AA1-15 | 2026-09-03 12:17:43 | 50.92633 | 8.44348 | 186° | 5km/h | 27551m | 5.7m/s | -45.5°C | 0% | 18.2hPa | 2.6V | 18:12:15 | 01:59:50 | 00:00:00 | |
| DL1XH-west | 2026-09-03 12:17:40 | 50.92640 | 8.44351 | 199° | 4km/h | 27527m | 5.6m/s | -45.6°C | 0% | 18.3hPa | 2.7V | 18:12:15 | 01:59:46 | 00:00:00 | |
| HSKMA3-T | 2026-09-03 12:17:38 | 50.92640 | 8.44350 | 125° | 4km/h | 27522m | 5.5m/s | -45.6°C | 0% | 18.3hPa | 2.7V | 18:12:15 | 01:59:45 | 00:00:00 | |
| DM0DOS-11 | 2026-09-03 12:17:38 | 50.92643 | 8.44334 | 100° | 5km/h | 27491m | 6.2m/s | -45.9°C | 3.2% | 18.4hPa | 2.7V | 08:30:00 | 01:59:40 | 00:00:00 | |
| DF8AY | 2026-09-03 12:17:36 | 50.92642 | 8.44341 | 103° | 11km/h | 27503m | 5.3m/s | -45.7°C | 0% | 18.4hPa | 2.6V | 18:12:15 | 01:59:42 | 00:00:00 | |
| BIOWL1-15 | 2026-09-03 12:17:32 | 50.92644 | 8.44332 | 156° | 2km/h | 27485m | 5m/s | -45.9°C | 0.1% | 18.4hPa | 2.7V | 18:12:15 | 01:59:39 | 00:00:00 | |
| DL1XH-west | 2026-09-03 12:17:30 | 50.92647 | 8.44333 | 196° | 9km/h | 27474m | 6.5m/s | -46.1°C | 0% | 18.4hPa | 2.6V | 18:12:15 | 01:59:37 | 00:00:00 | |
| DJ2DS-15 | 2026-09-03 12:17:30 | 50.92647 | 8.44333 | 197° | 16km/h | 27474m | 6.4m/s | -46.0°C | 3.2% | 18.4hPa | 2.6V | 00:00:00 | 01:59:37 | 00:00:00 | |
| DM0DOS-11 | 2026-09-03 12:17:28 | 50.92670 | 8.44352 | 175° | 15km/h | 27434m | 6.8m/s | -46.3°C | 3.3% | 18.6hPa | 2.7V | 08:30:00 | 01:59:30 | 00:00:00 | |
| HSKMA3-T | 2026-09-03 12:17:27 | 50.92657 | 8.44340 | 215° | 18km/h | 27456m | 7m/s | -46.4°C | 0.1% | 18.5hPa | 2.7V | 18:12:15 | 01:59:34 | 00:00:00 | |
| BUE01 | 2026-09-03 12:17:26 | 50.92663 | 8.44349 | 217° | 15km/h | 27444m | 4.8m/s | -46.2°C | 0.7% | 18.6hPa | 2.6V | 00:00:00 | 00:00:00 | 00:00:00 | |
| DO3MHA-11 | 2026-09-03 12:17:25 | 50.92663 | 8.44349 | 218° | 15km/h | 27444m | 4.8m/s | -46.2°C | 3.3% | 18.5hPa | 2.6V | 00:00:00 | 01:59:32 | 00:00:00 | |
| DL1NUX | 2026-09-03 12:17:24 | 50.92673 | 8.44351 | 153° | 18km/h | 27427m | 6.3m/s | -46.4°C | 3.3% | 18.6hPa | 2.6V | 08:30:00 | 01:59:29 | 00:00:00 | |
| BIOWL1-15 | 2026-09-03 12:17:21 | 50.92677 | 8.44347 | 141° | 20km/h | 27421m | 4.9m/s | -46.3°C | 0.1% | 18.6hPa | 2.6V | 18:12:15 | 01:59:28 | 00:00:00 | |
| DL1XH-west | 2026-09-03 12:17:20 | 50.92681 | 8.44342 | 137° | 18km/h | 27416m | 5.5m/s | -46.2°C | 0.1% | 18.6hPa | 2.7V | 18:12:15 | 01:59:27 | 00:00:00 | |
| DF8AY | 2026-09-03 12:17:17 | 50.92690 | 8.44331 | 155° | 11km/h | 27399m | 5.4m/s | -46.3°C | 0.1% | 18.7hPa | 2.6V | 18:12:15 | 01:59:24 | 00:00:00 | |
| DL1XH1-15 | 2026-09-03 12:17:17 | 50.92692 | 8.44329 | 167° | 13km/h | 27393m | 5.9m/s | -46.3°C | 3.3% | 18.7hPa | 2.6V | 08:30:00 | 01:59:23 | 00:00:00 | |
| HSKMA3-T | 2026-09-03 12:17:16 | 50.92692 | 8.44329 | 167° | 13km/h | 27393m | 5.9m/s | -46.3°C | 0.1% | 18.7hPa | 2.6V | 18:12:15 | 01:59:23 | 00:00:00 | |
| DL1CLM-18 | 2026-09-03 12:17:16 | 50.92692 | 8.44329 | 168° | 13km/h | 27393m | 5.9m/s | -46.3°C | 0.8% | 18.7hPa | 2.6V | 00:00:00 | 00:00:00 | 00:00:00 | |
| DO3MHA-11 | 2026-09-03 12:17:15 | 50.92696 | 8.44328 | 172° | 22km/h | 27387m | 6.5m/s | -46.2°C | 3.3% | 18.7hPa | 2.6V | 00:00:00 | 01:59:22 | 00:00:00 | |
| DL1NUX | 2026-09-03 12:17:14 | 50.92710 | 8.44328 | 184° | 20km/h | 27370m | 6.3m/s | -46.3°C | 3.3% | 18.7hPa | 2.6V | 08:30:00 | 01:59:19 | 00:00:00 | |
| BIOWL1-15 | 2026-09-03 12:17:11 | 50.92715 | 8.44328 | 184° | 20km/h | 27364m | 5.9m/s | -46.4°C | 0.1% | 18.8hPa | 2.6V | 18:12:15 | 01:59:18 | 00:00:00 | |
| DL1XH-west | 2026-09-03 12:17:09 | 50.92726 | 8.44327 | 164° | 22km/h | 27353m | 5.7m/s | -46.4°C | 0.1% | 18.8hPa | 2.7V | 18:12:15 | 01:59:16 | 00:00:00 | |
| DM0DOS-11 | 2026-09-03 12:17:08 | 50.92756 | 8.44288 | 128° | 18km/h | 27318m | 5m/s | -46.2°C | 3.3% | 18.9hPa | 2.7V | 08:30:00 | 01:59:10 | 00:00:00 | |
| DL1XH1-15 | 2026-09-03 12:17:07 | 50.92743 | 8.44310 | 136° | 29km/h | 27336m | 5m/s | -46.3°C | 3.3% | 18.9hPa | 2.6V | 08:30:00 | 01:59:13 | 00:00:00 | |
| DF8AY | 2026-09-03 12:17:06 | 50.92743 | 8.44310 | 137° | 29km/h | 27336m | 5m/s | -46.3°C | 0.1% | 18.9hPa | 2.6V | 18:12:15 | 01:59:13 | 00:00:00 | |
| HSKMA3-T | 2026-09-03 12:17:05 | 50.92748 | 8.44302 | 134° | 27km/h | 27330m | 6.6m/s | -46.3°C | 0.1% | 18.9hPa | 2.6V | 18:12:15 | 01:59:12 | 00:00:00 | |
| DL1NUX | 2026-09-03 12:17:04 | 50.92759 | 8.44282 | 128° | 18km/h | 27313m | 6m/s | -46.2°C | 3.3% | 18.9hPa | 2.7V | 08:30:00 | 01:59:09 | 00:00:00 | |
| BIOWL1-15 | 2026-09-03 12:17:00 | 50.92771 | 8.44263 | 149° | 15km/h | 27291m | 5.7m/s | -46.4°C | 0.1% | 19hPa | 2.6V | 18:12:15 | 01:59:05 | 00:00:00 | |
| AA1-15 | 2026-09-03 12:17:00 | 50.92765 | 8.44272 | 136° | 18km/h | 27301m | 5.3m/s | -46.4°C | 0.1% | 18.9hPa | 2.6V | 18:12:15 | 01:59:07 | 00:00:00 | |
| GOEST3-10 | 2026-09-03 12:17:00 | 50.92764 | 8.44271 | 136° | 15km/h | 27301m | 5.3m/s | -46.3°C | 3.3% | 18.9hPa | 2.6V | 00:00:00 | 01:59:07 | 00:00:00 | |
| DL1XH-15 | 2026-09-03 12:16:59 | 50.92784 | 8.44253 | 144° | 16km/h | 27268m | 6.1m/s | -46.3°C | 3.3% | 19hPa | 2.6V | 08:30:00 | 01:59:01 | 00:00:00 | |
| DL1XH-west | 2026-09-03 12:16:59 | 50.92768 | 8.44267 | 141° | 18km/h | 27296m | 4.9m/s | -46.4°C | 0.1% | 19hPa | 2.6V | 18:12:15 | 01:59:06 | 00:00:00 | |
| DL1XH1-15 | 2026-09-03 12:16:57 | 50.92778 | 8.44258 | 160° | 13km/h | 27278m | 5.3m/s | -46.3°C | 3.3% | 19hPa | 2.7V | 08:30:00 | 01:59:03 | 00:00:00 | |
| DF8AY | 2026-09-03 12:16:55 | 50.92781 | 8.44256 | 152° | 15km/h | 27273m | 4.5m/s | -46.2°C | 0.1% | 19hPa | 2.6V | 18:12:15 | 01:59:02 | 00:00:00 | |
| HSKMA3-T | 2026-09-03 12:16:54 | 50.92784 | 8.44253 | 145° | 16km/h | 27268m | 6.1m/s | -46.3°C | 0.1% | 19hPa | 2.6V | 18:12:15 | 01:59:01 | 00:00:00 | |
| DL1NUX | 2026-09-03 12:16:54 | 50.92792 | 8.44241 | 130° | 26km/h | 27256m | 5.3m/s | -46.3°C | 3.3% | 19.1hPa | 2.7V | 08:30:00 | 01:58:59 | 00:00:00 | |
| DL1XH-west | 2026-09-03 12:16:49 | 50.92802 | 8.44218 | 119° | 18km/h | 27239m | 5.8m/s | -46.1°C | 0.1% | 19.1hPa | 2.7V | 18:12:15 | 01:58:56 | 00:00:00 | |
| BIOWL1-15 | 2026-09-03 12:16:47 | 50.92810 | 8.44196 | 119° | 16km/h | 27217m | 6.2m/s | -46.2°C | 0.1% | 19.2hPa | 2.6V | 18:12:15 | 01:58:52 | 00:00:00 | |
| DD1CC8 | 2026-09-03 12:16:46 | 50.92810 | 8.44196 | 118° | 16km/h | 27218m | 6.2m/s | -46.2°C | 0.7% | 19.2hPa | 2.7V | 00:00:00 | 00:00:00 | 00:00:00 | |
| DO3MHA-11 | 2026-09-03 12:16:45 | 50.92810 | 8.44196 | 119° | 20km/h | 27218m | 6.1m/s | -46.2°C | 3.2% | 19.1hPa | 2.7V | 00:00:00 | 01:58:52 | 00:00:00 | |
| DL1NUX | 2026-09-03 12:16:44 | 50.92816 | 8.44175 | 110° | 20km/h | 27202m | 5.6m/s | -46.4°C | 3.3% | 19.2hPa | 2.7V | 08:30:00 | 01:58:49 | 00:00:00 | |
| HSKMA3-T | 2026-09-03 12:16:43 | 50.92814 | 8.44182 | 113° | 22km/h | 27207m | 4.4m/s | -46.4°C | 0.1% | 19.2hPa | 2.7V | 18:12:15 | 01:58:50 | 00:00:00 | |
| DO3MHA-12 | 2026-09-03 12:16:43 | 50.92814 | 8.44182 | 114° | 24km/h | 27207m | 4.4m/s | -46.3°C | 3.3% | 19.2hPa | 2.7V | 00:00:00 | 01:58:50 | 00:00:00 | |
| DO3DL | 2026-09-03 12:16:42 | 50.92814 | 8.44182 | 114° | 22km/h | 27207m | 4.4m/s | -46.4°C | 0.8% | 19.2hPa | 2.7V | 00:00:00 | 00:00:00 | 00:00:00 | |
| DL3OBA | 2026-09-03 12:16:41 | 50.92817 | 8.44167 | 107° | 18km/h | 27197m | 6.1m/s | -46.3°C | 0.8% | 19.3hPa | 2.7V | 00:00:00 | 00:00:00 | 00:00:00 | |
| SONCRA | 2026-09-03 12:16:40 | 50.92820 | 8.44155 | 113° | 16km/h | 27185m | 5.1m/s | -46.2°C | 0.8% | 19.3hPa | 2.7V | 00:00:00 | 00:00:00 | 00:00:00 | |
| DL1XH1-15 | 2026-09-03 12:16:39 | 50.92830 | 8.44132 | 127° | 29km/h | 27168m | 5.1m/s | -46.3°C | 3.3% | 19.3hPa | 2.7V | 08:30:00 | 01:58:43 | 00:00:00 | |
| AA1-15 | 2026-09-03 12:16:38 | 50.92822 | 8.44148 | 122° | 20km/h | 27180m | 5.5m/s | -46.2°C | 0.1% | 19.3hPa | 2.7V | 18:12:15 | 01:58:45 | 00:00:00 | |
| DD8BA-10 | 2026-09-03 12:16:38 | 50.92822 | 8.44148 | 123° | 27km/h | 27180m | 5.5m/s | -46.2°C | 3.3% | 19.2hPa | 2.7V | 00:00:00 | 00:00:00 | 08:30:00 | |
| DL4BBY-15 | 2026-09-03 12:16:36 | 50.92830 | 8.44132 | 128° | 26km/h | 27169m | 5.1m/s | -48.5°C | 0% | 0hPa | 2.6V | 00:00:00 | 00:00:00 | 00:00:00 | |
| DM0DOS-11 | 2026-09-03 12:16:35 | 50.92842 | 8.44101 | 110° | 27km/h | 27152m | 6m/s | -46.3°C | 3.3% | 19.4hPa | 2.6V | 08:30:00 | 01:58:40 | 00:00:00 | |
| HSKMA3-T | 2026-09-03 12:16:32 | 50.92844 | 8.44091 | 104° | 27km/h | 27146m | 5.9m/s | -46.3°C | 0.1% | 19.4hPa | 2.7V | 18:12:15 | 01:58:39 | 00:00:00 | |
| DF8AY | 2026-09-03 12:16:32 | 50.92845 | 8.44080 | 101° | 27km/h | 27140m | 6.2m/s | -46.4°C | 0.1% | 19.4hPa | 2.7V | 18:12:15 | 01:58:38 | 00:00:00 | |
| DJ2DS-15 | 2026-09-03 12:16:30 | 50.92847 | 8.44068 | 100° | 26km/h | 27134m | 5.7m/s | -46.3°C | 3.3% | 19.4hPa | 2.7V | 00:00:00 | 01:58:37 | 08:30:00 | |
| NBG1-10 | 2026-09-03 12:16:29 | 50.92848 | 8.44057 | 96° | 20km/h | 27129m | 4.5m/s | -46.3°C | 3.3% | 19.4hPa | 2.6V | 00:00:00 | 01:58:36 | 00:00:00 | |
| DM0DOS-11 | 2026-09-03 12:16:28 | 50.92848 | 8.44003 | 111° | 22km/h | 27095m | 5.5m/s | -46.4°C | 3.3% | 19.5hPa | 2.6V | 08:30:00 | 01:58:30 | 00:00:00 | |
| AA1-15 | 2026-09-03 12:16:28 | 50.92848 | 8.44046 | 90° | 26km/h | 27124m | 5.4m/s | -46.4°C | 0.1% | 19.5hPa | 2.6V | 18:12:15 | 01:58:35 | 00:00:00 | |
| DL1XH1-15 | 2026-09-03 12:16:27 | 50.92847 | 8.44027 | 79° | 22km/h | 27111m | 5.6m/s | -46.3°C | 3.3% | 19.5hPa | 2.7V | 08:30:00 | 01:58:33 | 00:00:00 | |
| DO3MHA-11 | 2026-09-03 12:16:25 | 50.92846 | 8.44019 | 86° | 24km/h | 27107m | 4.7m/s | -46.3°C | 3.2% | 19.5hPa | 2.7V | 00:00:00 | 01:58:32 | 00:00:00 | |
| DL1NUX | 2026-09-03 12:16:24 | 50.92850 | 8.43995 | 116° | 24km/h | 27090m | 4.1m/s | -46.5°C | 3.3% | 19.6hPa | 2.7V | 08:30:00 | 01:58:29 | 00:00:00 | |
| BIOWL1-15 | 2026-09-03 12:16:22 | 50.92850 | 8.43995 | 117° | 24km/h | 27090m | 4.1m/s | -46.5°C | 0.1% | 19.6hPa | 2.7V | 18:12:15 | 01:58:29 | 00:00:00 | |
| DL1XH-west | 2026-09-03 12:16:17 | 50.92857 | 8.43947 | 90° | 26km/h | 27064m | 5.5m/s | -46.7°C | 0.1% | 19.6hPa | 2.7V | 18:12:15 | 01:58:24 | 00:00:00 | |
| AA1-15 | 2026-09-03 12:16:16 | 50.92857 | 8.43936 | 90° | 27km/h | 27059m | 5.6m/s | -46.7°C | 0.1% | 19.6hPa | 2.6V | 18:12:15 | 01:58:23 | 00:00:00 | |
| DL1CLM-18 | 2026-09-03 12:16:16 | 50.92856 | 8.43936 | 91° | 27km/h | 27059m | 5.6m/s | -46.7°C | 0.8% | 19.6hPa | 2.7V | 00:00:00 | 00:00:00 | 00:00:00 | |
| DM0DOS-11 | 2026-09-03 12:16:15 | 50.92855 | 8.43902 | 76° | 29km/h | 27043m | 5.7m/s | -46.3°C | 3.2% | 19.7hPa | 2.7V | 08:30:00 | 01:58:20 | 00:00:00 | |
| DO3MHA-11 | 2026-09-03 12:16:15 | 50.92856 | 8.43925 | 89° | 24km/h | 27054m | 4.9m/s | -46.5°C | 3.3% | 19.6hPa | 2.7V | 00:00:00 | 01:58:22 | 00:00:00 | |
| DL1NUX | 2026-09-03 12:16:14 | 50.92852 | 8.43891 | 67° | 29km/h | 27037m | 6.6m/s | -46.3°C | 3.2% | 19.7hPa | 2.7V | 08:30:00 | 01:58:19 | 00:00:00 | |
| HSKMA3-T | 2026-09-03 12:16:12 | 50.92852 | 8.43891 | 68° | 29km/h | 27037m | 6.6m/s | -46.3°C | 0.1% | 19.7hPa | 2.7V | 18:12:15 | 01:58:19 | 00:00:00 | |
| DB0NH | 2026-09-03 12:16:10 | 50.92846 | 8.43871 | 60° | 16km/h | 27027m | 4.5m/s | -46.4°C | 3.2% | 19.7hPa | 2.6V | 00:00:00 | 01:58:17 | 00:00:00 | |
| SONCRA | 2026-09-03 12:16:09 | 50.92841 | 8.43855 | 78° | 16km/h | 27015m | 6.0m/s | -46.6°C | 0.7% | 19.8hPa | 2.6V | 00:00:00 | 00:00:00 | 00:00:00 | |
| DM0DOS-11 | 2026-09-03 12:16:08 | 50.92843 | 8.43831 | 78° | 13km/h | 26989m | 5.3m/s | -46.6°C | 3.2% | 19.9hPa | 2.6V | 08:30:00 | 01:58:10 | 00:00:00 | |
| DL1XH-west | 2026-09-03 12:16:06 | 50.92842 | 8.43845 | 110° | 11km/h | 27005m | 4.8m/s | -46.6°C | 0.1% | 19.8hPa | 2.7V | 18:12:15 | 01:58:13 | 00:00:00 | |
| AA1-15 | 2026-09-03 12:16:05 | 50.92843 | 8.43841 | 106° | 11km/h | 27000m | 5.7m/s | -46.6°C | 0.1% | 19.8hPa | 2.7V | 18:12:15 | 01:58:12 | 00:00:00 | |
| DJ2KF-10 | 2026-09-03 12:16:05 | 50.92843 | 8.43840 | 106° | 16km/h | 27000m | 5.7m/s | -46.6°C | 3.3% | 19.8hPa | 2.6V | 00:00:00 | 01:58:12 | 00:00:00 | |
| DL1NUX | 2026-09-03 12:16:04 | 50.92842 | 8.43826 | 75° | 16km/h | 26984m | 4.9m/s | -46.7°C | 3.3% | 19.9hPa | 2.6V | 08:30:00 | 01:58:09 | 00:00:00 | |
| BIOWL1-15 | 2026-09-03 12:16:04 | 50.92842 | 8.43826 | 75° | 16km/h | 26984m | 4.9m/s | -46.7°C | 0.1% | 19.9hPa | 2.6V | 18:12:15 | 01:58:09 | 00:00:00 | |
| DF8AY | 2026-09-03 12:16:03 | 50.92843 | 8.43831 | 78° | 13km/h | 26989m | 5.3m/s | -46.6°C | 0% | 19.9hPa | 2.6V | 18:12:15 | 01:58:10 | 00:00:00 | |
| HSKMA3-T | 2026-09-03 12:16:01 | 50.92841 | 8.43819 | 79° | 16km/h | 26978m | 6.3m/s | -46.8°C | 0.1% | 19.9hPa | 2.7V | 18:12:15 | 01:58:08 | 00:00:00 | |
| DF7PN | 2026-09-03 12:15:59 | 50.92840 | 8.43804 | 80° | 20km/h | 26967m | 4.7m/s | -46.9°C | 0.8% | 19.9hPa | 2.7V | 00:00:00 | 00:00:00 | 00:00:00 | |
| DL3OBA | 2026-09-03 12:15:58 | 50.92839 | 8.43804 | 82° | 22km/h | 26967m | 4.7m/s | -46.9°C | 0.8% | 19.9hPa | 2.7V | 00:00:00 | 00:00:00 | 00:00:00 | |
| DL1XH1-15 | 2026-09-03 12:15:57 | 50.92834 | 8.43779 | 65° | 22km/h | 26950m | 4.3m/s | -46.9°C | 3.3% | 20hPa | 2.7V | 08:30:00 | 01:58:03 | 00:00:00 | |
| DK9SH | 2026-09-03 12:15:57 | 50.92837 | 8.43787 | 70° | 24km/h | 26956m | 6.0m/s | -47.0°C | 0.8% | 20.0hPa | 2.7V | 00:00:00 | 00:00:00 | 00:00:00 | |
| NBG1-10 | 2026-09-03 12:15:56 | 50.92834 | 8.43779 | 66° | 11km/h | 26951m | 4.3m/s | -46.9°C | 3.3% | 19.9hPa | 2.7V | 00:00:00 | 01:58:03 | 00:00:00 | |
| DM0DOS-11 | 2026-09-03 12:15:55 | 50.92831 | 8.43762 | 94° | 7km/h | 26934m | 4.9m/s | -46.8°C | 3.3% | 20hPa | 2.7V | 08:30:00 | 01:58:00 | 00:00:00 | |
| AA1-15 | 2026-09-03 12:15:55 | 50.92833 | 8.43772 | 69° | 16km/h | 26946m | 5.3m/s | -46.9°C | 0.1% | 20hPa | 2.6V | 18:12:15 | 01:58:02 | 00:00:00 | |
| SO1NDE-10 | 2026-09-03 12:15:55 | 50.92832 | 8.43772 | 69° | 18km/h | 26946m | 5.3m/s | -46.8°C | 3.2% | 20.0hPa | 2.6V | 00:00:00 | 01:58:02 | 00:00:00 | |
| DL1NUX | 2026-09-03 12:15:54 | 50.92831 | 8.43760 | 100° | 5km/h | 26929m | 4.9m/s | -46.9°C | 3.3% | 20hPa | 2.7V | 08:30:00 | 01:57:59 | 00:00:00 | |
| BIOWL1-15 | 2026-09-03 12:15:51 | 50.92831 | 8.43758 | 80° | 4km/h | 26924m | 6.3m/s | -46.9°C | 0.1% | 20.1hPa | 2.6V | 18:12:15 | 01:57:58 | 00:00:00 | |
| HSKMA3-T | 2026-09-03 12:15:50 | 50.92831 | 8.43756 | 61° | 7km/h | 26918m | 5.5m/s | -47°C | 0.1% | 20.1hPa | 2.6V | 18:12:15 | 01:57:57 | 00:00:00 | |
| DL9SK-14 | 2026-09-03 12:15:48 | 50.92829 | 8.43749 | 66° | 11km/h | 26907m | 5.8m/s | -47.1°C | 0.8% | 20.1hPa | 2.7V | 00:00:00 | 00:00:00 | 00:00:00 | |
| DL1XH1-15 | 2026-09-03 12:15:47 | 50.92826 | 8.43738 | 72° | 18km/h | 26896m | 4.1m/s | -46.9°C | 3.3% | 20.1hPa | 2.7V | 08:30:00 | 01:57:53 | 00:00:00 | |
| DL1XH-west | 2026-09-03 12:15:45 | 50.92824 | 8.43730 | 68° | 24km/h | 26892m | 4.7m/s | -47°C | 0.1% | 20.2hPa | 2.6V | 18:12:15 | 01:57:52 | 00:00:00 | |
| DM0DOS-11 | 2026-09-03 12:15:44 | 50.92818 | 8.43711 | 58° | 31km/h | 26880m | 5.4m/s | -47.2°C | 3.3% | 20.2hPa | 2.6V | 08:30:00 | 01:57:50 | 00:00:00 | |
| AA1-15 | 2026-09-03 12:15:44 | 50.92822 | 8.43721 | 63° | 27km/h | 26886m | 6.8m/s | -47.1°C | 0.2% | 20.2hPa | 2.6V | 18:12:15 | 01:57:51 | 00:00:00 | |
| DL1NUX | 2026-09-03 12:15:43 | 50.92814 | 8.43700 | 58° | 29km/h | 26875m | 4.2m/s | -47.2°C | 3.4% | 20.2hPa | 2.7V | 08:30:00 | 01:57:49 | 00:00:00 | |
| HSKMA3-T | 2026-09-03 12:15:40 | 50.92808 | 8.43682 | 66° | 22km/h | 26865m | 5.5m/s | -47.1°C | 0.2% | 20.2hPa | 2.7V | 18:12:15 | 01:57:47 | 00:00:00 | |
| DB0NH | 2026-09-03 12:15:40 | 50.92808 | 8.43682 | 66° | 18km/h | 26865m | 5.5m/s | -47.1°C | 3.4% | 20.2hPa | 2.7V | 00:00:00 | 01:57:47 | 00:00:00 | |
| DL3OBA | 2026-09-03 12:15:38 | 50.92806 | 8.43675 | 73° | 16km/h | 26860m | 4.4m/s | -47.2°C | 0.8% | 20.3hPa | 2.7V | 00:00:00 | 00:00:00 | 00:00:00 | |
| DL1XH1-15 | 2026-09-03 12:15:37 | 50.92802 | 8.43659 | 52° | 15km/h | 26845m | 5.6m/s | -47.1°C | 3.3% | 20.3hPa | 2.7V | 08:30:00 | 01:57:43 | 00:00:00 | |
| DD8BA-10 | 2026-09-03 12:15:37 | 50.92803 | 8.43664 | 64° | 20km/h | 26851m | 5.4m/s | -47.2°C | 3.4% | 20.2hPa | 2.6V | 00:00:00 | 00:00:00 | 00:00:00 | |
| DL4BBY-15 | 2026-09-03 12:15:36 | 50.92802 | 8.43659 | 53° | 18km/h | 26846m | 5.5m/s | -49.4°C | 0% | 0hPa | 2.7V | 00:00:00 | 00:00:00 | 00:00:00 | |
| DO3MHA-11 | 2026-09-03 12:15:35 | 50.92799 | 8.43654 | 46° | 18km/h | 26840m | 5.1m/s | -47.0°C | 3.3% | 20.3hPa | 2.7V | 00:00:00 | 01:57:42 | 00:00:00 | |
| DL1NUX | 2026-09-03 12:15:34 | 50.92789 | 8.43638 | 51° | 18km/h | 26823m | 5.5m/s | -47.3°C | 3.4% | 20.4hPa | 2.7V | 08:30:00 | 01:57:39 | 00:00:00 | |
| DL1XH-west | 2026-09-03 12:15:34 | 50.92796 | 8.43649 | 44° | 20km/h | 26835m | 4.8m/s | -47.1°C | 0.1% | 20.4hPa | 2.6V | 18:12:15 | 01:57:41 | 00:00:00 | |
| AA1-15 | 2026-09-03 12:15:33 | 50.92792 | 8.43643 | 46° | 18km/h | 26829m | 6.1m/s | -47.2°C | 0.2% | 20.4hPa | 2.6V | 18:12:15 | 01:57:40 | 00:00:00 | |
| DO3MHA-12 | 2026-09-03 12:15:33 | 50.92792 | 8.43643 | 47° | 16km/h | 26829m | 6.1m/s | -47.1°C | 3.3% | 20.3hPa | 2.6V | 00:00:00 | 01:57:40 | 00:00:00 | |
| GOEST3-10 | 2026-09-03 12:15:32 | 50.92789 | 8.43638 | 52° | 24km/h | 26824m | 5.4m/s | -47.2°C | 3.4% | 20.3hPa | 2.6V | 00:00:00 | 00:00:00 | 00:00:00 | |
| DL1XH1-15 | 2026-09-03 12:15:31 | 50.92768 | 8.43592 | 54° | 18km/h | 26792m | 6m/s | -47.2°C | 3.3% | 20.5hPa | 2.6V | 08:30:00 | 01:57:33 | 00:00:00 | |
| BIOWL1-15 | 2026-09-03 12:15:30 | 50.92769 | 8.43592 | 54° | 18km/h | 26792m | 6m/s | -47.2°C | 0.1% | 20.5hPa | 2.6V | 18:12:15 | 01:57:33 | 00:00:00 | |
| HSKMA3-T | 2026-09-03 12:15:29 | 50.92779 | 8.43616 | 55° | 27km/h | 26807m | 6.1m/s | -47.3°C | 0.1% | 20.4hPa | 2.6V | 18:12:15 | 01:57:36 | 00:00:00 | |
| DO2KSM | 2026-09-03 12:15:28 | 50.92775 | 8.43607 | 56° | 27km/h | 26802m | 4.4m/s | -47.2°C | 0.8% | 20.4hPa | 2.7V | 00:00:00 | 00:00:00 | 00:00:00 | |
| DD8BA-10 | 2026-09-03 12:15:27 | 50.92771 | 8.43599 | 55° | 15km/h | 26797m | 4.5m/s | -47.1°C | 3.3% | 20.4hPa | 2.7V | 00:00:00 | 00:00:00 | 00:00:00 | |
| DM0DOS-11 | 2026-09-03 12:15:25 | 50.92762 | 8.43583 | 13° | 11km/h | 26777m | 5.7m/s | -47.3°C | 3.3% | 20.5hPa | 2.7V | 08:30:00 | 01:57:30 | 00:00:00 | |
| DB0DAN | 2026-09-03 12:15:25 | 50.92766 | 8.43587 | 46° | 13km/h | 26786m | 4.9m/s | -47.2°C | 0.8% | 20.5hPa | 2.6V | 00:00:00 | 00:00:00 | 00:00:00 | |
| DL1XH-west | 2026-09-03 12:15:24 | 50.92764 | 8.43585 | 28° | 9km/h | 26782m | 4.2m/s | -47.3°C | 0.1% | 20.5hPa | 2.6V | 18:12:15 | 01:57:31 | 00:00:00 | |
| AA1-15 | 2026-09-03 12:15:22 | 50.92758 | 8.43582 | 6° | 15km/h | 26771m | 5.7m/s | -47.4°C | 0.1% | 20.5hPa | 2.7V | 18:12:15 | 01:57:29 | 00:00:00 | |
| BIOWL1-15 | 2026-09-03 12:15:22 | 50.92751 | 8.43581 | 9° | 15km/h | 26761m | 4.6m/s | -47.5°C | 0.1% | 20.6hPa | 2.6V | 18:12:15 | 01:57:27 | 00:00:00 | |
| DF8AY | 2026-09-03 12:15:20 | 50.92745 | 8.43578 | 32° | 11km/h | 26750m | 4.8m/s | -47.5°C | 0.1% | 20.6hPa | 2.6V | 18:12:15 | 01:57:25 | 00:00:00 | |
| HSKMA3-T | 2026-09-03 12:15:19 | 50.92748 | 8.43580 | 16° | 13km/h | 26756m | 6.1m/s | -47.5°C | 0.1% | 20.6hPa | 2.6V | 18:12:15 | 01:57:26 | 00:00:00 | |
| DL9SK-14 | 2026-09-03 12:15:18 | 50.92742 | 8.43575 | 42° | 13km/h | 26746m | 4.3m/s | -47.6°C | 0.8% | 20.6hPa | 2.7V | 00:00:00 | 00:00:00 | 00:00:00 | |
| DJTTGO | 2026-09-03 12:15:17 | 50.92739 | 8.43570 | 47° | 18km/h | 26741m | 6.4m/s | -47.6°C | 0.8% | 20.6hPa | 2.7V | 00:00:00 | 00:00:00 | 00:00:00 | |
| DO3MHA-11 | 2026-09-03 12:15:16 | 50.92736 | 8.43564 | 48° | 18km/h | 26735m | 5.6m/s | -47.6°C | 3.4% | 20.6hPa | 2.7V | 00:00:00 | 01:57:22 | 00:00:00 | |
| DL1XH-15 | 2026-09-03 12:15:15 | 50.92722 | 8.43540 | 46° | 15km/h | 26714m | 5m/s | -47.5°C | 3.3% | 20.7hPa | 2.7V | 08:30:00 | 01:57:18 | 00:00:00 | |
| DL1XH-west | 2026-09-03 12:15:14 | 50.92732 | 8.43557 | 48° | 24km/h | 26729m | 4.8m/s | -47.5°C | 0.2% | 20.7hPa | 2.6V | 18:12:15 | 01:57:21 | 00:00:00 | |
| AA1-15 | 2026-09-03 12:15:12 | 50.92725 | 8.43544 | 49° | 18km/h | 26719m | 6m/s | -47.5°C | 0.1% | 20.7hPa | 2.6V | 18:12:15 | 01:57:19 | 00:00:00 | |
| BIOWL1-15 | 2026-09-03 12:15:10 | 50.92709 | 8.43532 | 7° | 18km/h | 26693m | 4.9m/s | -47.9°C | 0.2% | 20.8hPa | 2.7V | 18:12:15 | 01:57:14 | 00:00:00 | |
| HSKMA3-T | 2026-09-03 12:15:09 | 50.92717 | 8.43534 | 19° | 13km/h | 26704m | 5.4m/s | -47.7°C | 0.2% | 20.8hPa | 2.6V | 18:12:15 | 01:57:16 | 00:00:00 | |
| DL1XH1-15 | 2026-09-03 12:15:09 | 50.92705 | 8.43531 | 7° | 18km/h | 26688m | 4.8m/s | -47.8°C | 3.4% | 20.8hPa | 2.7V | 08:30:00 | 01:57:13 | 00:00:00 | |
| DL1NUX | 2026-09-03 12:15:07 | 50.92688 | 8.43523 | 27° | 20km/h | 26666m | 6.4m/s | -47.8°C | 3.5% | 20.9hPa | 2.7V | 08:30:00 | 01:57:09 | 00:00:00 | |
| DL1XH-west | 2026-09-03 12:15:03 | 50.92675 | 8.43510 | 37° | 20km/h | 26651m | 5.2m/s | -47.8°C | 0.3% | 20.9hPa | 2.6V | 18:12:15 | 01:57:06 | 00:00:00 | |
| BIOWL1-15 | 2026-09-03 12:15:03 | 50.92669 | 8.43502 | 49° | 11km/h | 26640m | 5.2m/s | -47.7°C | 0.2% | 20.9hPa | 2.7V | 18:12:15 | 01:57:04 | 00:00:00 | |
| AA1-15 | 2026-09-03 12:15:01 | 50.92684 | 8.43519 | 30° | 22km/h | 26661m | 5.3m/s | -47.9°C | 0.2% | 20.9hPa | 2.6V | 18:12:15 | 01:57:08 | 00:00:00 | |
| HSKMA3-T | 2026-09-03 12:14:59 | 50.92671 | 8.43506 | 45° | 15km/h | 26646m | 6.1m/s | -47.7°C | 0.2% | 20.9hPa | 2.7V | 18:12:15 | 01:57:05 | 00:00:00 | |
| DL1XH-west | 2026-09-03 12:14:53 | 50.92660 | 8.43495 | 357° | 13km/h | 26619m | 4.7m/s | -47.8°C | 0.2% | 21hPa | 2.6V | 18:12:15 | 01:57:00 | 00:00:00 | |
| AU51GT2 | 2026-09-03 12:14:52 | 50.92657 | 8.43496 | 345° | 11km/h | 26614m | 5.7m/s | -47.9°C | 0.8% | 21.0hPa | 2.7V | 00:00:00 | 00:00:00 | 00:00:00 | |
| DL1XH1-15 | 2026-09-03 12:14:51 | 50.92639 | 8.43503 | 5° | 13km/h | 26581m | 4.7m/s | -48°C | 3.5% | 21.1hPa | 2.7V | 08:30:00 | 01:56:53 | 00:00:00 | |
| AA1-15 | 2026-09-03 12:14:50 | 50.92652 | 8.43500 | 330° | 11km/h | 26602m | 4.9m/s | -47.7°C | 0.2% | 21.1hPa | 2.7V | 18:12:15 | 01:56:57 | 00:00:00 | |
| HSKMA3-T | 2026-09-03 12:14:48 | 50.92646 | 8.43503 | 349° | 15km/h | 26592m | 6.2m/s | -47.8°C | 0.2% | 21.1hPa | 2.6V | 18:12:15 | 01:56:55 | 00:00:00 | |
| DL9SK-14 | 2026-09-03 12:14:46 | 50.92639 | 8.43503 | 5° | 13km/h | 26581m | 4.7m/s | -48.0°C | 0.8% | 21.1hPa | 2.7V | 00:00:00 | 00:00:00 | 00:00:00 | |
| DL8DAS-14 | 2026-09-03 12:14:45 | 50.92636 | 8.43503 | 10° | 9km/h | 26576m | 6.2m/s | -48.0°C | 0.8% | 21.2hPa | 2.7V | 00:00:00 | 00:00:00 | 00:00:00 | |
| DF8AY | 2026-09-03 12:14:44 | 50.92629 | 8.43502 | 345° | 9km/h | 26554m | 6m/s | -48°C | 0.3% | 21.2hPa | 2.7V | 18:12:15 | 01:56:48 | 00:00:00 | |
| DL1XH-west | 2026-09-03 12:14:42 | 50.92631 | 8.43501 | 355° | 5km/h | 26560m | 5.2m/s | -48°C | 0.3% | 21.2hPa | 2.7V | 18:12:15 | 01:56:49 | 00:00:00 | |
| AA1-15 | 2026-09-03 12:14:39 | 50.92623 | 8.43506 | 330° | 16km/h | 26544m | 4.8m/s | -48.1°C | 0.3% | 21.2hPa | 2.6V | 18:12:15 | 01:56:46 | 00:00:00 | |
| HSKMA3-T | 2026-09-03 12:14:37 | 50.92617 | 8.43514 | 313° | 15km/h | 26533m | 5.8m/s | -48.1°C | 0.3% | 21.3hPa | 2.7V | 18:12:15 | 01:56:44 | 00:00:00 | |
| BIOWL1-15 | 2026-09-03 12:14:37 | 50.92610 | 8.43525 | 331° | 13km/h | 26518m | 6.5m/s | -48.2°C | 0.3% | 21.4hPa | 2.6V | 18:12:15 | 01:56:41 | 00:00:00 | |
| DD8BA-10 | 2026-09-03 12:14:37 | 50.92617 | 8.43514 | 313° | 13km/h | 26534m | 5.8m/s | -48.0°C | 3.6% | 21.2hPa | 2.7V | 00:00:00 | 00:00:00 | 00:00:00 | |
| DO3MHA-11 | 2026-09-03 12:14:36 | 50.92613 | 8.43522 | 317° | 13km/h | 26524m | 4.8m/s | -48.2°C | 3.6% | 21.3hPa | 2.7V | 00:00:00 | 01:56:42 | 00:00:00 | |
| DJ2KF-10 | 2026-09-03 12:14:35 | 50.92613 | 8.43522 | 317° | 15km/h | 26524m | 4.8m/s | -48.2°C | 3.6% | 21.3hPa | 2.7V | 00:00:00 | 01:56:42 | 00:00:00 | |
| DL1NUX | 2026-09-03 12:14:34 | 50.92604 | 8.43528 | 352° | 13km/h | 26507m | 4.8m/s | -48°C | 3.5% | 21.4hPa | 2.7V | 08:30:00 | 01:56:39 | 00:00:00 | |
| DL1XH-west | 2026-09-03 12:14:32 | 50.92604 | 8.43528 | 353° | 13km/h | 26507m | 4.8m/s | -48°C | 0.2% | 21.4hPa | 2.7V | 18:12:15 | 01:56:39 | 00:00:00 | |
| DF8AY | 2026-09-03 12:14:30 | 50.92599 | 8.43529 | 342° | 9km/h | 26496m | 4.7m/s | -47.9°C | 0.3% | 21.4hPa | 2.6V | 18:12:15 | 01:56:37 | 00:00:00 | |
| AA1-15 | 2026-09-03 12:14:29 | 50.92597 | 8.43531 | 330° | 9km/h | 26492m | 3.9m/s | -48°C | 0.3% | 21.4hPa | 2.6V | 18:12:15 | 01:56:36 | 00:00:00 | |
| HSKMA3-T | 2026-09-03 12:14:27 | 50.92592 | 8.43536 | 319° | 15km/h | 26481m | 5.7m/s | -48.1°C | 0.3% | 21.5hPa | 2.7V | 18:12:15 | 01:56:34 | 00:00:00 | |
| BIOWL1-15 | 2026-09-03 12:14:26 | 50.92589 | 8.43541 | 310° | 18km/h | 26476m | 4.6m/s | -48.2°C | 0.3% | 21.5hPa | 2.7V | 18:12:15 | 01:56:33 | 00:00:00 | |
| SO1NDE-10 | 2026-09-03 12:14:25 | 50.92586 | 8.43547 | 298° | 13km/h | 26471m | 5.3m/s | -48.0°C | 3.5% | 21.4hPa | 2.7V | 00:00:00 | 01:56:32 | 00:00:00 | |
| DO3MHA-12 | 2026-09-03 12:14:23 | 50.92584 | 8.43561 | 277° | 15km/h | 26461m | 4.5m/s | -47.9°C | 3.5% | 21.5hPa | 2.7V | 00:00:00 | 01:56:30 | 00:00:00 | |
| DL1XH-15 | 2026-09-03 12:14:22 | 50.92576 | 8.43600 | 289° | 11km/h | 26429m | 5.5m/s | -47.9°C | 3.4% | 21.6hPa | 2.7V | 08:30:00 | 01:56:24 | 00:00:00 | |
| DL1XH-west | 2026-09-03 12:14:21 | 50.92582 | 8.43576 | 285° | 18km/h | 26450m | 5.9m/s | -48.1°C | 0.3% | 21.6hPa | 2.7V | 18:12:15 | 01:56:28 | 00:00:00 | |
| AA1-15 | 2026-09-03 12:14:18 | 50.92577 | 8.43595 | 295° | 15km/h | 26435m | 5.9m/s | -47.9°C | 0.2% | 21.6hPa | 2.6V | 18:12:15 | 01:56:25 | 00:00:00 | |
| HSKMA3-T | 2026-09-03 12:14:16 | 50.92575 | 8.43604 | 289° | 9km/h | 26424m | 4.4m/s | -48°C | 0.3% | 21.6hPa | 2.7V | 18:12:15 | 01:56:23 | 00:00:00 | |
| BIOWL1-15 | 2026-09-03 12:14:15 | 50.92570 | 8.43611 | 340° | 11km/h | 26408m | 5m/s | -48.2°C | 0.3% | 21.7hPa | 2.6V | 18:12:15 | 01:56:20 | 00:00:00 | |
| DL1XH-west | 2026-09-03 12:14:10 | 50.92564 | 8.43618 | 290° | 11km/h | 26392m | 4.9m/s | -48°C | 0.3% | 21.8hPa | 2.7V | 18:12:15 | 01:56:17 | 00:00:00 | |
| AA1-15 | 2026-09-03 12:14:07 | 50.92562 | 8.43635 | 287° | 18km/h | 26378m | 5.8m/s | -47.8°C | 0.2% | 21.8hPa | 2.6V | 18:12:15 | 01:56:14 | 00:00:00 | |
| HSKMA3-T | 2026-09-03 12:14:06 | 50.92560 | 8.43642 | 294° | 18km/h | 26372m | 5.4m/s | -47.7°C | 0.3% | 21.8hPa | 2.7V | 18:12:15 | 01:56:13 | 00:00:00 | |
| BIOWL1-15 | 2026-09-03 12:14:04 | 50.92556 | 8.43654 | 294° | 15km/h | 26362m | 5.1m/s | -47.7°C | 0.2% | 21.9hPa | 2.7V | 18:12:15 | 01:56:11 | 00:00:00 | |
| DL1NUX | 2026-09-03 12:14:04 | 50.92555 | 8.43663 | 272° | 7km/h | 26351m | 4.6m/s | -47.6°C | 3.5% | 21.9hPa | 2.6V | 08:30:00 | 01:56:09 | 00:00:00 | |
| DL1XH-west | 2026-09-03 12:14:00 | 50.92555 | 8.43666 | 354° | 2km/h | 26341m | 6.3m/s | -47.7°C | 0.2% | 21.9hPa | 2.7V | 18:12:15 | 01:56:07 | 00:00:00 | |
| AA1-15 | 2026-09-03 12:13:57 | 50.92551 | 8.43664 | 16° | 4km/h | 26325m | 6m/s | -47.7°C | 0.2% | 22hPa | 2.6V | 18:12:15 | 01:56:04 | 00:00:00 | |
| HSKMA3-T | 2026-09-03 12:13:55 | 50.92550 | 8.43665 | 312° | 5km/h | 26315m | 4.6m/s | -47.8°C | 0.2% | 22hPa | 2.7V | 18:12:15 | 01:56:02 | 00:00:00 | |
| DO3MHA-11 | 2026-09-03 12:13:55 | 50.92549 | 8.43665 | 312° | 11km/h | 26315m | 4.5m/s | -47.7°C | 3.4% | 22.0hPa | 2.7V | 00:00:00 | 01:56:02 | 08:30:00 | |
| DM0DOS-11 | 2026-09-03 12:13:54 | 50.92545 | 8.43673 | 310° | 13km/h | 26298m | 4.7m/s | -48°C | 3.4% | 22.1hPa | 2.6V | 08:30:00 | 01:55:59 | 00:00:00 | |
| BIOWL1-15 | 2026-09-03 12:13:54 | 50.92548 | 8.43667 | 315° | 7km/h | 26309m | 6.2m/s | -47.9°C | 0.2% | 22.1hPa | 2.6V | 18:12:15 | 01:56:01 | 00:00:00 | |
| DF8AY | 2026-09-03 12:13:53 | 50.92545 | 8.43673 | 311° | 13km/h | 26298m | 4.7m/s | -48°C | 0.2% | 22.1hPa | 2.6V | 18:12:15 | 01:55:59 | 00:00:00 | |
| DL1XH-west | 2026-09-03 12:13:50 | 50.92541 | 8.43683 | 283° | 15km/h | 26287m | 6m/s | -48°C | 0.2% | 22.1hPa | 2.7V | 18:12:15 | 01:55:57 | 00:00:00 | |
| AA1-15 | 2026-09-03 12:13:46 | 50.92539 | 8.43703 | 297° | 9km/h | 26266m | 4.9m/s | -47.6°C | 0.2% | 22.2hPa | 2.6V | 18:12:15 | 01:55:53 | 00:00:00 | |
| HSKMA3-T | 2026-09-03 12:13:45 | 50.92538 | 8.43706 | 296° | 7km/h | 26261m | 5m/s | -47.6°C | 0.3% | 22.2hPa | 2.7V | 18:12:15 | 01:55:52 | 00:00:00 | |
| DL1NUX | 2026-09-03 12:13:44 | 50.92537 | 8.43714 | 264° | 5km/h | 26245m | 4.4m/s | -47.6°C | 3.4% | 22.2hPa | 2.6V | 08:30:00 | 01:55:49 | 00:00:00 | |
| BIOWL1-15 | 2026-09-03 12:13:43 | 50.92537 | 8.43712 | 264° | 7km/h | 26250m | 4.8m/s | -47.6°C | 0.2% | 22.2hPa | 2.7V | 18:12:15 | 01:55:50 | 00:00:00 | |
| BIOWL7-15 | 2026-09-03 12:13:43 | 50.92537 | 8.43712 | 265° | 5km/h | 26250m | 4.8m/s | -47.6°C | 0.8% | 22.2hPa | 2.7V | 00:00:00 | 00:00:00 | 00:00:00 | |
| GOEST3-10 | 2026-09-03 12:13:42 | 50.92537 | 8.43714 | 265° | 5km/h | 26245m | 4.4m/s | -47.6°C | 3.4% | 22.2hPa | 2.7V | 00:00:00 | 01:55:49 | 00:00:00 | |
| DL8DAS-15 | 2026-09-03 12:13:41 | 50.92537 | 8.43714 | 266° | 5km/h | 26245m | 4.4m/s | -47.7°C | 0.9% | 22.2hPa | 2.7V | 00:00:00 | 00:00:00 | 00:00:00 | |
| DL1XH1-15 | 2026-09-03 12:13:40 | 50.92534 | 8.43727 | 253° | 9km/h | 26209m | 4.5m/s | -47.6°C | 3.5% | 22.4hPa | 2.7V | 08:30:00 | 01:55:42 | 00:00:00 | |
| DL1XH-west | 2026-09-03 12:13:40 | 50.92536 | 8.43717 | 333° | 5km/h | 26234m | 5.8m/s | -47.7°C | 0.2% | 22.3hPa | 2.6V | 18:12:15 | 01:55:47 | 00:00:00 | |
| AA1-15 | 2026-09-03 12:13:36 | 50.92533 | 8.43724 | 259° | 7km/h | 26213m | 4.8m/s | -47.6°C | 0.2% | 22.4hPa | 2.6V | 18:12:15 | 01:55:43 | 00:00:00 | |
| DL4BBY-15 | 2026-09-03 12:13:36 | 50.92533 | 8.43724 | 259° | 7km/h | 26214m | 4.8m/s | -49.8°C | 0% | 0hPa | 2.6V | 00:00:00 | 00:00:00 | 00:00:00 | |
| DM0DOS-11 | 2026-09-03 12:13:35 | 50.92534 | 8.43734 | 273° | 4km/h | 26193m | 4.8m/s | -47.4°C | 3.4% | 22.4hPa | 2.6V | 08:30:00 | 01:55:39 | 00:00:00 | |
| HSKMA3-T | 2026-09-03 12:13:34 | 50.92534 | 8.43730 | 259° | 7km/h | 26203m | 6m/s | -47.5°C | 0.3% | 22.4hPa | 2.7V | 18:12:15 | 01:55:41 | 00:00:00 | |
| BIOWL1-15 | 2026-09-03 12:13:32 | 50.92534 | 8.43734 | 274° | 4km/h | 26193m | 4.8m/s | -47.4°C | 0.2% | 22.4hPa | 2.6V | 18:12:15 | 01:55:39 | 00:00:00 | |
| DL1XH-west | 2026-09-03 12:13:30 | 50.92535 | 8.43736 | 209° | 5km/h | 26182m | 5.7m/s | -47.5°C | 0.2% | 22.5hPa | 2.7V | 18:12:15 | 01:55:37 | 00:00:00 | |
| DJ2DS-15 | 2026-09-03 12:13:30 | 50.92535 | 8.43736 | 209° | 7km/h | 26182m | 5.6m/s | -47.5°C | 3.5% | 22.4hPa | 2.7V | 00:00:00 | 01:55:37 | 08:30:00 | |
| DJ2DS-15 | 2026-09-03 12:13:28 | 50.92538 | 8.43736 | 151° | 5km/h | 26172m | 5.1m/s | -47.7°C | 0.9% | 22.5hPa | 2.6V | 00:00:00 | 00:00:00 | 00:00:00 | |
| DL1XH1-15 | 2026-09-03 12:13:26 | 50.92540 | 8.43729 | 102° | 7km/h | 26156m | 4.6m/s | -47.4°C | 3.4% | 22.6hPa | 2.6V | 08:30:00 | 01:55:32 | 00:00:00 | |
| AA1-15 | 2026-09-03 12:13:25 | 50.92540 | 8.43729 | 103° | 7km/h | 26156m | 4.6m/s | -47.4°C | 0.2% | 22.6hPa | 2.6V | 18:12:15 | 01:55:32 | 00:00:00 | |
| DM0DOS-11 | 2026-09-03 12:13:24 | 50.92543 | 8.43724 | 176° | 7km/h | 26140m | 4.9m/s | -47.5°C | 3.5% | 22.6hPa | 2.7V | 08:30:00 | 01:55:29 | 00:00:00 | |
| HSKMA3-T | 2026-09-03 12:13:23 | 50.92541 | 8.43724 | 157° | 5km/h | 26145m | 5.5m/s | -47.5°C | 0.2% | 22.6hPa | 2.7V | 18:12:15 | 01:55:30 | 00:00:00 | |
| BIOWL1-15 | 2026-09-03 12:13:22 | 50.92543 | 8.43724 | 177° | 7km/h | 26140m | 4.9m/s | -47.5°C | 0.3% | 22.6hPa | 2.7V | 18:12:15 | 01:55:29 | 00:00:00 | |
| DL1XH-west | 2026-09-03 12:13:19 | 50.92548 | 8.43721 | 144° | 7km/h | 26123m | 5.4m/s | -47.5°C | 0.2% | 22.7hPa | 2.6V | 18:12:15 | 01:55:26 | 00:00:00 | |
| DL1XH1-15 | 2026-09-03 12:13:16 | 50.92558 | 8.43713 | 151° | 13km/h | 26103m | 4.2m/s | -47.6°C | 3.4% | 22.7hPa | 2.6V | 08:30:00 | 01:55:22 | 00:00:00 | |
| AA1-15 | 2026-09-03 12:13:15 | 50.92558 | 8.43713 | 152° | 13km/h | 26103m | 4.2m/s | -47.6°C | 0.2% | 22.7hPa | 2.6V | 18:12:15 | 01:55:22 | 00:00:00 | |
| HSKMA3-T | 2026-09-03 12:13:13 | 50.92563 | 8.43707 | 129° | 9km/h | 26091m | 5.4m/s | -47.7°C | 0.3% | 22.8hPa | 2.7V | 18:12:15 | 01:55:20 | 00:00:00 | |
| DO3MHA-12 | 2026-09-03 12:13:13 | 50.92563 | 8.43707 | 130° | 5km/h | 26092m | 5.3m/s | -47.6°C | 3.5% | 22.7hPa | 2.7V | 00:00:00 | 01:55:20 | 08:30:00 | |
| DL8DAS-14 | 2026-09-03 12:13:12 | 50.92565 | 8.43703 | 146° | 4km/h | 26081m | 6.1m/s | -47.5°C | 0.8% | 22.8hPa | 2.6V | 00:00:00 | 00:00:00 | 00:00:00 | |
| DB0ND-19 | 2026-09-03 12:13:11 | 50.92566 | 8.43702 | 171° | 5km/h | 26076m | 5.0m/s | -47.5°C | 0.8% | 22.8hPa | 2.6V | 00:00:00 | 00:00:00 | 00:00:00 | |
| DL1XH1-15 | 2026-09-03 12:13:10 | 50.92571 | 8.43701 | 136° | 2km/h | 26050m | 5.2m/s | -47.5°C | 3.4% | 22.9hPa | 2.6V | 08:30:00 | 01:55:12 | 00:00:00 | |
| DL1XH-west | 2026-09-03 12:13:08 | 50.92569 | 8.43702 | 181° | 5km/h | 26066m | 5m/s | -47.6°C | 0.3% | 22.8hPa | 2.7V | 18:12:15 | 01:55:15 | 00:00:00 | |
| DF8AY | 2026-09-03 12:13:06 | 50.92571 | 8.43702 | 134° | 2km/h | 26056m | 5.3m/s | -47.5°C | 0.2% | 22.9hPa | 2.6V | 18:12:15 | 01:55:13 | 00:00:00 | |
| AA1-15 | 2026-09-03 12:13:04 | 50.92572 | 8.43700 | 169° | 5km/h | 26045m | 5.6m/s | -47.5°C | 0.2% | 22.9hPa | 2.6V | 18:12:15 | 01:55:11 | 00:00:00 | |
| HSKMA3-T | 2026-09-03 12:13:03 | 50.92574 | 8.43700 | 177° | 9km/h | 26039m | 5.6m/s | -47.6°C | 0.2% | 23hPa | 2.7V | 18:12:15 | 01:55:10 | 00:00:00 | |
| BIOWL1-15 | 2026-09-03 12:12:59 | 50.92582 | 8.43691 | 105° | 15km/h | 26018m | 5.4m/s | -47.5°C | 0.3% | 23hPa | 2.6V | 18:12:15 | 01:55:06 | 00:00:00 | |
| DL1XH-west | 2026-09-03 12:12:57 | 50.92583 | 8.43679 | 92° | 16km/h | 26008m | 5.6m/s | -47.5°C | 0.3% | 23.1hPa | 2.7V | 18:12:15 | 01:55:04 | 00:00:00 | |
| DL1XH1-15 | 2026-09-03 12:12:57 | 50.92583 | 8.43668 | 93° | 11km/h | 25997m | 5m/s | -47.4°C | 3.5% | 23.1hPa | 2.6V | 08:30:00 | 01:55:02 | 00:00:00 | |
| GOEST3-10 | 2026-09-03 12:12:55 | 50.92583 | 8.43668 | 94° | 7km/h | 25997m | 4.9m/s | -47.3°C | 3.5% | 23.1hPa | 2.7V | 00:00:00 | 00:00:00 | 00:00:00 | |
| DL1NUX | 2026-09-03 12:12:54 | 50.92582 | 8.43657 | 60° | 9km/h | 25981m | 5.5m/s | -47.4°C | 3.4% | 23.2hPa | 2.7V | 08:30:00 | 01:54:59 | 00:00:00 | |
| AA1-15 | 2026-09-03 12:12:53 | 50.92583 | 8.43661 | 74° | 9km/h | 25987m | 5.8m/s | -47.4°C | 0.2% | 23.2hPa | 2.7V | 18:12:15 | 01:55:00 | 00:00:00 | |
| HSKMA3-T | 2026-09-03 12:12:52 | 50.92582 | 8.43657 | 60° | 9km/h | 25981m | 5.6m/s | -47.4°C | 0.2% | 23.2hPa | 2.7V | 18:12:15 | 01:54:59 | 00:00:00 | |
| DL1XH1-15 | 2026-09-03 12:12:50 | 50.92579 | 8.43639 | 81° | 15km/h | 25944m | 5.2m/s | -47.5°C | 3.4% | 23.3hPa | 2.6V | 08:30:00 | 01:54:52 | 00:00:00 | |
| BIOWL1-15 | 2026-09-03 12:12:48 | 50.92579 | 8.43648 | 96° | 4km/h | 25960m | 4.7m/s | -47.5°C | 0.2% | 23.2hPa | 2.7V | 18:12:15 | 01:54:55 | 00:00:00 | |
| DL1XH-west | 2026-09-03 12:12:47 | 50.92579 | 8.43646 | 91° | 5km/h | 25955m | 4.7m/s | -47.5°C | 0.3% | 23.3hPa | 2.7V | 18:12:15 | 01:54:54 | 00:00:00 | |
| BUE01 | 2026-09-03 12:12:46 | 50.92579 | 8.43644 | 84° | 7km/h | 25950m | 6.4m/s | -47.5°C | 0.8% | 23.3hPa | 2.7V | 00:00:00 | 00:00:00 | 00:00:00 | |
| DL1CLM-18 | 2026-09-03 12:12:45 | 50.92579 | 8.43643 | 86° | 9km/h | 25950m | 6.4m/s | -47.5°C | 0.8% | 23.3hPa | 2.7V | 00:00:00 | 00:00:00 | 00:00:00 | |
| DL1NUX | 2026-09-03 12:12:44 | 50.92577 | 8.43622 | 82° | 13km/h | 25928m | 5.9m/s | -47.4°C | 3.4% | 23.4hPa | 2.7V | 08:30:00 | 01:54:49 | 00:00:00 | |
| AA1-15 | 2026-09-03 12:12:43 | 50.92578 | 8.43627 | 82° | 15km/h | 25934m | 5.5m/s | -47.5°C | 0.2% | 23.3hPa | 2.6V | 18:12:15 | 01:54:50 | 00:00:00 | |
| HSKMA3-T | 2026-09-03 12:12:41 | 50.92577 | 8.43618 | 79° | 9km/h | 25923m | 4.8m/s | -47.4°C | 0.1% | 23.4hPa | 2.7V | 18:12:15 | 01:54:48 | 00:00:00 | |
| DB0ND-19 | 2026-09-03 12:12:40 | 50.92575 | 8.43611 | 54° | 9km/h | 25913m | 5.4m/s | -47.5°C | 0.8% | 23.4hPa | 2.7V | 00:00:00 | 00:00:00 | 00:00:00 | |
| DL1XH1-15 | 2026-09-03 12:12:39 | 50.92566 | 8.43599 | 25° | 11km/h | 25892m | 5.8m/s | -47.5°C | 3.4% | 23.5hPa | 2.7V | 08:30:00 | 01:54:42 | 00:00:00 | |
| BIOWL1-15 | 2026-09-03 12:12:37 | 50.92563 | 8.43597 | 12° | 9km/h | 25887m | 4.8m/s | -47.6°C | 0.2% | 23.5hPa | 2.6V | 18:12:15 | 01:54:41 | 00:00:00 | |
| DL1XH-west | 2026-09-03 12:12:36 | 50.92568 | 8.43601 | 35° | 13km/h | 25897m | 4.8m/s | -47.4°C | 0.2% | 23.5hPa | 2.7V | 18:12:15 | 01:54:43 | 00:00:00 | |
| WPPR-10 | 2026-09-03 12:12:36 | 50.92566 | 8.43599 | 25° | 9km/h | 25892m | 5.9m/s | -47.5°C | 0.8% | 23.5hPa | 2.7V | 00:00:00 | 00:00:00 | 00:00:00 | |
| DJ2KF-10 | 2026-09-03 12:12:35 | 50.92566 | 8.43599 | 26° | 11km/h | 25892m | 5.8m/s | -47.5°C | 3.4% | 23.4hPa | 2.7V | 00:00:00 | 01:54:42 | 08:30:00 | |
| DL1NUX | 2026-09-03 12:12:34 | 50.92559 | 8.43596 | 18° | 11km/h | 25876m | 6.1m/s | -47.6°C | 3.4% | 23.5hPa | 2.6V | 08:30:00 | 01:54:39 | 00:00:00 | |
| AA1-15 | 2026-09-03 12:12:32 | 50.92559 | 8.43596 | 19° | 11km/h | 25876m | 6.1m/s | -47.6°C | 0.2% | 23.5hPa | 2.6V | 18:12:15 | 01:54:39 | 00:00:00 | |
| HSKMA3-T | 2026-09-03 12:12:31 | 50.92556 | 8.43594 | 33° | 11km/h | 25871m | 5.3m/s | -47.6°C | 0.1% | 23.5hPa | 2.7V | 18:12:15 | 01:54:38 | 00:00:00 | |
| DF8AY | 2026-09-03 12:12:26 | 50.92551 | 8.43576 | 90° | 13km/h | 25845m | 5m/s | -48°C | 0.2% | 23.7hPa | 2.6V | 18:12:15 | 01:54:33 | 00:00:00 | |
| DL1XH-west | 2026-09-03 12:12:25 | 50.92551 | 8.43571 | 82° | 15km/h | 25839m | 6.2m/s | -48°C | 0.2% | 23.6hPa | 2.7V | 18:12:15 | 01:54:32 | 00:00:00 | |
| DL1NUX | 2026-09-03 12:12:24 | 50.92546 | 8.43553 | 48° | 15km/h | 25824m | 6m/s | -47.9°C | 3.5% | 23.7hPa | 2.6V | 08:30:00 | 01:54:29 | 00:00:00 | |
| BIOWL1-15 | 2026-09-03 12:12:23 | 50.92548 | 8.43558 | 60° | 16km/h | 25829m | 4.7m/s | -47.8°C | 0.2% | 23.7hPa | 2.7V | 18:12:15 | 01:54:30 | 00:00:00 | |
| HSKMA3-T | 2026-09-03 12:12:21 | 50.92543 | 8.43550 | 25° | 13km/h | 25818m | 5.6m/s | -47.9°C | 0.2% | 23.7hPa | 2.6V | 18:12:15 | 01:54:28 | 00:00:00 | |
| DL1XH-west | 2026-09-03 12:12:14 | 50.92519 | 8.43543 | 360° | 7km/h | 25780m | 5.8m/s | -47.9°C | 0.2% | 23.9hPa | 2.7V | 18:12:15 | 01:54:21 | 00:00:00 | |
| DL1NUX | 2026-09-03 12:12:14 | 50.92516 | 8.43543 | 10° | 5km/h | 25769m | 6m/s | -48°C | 3.5% | 23.9hPa | 2.6V | 08:30:00 | 01:54:19 | 00:00:00 | |
| BIOWL1-15 | 2026-09-03 12:12:13 | 50.92514 | 8.43542 | 22° | 9km/h | 25764m | 5.7m/s | -47.9°C | 0.3% | 23.9hPa | 2.6V | 18:12:15 | 01:54:18 | 00:00:00 | |
| AA1-15 | 2026-09-03 12:12:10 | 50.92512 | 8.43541 | 19° | 11km/h | 25758m | 4.4m/s | -47.8°C | 0.2% | 24hPa | 2.7V | 18:12:15 | 01:54:17 | 00:00:00 | |
| BIOWL1-15 | 2026-09-03 12:12:04 | 50.92484 | 8.43547 | 359° | 16km/h | 25716m | 4.8m/s | -47.9°C | 0.3% | 24.1hPa | 2.7V | 18:12:15 | 01:54:09 | 00:00:00 | |
| DL1NUX | 2026-09-03 12:12:04 | 50.92484 | 8.43547 | 359° | 16km/h | 25716m | 4.8m/s | -47.9°C | 3.5% | 24.1hPa | 2.7V | 08:30:00 | 01:54:09 | 00:00:00 | |
| DL1XH-west | 2026-09-03 12:12:04 | 50.92493 | 8.43546 | 350° | 16km/h | 25726m | 6.3m/s | -48°C | 0.3% | 24.1hPa | 2.7V | 18:12:15 | 01:54:11 | 00:00:00 | |
| HSKMA3-T | 2026-09-03 12:12:00 | 50.92478 | 8.43548 | 337° | 9km/h | 25704m | 5.6m/s | -47.8°C | 0.3% | 24.2hPa | 2.6V | 18:12:15 | 01:54:07 | 00:00:00 | |
| DO1YAY-16 | 2026-09-03 12:11:59 | 50.92476 | 8.43550 | 324° | 7km/h | 25700m | 4.6m/s | -47.8°C | 0.8% | 24.2hPa | 2.6V | 00:00:00 | 00:00:00 | 00:00:00 | |
| AA1-15 | 2026-09-03 12:11:59 | 50.92476 | 8.43550 | 324° | 9km/h | 25700m | 4.6m/s | -47.8°C | 0.3% | 24.2hPa | 2.6V | 18:12:15 | 01:54:06 | 00:00:00 | |
| DL1XH1-15 | 2026-09-03 12:11:56 | 50.92466 | 8.43558 | 337° | 16km/h | 25678m | 5m/s | -47.8°C | 3.5% | 24.3hPa | 2.6V | 08:30:00 | 01:54:02 | 00:00:00 | |
| SO1NDE-10 | 2026-09-03 12:11:55 | 50.92466 | 8.43558 | 338° | 15km/h | 25678m | 4.9m/s | -47.7°C | 3.5% | 24.2hPa | 2.7V | 00:00:00 | 01:54:02 | 00:00:00 | |
| DL1NUX | 2026-09-03 12:11:54 | 50.92454 | 8.43568 | 334° | 18km/h | 25663m | 4.1m/s | -47.7°C | 3.4% | 24.3hPa | 2.7V | 08:30:00 | 01:53:59 | 00:00:00 | |
| DL1XH-west | 2026-09-03 12:11:54 | 50.92462 | 8.43561 | 332° | 16km/h | 25672m | 6m/s | -47.7°C | 0.3% | 24.3hPa | 2.6V | 18:12:15 | 01:54:01 | 00:00:00 | |
| BIOWL1-15 | 2026-09-03 12:11:52 | 50.92454 | 8.43568 | 335° | 18km/h | 25663m | 4.1m/s | -47.7°C | 0.2% | 24.3hPa | 2.7V | 18:12:15 | 01:53:59 | 00:00:00 | |
| HSKMA3-T | 2026-09-03 12:11:50 | 50.92445 | 8.43572 | 354° | 22km/h | 25651m | 5.9m/s | -47.8°C | 0.2% | 24.4hPa | 2.6V | 18:12:15 | 01:53:57 | 00:00:00 | |
| AA1-15 | 2026-09-03 12:11:48 | 50.92434 | 8.43573 | 357° | 20km/h | 25640m | 5.9m/s | -47.9°C | 0.2% | 24.4hPa | 2.6V | 18:12:15 | 01:53:55 | 00:00:00 | |
| DL1XH1-15 | 2026-09-03 12:11:46 | 50.92422 | 8.43579 | 324° | 13km/h | 25625m | 3.9m/s | -47.8°C | 3.5% | 24.5hPa | 2.7V | 08:30:00 | 01:53:52 | 00:00:00 | |
| DF8AY | 2026-09-03 12:11:46 | 50.92426 | 8.43576 | 335° | 15km/h | 25629m | 4.8m/s | -47.7°C | 0.2% | 24.4hPa | 2.7V | 18:12:15 | 01:53:53 | 00:00:00 | |
| DL3AQ-11 | 2026-09-03 12:11:46 | 50.92423 | 8.43578 | 324° | 13km/h | 25625m | 3.9m/s | -47.8°C | 0.8% | 24.5hPa | 2.6V | 00:00:00 | 00:00:00 | 00:00:00 | |
| DL1XH-west | 2026-09-03 12:11:43 | 50.92417 | 8.43585 | 329° | 15km/h | 25615m | 5.9m/s | -47.9°C | 0.3% | 24.5hPa | 2.6V | 18:12:15 | 01:53:50 | 00:00:00 | |
| HSKMA3-T | 2026-09-03 12:11:39 | 50.92404 | 8.43599 | 309° | 16km/h | 25594m | 5.3m/s | -47.7°C | 0.2% | 24.6hPa | 2.6V | 18:12:15 | 01:53:46 | 00:00:00 | |
| AA1-15 | 2026-09-03 12:11:38 | 50.92401 | 8.43604 | 303° | 15km/h | 25589m | 4.5m/s | -47.7°C | 0.2% | 24.6hPa | 2.6V | 18:12:15 | 01:53:45 | 00:00:00 | |
| DF8AY | 2026-09-03 12:11:36 | 50.92397 | 8.43611 | 331° | 9km/h | 25579m | 6.1m/s | -47.7°C | 0.3% | 24.6hPa | 2.7V | 18:12:15 | 01:53:43 | 00:00:00 | |
| DL4BBY-15 | 2026-09-03 12:11:36 | 50.92397 | 8.43611 | 331° | 15km/h | 25580m | 6.1m/s | -50.0°C | 0% | 0hPa | 2.7V | 00:00:00 | 00:00:00 | 00:00:00 | |
| DJ2KF-10 | 2026-09-03 12:11:35 | 50.92395 | 8.43612 | 7° | 15km/h | 25574m | 5.7m/s | -47.7°C | 3.4% | 24.6hPa | 2.7V | 00:00:00 | 01:53:42 | 00:00:00 | |
| DL1NUX | 2026-09-03 12:11:34 | 50.92388 | 8.43607 | 21° | 9km/h | 25558m | 6m/s | -47.7°C | 3.3% | 24.7hPa | 2.7V | 08:30:00 | 01:53:39 | 00:00:00 | |
| BIOWL1-15 | 2026-09-03 12:11:33 | 50.92378 | 8.43611 | 337° | 13km/h | 25538m | 6.2m/s | -47.8°C | 0.2% | 24.8hPa | 2.6V | 18:12:15 | 01:53:35 | 00:00:00 | |
| DL1XH-west | 2026-09-03 12:11:32 | 50.92388 | 8.43607 | 22° | 9km/h | 25558m | 6m/s | -47.7°C | 0.1% | 24.7hPa | 2.7V | 18:12:15 | 01:53:39 | 00:00:00 | |
| DL3OBA | 2026-09-03 12:11:31 | 50.92385 | 8.43606 | 357° | 9km/h | 25553m | 4.8m/s | -47.7°C | 0.8% | 24.7hPa | 2.7V | 00:00:00 | 00:00:00 | 00:00:00 | |
| DL1XH1-15 | 2026-09-03 12:11:30 | 50.92368 | 8.43619 | 322° | 15km/h | 25521m | 6.1m/s | -47.9°C | 3.4% | 24.9hPa | 2.7V | 08:30:00 | 01:53:32 | 00:00:00 | |
| HSKMA3-T | 2026-09-03 12:11:29 | 50.92381 | 8.43609 | 334° | 13km/h | 25543m | 5.1m/s | -47.8°C | 0.2% | 24.8hPa | 2.6V | 18:12:15 | 01:53:36 | 00:00:00 | |
| AA1-15 | 2026-09-03 12:11:27 | 50.92374 | 8.43613 | 339° | 15km/h | 25532m | 5.4m/s | -47.8°C | 0.2% | 24.8hPa | 2.6V | 18:12:15 | 01:53:34 | 00:00:00 | |
| DF8AY | 2026-09-03 12:11:26 | 50.92371 | 8.43616 | 334° | 15km/h | 25527m | 5.2m/s | -47.9°C | 0.1% | 24.9hPa | 2.7V | 18:12:15 | 01:53:33 | 00:00:00 | |
| DL1XH-west | 2026-09-03 12:11:22 | 50.92361 | 8.43630 | 323° | 11km/h | 25507m | 4.8m/s | -48.1°C | 0.2% | 24.9hPa | 2.6V | 18:12:15 | 01:53:29 | 00:00:00 | |
| BIOWL1-15 | 2026-09-03 12:11:20 | 50.92355 | 8.43632 | 2° | 15km/h | 25495m | 5.3m/s | -48.1°C | 0.2% | 25hPa | 2.7V | 18:12:15 | 01:53:27 | 00:00:00 | |
| HSKMA3-T | 2026-09-03 12:11:18 | 50.92347 | 8.43631 | 5° | 18km/h | 25485m | 5.8m/s | -48.3°C | 0.2% | 25hPa | 2.6V | 18:12:15 | 01:53:25 | 00:00:00 | |
| DL1XH1-15 | 2026-09-03 12:11:16 | 50.92334 | 8.43634 | 338° | 18km/h | 25469m | 4.8m/s | -48.2°C | 3.4% | 25.1hPa | 2.7V | 08:30:00 | 01:53:22 | 00:00:00 | |
| AA1-15 | 2026-09-03 12:11:16 | 50.92338 | 8.43632 | 344° | 18km/h | 25474m | 4.9m/s | -48.2°C | 0.2% | 25hPa | 2.6V | 18:12:15 | 01:53:23 | 00:00:00 | |
| DF8AY | 2026-09-03 12:11:15 | 50.92334 | 8.43634 | 339° | 18km/h | 25469m | 4.8m/s | -48.3°C | 0.2% | 25.1hPa | 2.7V | 18:12:15 | 01:53:22 | 00:00:00 | |
| DL1XH-west | 2026-09-03 12:11:11 | 50.92314 | 8.43645 | 337° | 22km/h | 25449m | 4.2m/s | -48.2°C | 0.2% | 25.1hPa | 2.6V | 18:12:15 | 01:53:18 | 00:00:00 | |
| DB0DAN | 2026-09-03 12:11:10 | 50.92309 | 8.43649 | 327° | 20km/h | 25444m | 5.9m/s | -48.2°C | 0.8% | 25.16hPa | 2.6V | 00:00:00 | 00:00:00 | 00:00:00 | |
| BIOWL1-15 | 2026-09-03 12:11:09 | 50.92305 | 8.43654 | 314° | 20km/h | 25438m | 5.7m/s | -48.2°C | 0.2% | 25.2hPa | 2.7V | 18:12:15 | 01:53:16 | 00:00:00 | |
| HSKMA3-T | 2026-09-03 12:11:07 | 50.92300 | 8.43665 | 306° | 15km/h | 25429m | 4.2m/s | -48.3°C | 0.2% | 25.2hPa | 2.7V | 18:12:15 | 01:53:14 | 00:00:00 | |
| DL1XH1-15 | 2026-09-03 12:11:06 | 50.92295 | 8.43671 | 344° | 11km/h | 25418m | 5.8m/s | -48.4°C | 3.4% | 25.3hPa | 2.6V | 08:30:00 | 01:53:12 | 00:00:00 | |
| AA1-15 | 2026-09-03 12:11:05 | 50.92295 | 8.43671 | 344° | 11km/h | 25418m | 5.8m/s | -48.5°C | 0.2% | 25.3hPa | 2.6V | 18:12:15 | 01:53:12 | 00:00:00 | |
| DL1NUX | 2026-09-03 12:11:04 | 50.92288 | 8.43671 | 357° | 9km/h | 25401m | 6m/s | -48.5°C | 3.5% | 25.3hPa | 2.7V | 08:30:00 | 01:53:09 | 00:00:00 | |
| DL1XH-west | 2026-09-03 12:11:01 | 50.92286 | 8.43672 | 331° | 7km/h | 25396m | 5.2m/s | -48.4°C | 0.2% | 25.3hPa | 2.6V | 18:12:15 | 01:53:08 | 00:00:00 | |
| BIOWL1-15 | 2026-09-03 12:10:59 | 50.92282 | 8.43677 | 318° | 13km/h | 25386m | 5.9m/s | -48.4°C | 0.2% | 25.4hPa | 2.7V | 18:12:15 | 01:53:06 | 00:00:00 | |
| HSKMA3-T | 2026-09-03 12:10:57 | 50.92276 | 8.43684 | 322° | 16km/h | 25374m | 4.6m/s | -48.3°C | 0.3% | 25.4hPa | 2.6V | 18:12:15 | 01:53:04 | 00:00:00 | |
| DO1YAY-16 | 2026-09-03 12:10:57 | 50.92273 | 8.43689 | 314° | 16km/h | 25370m | 5.1m/s | -48.3°C | 0.8% | 25.4hPa | 2.6V | 00:00:00 | 00:00:00 | 00:00:00 | |
| DL1XH1-15 | 2026-09-03 12:10:56 | 50.92270 | 8.43694 | 306° | 18km/h | 25364m | 6.2m/s | -48.2°C | 3.5% | 25.4hPa | 2.6V | 08:30:00 | 01:53:02 | 00:00:00 | |
| DF8AY | 2026-09-03 12:10:55 | 50.92254 | 8.43720 | 325° | 11km/h | 25331m | 5.9m/s | -48.3°C | 0.2% | 25.6hPa | 2.6V | 18:12:15 | 01:52:56 | 00:00:00 | |
| AA1-15 | 2026-09-03 12:10:54 | 50.92267 | 8.43700 | 302° | 18km/h | 25358m | 5m/s | -48.2°C | 0.2% | 25.5hPa | 2.7V | 18:12:15 | 01:53:01 | 00:00:00 | |
| DM0DOS-11 | 2026-09-03 12:10:53 | 50.92262 | 8.43711 | 315° | 16km/h | 25348m | 6.2m/s | -48.1°C | 3.4% | 25.5hPa | 2.7V | 08:30:00 | 01:52:59 | 00:00:00 | |
| DL1XH-west | 2026-09-03 12:10:51 | 50.92259 | 8.43715 | 327° | 15km/h | 25342m | 5.3m/s | -48.1°C | 0.2% | 25.6hPa | 2.6V | 18:12:15 | 01:52:58 | 00:00:00 | |
| HSKMA3-T | 2026-09-03 12:10:46 | 50.92249 | 8.43727 | 327° | 9km/h | 25316m | 6.4m/s | -48.5°C | 0.3% | 25.6hPa | 2.6V | 18:12:15 | 01:52:53 | 00:00:00 | |
| AA1-15 | 2026-09-03 12:10:44 | 50.92245 | 8.43731 | 318° | 11km/h | 25305m | 4.5m/s | -48.5°C | 0.3% | 25.7hPa | 2.7V | 18:12:15 | 01:52:51 | 00:00:00 | |
| DL1NUX | 2026-09-03 12:10:43 | 50.92242 | 8.43740 | 280° | 15km/h | 25294m | 5.9m/s | -48.5°C | 3.5% | 25.7hPa | 2.6V | 08:30:00 | 01:52:49 | 00:00:00 | |
| DL1XH-west | 2026-09-03 12:10:41 | 50.92241 | 8.43747 | 270° | 18km/h | 25289m | 5.2m/s | -48.6°C | 0.2% | 25.7hPa | 2.6V | 18:12:15 | 01:52:48 | 00:00:00 | |
| DB0DAN | 2026-09-03 12:10:40 | 50.92241 | 8.43754 | 271° | 18km/h | 25283m | 5.3m/s | -48.6°C | 0.8% | 25.79hPa | 2.6V | 00:00:00 | 00:00:00 | 00:00:00 | |
| DF8AY | 2026-09-03 12:10:39 | 50.92241 | 8.43761 | 274° | 16km/h | 25278m | 6.1m/s | -48.7°C | 0.3% | 25.8hPa | 2.7V | 18:12:15 | 01:52:46 | 00:00:00 | |
| BIOWL1-15 | 2026-09-03 12:10:38 | 50.92241 | 8.43767 | 280° | 15km/h | 25272m | 5.1m/s | -48.8°C | 0.3% | 25.8hPa | 2.7V | 18:12:15 | 01:52:45 | 00:00:00 | |
| HSKMA3-T | 2026-09-03 12:10:36 | 50.92240 | 8.43776 | 271° | 9km/h | 25262m | 6.2m/s | -48.8°C | 0.3% | 25.9hPa | 2.6V | 18:12:15 | 01:52:43 | 00:00:00 | |
| DL4BBY-15 | 2026-09-03 12:10:36 | 50.92240 | 8.43776 | 271° | 11km/h | 25262m | 6.1m/s | -51.1°C | 0% | 0hPa | 2.7V | 00:00:00 | 00:00:00 | 00:00:00 | |
| DJ2KF-10 | 2026-09-03 12:10:35 | 50.92240 | 8.43780 | 262° | 11km/h | 25256m | 5.3m/s | -48.7°C | 3.5% | 25.8hPa | 2.7V | 00:00:00 | 01:52:42 | 00:00:00 | |
| DL1NUX | 2026-09-03 12:10:34 | 50.92240 | 8.43788 | 297° | 7km/h | 25240m | 5.6m/s | -48.9°C | 3.5% | 25.9hPa | 2.7V | 08:30:00 | 01:52:39 | 00:00:00 | |
| AA1-15 | 2026-09-03 12:10:33 | 50.92240 | 8.43786 | 278° | 7km/h | 25245m | 6.1m/s | -48.9°C | 0.2% | 25.9hPa | 2.7V | 18:12:15 | 01:52:40 | 00:00:00 | |
| DL1XH-west | 2026-09-03 12:10:30 | 50.92238 | 8.43795 | 279° | 11km/h | 25230m | 5.2m/s | -48.8°C | 0.3% | 26hPa | 2.6V | 18:12:15 | 01:52:37 | 00:00:00 | |
| DF8AY | 2026-09-03 12:10:29 | 50.92238 | 8.43799 | 263° | 15km/h | 25224m | 6.3m/s | -48.9°C | 0.2% | 26hPa | 2.6V | 18:12:15 | 01:52:36 | 00:00:00 | |
| BIOWL1-15 | 2026-09-03 12:10:27 | 50.92246 | 8.43831 | 245° | 11km/h | 25198m | 4.8m/s | -49°C | 0.3% | 26.1hPa | 2.6V | 18:12:15 | 01:52:31 | 00:00:00 | |
| DL1XH1-15 | 2026-09-03 12:10:26 | 50.92244 | 8.43826 | 247° | 16km/h | 25203m | 5.8m/s | -49°C | 3.5% | 26.1hPa | 2.6V | 08:30:00 | 01:52:32 | 00:00:00 | |
| HSKMA3-T | 2026-09-03 12:10:25 | 50.92244 | 8.43826 | 248° | 16km/h | 25203m | 5.8m/s | -49°C | 0.3% | 26.1hPa | 2.6V | 18:12:15 | 01:52:32 | 00:00:00 | |
| SO1NDE-10 | 2026-09-03 12:10:25 | 50.92244 | 8.43826 | 248° | 13km/h | 25203m | 5.7m/s | -48.9°C | 3.5% | 26.1hPa | 2.7V | 00:00:00 | 01:52:32 | 00:00:00 | |
| DL1NUX | 2026-09-03 12:10:24 | 50.92249 | 8.43837 | 205° | 9km/h | 25187m | 6.2m/s | -48.7°C | 3.5% | 26.1hPa | 2.7V | 08:30:00 | 01:52:29 | 00:00:00 | |
| AA1-15 | 2026-09-03 12:10:23 | 50.92247 | 8.43835 | 230° | 7km/h | 25193m | 5.1m/s | -48.9°C | 0.2% | 26.1hPa | 2.6V | 18:12:15 | 01:52:30 | 00:00:00 | |
| DL1XH-west | 2026-09-03 12:10:20 | 50.92254 | 8.43838 | 181° | 13km/h | 25176m | 4.7m/s | -48.7°C | 0.2% | 26.2hPa | 2.7V | 18:12:15 | 01:52:27 | 00:00:00 | |
| DF8AY | 2026-09-03 12:10:18 | 50.92259 | 8.43838 | 179° | 9km/h | 25165m | 5.9m/s | -48.8°C | 0.2% | 26.2hPa | 2.6V | 18:12:15 | 01:52:25 | 00:00:00 | |
| DL1XH1-15 | 2026-09-03 12:10:16 | 50.92266 | 8.43842 | 204° | 15km/h | 25148m | 5.5m/s | -49.1°C | 3.5% | 26.3hPa | 2.7V | 08:30:00 | 01:52:22 | 00:00:00 | |
| BIOWL1-15 | 2026-09-03 12:10:15 | 50.92266 | 8.43842 | 205° | 15km/h | 25148m | 5.5m/s | -49.1°C | 0.3% | 26.3hPa | 2.7V | 18:12:15 | 01:52:22 | 00:00:00 | |
| HSKMA3-T | 2026-09-03 12:10:14 | 50.92270 | 8.43844 | 205° | 16km/h | 25144m | 4.1m/s | -49°C | 0.3% | 26.3hPa | 2.7V | 18:12:15 | 01:52:21 | 00:00:00 | |
| DL1NUX | 2026-09-03 12:10:14 | 50.92277 | 8.43850 | 209° | 15km/h | 25134m | 5.6m/s | -49°C | 3.5% | 26.3hPa | 2.6V | 08:30:00 | 01:52:19 | 00:00:00 | |
| AA1-15 | 2026-09-03 12:10:13 | 50.92274 | 8.43847 | 207° | 16km/h | 25139m | 4.4m/s | -49°C | 0.3% | 26.4hPa | 2.6V | 18:12:15 | 01:52:20 | 00:00:00 | |
| DL1XH-west | 2026-09-03 12:10:09 | 50.92284 | 8.43857 | 214° | 11km/h | 25118m | 5.7m/s | -48.9°C | 0.2% | 26.4hPa | 2.7V | 18:12:15 | 01:52:16 | 00:00:00 | |
| DF8AY | 2026-09-03 12:10:07 | 50.92292 | 8.43862 | 187° | 13km/h | 25102m | 5.7m/s | -49.2°C | 0.3% | 26.5hPa | 2.6V | 18:12:15 | 01:52:13 | 00:00:00 | |
| DL1XH1-15 | 2026-09-03 12:10:06 | 50.92295 | 8.43862 | 169° | 11km/h | 25096m | 6m/s | -49.2°C | 3.6% | 26.5hPa | 2.7V | 08:30:00 | 01:52:12 | 00:00:00 | |
| BIOWL1-15 | 2026-09-03 12:10:05 | 50.92301 | 8.43859 | 156° | 15km/h | 25086m | 5.4m/s | -49.1°C | 0.3% | 26.6hPa | 2.7V | 18:12:15 | 01:52:10 | 00:00:00 | |
| HSKMA3-T | 2026-09-03 12:10:04 | 50.92298 | 8.43861 | 156° | 11km/h | 25091m | 4.8m/s | -49.1°C | 0.3% | 26.5hPa | 2.7V | 18:12:15 | 01:52:11 | 00:00:00 | |
| DL1NUX | 2026-09-03 12:10:04 | 50.92305 | 8.43856 | 160° | 18km/h | 25080m | 5.8m/s | -49.1°C | 3.6% | 26.6hPa | 2.6V | 08:30:00 | 01:52:09 | 00:00:00 | |
| AA1-15 | 2026-09-03 12:10:02 | 50.92305 | 8.43856 | 161° | 18km/h | 25080m | 5.8m/s | -49.1°C | 0.3% | 26.6hPa | 2.6V | 18:12:15 | 01:52:09 | 00:00:00 | |
| DF8AY | 2026-09-03 12:09:58 | 50.92326 | 8.43847 | 175° | 9km/h | 25048m | 6.2m/s | -49.3°C | 0.3% | 26.7hPa | 2.6V | 18:12:15 | 01:52:03 | 00:00:00 | |
| DL1XH-west | 2026-09-03 12:09:58 | 50.92321 | 8.43849 | 160° | 13km/h | 25059m | 5.4m/s | -49.1°C | 0.3% | 26.7hPa | 2.7V | 18:12:15 | 01:52:05 | 00:00:00 | |
| DL1XH1-15 | 2026-09-03 12:09:56 | 50.92329 | 8.43847 | 181° | 11km/h | 25042m | 5m/s | -49.4°C | 3.7% | 26.7hPa | 2.6V | 08:30:00 | 01:52:02 | 00:00:00 | |
| DD8BA-10 | 2026-09-03 12:09:56 | 50.92326 | 8.43847 | 176° | 15km/h | 25048m | 6.2m/s | -49.2°C | 3.6% | 26.7hPa | 2.6V | 00:00:00 | 00:00:00 | 00:00:00 | |
| SO1NDE-10 | 2026-09-03 12:09:55 | 50.92329 | 8.43847 | 182° | 15km/h | 25043m | 4.9m/s | -49.4°C | 3.7% | 26.7hPa | 2.6V | 00:00:00 | 01:52:02 | 00:00:00 | |
| DL1NUX | 2026-09-03 12:09:54 | 50.92335 | 8.43843 | 128° | 9km/h | 25027m | 5.8m/s | -49.4°C | 3.6% | 26.8hPa | 2.7V | 08:30:00 | 01:51:59 | 00:00:00 | |
| BIOWL1-15 | 2026-09-03 12:09:54 | 50.92331 | 8.43846 | 172° | 9km/h | 25038m | 4.2m/s | -49.5°C | 0.4% | 26.8hPa | 2.6V | 18:12:15 | 01:52:01 | 00:00:00 | |
| HSKMA3-T | 2026-09-03 12:09:53 | 50.92333 | 8.43845 | 153° | 9km/h | 25033m | 6m/s | -49.4°C | 0.4% | 26.8hPa | 2.7V | 18:12:15 | 01:52:00 | 00:00:00 | |
| AA1-15 | 2026-09-03 12:09:51 | 50.92337 | 8.43839 | 124° | 13km/h | 25022m | 4.8m/s | -49.4°C | 0.3% | 26.8hPa | 2.6V | 18:12:15 | 01:51:58 | 00:00:00 | |
| DL1XH-west | 2026-09-03 12:09:48 | 50.92346 | 8.43824 | 144° | 20km/h | 25005m | 4.8m/s | -49.4°C | 0.4% | 26.9hPa | 2.7V | 18:12:15 | 01:51:55 | 00:00:00 | |
| DF8AY | 2026-09-03 12:09:46 | 50.92354 | 8.43814 | 136° | 20km/h | 24995m | 5.8m/s | -49.4°C | 0.3% | 26.9hPa | 2.7V | 18:12:15 | 01:51:53 | 00:00:00 | |
| DL3AQ-11 | 2026-09-03 12:09:45 | 50.92357 | 8.43809 | 128° | 16km/h | 24990m | 5.4m/s | -49.4°C | 0.9% | 27.0hPa | 2.6V | 00:00:00 | 00:00:00 | 00:00:00 | |
| BIOWL1-15 | 2026-09-03 12:09:43 | 50.92362 | 8.43799 | 131° | 13km/h | 24980m | 5.5m/s | -49.6°C | 0.3% | 27hPa | 2.6V | 18:12:15 | 01:51:50 | 00:00:00 | |
| HSKMA3-T | 2026-09-03 12:09:42 | 50.92364 | 8.43795 | 138° | 13km/h | 24974m | 5.6m/s | -49.5°C | 0.4% | 27hPa | 2.7V | 18:12:15 | 01:51:49 | 00:00:00 | |
| AA1-15 | 2026-09-03 12:09:41 | 50.92366 | 8.43792 | 138° | 11km/h | 24969m | 4.2m/s | -49.5°C | 0.3% | 27hPa | 2.7V | 18:12:15 | 01:51:48 | 00:00:00 | |
| DL1XH-west | 2026-09-03 12:09:38 | 50.92370 | 8.43782 | 96° | 11km/h | 24953m | 5.2m/s | -49.5°C | 0.3% | 27.1hPa | 2.6V | 18:12:15 | 01:51:45 | 00:00:00 | |
| DL1XH1-15 | 2026-09-03 12:09:36 | 50.92372 | 8.43769 | 124° | 15km/h | 24937m | 5.2m/s | -49.6°C | 3.6% | 27.2hPa | 2.7V | 08:30:00 | 01:51:42 | 00:00:00 | |
| DF8AY | 2026-09-03 12:09:35 | 50.92372 | 8.43769 | 125° | 15km/h | 24937m | 5.2m/s | -49.6°C | 0.3% | 27.2hPa | 2.7V | 18:12:15 | 01:51:42 | 00:00:00 | |
| BIOWL7-15 | 2026-09-03 12:09:35 | 50.92372 | 8.43769 | 126° | 15km/h | 24937m | 5.2m/s | -49.6°C | 0.9% | 27.2hPa | 2.7V | 00:00:00 | 00:00:00 | 00:00:00 | |
| DM0DOS-11 | 2026-09-03 12:09:33 | 50.92379 | 8.43752 | 113° | 18km/h | 24921m | 5.8m/s | -49.6°C | 3.6% | 27.2hPa | 2.7V | 08:30:00 | 01:51:39 | 00:00:00 | |
| HSKMA3-T | 2026-09-03 12:09:31 | 50.92381 | 8.43745 | 114° | 20km/h | 24916m | 4.9m/s | -49.7°C | 0.4% | 27.2hPa | 2.7V | 18:12:15 | 01:51:38 | 00:00:00 | |
| AA1-15 | 2026-09-03 12:09:30 | 50.92383 | 8.43738 | 116° | 18km/h | 24910m | 5.8m/s | -49.7°C | 0.4% | 27.3hPa | 2.6V | 18:12:15 | 01:51:37 | 00:00:00 | |
| DL1XH-west | 2026-09-03 12:09:27 | 50.92388 | 8.43724 | 111° | 7km/h | 24896m | 4.5m/s | -49.7°C | 0.4% | 27.3hPa | 2.7V | 18:12:15 | 01:51:34 | 00:00:00 | |
| GOEST3-10 | 2026-09-03 12:09:27 | 50.92388 | 8.43723 | 112° | 11km/h | 24896m | 4.4m/s | -49.7°C | 3.7% | 27.3hPa | 2.7V | 00:00:00 | 01:51:34 | 00:00:00 | |
| DD8BA-10 | 2026-09-03 12:09:26 | 50.92388 | 8.43721 | 81° | 11km/h | 24891m | 5.8m/s | -49.7°C | 3.7% | 27.3hPa | 2.6V | 00:00:00 | 00:00:00 | 00:00:00 | |
| SO1NDE-10 | 2026-09-03 12:09:25 | 50.92387 | 8.43718 | 56° | 11km/h | 24885m | 5.7m/s | -49.7°C | 3.7% | 27.3hPa | 2.6V | 00:00:00 | 01:51:32 | 00:00:00 | |
| DM0DOS-11 | 2026-09-03 12:09:23 | 50.92382 | 8.43706 | 62° | 11km/h | 24869m | 5.9m/s | -49.8°C | 3.7% | 27.5hPa | 2.6V | 08:30:00 | 01:51:29 | 00:00:00 | |
| HSKMA3-T | 2026-09-03 12:09:21 | 50.92381 | 8.43703 | 89° | 9km/h | 24864m | 4.9m/s | -49.8°C | 0.3% | 27.5hPa | 2.7V | 18:12:15 | 01:51:28 | 00:00:00 | |
| BIOWL1-15 | 2026-09-03 12:09:19 | 50.92383 | 8.43695 | 106° | 13km/h | 24854m | 6m/s | -49.8°C | 0.4% | 27.5hPa | 2.6V | 18:12:15 | 01:51:26 | 00:00:00 | |
| AA1-15 | 2026-09-03 12:09:18 | 50.92383 | 8.43689 | 103° | 15km/h | 24849m | 5.3m/s | -49.7°C | 0.4% | 27.6hPa | 2.6V | 18:12:15 | 01:51:25 | 00:00:00 | |
| DL1XH1-15 | 2026-09-03 12:09:16 | 50.92385 | 8.43675 | 98° | 7km/h | 24833m | 5.8m/s | -49.8°C | 3.7% | 27.6hPa | 2.6V | 08:30:00 | 01:51:22 | 00:00:00 | |
| DL1XH-west | 2026-09-03 12:09:16 | 50.92385 | 8.43679 | 101° | 11km/h | 24838m | 5.6m/s | -49.9°C | 0.4% | 27.6hPa | 2.7V | 18:12:15 | 01:51:23 | 00:00:00 | |
| HSKMA3-T | 2026-09-03 12:09:10 | 50.92377 | 8.43662 | 36° | 13km/h | 24807m | 4.1m/s | -50°C | 0.4% | 27.7hPa | 2.7V | 18:12:15 | 01:51:17 | 00:00:00 | |
| AA1-15 | 2026-09-03 12:09:08 | 50.92372 | 8.43657 | 24° | 9km/h | 24796m | 5.5m/s | -50°C | 0.4% | 27.8hPa | 2.6V | 18:12:15 | 01:51:15 | 00:00:00 | |
| DJ2DS-15 | 2026-09-03 12:09:08 | 50.92372 | 8.43657 | 24° | 11km/h | 24797m | 5.5m/s | -49.9°C | 3.7% | 27.7hPa | 2.7V | 00:00:00 | 01:51:15 | 00:00:00 | |
| DL3OBA | 2026-09-03 12:09:07 | 50.92372 | 8.43657 | 25° | 9km/h | 24797m | 5.5m/s | -49.9°C | 0.9% | 27.8hPa | 2.7V | 00:00:00 | 00:00:00 | 00:00:00 | |
| DL1XH1-15 | 2026-09-03 12:09:06 | 50.92368 | 8.43654 | 33° | 7km/h | 24781m | 5.5m/s | -50°C | 3.7% | 27.8hPa | 2.7V | 08:30:00 | 01:51:12 | 00:00:00 | |
| DL1XH-west | 2026-09-03 12:09:06 | 50.92369 | 8.43655 | 19° | 5km/h | 24787m | 4.6m/s | -50°C | 0.4% | 27.8hPa | 2.7V | 18:12:15 | 01:51:13 | 00:00:00 | |
| HSKMA3-T | 2026-09-03 12:08:59 | 50.92364 | 8.43631 | 95° | 11km/h | 24750m | 4.5m/s | -50.2°C | 0.5% | 28hPa | 2.6V | 18:12:15 | 01:51:06 | 00:00:00 | |
| AA1-15 | 2026-09-03 12:08:57 | 50.92363 | 8.43623 | 49° | 11km/h | 24739m | 5.2m/s | -50.1°C | 0.5% | 28hPa | 2.7V | 18:12:15 | 01:51:04 | 00:00:00 | |
| DL1XH1-15 | 2026-09-03 12:08:56 | 50.92358 | 8.43619 | 13° | 11km/h | 24729m | 5.6m/s | -50.3°C | 3.9% | 28.1hPa | 2.7V | 08:30:00 | 01:51:02 | 00:00:00 | |
| DL1XH-west | 2026-09-03 12:08:56 | 50.92361 | 8.43621 | 29° | 11km/h | 24734m | 4.7m/s | -50.2°C | 0.4% | 28.1hPa | 2.7V | 18:12:15 | 01:51:03 | 00:00:00 | |
| DD8BA-10 | 2026-09-03 12:08:56 | 50.92360 | 8.43621 | 30° | 11km/h | 24734m | 4.7m/s | -50.2°C | 3.8% | 28.0hPa | 2.6V | 00:00:00 | 00:00:00 | 00:00:00 | |
| SO1NDE-10 | 2026-09-03 12:08:55 | 50.92358 | 8.43619 | 14° | 7km/h | 24729m | 5.6m/s | -50.2°C | 3.9% | 28.0hPa | 2.6V | 00:00:00 | 01:51:02 | 00:00:00 | |
| DL1NUX | 2026-09-03 12:08:54 | 50.92350 | 8.43621 | 342° | 13km/h | 24713m | 4.9m/s | -50.3°C | 3.9% | 28.2hPa | 2.6V | 08:30:00 | 01:50:59 | 00:00:00 | |
| BIOWL1-15 | 2026-09-03 12:08:51 | 50.92346 | 8.43622 | 347° | 15km/h | 24708m | 6m/s | -50.3°C | 0.6% | 28.1hPa | 2.7V | 18:12:15 | 01:50:58 | 00:00:00 | |
| HSKMA3-T | 2026-09-03 12:08:49 | 50.92340 | 8.43625 | 346° | 13km/h | 24698m | 4.6m/s | -50.2°C | 0.5% | 28.2hPa | 2.6V | 18:12:15 | 01:50:56 | 00:00:00 | |
| DF8AY | 2026-09-03 12:08:48 | 50.92337 | 8.43626 | 335° | 9km/h | 24692m | 6m/s | -50.3°C | 0.5% | 28.2hPa | 2.6V | 18:12:15 | 01:50:55 | 00:00:00 | |
| AA1-15 | 2026-09-03 12:08:47 | 50.92335 | 8.43628 | 319° | 7km/h | 24687m | 4.8m/s | -50.1°C | 0.5% | 28.3hPa | 2.7V | 18:12:15 | 01:50:54 | 00:00:00 | |
| BIOWL9-15 | 2026-09-03 12:08:47 | 50.92334 | 8.43629 | 316° | 4km/h | 24683m | 3.9m/s | -50.1°C | 1.0% | 28.3hPa | 2.6V | 00:00:00 | 00:00:00 | 00:00:00 | |
| DL1XH1-15 | 2026-09-03 12:08:46 | 50.92333 | 8.43630 | 341° | 4km/h | 24678m | 5.2m/s | -50.2°C | 3.9% | 28.3hPa | 2.6V | 08:30:00 | 01:50:52 | 00:00:00 | |
| DL1XH-west | 2026-09-03 12:08:45 | 50.92333 | 8.43630 | 342° | 4km/h | 24678m | 5.2m/s | -50.2°C | 0.5% | 28.3hPa | 2.6V | 18:12:15 | 01:50:52 | 00:00:00 | |
| DL1NUX | 2026-09-03 12:08:44 | 50.92328 | 8.43629 | 9° | 9km/h | 24663m | 4.5m/s | -50.1°C | 3.8% | 28.4hPa | 2.7V | 08:30:00 | 01:50:49 | 00:00:00 | |
| BIOWL1-15 | 2026-09-03 12:08:41 | 50.92326 | 8.43629 | 360° | 7km/h | 24658m | 5.5m/s | -50.2°C | 0.5% | 28.4hPa | 2.7V | 18:12:15 | 01:50:48 | 00:00:00 | |
| DL1XH1-15 | 2026-09-03 12:08:40 | 50.92318 | 8.43634 | 343° | 5km/h | 24627m | 4.3m/s | -49.9°C | 3.8% | 28.5hPa | 2.7V | 08:30:00 | 01:50:42 | 00:00:00 | |
| DF8AY | 2026-09-03 12:08:38 | 50.92315 | 8.43636 | 305° | 5km/h | 24616m | 5.1m/s | -50°C | 0.4% | 28.6hPa | 2.6V | 18:12:15 | 01:50:40 | 00:00:00 | |
| HSKMA3-T | 2026-09-03 12:08:38 | 50.92322 | 8.43631 | 323° | 5km/h | 24642m | 4.8m/s | -50°C | 0.5% | 28.5hPa | 2.6V | 18:12:15 | 01:50:45 | 00:00:00 | |
| AA1-15 | 2026-09-03 12:08:36 | 50.92319 | 8.43633 | 350° | 7km/h | 24632m | 4.9m/s | -49.9°C | 0.5% | 28.5hPa | 2.7V | 18:12:15 | 01:50:43 | 00:00:00 | |
| DL1XH-west | 2026-09-03 12:08:35 | 50.92317 | 8.43634 | 343° | 5km/h | 24627m | 4.3m/s | -49.9°C | 0.4% | 28.5hPa | 2.7V | 18:12:15 | 01:50:42 | 00:00:00 | |
| DJ2KF-10 | 2026-09-03 12:08:35 | 50.92317 | 8.43634 | 344° | 5km/h | 24628m | 4.3m/s | -49.8°C | 3.8% | 28.5hPa | 2.7V | 00:00:00 | 01:50:42 | 00:00:00 | |
| DL1NUX | 2026-09-03 12:08:34 | 50.92315 | 8.43637 | 331° | 4km/h | 24611m | 4.8m/s | -49.9°C | 3.8% | 28.6hPa | 2.7V | 08:30:00 | 01:50:39 | 00:00:00 | |
| BIOWL1-15 | 2026-09-03 12:08:30 | 50.92312 | 8.43633 | 68° | 9km/h | 24595m | 4.6m/s | -49.7°C | 0.5% | 28.6hPa | 2.6V | 18:12:15 | 01:50:36 | 00:00:00 | |
| HSKMA3-T | 2026-09-03 12:08:28 | 50.92311 | 8.43630 | 81° | 7km/h | 24590m | 5.5m/s | -49.8°C | 0.4% | 28.7hPa | 2.6V | 18:12:15 | 01:50:35 | 00:00:00 | |
| DO3DL | 2026-09-03 12:08:28 | 50.92311 | 8.43630 | 82° | 7km/h | 24590m | 5.5m/s | -49.8°C | 0.9% | 28.7hPa | 2.7V | 00:00:00 | 00:00:00 | 00:00:00 | |
| DL1XH1-15 | 2026-09-03 12:08:26 | 50.92312 | 8.43627 | 243° | 4km/h | 24575m | 4.3m/s | -49.9°C | 3.9% | 28.7hPa | 2.7V | 08:30:00 | 01:50:32 | 00:00:00 | |
| AA1-15 | 2026-09-03 12:08:26 | 50.92312 | 8.43627 | 169° | 2km/h | 24579m | 4.5m/s | -49.9°C | 0.5% | 28.7hPa | 2.7V | 18:12:15 | 01:50:33 | 00:00:00 | |
| DL1XH-west | 2026-09-03 12:08:25 | 50.92312 | 8.43628 | 279° | 4km/h | 24570m | 5.7m/s | -49.8°C | 0.5% | 28.8hPa | 2.6V | 18:12:15 | 01:50:31 | 00:00:00 | |
| HSKMA3-T | 2026-09-03 12:08:18 | 50.92311 | 8.43638 | 243° | 4km/h | 24539m | 4.5m/s | -49.8°C | 0.5% | 28.9hPa | 2.6V | 18:12:15 | 01:50:25 | 00:00:00 | |
| DF8AY | 2026-09-03 12:08:16 | 50.92310 | 8.43638 | 63° | 4km/h | 24527m | 5.2m/s | -49.8°C | 0.5% | 29hPa | 2.7V | 18:12:15 | 01:50:23 | 00:00:00 | |
| DL1XH1-15 | 2026-09-03 12:08:16 | 50.92310 | 8.43636 | 74° | 5km/h | 24522m | 4.9m/s | -49.8°C | 3.8% | 29hPa | 2.6V | 08:30:00 | 01:50:22 | 00:00:00 | |
| AA1-15 | 2026-09-03 12:08:15 | 50.92310 | 8.43636 | 75° | 5km/h | 24522m | 4.9m/s | -49.8°C | 0.4% | 29hPa | 2.6V | 18:12:15 | 01:50:22 | 00:00:00 | |
| DL1XH-west | 2026-09-03 12:08:14 | 50.92310 | 8.43634 | 94° | 4km/h | 24517m | 5.8m/s | -49.8°C | 0.5% | 29hPa | 2.6V | 18:12:15 | 01:50:21 | 00:00:00 | |
| BIOWL1-15 | 2026-09-03 12:08:07 | 50.92308 | 8.43640 | 269° | 9km/h | 24475m | 3.8m/s | -50.1°C | 0.4% | 29.2hPa | 2.7V | 18:12:15 | 01:50:13 | 00:00:00 | |
| HSKMA3-T | 2026-09-03 12:08:07 | 50.92308 | 8.43636 | 274° | 9km/h | 24479m | 4.9m/s | -50°C | 0.4% | 29.2hPa | 2.6V | 18:12:15 | 01:50:14 | 00:00:00 | |
| DL1XH1-15 | 2026-09-03 12:08:06 | 50.92308 | 8.43643 | 279° | 9km/h | 24471m | 5m/s | -50°C | 3.7% | 29.2hPa | 2.7V | 08:30:00 | 01:50:12 | 00:00:00 | |
| AA1-15 | 2026-09-03 12:08:05 | 50.92308 | 8.43643 | 279° | 9km/h | 24471m | 5m/s | -50°C | 0.4% | 29.2hPa | 2.7V | 18:12:15 | 01:50:12 | 00:00:00 | |
| DL1XH-west | 2026-09-03 12:08:04 | 50.92307 | 8.43646 | 298° | 7km/h | 24465m | 5.7m/s | -50°C | 0.4% | 29.2hPa | 2.6V | 18:12:15 | 01:50:11 | 00:00:00 | |
| DL1NUX | 2026-09-03 12:08:04 | 50.92305 | 8.43649 | 346° | 5km/h | 24455m | 4.6m/s | -49.9°C | 3.7% | 29.2hPa | 2.7V | 08:30:00 | 01:50:09 | 00:00:00 | |
| BIOWL1-15 | 2026-09-03 12:07:57 | 50.92306 | 8.43647 | 113° | 4km/h | 24428m | 6.2m/s | -49.7°C | 0.3% | 29.4hPa | 2.7V | 18:12:15 | 01:50:04 | 00:00:00 | |
| DL1XH1-15 | 2026-09-03 12:07:56 | 50.92307 | 8.43643 | 135° | 5km/h | 24418m | 4.8m/s | -49.9°C | 3.7% | 29.4hPa | 2.7V | 08:30:00 | 01:50:02 | 00:00:00 | |
| HSKMA3-T | 2026-09-03 12:07:56 | 50.92306 | 8.43645 | 112° | 5km/h | 24423m | 4.7m/s | -49.8°C | 0.4% | 29.4hPa | 2.7V | 18:12:15 | 01:50:03 | 00:00:00 | |
| AA1-15 | 2026-09-03 12:07:55 | 50.92307 | 8.43643 | 136° | 5km/h | 24418m | 4.8m/s | -49.9°C | 0.4% | 29.4hPa | 2.7V | 18:12:15 | 01:50:02 | 00:00:00 | |
| GOEST3-10 | 2026-09-03 12:07:55 | 50.92307 | 8.43643 | 136° | 7km/h | 24418m | 4.8m/s | -49.8°C | 3.7% | 29.4hPa | 2.7V | 00:00:00 | 01:50:02 | 00:00:00 | |
| DL1NUX | 2026-09-03 12:07:54 | 50.92312 | 8.43644 | 206° | 11km/h | 24402m | 4.7m/s | -49.8°C | 3.7% | 29.5hPa | 2.6V | 08:30:00 | 01:49:59 | 00:00:00 | |
| DL1XH-west | 2026-09-03 12:07:54 | 50.92310 | 8.43643 | 197° | 9km/h | 24407m | 5.2m/s | -49.9°C | 0.4% | 29.5hPa | 2.6V | 18:12:15 | 01:50:00 | 00:00:00 | |
| DF8AY | 2026-09-03 12:07:51 | 50.92314 | 8.43646 | 211° | 9km/h | 24397m | 5.5m/s | -49.8°C | 0.4% | 29.6hPa | 2.7V | 18:12:15 | 01:49:58 | 00:00:00 | |
| DO3MHA-11 | 2026-09-03 12:07:50 | 50.92316 | 8.43648 | 209° | 5km/h | 24391m | 6.0m/s | -49.8°C | 3.7% | 29.5hPa | 2.7V | 00:00:00 | 01:49:57 | 08:30:00 | |
| DO3DL | 2026-09-03 12:07:49 | 50.92316 | 8.43648 | 210° | 7km/h | 24391m | 6.1m/s | -49.8°C | 0.9% | 29.6hPa | 2.6V | 00:00:00 | 00:00:00 | 00:00:00 | |
| DJ2DS-15 | 2026-09-03 12:07:48 | 50.92318 | 8.43650 | 209° | 9km/h | 24381m | 5.0m/s | -49.9°C | 3.7% | 29.6hPa | 2.6V | 00:00:00 | 01:49:55 | 00:00:00 | |
| DD1CC3-15 | 2026-09-03 12:07:47 | 50.92318 | 8.43650 | 209° | 4km/h | 24381m | 5.1m/s | -49.9°C | 0.9% | 29.6hPa | 2.6V | 00:00:00 | 00:00:00 | 00:00:00 | |
| DL1XH1-15 | 2026-09-03 12:07:46 | 50.92322 | 8.43652 | 184° | 5km/h | 24365m | 5.5m/s | -49.9°C | 3.7% | 29.7hPa | 2.6V | 08:30:00 | 01:49:52 | 00:00:00 | |
| HSKMA3-T | 2026-09-03 12:07:46 | 50.92321 | 8.43652 | 203° | 5km/h | 24370m | 4.6m/s | -50°C | 0.5% | 29.7hPa | 2.7V | 18:12:15 | 01:49:53 | 00:00:00 | |
| AA1-15 | 2026-09-03 12:07:45 | 50.92322 | 8.43652 | 185° | 5km/h | 24365m | 5.5m/s | -49.9°C | 0.4% | 29.7hPa | 2.6V | 18:12:15 | 01:49:52 | 00:00:00 | |
| DL1XH-west | 2026-09-03 12:07:43 | 50.92324 | 8.43650 | 129° | 5km/h | 24354m | 4.6m/s | -49.9°C | 0.4% | 29.8hPa | 2.6V | 18:12:15 | 01:49:50 | 00:00:00 | |
| DF7PN | 2026-09-03 12:07:42 | 50.92325 | 8.43649 | 143° | 5km/h | 24350m | 4.2m/s | -50.0°C | 0.9% | 29.8hPa | 2.7V | 00:00:00 | 00:00:00 | 00:00:00 | |
| DL1XH1-15 | 2026-09-03 12:07:40 | 50.92344 | 8.43656 | 225° | 13km/h | 24313m | 5.5m/s | -50.3°C | 3.7% | 29.9hPa | 2.7V | 08:30:00 | 01:49:42 | 00:00:00 | |
| DF8AY | 2026-09-03 12:07:39 | 50.92333 | 8.43648 | 191° | 15km/h | 24334m | 4.4m/s | -50.2°C | 0.4% | 29.8hPa | 2.6V | 18:12:15 | 01:49:46 | 00:00:00 | |
| HSKMA3-T | 2026-09-03 12:07:35 | 50.92344 | 8.43656 | 226° | 13km/h | 24313m | 5.5m/s | -50.3°C | 0.4% | 29.9hPa | 2.7V | 18:12:15 | 01:49:42 | 00:00:00 | |
| AA1-15 | 2026-09-03 12:07:34 | 50.92347 | 8.43660 | 233° | 15km/h | 24308m | 5.2m/s | -50.3°C | 0.4% | 30hPa | 2.6V | 18:12:15 | 01:49:41 | 00:00:00 | |
| DL1NUX | 2026-09-03 12:07:34 | 50.92350 | 8.43670 | 247° | 13km/h | 24298m | 4.8m/s | -50.4°C | 3.8% | 30hPa | 2.7V | 08:30:00 | 01:49:39 | 00:00:00 | |
| DL1XH-west | 2026-09-03 12:07:33 | 50.92349 | 8.43665 | 241° | 15km/h | 24303m | 4.3m/s | -50.3°C | 0.4% | 30hPa | 2.6V | 18:12:15 | 01:49:40 | 00:00:00 | |
| DF8AY | 2026-09-03 12:07:28 | 50.92359 | 8.43677 | 174° | 16km/h | 24273m | 5.6m/s | 0°C | 0% | 30.1hPa | 2.7V | 18:12:15 | 01:49:34 | 00:00:00 | |
| DJ2DS-15 | 2026-09-03 12:07:28 | 50.92355 | 8.43677 | 176° | 16km/h | 24279m | 5.3m/s | -50.1°C | 3.8% | 30.1hPa | 2.6V | 00:00:00 | 01:49:35 | 08:30:00 | |
| DL1XH1-15 | 2026-09-03 12:07:26 | 50.92369 | 8.43675 | 169° | 24km/h | 24263m | 4.7m/s | -50.2°C | 3.7% | 30.2hPa | 2.7V | 08:30:00 | 01:49:32 | 00:00:00 | |
| BIOWL1-15 | 2026-09-03 12:07:26 | 50.92363 | 8.43676 | 172° | 22km/h | 24268m | 4.7m/s | -50.2°C | 0.4% | 30.1hPa | 2.7V | 18:12:15 | 01:49:33 | 00:00:00 | |
| DD8BA-10 | 2026-09-03 12:07:26 | 50.92363 | 8.43676 | 172° | 16km/h | 24268m | 4.6m/s | -50.2°C | 3.8% | 30.1hPa | 2.6V | 00:00:00 | 00:00:00 | 00:00:00 | |
| SO1NDE-10 | 2026-09-03 12:07:25 | 50.92369 | 8.43675 | 170° | 16km/h | 24263m | 4.7m/s | -50.2°C | 3.7% | 30.1hPa | 2.6V | 00:00:00 | 01:49:32 | 00:00:00 | |
| DL1NUX | 2026-09-03 12:07:24 | 50.92385 | 8.43668 | 164° | 16km/h | 24248m | 5m/s | -50.4°C | 3.7% | 30.2hPa | 2.6V | 08:30:00 | 01:49:29 | 00:00:00 | |
| AA1-15 | 2026-09-03 12:07:24 | 50.92375 | 8.43673 | 166° | 24km/h | 24258m | 5m/s | -50.3°C | 0.5% | 30.2hPa | 2.6V | 18:12:15 | 01:49:31 | 00:00:00 | |
| DL1XH-west | 2026-09-03 12:07:23 | 50.92380 | 8.43670 | 162° | 20km/h | 24253m | 5.4m/s | -50.3°C | 0.4% | 30.2hPa | 2.6V | 18:12:15 | 01:49:30 | 00:00:00 | |
| DF8AY | 2026-09-03 12:07:18 | 50.92395 | 8.43672 | 228° | 7km/h | 24227m | 5.1m/s | 0°C | 0% | 30.3hPa | 2.6V | 18:12:15 | 01:49:25 | 00:00:00 | |
| DL1XH1-15 | 2026-09-03 12:07:16 | 50.92399 | 8.43672 | 143° | 9km/h | 24212m | 5m/s | -50.6°C | 3.9% | 30.4hPa | 2.6V | 08:30:00 | 01:49:22 | 00:00:00 | |
| DD8BA-10 | 2026-09-03 12:07:16 | 50.92397 | 8.43673 | 153° | 18km/h | 24218m | 4.4m/s | -50.5°C | 3.8% | 30.3hPa | 2.7V | 00:00:00 | 00:00:00 | 00:00:00 | |
| DO2KSM | 2026-09-03 12:07:15 | 50.92399 | 8.43671 | 145° | 9km/h | 24213m | 5.0m/s | -50.6°C | 1.0% | 30.4hPa | 2.7V | 00:00:00 | 00:00:00 | 00:00:00 | |
| DL1NUX | 2026-09-03 12:07:14 | 50.92410 | 8.43661 | 147° | 24km/h | 24197m | 4m/s | -50.7°C | 3.9% | 30.4hPa | 2.7V | 08:30:00 | 01:49:19 | 00:00:00 | |
| HSKMA3-T | 2026-09-03 12:07:14 | 50.92402 | 8.43669 | 149° | 15km/h | 24207m | 5.8m/s | -50.7°C | 0.5% | 30.4hPa | 2.6V | 18:12:15 | 01:49:21 | 00:00:00 | |
| AA1-15 | 2026-09-03 12:07:13 | 50.92406 | 8.43665 | 150° | 20km/h | 24202m | 4.8m/s | -50.7°C | 0.5% | 30.5hPa | 2.6V | 18:12:15 | 01:49:20 | 00:00:00 | |
| DF8AY | 2026-09-03 12:07:13 | 50.92427 | 8.43636 | 126° | 20km/h | 24178m | 4.3m/s | 0°C | 0% | 30.6hPa | 2.6V | 18:12:15 | 01:49:15 | 00:00:00 | |
| DL1XH-west | 2026-09-03 12:07:12 | 50.92410 | 8.43661 | 148° | 24km/h | 24197m | 4.1m/s | -50.7°C | 0.5% | 30.5hPa | 2.7V | 18:12:15 | 01:49:19 | 00:00:00 | |
| HSKMA3-T | 2026-09-03 12:07:04 | 50.92438 | 8.43617 | 132° | 15km/h | 24159m | 4.5m/s | -50.6°C | 0.5% | 30.7hPa | 2.6V | 18:12:15 | 01:49:11 | 00:00:00 | |
| DL1NUX | 2026-09-03 12:07:04 | 50.92442 | 8.43606 | 105° | 18km/h | 24148m | 5.5m/s | -50.7°C | 3.8% | 30.7hPa | 2.7V | 08:30:00 | 01:49:09 | 00:00:00 | |
| AA1-15 | 2026-09-03 12:07:02 | 50.92442 | 8.43606 | 106° | 18km/h | 24148m | 5.5m/s | -50.7°C | 0.4% | 30.7hPa | 2.7V | 18:12:15 | 01:49:09 | 00:00:00 | |
| DL1XH-west | 2026-09-03 12:07:01 | 50.92443 | 8.43599 | 97° | 18km/h | 24143m | 5.2m/s | -50.7°C | 0.5% | 30.7hPa | 2.7V | 18:12:15 | 01:49:08 | 00:00:00 | |
| HSKMA3-T | 2026-09-03 12:06:54 | 50.92451 | 8.43556 | 127° | 15km/h | 24105m | 5.5m/s | -51°C | 0.5% | 30.9hPa | 2.6V | 18:12:15 | 01:49:01 | 00:00:00 | |
| DL1NUX | 2026-09-03 12:06:54 | 50.92456 | 8.43549 | 152° | 13km/h | 24095m | 4.1m/s | -51°C | 4% | 30.9hPa | 2.6V | 08:30:00 | 01:48:59 | 00:00:00 | |
| BIOWL1-15 | 2026-09-03 12:06:53 | 50.92456 | 8.43549 | 152° | 13km/h | 24095m | 4.1m/s | -51°C | 0.6% | 31hPa | 2.6V | 18:12:15 | 01:48:59 | 00:00:00 | |
| AA1-15 | 2026-09-03 12:06:51 | 50.92459 | 8.43547 | 148° | 13km/h | 24090m | 5.7m/s | -51.1°C | 0.6% | 31hPa | 2.7V | 18:12:15 | 01:48:58 | 00:00:00 | |
| DL1XH-west | 2026-09-03 12:06:51 | 50.92461 | 8.43544 | 131° | 11km/h | 24084m | 5.6m/s | -51.1°C | 0.5% | 31hPa | 2.7V | 18:12:15 | 01:48:57 | 00:00:00 | |
| DJ2DS-15 | 2026-09-03 12:06:51 | 50.92461 | 8.43544 | 130° | 9km/h | 24084m | 5.6m/s | -51.1°C | 1.0% | 31.0hPa | 2.6V | 00:00:00 | 00:00:00 | 00:00:00 | |
| SONCRA | 2026-09-03 12:06:50 | 50.92463 | 8.43540 | 115° | 9km/h | 24080m | 4.4m/s | -51.1°C | 1.0% | 31.1hPa | 2.6V | 00:00:00 | 00:00:00 | 00:00:00 | |
| DO1YAY-16 | 2026-09-03 12:06:48 | 50.92464 | 8.43536 | 104° | 9km/h | 24075m | 4.6m/s | -51.1°C | 1.0% | 31.1hPa | 2.6V | 00:00:00 | 00:00:00 | 00:00:00 | |
| HSKMA3-T | 2026-09-03 12:06:44 | 50.92468 | 8.43523 | 121° | 9km/h | 24055m | 4.2m/s | -51.1°C | 0.4% | 31.1hPa | 2.6V | 18:12:15 | 01:48:51 | 00:00:00 | |
| DL1NUX | 2026-09-03 12:06:44 | 50.92469 | 8.43515 | 97° | 9km/h | 24044m | 5.2m/s | -51.3°C | 4% | 31.2hPa | 2.7V | 08:30:00 | 01:48:49 | 00:00:00 | |
| BIOWL1-15 | 2026-09-03 12:06:41 | 50.92470 | 8.43512 | 101° | 7km/h | 24040m | 4.2m/s | -51.4°C | 0.6% | 31.3hPa | 2.7V | 18:12:15 | 01:48:48 | 00:00:00 | |
| DL1XH-west | 2026-09-03 12:06:41 | 50.92470 | 8.43510 | 121° | 5km/h | 24034m | 5.7m/s | -51.3°C | 0.6% | 31.3hPa | 2.7V | 18:12:15 | 01:48:47 | 00:00:00 | |
| DO3MHA-11 | 2026-09-03 12:06:40 | 50.92470 | 8.43510 | 122° | 5km/h | 24035m | 5.7m/s | -51.3°C | 4.0% | 31.2hPa | 2.6V | 00:00:00 | 01:48:47 | 00:00:00 | |
| GOEST3-10 | 2026-09-03 12:06:39 | 50.92471 | 8.43508 | 174° | 5km/h | 24030m | 5.1m/s | -51.1°C | 4.0% | 31.2hPa | 2.6V | 00:00:00 | 00:00:00 | 00:00:00 | |
| DL1XH1-15 | 2026-09-03 12:06:38 | 50.92476 | 8.43510 | 162° | 4km/h | 24009m | 5.1m/s | -51.1°C | 3.9% | 31.4hPa | 2.7V | 08:30:00 | 01:48:42 | 00:00:00 | |
| DB0NH | 2026-09-03 12:06:37 | 50.92474 | 8.43510 | 204° | 7km/h | 24020m | 4.9m/s | -51.1°C | 4.0% | 31.3hPa | 2.7V | 00:00:00 | 01:48:44 | 00:00:00 | |
| AU51GT2 | 2026-09-03 12:06:36 | 50.92476 | 8.43510 | 162° | 4km/h | 24010m | 5.1m/s | -51.2°C | 1.0% | 31.4hPa | 2.7V | 00:00:00 | 00:00:00 | 00:00:00 | |
| DJ2KF-10 | 2026-09-03 12:06:35 | 50.92476 | 8.43510 | 163° | 7km/h | 24010m | 5.1m/s | -51.1°C | 3.9% | 31.3hPa | 2.7V | 00:00:00 | 01:48:42 | 00:00:00 | |
| DL1NUX | 2026-09-03 12:06:34 | 50.92480 | 8.43509 | 177° | 5km/h | 23994m | 4.5m/s | -51.2°C | 4% | 31.4hPa | 2.7V | 08:30:00 | 01:48:39 | 00:00:00 | |
| HSKMA3-T | 2026-09-03 12:06:34 | 50.92477 | 8.43509 | 162° | 5km/h | 24005m | 4.7m/s | -51.2°C | 0.5% | 31.4hPa | 2.6V | 18:12:15 | 01:48:41 | 00:00:00 | |
| DL1XH-west | 2026-09-03 12:06:31 | 50.92482 | 8.43509 | 169° | 4km/h | 23990m | 4.5m/s | -51.1°C | 0.6% | 31.5hPa | 2.7V | 18:12:15 | 01:48:38 | 00:00:00 | |
| AA1-15 | 2026-09-03 12:06:30 | 50.92482 | 8.43508 | 109° | 2km/h | 23984m | 6.1m/s | -51°C | 0.5% | 31.5hPa | 2.6V | 18:12:15 | 01:48:37 | 00:00:00 | |
| DL9SK-14 | 2026-09-03 12:06:30 | 50.92482 | 8.43507 | 22° | 4km/h | 23979m | 4.8m/s | -51.0°C | 1.0% | 31.5hPa | 2.6V | 00:00:00 | 00:00:00 | 00:00:00 | |
| HTAHTA | 2026-09-03 12:06:29 | 50.92480 | 8.43507 | 1° | 5km/h | 23974m | 4.4m/s | 0°C | -1.0% | 31.6hPa | 2.6V | 00:00:00 | 00:00:00 | 00:00:00 | |
| DJ2DS-15 | 2026-09-03 12:06:28 | 50.92480 | 8.43507 | 2° | 7km/h | 23975m | 4.3m/s | -51.0°C | 3.9% | 31.5hPa | 2.6V | 00:00:00 | 01:48:35 | 00:00:00 | |
| DB0ND-19 | 2026-09-03 12:06:27 | 50.92479 | 8.43507 | 333° | 5km/h | 23969m | 5.5m/s | -51.2°C | 1.0% | 31.6hPa | 2.6V | 00:00:00 | 00:00:00 | 00:00:00 | |
| DL3AQ-11 | 2026-09-03 12:06:26 | 50.92478 | 8.43513 | 263° | 9km/h | 23959m | 4.6m/s | -51.3°C | 1.0% | 31.6hPa | 2.6V | 00:00:00 | 00:00:00 | 00:00:00 | |
| DJTTGO | 2026-09-03 12:06:25 | 50.92478 | 8.43512 | 265° | 9km/h | 23959m | 4.6m/s | -51.3°C | 1.0% | 31.6hPa | 2.6V | 00:00:00 | 00:00:00 | 00:00:00 | |
| DL1NUX | 2026-09-03 12:06:24 | 50.92481 | 8.43523 | 225° | 7km/h | 23944m | 5.4m/s | -51°C | 4% | 31.7hPa | 2.6V | 08:30:00 | 01:48:29 | 00:00:00 | |
| HSKMA3-T | 2026-09-03 12:06:23 | 50.92480 | 8.43520 | 238° | 11km/h | 23950m | 5.6m/s | -51.1°C | 0.6% | 31.6hPa | 2.6V | 18:12:15 | 01:48:30 | 00:00:00 | |
| DL1XH-west | 2026-09-03 12:06:21 | 50.92483 | 8.43525 | 201° | 7km/h | 23939m | 4.4m/s | -51.1°C | 0.6% | 31.7hPa | 2.7V | 18:12:15 | 01:48:28 | 00:00:00 | |
| BIOWL1-15 | 2026-09-03 12:06:20 | 50.92498 | 8.43532 | 194° | 4km/h | 23903m | 5.3m/s | -51.4°C | 0.5% | 31.9hPa | 2.6V | 18:12:15 | 01:48:21 | 00:00:00 | |
| AA1-15 | 2026-09-03 12:06:19 | 50.92486 | 8.43526 | 188° | 9km/h | 23930m | 5.8m/s | -51.2°C | 0.6% | 31.8hPa | 2.6V | 18:12:15 | 01:48:26 | 00:00:00 | |
| DF8AY | 2026-09-03 12:06:18 | 50.92489 | 8.43527 | 196° | 13km/h | 23924m | 5.6m/s | 0°C | 0% | 31.8hPa | 2.6V | 18:12:15 | 01:48:25 | 00:00:00 | |
| DL1XH1-15 | 2026-09-03 12:06:16 | 50.92497 | 8.43532 | 201° | 7km/h | 23909m | 6.4m/s | -51.4°C | 4% | 31.8hPa | 2.6V | 08:30:00 | 01:48:22 | 00:00:00 | |
| HSKMA3-T | 2026-09-03 12:06:12 | 50.92500 | 8.43534 | 228° | 5km/h | 23893m | 5.7m/s | -51.3°C | 0.5% | 32hPa | 2.7V | 18:12:15 | 01:48:19 | 00:00:00 | |
| BIOWL1-15 | 2026-09-03 12:06:11 | 50.92505 | 8.43541 | 204° | 11km/h | 23878m | 5.2m/s | -51.1°C | 0.6% | 32hPa | 2.6V | 18:12:15 | 01:48:16 | 00:00:00 | |
| DL1XH-west | 2026-09-03 12:06:10 | 50.92503 | 8.43538 | 215° | 11km/h | 23883m | 3.9m/s | -51.2°C | 0.7% | 32hPa | 2.7V | 18:12:15 | 01:48:17 | 00:00:00 | |
| AA1-15 | 2026-09-03 12:06:08 | 50.92508 | 8.43542 | 188° | 13km/h | 23873m | 5.3m/s | -50.9°C | 0.6% | 32hPa | 2.6V | 18:12:15 | 01:48:15 | 00:00:00 | |
| DJ2DS-15 | 2026-09-03 12:06:08 | 50.92508 | 8.43542 | 188° | 20km/h | 23873m | 5.2m/s | -50.9°C | 4.0% | 32.0hPa | 2.7V | 00:00:00 | 01:48:15 | 00:00:00 | |
| DL1XH1-15 | 2026-09-03 12:06:06 | 50.92521 | 8.43542 | 184° | 20km/h | 23858m | 5.9m/s | -50.9°C | 3.9% | 32.1hPa | 2.7V | 08:30:00 | 01:48:12 | 00:00:00 | |
| HSKMA3-T | 2026-09-03 12:06:02 | 50.92536 | 8.43543 | 173° | 20km/h | 23843m | 5.7m/s | -51°C | 0.5% | 32.2hPa | 2.7V | 18:12:15 | 01:48:09 | 00:00:00 | |
| DL1XH-west | 2026-09-03 12:05:59 | 50.92551 | 8.43533 | 159° | 13km/h | 23823m | 5.4m/s | -51°C | 0.5% | 32.3hPa | 2.6V | 18:12:15 | 01:48:05 | 00:00:00 | |
| BIOWL1-15 | 2026-09-03 12:05:59 | 50.92548 | 8.43536 | 152° | 15km/h | 23828m | 5.2m/s | -51°C | 0.5% | 32.3hPa | 2.6V | 18:12:15 | 01:48:06 | 00:00:00 | |
| AA1-15 | 2026-09-03 12:05:57 | 50.92554 | 8.43532 | 170° | 13km/h | 23818m | 4.3m/s | -51°C | 0.5% | 32.3hPa | 2.7V | 18:12:15 | 01:48:04 | 00:00:00 | |
| HSKMA3-T | 2026-09-03 12:05:51 | 50.92588 | 8.43523 | 179° | 35km/h | 23787m | 5m/s | -51.1°C | 0.5% | 32.5hPa | 2.7V | 18:12:15 | 01:47:58 | 00:00:00 | |
| BIOWL1-15 | 2026-09-03 12:05:48 | 50.92616 | 8.43519 | 167° | 38km/h | 23772m | 5.8m/s | -51.1°C | 0.5% | 32.5hPa | 2.6V | 18:12:15 | 01:47:55 | 00:00:00 | |
| AA1-15 | 2026-09-03 12:05:47 | 50.92625 | 8.43515 | 159° | 35km/h | 23767m | 4.4m/s | -51.1°C | 0.5% | 32.5hPa | 2.7V | 18:12:15 | 01:47:54 | 00:00:00 | |
| DO1YAY-16 | 2026-09-03 12:05:46 | 50.92632 | 8.43510 | 152° | 31km/h | 23763m | 4.6m/s | -51.1°C | 1.0% | 32.6hPa | 2.7V | 00:00:00 | 00:00:00 | 00:00:00 | |
| DL3AQ-11 | 2026-09-03 12:05:45 | 50.92639 | 8.43504 | 149° | 26km/h | 23758m | 6.1m/s | -51.2°C | 1.0% | 32.6hPa | 2.7V | 00:00:00 | 00:00:00 | 00:00:00 | |
| DD1CC3-15 | 2026-09-03 12:05:44 | 50.92639 | 8.43504 | 151° | 26km/h | 23758m | 6.1m/s | -51.2°C | 1.0% | 32.6hPa | 2.7V | 00:00:00 | 00:00:00 | 00:00:00 | |
| DL1NUX | 2026-09-03 12:05:43 | 50.92651 | 8.43491 | 138° | 18km/h | 23742m | 5.1m/s | -51.2°C | 3.9% | 32.7hPa | 2.7V | 08:30:00 | 01:47:49 | 00:00:00 | |
| DF8AY | 2026-09-03 12:05:41 | 50.92655 | 8.43485 | 137° | 22km/h | 23737m | 5.3m/s | 0°C | 0% | 32.7hPa | 2.7V | 18:12:15 | 01:47:48 | 00:00:00 | |
| HSKMA3-T | 2026-09-03 12:05:40 | 50.92659 | 8.43479 | 141° | 26km/h | 23732m | 4.6m/s | -51.2°C | 0.5% | 32.7hPa | 2.7V | 18:12:15 | 01:47:47 | 00:00:00 | |
| DL1XH-west | 2026-09-03 12:05:38 | 50.92671 | 8.43468 | 154° | 29km/h | 23722m | 5.5m/s | -51.2°C | 0.6% | 32.8hPa | 2.6V | 18:12:15 | 01:47:45 | 00:00:00 | |
| BIOWL1-15 | 2026-09-03 12:05:38 | 50.92702 | 8.43444 | 146° | 38km/h | 23702m | 5m/s | -51.3°C | 0.6% | 32.9hPa | 2.6V | 18:12:15 | 01:47:41 | 00:00:00 | |
| AA1-15 | 2026-09-03 12:05:37 | 50.92678 | 8.43463 | 158° | 33km/h | 23716m | 4.5m/s | -51.2°C | 0.6% | 32.8hPa | 2.6V | 18:12:15 | 01:47:44 | 00:00:00 | |
| DB0NH | 2026-09-03 12:05:37 | 50.92678 | 8.43463 | 159° | 29km/h | 23717m | 4.4m/s | -51.1°C | 4.0% | 32.8hPa | 2.7V | 00:00:00 | 01:47:44 | 00:00:00 | |
| DO3DL | 2026-09-03 12:05:36 | 50.92686 | 8.43458 | 157° | 35km/h | 23713m | 4.3m/s | -51.3°C | 1.0% | 32.8hPa | 2.7V | 00:00:00 | 00:00:00 | 00:00:00 | |
| DJ2KF-10 | 2026-09-03 12:05:35 | 50.92694 | 8.43451 | 153° | 29km/h | 23707m | 5.9m/s | -51.3°C | 4.0% | 32.8hPa | 2.7V | 00:00:00 | 01:47:42 | 00:00:00 | |
| DL1NUX | 2026-09-03 12:05:33 | 50.92717 | 8.43426 | 141° | 35km/h | 23691m | 5.9m/s | -51.3°C | 4% | 32.9hPa | 2.7V | 08:30:00 | 01:47:39 | 00:00:00 | |
| HSKMA3-T | 2026-09-03 12:05:30 | 50.92729 | 8.43410 | 136° | 27km/h | 23681m | 4.6m/s | -51.3°C | 0.5% | 33hPa | 2.6V | 18:12:15 | 01:47:37 | 00:00:00 | |
| BIOWL1-15 | 2026-09-03 12:05:27 | 50.92761 | 8.43363 | 151° | 31km/h | 23650m | 4.6m/s | -51.3°C | 0.6% | 33.2hPa | 2.6V | 18:12:15 | 01:47:31 | 00:00:00 | |
| AA1-15 | 2026-09-03 12:05:27 | 50.92755 | 8.43370 | 145° | 29km/h | 23655m | 6m/s | -51.3°C | 0.6% | 33.1hPa | 2.7V | 18:12:15 | 01:47:32 | 00:00:00 | |
| DD8BA-10 | 2026-09-03 12:05:26 | 50.92749 | 8.43377 | 139° | 31km/h | 23661m | 5.1m/s | -51.3°C | 4.0% | 33.0hPa | 2.7V | 00:00:00 | 00:00:00 | 00:00:00 | |
| SO1NDE-10 | 2026-09-03 12:05:25 | 50.92755 | 8.43369 | 145° | 27km/h | 23656m | 6.0m/s | -51.3°C | 4.0% | 33.1hPa | 2.7V | 00:00:00 | 01:47:32 | 00:00:00 | |
| DD1CC3-15 | 2026-09-03 12:05:24 | 50.92755 | 8.43369 | 146° | 29km/h | 23656m | 6.0m/s | -51.3°C | 1.0% | 33.1hPa | 2.6V | 00:00:00 | 00:00:00 | 00:00:00 | |
| DL1NUX | 2026-09-03 12:05:23 | 50.92776 | 8.43350 | 147° | 35km/h | 23640m | 6.1m/s | -51.3°C | 4% | 33.2hPa | 2.6V | 08:30:00 | 01:47:29 | 00:00:00 | |
| HSKMA3-T | 2026-09-03 12:05:20 | 50.92790 | 8.43333 | 137° | 35km/h | 23630m | 4.5m/s | -51.3°C | 0.6% | 33.3hPa | 2.7V | 18:12:15 | 01:47:27 | 00:00:00 | |
| DF8AY | 2026-09-03 12:05:19 | 50.92795 | 8.43324 | 131° | 31km/h | 23624m | 6.1m/s | 0°C | 0% | 0hPa | 2.6V | 18:12:15 | 01:47:26 | 00:00:00 | |
| DL1XH1-15 | 2026-09-03 12:05:16 | 50.92806 | 8.43287 | 103° | 26km/h | 23603m | 5.8m/s | -51.4°C | 3.9% | 33.4hPa | 2.6V | 08:30:00 | 01:47:22 | 00:00:00 | |
| BIOWL1-15 | 2026-09-03 12:05:16 | 50.92805 | 8.43297 | 106° | 24km/h | 23608m | 5.2m/s | -51.4°C | 0.5% | 33.4hPa | 2.7V | 18:12:15 | 01:47:23 | 00:00:00 | |
| AA1-15 | 2026-09-03 12:05:15 | 50.92806 | 8.43287 | 104° | 26km/h | 23603m | 5.8m/s | -51.4°C | 0.5% | 33.4hPa | 2.6V | 18:12:15 | 01:47:22 | 00:00:00 | |
| DO3DL | 2026-09-03 12:05:14 | 50.92806 | 8.43287 | 105° | 26km/h | 23603m | 5.8m/s | -51.4°C | 1.0% | 33.4hPa | 2.7V | 00:00:00 | 00:00:00 | 00:00:00 | |
| DL1NUX | 2026-09-03 12:05:13 | 50.92812 | 8.43260 | 121° | 22km/h | 23587m | 5.9m/s | -51.6°C | 4% | 33.5hPa | 2.7V | 08:30:00 | 01:47:19 | 00:00:00 | |
| HSKMA3-T | 2026-09-03 12:05:10 | 50.92820 | 8.43247 | 139° | 26km/h | 23577m | 4.7m/s | -51.7°C | 0.6% | 33.5hPa | 2.7V | 18:12:15 | 01:47:17 | 00:00:00 | |
| DJ8HS-15 | 2026-09-03 12:05:10 | 50.92820 | 8.43247 | 139° | 24km/h | 23578m | 4.6m/s | -51.6°C | 4.0% | 33.5hPa | 2.7V | 00:00:00 | 01:47:17 | 00:00:00 | |
| BIOWL9-15 | 2026-09-03 12:05:09 | 50.92825 | 8.43240 | 136° | 27km/h | 23572m | 6.1m/s | -51.8°C | 1.1% | 33.5hPa | 2.7V | 00:00:00 | 00:00:00 | 00:00:00 | |
| DO3DL | 2026-09-03 12:05:08 | 50.92830 | 8.43231 | 133° | 31km/h | 23567m | 4.8m/s | -51.8°C | 1.0% | 33.6hPa | 2.7V | 00:00:00 | 00:00:00 | 00:00:00 | |
| DL1XH1-15 | 2026-09-03 12:05:06 | 50.92842 | 8.43202 | 110° | 27km/h | 23552m | 4.7m/s | -51.8°C | 4.1% | 33.6hPa | 2.7V | 08:30:00 | 01:47:12 | 00:00:00 | |
| DL1XH-west | 2026-09-03 12:05:06 | 50.92839 | 8.43212 | 121° | 29km/h | 23557m | 5.6m/s | -51.9°C | 0.6% | 33.6hPa | 2.7V | 18:12:15 | 01:47:13 | 00:00:00 | |
| AA1-15 | 2026-09-03 12:05:05 | 50.92842 | 8.43202 | 110° | 27km/h | 23552m | 4.7m/s | -51.8°C | 0.6% | 33.6hPa | 2.7V | 18:12:15 | 01:47:12 | 00:00:00 | |
| DJ2KF-10 | 2026-09-03 12:05:05 | 50.92842 | 8.43202 | 111° | 22km/h | 23552m | 4.6m/s | -51.8°C | 4.1% | 33.6hPa | 2.7V | 00:00:00 | 01:47:12 | 00:00:00 | |
| DD1CC3-15 | 2026-09-03 12:05:04 | 50.92842 | 8.43202 | 111° | 27km/h | 23552m | 4.7m/s | -51.8°C | 1.1% | 33.6hPa | 2.7V | 00:00:00 | 00:00:00 | 00:00:00 | |
| DL1NUX | 2026-09-03 12:05:03 | 50.92845 | 8.43168 | 88° | 33km/h | 23536m | 5.5m/s | -51.7°C | 4% | 33.7hPa | 2.7V | 08:30:00 | 01:47:09 | 00:00:00 | |
| HSKMA3-T | 2026-09-03 12:04:59 | 50.92843 | 8.43133 | 81° | 24km/h | 23521m | 6m/s | -51.9°C | 0.7% | 33.8hPa | 2.6V | 18:12:15 | 01:47:06 | 00:00:00 | |
| DL9SK-14 | 2026-09-03 12:04:57 | 50.92841 | 8.43113 | 94° | 13km/h | 23506m | 5.2m/s | -51.9°C | 1.1% | 33.9hPa | 2.7V | 00:00:00 | 00:00:00 | 00:00:00 | |
| DL1XH1-15 | 2026-09-03 12:04:56 | 50.92842 | 8.43106 | 98° | 16km/h | 23501m | 5.2m/s | -52°C | 4.2% | 33.9hPa | 2.7V | 08:30:00 | 01:47:02 | 00:00:00 | |
| AA1-15 | 2026-09-03 12:04:55 | 50.92842 | 8.43106 | 98° | 16km/h | 23501m | 5.2m/s | -52°C | 0.7% | 33.9hPa | 2.7V | 18:12:15 | 01:47:02 | 00:00:00 | |
| BIOWL1-15 | 2026-09-03 12:04:54 | 50.92842 | 8.43099 | 97° | 18km/h | 23496m | 4.6m/s | -52°C | 0.7% | 34hPa | 2.6V | 18:12:15 | 01:47:01 | 00:00:00 | |
| HSKMA3-T | 2026-09-03 12:04:48 | 50.92839 | 8.43046 | 84° | 26km/h | 23466m | 5.4m/s | -52.1°C | 0.7% | 34.1hPa | 2.6V | 18:12:15 | 01:46:55 | 00:00:00 | |
| DF8AY | 2026-09-03 12:04:46 | 50.92834 | 8.43000 | 94° | 13km/h | 23434m | 5.7m/s | 0°C | 0% | 0hPa | 2.7V | 18:12:15 | 01:46:49 | 00:00:00 | |
| DL1XH1-15 | 2026-09-03 12:04:46 | 50.92836 | 8.43018 | 71° | 20km/h | 23450m | 5.1m/s | -52°C | 4.1% | 34.2hPa | 2.6V | 08:30:00 | 01:46:52 | 00:00:00 | |
| SONCRA | 2026-09-03 12:04:45 | 50.92836 | 8.43018 | 71° | 18km/h | 23450m | 5.1m/s | -52.0°C | 1.1% | 34.2hPa | 2.6V | 00:00:00 | 00:00:00 | 00:00:00 | |
| AA1-15 | 2026-09-03 12:04:44 | 50.92835 | 8.43012 | 72° | 16km/h | 23445m | 4.5m/s | -52°C | 0.7% | 34.2hPa | 2.6V | 18:12:15 | 01:46:51 | 00:00:00 | |
| HSKMA3-T | 2026-09-03 12:04:37 | 50.92834 | 8.42973 | 79° | 20km/h | 23410m | 4.6m/s | -51.7°C | 0.5% | 34.4hPa | 2.6V | 18:12:15 | 01:46:44 | 00:00:00 | |
| DL1XH1-15 | 2026-09-03 12:04:36 | 50.92832 | 8.42954 | 81° | 27km/h | 23399m | 5.2m/s | -51.8°C | 4% | 34.5hPa | 2.7V | 08:30:00 | 01:46:42 | 00:00:00 | |
| DD8BA-10 | 2026-09-03 12:04:36 | 50.92832 | 8.42964 | 82° | 15km/h | 23405m | 6.0m/s | -51.6°C | 4.0% | 34.4hPa | 2.7V | 00:00:00 | 00:00:00 | 08:30:00 | |
| DO3DL | 2026-09-03 12:04:35 | 50.92832 | 8.42954 | 83° | 27km/h | 23399m | 5.2m/s | -51.8°C | 1.0% | 34.5hPa | 2.6V | 00:00:00 | 00:00:00 | 00:00:00 | |
| DL1NUX | 2026-09-03 12:04:33 | 50.92828 | 8.42924 | 72° | 20km/h | 23384m | 4.5m/s | -51.5°C | 3.9% | 34.5hPa | 2.6V | 08:30:00 | 01:46:39 | 00:00:00 | |
| BIOWL1-15 | 2026-09-03 12:04:33 | 50.92829 | 8.42933 | 76° | 26km/h | 23389m | 5.7m/s | -51.6°C | 0.5% | 34.5hPa | 2.6V | 18:12:15 | 01:46:40 | 00:00:00 | |
| DO3MHA-12 | 2026-09-03 12:04:33 | 50.92829 | 8.42933 | 76° | 15km/h | 23389m | 5.6m/s | -51.6°C | 3.9% | 34.5hPa | 2.7V | 00:00:00 | 01:46:40 | 00:00:00 | |
| DK9SH | 2026-09-03 12:04:32 | 50.92829 | 8.42933 | 76° | 26km/h | 23389m | 5.7m/s | -51.6°C | 1.0% | 34.5hPa | 2.7V | 00:00:00 | 00:00:00 | 00:00:00 | |
| DO2KSM | 2026-09-03 12:04:31 | 50.92827 | 8.42924 | 73° | 20km/h | 23384m | 4.5m/s | -51.5°C | 1.0% | 34.5hPa | 2.7V | 00:00:00 | 00:00:00 | 00:00:00 | |
| DL1XH1-15 | 2026-09-03 12:04:30 | 50.92834 | 8.42898 | 149° | 11km/h | 23348m | 4.3m/s | -52°C | 4.1% | 34.8hPa | 2.7V | 08:30:00 | 01:46:32 | 00:00:00 | |
| HSKMA3-T | 2026-09-03 12:04:27 | 50.92830 | 8.42901 | 155° | 9km/h | 23357m | 6.1m/s | -51.8°C | 0.6% | 34.7hPa | 2.6V | 18:12:15 | 01:46:34 | 00:00:00 | |
| DO3MHA-11 | 2026-09-03 12:04:27 | 50.92830 | 8.42901 | 155° | 16km/h | 23358m | 6.0m/s | -51.7°C | 4.1% | 34.6hPa | 2.6V | 00:00:00 | 01:46:34 | 00:00:00 | |
| DD8BA-10 | 2026-09-03 12:04:25 | 50.92834 | 8.42898 | 150° | 20km/h | 23348m | 4.2m/s | -51.9°C | 4.1% | 34.7hPa | 2.6V | 00:00:00 | 00:00:00 | 00:00:00 | |
| DL1NUX | 2026-09-03 12:04:23 | 50.92842 | 8.42883 | 116° | 22km/h | 23332m | 4.6m/s | -52°C | 4.2% | 34.8hPa | 2.6V | 08:30:00 | 01:46:29 | 00:00:00 | |
| AA1-15 | 2026-09-03 12:04:22 | 50.92842 | 8.42883 | 117° | 22km/h | 23333m | 4.6m/s | -52.1°C | 0.7% | 34.8hPa | 2.6V | 18:12:15 | 01:46:29 | 00:00:00 | |
| HSKMA3-T | 2026-09-03 12:04:16 | 50.92847 | 8.42831 | 92° | 20km/h | 23302m | 4.1m/s | -52°C | 0.6% | 35hPa | 2.7V | 18:12:15 | 01:46:23 | 00:00:00 | |
| DO3DL | 2026-09-03 12:04:15 | 50.92847 | 8.42824 | 89° | 16km/h | 23298m | 5.5m/s | -52.1°C | 1.0% | 35.0hPa | 2.6V | 00:00:00 | 00:00:00 | 00:00:00 | |
| DL1NUX | 2026-09-03 12:04:13 | 50.92847 | 8.42813 | 148° | 5km/h | 23282m | 6.2m/s | -52.2°C | 4.2% | 35.1hPa | 2.6V | 08:30:00 | 01:46:19 | 00:00:00 | |
| DL1XH-west | 2026-09-03 12:04:12 | 50.92847 | 8.42813 | 149° | 5km/h | 23282m | 6.2m/s | -52.2°C | 0.7% | 35.1hPa | 2.6V | 18:12:15 | 01:46:19 | 00:00:00 | |
| DF8AY | 2026-09-03 12:04:11 | 50.92848 | 8.42813 | 184° | 7km/h | 23276m | 5.3m/s | 0°C | 0% | 0hPa | 2.6V | 18:12:15 | 01:46:18 | 00:00:00 | |
| DJ8HS-15 | 2026-09-03 12:04:10 | 50.92851 | 8.42813 | 189° | 11km/h | 23271m | 5.3m/s | -52.1°C | 4.2% | 35.1hPa | 2.7V | 00:00:00 | 01:46:17 | 00:00:00 | |
| GOEST3-10 | 2026-09-03 12:04:09 | 50.92853 | 8.42814 | 185° | 11km/h | 23266m | 5.7m/s | -52.2°C | 4.2% | 35.1hPa | 2.7V | 00:00:00 | 00:00:00 | 00:00:00 | |
| DO3DL | 2026-09-03 12:04:08 | 50.92855 | 8.42813 | 161° | 7km/h | 23261m | 4.5m/s | -52.2°C | 1.1% | 35.2hPa | 2.7V | 00:00:00 | 00:00:00 | 00:00:00 | |
| DL1XH1-15 | 2026-09-03 12:04:06 | 50.92860 | 8.42805 | 128° | 15km/h | 23245m | 5.4m/s | -52.2°C | 4.3% | 35.3hPa | 2.7V | 08:30:00 | 01:46:12 | 00:00:00 | |
| HSKMA3-T | 2026-09-03 12:04:05 | 50.92860 | 8.42805 | 128° | 15km/h | 23245m | 5.4m/s | -52.2°C | 0.7% | 35.3hPa | 2.7V | 18:12:15 | 01:46:12 | 00:00:00 | |
| DM0DOS-11 | 2026-09-03 12:04:02 | 50.92866 | 8.42787 | 103° | 15km/h | 23231m | 5.8m/s | -52.1°C | 4.2% | 35.4hPa | 2.6V | 08:30:00 | 01:46:09 | 00:00:00 | |
| DL1XH-west | 2026-09-03 12:04:02 | 50.92866 | 8.42787 | 103° | 15km/h | 23231m | 5.8m/s | -52.1°C | 0.7% | 35.4hPa | 2.6V | 18:12:15 | 01:46:09 | 00:00:00 | |
| BIOWL1-15 | 2026-09-03 12:04:00 | 50.92867 | 8.42778 | 94° | 9km/h | 23221m | 4.1m/s | -52.3°C | 0.7% | 35.5hPa | 2.6V | 18:12:15 | 01:46:07 | 00:00:00 | |
| HSKMA3-T | 2026-09-03 12:03:54 | 50.92878 | 8.42772 | 158° | 11km/h | 23189m | 4.4m/s | -52°C | 0.7% | 35.6hPa | 2.7V | 18:12:15 | 01:46:01 | 00:00:00 | |
| HTAHTA | 2026-09-03 12:03:54 | 50.92891 | 8.42750 | 100° | 16km/h | 23164m | 5.8m/s | 0°C | -1.0% | -1.0hPa | 2.6V | 00:00:00 | 00:00:00 | 00:00:00 | |
| DL1NUX | 2026-09-03 12:03:53 | 50.92884 | 8.42766 | 144° | 16km/h | 23179m | 5.3m/s | -52°C | 4.1% | 35.7hPa | 2.6V | 08:30:00 | 01:45:59 | 00:00:00 | |
| DL1XH-west | 2026-09-03 12:03:51 | 50.92887 | 8.42762 | 133° | 16km/h | 23174m | 4.3m/s | -52°C | 0.7% | 35.7hPa | 2.6V | 18:12:15 | 01:45:58 | 00:00:00 | |
| AA1-15 | 2026-09-03 12:03:49 | 50.92891 | 8.42750 | 100° | 16km/h | 23163m | 5.8m/s | -52°C | 0.7% | 35.8hPa | 2.7V | 18:12:15 | 01:45:56 | 00:00:00 | |
| WPPR-10 | 2026-09-03 12:03:47 | 50.92891 | 8.42737 | 91° | 15km/h | 23154m | 5.2m/s | -52.0°C | 1.1% | 35.8hPa | 2.7V | 00:00:00 | 00:00:00 | 00:00:00 | |
| DL3AQ-11 | 2026-09-03 12:03:46 | 50.92893 | 8.42726 | 114° | 13km/h | 23143m | 4.5m/s | -52.1°C | 1.1% | 35.9hPa | 2.7V | 00:00:00 | 00:00:00 | 00:00:00 | |
| HSKMA3-T | 2026-09-03 12:03:44 | 50.92894 | 8.42721 | 122° | 15km/h | 23139m | 4.1m/s | -52.1°C | 0.7% | 35.9hPa | 2.7V | 18:12:15 | 01:45:51 | 00:00:00 | |
| DL1XH-west | 2026-09-03 12:03:41 | 50.92903 | 8.42699 | 122° | 20km/h | 23118m | 4.6m/s | -51.9°C | 0.6% | 36hPa | 2.7V | 18:12:15 | 01:45:47 | 00:00:00 | |
| DL1XH1-15 | 2026-09-03 12:03:40 | 50.92922 | 8.42657 | 114° | 31km/h | 23093m | 5.8m/s | -51.9°C | 4.1% | 36.1hPa | 2.7V | 08:30:00 | 01:45:42 | 00:00:00 | |
| AA1-15 | 2026-09-03 12:03:38 | 50.92910 | 8.42685 | 133° | 26km/h | 23107m | 5.5m/s | -52°C | 0.6% | 36.1hPa | 2.6V | 18:12:15 | 01:45:45 | 00:00:00 | |
| HSKMA3-T | 2026-09-03 12:03:33 | 50.92927 | 8.42633 | 103° | 33km/h | 23082m | 4.9m/s | -51.9°C | 0.7% | 36.2hPa | 2.7V | 18:12:15 | 01:45:40 | 00:00:00 | |
| DL1XH-west | 2026-09-03 12:03:30 | 50.92932 | 8.42599 | 101° | 22km/h | 23067m | 5m/s | -51.9°C | 0.7% | 36.3hPa | 2.6V | 18:12:15 | 01:45:37 | 00:00:00 | |
| AA1-15 | 2026-09-03 12:03:27 | 50.92932 | 8.42579 | 83° | 13km/h | 23050m | 4.4m/s | -51.8°C | 0.7% | 36.4hPa | 2.6V | 18:12:15 | 01:45:34 | 00:00:00 | |
| BIOWL1-15 | 2026-09-03 12:03:27 | 50.92935 | 8.42558 | 106° | 18km/h | 23029m | 6.1m/s | -51.8°C | 0.6% | 36.5hPa | 2.7V | 18:12:15 | 01:45:30 | 00:00:00 | |
| DL1XH1-15 | 2026-09-03 12:03:26 | 50.92933 | 8.42569 | 108° | 11km/h | 23040m | 5.4m/s | -51.8°C | 4.1% | 36.4hPa | 2.6V | 08:30:00 | 01:45:32 | 00:00:00 | |
| HSKMA3-T | 2026-09-03 12:03:22 | 50.92936 | 8.42550 | 101° | 22km/h | 23023m | 5m/s | -51.8°C | 0.6% | 36.5hPa | 2.7V | 18:12:15 | 01:45:29 | 00:00:00 | |
| DL3AQ-11 | 2026-09-03 12:03:22 | 50.92937 | 8.42541 | 100° | 24km/h | 23019m | 4.3m/s | -51.9°C | 1.0% | 36.6hPa | 2.6V | 00:00:00 | 00:00:00 | 00:00:00 | |
| DL1XH1-15 | 2026-09-03 12:03:20 | 50.92940 | 8.42491 | 64° | 20km/h | 22987m | 5.5m/s | -51.9°C | 4.1% | 36.8hPa | 2.6V | 08:30:00 | 01:45:22 | 00:00:00 | |
| DL1XH-west | 2026-09-03 12:03:20 | 50.92940 | 8.42522 | 104° | 24km/h | 23008m | 5.2m/s | -51.9°C | 0.6% | 36.6hPa | 2.6V | 18:12:15 | 01:45:26 | 00:00:00 | |
| AA1-15 | 2026-09-03 12:03:17 | 50.92942 | 8.42505 | 92° | 18km/h | 22999m | 4.6m/s | -51.9°C | 0.6% | 36.7hPa | 2.7V | 18:12:15 | 01:45:24 | 00:00:00 | |
| BIOWL1-15 | 2026-09-03 12:03:14 | 50.92938 | 8.42484 | 57° | 18km/h | 22982m | 5m/s | -51.8°C | 0.6% | 36.8hPa | 2.7V | 18:12:15 | 01:45:21 | 00:00:00 | |
| HSKMA3-T | 2026-09-03 12:03:12 | 50.92933 | 8.42474 | 60° | 13km/h | 22971m | 5.4m/s | -51.8°C | 0.6% | 36.8hPa | 2.6V | 18:12:15 | 01:45:19 | 00:00:00 | |
| DL1XH-west | 2026-09-03 12:03:08 | 50.92930 | 8.42451 | 82° | 20km/h | 22951m | 4.9m/s | -51.9°C | 0.6% | 36.9hPa | 2.7V | 18:12:15 | 01:45:15 | 00:00:00 | |
| AA1-15 | 2026-09-03 12:03:07 | 50.92929 | 8.42442 | 83° | 24km/h | 22946m | 4.7m/s | -51.9°C | 0.7% | 37hPa | 2.7V | 18:12:15 | 01:45:14 | 00:00:00 | |
| DL1XH1-15 | 2026-09-03 12:03:06 | 50.92928 | 8.42424 | 86° | 22km/h | 22934m | 5.3m/s | -52°C | 4.1% | 37hPa | 2.6V | 08:30:00 | 01:45:12 | 00:00:00 | |
| BIOWL1-15 | 2026-09-03 12:03:04 | 50.92924 | 8.42396 | 66° | 27km/h | 22919m | 5.6m/s | -52.1°C | 0.6% | 37.1hPa | 2.7V | 18:12:15 | 01:45:09 | 00:00:00 | |
| DL1NUX | 2026-09-03 12:03:03 | 50.92924 | 8.42396 | 65° | 27km/h | 22919m | 5.6m/s | -52°C | 4% | 37.1hPa | 2.7V | 08:30:00 | 01:45:09 | 00:00:00 | |
| HSKMA3-T | 2026-09-03 12:03:01 | 50.92921 | 8.42387 | 61° | 27km/h | 22914m | 4.8m/s | -52°C | 0.6% | 37.2hPa | 2.6V | 18:12:15 | 01:45:08 | 00:00:00 | |
| DL1XH-west | 2026-09-03 12:02:58 | 50.92907 | 8.42351 | 56° | 16km/h | 22887m | 5.9m/s | -52.1°C | 0.7% | 37.3hPa | 2.6V | 18:12:15 | 01:45:03 | 00:00:00 | |
| AA1-15 | 2026-09-03 12:02:57 | 50.92909 | 8.42357 | 58° | 16km/h | 22893m | 4.8m/s | -52.1°C | 0.6% | 37.3hPa | 2.6V | 18:12:15 | 01:45:04 | 00:00:00 | |
| BUE01 | 2026-09-03 12:02:56 | 50.92904 | 8.42345 | 55° | 16km/h | 22882m | 4.7m/s | -52.1°C | 1.1% | 37.4hPa | 2.7V | 00:00:00 | 00:00:00 | 00:00:00 | |
| DD8BA-10 | 2026-09-03 12:02:55 | 50.92904 | 8.42345 | 56° | 22km/h | 22882m | 4.6m/s | -52.0°C | 4.1% | 37.3hPa | 2.7V | 00:00:00 | 00:00:00 | 00:00:00 | |
| DL1NUX | 2026-09-03 12:02:53 | 50.92899 | 8.42327 | 70° | 16km/h | 22866m | 4.9m/s | -52.1°C | 4.2% | 37.4hPa | 2.7V | 08:30:00 | 01:44:59 | 00:00:00 | |
| BIOWL1-15 | 2026-09-03 12:02:51 | 50.92892 | 8.42294 | 74° | 29km/h | 22846m | 4.7m/s | -52°C | 0.6% | 37.6hPa | 2.7V | 18:12:15 | 01:44:55 | 00:00:00 | |
| HSKMA3-T | 2026-09-03 12:02:51 | 50.92897 | 8.42321 | 74° | 18km/h | 22862m | 4.2m/s | -52.1°C | 0.7% | 37.5hPa | 2.6V | 18:12:15 | 01:44:58 | 00:00:00 | |
| DL1XH-west | 2026-09-03 12:02:46 | 50.92889 | 8.42271 | 79° | 27km/h | 22836m | 6.4m/s | -52°C | 0.7% | 37.6hPa | 2.6V | 18:12:15 | 01:44:53 | 00:00:00 | |
| AA1-15 | 2026-09-03 12:02:44 | 50.92888 | 8.42251 | 89° | 24km/h | 22825m | 4.9m/s | -52°C | 0.7% | 37.7hPa | 2.6V | 18:12:15 | 01:44:51 | 00:00:00 | |
| DL1NUX | 2026-09-03 12:02:43 | 50.92887 | 8.42233 | 91° | 22km/h | 22814m | 5.1m/s | -52°C | 4.1% | 37.8hPa | 2.7V | 08:30:00 | 01:44:49 | 00:00:00 | |
| BIOWL1-15 | 2026-09-03 12:02:40 | 50.92889 | 8.42205 | 107° | 11km/h | 22795m | 5.6m/s | -52.2°C | 0.6% | 37.9hPa | 2.6V | 18:12:15 | 01:44:45 | 00:00:00 | |
| DO1YAY-16 | 2026-09-03 12:02:40 | 50.92889 | 8.42210 | 100° | 13km/h | 22801m | 6.0m/s | -52.2°C | 1.0% | 37.9hPa | 2.6V | 00:00:00 | 00:00:00 | 00:00:00 | |
| HSKMA3-T | 2026-09-03 12:02:40 | 50.92888 | 8.42216 | 94° | 18km/h | 22806m | 3.9m/s | -52.2°C | 0.7% | 37.8hPa | 2.6V | 18:12:15 | 01:44:47 | 00:00:00 | |
| DJ2DS-15 | 2026-09-03 12:02:39 | 50.92889 | 8.42205 | 106° | 11km/h | 22795m | 5.6m/s | -52.2°C | 1.1% | 37.9hPa | 2.6V | 00:00:00 | 00:00:00 | 00:00:00 | |
| DL3OBA | 2026-09-03 12:02:37 | 50.92889 | 8.42205 | 108° | 11km/h | 22795m | 5.6m/s | -52.2°C | 1.1% | 37.9hPa | 2.6V | 00:00:00 | 00:00:00 | 00:00:00 | |
| DL1XH1-15 | 2026-09-03 12:02:36 | 50.92891 | 8.42190 | 91° | 16km/h | 22780m | 5.7m/s | -52°C | 4.1% | 37.9hPa | 2.6V | 08:30:00 | 01:44:42 | 00:00:00 | |
| DL1XH-west | 2026-09-03 12:02:36 | 50.92891 | 8.42196 | 101° | 13km/h | 22785m | 4.8m/s | -52.1°C | 0.7% | 37.9hPa | 2.7V | 18:12:15 | 01:44:43 | 00:00:00 | |
| AA1-15 | 2026-09-03 12:02:33 | 50.92890 | 8.42174 | 76° | 24km/h | 22770m | 4.1m/s | -52.1°C | 0.7% | 38hPa | 2.7V | 18:12:15 | 01:44:40 | 00:00:00 | |
| BIOWL1-15 | 2026-09-03 12:02:32 | 50.92883 | 8.42150 | 53° | 18km/h | 22755m | 5.3m/s | -52.1°C | 0.7% | 38.1hPa | 2.6V | 18:12:15 | 01:44:37 | 00:00:00 | |
| DF7PN | 2026-09-03 12:02:32 | 50.92886 | 8.42156 | 61° | 20km/h | 22760m | 5.4m/s | -52.2°C | 1.1% | 38.1hPa | 2.6V | 00:00:00 | 00:00:00 | 00:00:00 | |
| DL1XH1-15 | 2026-09-03 12:02:30 | 50.92873 | 8.42128 | 47° | 11km/h | 22729m | 6m/s | -52°C | 4.1% | 38.2hPa | 2.6V | 08:30:00 | 01:44:32 | 00:00:00 | |
| HSKMA3-T | 2026-09-03 12:02:29 | 50.92881 | 8.42145 | 50° | 15km/h | 22750m | 4.7m/s | -52°C | 0.6% | 38.1hPa | 2.6V | 18:12:15 | 01:44:36 | 00:00:00 | |
| DL1XH-west | 2026-09-03 12:02:26 | 50.92871 | 8.42125 | 40° | 11km/h | 22724m | 5.2m/s | -52°C | 0.6% | 38.3hPa | 2.6V | 18:12:15 | 01:44:31 | 00:00:00 | |
| DL3AQ-11 | 2026-09-03 12:02:26 | 50.92873 | 8.42128 | 47° | 9km/h | 22730m | 6.0m/s | -52.0°C | 1.1% | 38.2hPa | 2.6V | 00:00:00 | 00:00:00 | 00:00:00 | |
| SO1NDE-10 | 2026-09-03 12:02:25 | 50.92873 | 8.42128 | 48° | 11km/h | 22730m | 5.9m/s | -51.9°C | 4.1% | 38.2hPa | 2.6V | 00:00:00 | 01:44:32 | 00:00:00 | |
| DL1NUX | 2026-09-03 12:02:23 | 50.92867 | 8.42118 | 56° | 13km/h | 22713m | 6m/s | -52.1°C | 4% | 38.3hPa | 2.7V | 08:30:00 | 01:44:29 | 00:00:00 | |
| AA1-15 | 2026-09-03 12:02:23 | 50.92869 | 8.42122 | 44° | 11km/h | 22719m | 4.6m/s | -52°C | 0.6% | 38.3hPa | 2.6V | 18:12:15 | 01:44:30 | 00:00:00 | |
| BIOWL1-15 | 2026-09-03 12:02:19 | 50.92858 | 8.42093 | 51° | 13km/h | 22687m | 4m/s | -52.1°C | 0.7% | 38.5hPa | 2.7V | 18:12:15 | 01:44:24 | 00:00:00 | |
| HSKMA3-T | 2026-09-03 12:02:19 | 50.92862 | 8.42102 | 59° | 15km/h | 22698m | 6.2m/s | -52.2°C | 0.7% | 38.5hPa | 2.6V | 18:12:15 | 01:44:26 | 00:00:00 | |
| DL1XH1-15 | 2026-09-03 12:02:16 | 50.92854 | 8.42084 | 67° | 13km/h | 22677m | 5.3m/s | -52°C | 4.2% | 38.5hPa | 2.7V | 08:30:00 | 01:44:22 | 00:00:00 | |
| DL1XH-west | 2026-09-03 12:02:15 | 50.92854 | 8.42084 | 68° | 13km/h | 22677m | 5.3m/s | -52.1°C | 0.7% | 38.5hPa | 2.7V | 18:12:15 | 01:44:22 | 00:00:00 | |
| HSKMA3-T | 2026-09-03 12:02:09 | 50.92848 | 8.42066 | 67° | 7km/h | 22645m | 5.3m/s | -52.1°C | 0.6% | 38.8hPa | 2.6V | 18:12:15 | 01:44:16 | 00:00:00 | |
| BIOWL1-15 | 2026-09-03 12:02:08 | 50.92848 | 8.42063 | 64° | 7km/h | 22640m | 4.5m/s | -52.1°C | 0.7% | 38.8hPa | 2.6V | 18:12:15 | 01:44:15 | 00:00:00 | |
| DJ2DS-15 | 2026-09-03 12:02:08 | 50.92847 | 8.42063 | 65° | 9km/h | 22640m | 4.5m/s | -52.1°C | 4.1% | 38.7hPa | 2.6V | 00:00:00 | 01:44:15 | 00:00:00 | |
| DL1XH1-15 | 2026-09-03 12:02:06 | 50.92843 | 8.42056 | 35° | 9km/h | 22623m | 4.6m/s | -52.4°C | 4.1% | 38.9hPa | 2.6V | 08:30:00 | 01:44:12 | 00:00:00 | |
| DL1XH-west | 2026-09-03 12:02:05 | 50.92840 | 8.42050 | 61° | 13km/h | 22613m | 4.9m/s | -52.5°C | 0.7% | 39hPa | 2.6V | 18:12:15 | 01:44:10 | 00:00:00 | |
| AA1-15 | 2026-09-03 12:01:58 | 50.92832 | 8.42035 | 26° | 5km/h | 22588m | 4.8m/s | -52.3°C | 0.7% | 39.1hPa | 2.6V | 18:12:15 | 01:44:05 | 00:00:00 | |
| BIOWL1-15 | 2026-09-03 12:01:57 | 50.92831 | 8.42034 | 36° | 5km/h | 22582m | 5.7m/s | -52.3°C | 0.7% | 39.1hPa | 2.6V | 18:12:15 | 01:44:04 | 00:00:00 | |
| DL1XH1-15 | 2026-09-03 12:01:56 | 50.92829 | 8.42031 | 38° | 4km/h | 22573m | 4.4m/s | -52.3°C | 4.3% | 39.2hPa | 2.7V | 08:30:00 | 01:44:02 | 00:00:00 | |
| DL1XH-west | 2026-09-03 12:01:52 | 50.92822 | 8.42031 | 4° | 9km/h | 22553m | 5.1m/s | -52.4°C | 0.6% | 39.3hPa | 2.7V | 18:12:15 | 01:43:58 | 00:00:00 | |
| AA1-15 | 2026-09-03 12:01:48 | 50.92818 | 8.42026 | 60° | 7km/h | 22537m | 5.1m/s | -52.6°C | 0.7% | 39.4hPa | 2.6V | 18:12:15 | 01:43:55 | 00:00:00 | |
| BIOWL1-15 | 2026-09-03 12:01:47 | 50.92817 | 8.42024 | 74° | 4km/h | 22532m | 5.7m/s | -52.6°C | 0.7% | 39.4hPa | 2.6V | 18:12:15 | 01:43:54 | 00:00:00 | |
| DL3AQ-11 | 2026-09-03 12:01:46 | 50.92818 | 8.42021 | 143° | 5km/h | 22522m | 5.5m/s | -52.6°C | 1.1% | 39.5hPa | 2.6V | 00:00:00 | 00:00:00 | 00:00:00 | |
| DD1CC8 | 2026-09-03 12:01:45 | 50.92818 | 8.42021 | 143° | 5km/h | 22522m | 5.5m/s | -52.6°C | 1.1% | 39.5hPa | 2.6V | 00:00:00 | 00:00:00 | 00:00:00 | |
| DM0DOS-11 | 2026-09-03 12:01:44 | 50.92823 | 8.42016 | 159° | 7km/h | 22506m | 5.2m/s | -52.7°C | 4.4% | 39.6hPa | 2.6V | 08:30:00 | 01:43:49 | 00:00:00 | |
| DL1XH-west | 2026-09-03 12:01:42 | 50.92825 | 8.42016 | 189° | 4km/h | 22501m | 5.9m/s | -52.6°C | 0.8% | 39.7hPa | 2.7V | 18:12:15 | 01:43:48 | 00:00:00 | |
| BIOWL1-15 | 2026-09-03 12:01:37 | 50.92821 | 8.42018 | 7° | 7km/h | 22480m | 4.9m/s | -52.5°C | 0.7% | 39.8hPa | 2.6V | 18:12:15 | 01:43:44 | 00:00:00 | |
| DL1XH1-15 | 2026-09-03 12:01:36 | 50.92818 | 8.42018 | 348° | 5km/h | 22470m | 5.3m/s | -52.6°C | 4.3% | 39.8hPa | 2.7V | 08:30:00 | 01:43:42 | 00:00:00 | |
| DO3MHA-11 | 2026-09-03 12:01:36 | 50.92819 | 8.42017 | 5° | 7km/h | 22475m | 4.7m/s | -52.6°C | 4.2% | 39.8hPa | 2.7V | 00:00:00 | 01:43:43 | 00:00:00 | |
| DB0NH | 2026-09-03 12:01:35 | 50.92818 | 8.42018 | 349° | 7km/h | 22470m | 5.3m/s | -52.6°C | 4.3% | 39.8hPa | 2.7V | 00:00:00 | 01:43:42 | 00:00:00 | |
| DL1NUX | 2026-09-03 12:01:34 | 50.92818 | 8.42016 | 131° | 7km/h | 22455m | 6m/s | -52.5°C | 4.3% | 39.9hPa | 2.6V | 08:30:00 | 01:43:39 | 00:00:00 | |
| DL1XH-west | 2026-09-03 12:01:31 | 50.92821 | 8.42011 | 138° | 11km/h | 22445m | 5.2m/s | -52.5°C | 0.8% | 40hPa | 2.7V | 18:12:15 | 01:43:37 | 00:00:00 | |
| AA1-15 | 2026-09-03 12:01:29 | 50.92823 | 8.42008 | 144° | 9km/h | 22439m | 5.1m/s | -52.4°C | 0.8% | 40hPa | 2.7V | 18:12:15 | 01:43:36 | 00:00:00 | |
| BIOWL1-15 | 2026-09-03 12:01:26 | 50.92825 | 8.41995 | 51° | 9km/h | 22415m | 4.7m/s | -52.4°C | 0.8% | 40.2hPa | 2.7V | 18:12:15 | 01:43:31 | 00:00:00 | |
| DL1XH1-15 | 2026-09-03 12:01:26 | 50.92826 | 8.41998 | 67° | 9km/h | 22420m | 4.6m/s | -52.4°C | 4.2% | 40.1hPa | 2.7V | 08:30:00 | 01:43:32 | 00:00:00 | |
| HSKMA3-T | 2026-09-03 12:01:26 | 50.92826 | 8.42001 | 89° | 7km/h | 22425m | 5.5m/s | -52.5°C | 0.8% | 40.1hPa | 2.6V | 18:12:15 | 01:43:33 | 00:00:00 | |
| DL1XH-west | 2026-09-03 12:01:20 | 50.92819 | 8.41987 | 90° | 7km/h | 22385m | 4.6m/s | -52.1°C | 0.7% | 40.4hPa | 2.7V | 18:12:15 | 01:43:25 | 00:00:00 | |
| BIOWL1-15 | 2026-09-03 12:01:18 | 50.92825 | 8.41964 | 94° | 11km/h | 22355m | 4.5m/s | -52.2°C | 0.7% | 40.5hPa | 2.6V | 18:12:15 | 01:43:19 | 00:00:00 | |
| DL1XH1-15 | 2026-09-03 12:01:16 | 50.92822 | 8.41978 | 128° | 11km/h | 22370m | 4.2m/s | -52.1°C | 4.2% | 40.5hPa | 2.7V | 08:30:00 | 01:43:22 | 00:00:00 | |
| AA1-15 | 2026-09-03 12:01:16 | 50.92820 | 8.41981 | 132° | 9km/h | 22374m | 4.9m/s | -52.1°C | 0.7% | 40.4hPa | 2.6V | 18:12:15 | 01:43:23 | 00:00:00 | |
| HSKMA3-T | 2026-09-03 12:01:15 | 50.92822 | 8.41978 | 128° | 11km/h | 22370m | 4.2m/s | -52.2°C | 0.7% | 40.5hPa | 2.7V | 18:12:15 | 01:43:22 | 00:00:00 | |
| DO3MHA-11 | 2026-09-03 12:01:15 | 50.92822 | 8.41978 | 129° | 7km/h | 22370m | 4.2m/s | -52.1°C | 4.2% | 40.4hPa | 2.7V | 00:00:00 | 01:43:22 | 00:00:00 | |
| DL1NUX | 2026-09-03 12:01:12 | 50.92825 | 8.41964 | 93° | 11km/h | 22355m | 4.5m/s | -52.2°C | 4.1% | 40.5hPa | 2.6V | 08:30:00 | 01:43:19 | 00:00:00 | |
| DL1XH-west | 2026-09-03 12:01:07 | 50.92824 | 8.41955 | 21° | 5km/h | 22329m | 5m/s | -52°C | 0.7% | 40.7hPa | 2.6V | 18:12:15 | 01:43:14 | 00:00:00 | |
| DL1XH1-15 | 2026-09-03 12:01:06 | 50.92822 | 8.41953 | 66° | 2km/h | 22321m | 5m/s | -52.2°C | 4% | 40.8hPa | 2.6V | 08:30:00 | 01:43:12 | 00:00:00 | |
| HSKMA3-T | 2026-09-03 12:01:05 | 50.92822 | 8.41953 | 67° | 2km/h | 22321m | 5m/s | -52.2°C | 0.6% | 40.8hPa | 2.6V | 18:12:15 | 01:43:12 | 00:00:00 | |
| BIOWL1-15 | 2026-09-03 12:01:04 | 50.92824 | 8.41952 | 161° | 7km/h | 22310m | 4.9m/s | -52.4°C | 0.7% | 40.8hPa | 2.7V | 18:12:15 | 01:43:10 | 00:00:00 | |
| DL1NUX | 2026-09-03 12:01:02 | 50.92826 | 8.41950 | 151° | 11km/h | 22305m | 5.3m/s | -52.4°C | 4.2% | 40.9hPa | 2.6V | 08:30:00 | 01:43:09 | 00:00:00 | |
| BIOWL9-15 | 2026-09-03 12:01:01 | 50.92831 | 8.41945 | 138° | 9km/h | 22294m | 4.1m/s | -52.3°C | 1.1% | 40.9hPa | 2.6V | 00:00:00 | 00:00:00 | 00:00:00 | |
| DF7PN | 2026-09-03 12:00:58 | 50.92835 | 8.41942 | 171° | 7km/h | 22285m | 5.6m/s | -52.5°C | 1.1% | 41.0hPa | 2.6V | 00:00:00 | 00:00:00 | 00:00:00 | |
| DL1XH1-15 | 2026-09-03 12:00:56 | 50.92839 | 8.41945 | 242° | 5km/h | 22269m | 5.4m/s | -52.6°C | 4.3% | 41.1hPa | 2.6V | 08:30:00 | 01:43:02 | 00:00:00 | |
| DL1XH-west | 2026-09-03 12:00:56 | 50.92838 | 8.41944 | 226° | 7km/h | 22274m | 5m/s | -52.6°C | 0.8% | 41hPa | 2.6V | 18:12:15 | 01:43:03 | 00:00:00 | |
| HSKMA3-T | 2026-09-03 12:00:55 | 50.92839 | 8.41945 | 243° | 5km/h | 22269m | 5.4m/s | -52.6°C | 0.8% | 41.1hPa | 2.6V | 18:12:15 | 01:43:02 | 00:00:00 | |
| SO1NDE-10 | 2026-09-03 12:00:55 | 50.92839 | 8.41945 | 243° | 11km/h | 22270m | 5.3m/s | -52.6°C | 4.3% | 41.0hPa | 2.6V | 00:00:00 | 01:43:02 | 00:00:00 | |
| DL1NUX | 2026-09-03 12:00:54 | 50.92841 | 8.41950 | 200° | 7km/h | 22255m | 5.4m/s | -52.5°C | 4.3% | 41.2hPa | 2.7V | 08:30:00 | 01:42:59 | 00:00:00 | |
| BIOWL1-15 | 2026-09-03 12:00:53 | 50.92843 | 8.41950 | 173° | 9km/h | 22250m | 4.3m/s | -52.5°C | 0.8% | 41.2hPa | 2.6V | 18:12:15 | 01:42:58 | 00:00:00 | |
| DL3AQ-11 | 2026-09-03 12:00:53 | 50.92841 | 8.41950 | 200° | 5km/h | 22255m | 5.4m/s | -52.5°C | 1.1% | 41.2hPa | 2.6V | 00:00:00 | 00:00:00 | 00:00:00 | |
| BUE01 | 2026-09-03 12:00:52 | 50.92843 | 8.41950 | 172° | 9km/h | 22250m | 4.3m/s | -52.5°C | 1.1% | 41.2hPa | 2.6V | 00:00:00 | 00:00:00 | 00:00:00 | |
| DL9SK-14 | 2026-09-03 12:00:49 | 50.92851 | 8.41941 | 124° | 15km/h | 22235m | 3.8m/s | -52.7°C | 1.1% | 41.3hPa | 2.6V | 00:00:00 | 00:00:00 | 00:00:00 | |
| DL8DAS-14 | 2026-09-03 12:00:47 | 50.92853 | 8.41935 | 125° | 15km/h | 22231m | 4.7m/s | -52.6°C | 1.1% | 41.3hPa | 2.6V | 00:00:00 | 00:00:00 | 00:00:00 | |
| DL1XH1-15 | 2026-09-03 12:00:46 | 50.92858 | 8.41927 | 148° | 13km/h | 22221m | 4.7m/s | -52.4°C | 4.3% | 41.4hPa | 2.6V | 08:30:00 | 01:42:52 | 00:00:00 | |
| DL1XH-west | 2026-09-03 12:00:46 | 50.92855 | 8.41931 | 135° | 15km/h | 22226m | 5.2m/s | -52.5°C | 0.7% | 41.4hPa | 2.6V | 18:12:15 | 01:42:53 | 00:00:00 | |
| DM0DOS-11 | 2026-09-03 12:00:46 | 50.92865 | 8.41923 | 161° | 7km/h | 22205m | 4.4m/s | -52.4°C | 4.3% | 41.5hPa | 2.7V | 08:30:00 | 01:42:49 | 00:00:00 | |
| HSKMA3-T | 2026-09-03 12:00:45 | 50.92858 | 8.41927 | 148° | 13km/h | 22221m | 4.7m/s | -52.4°C | 0.8% | 41.4hPa | 2.6V | 18:12:15 | 01:42:52 | 00:00:00 | |
| BIOWL1-15 | 2026-09-03 12:00:43 | 50.92863 | 8.41924 | 158° | 9km/h | 22210m | 5.9m/s | -52.4°C | 0.7% | 41.5hPa | 2.7V | 18:12:15 | 01:42:50 | 00:00:00 | |
| EDDB2-11 | 2026-09-03 12:00:43 | 50.92865 | 8.41923 | 161° | 5km/h | 22206m | 4.4m/s | -52.4°C | 1.1% | 41.5hPa | 2.6V | 00:00:00 | 00:00:00 | 00:00:00 | |
| BIOWL7-15 | 2026-09-03 12:00:41 | 50.92865 | 8.41923 | 163° | 7km/h | 22206m | 4.4m/s | -52.4°C | 1.1% | 41.5hPa | 2.6V | 00:00:00 | 00:00:00 | 00:00:00 | |
| GOEST3-10 | 2026-09-03 12:00:40 | 50.92869 | 8.41921 | 179° | 13km/h | 22196m | 5.7m/s | -52.3°C | 4.2% | 41.5hPa | 2.6V | 00:00:00 | 01:42:47 | 08:30:00 | |
| DL1CLM-18 | 2026-09-03 12:00:38 | 50.92875 | 8.41920 | 161° | 15km/h | 22187m | 4.0m/s | -52.3°C | 1.1% | 41.6hPa | 2.6V | 00:00:00 | 00:00:00 | 00:00:00 | |
| DD1CC3-15 | 2026-09-03 12:00:37 | 50.92875 | 8.41920 | 161° | 15km/h | 22187m | 4.0m/s | -52.3°C | 1.2% | 41.6hPa | 2.6V | 00:00:00 | 00:00:00 | 00:00:00 | |
| DL1XH1-15 | 2026-09-03 12:00:36 | 50.92884 | 8.41909 | 131° | 18km/h | 22173m | 4.2m/s | -52.3°C | 4.1% | 41.7hPa | 2.6V | 08:30:00 | 01:42:42 | 00:00:00 | |
| DL1XH-west | 2026-09-03 12:00:35 | 50.92884 | 8.41909 | 132° | 18km/h | 22173m | 4.2m/s | -52.3°C | 0.6% | 41.7hPa | 2.6V | 18:12:15 | 01:42:42 | 00:00:00 | |
| HSKMA3-T | 2026-09-03 12:00:34 | 50.92887 | 8.41903 | 138° | 18km/h | 22168m | 5.3m/s | -52.2°C | 0.7% | 41.7hPa | 2.6V | 18:12:15 | 01:42:41 | 00:00:00 | |
| BIOWL1-15 | 2026-09-03 12:00:33 | 50.92890 | 8.41899 | 145° | 16km/h | 22163m | 4.5m/s | -52.2°C | 0.6% | 41.8hPa | 2.7V | 18:12:15 | 01:42:40 | 00:00:00 | |
| DL1NUX | 2026-09-03 12:00:32 | 50.92894 | 8.41896 | 148° | 15km/h | 22159m | 4.3m/s | -52.2°C | 4.1% | 41.8hPa | 2.7V | 08:30:00 | 01:42:39 | 00:00:00 | |
| BIOWL1-15 | 2026-09-03 12:00:28 | 50.92926 | 8.41888 | 160° | 20km/h | 22109m | 5.7m/s | -52.3°C | 0.7% | 42.1hPa | 2.7V | 18:12:15 | 01:42:29 | 00:00:00 | |
| DJ2DS-15 | 2026-09-03 12:00:28 | 50.92902 | 8.41890 | 187° | 15km/h | 22139m | 5.7m/s | -52.3°C | 4.1% | 41.9hPa | 2.6V | 00:00:00 | 01:42:35 | 00:00:00 | |
| DL1XH1-15 | 2026-09-03 12:00:26 | 50.92913 | 8.41893 | 184° | 16km/h | 22124m | 5.4m/s | -52.4°C | 4.3% | 42hPa | 2.6V | 08:30:00 | 01:42:32 | 00:00:00 | |
| DL1XH-west | 2026-09-03 12:00:25 | 50.92913 | 8.41893 | 184° | 16km/h | 22124m | 5.4m/s | -52.4°C | 0.8% | 42hPa | 2.6V | 18:12:15 | 01:42:32 | 00:00:00 | |
| HSKMA3-T | 2026-09-03 12:00:23 | 50.92921 | 8.41891 | 162° | 18km/h | 22114m | 4.3m/s | -52.4°C | 0.8% | 42.1hPa | 2.7V | 18:12:15 | 01:42:30 | 00:00:00 | |
| DL1NUX | 2026-09-03 12:00:22 | 50.92926 | 8.41888 | 160° | 20km/h | 22109m | 5.7m/s | -52.3°C | 4.2% | 42.1hPa | 2.7V | 08:30:00 | 01:42:29 | 00:00:00 | |
| DL1XH-west | 2026-09-03 12:00:14 | 50.92952 | 8.41868 | 153° | 11km/h | 22070m | 4.2m/s | -52.2°C | 0.7% | 42.4hPa | 2.6V | 18:12:15 | 01:42:21 | 00:00:00 | |
| DM0DOS-11 | 2026-09-03 12:00:13 | 50.92957 | 8.41863 | 128° | 13km/h | 22060m | 5m/s | -52.3°C | 4.2% | 42.4hPa | 2.7V | 08:30:00 | 01:42:19 | 00:00:00 | |
| HSKMA3-T | 2026-09-03 12:00:13 | 50.92954 | 8.41866 | 142° | 11km/h | 22065m | 5.1m/s | -52.2°C | 0.6% | 42.4hPa | 2.6V | 18:12:15 | 01:42:20 | 00:00:00 | |
| BIOWL1-15 | 2026-09-03 12:00:11 | 50.92959 | 8.41858 | 127° | 16km/h | 22056m | 3.8m/s | -52.4°C | 0.7% | 42.5hPa | 2.7V | 18:12:15 | 01:42:18 | 00:00:00 | |
| DL1XH-west | 2026-09-03 12:00:04 | 50.92983 | 8.41810 | 111° | 22km/h | 22022m | 4.1m/s | -52.7°C | 0.7% | 42.7hPa | 2.6V | 18:12:15 | 01:42:11 | 00:00:00 | |
| DM0DOS-11 | 2026-09-03 12:00:03 | 50.92986 | 8.41796 | 113° | 16km/h | 22012m | 4.7m/s | -52.8°C | 4.3% | 42.8hPa | 2.6V | 08:30:00 | 01:42:09 | 00:00:00 | |
| HSKMA3-T | 2026-09-03 12:00:03 | 50.92984 | 8.41803 | 112° | 20km/h | 22017m | 5.7m/s | -52.8°C | 0.8% | 42.7hPa | 2.6V | 18:12:15 | 01:42:10 | 00:00:00 | |
| BIOWL1-15 | 2026-09-03 12:00:02 | 50.92989 | 8.41784 | 102° | 15km/h | 22002m | 5.8m/s | -52.9°C | 0.7% | 42.8hPa | 2.7V | 18:12:15 | 01:42:07 | 00:00:00 | |
| DL3AQ-11 | 2026-09-03 12:00:02 | 50.92988 | 8.41790 | 110° | 15km/h | 22007m | 4.5m/s | -52.8°C | 1.1% | 42.8hPa | 2.6V | 00:00:00 | 00:00:00 | 00:00:00 | |
| BIOWL9-15 | 2026-09-03 11:59:59 | 50.92990 | 8.41771 | 100° | 18km/h | 21993m | 4.1m/s | -53.0°C | 1.2% | 42.9hPa | 2.6V | 00:00:00 | 00:00:00 | 00:00:00 | |
| DL1XH1-15 | 2026-09-03 11:59:56 | 50.92995 | 8.41746 | 108° | 27km/h | 21979m | 4.4m/s | -52.9°C | 4.4% | 43hPa | 2.6V | 08:30:00 | 01:42:02 | 00:00:00 | |
| DL1XH-west | 2026-09-03 11:59:54 | 50.92997 | 8.41735 | 103° | 29km/h | 21973m | 5.9m/s | -52.9°C | 0.9% | 43hPa | 2.6V | 18:12:15 | 01:42:01 | 00:00:00 | |
| HSKMA3-T | 2026-09-03 11:59:53 | 50.92999 | 8.41723 | 98° | 33km/h | 21968m | 4.7m/s | -52.7°C | 0.7% | 43.1hPa | 2.6V | 18:12:15 | 01:42:00 | 00:00:00 | |
| DL1NUX | 2026-09-03 11:59:52 | 50.93000 | 8.41710 | 96° | 33km/h | 21963m | 4.6m/s | -52.7°C | 4.4% | 43.1hPa | 2.7V | 08:30:00 | 01:41:59 | 00:00:00 | |
| BIOWL1-15 | 2026-09-03 11:59:50 | 50.93001 | 8.41685 | 94° | 29km/h | 21953m | 4.6m/s | -52.7°C | 0.8% | 43.2hPa | 2.7V | 18:12:15 | 01:41:57 | 00:00:00 | |
| DJ8HS-15 | 2026-09-03 11:59:50 | 50.93001 | 8.41685 | 94° | 27km/h | 21953m | 4.5m/s | -52.7°C | 4.4% | 43.1hPa | 2.7V | 00:00:00 | 01:41:57 | 00:00:00 | |
| GOEST3-10 | 2026-09-03 11:59:49 | 50.93001 | 8.41673 | 91° | 29km/h | 21949m | 4.8m/s | -52.7°C | 4.4% | 43.2hPa | 2.7V | 00:00:00 | 01:41:56 | 00:00:00 | |
| DJ2DS-15 | 2026-09-03 11:59:48 | 50.93001 | 8.41662 | 86° | 27km/h | 21943m | 5.5m/s | -52.5°C | 4.3% | 43.2hPa | 2.7V | 00:00:00 | 01:41:55 | 00:00:00 | |
| DL1XH1-15 | 2026-09-03 11:59:46 | 50.92999 | 8.41627 | 87° | 27km/h | 21929m | 5.5m/s | -52.6°C | 4.2% | 43.3hPa | 2.7V | 08:30:00 | 01:41:52 | 00:00:00 | |
| DL8DAS-14 | 2026-09-03 11:59:45 | 50.92999 | 8.41627 | 87° | 26km/h | 21929m | 5.5m/s | -52.6°C | 1.1% | 43.3hPa | 2.6V | 00:00:00 | 00:00:00 | 00:00:00 | |
| DL1XH-west | 2026-09-03 11:59:43 | 50.92999 | 8.41606 | 91° | 26km/h | 21919m | 4.4m/s | -52.5°C | 0.7% | 43.4hPa | 2.6V | 18:12:15 | 01:41:50 | 00:00:00 | |
| DL1NUX | 2026-09-03 11:59:42 | 50.92999 | 8.41596 | 88° | 27km/h | 21914m | 5.7m/s | -52.5°C | 4.2% | 43.4hPa | 2.6V | 08:30:00 | 01:41:49 | 00:00:00 | |
| BIOWL1-15 | 2026-09-03 11:59:39 | 50.92997 | 8.41563 | 86° | 27km/h | 21900m | 5.6m/s | -52.7°C | 0.8% | 43.5hPa | 2.7V | 18:12:15 | 01:41:46 | 00:00:00 | |
| GOEST3-10 | 2026-09-03 11:59:39 | 50.92997 | 8.41563 | 87° | 27km/h | 21900m | 5.6m/s | -52.6°C | 4.3% | 43.5hPa | 2.7V | 00:00:00 | 01:41:46 | 00:00:00 | |
| DJ2DS-15 | 2026-09-03 11:59:38 | 50.92997 | 8.41553 | 87° | 26km/h | 21894m | 4.8m/s | -52.6°C | 1.1% | 43.6hPa | 2.7V | 00:00:00 | 00:00:00 | 00:00:00 | |
| DL1XH1-15 | 2026-09-03 11:59:36 | 50.92995 | 8.41519 | 84° | 31km/h | 21879m | 4.1m/s | -52.7°C | 4.3% | 43.7hPa | 2.7V | 08:30:00 | 01:41:42 | 00:00:00 | |
| AA1-15 | 2026-09-03 11:59:34 | 50.92995 | 8.41507 | 86° | 31km/h | 21875m | 4.4m/s | -52.8°C | 0.8% | 43.7hPa | 2.7V | 18:12:15 | 01:41:41 | 00:00:00 | |
| DM0DOS-11 | 2026-09-03 11:59:34 | 50.92994 | 8.41484 | 90° | 26km/h | 21865m | 4.5m/s | -52.7°C | 4.3% | 43.8hPa | 2.6V | 08:30:00 | 01:41:39 | 00:00:00 | |
| HSKMA3-T | 2026-09-03 11:59:32 | 50.92994 | 8.41484 | 91° | 26km/h | 21865m | 4.5m/s | -52.7°C | 0.8% | 43.8hPa | 2.6V | 18:12:15 | 01:41:39 | 00:00:00 | |
| BIOWL1-15 | 2026-09-03 11:59:29 | 50.92993 | 8.41455 | 79° | 26km/h | 21850m | 4.7m/s | -52.7°C | 0.8% | 43.9hPa | 2.6V | 18:12:15 | 01:41:36 | 00:00:00 | |
| GOEST3-10 | 2026-09-03 11:59:29 | 50.92993 | 8.41455 | 79° | 24km/h | 21850m | 4.6m/s | -52.6°C | 4.4% | 43.8hPa | 2.6V | 00:00:00 | 01:41:36 | 00:00:00 | |
| DJ2DS-15 | 2026-09-03 11:59:28 | 50.92992 | 8.41445 | 76° | 24km/h | 21846m | 4.3m/s | -52.6°C | 4.4% | 43.8hPa | 2.6V | 00:00:00 | 01:41:35 | 00:00:00 | |
| DO3DL | 2026-09-03 11:59:27 | 50.92992 | 8.41445 | 76° | 26km/h | 21846m | 4.4m/s | -52.7°C | 1.2% | 43.9hPa | 2.7V | 00:00:00 | 00:00:00 | 00:00:00 | |
| DB0DAN | 2026-09-03 11:59:25 | 50.92988 | 8.41418 | 84° | 22km/h | 21831m | 4.2m/s | -52.6°C | 1.1% | 44.02hPa | 2.7V | 00:00:00 | 00:00:00 | 00:00:00 | |
| AA1-15 | 2026-09-03 11:59:23 | 50.92987 | 8.41398 | 81° | 27km/h | 21821m | 5.1m/s | -52.7°C | 0.8% | 44.1hPa | 2.6V | 18:12:15 | 01:41:30 | 00:00:00 | |
| HSKMA3-T | 2026-09-03 11:59:21 | 50.92985 | 8.41376 | 84° | 29km/h | 21812m | 4.7m/s | -52.7°C | 0.8% | 44.1hPa | 2.6V | 18:12:15 | 01:41:28 | 00:00:00 | |
| BIOWL1-15 | 2026-09-03 11:59:20 | 50.92981 | 8.41314 | 77° | 22km/h | 21784m | 4.7m/s | -52.5°C | 0.9% | 44.3hPa | 2.7V | 18:12:15 | 01:41:22 | 00:00:00 | |
| DJTTGO | 2026-09-03 11:59:19 | 50.92984 | 8.41354 | 91° | 26km/h | 21802m | 4.9m/s | -52.5°C | 1.2% | 44.2hPa | 2.7V | 00:00:00 | 00:00:00 | 00:00:00 | |
| GOEST3-10 | 2026-09-03 11:59:18 | 50.92984 | 8.41343 | 88° | 24km/h | 21797m | 4.4m/s | -52.5°C | 4.4% | 44.2hPa | 2.7V | 00:00:00 | 01:41:25 | 00:00:00 | |
| DO3MHA-11 | 2026-09-03 11:59:15 | 50.92981 | 8.41314 | 77° | 20km/h | 21784m | 4.6m/s | -52.4°C | 4.4% | 44.3hPa | 2.7V | 00:00:00 | 01:41:22 | 00:00:00 | |
| DO3DL | 2026-09-03 11:59:14 | 50.92981 | 8.41314 | 78° | 22km/h | 21784m | 4.7m/s | -52.5°C | 1.2% | 44.3hPa | 2.6V | 00:00:00 | 00:00:00 | 00:00:00 | |
| DL1NUX | 2026-09-03 11:59:12 | 50.92978 | 8.41292 | 70° | 16km/h | 21769m | 4.4m/s | -52.4°C | 4.3% | 44.4hPa | 2.6V | 08:30:00 | 01:41:19 | 00:00:00 | |
| DD8BA-10 | 2026-09-03 11:59:12 | 50.92977 | 8.41292 | 71° | 18km/h | 21770m | 4.4m/s | -52.3°C | 4.3% | 44.4hPa | 2.6V | 00:00:00 | 00:00:00 | 00:00:00 | |
| DL3OBA | 2026-09-03 11:59:11 | 50.92977 | 8.41292 | 72° | 16km/h | 21770m | 4.4m/s | -52.4°C | 1.1% | 44.4hPa | 2.6V | 00:00:00 | 00:00:00 | 00:00:00 | |
| DL1XH1-15 | 2026-09-03 11:59:10 | 50.92964 | 8.41244 | 76° | 15km/h | 21737m | 4.8m/s | -52.1°C | 4.2% | 44.6hPa | 2.6V | 08:30:00 | 01:41:12 | 00:00:00 | |
| HSKMA3-T | 2026-09-03 11:59:10 | 50.92973 | 8.41278 | 59° | 22km/h | 21759m | 4.5m/s | -52.3°C | 0.7% | 44.5hPa | 2.6V | 18:12:15 | 01:41:17 | 00:00:00 | |
| BIOWL1-15 | 2026-09-03 11:59:07 | 50.92966 | 8.41256 | 71° | 18km/h | 21746m | 5.2m/s | -52.2°C | 0.8% | 44.6hPa | 2.6V | 18:12:15 | 01:41:14 | 00:00:00 | |
| GOEST3-10 | 2026-09-03 11:59:07 | 50.92966 | 8.41256 | 72° | 16km/h | 21746m | 5.1m/s | -52.2°C | 4.3% | 44.5hPa | 2.6V | 00:00:00 | 01:41:14 | 08:30:00 | |
| DL3AQ-11 | 2026-09-03 11:59:06 | 50.92964 | 8.41244 | 76° | 15km/h | 21737m | 4.8m/s | -52.2°C | 1.1% | 44.7hPa | 2.7V | 00:00:00 | 00:00:00 | 00:00:00 | |
| DK9SH | 2026-09-03 11:59:05 | 50.92964 | 8.41243 | 78° | 15km/h | 21737m | 4.8m/s | -52.2°C | 1.1% | 44.7hPa | 2.7V | 00:00:00 | 00:00:00 | 00:00:00 | |
| DM0DOS-11 | 2026-09-03 11:59:03 | 50.92960 | 8.41226 | 64° | 16km/h | 21722m | 4.2m/s | -52.1°C | 4.2% | 44.7hPa | 2.7V | 08:30:00 | 01:41:09 | 00:00:00 | |
| HSKMA3-T | 2026-09-03 11:59:00 | 50.92957 | 8.41215 | 74° | 15km/h | 21712m | 5.1m/s | -52°C | 0.7% | 44.8hPa | 2.6V | 18:12:15 | 01:41:07 | 00:00:00 | |
| DL1XH-west | 2026-09-03 11:58:59 | 50.92956 | 8.41209 | 71° | 16km/h | 21708m | 4.4m/s | -52°C | 0.7% | 44.9hPa | 2.6V | 18:12:15 | 01:41:06 | 00:00:00 | |
| DL1XH1-15 | 2026-09-03 11:58:58 | 50.92947 | 8.41184 | 64° | 18km/h | 21688m | 5.5m/s | -51.9°C | 4.1% | 45hPa | 2.6V | 08:30:00 | 01:41:02 | 00:00:00 | |
| BIOWL1-15 | 2026-09-03 11:58:56 | 50.92950 | 8.41190 | 61° | 18km/h | 21693m | 4.3m/s | -52°C | 0.7% | 44.9hPa | 2.6V | 18:12:15 | 01:41:03 | 00:00:00 | |
| AA1-15 | 2026-09-03 11:58:51 | 50.92940 | 8.41159 | 55° | 16km/h | 21669m | 4.2m/s | -51.9°C | 0.7% | 45.1hPa | 2.6V | 18:12:15 | 01:40:58 | 00:00:00 | |
| HSKMA3-T | 2026-09-03 11:58:49 | 50.92936 | 8.41149 | 67° | 13km/h | 21659m | 5.7m/s | -51.9°C | 0.7% | 45.2hPa | 2.7V | 18:12:15 | 01:40:56 | 00:00:00 | |
| DL1XH-west | 2026-09-03 11:58:48 | 50.92935 | 8.41144 | 76° | 11km/h | 21654m | 4.6m/s | -51.9°C | 0.7% | 45.2hPa | 2.7V | 18:12:15 | 01:40:55 | 00:00:00 | |
| BIOWL1-15 | 2026-09-03 11:58:48 | 50.92933 | 8.41135 | 66° | 13km/h | 21645m | 5.5m/s | -51.9°C | 0.8% | 45.3hPa | 2.6V | 18:12:15 | 01:40:53 | 00:00:00 | |
| BUE01 | 2026-09-03 11:58:47 | 50.92934 | 8.41140 | 74° | 11km/h | 21650m | 4.2m/s | -51.8°C | 1.1% | 45.3hPa | 2.6V | 00:00:00 | 00:00:00 | 00:00:00 | |
| DL1XH1-15 | 2026-09-03 11:58:46 | 50.92931 | 8.41131 | 57° | 13km/h | 21640m | 4.3m/s | -51.8°C | 4.2% | 45.3hPa | 2.6V | 08:30:00 | 01:40:52 | 00:00:00 | |
| HSKMA3-T | 2026-09-03 11:58:38 | 50.92920 | 8.41101 | 60° | 13km/h | 21607m | 3.9m/s | -51.7°C | 0.6% | 45.6hPa | 2.7V | 18:12:15 | 01:40:45 | 00:00:00 | |
| DL1XH-west | 2026-09-03 11:58:37 | 50.92919 | 8.41096 | 74° | 11km/h | 21602m | 5.7m/s | -51.6°C | 0.7% | 45.6hPa | 2.7V | 18:12:15 | 01:40:44 | 00:00:00 | |
| DL1XH1-15 | 2026-09-03 11:58:36 | 50.92919 | 8.41089 | 106° | 7km/h | 21592m | 4.7m/s | -51.5°C | 4.1% | 45.7hPa | 2.6V | 08:30:00 | 01:40:42 | 00:00:00 | |
| BIOWL1-15 | 2026-09-03 11:58:35 | 50.92920 | 8.41087 | 100° | 7km/h | 21587m | 5.9m/s | -51.5°C | 0.6% | 45.7hPa | 2.6V | 18:12:15 | 01:40:41 | 00:00:00 | |
| HSKMA3-T | 2026-09-03 11:58:27 | 50.92921 | 8.41073 | 78° | 9km/h | 21551m | 4.5m/s | -51.3°C | 0.7% | 46hPa | 2.7V | 18:12:15 | 01:40:34 | 00:00:00 | |
| DL1XH1-15 | 2026-09-03 11:58:26 | 50.92920 | 8.41065 | 92° | 11km/h | 21543m | 5.5m/s | -51.4°C | 4.1% | 46hPa | 2.7V | 08:30:00 | 01:40:32 | 00:00:00 | |
| BIOWL1-15 | 2026-09-03 11:58:24 | 50.92921 | 8.41061 | 111° | 9km/h | 21537m | 4.9m/s | -51.3°C | 0.7% | 46hPa | 2.6V | 18:12:15 | 01:40:31 | 00:00:00 | |
| DK9SH | 2026-09-03 11:58:24 | 50.92921 | 8.41061 | 112° | 9km/h | 21537m | 4.9m/s | -51.3°C | 1.1% | 46.0hPa | 2.6V | 00:00:00 | 00:00:00 | 00:00:00 | |
| DO3MHA-12 | 2026-09-03 11:58:23 | 50.92922 | 8.41058 | 129° | 5km/h | 21533m | 4.3m/s | -51.3°C | 4.0% | 46.0hPa | 2.6V | 00:00:00 | 01:40:30 | 00:00:00 | |
| DD8BA-10 | 2026-09-03 11:58:22 | 50.92923 | 8.41056 | 139° | 5km/h | 21529m | 4.6m/s | -51.3°C | 4.0% | 46.0hPa | 2.6V | 00:00:00 | 00:00:00 | 00:00:00 | |
| DO2KSM | 2026-09-03 11:58:21 | 50.92923 | 8.41056 | 139° | 5km/h | 21529m | 4.6m/s | -51.4°C | 1.1% | 46.1hPa | 2.6V | 00:00:00 | 00:00:00 | 00:00:00 | |
| DL1XH1-15 | 2026-09-03 11:58:20 | 50.92928 | 8.41061 | 157° | 7km/h | 21494m | 5m/s | -51.3°C | 4% | 46.3hPa | 2.6V | 08:30:00 | 01:40:22 | 00:00:00 | |
| HSKMA3-T | 2026-09-03 11:58:17 | 50.92924 | 8.41060 | 216° | 5km/h | 21504m | 4.6m/s | -51.2°C | 0.5% | 46.3hPa | 2.7V | 18:12:15 | 01:40:24 | 00:00:00 | |
| BIOWL1-15 | 2026-09-03 11:58:16 | 50.92929 | 8.41059 | 130° | 9km/h | 21489m | 4.8m/s | -51.2°C | 0.5% | 46.4hPa | 2.6V | 18:12:15 | 01:40:21 | 00:00:00 | |
| DL1XH-west | 2026-09-03 11:58:16 | 50.92926 | 8.41061 | 189° | 7km/h | 21499m | 4.7m/s | -51.3°C | 0.6% | 46.3hPa | 2.7V | 18:12:15 | 01:40:23 | 00:00:00 | |
| GOEST3-10 | 2026-09-03 11:58:15 | 50.92927 | 8.41061 | 158° | 13km/h | 21494m | 5.0m/s | -51.2°C | 4.0% | 46.3hPa | 2.7V | 00:00:00 | 01:40:22 | 00:00:00 | |
| DM0DOS-11 | 2026-09-03 11:58:14 | 50.92933 | 8.41051 | 125° | 16km/h | 21480m | 6m/s | -51.4°C | 4% | 46.5hPa | 2.7V | 08:30:00 | 01:40:19 | 00:00:00 | |
| AA1-15 | 2026-09-03 11:58:09 | 50.92940 | 8.41033 | 118° | 16km/h | 21464m | 5.8m/s | -51.6°C | 0.6% | 46.6hPa | 2.6V | 18:12:15 | 01:40:16 | 00:00:00 | |
| HSKMA3-T | 2026-09-03 11:58:07 | 50.92943 | 8.41023 | 117° | 11km/h | 21455m | 4.6m/s | -51.6°C | 0.6% | 46.6hPa | 2.6V | 18:12:15 | 01:40:14 | 00:00:00 | |
| DL1XH1-15 | 2026-09-03 11:58:07 | 50.92947 | 8.41017 | 149° | 11km/h | 21444m | 5m/s | -51.7°C | 4% | 46.7hPa | 2.7V | 08:30:00 | 01:40:12 | 00:00:00 | |
| DL1XH-west | 2026-09-03 11:58:06 | 50.92945 | 8.41020 | 130° | 11km/h | 21450m | 5.8m/s | -51.6°C | 0.6% | 46.7hPa | 2.7V | 18:12:15 | 01:40:13 | 00:00:00 | |
| BIOWL1-15 | 2026-09-03 11:58:03 | 50.92953 | 8.41012 | 150° | 9km/h | 21430m | 5.3m/s | -51.8°C | 0.6% | 46.8hPa | 2.6V | 18:12:15 | 01:40:09 | 00:00:00 | |
| DL1NUX | 2026-09-03 11:58:02 | 50.92953 | 8.41012 | 149° | 9km/h | 21430m | 5.3m/s | -51.8°C | 4% | 46.8hPa | 2.6V | 08:30:00 | 01:40:09 | 00:00:00 | |
| DD8BA-10 | 2026-09-03 11:58:02 | 50.92953 | 8.41012 | 150° | 18km/h | 21430m | 5.2m/s | -51.7°C | 4.0% | 46.8hPa | 2.6V | 00:00:00 | 00:00:00 | 00:00:00 | |
| DO2KSM | 2026-09-03 11:58:01 | 50.92955 | 8.41010 | 142° | 9km/h | 21426m | 4.0m/s | -51.9°C | 1.1% | 46.9hPa | 2.7V | 00:00:00 | 00:00:00 | 00:00:00 | |
| GOEST3-10 | 2026-09-03 11:58:00 | 50.92957 | 8.41008 | 141° | 18km/h | 21421m | 4.7m/s | -51.9°C | 4.1% | 46.8hPa | 2.7V | 00:00:00 | 00:00:00 | 00:00:00 | |
| DL1XH1-15 | 2026-09-03 11:57:56 | 50.92975 | 8.40980 | 126° | 24km/h | 21396m | 4.4m/s | -51.9°C | 4.1% | 47hPa | 2.7V | 08:30:00 | 01:40:02 | 00:00:00 | |
| HSKMA3-T | 2026-09-03 11:57:56 | 50.92971 | 8.40987 | 129° | 22km/h | 21401m | 5.3m/s | -51.9°C | 0.7% | 47hPa | 2.6V | 18:12:15 | 01:40:03 | 00:00:00 | |
| DL1XH-west | 2026-09-03 11:57:55 | 50.92975 | 8.40980 | 126° | 24km/h | 21396m | 4.4m/s | -51.9°C | 0.7% | 47hPa | 2.7V | 18:12:15 | 01:40:02 | 00:00:00 | |
| BIOWL1-15 | 2026-09-03 11:57:54 | 50.92985 | 8.40958 | 123° | 22km/h | 21381m | 4.1m/s | -52°C | 0.6% | 47.2hPa | 2.6V | 18:12:15 | 01:39:59 | 00:00:00 | |
| DL1NUX | 2026-09-03 11:57:52 | 50.92986 | 8.40958 | 123° | 22km/h | 21381m | 4.1m/s | -52°C | 4.1% | 47.2hPa | 2.6V | 08:30:00 | 01:39:59 | 00:00:00 | |
| DD8BA-10 | 2026-09-03 11:57:52 | 50.92985 | 8.40958 | 124° | 18km/h | 21381m | 4.0m/s | -52.0°C | 4.1% | 47.1hPa | 2.7V | 00:00:00 | 00:00:00 | 00:00:00 | |
| DJ8HS-15 | 2026-09-03 11:57:50 | 50.92989 | 8.40944 | 100° | 20km/h | 21371m | 5.6m/s | -52.0°C | 4.1% | 47.2hPa | 2.7V | 00:00:00 | 01:39:57 | 00:00:00 | |
| DO3DL | 2026-09-03 11:57:49 | 50.92989 | 8.40944 | 101° | 16km/h | 21371m | 5.6m/s | -52.0°C | 1.1% | 47.3hPa | 2.7V | 00:00:00 | 00:00:00 | 00:00:00 | |
| DJ2DS-15 | 2026-09-03 11:57:48 | 50.92989 | 8.40932 | 89° | 20km/h | 21362m | 4.2m/s | -52.1°C | 4.1% | 47.3hPa | 2.7V | 00:00:00 | 01:39:55 | 00:00:00 | |
| DL1XH1-15 | 2026-09-03 11:57:46 | 50.92992 | 8.40917 | 117° | 18km/h | 21347m | 4.5m/s | -52.5°C | 4.2% | 47.4hPa | 2.7V | 08:30:00 | 01:39:52 | 00:00:00 | |
| HSKMA3-T | 2026-09-03 11:57:46 | 50.92990 | 8.40922 | 113° | 15km/h | 21352m | 4.8m/s | -52.4°C | 0.7% | 47.4hPa | 2.7V | 18:12:15 | 01:39:53 | 00:00:00 | |
| BUE01 | 2026-09-03 11:57:45 | 50.92992 | 8.40917 | 117° | 16km/h | 21347m | 4.6m/s | -52.5°C | 1.1% | 47.4hPa | 2.7V | 00:00:00 | 00:00:00 | 00:00:00 | |
| DL1XH-west | 2026-09-03 11:57:44 | 50.92994 | 8.40910 | 115° | 22km/h | 21342m | 5.7m/s | -52.5°C | 0.8% | 47.5hPa | 2.7V | 18:12:15 | 01:39:51 | 00:00:00 | |
| BIOWL1-15 | 2026-09-03 11:57:44 | 50.93000 | 8.40891 | 116° | 27km/h | 21331m | 5.5m/s | -52.5°C | 0.8% | 47.5hPa | 2.6V | 18:12:15 | 01:39:49 | 00:00:00 | |
| DL1NUX | 2026-09-03 11:57:42 | 50.93000 | 8.40891 | 116° | 27km/h | 21331m | 5.5m/s | -52.5°C | 4.4% | 47.5hPa | 2.6V | 08:30:00 | 01:39:49 | 00:00:00 | |
| DD8BA-10 | 2026-09-03 11:57:42 | 50.93000 | 8.40891 | 117° | 24km/h | 21332m | 5.5m/s | -52.4°C | 4.4% | 47.5hPa | 2.7V | 00:00:00 | 00:00:00 | 00:00:00 | |
| DL8DAS-14 | 2026-09-03 11:57:41 | 50.93003 | 8.40882 | 117° | 27km/h | 21326m | 5.1m/s | -52.5°C | 1.2% | 47.6hPa | 2.7V | 00:00:00 | 00:00:00 | 00:00:00 | |
| DO2KSM | 2026-09-03 11:57:40 | 50.93006 | 8.40872 | 114° | 27km/h | 21322m | 4.2m/s | -52.5°C | 1.2% | 47.6hPa | 2.7V | 00:00:00 | 00:00:00 | 00:00:00 | |
| DO3MHA-12 | 2026-09-03 11:57:39 | 50.93008 | 8.40862 | 106° | 22km/h | 21317m | 5.5m/s | -52.5°C | 4.4% | 47.6hPa | 2.7V | 00:00:00 | 01:39:46 | 00:00:00 | |
| DL1XH1-15 | 2026-09-03 11:57:36 | 50.93008 | 8.40824 | 79° | 18km/h | 21296m | 5m/s | -52.4°C | 4.3% | 47.8hPa | 2.7V | 08:30:00 | 01:39:42 | 00:00:00 | |
| HSKMA3-T | 2026-09-03 11:57:35 | 50.93008 | 8.40824 | 80° | 18km/h | 21296m | 5m/s | -52.4°C | 0.7% | 47.8hPa | 2.7V | 18:12:15 | 01:39:42 | 00:00:00 | |
| DL1XH-west | 2026-09-03 11:57:34 | 50.93007 | 8.40817 | 72° | 16km/h | 21291m | 4.7m/s | -52.5°C | 0.7% | 47.8hPa | 2.7V | 18:12:15 | 01:39:41 | 00:00:00 | |
| DM0DOS-11 | 2026-09-03 11:57:33 | 50.93003 | 8.40805 | 59° | 18km/h | 21281m | 4.5m/s | -52.4°C | 4.2% | 47.9hPa | 2.6V | 08:30:00 | 01:39:39 | 00:00:00 | |
| BIOWL1-15 | 2026-09-03 11:57:31 | 50.93001 | 8.40798 | 62° | 18km/h | 21277m | 4.3m/s | -52.3°C | 0.7% | 48hPa | 2.6V | 18:12:15 | 01:39:38 | 00:00:00 | |
| DO3DL | 2026-09-03 11:57:30 | 50.92999 | 8.40792 | 70° | 16km/h | 21273m | 5.2m/s | -52.2°C | 1.1% | 48.0hPa | 2.7V | 00:00:00 | 00:00:00 | 00:00:00 | |
| GOEST3-10 | 2026-09-03 11:57:29 | 50.92999 | 8.40786 | 87° | 20km/h | 21267m | 5.4m/s | -52.0°C | 4.2% | 48.0hPa | 2.7V | 00:00:00 | 00:00:00 | 00:00:00 | |
| DJ2DS-15 | 2026-09-03 11:57:28 | 50.92999 | 8.40780 | 105° | 18km/h | 21262m | 4.5m/s | -52.0°C | 4.2% | 48.0hPa | 2.7V | 00:00:00 | 01:39:35 | 00:00:00 | |
| DL1NUX | 2026-09-03 11:57:27 | 50.93011 | 8.40733 | 112° | 18km/h | 21231m | 4.7m/s | -52.2°C | 4.4% | 48.3hPa | 2.6V | 08:30:00 | 01:39:29 | 00:00:00 | |
| DL1XH1-15 | 2026-09-03 11:57:26 | 50.93005 | 8.40757 | 113° | 24km/h | 21247m | 4.5m/s | -52.1°C | 4.3% | 48.1hPa | 2.7V | 08:30:00 | 01:39:32 | 00:00:00 | |
| HSKMA3-T | 2026-09-03 11:57:24 | 50.93007 | 8.40748 | 116° | 24km/h | 21242m | 5.9m/s | -52.2°C | 0.8% | 48.2hPa | 2.7V | 18:12:15 | 01:39:31 | 00:00:00 | |
| DL1XH-west | 2026-09-03 11:57:23 | 50.93010 | 8.40740 | 117° | 20km/h | 21236m | 5.5m/s | -52.2°C | 0.8% | 48.3hPa | 2.6V | 18:12:15 | 01:39:30 | 00:00:00 | |
| DM0DOS-11 | 2026-09-03 11:57:23 | 50.93013 | 8.40726 | 100° | 16km/h | 21225m | 6.1m/s | -52.2°C | 4.3% | 48.3hPa | 2.6V | 08:30:00 | 01:39:28 | 00:00:00 | |
| BIOWL1-15 | 2026-09-03 11:57:23 | 50.93013 | 8.40726 | 100° | 16km/h | 21225m | 6.1m/s | -52.2°C | 0.8% | 48.3hPa | 2.6V | 18:12:15 | 01:39:28 | 00:00:00 | |
| AA1-15 | 2026-09-03 11:57:15 | 50.93012 | 8.40695 | 111° | 13km/h | 21195m | 5.5m/s | -52.1°C | 0.7% | 48.6hPa | 2.6V | 18:12:15 | 01:39:22 | 00:00:00 | |
| HSKMA3-T | 2026-09-03 11:57:13 | 50.93016 | 8.40682 | 125° | 20km/h | 21184m | 4.9m/s | -51.9°C | 0.7% | 48.6hPa | 2.7V | 18:12:15 | 01:39:20 | 00:00:00 | |
| DL1NUX | 2026-09-03 11:57:12 | 50.93019 | 8.40676 | 131° | 22km/h | 21179m | 6.1m/s | -51.8°C | 4.2% | 48.7hPa | 2.6V | 08:30:00 | 01:39:19 | 00:00:00 | |
| DM0DOS-11 | 2026-09-03 11:57:11 | 50.93024 | 8.40669 | 138° | 24km/h | 21173m | 6.1m/s | -51.7°C | 4.1% | 48.7hPa | 2.6V | 08:30:00 | 01:39:18 | 00:00:00 | |
| BIOWL1-15 | 2026-09-03 11:57:11 | 50.93024 | 8.40669 | 138° | 24km/h | 21173m | 6.1m/s | -51.7°C | 0.7% | 48.7hPa | 2.6V | 18:12:15 | 01:39:18 | 00:00:00 | |
| DO3MHA-12 | 2026-09-03 11:57:10 | 50.93028 | 8.40663 | 140° | 22km/h | 21167m | 4.8m/s | -51.6°C | 4.2% | 48.7hPa | 2.7V | 00:00:00 | 01:39:17 | 00:00:00 | |
| DB0ND-19 | 2026-09-03 11:57:09 | 50.93037 | 8.40649 | 129° | 24km/h | 21156m | 4.8m/s | -51.6°C | 1.1% | 48.9hPa | 2.7V | 00:00:00 | 00:00:00 | 00:00:00 | |
| DJ2DS-15 | 2026-09-03 11:57:08 | 50.93037 | 8.40649 | 130° | 24km/h | 21156m | 4.8m/s | -51.6°C | 4.1% | 48.8hPa | 2.7V | 00:00:00 | 01:39:15 | 00:00:00 | |
| DL1NUX | 2026-09-03 11:57:07 | 50.93057 | 8.40610 | 126° | 20km/h | 21125m | 4.4m/s | -51.8°C | 4.1% | 49.1hPa | 2.7V | 08:30:00 | 01:39:09 | 00:00:00 | |
| DL1XH1-15 | 2026-09-03 11:57:06 | 50.93048 | 8.40628 | 132° | 18km/h | 21140m | 4.9m/s | -51.7°C | 4.1% | 49hPa | 2.6V | 08:30:00 | 01:39:12 | 00:00:00 | |
| HSKMA3-T | 2026-09-03 11:57:02 | 50.93057 | 8.40610 | 127° | 20km/h | 21125m | 4.4m/s | -51.8°C | 0.7% | 49.1hPa | 2.7V | 18:12:15 | 01:39:09 | 00:00:00 | |
| DM0DOS-11 | 2026-09-03 11:57:01 | 50.93060 | 8.40604 | 131° | 22km/h | 21120m | 4.6m/s | -51.8°C | 4.1% | 49.1hPa | 2.6V | 08:30:00 | 01:39:08 | 00:00:00 | |
| BIOWL1-15 | 2026-09-03 11:57:00 | 50.93064 | 8.40598 | 141° | 22km/h | 21115m | 5.3m/s | -51.8°C | 0.6% | 49.1hPa | 2.6V | 18:12:15 | 01:39:07 | 00:00:00 | |
| DO3MHA-12 | 2026-09-03 11:57:00 | 50.93064 | 8.40597 | 141° | 26km/h | 21116m | 5.3m/s | -51.7°C | 4.1% | 49.1hPa | 2.6V | 00:00:00 | 01:39:07 | 00:00:00 | |
| GOEST3-10 | 2026-09-03 11:56:59 | 50.93069 | 8.40592 | 150° | 24km/h | 21110m | 5.3m/s | -51.7°C | 4.0% | 49.1hPa | 2.6V | 00:00:00 | 00:00:00 | 00:00:00 | |
| DO2KSM | 2026-09-03 11:56:58 | 50.93069 | 8.40592 | 151° | 22km/h | 21110m | 5.3m/s | -51.8°C | 1.1% | 49.2hPa | 2.6V | 00:00:00 | 00:00:00 | 00:00:00 | |
| DL1XH1-15 | 2026-09-03 11:56:56 | 50.93089 | 8.40572 | 135° | 27km/h | 21089m | 4.8m/s | -51.6°C | 4% | 49.3hPa | 2.6V | 08:30:00 | 01:39:02 | 00:00:00 | |
| DL1XH-west | 2026-09-03 11:56:52 | 50.93104 | 8.40547 | 137° | 29km/h | 21074m | 5.5m/s | -51.7°C | 0.7% | 49.5hPa | 2.7V | 18:12:15 | 01:38:59 | 00:00:00 | |
| DL1NUX | 2026-09-03 11:56:52 | 50.93104 | 8.40547 | 136° | 29km/h | 21074m | 5.5m/s | -51.7°C | 4.1% | 49.5hPa | 2.7V | 08:30:00 | 01:38:59 | 00:00:00 | |
| BIOWL1-15 | 2026-09-03 11:56:49 | 50.93124 | 8.40517 | 128° | 27km/h | 21054m | 5m/s | -51.8°C | 0.8% | 49.6hPa | 2.7V | 18:12:15 | 01:38:55 | 00:00:00 | |
| GOEST3-10 | 2026-09-03 11:56:49 | 50.93119 | 8.40525 | 133° | 27km/h | 21059m | 5.9m/s | -51.8°C | 4.1% | 49.5hPa | 2.6V | 00:00:00 | 00:00:00 | 08:30:00 | |
| DJ2DS-15 | 2026-09-03 11:56:48 | 50.93124 | 8.40517 | 129° | 29km/h | 21054m | 4.9m/s | -51.8°C | 4.2% | 49.6hPa | 2.7V | 00:00:00 | 01:38:55 | 00:00:00 | |
| NBG1-10 | 2026-09-03 11:56:47 | 50.93128 | 8.40508 | 130° | 29km/h | 21049m | 5.1m/s | -51.8°C | 4.1% | 49.6hPa | 2.7V | 00:00:00 | 01:38:54 | 00:00:00 | |
| DM0DOS-11 | 2026-09-03 11:56:46 | 50.93158 | 8.40454 | 129° | 35km/h | 21017m | 5.1m/s | -52.1°C | 4.2% | 49.9hPa | 2.7V | 08:30:00 | 01:38:48 | 00:00:00 | |
| DL1XH1-15 | 2026-09-03 11:56:46 | 50.93137 | 8.40492 | 135° | 27km/h | 21038m | 4.9m/s | -52°C | 4.2% | 49.8hPa | 2.6V | 08:30:00 | 01:38:52 | 00:00:00 | |
| AU51GT2 | 2026-09-03 11:56:46 | 50.93133 | 8.40500 | 132° | 26km/h | 21043m | 5.8m/s | -51.9°C | 1.1% | 49.7hPa | 2.7V | 00:00:00 | 00:00:00 | 00:00:00 | |
| DL1XH-west | 2026-09-03 11:56:41 | 50.93158 | 8.40454 | 129° | 35km/h | 21018m | 5.1m/s | -52.1°C | 0.7% | 49.9hPa | 2.7V | 18:12:15 | 01:38:48 | 00:00:00 | |
| BIOWL1-15 | 2026-09-03 11:56:38 | 50.93174 | 8.40425 | 129° | 31km/h | 21002m | 5.4m/s | -52.2°C | 0.7% | 50hPa | 2.6V | 18:12:15 | 01:38:45 | 00:00:00 | |
| DO2KSM | 2026-09-03 11:56:37 | 50.93174 | 8.40425 | 130° | 31km/h | 21002m | 5.4m/s | -52.2°C | 1.1% | 50.0hPa | 2.7V | 00:00:00 | 00:00:00 | 00:00:00 | |
| DM0DOS-11 | 2026-09-03 11:56:36 | 50.93195 | 8.40356 | 111° | 31km/h | 20966m | 6m/s | -52°C | 4.2% | 50.3hPa | 2.7V | 08:30:00 | 01:38:38 | 00:00:00 | |
| AA1-15 | 2026-09-03 11:56:36 | 50.93182 | 8.40406 | 115° | 27km/h | 20991m | 4.7m/s | -52.1°C | 0.7% | 50.1hPa | 2.7V | 18:12:15 | 01:38:43 | 00:00:00 | |
| DL1XH-west | 2026-09-03 11:56:31 | 50.93195 | 8.40356 | 111° | 31km/h | 20966m | 6m/s | -52°C | 0.7% | 50.3hPa | 2.7V | 18:12:15 | 01:38:38 | 00:00:00 | |
| BIOWL1-15 | 2026-09-03 11:56:27 | 50.93209 | 8.40304 | 118° | 38km/h | 20945m | 5.1m/s | -51.8°C | 0.6% | 50.5hPa | 2.6V | 18:12:15 | 01:38:34 | 00:00:00 | |
| DL3AQ-11 | 2026-09-03 11:56:26 | 50.93218 | 8.40277 | 116° | 37km/h | 20935m | 5.4m/s | -51.7°C | 1.1% | 50.5hPa | 2.7V | 00:00:00 | 00:00:00 | 00:00:00 | |
| DM0DOS-11 | 2026-09-03 11:56:25 | 50.93232 | 8.40232 | 116° | 22km/h | 20914m | 5.1m/s | -51.6°C | 4% | 50.7hPa | 2.7V | 08:30:00 | 01:38:28 | 00:00:00 | |
| AA1-15 | 2026-09-03 11:56:25 | 50.93218 | 8.40277 | 117° | 38km/h | 20935m | 5.4m/s | -51.7°C | 0.7% | 50.5hPa | 2.7V | 18:12:15 | 01:38:32 | 00:00:00 | |
| BIOWL1-15 | 2026-09-03 11:56:21 | 50.93236 | 8.40201 | 92° | 22km/h | 20894m | 4.9m/s | -51.7°C | 0.7% | 50.9hPa | 2.6V | 18:12:15 | 01:38:24 | 00:00:00 | |
| HSKMA3-T | 2026-09-03 11:56:20 | 50.93234 | 8.40224 | 111° | 18km/h | 20909m | 4.5m/s | -51.7°C | 0.6% | 50.7hPa | 2.7V | 18:12:15 | 01:38:27 | 00:00:00 | |
| HARRO8 | 2026-09-03 11:56:20 | 50.93235 | 8.40217 | 101° | 18km/h | 20904m | 5.9m/s | -51.8°C | 1.1% | 50.8hPa | 2.6V | 00:00:00 | 00:00:00 | 00:00:00 | |
| DF7PN | 2026-09-03 11:56:19 | 50.93236 | 8.40209 | 92° | 20km/h | 20899m | 4.9m/s | -51.7°C | 1.1% | 50.8hPa | 2.6V | 00:00:00 | 00:00:00 | 00:00:00 | |
| DL1NUX | 2026-09-03 11:56:17 | 50.93241 | 8.40143 | 99° | 38km/h | 20868m | 4.5m/s | -52.1°C | 4.2% | 51hPa | 2.6V | 08:30:00 | 01:38:19 | 00:00:00 | |
| DO3DL | 2026-09-03 11:56:16 | 50.93236 | 8.40201 | 93° | 22km/h | 20894m | 4.9m/s | -51.7°C | 1.1% | 50.9hPa | 2.6V | 00:00:00 | 00:00:00 | 00:00:00 | |
| AU51GT2 | 2026-09-03 11:56:15 | 50.93238 | 8.40171 | 99° | 29km/h | 20879m | 5.0m/s | -52.0°C | 1.1% | 51.0hPa | 2.6V | 00:00:00 | 00:00:00 | 00:00:00 | |
| DM0DOS-11 | 2026-09-03 11:56:14 | 50.93243 | 8.40128 | 103° | 38km/h | 20863m | 4.8m/s | -52.1°C | 4.2% | 51.1hPa | 2.6V | 08:30:00 | 01:38:18 | 00:00:00 | |
| AA1-15 | 2026-09-03 11:56:14 | 50.93238 | 8.40171 | 99° | 31km/h | 20879m | 5m/s | -52°C | 0.7% | 51hPa | 2.7V | 18:12:15 | 01:38:21 | 00:00:00 | |
| HSKMA3-T | 2026-09-03 11:56:10 | 50.93245 | 8.40114 | 109° | 37km/h | 20858m | 5.5m/s | -52.1°C | 0.7% | 51.1hPa | 2.7V | 18:12:15 | 01:38:17 | 00:00:00 | |
| BIOWL1-15 | 2026-09-03 11:56:07 | 50.93254 | 8.40077 | 108° | 29km/h | 20843m | 5.4m/s | -51.9°C | 0.7% | 51.3hPa | 2.6V | 18:12:15 | 01:38:14 | 00:00:00 | |
| DL1XH1-15 | 2026-09-03 11:56:06 | 50.93258 | 8.40058 | 104° | 22km/h | 20834m | 5m/s | -51.8°C | 4.1% | 51.3hPa | 2.6V | 08:30:00 | 01:38:12 | 00:00:00 | |
| DL4BBY-15 | 2026-09-03 11:56:06 | 50.93256 | 8.40067 | 106° | 18km/h | 20839m | 4.3m/s | -54.1°C | 0% | 0hPa | 2.6V | 00:00:00 | 00:00:00 | 00:00:00 | |
| DJ2KF-10 | 2026-09-03 11:56:05 | 50.93258 | 8.40058 | 105° | 18km/h | 20834m | 5.0m/s | -51.8°C | 4.1% | 51.3hPa | 2.6V | 00:00:00 | 01:38:12 | 00:00:00 | |
| DL1NUX | 2026-09-03 11:56:04 | 50.93261 | 8.40037 | 102° | 18km/h | 20818m | 4.7m/s | -51.8°C | 4.2% | 51.4hPa | 2.6V | 08:30:00 | 01:38:09 | 00:00:00 | |
| AA1-15 | 2026-09-03 11:56:03 | 50.93260 | 8.40043 | 106° | 16km/h | 20823m | 4.3m/s | -51.8°C | 0.7% | 51.4hPa | 2.7V | 18:12:15 | 01:38:10 | 00:00:00 | |
| DM0DOS-11 | 2026-09-03 11:56:01 | 50.93262 | 8.40029 | 99° | 22km/h | 20813m | 6m/s | -51.8°C | 4.2% | 51.5hPa | 2.6V | 08:30:00 | 01:38:08 | 00:00:00 | |
| DL1XH1-15 | 2026-09-03 11:56:00 | 50.93270 | 8.39974 | 101° | 20km/h | 20782m | 5.8m/s | -51.9°C | 4.2% | 51.7hPa | 2.7V | 08:30:00 | 01:38:02 | 00:00:00 | |
| HSKMA3-T | 2026-09-03 11:56:00 | 50.93263 | 8.40020 | 98° | 26km/h | 20808m | 5m/s | -51.8°C | 0.8% | 51.5hPa | 2.7V | 18:12:15 | 01:38:07 | 00:00:00 | |
| DL1XH-west | 2026-09-03 11:56:00 | 50.93264 | 8.40010 | 101° | 26km/h | 20803m | 4.7m/s | -51.9°C | 0.8% | 51.6hPa | 2.7V | 18:12:15 | 01:38:06 | 00:00:00 | |
| SONCRA | 2026-09-03 11:55:57 | 50.93267 | 8.39990 | 109° | 22km/h | 20792m | 4.8m/s | -51.9°C | 1.2% | 51.7hPa | 2.7V | 00:00:00 | 00:00:00 | 00:00:00 | |
| DO1YAY-16 | 2026-09-03 11:55:56 | 50.93269 | 8.39982 | 107° | 20km/h | 20788m | 4.5m/s | -51.8°C | 1.1% | 51.7hPa | 2.7V | 00:00:00 | 00:00:00 | 00:00:00 | |
| DB0DAN | 2026-09-03 11:55:55 | 50.93271 | 8.39974 | 101° | 18km/h | 20782m | 5.8m/s | -51.9°C | 1.1% | 51.73hPa | 2.7V | 00:00:00 | 00:00:00 | 00:00:00 | |
| AA1-15 | 2026-09-03 11:55:53 | 50.93271 | 8.39960 | 83° | 18km/h | 20772m | 4.3m/s | -51.9°C | 0.7% | 51.8hPa | 2.7V | 18:12:15 | 01:38:00 | 00:00:00 | |
| DJTTGO | 2026-09-03 11:55:53 | 50.93271 | 8.39960 | 83° | 18km/h | 20772m | 4.3m/s | -51.9°C | 1.2% | 51.8hPa | 2.6V | 00:00:00 | 00:00:00 | 00:00:00 | |
| DM0DOS-11 | 2026-09-03 11:55:51 | 50.93270 | 8.39941 | 101° | 15km/h | 20756m | 5m/s | -51.9°C | 4.1% | 52hPa | 2.6V | 08:30:00 | 01:37:57 | 00:00:00 | |
| HSKMA3-T | 2026-09-03 11:55:49 | 50.93272 | 8.39934 | 102° | 16km/h | 20751m | 5.2m/s | -52°C | 0.7% | 52hPa | 2.7V | 18:12:15 | 01:37:56 | 00:00:00 | |
| DL1XH-west | 2026-09-03 11:55:48 | 50.93272 | 8.39927 | 98° | 18km/h | 20746m | 5.8m/s | -52°C | 0.7% | 52hPa | 2.7V | 18:12:15 | 01:37:55 | 00:00:00 | |
| DF7PN | 2026-09-03 11:55:48 | 50.93273 | 8.39920 | 93° | 18km/h | 20741m | 4.6m/s | -51.9°C | 1.2% | 52.1hPa | 2.6V | 00:00:00 | 00:00:00 | 00:00:00 | |
| DL1XH1-15 | 2026-09-03 11:55:46 | 50.93274 | 8.39905 | 99° | 18km/h | 20730m | 5.7m/s | -51.7°C | 4.2% | 52.2hPa | 2.6V | 08:30:00 | 01:37:52 | 00:00:00 | |
| BIOWL1-15 | 2026-09-03 11:55:45 | 50.93274 | 8.39905 | 99° | 18km/h | 20731m | 5.7m/s | -51.7°C | 0.7% | 52.2hPa | 2.6V | 18:12:15 | 01:37:52 | 00:00:00 | |
| AA1-15 | 2026-09-03 11:55:42 | 50.93274 | 8.39885 | 81° | 16km/h | 20716m | 5.3m/s | -51.7°C | 0.7% | 52.3hPa | 2.7V | 18:12:15 | 01:37:49 | 00:00:00 | |
| DD8BA-10 | 2026-09-03 11:55:42 | 50.93274 | 8.39885 | 82° | 11km/h | 20716m | 5.2m/s | -51.7°C | 4.2% | 52.2hPa | 2.6V | 00:00:00 | 00:00:00 | 00:00:00 | |
| NBG1-10 | 2026-09-03 11:55:41 | 50.93273 | 8.39878 | 74° | 16km/h | 20711m | 4.4m/s | -51.5°C | 4.0% | 52.3hPa | 2.6V | 00:00:00 | 01:37:48 | 00:00:00 | |
| DL1XH1-15 | 2026-09-03 11:55:40 | 50.93270 | 8.39853 | 77° | 7km/h | 20682m | 4.2m/s | -51.7°C | 4% | 52.6hPa | 2.6V | 08:30:00 | 01:37:42 | 00:00:00 | |
| HSKMA3-T | 2026-09-03 11:55:39 | 50.93271 | 8.39867 | 79° | 13km/h | 20701m | 5.2m/s | -51.7°C | 0.6% | 52.4hPa | 2.6V | 18:12:15 | 01:37:46 | 00:00:00 | |
| DL1XH-west | 2026-09-03 11:55:37 | 50.93271 | 8.39859 | 85° | 9km/h | 20692m | 4.9m/s | -51.6°C | 0.6% | 52.5hPa | 2.7V | 18:12:15 | 01:37:44 | 00:00:00 | |
| BIOWL1-15 | 2026-09-03 11:55:34 | 50.93270 | 8.39849 | 96° | 9km/h | 20677m | 4.1m/s | -51.6°C | 0.7% | 52.6hPa | 2.6V | 18:12:15 | 01:37:41 | 00:00:00 | |
| DL1NUX | 2026-09-03 11:55:34 | 50.93272 | 8.39841 | 128° | 16km/h | 20667m | 5.1m/s | -51.7°C | 4.1% | 52.7hPa | 2.7V | 08:30:00 | 01:37:39 | 00:00:00 | |
| AA1-15 | 2026-09-03 11:55:32 | 50.93272 | 8.39841 | 128° | 16km/h | 20667m | 5.1m/s | -51.7°C | 0.6% | 52.7hPa | 2.7V | 18:12:15 | 01:37:39 | 00:00:00 | |
| HSKMA3-T | 2026-09-03 11:55:29 | 50.93281 | 8.39820 | 113° | 24km/h | 20653m | 5.5m/s | -51.7°C | 0.6% | 52.8hPa | 2.6V | 18:12:15 | 01:37:36 | 00:00:00 | |
| DO3DL | 2026-09-03 11:55:29 | 50.93281 | 8.39820 | 114° | 24km/h | 20654m | 5.5m/s | -51.7°C | 1.1% | 52.8hPa | 2.6V | 00:00:00 | 00:00:00 | 00:00:00 | |
| DJ2DS-15 | 2026-09-03 11:55:28 | 50.93283 | 8.39812 | 103° | 22km/h | 20648m | 5.0m/s | -51.6°C | 4.0% | 52.8hPa | 2.6V | 00:00:00 | 01:37:35 | 08:30:00 | |
| DL1NUX | 2026-09-03 11:55:27 | 50.93290 | 8.39777 | 148° | 11km/h | 20619m | 5.7m/s | -52°C | 4.1% | 53.1hPa | 2.7V | 08:30:00 | 01:37:29 | 00:00:00 | |
| DL1XH-west | 2026-09-03 11:55:27 | 50.93284 | 8.39804 | 95° | 20km/h | 20643m | 4.6m/s | -51.6°C | 0.6% | 52.9hPa | 2.7V | 18:12:15 | 01:37:34 | 00:00:00 | |
| DL1XH1-15 | 2026-09-03 11:55:26 | 50.93285 | 8.39790 | 102° | 16km/h | 20633m | 5.4m/s | -51.8°C | 4.1% | 52.9hPa | 2.6V | 08:30:00 | 01:37:32 | 00:00:00 | |
| BIOWL1-15 | 2026-09-03 11:55:24 | 50.93286 | 8.39784 | 120° | 15km/h | 20628m | 4.5m/s | -52°C | 0.7% | 53hPa | 2.6V | 18:12:15 | 01:37:31 | 00:00:00 | |
| AA1-15 | 2026-09-03 11:55:21 | 50.93293 | 8.39775 | 155° | 11km/h | 20613m | 4.3m/s | -52.1°C | 0.7% | 53.1hPa | 2.6V | 18:12:15 | 01:37:28 | 00:00:00 | |
| DL1XH1-15 | 2026-09-03 11:55:20 | 50.93319 | 8.39735 | 122° | 33km/h | 20584m | 5.4m/s | -52.2°C | 4.1% | 53.4hPa | 2.6V | 08:30:00 | 01:37:22 | 00:00:00 | |
| BIOWL1-15 | 2026-09-03 11:55:20 | 50.93323 | 8.39724 | 118° | 31km/h | 20579m | 4.7m/s | -52.2°C | 0.7% | 53.4hPa | 2.6V | 18:12:15 | 01:37:21 | 00:00:00 | |
| HSKMA3-T | 2026-09-03 11:55:18 | 50.93304 | 8.39764 | 139° | 26km/h | 20599m | 5.3m/s | -52.1°C | 0.7% | 53.2hPa | 2.7V | 18:12:15 | 01:37:25 | 00:00:00 | |
| DL1XH-west | 2026-09-03 11:55:16 | 50.93315 | 8.39745 | 127° | 35km/h | 20589m | 5.3m/s | -52.1°C | 0.6% | 53.3hPa | 2.7V | 18:12:15 | 01:37:23 | 00:00:00 | |
| DO3DL | 2026-09-03 11:55:16 | 50.93315 | 8.39745 | 128° | 35km/h | 20590m | 5.3m/s | -52.1°C | 1.1% | 53.3hPa | 2.6V | 00:00:00 | 00:00:00 | 00:00:00 | |
| DO2KSM | 2026-09-03 11:55:15 | 50.93315 | 8.39745 | 128° | 35km/h | 20590m | 5.3m/s | -52.1°C | 1.1% | 53.3hPa | 2.6V | 00:00:00 | 00:00:00 | 00:00:00 | |
| DM0DOS-11 | 2026-09-03 11:55:14 | 50.93340 | 8.39681 | 127° | 16km/h | 20554m | 5.8m/s | -52.3°C | 4.1% | 53.6hPa | 2.6V | 08:30:00 | 01:37:16 | 00:00:00 | |
| DL1XH-15 | 2026-09-03 11:55:14 | 50.93327 | 8.39713 | 117° | 29km/h | 20574m | 4.9m/s | -52.2°C | 4.1% | 53.5hPa | 2.6V | 08:30:00 | 01:37:20 | 00:00:00 | |
| AA1-15 | 2026-09-03 11:55:11 | 50.93334 | 8.39694 | 122° | 24km/h | 20564m | 4.1m/s | -52.3°C | 0.7% | 53.5hPa | 2.7V | 18:12:15 | 01:37:18 | 00:00:00 | |
| HSKMA3-T | 2026-09-03 11:55:08 | 50.93342 | 8.39676 | 129° | 15km/h | 20549m | 4.4m/s | -52.3°C | 0.7% | 53.6hPa | 2.6V | 18:12:15 | 01:37:15 | 00:00:00 | |
| DJ2DS-15 | 2026-09-03 11:55:08 | 50.93342 | 8.39676 | 130° | 24km/h | 20549m | 4.4m/s | -52.2°C | 4.1% | 53.6hPa | 2.6V | 00:00:00 | 01:37:15 | 00:00:00 | |
| DL1NUX | 2026-09-03 11:55:07 | 50.93360 | 8.39630 | 112° | 29km/h | 20521m | 4.4m/s | -52.5°C | 4.1% | 53.9hPa | 2.6V | 08:30:00 | 01:37:09 | 00:00:00 | |
| DL1XH-west | 2026-09-03 11:55:05 | 50.93351 | 8.39658 | 125° | 24km/h | 20535m | 4m/s | -52.4°C | 0.7% | 53.8hPa | 2.7V | 18:12:15 | 01:37:12 | 00:00:00 | |
| DL1XH-15 | 2026-09-03 11:55:04 | 50.93357 | 8.39640 | 115° | 27km/h | 20526m | 5m/s | -52.4°C | 4.1% | 53.8hPa | 2.6V | 08:30:00 | 01:37:10 | 00:00:00 | |
| BIOWL1-15 | 2026-09-03 11:55:04 | 50.93354 | 8.39650 | 121° | 26km/h | 20531m | 5m/s | -52.4°C | 0.6% | 53.8hPa | 2.6V | 18:12:15 | 01:37:11 | 00:00:00 | |
| AA1-15 | 2026-09-03 11:55:01 | 50.93363 | 8.39619 | 111° | 31km/h | 20516m | 5.3m/s | -52.6°C | 0.7% | 53.9hPa | 2.7V | 18:12:15 | 01:37:08 | 00:00:00 | |
| HSKMA3-T | 2026-09-03 11:54:57 | 50.93374 | 8.39575 | 106° | 24km/h | 20497m | 5.9m/s | -52.7°C | 0.8% | 54.1hPa | 2.6V | 18:12:15 | 01:37:04 | 00:00:00 | |
| DB0DAN | 2026-09-03 11:54:55 | 50.93376 | 8.39559 | 102° | 18km/h | 20487m | 4.5m/s | -52.6°C | 1.2% | 54.15hPa | 2.7V | 00:00:00 | 00:00:00 | 00:00:00 | |
| Es werden nur die letzten 3500 von 6530 Frames angezeigt. GPX/KML und Diagramme bleiben verfügbar. | |||||||||||||||